<?xml version='1.0' encoding='UTF-8'?><gpx version="1.1" creator="JPX - https://github.com/jenetics/jpx" xmlns="http://www.topografix.com/GPX/1/1"><trk><trkseg><trkpt lat="44.2823914" lon="8.4335798"><ele>8.0</ele><time>2026-05-03T08:00:51.271Z</time></trkpt><trkpt lat="44.2823687" lon="8.4334695"><ele>7.999999999999999</ele><time>2026-05-03T08:00:54.271Z</time></trkpt><trkpt lat="44.2824132" lon="8.4333978"><ele>8.0</ele><time>2026-05-03T08:00:58.271Z</time></trkpt><trkpt lat="44.2824762" lon="8.4333674"><ele>8.0</ele><time>2026-05-03T08:01:16.271Z</time></trkpt><trkpt lat="44.2825497" lon="8.4333365"><ele>7.999999999999999</ele><time>2026-05-03T08:01:18.271Z</time></trkpt><trkpt lat="44.2826158" lon="8.4332984"><ele>8.0</ele><time>2026-05-03T08:01:20.271Z</time></trkpt><trkpt lat="44.2826526" lon="8.433206"><ele>8.0</ele><time>2026-05-03T08:01:23.271Z</time></trkpt><trkpt lat="44.2826153" lon="8.4331119"><ele>7.999999999999999</ele><time>2026-05-03T08:01:25.271Z</time></trkpt><trkpt lat="44.2825563" lon="8.433042"><ele>8.0</ele><time>2026-05-03T08:01:26.271Z</time></trkpt><trkpt lat="44.2824863" lon="8.4329768"><ele>8.0</ele><time>2026-05-03T08:01:27.271Z</time></trkpt><trkpt lat="44.2824195" lon="8.4329206"><ele>8.0</ele><time>2026-05-03T08:01:28.271Z</time></trkpt><trkpt lat="44.2823631" lon="8.4328615"><ele>7.999999999999999</ele><time>2026-05-03T08:01:29.271Z</time></trkpt><trkpt lat="44.28229" lon="8.4327439"><ele>8.0</ele><time>2026-05-03T08:01:31.271Z</time></trkpt><trkpt lat="44.2822868" lon="8.4326367"><ele>7.800000000000001</ele><time>2026-05-03T08:01:33.271Z</time></trkpt><trkpt lat="44.2823282" lon="8.4325037"><ele>7.6000000000000005</ele><time>2026-05-03T08:01:35.272Z</time></trkpt><trkpt lat="44.2823834" lon="8.4324333"><ele>7.3999999999999995</ele><time>2026-05-03T08:01:36.272Z</time></trkpt><trkpt lat="44.282472" lon="8.4323744"><ele>7.199999999999999</ele><time>2026-05-03T08:01:37.272Z</time></trkpt><trkpt lat="44.2825791" lon="8.4323194"><ele>7.0</ele><time>2026-05-03T08:01:38.272Z</time></trkpt><trkpt lat="44.2826951" lon="8.432255"><ele>7.0</ele><time>2026-05-03T08:01:39.272Z</time></trkpt><trkpt lat="44.2828066" lon="8.4321779"><ele>7.0</ele><time>2026-05-03T08:01:40.272Z</time></trkpt><trkpt lat="44.2829143" lon="8.4321004"><ele>7.0</ele><time>2026-05-03T08:01:41.272Z</time></trkpt><trkpt lat="44.2830264" lon="8.4320184"><ele>7.0</ele><time>2026-05-03T08:01:42.272Z</time></trkpt><trkpt lat="44.2831336" lon="8.4319417"><ele>7.0</ele><time>2026-05-03T08:01:43.272Z</time></trkpt><trkpt lat="44.2832397" lon="8.431865"><ele>7.0</ele><time>2026-05-03T08:01:44.272Z</time></trkpt><trkpt lat="44.2833409" lon="8.4317922"><ele>7.0</ele><time>2026-05-03T08:01:45.272Z</time></trkpt><trkpt lat="44.2834409" lon="8.4317196"><ele>7.0</ele><time>2026-05-03T08:01:46.272Z</time></trkpt><trkpt lat="44.2835451" lon="8.4316256"><ele>7.0</ele><time>2026-05-03T08:01:47.272Z</time></trkpt><trkpt lat="44.2836438" lon="8.4315124"><ele>7.0</ele><time>2026-05-03T08:01:48.272Z</time></trkpt><trkpt lat="44.2837482" lon="8.4313763"><ele>7.0</ele><time>2026-05-03T08:01:49.272Z</time></trkpt><trkpt lat="44.2838437" lon="8.4312509"><ele>7.0</ele><time>2026-05-03T08:01:50.272Z</time></trkpt><trkpt lat="44.2839225" lon="8.4311352"><ele>7.500000000000001</ele><time>2026-05-03T08:01:51.272Z</time></trkpt><trkpt lat="44.2839868" lon="8.4310234"><ele>8.0</ele><time>2026-05-03T08:01:52.272Z</time></trkpt><trkpt lat="44.2840409" lon="8.4309158"><ele>8.5</ele><time>2026-05-03T08:01:53.272Z</time></trkpt><trkpt lat="44.2840899" lon="8.4308209"><ele>9.0</ele><time>2026-05-03T08:01:54.272Z</time></trkpt><trkpt lat="44.284134" lon="8.4307355"><ele>9.5</ele><time>2026-05-03T08:01:55.272Z</time></trkpt><trkpt lat="44.2841735" lon="8.4306629"><ele>10.0</ele><time>2026-05-03T08:01:56.272Z</time></trkpt><trkpt lat="44.2842377" lon="8.4305625"><ele>10.0</ele><time>2026-05-03T08:01:58.272Z</time></trkpt><trkpt lat="44.2842908" lon="8.4305012"><ele>10.0</ele><time>2026-05-03T08:02:00.272Z</time></trkpt><trkpt lat="44.2843809" lon="8.4304688"><ele>10.0</ele><time>2026-05-03T08:02:02.272Z</time></trkpt><trkpt lat="44.2844358" lon="8.430541"><ele>10.0</ele><time>2026-05-03T08:02:03.272Z</time></trkpt><trkpt lat="44.2844925" lon="8.4306302"><ele>10.0</ele><time>2026-05-03T08:02:04.272Z</time></trkpt><trkpt lat="44.2845626" lon="8.4307315"><ele>10.0</ele><time>2026-05-03T08:02:05.272Z</time></trkpt><trkpt lat="44.2846452" lon="8.4308486"><ele>10.0</ele><time>2026-05-03T08:02:06.272Z</time></trkpt><trkpt lat="44.2847263" lon="8.4309689"><ele>10.0</ele><time>2026-05-03T08:02:07.272Z</time></trkpt><trkpt lat="44.2848037" lon="8.4310985"><ele>10.0</ele><time>2026-05-03T08:02:08.272Z</time></trkpt><trkpt lat="44.2848883" lon="8.4312235"><ele>10.0</ele><time>2026-05-03T08:02:09.272Z</time></trkpt><trkpt lat="44.2849639" lon="8.4313393"><ele>9.4</ele><time>2026-05-03T08:02:10.272Z</time></trkpt><trkpt lat="44.2850329" lon="8.4314406"><ele>8.8</ele><time>2026-05-03T08:02:11.272Z</time></trkpt><trkpt lat="44.2850957" lon="8.431538"><ele>8.2</ele><time>2026-05-03T08:02:12.272Z</time></trkpt><trkpt lat="44.2851592" lon="8.4316399"><ele>7.6</ele><time>2026-05-03T08:02:13.272Z</time></trkpt><trkpt lat="44.2852291" lon="8.4317442"><ele>7.0</ele><time>2026-05-03T08:02:14.272Z</time></trkpt><trkpt lat="44.2852992" lon="8.4318573"><ele>7.0</ele><time>2026-05-03T08:02:15.272Z</time></trkpt><trkpt lat="44.285371" lon="8.4319773"><ele>7.0</ele><time>2026-05-03T08:02:16.272Z</time></trkpt><trkpt lat="44.2854458" lon="8.4321004"><ele>7.0</ele><time>2026-05-03T08:02:17.272Z</time></trkpt><trkpt lat="44.2855303" lon="8.4322224"><ele>7.0</ele><time>2026-05-03T08:02:18.272Z</time></trkpt><trkpt lat="44.2856088" lon="8.4323416"><ele>7.166666666666667</ele><time>2026-05-03T08:02:19.272Z</time></trkpt><trkpt lat="44.2856845" lon="8.4324551"><ele>7.333333333333334</ele><time>2026-05-03T08:02:20.272Z</time></trkpt><trkpt lat="44.2857533" lon="8.4325551"><ele>7.5</ele><time>2026-05-03T08:02:21.272Z</time></trkpt><trkpt lat="44.2858134" lon="8.4326472"><ele>7.666666666666666</ele><time>2026-05-03T08:02:22.272Z</time></trkpt><trkpt lat="44.2858687" lon="8.4327312"><ele>7.833333333333333</ele><time>2026-05-03T08:02:23.272Z</time></trkpt><trkpt lat="44.2859122" lon="8.432801"><ele>8.0</ele><time>2026-05-03T08:02:24.272Z</time></trkpt><trkpt lat="44.2859691" lon="8.432898"><ele>8.0</ele><time>2026-05-03T08:02:26.272Z</time></trkpt><trkpt lat="44.2860095" lon="8.4330059"><ele>8.0</ele><time>2026-05-03T08:02:28.272Z</time></trkpt><trkpt lat="44.2860155" lon="8.4330953"><ele>8.0</ele><time>2026-05-03T08:02:29.272Z</time></trkpt><trkpt lat="44.2859811" lon="8.4332066"><ele>8.0</ele><time>2026-05-03T08:02:30.272Z</time></trkpt><trkpt lat="44.2859072" lon="8.4333057"><ele>8.0</ele><time>2026-05-03T08:02:31.272Z</time></trkpt><trkpt lat="44.2857869" lon="8.4334139"><ele>8.0</ele><time>2026-05-03T08:02:32.272Z</time></trkpt><trkpt lat="44.2856806" lon="8.4335083"><ele>8.0</ele><time>2026-05-03T08:02:33.272Z</time></trkpt><trkpt lat="44.2855779" lon="8.4336056"><ele>8.0</ele><time>2026-05-03T08:02:34.272Z</time></trkpt><trkpt lat="44.285478" lon="8.4337107"><ele>8.0</ele><time>2026-05-03T08:02:35.272Z</time></trkpt><trkpt lat="44.2853796" lon="8.4338175"><ele>8.25</ele><time>2026-05-03T08:02:36.271Z</time></trkpt><trkpt lat="44.2852786" lon="8.4339168"><ele>8.5</ele><time>2026-05-03T08:02:37.271Z</time></trkpt><trkpt lat="44.2851852" lon="8.4340236"><ele>8.75</ele><time>2026-05-03T08:02:38.272Z</time></trkpt><trkpt lat="44.2851041" lon="8.4341237"><ele>9.0</ele><time>2026-05-03T08:02:39.271Z</time></trkpt><trkpt lat="44.2850267" lon="8.4342276"><ele>9.0</ele><time>2026-05-03T08:02:40.272Z</time></trkpt><trkpt lat="44.2849595" lon="8.4343266"><ele>9.0</ele><time>2026-05-03T08:02:41.272Z</time></trkpt><trkpt lat="44.284889" lon="8.4344271"><ele>9.0</ele><time>2026-05-03T08:02:42.272Z</time></trkpt><trkpt lat="44.2848271" lon="8.4345242"><ele>9.0</ele><time>2026-05-03T08:02:43.272Z</time></trkpt><trkpt lat="44.2847839" lon="8.4346143"><ele>9.0</ele><time>2026-05-03T08:02:44.272Z</time></trkpt><trkpt lat="44.2847399" lon="8.4347162"><ele>8.2</ele><time>2026-05-03T08:02:45.272Z</time></trkpt><trkpt lat="44.2847021" lon="8.434809"><ele>7.4</ele><time>2026-05-03T08:02:46.272Z</time></trkpt><trkpt lat="44.2846531" lon="8.434941"><ele>6.6</ele><time>2026-05-03T08:02:48.272Z</time></trkpt><trkpt lat="44.284607" lon="8.4350534"><ele>5.8</ele><time>2026-05-03T08:02:50.272Z</time></trkpt><trkpt lat="44.2845479" lon="8.4351837"><ele>5.0</ele><time>2026-05-03T08:02:52.272Z</time></trkpt><trkpt lat="44.2845653" lon="8.4353103"><ele>5.0</ele><time>2026-05-03T08:02:54.273Z</time></trkpt><trkpt lat="44.2846304" lon="8.4353561"><ele>5.0</ele><time>2026-05-03T08:02:55.273Z</time></trkpt><trkpt lat="44.2847117" lon="8.4353867"><ele>5.0</ele><time>2026-05-03T08:02:56.273Z</time></trkpt><trkpt lat="44.2848059" lon="8.4354384"><ele>5.0</ele><time>2026-05-03T08:02:57.273Z</time></trkpt><trkpt lat="44.2849101" lon="8.435515"><ele>5.0</ele><time>2026-05-03T08:02:58.273Z</time></trkpt><trkpt lat="44.2850149" lon="8.4356016"><ele>5.8</ele><time>2026-05-03T08:02:59.273Z</time></trkpt><trkpt lat="44.2851142" lon="8.435683"><ele>6.6</ele><time>2026-05-03T08:03:00.273Z</time></trkpt><trkpt lat="44.2852082" lon="8.4357552"><ele>7.4</ele><time>2026-05-03T08:03:01.273Z</time></trkpt><trkpt lat="44.2853014" lon="8.4358217"><ele>8.2</ele><time>2026-05-03T08:03:02.273Z</time></trkpt><trkpt lat="44.285394" lon="8.4358942"><ele>9.0</ele><time>2026-05-03T08:03:03.273Z</time></trkpt><trkpt lat="44.2854846" lon="8.4359755"><ele>9.0</ele><time>2026-05-03T08:03:04.273Z</time></trkpt><trkpt lat="44.2855739" lon="8.4360614"><ele>9.0</ele><time>2026-05-03T08:03:05.273Z</time></trkpt><trkpt lat="44.2856671" lon="8.4361535"><ele>9.0</ele><time>2026-05-03T08:03:06.273Z</time></trkpt><trkpt lat="44.2857638" lon="8.4362502"><ele>9.0</ele><time>2026-05-03T08:03:07.273Z</time></trkpt><trkpt lat="44.2858594" lon="8.4363531"><ele>9.5</ele><time>2026-05-03T08:03:08.273Z</time></trkpt><trkpt lat="44.2859559" lon="8.4364617"><ele>10.0</ele><time>2026-05-03T08:03:09.273Z</time></trkpt><trkpt lat="44.2860495" lon="8.4365754"><ele>10.5</ele><time>2026-05-03T08:03:10.273Z</time></trkpt><trkpt lat="44.2861404" lon="8.4366916"><ele>11.0</ele><time>2026-05-03T08:03:11.273Z</time></trkpt><trkpt lat="44.2862338" lon="8.43681"><ele>11.0</ele><time>2026-05-03T08:03:12.273Z</time></trkpt><trkpt lat="44.2863201" lon="8.4369265"><ele>11.0</ele><time>2026-05-03T08:03:13.273Z</time></trkpt><trkpt lat="44.286401" lon="8.4370409"><ele>11.0</ele><time>2026-05-03T08:03:14.273Z</time></trkpt><trkpt lat="44.2864762" lon="8.4371562"><ele>11.0</ele><time>2026-05-03T08:03:15.273Z</time></trkpt><trkpt lat="44.2865522" lon="8.4372772"><ele>12.0</ele><time>2026-05-03T08:03:16.273Z</time></trkpt><trkpt lat="44.2866269" lon="8.4374042"><ele>13.0</ele><time>2026-05-03T08:03:17.273Z</time></trkpt><trkpt lat="44.2867009" lon="8.4375296"><ele>14.000000000000002</ele><time>2026-05-03T08:03:18.273Z</time></trkpt><trkpt lat="44.2867766" lon="8.4376476"><ele>15.0</ele><time>2026-05-03T08:03:19.273Z</time></trkpt><trkpt lat="44.2868399" lon="8.4377567"><ele>16.0</ele><time>2026-05-03T08:03:20.273Z</time></trkpt><trkpt lat="44.2868952" lon="8.4378563"><ele>16.0</ele><time>2026-05-03T08:03:21.273Z</time></trkpt><trkpt lat="44.2869478" lon="8.4379557"><ele>16.0</ele><time>2026-05-03T08:03:22.273Z</time></trkpt><trkpt lat="44.286995" lon="8.4380666"><ele>16.0</ele><time>2026-05-03T08:03:23.273Z</time></trkpt><trkpt lat="44.2870431" lon="8.4381913"><ele>16.0</ele><time>2026-05-03T08:03:24.273Z</time></trkpt><trkpt lat="44.2870912" lon="8.4383193"><ele>16.0</ele><time>2026-05-03T08:03:25.273Z</time></trkpt><trkpt lat="44.2871429" lon="8.4384437"><ele>15.8</ele><time>2026-05-03T08:03:26.273Z</time></trkpt><trkpt lat="44.2871924" lon="8.4385657"><ele>15.600000000000001</ele><time>2026-05-03T08:03:27.273Z</time></trkpt><trkpt lat="44.2872437" lon="8.4386968"><ele>15.4</ele><time>2026-05-03T08:03:28.273Z</time></trkpt><trkpt lat="44.2872901" lon="8.4388236"><ele>15.2</ele><time>2026-05-03T08:03:29.273Z</time></trkpt><trkpt lat="44.2873442" lon="8.4389628"><ele>15.0</ele><time>2026-05-03T08:03:30.273Z</time></trkpt><trkpt lat="44.2873925" lon="8.4391051"><ele>16.4</ele><time>2026-05-03T08:03:31.273Z</time></trkpt><trkpt lat="44.2874352" lon="8.4392223"><ele>17.8</ele><time>2026-05-03T08:03:32.273Z</time></trkpt><trkpt lat="44.28749" lon="8.4393496"><ele>19.200000000000003</ele><time>2026-05-03T08:03:33.273Z</time></trkpt><trkpt lat="44.2875377" lon="8.4394876"><ele>20.6</ele><time>2026-05-03T08:03:34.273Z</time></trkpt><trkpt lat="44.2875897" lon="8.4396188"><ele>22.0</ele><time>2026-05-03T08:03:35.273Z</time></trkpt><trkpt lat="44.2876453" lon="8.4397504"><ele>22.0</ele><time>2026-05-03T08:03:36.273Z</time></trkpt><trkpt lat="44.2877026" lon="8.4398833"><ele>22.0</ele><time>2026-05-03T08:03:37.273Z</time></trkpt><trkpt lat="44.2877598" lon="8.4400165"><ele>22.0</ele><time>2026-05-03T08:03:38.273Z</time></trkpt><trkpt lat="44.2878155" lon="8.4401644"><ele>22.0</ele><time>2026-05-03T08:03:39.273Z</time></trkpt><trkpt lat="44.2878675" lon="8.4403252"><ele>22.25</ele><time>2026-05-03T08:03:40.273Z</time></trkpt><trkpt lat="44.2879161" lon="8.4404721"><ele>22.5</ele><time>2026-05-03T08:03:41.273Z</time></trkpt><trkpt lat="44.2879582" lon="8.4406168"><ele>22.75</ele><time>2026-05-03T08:03:42.273Z</time></trkpt><trkpt lat="44.2880001" lon="8.4407595"><ele>23.0</ele><time>2026-05-03T08:03:43.272Z</time></trkpt><trkpt lat="44.28804" lon="8.4409093"><ele>23.0</ele><time>2026-05-03T08:03:44.273Z</time></trkpt><trkpt lat="44.2880828" lon="8.4410535"><ele>23.0</ele><time>2026-05-03T08:03:45.273Z</time></trkpt><trkpt lat="44.2881281" lon="8.4411966"><ele>23.0</ele><time>2026-05-03T08:03:46.273Z</time></trkpt><trkpt lat="44.2881774" lon="8.4413404"><ele>23.0</ele><time>2026-05-03T08:03:47.273Z</time></trkpt><trkpt lat="44.2882254" lon="8.4414799"><ele>23.0</ele><time>2026-05-03T08:03:48.273Z</time></trkpt><trkpt lat="44.2882711" lon="8.4416178"><ele>23.2</ele><time>2026-05-03T08:03:49.273Z</time></trkpt><trkpt lat="44.288315" lon="8.4417499"><ele>23.4</ele><time>2026-05-03T08:03:50.273Z</time></trkpt><trkpt lat="44.288356" lon="8.4418805"><ele>23.599999999999998</ele><time>2026-05-03T08:03:51.273Z</time></trkpt><trkpt lat="44.2883944" lon="8.4420079"><ele>23.799999999999997</ele><time>2026-05-03T08:03:52.273Z</time></trkpt><trkpt lat="44.2884318" lon="8.4421264"><ele>24.0</ele><time>2026-05-03T08:03:53.273Z</time></trkpt><trkpt lat="44.288467" lon="8.4422402"><ele>24.0</ele><time>2026-05-03T08:03:54.273Z</time></trkpt><trkpt lat="44.2885009" lon="8.4423566"><ele>24.0</ele><time>2026-05-03T08:03:55.273Z</time></trkpt><trkpt lat="44.2885223" lon="8.4424874"><ele>24.0</ele><time>2026-05-03T08:03:56.273Z</time></trkpt><trkpt lat="44.2885194" lon="8.4426341"><ele>24.0</ele><time>2026-05-03T08:03:57.273Z</time></trkpt><trkpt lat="44.2884959" lon="8.442792"><ele>24.0</ele><time>2026-05-03T08:03:58.273Z</time></trkpt><trkpt lat="44.2884597" lon="8.4429556"><ele>25.0</ele><time>2026-05-03T08:03:59.273Z</time></trkpt><trkpt lat="44.2884166" lon="8.4431303"><ele>26.0</ele><time>2026-05-03T08:04:00.273Z</time></trkpt><trkpt lat="44.2883677" lon="8.4433119"><ele>27.0</ele><time>2026-05-03T08:04:01.273Z</time></trkpt><trkpt lat="44.288314" lon="8.4434921"><ele>28.0</ele><time>2026-05-03T08:04:02.273Z</time></trkpt><trkpt lat="44.2882555" lon="8.4436676"><ele>27.5</ele><time>2026-05-03T08:04:03.273Z</time></trkpt><trkpt lat="44.2881929" lon="8.4438335"><ele>27.0</ele><time>2026-05-03T08:04:04.273Z</time></trkpt><trkpt lat="44.28813" lon="8.4439866"><ele>26.5</ele><time>2026-05-03T08:04:05.273Z</time></trkpt><trkpt lat="44.2880686" lon="8.4441257"><ele>26.0</ele><time>2026-05-03T08:04:06.273Z</time></trkpt><trkpt lat="44.2880124" lon="8.4442482"><ele>25.999999999999996</ele><time>2026-05-03T08:04:07.273Z</time></trkpt><trkpt lat="44.2879648" lon="8.4443662"><ele>26.0</ele><time>2026-05-03T08:04:08.274Z</time></trkpt><trkpt lat="44.2879197" lon="8.4444794"><ele>26.0</ele><time>2026-05-03T08:04:09.274Z</time></trkpt><trkpt lat="44.287876" lon="8.4445818"><ele>26.0</ele><time>2026-05-03T08:04:10.274Z</time></trkpt><trkpt lat="44.2878276" lon="8.4446713"><ele>25.999999999999996</ele><time>2026-05-03T08:04:11.274Z</time></trkpt><trkpt lat="44.2877842" lon="8.4447474"><ele>26.0</ele><time>2026-05-03T08:04:12.274Z</time></trkpt><trkpt lat="44.2877436" lon="8.4448246"><ele>25.6</ele><time>2026-05-03T08:04:13.274Z</time></trkpt><trkpt lat="44.2877032" lon="8.4449005"><ele>25.200000000000003</ele><time>2026-05-03T08:04:14.274Z</time></trkpt><trkpt lat="44.2876839" lon="8.4450121"><ele>24.799999999999997</ele><time>2026-05-03T08:04:15.274Z</time></trkpt><trkpt lat="44.2876795" lon="8.4451445"><ele>24.4</ele><time>2026-05-03T08:04:16.274Z</time></trkpt><trkpt lat="44.2876922" lon="8.4452932"><ele>24.0</ele><time>2026-05-03T08:04:17.274Z</time></trkpt><trkpt lat="44.287698" lon="8.4454456"><ele>23.6</ele><time>2026-05-03T08:04:18.274Z</time></trkpt><trkpt lat="44.2876902" lon="8.4455904"><ele>23.2</ele><time>2026-05-03T08:04:19.274Z</time></trkpt><trkpt lat="44.287683" lon="8.4457193"><ele>22.8</ele><time>2026-05-03T08:04:20.274Z</time></trkpt><trkpt lat="44.2876745" lon="8.4458356"><ele>22.400000000000002</ele><time>2026-05-03T08:04:21.274Z</time></trkpt><trkpt lat="44.2876658" lon="8.4459357"><ele>22.0</ele><time>2026-05-03T08:04:22.274Z</time></trkpt><trkpt lat="44.2877074" lon="8.4460741"><ele>22.0</ele><time>2026-05-03T08:04:24.274Z</time></trkpt><trkpt lat="44.2878279" lon="8.4460934"><ele>22.0</ele><time>2026-05-03T08:04:26.274Z</time></trkpt><trkpt lat="44.2879014" lon="8.4460373"><ele>22.0</ele><time>2026-05-03T08:04:27.274Z</time></trkpt><trkpt lat="44.2879694" lon="8.4459489"><ele>22.0</ele><time>2026-05-03T08:04:28.273Z</time></trkpt><trkpt lat="44.288038" lon="8.445857"><ele>22.0</ele><time>2026-05-03T08:04:29.274Z</time></trkpt><trkpt lat="44.2881144" lon="8.4458031"><ele>24.200000000000003</ele><time>2026-05-03T08:04:30.274Z</time></trkpt><trkpt lat="44.2882017" lon="8.4457608"><ele>26.4</ele><time>2026-05-03T08:04:31.274Z</time></trkpt><trkpt lat="44.2882881" lon="8.4457808"><ele>28.599999999999998</ele><time>2026-05-03T08:04:32.274Z</time></trkpt><trkpt lat="44.288369" lon="8.4458117"><ele>30.799999999999997</ele><time>2026-05-03T08:04:33.274Z</time></trkpt><trkpt lat="44.2884582" lon="8.445819"><ele>33.0</ele><time>2026-05-03T08:04:34.274Z</time></trkpt><trkpt lat="44.2885597" lon="8.4458026"><ele>33.0</ele><time>2026-05-03T08:04:35.274Z</time></trkpt><trkpt lat="44.288677" lon="8.4457401"><ele>33.0</ele><time>2026-05-03T08:04:36.274Z</time></trkpt><trkpt lat="44.2887774" lon="8.4456513"><ele>33.0</ele><time>2026-05-03T08:04:37.274Z</time></trkpt><trkpt lat="44.2888461" lon="8.4455341"><ele>33.0</ele><time>2026-05-03T08:04:38.274Z</time></trkpt><trkpt lat="44.2889174" lon="8.4454402"><ele>34.8</ele><time>2026-05-03T08:04:39.274Z</time></trkpt><trkpt lat="44.2889926" lon="8.445363"><ele>36.599999999999994</ele><time>2026-05-03T08:04:40.274Z</time></trkpt><trkpt lat="44.2890678" lon="8.4452798"><ele>38.400000000000006</ele><time>2026-05-03T08:04:41.274Z</time></trkpt><trkpt lat="44.2891371" lon="8.4451936"><ele>40.2</ele><time>2026-05-03T08:04:42.274Z</time></trkpt><trkpt lat="44.2892039" lon="8.4451096"><ele>42.0</ele><time>2026-05-03T08:04:43.274Z</time></trkpt><trkpt lat="44.2892714" lon="8.4450314"><ele>42.0</ele><time>2026-05-03T08:04:44.274Z</time></trkpt><trkpt lat="44.289332" lon="8.4449423"><ele>42.0</ele><time>2026-05-03T08:04:45.274Z</time></trkpt><trkpt lat="44.2893811" lon="8.444854"><ele>42.0</ele><time>2026-05-03T08:04:46.274Z</time></trkpt><trkpt lat="44.2894213" lon="8.4447736"><ele>42.0</ele><time>2026-05-03T08:04:47.274Z</time></trkpt><trkpt lat="44.289511" lon="8.4446852"><ele>42.0</ele><time>2026-05-03T08:04:49.274Z</time></trkpt><trkpt lat="44.2896392" lon="8.4446891"><ele>42.0</ele><time>2026-05-03T08:04:51.274Z</time></trkpt><trkpt lat="44.2897299" lon="8.4447571"><ele>42.0</ele><time>2026-05-03T08:04:52.274Z</time></trkpt><trkpt lat="44.2898187" lon="8.4448503"><ele>42.0</ele><time>2026-05-03T08:04:53.273Z</time></trkpt><trkpt lat="44.2899077" lon="8.444958"><ele>42.0</ele><time>2026-05-03T08:04:54.274Z</time></trkpt><trkpt lat="44.2900063" lon="8.4450789"><ele>42.0</ele><time>2026-05-03T08:04:55.274Z</time></trkpt><trkpt lat="44.2900953" lon="8.4451796"><ele>42.0</ele><time>2026-05-03T08:04:56.274Z</time></trkpt><trkpt lat="44.2901881" lon="8.4452787"><ele>42.0</ele><time>2026-05-03T08:04:57.274Z</time></trkpt><trkpt lat="44.2902865" lon="8.4453765"><ele>42.0</ele><time>2026-05-03T08:04:58.274Z</time></trkpt><trkpt lat="44.2903808" lon="8.445468"><ele>41.8</ele><time>2026-05-03T08:04:59.273Z</time></trkpt><trkpt lat="44.2904689" lon="8.4455579"><ele>41.6</ele><time>2026-05-03T08:05:00.274Z</time></trkpt><trkpt lat="44.2905585" lon="8.445647"><ele>41.4</ele><time>2026-05-03T08:05:01.274Z</time></trkpt><trkpt lat="44.2906503" lon="8.4457369"><ele>41.199999999999996</ele><time>2026-05-03T08:05:02.274Z</time></trkpt><trkpt lat="44.290745" lon="8.4458266"><ele>41.0</ele><time>2026-05-03T08:05:03.274Z</time></trkpt><trkpt lat="44.2908368" lon="8.4459061"><ele>40.599999999999994</ele><time>2026-05-03T08:05:04.274Z</time></trkpt><trkpt lat="44.2909206" lon="8.445973"><ele>40.199999999999996</ele><time>2026-05-03T08:05:05.274Z</time></trkpt><trkpt lat="44.290996" lon="8.4460318"><ele>39.8</ele><time>2026-05-03T08:05:06.274Z</time></trkpt><trkpt lat="44.2910594" lon="8.446079"><ele>39.4</ele><time>2026-05-03T08:05:07.274Z</time></trkpt><trkpt lat="44.2911485" lon="8.4461503"><ele>39.0</ele><time>2026-05-03T08:05:09.274Z</time></trkpt><trkpt lat="44.2912068" lon="8.4462556"><ele>38.6</ele><time>2026-05-03T08:05:11.274Z</time></trkpt><trkpt lat="44.2911673" lon="8.4464248"><ele>38.2</ele><time>2026-05-03T08:05:13.274Z</time></trkpt><trkpt lat="44.2911153" lon="8.4465112"><ele>37.800000000000004</ele><time>2026-05-03T08:05:14.274Z</time></trkpt><trkpt lat="44.2910633" lon="8.4466186"><ele>37.4</ele><time>2026-05-03T08:05:15.274Z</time></trkpt><trkpt lat="44.2910361" lon="8.4467341"><ele>37.0</ele><time>2026-05-03T08:05:16.274Z</time></trkpt><trkpt lat="44.2910276" lon="8.4468613"><ele>37.0</ele><time>2026-05-03T08:05:17.274Z</time></trkpt><trkpt lat="44.2910353" lon="8.4469919"><ele>37.0</ele><time>2026-05-03T08:05:18.274Z</time></trkpt><trkpt lat="44.2910597" lon="8.4471153"><ele>37.0</ele><time>2026-05-03T08:05:19.275Z</time></trkpt><trkpt lat="44.2910774" lon="8.4472348"><ele>37.0</ele><time>2026-05-03T08:05:20.274Z</time></trkpt><trkpt lat="44.2911013" lon="8.4473529"><ele>37.0</ele><time>2026-05-03T08:05:21.274Z</time></trkpt><trkpt lat="44.2911248" lon="8.4474706"><ele>37.0</ele><time>2026-05-03T08:05:22.275Z</time></trkpt><trkpt lat="44.2911434" lon="8.4475774"><ele>36.5</ele><time>2026-05-03T08:05:23.275Z</time></trkpt><trkpt lat="44.2911558" lon="8.447679"><ele>36.0</ele><time>2026-05-03T08:05:24.275Z</time></trkpt><trkpt lat="44.2911638" lon="8.447783"><ele>35.5</ele><time>2026-05-03T08:05:25.275Z</time></trkpt><trkpt lat="44.2911601" lon="8.4479042"><ele>35.0</ele><time>2026-05-03T08:05:26.275Z</time></trkpt><trkpt lat="44.2911476" lon="8.4480066"><ele>34.5</ele><time>2026-05-03T08:05:27.275Z</time></trkpt><trkpt lat="44.2911172" lon="8.4481036"><ele>34.0</ele><time>2026-05-03T08:05:28.275Z</time></trkpt><trkpt lat="44.2910855" lon="8.4481811"><ele>34.0</ele><time>2026-05-03T08:05:29.275Z</time></trkpt><trkpt lat="44.2910241" lon="8.4483179"><ele>34.0</ele><time>2026-05-03T08:05:31.275Z</time></trkpt><trkpt lat="44.2909863" lon="8.4484545"><ele>34.0</ele><time>2026-05-03T08:05:33.275Z</time></trkpt><trkpt lat="44.290954" lon="8.4485993"><ele>34.0</ele><time>2026-05-03T08:05:35.275Z</time></trkpt><trkpt lat="44.2909182" lon="8.4487489"><ele>34.0</ele><time>2026-05-03T08:05:37.275Z</time></trkpt><trkpt lat="44.2908773" lon="8.4488804"><ele>34.0</ele><time>2026-05-03T08:05:39.275Z</time></trkpt><trkpt lat="44.2908415" lon="8.4490048"><ele>34.0</ele><time>2026-05-03T08:05:41.275Z</time></trkpt><trkpt lat="44.2908173" lon="8.4491613"><ele>34.0</ele><time>2026-05-03T08:05:43.275Z</time></trkpt><trkpt lat="44.2907952" lon="8.4492855"><ele>34.0</ele><time>2026-05-03T08:05:45.275Z</time></trkpt><trkpt lat="44.2907725" lon="8.449402"><ele>34.0</ele><time>2026-05-03T08:05:47.275Z</time></trkpt><trkpt lat="44.2907945" lon="8.4495521"><ele>32.16666666666667</ele><time>2026-05-03T08:05:49.274Z</time></trkpt><trkpt lat="44.2908648" lon="8.4496351"><ele>30.333333333333336</ele><time>2026-05-03T08:05:51.275Z</time></trkpt><trkpt lat="44.2909704" lon="8.4496996"><ele>28.5</ele><time>2026-05-03T08:05:53.275Z</time></trkpt><trkpt lat="44.2910302" lon="8.4497443"><ele>26.666666666666668</ele><time>2026-05-03T08:05:54.275Z</time></trkpt><trkpt lat="44.2910941" lon="8.4497926"><ele>24.833333333333336</ele><time>2026-05-03T08:05:55.275Z</time></trkpt><trkpt lat="44.2911577" lon="8.4498334"><ele>23.0</ele><time>2026-05-03T08:05:56.275Z</time></trkpt><trkpt lat="44.2912249" lon="8.4498665"><ele>23.0</ele><time>2026-05-03T08:05:57.275Z</time></trkpt><trkpt lat="44.291297" lon="8.4498881"><ele>23.0</ele><time>2026-05-03T08:05:58.275Z</time></trkpt><trkpt lat="44.2914155" lon="8.4498973"><ele>23.0</ele><time>2026-05-03T08:06:00.275Z</time></trkpt><trkpt lat="44.2915018" lon="8.4499809"><ele>23.0</ele><time>2026-05-03T08:06:02.275Z</time></trkpt><trkpt lat="44.2915084" lon="8.4500782"><ele>23.0</ele><time>2026-05-03T08:06:03.275Z</time></trkpt><trkpt lat="44.291507" lon="8.4501759"><ele>23.0</ele><time>2026-05-03T08:06:04.275Z</time></trkpt><trkpt lat="44.2914924" lon="8.4502672"><ele>23.0</ele><time>2026-05-03T08:06:05.275Z</time></trkpt><trkpt lat="44.2914072" lon="8.4503953"><ele>23.0</ele><time>2026-05-03T08:06:07.275Z</time></trkpt><trkpt lat="44.2913303" lon="8.4504046"><ele>23.0</ele><time>2026-05-03T08:06:08.274Z</time></trkpt><trkpt lat="44.291227" lon="8.4503793"><ele>23.0</ele><time>2026-05-03T08:06:09.275Z</time></trkpt><trkpt lat="44.2911097" lon="8.4503385"><ele>23.0</ele><time>2026-05-03T08:06:10.275Z</time></trkpt><trkpt lat="44.2909852" lon="8.4503039"><ele>23.0</ele><time>2026-05-03T08:06:11.275Z</time></trkpt><trkpt lat="44.2908547" lon="8.4502631"><ele>23.0</ele><time>2026-05-03T08:06:12.275Z</time></trkpt><trkpt lat="44.2907276" lon="8.4502124"><ele>23.0</ele><time>2026-05-03T08:06:13.275Z</time></trkpt><trkpt lat="44.2906105" lon="8.4501559"><ele>23.0</ele><time>2026-05-03T08:06:14.275Z</time></trkpt><trkpt lat="44.290506" lon="8.4500886"><ele>20.799999999999997</ele><time>2026-05-03T08:06:15.275Z</time></trkpt><trkpt lat="44.2904117" lon="8.4500186"><ele>18.599999999999998</ele><time>2026-05-03T08:06:16.275Z</time></trkpt><trkpt lat="44.2903254" lon="8.4499503"><ele>16.4</ele><time>2026-05-03T08:06:17.275Z</time></trkpt><trkpt lat="44.2902454" lon="8.4498896"><ele>14.2</ele><time>2026-05-03T08:06:18.275Z</time></trkpt><trkpt lat="44.2901702" lon="8.4498328"><ele>12.0</ele><time>2026-05-03T08:06:19.275Z</time></trkpt><trkpt lat="44.2900987" lon="8.4497772"><ele>12.0</ele><time>2026-05-03T08:06:20.275Z</time></trkpt><trkpt lat="44.2900297" lon="8.4497259"><ele>12.0</ele><time>2026-05-03T08:06:21.275Z</time></trkpt><trkpt lat="44.2899604" lon="8.449676"><ele>12.0</ele><time>2026-05-03T08:06:22.275Z</time></trkpt><trkpt lat="44.2898977" lon="8.4496243"><ele>12.0</ele><time>2026-05-03T08:06:23.275Z</time></trkpt><trkpt lat="44.2898396" lon="8.4495738"><ele>12.0</ele><time>2026-05-03T08:06:24.275Z</time></trkpt><trkpt lat="44.2897537" lon="8.4494777"><ele>12.0</ele><time>2026-05-03T08:06:26.275Z</time></trkpt><trkpt lat="44.2897171" lon="8.4493748"><ele>12.166666666666666</ele><time>2026-05-03T08:06:28.275Z</time></trkpt><trkpt lat="44.2896963" lon="8.4492888"><ele>12.333333333333332</ele><time>2026-05-03T08:06:30.275Z</time></trkpt><trkpt lat="44.2896416" lon="8.4492121"><ele>12.5</ele><time>2026-05-03T08:06:33.276Z</time></trkpt><trkpt lat="44.2896316" lon="8.4493082"><ele>12.666666666666666</ele><time>2026-05-03T08:10:01.961Z</time></trkpt><trkpt lat="44.2895581" lon="8.4492257"><ele>12.833333333333332</ele><time>2026-05-03T08:11:54.963Z</time></trkpt><trkpt lat="44.2895117" lon="8.4491532"><ele>13.0</ele><time>2026-05-03T08:11:57.962Z</time></trkpt><trkpt lat="44.2894585" lon="8.4490684"><ele>13.0</ele><time>2026-05-03T08:12:09.962Z</time></trkpt><trkpt lat="44.2893949" lon="8.4490509"><ele>13.0</ele><time>2026-05-03T08:12:18.962Z</time></trkpt><trkpt lat="44.2893039" lon="8.4490353"><ele>13.0</ele><time>2026-05-03T08:12:31.963Z</time></trkpt><trkpt lat="44.2892437" lon="8.4489828"><ele>13.0</ele><time>2026-05-03T08:12:32.962Z</time></trkpt><trkpt lat="44.2891644" lon="8.4488764"><ele>13.0</ele><time>2026-05-03T08:12:33.963Z</time></trkpt><trkpt lat="44.2890732" lon="8.4487393"><ele>13.5</ele><time>2026-05-03T08:12:34.962Z</time></trkpt><trkpt lat="44.2889724" lon="8.4485895"><ele>14.0</ele><time>2026-05-03T08:12:35.963Z</time></trkpt><trkpt lat="44.2888646" lon="8.4484415"><ele>14.5</ele><time>2026-05-03T08:12:36.962Z</time></trkpt><trkpt lat="44.2887557" lon="8.4483018"><ele>15.0</ele><time>2026-05-03T08:12:37.962Z</time></trkpt><trkpt lat="44.2886468" lon="8.4481562"><ele>15.0</ele><time>2026-05-03T08:12:38.963Z</time></trkpt><trkpt lat="44.2885226" lon="8.4479962"><ele>15.0</ele><time>2026-05-03T08:12:39.963Z</time></trkpt><trkpt lat="44.2884143" lon="8.4478494"><ele>15.0</ele><time>2026-05-03T08:12:40.963Z</time></trkpt><trkpt lat="44.2883162" lon="8.447701"><ele>14.5</ele><time>2026-05-03T08:12:41.963Z</time></trkpt><trkpt lat="44.2882276" lon="8.4475503"><ele>14.0</ele><time>2026-05-03T08:12:42.963Z</time></trkpt><trkpt lat="44.2881411" lon="8.4474039"><ele>13.5</ele><time>2026-05-03T08:12:43.963Z</time></trkpt><trkpt lat="44.2880568" lon="8.4472678"><ele>13.0</ele><time>2026-05-03T08:12:44.962Z</time></trkpt><trkpt lat="44.2879815" lon="8.4471421"><ele>14.0</ele><time>2026-05-03T08:12:45.963Z</time></trkpt><trkpt lat="44.2879115" lon="8.4470261"><ele>15.0</ele><time>2026-05-03T08:12:46.962Z</time></trkpt><trkpt lat="44.2878445" lon="8.4469122"><ele>16.0</ele><time>2026-05-03T08:12:47.963Z</time></trkpt><trkpt lat="44.2877823" lon="8.446798"><ele>17.0</ele><time>2026-05-03T08:12:48.963Z</time></trkpt><trkpt lat="44.2877245" lon="8.4466799"><ele>18.0</ele><time>2026-05-03T08:12:49.963Z</time></trkpt><trkpt lat="44.2876702" lon="8.4465525"><ele>18.0</ele><time>2026-05-03T08:12:50.963Z</time></trkpt><trkpt lat="44.2876207" lon="8.4464154"><ele>18.0</ele><time>2026-05-03T08:12:51.964Z</time></trkpt><trkpt lat="44.2875766" lon="8.4462799"><ele>18.0</ele><time>2026-05-03T08:12:52.964Z</time></trkpt><trkpt lat="44.2875392" lon="8.4461653"><ele>18.0</ele><time>2026-05-03T08:12:53.964Z</time></trkpt><trkpt lat="44.287507" lon="8.4460685"><ele>18.0</ele><time>2026-05-03T08:12:54.963Z</time></trkpt><trkpt lat="44.2874784" lon="8.4459861"><ele>18.0</ele><time>2026-05-03T08:12:55.964Z</time></trkpt><trkpt lat="44.2874387" lon="8.4458429"><ele>18.8</ele><time>2026-05-03T08:12:57.964Z</time></trkpt><trkpt lat="44.2873917" lon="8.4456696"><ele>19.6</ele><time>2026-05-03T08:12:59.963Z</time></trkpt><trkpt lat="44.2873693" lon="8.4455586"><ele>20.400000000000002</ele><time>2026-05-03T08:13:00.964Z</time></trkpt><trkpt lat="44.2873681" lon="8.4454237"><ele>21.200000000000003</ele><time>2026-05-03T08:13:01.964Z</time></trkpt><trkpt lat="44.2873869" lon="8.4452907"><ele>22.0</ele><time>2026-05-03T08:13:02.964Z</time></trkpt><trkpt lat="44.2874526" lon="8.4451555"><ele>22.5</ele><time>2026-05-03T08:13:03.963Z</time></trkpt><trkpt lat="44.2875214" lon="8.4450262"><ele>23.0</ele><time>2026-05-03T08:13:04.964Z</time></trkpt><trkpt lat="44.2875941" lon="8.4448916"><ele>23.5</ele><time>2026-05-03T08:13:05.964Z</time></trkpt><trkpt lat="44.2876825" lon="8.4447237"><ele>24.0</ele><time>2026-05-03T08:13:06.964Z</time></trkpt><trkpt lat="44.2877701" lon="8.4445543"><ele>24.5</ele><time>2026-05-03T08:13:07.964Z</time></trkpt><trkpt lat="44.2878626" lon="8.4443978"><ele>25.0</ele><time>2026-05-03T08:13:08.963Z</time></trkpt><trkpt lat="44.287952" lon="8.4442416"><ele>25.5</ele><time>2026-05-03T08:13:09.964Z</time></trkpt><trkpt lat="44.2880413" lon="8.4440849"><ele>26.0</ele><time>2026-05-03T08:13:10.963Z</time></trkpt><trkpt lat="44.2881214" lon="8.4439334"><ele>26.5</ele><time>2026-05-03T08:13:11.964Z</time></trkpt><trkpt lat="44.2881913" lon="8.4437907"><ele>27.0</ele><time>2026-05-03T08:13:12.964Z</time></trkpt><trkpt lat="44.2882599" lon="8.4436394"><ele>27.5</ele><time>2026-05-03T08:13:13.963Z</time></trkpt><trkpt lat="44.2883249" lon="8.4434701"><ele>28.0</ele><time>2026-05-03T08:13:14.964Z</time></trkpt><trkpt lat="44.2883843" lon="8.4432876"><ele>28.0</ele><time>2026-05-03T08:13:15.964Z</time></trkpt><trkpt lat="44.2884271" lon="8.4431056"><ele>28.0</ele><time>2026-05-03T08:13:16.964Z</time></trkpt><trkpt lat="44.2884631" lon="8.4429343"><ele>28.0</ele><time>2026-05-03T08:13:17.963Z</time></trkpt><trkpt lat="44.2884915" lon="8.4427706"><ele>28.0</ele><time>2026-05-03T08:13:18.964Z</time></trkpt><trkpt lat="44.2885149" lon="8.4426286"><ele>27.2</ele><time>2026-05-03T08:13:19.963Z</time></trkpt><trkpt lat="44.2885339" lon="8.4424948"><ele>26.4</ele><time>2026-05-03T08:13:20.964Z</time></trkpt><trkpt lat="44.2885445" lon="8.4423558"><ele>25.599999999999998</ele><time>2026-05-03T08:13:21.963Z</time></trkpt><trkpt lat="44.2885327" lon="8.4422151"><ele>24.799999999999997</ele><time>2026-05-03T08:13:22.964Z</time></trkpt><trkpt lat="44.2884949" lon="8.4420563"><ele>24.0</ele><time>2026-05-03T08:13:23.964Z</time></trkpt><trkpt lat="44.2884404" lon="8.4419101"><ele>24.0</ele><time>2026-05-03T08:13:24.964Z</time></trkpt><trkpt lat="44.2883792" lon="8.4417529"><ele>24.0</ele><time>2026-05-03T08:13:25.963Z</time></trkpt><trkpt lat="44.2883101" lon="8.4415667"><ele>24.0</ele><time>2026-05-03T08:13:26.963Z</time></trkpt><trkpt lat="44.2882374" lon="8.441356"><ele>24.0</ele><time>2026-05-03T08:13:27.964Z</time></trkpt><trkpt lat="44.2881722" lon="8.4411529"><ele>23.666666666666668</ele><time>2026-05-03T08:13:28.964Z</time></trkpt><trkpt lat="44.2881071" lon="8.4409495"><ele>23.333333333333336</ele><time>2026-05-03T08:13:29.963Z</time></trkpt><trkpt lat="44.288038" lon="8.4407387"><ele>23.0</ele><time>2026-05-03T08:13:30.964Z</time></trkpt><trkpt lat="44.2879749" lon="8.4405452"><ele>22.75</ele><time>2026-05-03T08:13:31.964Z</time></trkpt><trkpt lat="44.2879154" lon="8.4403601"><ele>22.5</ele><time>2026-05-03T08:13:32.964Z</time></trkpt><trkpt lat="44.2878568" lon="8.4401787"><ele>22.25</ele><time>2026-05-03T08:13:33.964Z</time></trkpt><trkpt lat="44.2877969" lon="8.4399944"><ele>22.0</ele><time>2026-05-03T08:13:34.964Z</time></trkpt><trkpt lat="44.2877345" lon="8.4398164"><ele>22.0</ele><time>2026-05-03T08:13:35.964Z</time></trkpt><trkpt lat="44.2876729" lon="8.4396426"><ele>22.0</ele><time>2026-05-03T08:13:36.964Z</time></trkpt><trkpt lat="44.2876093" lon="8.4394839"><ele>22.0</ele><time>2026-05-03T08:13:37.963Z</time></trkpt><trkpt lat="44.2875451" lon="8.439322"><ele>22.0</ele><time>2026-05-03T08:13:38.963Z</time></trkpt><trkpt lat="44.2874783" lon="8.4391519"><ele>22.25</ele><time>2026-05-03T08:13:39.963Z</time></trkpt><trkpt lat="44.2874055" lon="8.4389764"><ele>22.5</ele><time>2026-05-03T08:13:40.963Z</time></trkpt><trkpt lat="44.2873384" lon="8.4388058"><ele>22.75</ele><time>2026-05-03T08:13:41.964Z</time></trkpt><trkpt lat="44.2872684" lon="8.4386299"><ele>23.0</ele><time>2026-05-03T08:13:42.964Z</time></trkpt><trkpt lat="44.2871991" lon="8.4384433"><ele>20.666666666666668</ele><time>2026-05-03T08:13:43.964Z</time></trkpt><trkpt lat="44.2871229" lon="8.438248"><ele>18.333333333333332</ele><time>2026-05-03T08:13:44.964Z</time></trkpt><trkpt lat="44.2870254" lon="8.4380679"><ele>16.0</ele><time>2026-05-03T08:13:45.964Z</time></trkpt><trkpt lat="44.2869275" lon="8.4378881"><ele>16.0</ele><time>2026-05-03T08:13:46.964Z</time></trkpt><trkpt lat="44.286831" lon="8.4377142"><ele>16.0</ele><time>2026-05-03T08:13:47.964Z</time></trkpt><trkpt lat="44.2867429" lon="8.4375464"><ele>16.0</ele><time>2026-05-03T08:13:48.964Z</time></trkpt><trkpt lat="44.2866458" lon="8.4373818"><ele>16.0</ele><time>2026-05-03T08:13:49.964Z</time></trkpt><trkpt lat="44.2865423" lon="8.4372163"><ele>16.0</ele><time>2026-05-03T08:13:50.964Z</time></trkpt><trkpt lat="44.2864344" lon="8.4370598"><ele>16.0</ele><time>2026-05-03T08:13:51.964Z</time></trkpt><trkpt lat="44.2863269" lon="8.4369106"><ele>14.75</ele><time>2026-05-03T08:13:52.963Z</time></trkpt><trkpt lat="44.286222" lon="8.4367718"><ele>13.5</ele><time>2026-05-03T08:13:53.964Z</time></trkpt><trkpt lat="44.2861215" lon="8.4366358"><ele>12.25</ele><time>2026-05-03T08:13:54.964Z</time></trkpt><trkpt lat="44.2860219" lon="8.4365084"><ele>11.0</ele><time>2026-05-03T08:13:55.963Z</time></trkpt><trkpt lat="44.2859239" lon="8.4363913"><ele>11.25</ele><time>2026-05-03T08:13:56.964Z</time></trkpt><trkpt lat="44.2858253" lon="8.4362787"><ele>11.5</ele><time>2026-05-03T08:13:57.963Z</time></trkpt><trkpt lat="44.2857244" lon="8.4361673"><ele>11.75</ele><time>2026-05-03T08:13:58.964Z</time></trkpt><trkpt lat="44.2856179" lon="8.4360598"><ele>12.0</ele><time>2026-05-03T08:13:59.963Z</time></trkpt><trkpt lat="44.2855115" lon="8.4359565"><ele>11.4</ele><time>2026-05-03T08:14:00.963Z</time></trkpt><trkpt lat="44.2854166" lon="8.4358566"><ele>10.799999999999999</ele><time>2026-05-03T08:14:01.963Z</time></trkpt><trkpt lat="44.2853253" lon="8.4357668"><ele>10.2</ele><time>2026-05-03T08:14:02.964Z</time></trkpt><trkpt lat="44.2852323" lon="8.4356878"><ele>9.6</ele><time>2026-05-03T08:14:03.965Z</time></trkpt><trkpt lat="44.2851416" lon="8.4356143"><ele>9.0</ele><time>2026-05-03T08:14:04.964Z</time></trkpt><trkpt lat="44.2850533" lon="8.4355443"><ele>9.0</ele><time>2026-05-03T08:14:05.964Z</time></trkpt><trkpt lat="44.2849722" lon="8.4354793"><ele>9.0</ele><time>2026-05-03T08:14:06.964Z</time></trkpt><trkpt lat="44.2848985" lon="8.4354181"><ele>9.0</ele><time>2026-05-03T08:14:07.965Z</time></trkpt><trkpt lat="44.2848304" lon="8.4353624"><ele>9.0</ele><time>2026-05-03T08:14:08.965Z</time></trkpt><trkpt lat="44.2847695" lon="8.4353144"><ele>9.0</ele><time>2026-05-03T08:14:09.964Z</time></trkpt><trkpt lat="44.2846885" lon="8.4352374"><ele>9.0</ele><time>2026-05-03T08:14:11.965Z</time></trkpt><trkpt lat="44.2846826" lon="8.4351298"><ele>9.0</ele><time>2026-05-03T08:14:16.964Z</time></trkpt><trkpt lat="44.2846822" lon="8.4349421"><ele>9.0</ele><time>2026-05-03T08:14:18.965Z</time></trkpt><trkpt lat="44.2847017" lon="8.4348276"><ele>9.0</ele><time>2026-05-03T08:14:19.965Z</time></trkpt><trkpt lat="44.2847483" lon="8.4347031"><ele>9.0</ele><time>2026-05-03T08:14:20.965Z</time></trkpt><trkpt lat="44.2848146" lon="8.4345712"><ele>9.0</ele><time>2026-05-03T08:14:21.965Z</time></trkpt><trkpt lat="44.2848912" lon="8.4344298"><ele>9.0</ele><time>2026-05-03T08:14:22.966Z</time></trkpt><trkpt lat="44.2849684" lon="8.4342932"><ele>9.0</ele><time>2026-05-03T08:14:23.964Z</time></trkpt><trkpt lat="44.2850549" lon="8.434141"><ele>9.0</ele><time>2026-05-03T08:14:24.965Z</time></trkpt><trkpt lat="44.2851685" lon="8.4339772"><ele>9.0</ele><time>2026-05-03T08:14:25.965Z</time></trkpt><trkpt lat="44.2853058" lon="8.4338263"><ele>8.666666666666666</ele><time>2026-05-03T08:14:26.964Z</time></trkpt><trkpt lat="44.2854545" lon="8.4336876"><ele>8.333333333333332</ele><time>2026-05-03T08:14:27.965Z</time></trkpt><trkpt lat="44.2855902" lon="8.4335697"><ele>8.0</ele><time>2026-05-03T08:14:28.965Z</time></trkpt><trkpt lat="44.2857028" lon="8.4334695"><ele>8.0</ele><time>2026-05-03T08:14:29.965Z</time></trkpt><trkpt lat="44.2857997" lon="8.4333832"><ele>8.0</ele><time>2026-05-03T08:14:30.965Z</time></trkpt><trkpt lat="44.2858839" lon="8.4333111"><ele>8.0</ele><time>2026-05-03T08:14:31.965Z</time></trkpt><trkpt lat="44.2859564" lon="8.4332517"><ele>8.0</ele><time>2026-05-03T08:14:32.964Z</time></trkpt><trkpt lat="44.2860133" lon="8.4332051"><ele>8.0</ele><time>2026-05-03T08:14:33.965Z</time></trkpt><trkpt lat="44.2861021" lon="8.4331375"><ele>8.0</ele><time>2026-05-03T08:14:35.965Z</time></trkpt><trkpt lat="44.2861588" lon="8.4330698"><ele>8.0</ele><time>2026-05-03T08:14:37.965Z</time></trkpt><trkpt lat="44.2861125" lon="8.4329342"><ele>8.0</ele><time>2026-05-03T08:14:39.964Z</time></trkpt><trkpt lat="44.2860487" lon="8.432872"><ele>8.0</ele><time>2026-05-03T08:14:40.965Z</time></trkpt><trkpt lat="44.2859557" lon="8.4327904"><ele>8.0</ele><time>2026-05-03T08:14:41.965Z</time></trkpt><trkpt lat="44.2858609" lon="8.4326606"><ele>8.0</ele><time>2026-05-03T08:14:42.964Z</time></trkpt><trkpt lat="44.2857697" lon="8.4325083"><ele>8.0</ele><time>2026-05-03T08:14:43.964Z</time></trkpt><trkpt lat="44.2856702" lon="8.4323579"><ele>8.0</ele><time>2026-05-03T08:14:44.965Z</time></trkpt><trkpt lat="44.2855661" lon="8.4322029"><ele>8.0</ele><time>2026-05-03T08:14:45.965Z</time></trkpt><trkpt lat="44.2854558" lon="8.4320432"><ele>7.666666666666666</ele><time>2026-05-03T08:14:46.964Z</time></trkpt><trkpt lat="44.2853449" lon="8.4318769"><ele>7.333333333333334</ele><time>2026-05-03T08:14:47.964Z</time></trkpt><trkpt lat="44.2852422" lon="8.4317254"><ele>7.0</ele><time>2026-05-03T08:14:48.965Z</time></trkpt><trkpt lat="44.2851423" lon="8.4315865"><ele>7.0</ele><time>2026-05-03T08:14:49.965Z</time></trkpt><trkpt lat="44.285048" lon="8.431449"><ele>7.0</ele><time>2026-05-03T08:14:50.964Z</time></trkpt><trkpt lat="44.2849553" lon="8.4313162"><ele>7.0</ele><time>2026-05-03T08:14:51.964Z</time></trkpt><trkpt lat="44.2848661" lon="8.4311908"><ele>7.0</ele><time>2026-05-03T08:14:52.964Z</time></trkpt><trkpt lat="44.2847788" lon="8.431071"><ele>7.6</ele><time>2026-05-03T08:14:53.965Z</time></trkpt><trkpt lat="44.2846971" lon="8.4309614"><ele>8.2</ele><time>2026-05-03T08:14:54.965Z</time></trkpt><trkpt lat="44.2846246" lon="8.4308624"><ele>8.8</ele><time>2026-05-03T08:14:55.965Z</time></trkpt><trkpt lat="44.2845644" lon="8.430768"><ele>9.4</ele><time>2026-05-03T08:14:56.965Z</time></trkpt><trkpt lat="44.2845079" lon="8.4306871"><ele>10.0</ele><time>2026-05-03T08:14:57.965Z</time></trkpt><trkpt lat="44.284464" lon="8.4306165"><ele>10.0</ele><time>2026-05-03T08:14:58.965Z</time></trkpt><trkpt lat="44.2843955" lon="8.4305147"><ele>10.0</ele><time>2026-05-03T08:15:00.965Z</time></trkpt><trkpt lat="44.2843394" lon="8.4304275"><ele>10.0</ele><time>2026-05-03T08:15:02.964Z</time></trkpt><trkpt lat="44.2842782" lon="8.4303847"><ele>10.0</ele><time>2026-05-03T08:15:04.965Z</time></trkpt><trkpt lat="44.2841969" lon="8.4304863"><ele>10.0</ele><time>2026-05-03T08:15:06.965Z</time></trkpt><trkpt lat="44.2841451" lon="8.4305818"><ele>10.0</ele><time>2026-05-03T08:15:07.964Z</time></trkpt><trkpt lat="44.2840839" lon="8.4306942"><ele>10.0</ele><time>2026-05-03T08:15:08.965Z</time></trkpt><trkpt lat="44.2840033" lon="8.4308332"><ele>10.0</ele><time>2026-05-03T08:15:09.964Z</time></trkpt><trkpt lat="44.2839219" lon="8.430962"><ele>10.0</ele><time>2026-05-03T08:15:10.965Z</time></trkpt><trkpt lat="44.2838344" lon="8.4310994"><ele>10.0</ele><time>2026-05-03T08:15:11.964Z</time></trkpt><trkpt lat="44.2837426" lon="8.4312551"><ele>9.25</ele><time>2026-05-03T08:15:12.964Z</time></trkpt><trkpt lat="44.2836411" lon="8.4314186"><ele>8.5</ele><time>2026-05-03T08:15:13.965Z</time></trkpt><trkpt lat="44.2835418" lon="8.4315863"><ele>7.75</ele><time>2026-05-03T08:15:14.965Z</time></trkpt><trkpt lat="44.2834381" lon="8.4317136"><ele>7.0</ele><time>2026-05-03T08:15:15.965Z</time></trkpt><trkpt lat="44.2833271" lon="8.4318159"><ele>7.0</ele><time>2026-05-03T08:15:16.964Z</time></trkpt><trkpt lat="44.283207" lon="8.4319067"><ele>7.0</ele><time>2026-05-03T08:15:17.965Z</time></trkpt><trkpt lat="44.2830847" lon="8.4319995"><ele>7.0</ele><time>2026-05-03T08:15:18.964Z</time></trkpt><trkpt lat="44.2829612" lon="8.4320922"><ele>7.0</ele><time>2026-05-03T08:15:19.964Z</time></trkpt><trkpt lat="44.2828242" lon="8.4321938"><ele>7.0</ele><time>2026-05-03T08:15:20.965Z</time></trkpt><trkpt lat="44.2826996" lon="8.4322799"><ele>7.0</ele><time>2026-05-03T08:15:21.966Z</time></trkpt><trkpt lat="44.2825769" lon="8.432362"><ele>7.0</ele><time>2026-05-03T08:15:22.966Z</time></trkpt><trkpt lat="44.2824649" lon="8.4324402"><ele>7.0</ele><time>2026-05-03T08:15:23.966Z</time></trkpt><trkpt lat="44.2823594" lon="8.4325154"><ele>7.0</ele><time>2026-05-03T08:15:24.966Z</time></trkpt><trkpt lat="44.2822507" lon="8.432593"><ele>7.0</ele><time>2026-05-03T08:15:25.966Z</time></trkpt><trkpt lat="44.2821354" lon="8.4326747"><ele>7.0</ele><time>2026-05-03T08:15:26.966Z</time></trkpt><trkpt lat="44.2820178" lon="8.4327539"><ele>7.0</ele><time>2026-05-03T08:15:27.965Z</time></trkpt><trkpt lat="44.2818922" lon="8.4328309"><ele>7.0</ele><time>2026-05-03T08:15:28.966Z</time></trkpt><trkpt lat="44.2817625" lon="8.4329069"><ele>7.0</ele><time>2026-05-03T08:15:29.965Z</time></trkpt><trkpt lat="44.2816339" lon="8.4329733"><ele>7.0</ele><time>2026-05-03T08:15:30.965Z</time></trkpt><trkpt lat="44.2815049" lon="8.4330186"><ele>7.0</ele><time>2026-05-03T08:15:31.966Z</time></trkpt><trkpt lat="44.2813684" lon="8.4330458"><ele>7.0</ele><time>2026-05-03T08:15:32.965Z</time></trkpt><trkpt lat="44.2812277" lon="8.4330489"><ele>7.0</ele><time>2026-05-03T08:15:33.965Z</time></trkpt><trkpt lat="44.2810922" lon="8.4330307"><ele>7.0</ele><time>2026-05-03T08:15:34.966Z</time></trkpt><trkpt lat="44.2809586" lon="8.4329942"><ele>7.0</ele><time>2026-05-03T08:15:35.965Z</time></trkpt><trkpt lat="44.2808309" lon="8.4329408"><ele>7.0</ele><time>2026-05-03T08:15:36.966Z</time></trkpt><trkpt lat="44.2807054" lon="8.4328669"><ele>7.0</ele><time>2026-05-03T08:15:37.965Z</time></trkpt><trkpt lat="44.2805917" lon="8.4327953"><ele>7.0</ele><time>2026-05-03T08:15:38.966Z</time></trkpt><trkpt lat="44.28049" lon="8.4327296"><ele>7.0</ele><time>2026-05-03T08:15:39.966Z</time></trkpt><trkpt lat="44.2804" lon="8.4326789"><ele>7.166666666666667</ele><time>2026-05-03T08:15:40.965Z</time></trkpt><trkpt lat="44.2803357" lon="8.4326417"><ele>7.333333333333334</ele><time>2026-05-03T08:15:41.966Z</time></trkpt><trkpt lat="44.2802462" lon="8.4325757"><ele>7.5</ele><time>2026-05-03T08:15:43.966Z</time></trkpt><trkpt lat="44.2801672" lon="8.4324708"><ele>7.666666666666666</ele><time>2026-05-03T08:15:45.966Z</time></trkpt><trkpt lat="44.2801234" lon="8.4324005"><ele>7.833333333333333</ele><time>2026-05-03T08:15:46.966Z</time></trkpt><trkpt lat="44.2800708" lon="8.4323358"><ele>8.0</ele><time>2026-05-03T08:15:47.966Z</time></trkpt><trkpt lat="44.2800041" lon="8.4323006"><ele>8.0</ele><time>2026-05-03T08:15:48.966Z</time></trkpt><trkpt lat="44.279937" lon="8.4323156"><ele>8.0</ele><time>2026-05-03T08:15:49.965Z</time></trkpt><trkpt lat="44.2798714" lon="8.4323842"><ele>8.0</ele><time>2026-05-03T08:15:50.966Z</time></trkpt><trkpt lat="44.2798001" lon="8.4324767"><ele>8.0</ele><time>2026-05-03T08:15:51.965Z</time></trkpt><trkpt lat="44.2797266" lon="8.4325751"><ele>8.0</ele><time>2026-05-03T08:15:52.966Z</time></trkpt><trkpt lat="44.2796459" lon="8.4326792"><ele>8.4</ele><time>2026-05-03T08:15:53.966Z</time></trkpt><trkpt lat="44.2795686" lon="8.432764"><ele>8.8</ele><time>2026-05-03T08:15:54.966Z</time></trkpt><trkpt lat="44.2794856" lon="8.43285"><ele>9.2</ele><time>2026-05-03T08:15:55.965Z</time></trkpt><trkpt lat="44.2793994" lon="8.4329421"><ele>9.6</ele><time>2026-05-03T08:15:56.965Z</time></trkpt><trkpt lat="44.2793137" lon="8.4330342"><ele>10.0</ele><time>2026-05-03T08:15:57.966Z</time></trkpt><trkpt lat="44.2792341" lon="8.4331167"><ele>10.0</ele><time>2026-05-03T08:15:58.966Z</time></trkpt><trkpt lat="44.2791596" lon="8.4331978"><ele>10.0</ele><time>2026-05-03T08:15:59.966Z</time></trkpt><trkpt lat="44.2790923" lon="8.4332697"><ele>10.0</ele><time>2026-05-03T08:16:00.965Z</time></trkpt><trkpt lat="44.2790379" lon="8.4333261"><ele>10.0</ele><time>2026-05-03T08:16:01.966Z</time></trkpt><trkpt lat="44.2789316" lon="8.4333798"><ele>10.0</ele><time>2026-05-03T08:16:03.966Z</time></trkpt><trkpt lat="44.2788611" lon="8.4333966"><ele>10.0</ele><time>2026-05-03T08:16:04.966Z</time></trkpt><trkpt lat="44.2787692" lon="8.4334171"><ele>9.8</ele><time>2026-05-03T08:16:05.965Z</time></trkpt><trkpt lat="44.2786901" lon="8.4334627"><ele>9.6</ele><time>2026-05-03T08:16:06.966Z</time></trkpt><trkpt lat="44.27862" lon="8.4335422"><ele>9.4</ele><time>2026-05-03T08:16:07.965Z</time></trkpt><trkpt lat="44.2785619" lon="8.4336409"><ele>9.2</ele><time>2026-05-03T08:16:08.966Z</time></trkpt><trkpt lat="44.2785034" lon="8.433759"><ele>9.0</ele><time>2026-05-03T08:16:09.965Z</time></trkpt><trkpt lat="44.2784341" lon="8.433887"><ele>8.6</ele><time>2026-05-03T08:16:10.966Z</time></trkpt><trkpt lat="44.2783604" lon="8.4339999"><ele>8.2</ele><time>2026-05-03T08:16:11.966Z</time></trkpt><trkpt lat="44.2782852" lon="8.4340887"><ele>7.799999999999999</ele><time>2026-05-03T08:16:12.966Z</time></trkpt><trkpt lat="44.2782101" lon="8.4341511"><ele>7.3999999999999995</ele><time>2026-05-03T08:16:13.966Z</time></trkpt><trkpt lat="44.2781249" lon="8.434195"><ele>7.0</ele><time>2026-05-03T08:16:14.966Z</time></trkpt><trkpt lat="44.2780252" lon="8.4342196"><ele>6.75</ele><time>2026-05-03T08:16:15.965Z</time></trkpt><trkpt lat="44.2779071" lon="8.4342252"><ele>6.5</ele><time>2026-05-03T08:16:16.966Z</time></trkpt><trkpt lat="44.277779" lon="8.4342242"><ele>6.25</ele><time>2026-05-03T08:16:17.966Z</time></trkpt><trkpt lat="44.277646" lon="8.4342244"><ele>6.0</ele><time>2026-05-03T08:16:18.965Z</time></trkpt><trkpt lat="44.2775202" lon="8.4342348"><ele>6.0</ele><time>2026-05-03T08:16:19.966Z</time></trkpt><trkpt lat="44.2774002" lon="8.4342435"><ele>6.0</ele><time>2026-05-03T08:16:20.965Z</time></trkpt><trkpt lat="44.2772824" lon="8.4342503"><ele>6.0</ele><time>2026-05-03T08:16:21.965Z</time></trkpt><trkpt lat="44.2771718" lon="8.4342573"><ele>6.0</ele><time>2026-05-03T08:16:22.966Z</time></trkpt><trkpt lat="44.2770537" lon="8.4342702"><ele>6.75</ele><time>2026-05-03T08:16:23.965Z</time></trkpt><trkpt lat="44.2769357" lon="8.4342872"><ele>7.5</ele><time>2026-05-03T08:16:24.966Z</time></trkpt><trkpt lat="44.2768114" lon="8.4343002"><ele>8.25</ele><time>2026-05-03T08:16:25.966Z</time></trkpt><trkpt lat="44.2766872" lon="8.434311"><ele>9.0</ele><time>2026-05-03T08:16:26.965Z</time></trkpt><trkpt lat="44.2765775" lon="8.4343167"><ele>9.0</ele><time>2026-05-03T08:16:27.965Z</time></trkpt><trkpt lat="44.2764626" lon="8.4343269"><ele>9.0</ele><time>2026-05-03T08:16:28.966Z</time></trkpt><trkpt lat="44.2763564" lon="8.4343442"><ele>9.0</ele><time>2026-05-03T08:16:29.965Z</time></trkpt><trkpt lat="44.2762567" lon="8.4343542"><ele>9.0</ele><time>2026-05-03T08:16:30.966Z</time></trkpt><trkpt lat="44.2761568" lon="8.4343684"><ele>9.0</ele><time>2026-05-03T08:16:31.966Z</time></trkpt><trkpt lat="44.2760513" lon="8.4343862"><ele>8.8</ele><time>2026-05-03T08:16:32.966Z</time></trkpt><trkpt lat="44.2759485" lon="8.4344049"><ele>8.600000000000001</ele><time>2026-05-03T08:16:33.966Z</time></trkpt><trkpt lat="44.2758411" lon="8.4344376"><ele>8.4</ele><time>2026-05-03T08:16:34.967Z</time></trkpt><trkpt lat="44.275737" lon="8.4344832"><ele>8.200000000000001</ele><time>2026-05-03T08:16:35.966Z</time></trkpt><trkpt lat="44.275632" lon="8.4345356"><ele>8.0</ele><time>2026-05-03T08:16:36.966Z</time></trkpt><trkpt lat="44.2755348" lon="8.4345809"><ele>7.833333333333333</ele><time>2026-05-03T08:16:37.966Z</time></trkpt><trkpt lat="44.2754437" lon="8.4346359"><ele>7.666666666666666</ele><time>2026-05-03T08:16:38.966Z</time></trkpt><trkpt lat="44.2753588" lon="8.4346922"><ele>7.5</ele><time>2026-05-03T08:16:39.966Z</time></trkpt><trkpt lat="44.2752835" lon="8.434753"><ele>7.333333333333334</ele><time>2026-05-03T08:16:40.967Z</time></trkpt><trkpt lat="44.2752149" lon="8.4348172"><ele>7.166666666666667</ele><time>2026-05-03T08:16:41.967Z</time></trkpt><trkpt lat="44.2751486" lon="8.4348744"><ele>7.0</ele><time>2026-05-03T08:16:42.966Z</time></trkpt><trkpt lat="44.2750899" lon="8.434919"><ele>7.000000000000001</ele><time>2026-05-03T08:16:43.967Z</time></trkpt><trkpt lat="44.2749927" lon="8.4349979"><ele>7.0</ele><time>2026-05-03T08:16:45.966Z</time></trkpt><trkpt lat="44.2749305" lon="8.4350583"><ele>7.0</ele><time>2026-05-03T08:16:47.966Z</time></trkpt><trkpt lat="44.2748435" lon="8.4351073"><ele>7.0</ele><time>2026-05-03T08:16:50.967Z</time></trkpt><trkpt lat="44.2747832" lon="8.4351535"><ele>7.000000000000001</ele><time>2026-05-03T08:16:51.966Z</time></trkpt><trkpt lat="44.2747402" lon="8.4352215"><ele>7.0</ele><time>2026-05-03T08:16:52.966Z</time></trkpt><trkpt lat="44.2746741" lon="8.4353294"><ele>7.5</ele><time>2026-05-03T08:16:53.967Z</time></trkpt><trkpt lat="44.2745972" lon="8.4354434"><ele>8.0</ele><time>2026-05-03T08:16:54.966Z</time></trkpt><trkpt lat="44.2745077" lon="8.4355453"><ele>8.5</ele><time>2026-05-03T08:16:55.966Z</time></trkpt><trkpt lat="44.2744036" lon="8.4356393"><ele>9.0</ele><time>2026-05-03T08:16:56.967Z</time></trkpt><trkpt lat="44.2743029" lon="8.4357458"><ele>9.0</ele><time>2026-05-03T08:16:57.967Z</time></trkpt><trkpt lat="44.274203" lon="8.4358573"><ele>9.0</ele><time>2026-05-03T08:16:58.967Z</time></trkpt><trkpt lat="44.2741041" lon="8.4359665"><ele>9.0</ele><time>2026-05-03T08:16:59.966Z</time></trkpt><trkpt lat="44.2740087" lon="8.4360712"><ele>9.0</ele><time>2026-05-03T08:17:00.967Z</time></trkpt><trkpt lat="44.2739163" lon="8.4361587"><ele>9.4</ele><time>2026-05-03T08:17:01.966Z</time></trkpt><trkpt lat="44.2738298" lon="8.4362458"><ele>9.8</ele><time>2026-05-03T08:17:02.967Z</time></trkpt><trkpt lat="44.2737456" lon="8.4363334"><ele>10.200000000000001</ele><time>2026-05-03T08:17:03.966Z</time></trkpt><trkpt lat="44.2736619" lon="8.4364241"><ele>10.600000000000001</ele><time>2026-05-03T08:17:04.966Z</time></trkpt><trkpt lat="44.2735826" lon="8.4365154"><ele>11.0</ele><time>2026-05-03T08:17:05.967Z</time></trkpt><trkpt lat="44.2735027" lon="8.4366051"><ele>10.200000000000001</ele><time>2026-05-03T08:17:06.967Z</time></trkpt><trkpt lat="44.273422" lon="8.4366932"><ele>9.4</ele><time>2026-05-03T08:17:07.966Z</time></trkpt><trkpt lat="44.2733429" lon="8.4367755"><ele>8.6</ele><time>2026-05-03T08:17:08.966Z</time></trkpt><trkpt lat="44.2732726" lon="8.436855"><ele>7.8</ele><time>2026-05-03T08:17:09.966Z</time></trkpt><trkpt lat="44.27321" lon="8.4369395"><ele>7.0</ele><time>2026-05-03T08:17:10.967Z</time></trkpt><trkpt lat="44.2731484" lon="8.4370248"><ele>7.166666666666667</ele><time>2026-05-03T08:17:11.966Z</time></trkpt><trkpt lat="44.2730872" lon="8.4371202"><ele>7.333333333333334</ele><time>2026-05-03T08:17:12.967Z</time></trkpt><trkpt lat="44.2730378" lon="8.4372114"><ele>7.5</ele><time>2026-05-03T08:17:13.967Z</time></trkpt><trkpt lat="44.27299" lon="8.4372995"><ele>7.666666666666666</ele><time>2026-05-03T08:17:14.967Z</time></trkpt><trkpt lat="44.2729534" lon="8.4373859"><ele>7.833333333333333</ele><time>2026-05-03T08:17:15.967Z</time></trkpt><trkpt lat="44.2729288" lon="8.437483"><ele>8.0</ele><time>2026-05-03T08:17:16.966Z</time></trkpt><trkpt lat="44.2729109" lon="8.4375745"><ele>8.4</ele><time>2026-05-03T08:17:17.967Z</time></trkpt><trkpt lat="44.2728844" lon="8.4377506"><ele>8.8</ele><time>2026-05-03T08:17:19.966Z</time></trkpt><trkpt lat="44.272837" lon="8.4379161"><ele>9.2</ele><time>2026-05-03T08:17:21.967Z</time></trkpt><trkpt lat="44.272814" lon="8.4380178"><ele>9.6</ele><time>2026-05-03T08:17:22.967Z</time></trkpt><trkpt lat="44.272765" lon="8.43813"><ele>10.0</ele><time>2026-05-03T08:17:23.967Z</time></trkpt><trkpt lat="44.2727277" lon="8.4382192"><ele>10.166666666666668</ele><time>2026-05-03T08:17:24.967Z</time></trkpt><trkpt lat="44.2726898" lon="8.4383283"><ele>10.333333333333334</ele><time>2026-05-03T08:17:25.966Z</time></trkpt><trkpt lat="44.2726652" lon="8.4384217"><ele>10.5</ele><time>2026-05-03T08:17:26.967Z</time></trkpt><trkpt lat="44.2726509" lon="8.4385283"><ele>10.666666666666666</ele><time>2026-05-03T08:17:27.967Z</time></trkpt><trkpt lat="44.2726215" lon="8.4386367"><ele>10.833333333333332</ele><time>2026-05-03T08:17:28.967Z</time></trkpt><trkpt lat="44.2726113" lon="8.43874"><ele>11.0</ele><time>2026-05-03T08:17:29.967Z</time></trkpt><trkpt lat="44.2725442" lon="8.4388584"><ele>10.75</ele><time>2026-05-03T08:17:31.967Z</time></trkpt><trkpt lat="44.2724183" lon="8.4388908"><ele>10.5</ele><time>2026-05-03T08:17:33.967Z</time></trkpt><trkpt lat="44.2723091" lon="8.438812"><ele>10.25</ele><time>2026-05-03T08:17:34.967Z</time></trkpt><trkpt lat="44.2722021" lon="8.4387691"><ele>10.0</ele><time>2026-05-03T08:17:35.967Z</time></trkpt><trkpt lat="44.2720819" lon="8.4387321"><ele>10.0</ele><time>2026-05-03T08:17:36.967Z</time></trkpt><trkpt lat="44.27198" lon="8.4387064"><ele>10.0</ele><time>2026-05-03T08:17:37.967Z</time></trkpt><trkpt lat="44.2719005" lon="8.4386878"><ele>10.0</ele><time>2026-05-03T08:17:38.967Z</time></trkpt><trkpt lat="44.2718171" lon="8.4386638"><ele>10.0</ele><time>2026-05-03T08:17:39.967Z</time></trkpt><trkpt lat="44.2717445" lon="8.4386513"><ele>10.0</ele><time>2026-05-03T08:17:40.967Z</time></trkpt><trkpt lat="44.2716255" lon="8.4386529"><ele>10.0</ele><time>2026-05-03T08:17:42.966Z</time></trkpt><trkpt lat="44.2715605" lon="8.4386488"><ele>10.0</ele><time>2026-05-03T08:17:43.967Z</time></trkpt><trkpt lat="44.2714819" lon="8.4386578"><ele>10.0</ele><time>2026-05-03T08:17:44.967Z</time></trkpt><trkpt lat="44.2714062" lon="8.4386714"><ele>10.0</ele><time>2026-05-03T08:17:45.968Z</time></trkpt><trkpt lat="44.2713305" lon="8.438688"><ele>10.0</ele><time>2026-05-03T08:17:46.968Z</time></trkpt><trkpt lat="44.2712514" lon="8.4387078"><ele>10.0</ele><time>2026-05-03T08:17:47.967Z</time></trkpt><trkpt lat="44.2711659" lon="8.4387187"><ele>9.8</ele><time>2026-05-03T08:17:48.967Z</time></trkpt><trkpt lat="44.271075" lon="8.4387234"><ele>9.6</ele><time>2026-05-03T08:17:49.968Z</time></trkpt><trkpt lat="44.2709787" lon="8.4387396"><ele>9.4</ele><time>2026-05-03T08:17:50.967Z</time></trkpt><trkpt lat="44.2708837" lon="8.4387704"><ele>9.2</ele><time>2026-05-03T08:17:51.968Z</time></trkpt><trkpt lat="44.2707944" lon="8.4388168"><ele>9.0</ele><time>2026-05-03T08:17:52.967Z</time></trkpt><trkpt lat="44.2707046" lon="8.4388626"><ele>9.0</ele><time>2026-05-03T08:17:53.968Z</time></trkpt><trkpt lat="44.2706432" lon="8.4389049"><ele>9.0</ele><time>2026-05-03T08:17:54.967Z</time></trkpt><trkpt lat="44.2705598" lon="8.4389464"><ele>9.0</ele><time>2026-05-03T08:17:55.967Z</time></trkpt><trkpt lat="44.2704731" lon="8.4389917"><ele>9.0</ele><time>2026-05-03T08:17:56.968Z</time></trkpt><trkpt lat="44.270379" lon="8.4390322"><ele>9.0</ele><time>2026-05-03T08:17:57.968Z</time></trkpt><trkpt lat="44.270278" lon="8.439096"><ele>8.75</ele><time>2026-05-03T08:17:58.967Z</time></trkpt><trkpt lat="44.2701591" lon="8.4391548"><ele>8.5</ele><time>2026-05-03T08:17:59.967Z</time></trkpt><trkpt lat="44.2700704" lon="8.4392387"><ele>8.25</ele><time>2026-05-03T08:18:00.968Z</time></trkpt><trkpt lat="44.2699577" lon="8.4392824"><ele>8.0</ele><time>2026-05-03T08:18:01.967Z</time></trkpt><trkpt lat="44.2698549" lon="8.4393266"><ele>8.0</ele><time>2026-05-03T08:18:02.968Z</time></trkpt><trkpt lat="44.269762" lon="8.4393821"><ele>8.0</ele><time>2026-05-03T08:18:03.968Z</time></trkpt><trkpt lat="44.269667" lon="8.4394417"><ele>8.0</ele><time>2026-05-03T08:18:04.968Z</time></trkpt><trkpt lat="44.2695716" lon="8.4395041"><ele>8.0</ele><time>2026-05-03T08:18:05.968Z</time></trkpt><trkpt lat="44.269477" lon="8.4395716"><ele>8.0</ele><time>2026-05-03T08:18:06.967Z</time></trkpt><trkpt lat="44.269381" lon="8.4396474"><ele>7.6000000000000005</ele><time>2026-05-03T08:18:07.967Z</time></trkpt><trkpt lat="44.2692815" lon="8.4396927"><ele>7.200000000000001</ele><time>2026-05-03T08:18:08.967Z</time></trkpt><trkpt lat="44.2691867" lon="8.4397408"><ele>6.8</ele><time>2026-05-03T08:18:09.967Z</time></trkpt><trkpt lat="44.2690752" lon="8.4397804"><ele>6.4</ele><time>2026-05-03T08:18:10.967Z</time></trkpt><trkpt lat="44.2689669" lon="8.4398239"><ele>6.0</ele><time>2026-05-03T08:18:11.968Z</time></trkpt><trkpt lat="44.268861" lon="8.4398718"><ele>6.0</ele><time>2026-05-03T08:18:12.968Z</time></trkpt><trkpt lat="44.2687555" lon="8.4399196"><ele>6.0</ele><time>2026-05-03T08:18:13.967Z</time></trkpt><trkpt lat="44.2686584" lon="8.4399741"><ele>6.0</ele><time>2026-05-03T08:18:14.968Z</time></trkpt><trkpt lat="44.2685621" lon="8.440023"><ele>6.0</ele><time>2026-05-03T08:18:15.968Z</time></trkpt><trkpt lat="44.268456" lon="8.4400822"><ele>6.0</ele><time>2026-05-03T08:18:16.968Z</time></trkpt><trkpt lat="44.2683449" lon="8.4401335"><ele>6.0</ele><time>2026-05-03T08:18:17.967Z</time></trkpt><trkpt lat="44.2682446" lon="8.4401787"><ele>6.0</ele><time>2026-05-03T08:18:18.967Z</time></trkpt><trkpt lat="44.268152" lon="8.4402209"><ele>6.0</ele><time>2026-05-03T08:18:19.967Z</time></trkpt><trkpt lat="44.2680626" lon="8.4402591"><ele>6.0</ele><time>2026-05-03T08:18:20.968Z</time></trkpt><trkpt lat="44.2679791" lon="8.4402739"><ele>6.0</ele><time>2026-05-03T08:18:21.967Z</time></trkpt><trkpt lat="44.2678986" lon="8.4403149"><ele>5.833333333333333</ele><time>2026-05-03T08:18:22.968Z</time></trkpt><trkpt lat="44.267814" lon="8.4403569"><ele>5.666666666666667</ele><time>2026-05-03T08:18:23.968Z</time></trkpt><trkpt lat="44.2677334" lon="8.4403886"><ele>5.5</ele><time>2026-05-03T08:18:24.968Z</time></trkpt><trkpt lat="44.2676521" lon="8.440424"><ele>5.333333333333334</ele><time>2026-05-03T08:18:25.968Z</time></trkpt><trkpt lat="44.2675648" lon="8.4404628"><ele>5.166666666666667</ele><time>2026-05-03T08:18:26.968Z</time></trkpt><trkpt lat="44.2674787" lon="8.4404982"><ele>5.0</ele><time>2026-05-03T08:18:27.967Z</time></trkpt><trkpt lat="44.2673938" lon="8.4405211"><ele>4.8</ele><time>2026-05-03T08:18:28.968Z</time></trkpt><trkpt lat="44.2673163" lon="8.4405177"><ele>4.6</ele><time>2026-05-03T08:18:29.967Z</time></trkpt><trkpt lat="44.2672376" lon="8.4404879"><ele>4.4</ele><time>2026-05-03T08:18:30.968Z</time></trkpt><trkpt lat="44.2671544" lon="8.4404428"><ele>4.2</ele><time>2026-05-03T08:18:31.968Z</time></trkpt><trkpt lat="44.2670389" lon="8.4405038"><ele>4.0</ele><time>2026-05-03T08:18:33.967Z</time></trkpt><trkpt lat="44.2669849" lon="8.4405912"><ele>3.4000000000000004</ele><time>2026-05-03T08:18:34.968Z</time></trkpt><trkpt lat="44.2669325" lon="8.4406943"><ele>2.8000000000000003</ele><time>2026-05-03T08:18:35.967Z</time></trkpt><trkpt lat="44.2668722" lon="8.4407957"><ele>2.2</ele><time>2026-05-03T08:18:36.968Z</time></trkpt><trkpt lat="44.2667874" lon="8.4408652"><ele>1.6</ele><time>2026-05-03T08:18:37.967Z</time></trkpt><trkpt lat="44.2666877" lon="8.4409208"><ele>1.0</ele><time>2026-05-03T08:18:38.969Z</time></trkpt><trkpt lat="44.2665803" lon="8.4409835"><ele>1.0</ele><time>2026-05-03T08:18:39.967Z</time></trkpt><trkpt lat="44.2664762" lon="8.4410319"><ele>1.0</ele><time>2026-05-03T08:18:40.968Z</time></trkpt><trkpt lat="44.2663603" lon="8.4410904"><ele>1.0</ele><time>2026-05-03T08:18:41.967Z</time></trkpt><trkpt lat="44.2662421" lon="8.4411392"><ele>1.0</ele><time>2026-05-03T08:18:42.968Z</time></trkpt><trkpt lat="44.2661355" lon="8.4411926"><ele>1.5</ele><time>2026-05-03T08:18:43.968Z</time></trkpt><trkpt lat="44.2660298" lon="8.4412583"><ele>2.0</ele><time>2026-05-03T08:18:44.967Z</time></trkpt><trkpt lat="44.2659214" lon="8.4413254"><ele>2.5</ele><time>2026-05-03T08:18:45.967Z</time></trkpt><trkpt lat="44.2658133" lon="8.4413864"><ele>3.0</ele><time>2026-05-03T08:18:46.968Z</time></trkpt><trkpt lat="44.2657021" lon="8.4414215"><ele>3.5</ele><time>2026-05-03T08:18:47.968Z</time></trkpt><trkpt lat="44.2655935" lon="8.4414704"><ele>4.0</ele><time>2026-05-03T08:18:48.967Z</time></trkpt><trkpt lat="44.265486" lon="8.4415236"><ele>4.5</ele><time>2026-05-03T08:18:49.967Z</time></trkpt><trkpt lat="44.2653802" lon="8.4415806"><ele>5.0</ele><time>2026-05-03T08:18:50.968Z</time></trkpt><trkpt lat="44.2652747" lon="8.4416409"><ele>5.0</ele><time>2026-05-03T08:18:51.968Z</time></trkpt><trkpt lat="44.2651729" lon="8.4416998"><ele>5.0</ele><time>2026-05-03T08:18:52.968Z</time></trkpt><trkpt lat="44.2650753" lon="8.441759"><ele>5.0</ele><time>2026-05-03T08:18:53.967Z</time></trkpt><trkpt lat="44.2649764" lon="8.4418195"><ele>5.0</ele><time>2026-05-03T08:18:54.968Z</time></trkpt><trkpt lat="44.2648777" lon="8.4418817"><ele>5.0</ele><time>2026-05-03T08:18:55.968Z</time></trkpt><trkpt lat="44.2647809" lon="8.4419546"><ele>5.0</ele><time>2026-05-03T08:18:56.969Z</time></trkpt><trkpt lat="44.264688" lon="8.4420265"><ele>5.0</ele><time>2026-05-03T08:18:57.968Z</time></trkpt><trkpt lat="44.2645988" lon="8.4421004"><ele>5.0</ele><time>2026-05-03T08:18:58.969Z</time></trkpt><trkpt lat="44.2645042" lon="8.4421875"><ele>5.0</ele><time>2026-05-03T08:18:59.968Z</time></trkpt><trkpt lat="44.2644121" lon="8.4422851"><ele>5.0</ele><time>2026-05-03T08:19:00.969Z</time></trkpt><trkpt lat="44.2643199" lon="8.4424017"><ele>5.0</ele><time>2026-05-03T08:19:01.969Z</time></trkpt><trkpt lat="44.2642287" lon="8.4425412"><ele>5.0</ele><time>2026-05-03T08:19:02.968Z</time></trkpt><trkpt lat="44.264147" lon="8.4426831"><ele>5.0</ele><time>2026-05-03T08:19:03.969Z</time></trkpt><trkpt lat="44.2640691" lon="8.4428318"><ele>5.0</ele><time>2026-05-03T08:19:04.968Z</time></trkpt><trkpt lat="44.2639969" lon="8.4429799"><ele>5.0</ele><time>2026-05-03T08:19:05.969Z</time></trkpt><trkpt lat="44.2639241" lon="8.4431286"><ele>5.0</ele><time>2026-05-03T08:19:06.968Z</time></trkpt><trkpt lat="44.2638486" lon="8.4432732"><ele>5.0</ele><time>2026-05-03T08:19:07.968Z</time></trkpt><trkpt lat="44.2637755" lon="8.4434172"><ele>5.0</ele><time>2026-05-03T08:19:08.969Z</time></trkpt><trkpt lat="44.2637023" lon="8.4435626"><ele>5.0</ele><time>2026-05-03T08:19:09.969Z</time></trkpt><trkpt lat="44.2636272" lon="8.443708"><ele>5.0</ele><time>2026-05-03T08:19:10.969Z</time></trkpt><trkpt lat="44.2635445" lon="8.443855"><ele>5.0</ele><time>2026-05-03T08:19:11.968Z</time></trkpt><trkpt lat="44.263464" lon="8.4440008"><ele>5.0</ele><time>2026-05-03T08:19:12.968Z</time></trkpt><trkpt lat="44.2633867" lon="8.4441422"><ele>4.75</ele><time>2026-05-03T08:19:13.969Z</time></trkpt><trkpt lat="44.2633089" lon="8.4442786"><ele>4.5</ele><time>2026-05-03T08:19:14.968Z</time></trkpt><trkpt lat="44.2632382" lon="8.4444099"><ele>4.25</ele><time>2026-05-03T08:19:15.969Z</time></trkpt><trkpt lat="44.2631691" lon="8.4445385"><ele>4.0</ele><time>2026-05-03T08:19:16.968Z</time></trkpt><trkpt lat="44.2631094" lon="8.4446636"><ele>4.0</ele><time>2026-05-03T08:19:17.969Z</time></trkpt><trkpt lat="44.2630394" lon="8.4447956"><ele>4.0</ele><time>2026-05-03T08:19:18.969Z</time></trkpt><trkpt lat="44.2629757" lon="8.4449244"><ele>4.0</ele><time>2026-05-03T08:19:19.969Z</time></trkpt><trkpt lat="44.2629147" lon="8.445047"><ele>4.0</ele><time>2026-05-03T08:19:20.968Z</time></trkpt><trkpt lat="44.2628457" lon="8.4451689"><ele>4.0</ele><time>2026-05-03T08:19:21.969Z</time></trkpt><trkpt lat="44.2627689" lon="8.4452937"><ele>4.0</ele><time>2026-05-03T08:19:22.969Z</time></trkpt><trkpt lat="44.2626924" lon="8.4454279"><ele>4.0</ele><time>2026-05-03T08:19:23.969Z</time></trkpt><trkpt lat="44.262609" lon="8.445563"><ele>4.0</ele><time>2026-05-03T08:19:24.969Z</time></trkpt><trkpt lat="44.2625324" lon="8.4457051"><ele>4.0</ele><time>2026-05-03T08:19:25.969Z</time></trkpt><trkpt lat="44.2624661" lon="8.4458573"><ele>3.75</ele><time>2026-05-03T08:19:26.969Z</time></trkpt><trkpt lat="44.2623988" lon="8.4460043"><ele>3.5</ele><time>2026-05-03T08:19:27.968Z</time></trkpt><trkpt lat="44.2623292" lon="8.4461408"><ele>3.25</ele><time>2026-05-03T08:19:28.969Z</time></trkpt><trkpt lat="44.2622567" lon="8.446273"><ele>3.0</ele><time>2026-05-03T08:19:29.969Z</time></trkpt><trkpt lat="44.262179" lon="8.4464073"><ele>3.4</ele><time>2026-05-03T08:19:30.969Z</time></trkpt><trkpt lat="44.2621073" lon="8.4465368"><ele>3.8</ele><time>2026-05-03T08:19:31.969Z</time></trkpt><trkpt lat="44.2620403" lon="8.4466628"><ele>4.2</ele><time>2026-05-03T08:19:32.968Z</time></trkpt><trkpt lat="44.2619772" lon="8.4467839"><ele>4.6</ele><time>2026-05-03T08:19:33.969Z</time></trkpt><trkpt lat="44.2619152" lon="8.4469017"><ele>5.0</ele><time>2026-05-03T08:19:34.969Z</time></trkpt><trkpt lat="44.2618551" lon="8.4470189"><ele>5.166666666666667</ele><time>2026-05-03T08:19:35.969Z</time></trkpt><trkpt lat="44.2618005" lon="8.447136"><ele>5.333333333333334</ele><time>2026-05-03T08:19:36.969Z</time></trkpt><trkpt lat="44.2617541" lon="8.4472515"><ele>5.5</ele><time>2026-05-03T08:19:37.969Z</time></trkpt><trkpt lat="44.2617234" lon="8.4473582"><ele>5.666666666666667</ele><time>2026-05-03T08:19:38.969Z</time></trkpt><trkpt lat="44.2617006" lon="8.4474572"><ele>5.833333333333333</ele><time>2026-05-03T08:19:39.968Z</time></trkpt><trkpt lat="44.2616745" lon="8.4475552"><ele>6.0</ele><time>2026-05-03T08:19:40.969Z</time></trkpt><trkpt lat="44.2616296" lon="8.4476504"><ele>6.0</ele><time>2026-05-03T08:19:41.968Z</time></trkpt><trkpt lat="44.2615954" lon="8.4477503"><ele>6.0</ele><time>2026-05-03T08:19:42.969Z</time></trkpt><trkpt lat="44.2615823" lon="8.4478701"><ele>6.0</ele><time>2026-05-03T08:19:43.968Z</time></trkpt><trkpt lat="44.2615877" lon="8.4480055"><ele>6.0</ele><time>2026-05-03T08:19:44.969Z</time></trkpt><trkpt lat="44.2616099" lon="8.4481513"><ele>6.0</ele><time>2026-05-03T08:19:45.969Z</time></trkpt><trkpt lat="44.2616333" lon="8.4483125"><ele>6.25</ele><time>2026-05-03T08:19:46.969Z</time></trkpt><trkpt lat="44.2616546" lon="8.4484856"><ele>6.5</ele><time>2026-05-03T08:19:47.969Z</time></trkpt><trkpt lat="44.2616753" lon="8.4486549"><ele>6.75</ele><time>2026-05-03T08:19:48.969Z</time></trkpt><trkpt lat="44.2616993" lon="8.4488311"><ele>7.0</ele><time>2026-05-03T08:19:49.969Z</time></trkpt><trkpt lat="44.2617302" lon="8.449016"><ele>7.75</ele><time>2026-05-03T08:19:50.969Z</time></trkpt><trkpt lat="44.2617619" lon="8.4492028"><ele>8.5</ele><time>2026-05-03T08:19:51.969Z</time></trkpt><trkpt lat="44.2617902" lon="8.4493932"><ele>9.25</ele><time>2026-05-03T08:19:52.969Z</time></trkpt><trkpt lat="44.2618102" lon="8.4495885"><ele>10.0</ele><time>2026-05-03T08:19:53.968Z</time></trkpt><trkpt lat="44.2618192" lon="8.4497876"><ele>9.75</ele><time>2026-05-03T08:19:54.969Z</time></trkpt><trkpt lat="44.261813" lon="8.4499904"><ele>9.5</ele><time>2026-05-03T08:19:55.969Z</time></trkpt><trkpt lat="44.2617865" lon="8.4501992"><ele>9.25</ele><time>2026-05-03T08:19:56.968Z</time></trkpt><trkpt lat="44.2617527" lon="8.4503993"><ele>9.0</ele><time>2026-05-03T08:19:57.968Z</time></trkpt><trkpt lat="44.2617079" lon="8.4505973"><ele>9.0</ele><time>2026-05-03T08:19:58.969Z</time></trkpt><trkpt lat="44.2616364" lon="8.4507947"><ele>9.0</ele><time>2026-05-03T08:19:59.969Z</time></trkpt><trkpt lat="44.2615603" lon="8.4509784"><ele>9.0</ele><time>2026-05-03T08:20:00.968Z</time></trkpt><trkpt lat="44.2614776" lon="8.451154"><ele>10.0</ele><time>2026-05-03T08:20:01.969Z</time></trkpt><trkpt lat="44.2613865" lon="8.4513214"><ele>11.0</ele><time>2026-05-03T08:20:02.968Z</time></trkpt><trkpt lat="44.2612883" lon="8.4514803"><ele>12.0</ele><time>2026-05-03T08:20:03.968Z</time></trkpt><trkpt lat="44.2611865" lon="8.4516317"><ele>12.0</ele><time>2026-05-03T08:20:04.969Z</time></trkpt><trkpt lat="44.2610846" lon="8.4517763"><ele>12.0</ele><time>2026-05-03T08:20:05.969Z</time></trkpt><trkpt lat="44.2609807" lon="8.4519172"><ele>12.0</ele><time>2026-05-03T08:20:06.97Z</time></trkpt><trkpt lat="44.2608731" lon="8.4520491"><ele>12.0</ele><time>2026-05-03T08:20:07.97Z</time></trkpt><trkpt lat="44.2607619" lon="8.4521726"><ele>10.75</ele><time>2026-05-03T08:20:08.97Z</time></trkpt><trkpt lat="44.2606452" lon="8.4522931"><ele>9.5</ele><time>2026-05-03T08:20:09.97Z</time></trkpt><trkpt lat="44.2605218" lon="8.4524096"><ele>8.25</ele><time>2026-05-03T08:20:10.97Z</time></trkpt><trkpt lat="44.2603905" lon="8.45252"><ele>7.0</ele><time>2026-05-03T08:20:11.969Z</time></trkpt><trkpt lat="44.2602535" lon="8.4526249"><ele>6.666666666666667</ele><time>2026-05-03T08:20:12.969Z</time></trkpt><trkpt lat="44.260113" lon="8.4527199"><ele>6.333333333333334</ele><time>2026-05-03T08:20:13.969Z</time></trkpt><trkpt lat="44.2599717" lon="8.4528063"><ele>6.0</ele><time>2026-05-03T08:20:14.969Z</time></trkpt><trkpt lat="44.2598294" lon="8.4528819"><ele>6.25</ele><time>2026-05-03T08:20:15.97Z</time></trkpt><trkpt lat="44.2596898" lon="8.4529464"><ele>6.5</ele><time>2026-05-03T08:20:16.97Z</time></trkpt><trkpt lat="44.2595519" lon="8.4529912"><ele>6.75</ele><time>2026-05-03T08:20:17.97Z</time></trkpt><trkpt lat="44.2594178" lon="8.4530184"><ele>7.0</ele><time>2026-05-03T08:20:18.97Z</time></trkpt><trkpt lat="44.2592827" lon="8.4530266"><ele>7.25</ele><time>2026-05-03T08:20:19.97Z</time></trkpt><trkpt lat="44.2591472" lon="8.4530203"><ele>7.5</ele><time>2026-05-03T08:20:20.969Z</time></trkpt><trkpt lat="44.259013" lon="8.4529989"><ele>7.75</ele><time>2026-05-03T08:20:21.97Z</time></trkpt><trkpt lat="44.2588821" lon="8.4529707"><ele>8.0</ele><time>2026-05-03T08:20:22.97Z</time></trkpt><trkpt lat="44.2587475" lon="8.4529399"><ele>8.0</ele><time>2026-05-03T08:20:23.97Z</time></trkpt><trkpt lat="44.2586155" lon="8.452922"><ele>8.0</ele><time>2026-05-03T08:20:24.969Z</time></trkpt><trkpt lat="44.2584864" lon="8.4529026"><ele>8.0</ele><time>2026-05-03T08:20:25.97Z</time></trkpt><trkpt lat="44.2583604" lon="8.4528713"><ele>8.0</ele><time>2026-05-03T08:20:26.97Z</time></trkpt><trkpt lat="44.2582394" lon="8.4528256"><ele>7.25</ele><time>2026-05-03T08:20:27.97Z</time></trkpt><trkpt lat="44.2581144" lon="8.4527727"><ele>6.5</ele><time>2026-05-03T08:20:28.969Z</time></trkpt><trkpt lat="44.2579839" lon="8.4526998"><ele>5.75</ele><time>2026-05-03T08:20:29.97Z</time></trkpt><trkpt lat="44.2578561" lon="8.4526086"><ele>5.0</ele><time>2026-05-03T08:20:30.969Z</time></trkpt><trkpt lat="44.2577321" lon="8.4525048"><ele>5.0</ele><time>2026-05-03T08:20:31.969Z</time></trkpt><trkpt lat="44.2576083" lon="8.4523973"><ele>5.0</ele><time>2026-05-03T08:20:32.97Z</time></trkpt><trkpt lat="44.2574854" lon="8.45229"><ele>5.0</ele><time>2026-05-03T08:20:33.97Z</time></trkpt><trkpt lat="44.2573618" lon="8.4521872"><ele>5.0</ele><time>2026-05-03T08:20:34.97Z</time></trkpt><trkpt lat="44.2572375" lon="8.4520841"><ele>7.5</ele><time>2026-05-03T08:20:35.97Z</time></trkpt><trkpt lat="44.2571156" lon="8.4519827"><ele>10.0</ele><time>2026-05-03T08:20:36.969Z</time></trkpt><trkpt lat="44.2569972" lon="8.451882"><ele>12.5</ele><time>2026-05-03T08:20:37.969Z</time></trkpt><trkpt lat="44.2568861" lon="8.4517853"><ele>15.0</ele><time>2026-05-03T08:20:38.97Z</time></trkpt><trkpt lat="44.2567798" lon="8.4516928"><ele>15.0</ele><time>2026-05-03T08:20:39.969Z</time></trkpt><trkpt lat="44.256675" lon="8.4516074"><ele>15.0</ele><time>2026-05-03T08:20:40.97Z</time></trkpt><trkpt lat="44.2565583" lon="8.4515366"><ele>15.0</ele><time>2026-05-03T08:20:41.969Z</time></trkpt><trkpt lat="44.256429" lon="8.451487"><ele>15.0</ele><time>2026-05-03T08:20:42.97Z</time></trkpt><trkpt lat="44.2562963" lon="8.4514553"><ele>13.25</ele><time>2026-05-03T08:20:43.97Z</time></trkpt><trkpt lat="44.2561693" lon="8.4514356"><ele>11.5</ele><time>2026-05-03T08:20:44.97Z</time></trkpt><trkpt lat="44.2560509" lon="8.4514327"><ele>9.75</ele><time>2026-05-03T08:20:45.97Z</time></trkpt><trkpt lat="44.2559338" lon="8.4514311"><ele>8.0</ele><time>2026-05-03T08:20:46.97Z</time></trkpt><trkpt lat="44.2558132" lon="8.4514315"><ele>8.0</ele><time>2026-05-03T08:20:47.97Z</time></trkpt><trkpt lat="44.2556899" lon="8.4514245"><ele>8.0</ele><time>2026-05-03T08:20:48.97Z</time></trkpt><trkpt lat="44.2555626" lon="8.4514139"><ele>8.0</ele><time>2026-05-03T08:20:49.97Z</time></trkpt><trkpt lat="44.2554367" lon="8.451381"><ele>8.0</ele><time>2026-05-03T08:20:50.97Z</time></trkpt><trkpt lat="44.2553143" lon="8.451316"><ele>9.75</ele><time>2026-05-03T08:20:51.97Z</time></trkpt><trkpt lat="44.2551909" lon="8.4512373"><ele>11.5</ele><time>2026-05-03T08:20:52.97Z</time></trkpt><trkpt lat="44.2550675" lon="8.4511317"><ele>13.25</ele><time>2026-05-03T08:20:53.969Z</time></trkpt><trkpt lat="44.2549511" lon="8.4510181"><ele>15.0</ele><time>2026-05-03T08:20:54.97Z</time></trkpt><trkpt lat="44.2548442" lon="8.4508938"><ele>12.5</ele><time>2026-05-03T08:20:55.97Z</time></trkpt><trkpt lat="44.2547494" lon="8.4507691"><ele>10.0</ele><time>2026-05-03T08:20:56.97Z</time></trkpt><trkpt lat="44.2546527" lon="8.4506393"><ele>7.5</ele><time>2026-05-03T08:20:57.97Z</time></trkpt><trkpt lat="44.2545645" lon="8.4505256"><ele>5.0</ele><time>2026-05-03T08:20:58.97Z</time></trkpt><trkpt lat="44.2544813" lon="8.4504292"><ele>9.5</ele><time>2026-05-03T08:20:59.97Z</time></trkpt><trkpt lat="44.254405" lon="8.4503533"><ele>14.0</ele><time>2026-05-03T08:21:00.969Z</time></trkpt><trkpt lat="44.2543307" lon="8.4503046"><ele>18.5</ele><time>2026-05-03T08:21:01.969Z</time></trkpt><trkpt lat="44.2542541" lon="8.4502778"><ele>23.0</ele><time>2026-05-03T08:21:02.97Z</time></trkpt><trkpt lat="44.2541666" lon="8.4502646"><ele>27.499999999999996</ele><time>2026-05-03T08:21:03.97Z</time></trkpt><trkpt lat="44.2540811" lon="8.4502664"><ele>32.0</ele><time>2026-05-03T08:21:04.969Z</time></trkpt><trkpt lat="44.2540073" lon="8.4502641"><ele>32.0</ele><time>2026-05-03T08:21:05.969Z</time></trkpt><trkpt lat="44.2538962" lon="8.4502617"><ele>32.0</ele><time>2026-05-03T08:21:07.97Z</time></trkpt><trkpt lat="44.2538001" lon="8.4502693"><ele>32.0</ele><time>2026-05-03T08:21:09.969Z</time></trkpt><trkpt lat="44.2537112" lon="8.4502877"><ele>32.0</ele><time>2026-05-03T08:21:11.97Z</time></trkpt><trkpt lat="44.2535808" lon="8.4502897"><ele>32.0</ele><time>2026-05-03T08:21:13.971Z</time></trkpt><trkpt lat="44.2534906" lon="8.4502813"><ele>32.0</ele><time>2026-05-03T08:21:14.971Z</time></trkpt><trkpt lat="44.2533936" lon="8.450272"><ele>32.0</ele><time>2026-05-03T08:21:15.971Z</time></trkpt><trkpt lat="44.253305" lon="8.4502655"><ele>32.0</ele><time>2026-05-03T08:21:16.971Z</time></trkpt><trkpt lat="44.2532117" lon="8.4502629"><ele>32.0</ele><time>2026-05-03T08:21:17.971Z</time></trkpt><trkpt lat="44.253096" lon="8.4502615"><ele>32.0</ele><time>2026-05-03T08:21:18.971Z</time></trkpt><trkpt lat="44.2529782" lon="8.4502448"><ele>27.25</ele><time>2026-05-03T08:21:19.971Z</time></trkpt><trkpt lat="44.2528569" lon="8.4501955"><ele>22.5</ele><time>2026-05-03T08:21:20.971Z</time></trkpt><trkpt lat="44.2527292" lon="8.4500931"><ele>17.75</ele><time>2026-05-03T08:21:21.971Z</time></trkpt><trkpt lat="44.252627" lon="8.45001"><ele>13.0</ele><time>2026-05-03T08:21:22.971Z</time></trkpt><trkpt lat="44.2525523" lon="8.4499189"><ele>13.0</ele><time>2026-05-03T08:21:23.971Z</time></trkpt><trkpt lat="44.2524837" lon="8.449812"><ele>13.0</ele><time>2026-05-03T08:21:24.97Z</time></trkpt><trkpt lat="44.2524314" lon="8.4497073"><ele>13.0</ele><time>2026-05-03T08:21:25.971Z</time></trkpt><trkpt lat="44.252386" lon="8.4495918"><ele>13.0</ele><time>2026-05-03T08:21:26.971Z</time></trkpt><trkpt lat="44.2523447" lon="8.4494604"><ele>13.0</ele><time>2026-05-03T08:21:27.971Z</time></trkpt><trkpt lat="44.2523048" lon="8.449314"><ele>12.5</ele><time>2026-05-03T08:21:28.971Z</time></trkpt><trkpt lat="44.2522598" lon="8.4491721"><ele>12.0</ele><time>2026-05-03T08:21:29.971Z</time></trkpt><trkpt lat="44.2522138" lon="8.4490251"><ele>11.5</ele><time>2026-05-03T08:21:30.97Z</time></trkpt><trkpt lat="44.252167" lon="8.4488757"><ele>11.0</ele><time>2026-05-03T08:21:31.97Z</time></trkpt><trkpt lat="44.252118" lon="8.4487366"><ele>11.0</ele><time>2026-05-03T08:21:32.97Z</time></trkpt><trkpt lat="44.2520563" lon="8.4486151"><ele>11.0</ele><time>2026-05-03T08:21:33.971Z</time></trkpt><trkpt lat="44.2519842" lon="8.4485024"><ele>11.0</ele><time>2026-05-03T08:21:34.97Z</time></trkpt><trkpt lat="44.2519067" lon="8.4484009"><ele>11.0</ele><time>2026-05-03T08:21:35.971Z</time></trkpt><trkpt lat="44.2518236" lon="8.4483104"><ele>11.0</ele><time>2026-05-03T08:21:36.971Z</time></trkpt><trkpt lat="44.2517354" lon="8.4482295"><ele>11.0</ele><time>2026-05-03T08:21:37.971Z</time></trkpt><trkpt lat="44.2516462" lon="8.4481524"><ele>11.0</ele><time>2026-05-03T08:21:38.97Z</time></trkpt><trkpt lat="44.2515543" lon="8.448079"><ele>11.0</ele><time>2026-05-03T08:21:39.971Z</time></trkpt><trkpt lat="44.2514583" lon="8.4480054"><ele>11.0</ele><time>2026-05-03T08:21:40.971Z</time></trkpt><trkpt lat="44.2513653" lon="8.4479183"><ele>11.0</ele><time>2026-05-03T08:21:41.971Z</time></trkpt><trkpt lat="44.2512776" lon="8.4478273"><ele>12.200000000000001</ele><time>2026-05-03T08:21:42.971Z</time></trkpt><trkpt lat="44.2511883" lon="8.447743"><ele>13.4</ele><time>2026-05-03T08:21:43.97Z</time></trkpt><trkpt lat="44.2510971" lon="8.4476652"><ele>14.6</ele><time>2026-05-03T08:21:44.971Z</time></trkpt><trkpt lat="44.2510061" lon="8.4475906"><ele>15.8</ele><time>2026-05-03T08:21:45.97Z</time></trkpt><trkpt lat="44.2509102" lon="8.4475277"><ele>17.0</ele><time>2026-05-03T08:21:46.971Z</time></trkpt><trkpt lat="44.250807" lon="8.4474756"><ele>17.0</ele><time>2026-05-03T08:21:47.971Z</time></trkpt><trkpt lat="44.2506989" lon="8.4474226"><ele>17.0</ele><time>2026-05-03T08:21:48.97Z</time></trkpt><trkpt lat="44.2505911" lon="8.4473733"><ele>17.0</ele><time>2026-05-03T08:21:49.971Z</time></trkpt><trkpt lat="44.2504882" lon="8.4473232"><ele>17.0</ele><time>2026-05-03T08:21:50.97Z</time></trkpt><trkpt lat="44.250395" lon="8.447274"><ele>17.0</ele><time>2026-05-03T08:21:51.97Z</time></trkpt><trkpt lat="44.2503147" lon="8.447231"><ele>18.5</ele><time>2026-05-03T08:21:52.971Z</time></trkpt><trkpt lat="44.2502409" lon="8.4471888"><ele>20.0</ele><time>2026-05-03T08:21:53.971Z</time></trkpt><trkpt lat="44.2501677" lon="8.447144"><ele>21.5</ele><time>2026-05-03T08:21:54.97Z</time></trkpt><trkpt lat="44.2500895" lon="8.4470929"><ele>23.0</ele><time>2026-05-03T08:21:55.971Z</time></trkpt><trkpt lat="44.2500055" lon="8.4470356"><ele>24.499999999999996</ele><time>2026-05-03T08:21:56.971Z</time></trkpt><trkpt lat="44.2499246" lon="8.446973"><ele>26.0</ele><time>2026-05-03T08:21:57.971Z</time></trkpt><trkpt lat="44.2498461" lon="8.4469138"><ele>22.999999999999996</ele><time>2026-05-03T08:21:58.971Z</time></trkpt><trkpt lat="44.24977" lon="8.4468578"><ele>20.0</ele><time>2026-05-03T08:21:59.97Z</time></trkpt><trkpt lat="44.2496972" lon="8.4468028"><ele>17.0</ele><time>2026-05-03T08:22:00.97Z</time></trkpt><trkpt lat="44.2496234" lon="8.4467464"><ele>14.0</ele><time>2026-05-03T08:22:01.97Z</time></trkpt><trkpt lat="44.2495465" lon="8.4466836"><ele>11.0</ele><time>2026-05-03T08:22:02.97Z</time></trkpt><trkpt lat="44.2494647" lon="8.4466136"><ele>8.0</ele><time>2026-05-03T08:22:03.971Z</time></trkpt><trkpt lat="44.2493817" lon="8.4465495"><ele>8.0</ele><time>2026-05-03T08:22:04.971Z</time></trkpt><trkpt lat="44.2492999" lon="8.4464899"><ele>7.999999999999999</ele><time>2026-05-03T08:22:05.971Z</time></trkpt><trkpt lat="44.2492277" lon="8.4464316"><ele>8.0</ele><time>2026-05-03T08:22:06.971Z</time></trkpt><trkpt lat="44.2491664" lon="8.4463781"><ele>8.0</ele><time>2026-05-03T08:22:07.97Z</time></trkpt><trkpt lat="44.2491105" lon="8.4463274"><ele>7.999999999999999</ele><time>2026-05-03T08:22:08.971Z</time></trkpt><trkpt lat="44.2490555" lon="8.4462806"><ele>8.0</ele><time>2026-05-03T08:22:09.971Z</time></trkpt><trkpt lat="44.2489978" lon="8.4462329"><ele>8.0</ele><time>2026-05-03T08:22:10.97Z</time></trkpt><trkpt lat="44.2489375" lon="8.4461823"><ele>8.714285714285714</ele><time>2026-05-03T08:22:11.97Z</time></trkpt><trkpt lat="44.2488718" lon="8.4461278"><ele>9.428571428571427</ele><time>2026-05-03T08:22:12.971Z</time></trkpt><trkpt lat="44.2488002" lon="8.4460697"><ele>10.142857142857142</ele><time>2026-05-03T08:22:13.971Z</time></trkpt><trkpt lat="44.2487319" lon="8.4460135"><ele>10.857142857142858</ele><time>2026-05-03T08:22:14.971Z</time></trkpt><trkpt lat="44.2486688" lon="8.4459628"><ele>11.571428571428573</ele><time>2026-05-03T08:22:15.971Z</time></trkpt><trkpt lat="44.2486097" lon="8.4459175"><ele>12.285714285714285</ele><time>2026-05-03T08:22:16.97Z</time></trkpt><trkpt lat="44.2485502" lon="8.4458692"><ele>13.0</ele><time>2026-05-03T08:22:17.97Z</time></trkpt><trkpt lat="44.248488" lon="8.4458209"><ele>12.999999999999998</ele><time>2026-05-03T08:22:18.971Z</time></trkpt><trkpt lat="44.2484211" lon="8.4457721"><ele>13.0</ele><time>2026-05-03T08:22:19.971Z</time></trkpt><trkpt lat="44.2483478" lon="8.4457207"><ele>13.0</ele><time>2026-05-03T08:22:20.97Z</time></trkpt><trkpt lat="44.2482734" lon="8.445666"><ele>13.0</ele><time>2026-05-03T08:22:21.97Z</time></trkpt><trkpt lat="44.2482008" lon="8.4456153"><ele>12.999999999999998</ele><time>2026-05-03T08:22:22.972Z</time></trkpt><trkpt lat="44.248128" lon="8.4455673"><ele>13.0</ele><time>2026-05-03T08:22:23.972Z</time></trkpt><trkpt lat="44.2480573" lon="8.445532"><ele>11.857142857142856</ele><time>2026-05-03T08:22:24.972Z</time></trkpt><trkpt lat="44.2479897" lon="8.4455033"><ele>10.714285714285715</ele><time>2026-05-03T08:22:25.971Z</time></trkpt><trkpt lat="44.2479245" lon="8.445479"><ele>9.571428571428571</ele><time>2026-05-03T08:22:26.972Z</time></trkpt><trkpt lat="44.2478589" lon="8.445458"><ele>8.428571428571429</ele><time>2026-05-03T08:22:27.972Z</time></trkpt><trkpt lat="44.247792" lon="8.4454341"><ele>7.2857142857142865</ele><time>2026-05-03T08:22:28.972Z</time></trkpt><trkpt lat="44.247725" lon="8.4454084"><ele>6.142857142857142</ele><time>2026-05-03T08:22:29.971Z</time></trkpt><trkpt lat="44.2476578" lon="8.4453793"><ele>5.0</ele><time>2026-05-03T08:22:30.972Z</time></trkpt><trkpt lat="44.2475932" lon="8.4453532"><ele>6.333333333333334</ele><time>2026-05-03T08:22:31.971Z</time></trkpt><trkpt lat="44.2475242" lon="8.4453279"><ele>7.666666666666666</ele><time>2026-05-03T08:22:32.972Z</time></trkpt><trkpt lat="44.247447" lon="8.445302"><ele>9.0</ele><time>2026-05-03T08:22:33.972Z</time></trkpt><trkpt lat="44.2473627" lon="8.4452694"><ele>10.333333333333332</ele><time>2026-05-03T08:22:34.971Z</time></trkpt><trkpt lat="44.2472769" lon="8.445231"><ele>11.666666666666666</ele><time>2026-05-03T08:22:35.972Z</time></trkpt><trkpt lat="44.2471924" lon="8.4451919"><ele>13.0</ele><time>2026-05-03T08:22:36.972Z</time></trkpt><trkpt lat="44.2471049" lon="8.4451584"><ele>12.999999999999998</ele><time>2026-05-03T08:22:37.971Z</time></trkpt><trkpt lat="44.2470142" lon="8.4451318"><ele>13.0</ele><time>2026-05-03T08:22:38.971Z</time></trkpt><trkpt lat="44.246925" lon="8.4450987"><ele>13.0</ele><time>2026-05-03T08:22:39.971Z</time></trkpt><trkpt lat="44.2468394" lon="8.4450678"><ele>13.0</ele><time>2026-05-03T08:22:40.972Z</time></trkpt><trkpt lat="44.2467559" lon="8.4450275"><ele>12.999999999999998</ele><time>2026-05-03T08:22:41.971Z</time></trkpt><trkpt lat="44.246675" lon="8.4449834"><ele>13.0</ele><time>2026-05-03T08:22:42.972Z</time></trkpt><trkpt lat="44.2465919" lon="8.4449297"><ele>12.999999999999998</ele><time>2026-05-03T08:22:43.972Z</time></trkpt><trkpt lat="44.2465135" lon="8.4448631"><ele>13.0</ele><time>2026-05-03T08:22:44.972Z</time></trkpt><trkpt lat="44.2464521" lon="8.4448031"><ele>13.0</ele><time>2026-05-03T08:22:45.972Z</time></trkpt><trkpt lat="44.2463939" lon="8.4447399"><ele>13.0</ele><time>2026-05-03T08:22:46.971Z</time></trkpt><trkpt lat="44.2463331" lon="8.4446721"><ele>12.999999999999998</ele><time>2026-05-03T08:22:47.972Z</time></trkpt><trkpt lat="44.2462664" lon="8.4445928"><ele>13.0</ele><time>2026-05-03T08:22:48.972Z</time></trkpt><trkpt lat="44.2461974" lon="8.4445067"><ele>13.499999999999998</ele><time>2026-05-03T08:22:49.971Z</time></trkpt><trkpt lat="44.2461298" lon="8.444426"><ele>14.0</ele><time>2026-05-03T08:22:50.971Z</time></trkpt><trkpt lat="44.2460593" lon="8.4443519"><ele>14.5</ele><time>2026-05-03T08:22:51.972Z</time></trkpt><trkpt lat="44.2459857" lon="8.4442848"><ele>15.0</ele><time>2026-05-03T08:22:52.972Z</time></trkpt><trkpt lat="44.2459059" lon="8.4442296"><ele>15.499999999999998</ele><time>2026-05-03T08:22:53.972Z</time></trkpt><trkpt lat="44.2458257" lon="8.4441915"><ele>16.0</ele><time>2026-05-03T08:22:54.971Z</time></trkpt><trkpt lat="44.245749" lon="8.4441692"><ele>15.999999999999998</ele><time>2026-05-03T08:22:55.972Z</time></trkpt><trkpt lat="44.245684" lon="8.4441498"><ele>16.0</ele><time>2026-05-03T08:22:56.972Z</time></trkpt><trkpt lat="44.2455698" lon="8.4441081"><ele>16.0</ele><time>2026-05-03T08:22:58.972Z</time></trkpt><trkpt lat="44.2455095" lon="8.4440768"><ele>16.0</ele><time>2026-05-03T08:22:59.972Z</time></trkpt><trkpt lat="44.2453929" lon="8.4440112"><ele>15.999999999999998</ele><time>2026-05-03T08:23:01.971Z</time></trkpt><trkpt lat="44.2453341" lon="8.4439757"><ele>16.0</ele><time>2026-05-03T08:23:02.972Z</time></trkpt><trkpt lat="44.2452658" lon="8.4439378"><ele>14.200000000000001</ele><time>2026-05-03T08:23:03.972Z</time></trkpt><trkpt lat="44.2451907" lon="8.4438843"><ele>12.400000000000002</ele><time>2026-05-03T08:23:04.971Z</time></trkpt><trkpt lat="44.2451117" lon="8.443816"><ele>10.6</ele><time>2026-05-03T08:23:05.972Z</time></trkpt><trkpt lat="44.2450197" lon="8.443749"><ele>8.8</ele><time>2026-05-03T08:23:06.972Z</time></trkpt><trkpt lat="44.2449163" lon="8.4436853"><ele>7.0</ele><time>2026-05-03T08:23:07.972Z</time></trkpt><trkpt lat="44.2448076" lon="8.4436181"><ele>12.75</ele><time>2026-05-03T08:23:08.972Z</time></trkpt><trkpt lat="44.2446882" lon="8.4435503"><ele>18.5</ele><time>2026-05-03T08:23:09.971Z</time></trkpt><trkpt lat="44.2445632" lon="8.4434897"><ele>24.25</ele><time>2026-05-03T08:23:10.972Z</time></trkpt><trkpt lat="44.2444348" lon="8.4434447"><ele>30.0</ele><time>2026-05-03T08:23:11.972Z</time></trkpt><trkpt lat="44.2443038" lon="8.4434261"><ele>30.0</ele><time>2026-05-03T08:23:12.972Z</time></trkpt><trkpt lat="44.2441715" lon="8.4434424"><ele>30.0</ele><time>2026-05-03T08:23:13.972Z</time></trkpt><trkpt lat="44.2440362" lon="8.4434954"><ele>30.0</ele><time>2026-05-03T08:23:14.972Z</time></trkpt><trkpt lat="44.2439184" lon="8.4435804"><ele>30.0</ele><time>2026-05-03T08:23:15.972Z</time></trkpt><trkpt lat="44.2438045" lon="8.4436958"><ele>27.25</ele><time>2026-05-03T08:23:16.972Z</time></trkpt><trkpt lat="44.2437034" lon="8.4438384"><ele>24.5</ele><time>2026-05-03T08:23:17.972Z</time></trkpt><trkpt lat="44.2436113" lon="8.4439858"><ele>21.75</ele><time>2026-05-03T08:23:18.972Z</time></trkpt><trkpt lat="44.2435115" lon="8.4441216"><ele>19.0</ele><time>2026-05-03T08:23:19.972Z</time></trkpt><trkpt lat="44.2433975" lon="8.4442615"><ele>19.0</ele><time>2026-05-03T08:23:20.972Z</time></trkpt><trkpt lat="44.2432729" lon="8.4443931"><ele>19.0</ele><time>2026-05-03T08:23:21.972Z</time></trkpt><trkpt lat="44.2431464" lon="8.4444947"><ele>19.0</ele><time>2026-05-03T08:23:22.972Z</time></trkpt><trkpt lat="44.2430222" lon="8.444564"><ele>19.0</ele><time>2026-05-03T08:23:23.972Z</time></trkpt><trkpt lat="44.2429011" lon="8.4446193"><ele>18.5</ele><time>2026-05-03T08:23:24.972Z</time></trkpt><trkpt lat="44.2427806" lon="8.4446723"><ele>18.0</ele><time>2026-05-03T08:23:25.972Z</time></trkpt><trkpt lat="44.2426611" lon="8.4447277"><ele>17.5</ele><time>2026-05-03T08:23:26.972Z</time></trkpt><trkpt lat="44.24254" lon="8.444785"><ele>17.0</ele><time>2026-05-03T08:23:27.972Z</time></trkpt><trkpt lat="44.2424162" lon="8.4448429"><ele>17.75</ele><time>2026-05-03T08:23:28.972Z</time></trkpt><trkpt lat="44.2422867" lon="8.444897"><ele>18.5</ele><time>2026-05-03T08:23:29.973Z</time></trkpt><trkpt lat="44.2421511" lon="8.4449408"><ele>19.25</ele><time>2026-05-03T08:23:30.973Z</time></trkpt><trkpt lat="44.2420146" lon="8.444956"><ele>20.0</ele><time>2026-05-03T08:23:31.973Z</time></trkpt><trkpt lat="44.2418899" lon="8.4449262"><ele>20.0</ele><time>2026-05-03T08:23:32.973Z</time></trkpt><trkpt lat="44.2417811" lon="8.4448633"><ele>20.0</ele><time>2026-05-03T08:23:33.973Z</time></trkpt><trkpt lat="44.2416836" lon="8.4447779"><ele>20.0</ele><time>2026-05-03T08:23:34.973Z</time></trkpt><trkpt lat="44.2415862" lon="8.444672"><ele>20.0</ele><time>2026-05-03T08:23:35.973Z</time></trkpt><trkpt lat="44.2414834" lon="8.4445478"><ele>23.5</ele><time>2026-05-03T08:23:36.973Z</time></trkpt><trkpt lat="44.2413811" lon="8.4444337"><ele>27.0</ele><time>2026-05-03T08:23:37.972Z</time></trkpt><trkpt lat="44.2412668" lon="8.4443483"><ele>30.5</ele><time>2026-05-03T08:23:38.973Z</time></trkpt><trkpt lat="44.2411389" lon="8.444302"><ele>34.0</ele><time>2026-05-03T08:23:39.973Z</time></trkpt><trkpt lat="44.2410071" lon="8.4442707"><ele>34.0</ele><time>2026-05-03T08:23:40.972Z</time></trkpt><trkpt lat="44.2408782" lon="8.4442394"><ele>34.0</ele><time>2026-05-03T08:23:41.973Z</time></trkpt><trkpt lat="44.2407563" lon="8.4441986"><ele>34.0</ele><time>2026-05-03T08:23:42.973Z</time></trkpt><trkpt lat="44.2406393" lon="8.4441494"><ele>34.0</ele><time>2026-05-03T08:23:43.973Z</time></trkpt><trkpt lat="44.2405264" lon="8.4440801"><ele>37.5</ele><time>2026-05-03T08:23:44.973Z</time></trkpt><trkpt lat="44.2404299" lon="8.4439757"><ele>41.0</ele><time>2026-05-03T08:23:45.973Z</time></trkpt><trkpt lat="44.2403387" lon="8.4438517"><ele>44.5</ele><time>2026-05-03T08:23:46.973Z</time></trkpt><trkpt lat="44.2402503" lon="8.4437089"><ele>48.0</ele><time>2026-05-03T08:23:47.973Z</time></trkpt><trkpt lat="44.2401652" lon="8.4435667"><ele>48.0</ele><time>2026-05-03T08:23:48.972Z</time></trkpt><trkpt lat="44.2400811" lon="8.4434085"><ele>48.0</ele><time>2026-05-03T08:23:49.973Z</time></trkpt><trkpt lat="44.2399993" lon="8.4432552"><ele>48.0</ele><time>2026-05-03T08:23:50.973Z</time></trkpt><trkpt lat="44.2399218" lon="8.4431071"><ele>48.0</ele><time>2026-05-03T08:23:51.973Z</time></trkpt><trkpt lat="44.2398468" lon="8.4429747"><ele>50.5</ele><time>2026-05-03T08:23:52.972Z</time></trkpt><trkpt lat="44.2397661" lon="8.4428663"><ele>53.0</ele><time>2026-05-03T08:23:53.972Z</time></trkpt><trkpt lat="44.2396666" lon="8.4427711"><ele>55.5</ele><time>2026-05-03T08:23:54.973Z</time></trkpt><trkpt lat="44.239562" lon="8.4426747"><ele>58.0</ele><time>2026-05-03T08:23:55.973Z</time></trkpt><trkpt lat="44.2394497" lon="8.4425819"><ele>58.0</ele><time>2026-05-03T08:23:56.973Z</time></trkpt><trkpt lat="44.239337" lon="8.4424885"><ele>58.0</ele><time>2026-05-03T08:23:57.973Z</time></trkpt><trkpt lat="44.2392311" lon="8.4424025"><ele>58.0</ele><time>2026-05-03T08:23:58.972Z</time></trkpt><trkpt lat="44.2391347" lon="8.4423278"><ele>58.0</ele><time>2026-05-03T08:23:59.973Z</time></trkpt><trkpt lat="44.2390341" lon="8.4422692"><ele>55.0</ele><time>2026-05-03T08:24:00.972Z</time></trkpt><trkpt lat="44.2389193" lon="8.4422336"><ele>52.0</ele><time>2026-05-03T08:24:01.973Z</time></trkpt><trkpt lat="44.2387989" lon="8.4422282"><ele>49.0</ele><time>2026-05-03T08:24:02.972Z</time></trkpt><trkpt lat="44.2386833" lon="8.4422735"><ele>46.0</ele><time>2026-05-03T08:24:03.972Z</time></trkpt><trkpt lat="44.2385774" lon="8.4423387"><ele>46.0</ele><time>2026-05-03T08:24:04.973Z</time></trkpt><trkpt lat="44.2384705" lon="8.4424268"><ele>46.0</ele><time>2026-05-03T08:24:05.972Z</time></trkpt><trkpt lat="44.238363" lon="8.4425093"><ele>46.0</ele><time>2026-05-03T08:24:06.973Z</time></trkpt><trkpt lat="44.2382571" lon="8.4425762"><ele>46.0</ele><time>2026-05-03T08:24:07.973Z</time></trkpt><trkpt lat="44.2381448" lon="8.4426235"><ele>39.4</ele><time>2026-05-03T08:24:08.973Z</time></trkpt><trkpt lat="44.2380302" lon="8.4426581"><ele>32.8</ele><time>2026-05-03T08:24:09.973Z</time></trkpt><trkpt lat="44.2379266" lon="8.4426485"><ele>26.2</ele><time>2026-05-03T08:24:10.973Z</time></trkpt><trkpt lat="44.2378266" lon="8.4425938"><ele>19.6</ele><time>2026-05-03T08:24:11.973Z</time></trkpt><trkpt lat="44.2377278" lon="8.4425341"><ele>13.0</ele><time>2026-05-03T08:24:12.973Z</time></trkpt><trkpt lat="44.2376282" lon="8.4424696"><ele>13.0</ele><time>2026-05-03T08:24:13.972Z</time></trkpt><trkpt lat="44.2375392" lon="8.4424032"><ele>13.0</ele><time>2026-05-03T08:24:14.972Z</time></trkpt><trkpt lat="44.2374547" lon="8.4423132"><ele>13.0</ele><time>2026-05-03T08:24:15.973Z</time></trkpt><trkpt lat="44.2373856" lon="8.4421949"><ele>13.0</ele><time>2026-05-03T08:24:16.973Z</time></trkpt><trkpt lat="44.2373252" lon="8.4420522"><ele>13.0</ele><time>2026-05-03T08:24:17.972Z</time></trkpt><trkpt lat="44.2372822" lon="8.441898"><ele>11.5</ele><time>2026-05-03T08:24:18.972Z</time></trkpt><trkpt lat="44.2372545" lon="8.4417213"><ele>10.0</ele><time>2026-05-03T08:24:19.973Z</time></trkpt><trkpt lat="44.2372344" lon="8.4415238"><ele>8.5</ele><time>2026-05-03T08:24:20.973Z</time></trkpt><trkpt lat="44.2372235" lon="8.4413074"><ele>7.0</ele><time>2026-05-03T08:24:21.973Z</time></trkpt><trkpt lat="44.2372372" lon="8.4410752"><ele>6.666666666666667</ele><time>2026-05-03T08:24:22.972Z</time></trkpt><trkpt lat="44.237262" lon="8.4408544"><ele>6.333333333333334</ele><time>2026-05-03T08:24:23.973Z</time></trkpt><trkpt lat="44.2372871" lon="8.4406458"><ele>6.0</ele><time>2026-05-03T08:24:24.973Z</time></trkpt><trkpt lat="44.2373138" lon="8.440441"><ele>10.75</ele><time>2026-05-03T08:24:25.973Z</time></trkpt><trkpt lat="44.237332" lon="8.4402469"><ele>15.5</ele><time>2026-05-03T08:24:26.973Z</time></trkpt><trkpt lat="44.2373493" lon="8.4400667"><ele>20.25</ele><time>2026-05-03T08:24:27.973Z</time></trkpt><trkpt lat="44.2373857" lon="8.4398982"><ele>25.0</ele><time>2026-05-03T08:24:28.973Z</time></trkpt><trkpt lat="44.237437" lon="8.4397512"><ele>21.5</ele><time>2026-05-03T08:24:29.973Z</time></trkpt><trkpt lat="44.2374999" lon="8.4396127"><ele>18.0</ele><time>2026-05-03T08:24:30.973Z</time></trkpt><trkpt lat="44.2375712" lon="8.4394796"><ele>14.5</ele><time>2026-05-03T08:24:31.973Z</time></trkpt><trkpt lat="44.2376525" lon="8.4393538"><ele>11.0</ele><time>2026-05-03T08:24:32.973Z</time></trkpt><trkpt lat="44.2377393" lon="8.4392453"><ele>11.0</ele><time>2026-05-03T08:24:33.972Z</time></trkpt><trkpt lat="44.237824" lon="8.4391511"><ele>11.0</ele><time>2026-05-03T08:24:34.973Z</time></trkpt><trkpt lat="44.2379059" lon="8.4390541"><ele>11.0</ele><time>2026-05-03T08:24:35.973Z</time></trkpt><trkpt lat="44.2379858" lon="8.4389483"><ele>11.0</ele><time>2026-05-03T08:24:36.973Z</time></trkpt><trkpt lat="44.2380616" lon="8.4388332"><ele>11.0</ele><time>2026-05-03T08:24:37.973Z</time></trkpt><trkpt lat="44.2381242" lon="8.4387077"><ele>9.600000000000001</ele><time>2026-05-03T08:24:38.974Z</time></trkpt><trkpt lat="44.2381583" lon="8.4385735"><ele>8.200000000000001</ele><time>2026-05-03T08:24:39.973Z</time></trkpt><trkpt lat="44.2381705" lon="8.4384329"><ele>6.800000000000001</ele><time>2026-05-03T08:24:40.974Z</time></trkpt><trkpt lat="44.238169" lon="8.4383004"><ele>5.4</ele><time>2026-05-03T08:24:41.974Z</time></trkpt><trkpt lat="44.2381555" lon="8.4381595"><ele>4.0</ele><time>2026-05-03T08:24:42.974Z</time></trkpt><trkpt lat="44.2381322" lon="8.4380176"><ele>4.0</ele><time>2026-05-03T08:24:43.973Z</time></trkpt><trkpt lat="44.2380937" lon="8.4378605"><ele>4.0</ele><time>2026-05-03T08:24:44.973Z</time></trkpt><trkpt lat="44.2380339" lon="8.4377133"><ele>4.0</ele><time>2026-05-03T08:24:45.974Z</time></trkpt><trkpt lat="44.2379637" lon="8.4375735"><ele>4.0</ele><time>2026-05-03T08:24:46.974Z</time></trkpt><trkpt lat="44.2378962" lon="8.4374281"><ele>4.0</ele><time>2026-05-03T08:24:47.973Z</time></trkpt><trkpt lat="44.237835" lon="8.4372741"><ele>4.0</ele><time>2026-05-03T08:24:48.974Z</time></trkpt><trkpt lat="44.2377735" lon="8.4371122"><ele>4.0</ele><time>2026-05-03T08:24:49.974Z</time></trkpt><trkpt lat="44.237708" lon="8.4369496"><ele>4.0</ele><time>2026-05-03T08:24:50.974Z</time></trkpt><trkpt lat="44.2376408" lon="8.436792"><ele>4.5</ele><time>2026-05-03T08:24:51.973Z</time></trkpt><trkpt lat="44.2375772" lon="8.4366396"><ele>5.0</ele><time>2026-05-03T08:24:52.974Z</time></trkpt><trkpt lat="44.2375174" lon="8.4364926"><ele>5.5</ele><time>2026-05-03T08:24:53.973Z</time></trkpt><trkpt lat="44.237459" lon="8.4363504"><ele>6.0</ele><time>2026-05-03T08:24:54.974Z</time></trkpt><trkpt lat="44.2374004" lon="8.4362078"><ele>6.0</ele><time>2026-05-03T08:24:55.974Z</time></trkpt><trkpt lat="44.2373383" lon="8.4360634"><ele>6.0</ele><time>2026-05-03T08:24:56.973Z</time></trkpt><trkpt lat="44.2372757" lon="8.4359123"><ele>6.0</ele><time>2026-05-03T08:24:57.973Z</time></trkpt><trkpt lat="44.2372147" lon="8.4357551"><ele>6.0</ele><time>2026-05-03T08:24:58.974Z</time></trkpt><trkpt lat="44.2371546" lon="8.4355996"><ele>5.5</ele><time>2026-05-03T08:24:59.974Z</time></trkpt><trkpt lat="44.2370948" lon="8.4354472"><ele>5.0</ele><time>2026-05-03T08:25:00.973Z</time></trkpt><trkpt lat="44.2370365" lon="8.4352963"><ele>4.5</ele><time>2026-05-03T08:25:01.973Z</time></trkpt><trkpt lat="44.2369764" lon="8.4351422"><ele>4.0</ele><time>2026-05-03T08:25:02.973Z</time></trkpt><trkpt lat="44.2369118" lon="8.4349854"><ele>4.0</ele><time>2026-05-03T08:25:03.974Z</time></trkpt><trkpt lat="44.2368456" lon="8.4348265"><ele>4.0</ele><time>2026-05-03T08:25:04.973Z</time></trkpt><trkpt lat="44.2367815" lon="8.4346665"><ele>4.0</ele><time>2026-05-03T08:25:05.973Z</time></trkpt><trkpt lat="44.2367205" lon="8.4345084"><ele>4.0</ele><time>2026-05-03T08:25:06.974Z</time></trkpt><trkpt lat="44.2366597" lon="8.4343517"><ele>4.0</ele><time>2026-05-03T08:25:07.973Z</time></trkpt><trkpt lat="44.2365962" lon="8.4341973"><ele>4.0</ele><time>2026-05-03T08:25:08.973Z</time></trkpt><trkpt lat="44.2365314" lon="8.4340431"><ele>4.0</ele><time>2026-05-03T08:25:09.973Z</time></trkpt><trkpt lat="44.2364677" lon="8.4338906"><ele>4.0</ele><time>2026-05-03T08:25:10.974Z</time></trkpt><trkpt lat="44.2364056" lon="8.4337335"><ele>4.0</ele><time>2026-05-03T08:25:11.973Z</time></trkpt><trkpt lat="44.2363424" lon="8.4335797"><ele>4.0</ele><time>2026-05-03T08:25:12.974Z</time></trkpt><trkpt lat="44.2362781" lon="8.4334215"><ele>4.0</ele><time>2026-05-03T08:25:13.974Z</time></trkpt><trkpt lat="44.23621" lon="8.4332621"><ele>4.0</ele><time>2026-05-03T08:25:14.973Z</time></trkpt><trkpt lat="44.236142" lon="8.4331057"><ele>5.25</ele><time>2026-05-03T08:25:15.974Z</time></trkpt><trkpt lat="44.2360771" lon="8.4329602"><ele>6.5</ele><time>2026-05-03T08:25:16.973Z</time></trkpt><trkpt lat="44.2360126" lon="8.4328167"><ele>7.75</ele><time>2026-05-03T08:25:17.974Z</time></trkpt><trkpt lat="44.2359478" lon="8.4326726"><ele>9.0</ele><time>2026-05-03T08:25:18.974Z</time></trkpt><trkpt lat="44.2358816" lon="8.4325219"><ele>9.0</ele><time>2026-05-03T08:25:19.973Z</time></trkpt><trkpt lat="44.2358125" lon="8.4323665"><ele>9.0</ele><time>2026-05-03T08:25:20.973Z</time></trkpt><trkpt lat="44.2357384" lon="8.4322098"><ele>9.0</ele><time>2026-05-03T08:25:21.974Z</time></trkpt><trkpt lat="44.2356638" lon="8.4320498"><ele>9.0</ele><time>2026-05-03T08:25:22.974Z</time></trkpt><trkpt lat="44.2355913" lon="8.4318872"><ele>7.75</ele><time>2026-05-03T08:25:23.974Z</time></trkpt><trkpt lat="44.2355185" lon="8.43172"><ele>6.5</ele><time>2026-05-03T08:25:24.973Z</time></trkpt><trkpt lat="44.23544" lon="8.4315513"><ele>5.25</ele><time>2026-05-03T08:25:25.974Z</time></trkpt><trkpt lat="44.2353578" lon="8.431382"><ele>4.0</ele><time>2026-05-03T08:25:26.974Z</time></trkpt><trkpt lat="44.2352764" lon="8.4312151"><ele>4.0</ele><time>2026-05-03T08:25:27.974Z</time></trkpt><trkpt lat="44.2351957" lon="8.4310517"><ele>4.0</ele><time>2026-05-03T08:25:28.973Z</time></trkpt><trkpt lat="44.2351149" lon="8.4308914"><ele>4.0</ele><time>2026-05-03T08:25:29.974Z</time></trkpt><trkpt lat="44.235033" lon="8.4307328"><ele>4.0</ele><time>2026-05-03T08:25:30.973Z</time></trkpt><trkpt lat="44.2349512" lon="8.4305755"><ele>3.5</ele><time>2026-05-03T08:25:31.974Z</time></trkpt><trkpt lat="44.2348709" lon="8.4304195"><ele>3.0</ele><time>2026-05-03T08:25:32.973Z</time></trkpt><trkpt lat="44.2347923" lon="8.4302634"><ele>2.5</ele><time>2026-05-03T08:25:33.974Z</time></trkpt><trkpt lat="44.2347137" lon="8.4301053"><ele>2.0</ele><time>2026-05-03T08:25:34.973Z</time></trkpt><trkpt lat="44.2346325" lon="8.4299453"><ele>2.0</ele><time>2026-05-03T08:25:35.974Z</time></trkpt><trkpt lat="44.2345484" lon="8.4297849"><ele>2.0</ele><time>2026-05-03T08:25:36.974Z</time></trkpt><trkpt lat="44.2344647" lon="8.4296318"><ele>2.0</ele><time>2026-05-03T08:25:37.974Z</time></trkpt><trkpt lat="44.2343838" lon="8.4294863"><ele>2.0</ele><time>2026-05-03T08:25:38.973Z</time></trkpt><trkpt lat="44.2343033" lon="8.4293402"><ele>2.5</ele><time>2026-05-03T08:25:39.973Z</time></trkpt><trkpt lat="44.2342212" lon="8.4291875"><ele>3.0</ele><time>2026-05-03T08:25:40.974Z</time></trkpt><trkpt lat="44.2341373" lon="8.4290309"><ele>3.5</ele><time>2026-05-03T08:25:41.974Z</time></trkpt><trkpt lat="44.2340511" lon="8.4288759"><ele>4.0</ele><time>2026-05-03T08:25:42.974Z</time></trkpt><trkpt lat="44.2339648" lon="8.4287234"><ele>4.25</ele><time>2026-05-03T08:25:43.974Z</time></trkpt><trkpt lat="44.2338799" lon="8.4285731"><ele>4.5</ele><time>2026-05-03T08:25:44.974Z</time></trkpt><trkpt lat="44.2337936" lon="8.4284278"><ele>4.75</ele><time>2026-05-03T08:25:45.975Z</time></trkpt><trkpt lat="44.2337063" lon="8.4282896"><ele>5.0</ele><time>2026-05-03T08:25:46.974Z</time></trkpt><trkpt lat="44.2336165" lon="8.4281613"><ele>5.0</ele><time>2026-05-03T08:25:47.974Z</time></trkpt><trkpt lat="44.2335148" lon="8.4280476"><ele>5.0</ele><time>2026-05-03T08:25:48.974Z</time></trkpt><trkpt lat="44.2334003" lon="8.427952"><ele>5.0</ele><time>2026-05-03T08:25:49.974Z</time></trkpt><trkpt lat="44.2332757" lon="8.4278882"><ele>5.0</ele><time>2026-05-03T08:25:50.974Z</time></trkpt><trkpt lat="44.2331459" lon="8.4278436"><ele>6.0</ele><time>2026-05-03T08:25:51.975Z</time></trkpt><trkpt lat="44.2330165" lon="8.4278013"><ele>7.0</ele><time>2026-05-03T08:25:52.974Z</time></trkpt><trkpt lat="44.2329001" lon="8.427752"><ele>8.0</ele><time>2026-05-03T08:25:53.975Z</time></trkpt><trkpt lat="44.2327962" lon="8.4277019"><ele>9.0</ele><time>2026-05-03T08:25:54.974Z</time></trkpt><trkpt lat="44.2327049" lon="8.4276503"><ele>9.0</ele><time>2026-05-03T08:25:55.975Z</time></trkpt><trkpt lat="44.2326183" lon="8.4275651"><ele>9.0</ele><time>2026-05-03T08:25:56.974Z</time></trkpt><trkpt lat="44.2325346" lon="8.4274546"><ele>9.0</ele><time>2026-05-03T08:25:57.975Z</time></trkpt><trkpt lat="44.2324692" lon="8.4273096"><ele>9.0</ele><time>2026-05-03T08:25:58.975Z</time></trkpt><trkpt lat="44.232415" lon="8.4271516"><ele>10.75</ele><time>2026-05-03T08:25:59.975Z</time></trkpt><trkpt lat="44.2323684" lon="8.426987"><ele>12.5</ele><time>2026-05-03T08:26:00.975Z</time></trkpt><trkpt lat="44.232321" lon="8.4268248"><ele>14.25</ele><time>2026-05-03T08:26:01.975Z</time></trkpt><trkpt lat="44.2322747" lon="8.4266733"><ele>16.0</ele><time>2026-05-03T08:26:02.975Z</time></trkpt><trkpt lat="44.2322271" lon="8.4265336"><ele>14.5</ele><time>2026-05-03T08:26:03.974Z</time></trkpt><trkpt lat="44.2321776" lon="8.426396"><ele>13.0</ele><time>2026-05-03T08:26:04.975Z</time></trkpt><trkpt lat="44.2321204" lon="8.426256"><ele>11.5</ele><time>2026-05-03T08:26:05.975Z</time></trkpt><trkpt lat="44.2320544" lon="8.4261164"><ele>10.0</ele><time>2026-05-03T08:26:06.975Z</time></trkpt><trkpt lat="44.2319863" lon="8.4259779"><ele>10.0</ele><time>2026-05-03T08:26:07.974Z</time></trkpt><trkpt lat="44.231918" lon="8.4258439"><ele>10.0</ele><time>2026-05-03T08:26:08.975Z</time></trkpt><trkpt lat="44.2318504" lon="8.42572"><ele>10.0</ele><time>2026-05-03T08:26:09.975Z</time></trkpt><trkpt lat="44.2317868" lon="8.4256002"><ele>10.0</ele><time>2026-05-03T08:26:10.975Z</time></trkpt><trkpt lat="44.2317219" lon="8.425487"><ele>10.0</ele><time>2026-05-03T08:26:11.974Z</time></trkpt><trkpt lat="44.2316537" lon="8.425366"><ele>10.5</ele><time>2026-05-03T08:26:12.975Z</time></trkpt><trkpt lat="44.2315796" lon="8.425238"><ele>11.0</ele><time>2026-05-03T08:26:13.974Z</time></trkpt><trkpt lat="44.2315036" lon="8.4250921"><ele>11.5</ele><time>2026-05-03T08:26:14.975Z</time></trkpt><trkpt lat="44.2314208" lon="8.4249419"><ele>12.0</ele><time>2026-05-03T08:26:15.974Z</time></trkpt><trkpt lat="44.2313362" lon="8.4247967"><ele>12.0</ele><time>2026-05-03T08:26:16.974Z</time></trkpt><trkpt lat="44.2312552" lon="8.4246559"><ele>12.0</ele><time>2026-05-03T08:26:17.974Z</time></trkpt><trkpt lat="44.2311793" lon="8.4245246"><ele>12.0</ele><time>2026-05-03T08:26:18.975Z</time></trkpt><trkpt lat="44.231107" lon="8.4244036"><ele>12.0</ele><time>2026-05-03T08:26:19.974Z</time></trkpt><trkpt lat="44.2310333" lon="8.4242861"><ele>12.333333333333334</ele><time>2026-05-03T08:26:20.975Z</time></trkpt><trkpt lat="44.2309605" lon="8.4241764"><ele>12.666666666666668</ele><time>2026-05-03T08:26:21.975Z</time></trkpt><trkpt lat="44.2308938" lon="8.4240747"><ele>13.0</ele><time>2026-05-03T08:26:22.975Z</time></trkpt><trkpt lat="44.2308327" lon="8.4239825"><ele>13.333333333333334</ele><time>2026-05-03T08:26:23.974Z</time></trkpt><trkpt lat="44.2307786" lon="8.4239019"><ele>13.666666666666668</ele><time>2026-05-03T08:26:24.974Z</time></trkpt><trkpt lat="44.2307305" lon="8.4238295"><ele>14.0</ele><time>2026-05-03T08:26:25.974Z</time></trkpt><trkpt lat="44.2306878" lon="8.4237636"><ele>12.2</ele><time>2026-05-03T08:26:26.975Z</time></trkpt><trkpt lat="44.2306201" lon="8.4236494"><ele>10.399999999999999</ele><time>2026-05-03T08:26:28.975Z</time></trkpt><trkpt lat="44.2305959" lon="8.4235222"><ele>8.6</ele><time>2026-05-03T08:26:30.975Z</time></trkpt><trkpt lat="44.2306202" lon="8.4233659"><ele>6.8</ele><time>2026-05-03T08:26:32.974Z</time></trkpt><trkpt lat="44.230596" lon="8.4232752"><ele>5.0</ele><time>2026-05-03T08:26:33.975Z</time></trkpt><trkpt lat="44.2305542" lon="8.423171"><ele>5.0</ele><time>2026-05-03T08:26:34.975Z</time></trkpt><trkpt lat="44.2304849" lon="8.4230743"><ele>5.0</ele><time>2026-05-03T08:26:35.974Z</time></trkpt><trkpt lat="44.2304213" lon="8.4229778"><ele>5.0</ele><time>2026-05-03T08:26:36.974Z</time></trkpt><trkpt lat="44.2303709" lon="8.4228926"><ele>5.0</ele><time>2026-05-03T08:26:37.974Z</time></trkpt><trkpt lat="44.2303219" lon="8.4228072"><ele>5.0</ele><time>2026-05-03T08:26:38.974Z</time></trkpt><trkpt lat="44.2302582" lon="8.4227302"><ele>5.0</ele><time>2026-05-03T08:26:39.975Z</time></trkpt><trkpt lat="44.2301986" lon="8.422643"><ele>6.4</ele><time>2026-05-03T08:26:40.974Z</time></trkpt><trkpt lat="44.2301435" lon="8.4225392"><ele>7.8</ele><time>2026-05-03T08:26:41.975Z</time></trkpt><trkpt lat="44.2300846" lon="8.4224219"><ele>9.2</ele><time>2026-05-03T08:26:42.975Z</time></trkpt><trkpt lat="44.2300321" lon="8.4223045"><ele>10.6</ele><time>2026-05-03T08:26:43.974Z</time></trkpt><trkpt lat="44.2299827" lon="8.4221982"><ele>12.0</ele><time>2026-05-03T08:26:44.976Z</time></trkpt><trkpt lat="44.2299299" lon="8.4220943"><ele>11.8</ele><time>2026-05-03T08:26:45.976Z</time></trkpt><trkpt lat="44.2298799" lon="8.4219879"><ele>11.6</ele><time>2026-05-03T08:26:46.974Z</time></trkpt><trkpt lat="44.2298202" lon="8.421885"><ele>11.4</ele><time>2026-05-03T08:26:47.974Z</time></trkpt><trkpt lat="44.2297795" lon="8.4217721"><ele>11.200000000000001</ele><time>2026-05-03T08:26:48.974Z</time></trkpt><trkpt lat="44.2297375" lon="8.4216667"><ele>11.0</ele><time>2026-05-03T08:26:49.975Z</time></trkpt><trkpt lat="44.2296947" lon="8.4215611"><ele>11.0</ele><time>2026-05-03T08:26:50.974Z</time></trkpt><trkpt lat="44.2296446" lon="8.4214546"><ele>11.0</ele><time>2026-05-03T08:26:51.975Z</time></trkpt><trkpt lat="44.2295899" lon="8.4213358"><ele>11.0</ele><time>2026-05-03T08:26:52.976Z</time></trkpt><trkpt lat="44.2295306" lon="8.4212181"><ele>11.0</ele><time>2026-05-03T08:26:53.976Z</time></trkpt><trkpt lat="44.2294687" lon="8.4211009"><ele>11.0</ele><time>2026-05-03T08:26:54.976Z</time></trkpt><trkpt lat="44.229416" lon="8.420982"><ele>10.8</ele><time>2026-05-03T08:26:55.976Z</time></trkpt><trkpt lat="44.229365" lon="8.4208729"><ele>10.600000000000001</ele><time>2026-05-03T08:26:56.975Z</time></trkpt><trkpt lat="44.2293111" lon="8.4207617"><ele>10.4</ele><time>2026-05-03T08:26:57.975Z</time></trkpt><trkpt lat="44.2292611" lon="8.4206533"><ele>10.2</ele><time>2026-05-03T08:26:58.975Z</time></trkpt><trkpt lat="44.2292243" lon="8.4205491"><ele>10.0</ele><time>2026-05-03T08:26:59.976Z</time></trkpt><trkpt lat="44.229183" lon="8.4204438"><ele>10.6</ele><time>2026-05-03T08:27:00.975Z</time></trkpt><trkpt lat="44.2291432" lon="8.4203346"><ele>11.2</ele><time>2026-05-03T08:27:01.975Z</time></trkpt><trkpt lat="44.2291022" lon="8.4202094"><ele>11.8</ele><time>2026-05-03T08:27:02.976Z</time></trkpt><trkpt lat="44.229057" lon="8.4200809"><ele>12.4</ele><time>2026-05-03T08:27:03.976Z</time></trkpt><trkpt lat="44.2290089" lon="8.419936"><ele>13.0</ele><time>2026-05-03T08:27:04.976Z</time></trkpt><trkpt lat="44.2289574" lon="8.4197833"><ele>12.200000000000001</ele><time>2026-05-03T08:27:05.976Z</time></trkpt><trkpt lat="44.2289077" lon="8.4196397"><ele>11.4</ele><time>2026-05-03T08:27:06.975Z</time></trkpt><trkpt lat="44.2288598" lon="8.4195037"><ele>10.600000000000001</ele><time>2026-05-03T08:27:07.976Z</time></trkpt><trkpt lat="44.2288145" lon="8.419372"><ele>9.8</ele><time>2026-05-03T08:27:08.976Z</time></trkpt><trkpt lat="44.2287698" lon="8.4192447"><ele>9.0</ele><time>2026-05-03T08:27:09.976Z</time></trkpt><trkpt lat="44.2287185" lon="8.4191185"><ele>9.0</ele><time>2026-05-03T08:27:10.976Z</time></trkpt><trkpt lat="44.2286634" lon="8.4189837"><ele>9.0</ele><time>2026-05-03T08:27:11.976Z</time></trkpt><trkpt lat="44.2286108" lon="8.4188468"><ele>9.0</ele><time>2026-05-03T08:27:12.976Z</time></trkpt><trkpt lat="44.2285684" lon="8.4187042"><ele>9.0</ele><time>2026-05-03T08:27:13.975Z</time></trkpt><trkpt lat="44.2285212" lon="8.418568"><ele>9.0</ele><time>2026-05-03T08:27:14.976Z</time></trkpt><trkpt lat="44.2284663" lon="8.4184352"><ele>9.2</ele><time>2026-05-03T08:27:15.975Z</time></trkpt><trkpt lat="44.2284095" lon="8.4183097"><ele>9.4</ele><time>2026-05-03T08:27:16.976Z</time></trkpt><trkpt lat="44.2283581" lon="8.4181837"><ele>9.6</ele><time>2026-05-03T08:27:17.976Z</time></trkpt><trkpt lat="44.2283024" lon="8.4180634"><ele>9.8</ele><time>2026-05-03T08:27:18.976Z</time></trkpt><trkpt lat="44.2282449" lon="8.4179433"><ele>10.0</ele><time>2026-05-03T08:27:19.975Z</time></trkpt><trkpt lat="44.228188" lon="8.4178266"><ele>9.2</ele><time>2026-05-03T08:27:20.976Z</time></trkpt><trkpt lat="44.228128" lon="8.4177235"><ele>8.4</ele><time>2026-05-03T08:27:21.975Z</time></trkpt><trkpt lat="44.2280665" lon="8.4176207"><ele>7.6</ele><time>2026-05-03T08:27:22.975Z</time></trkpt><trkpt lat="44.2280011" lon="8.4175183"><ele>6.8</ele><time>2026-05-03T08:27:23.976Z</time></trkpt><trkpt lat="44.2279384" lon="8.4174165"><ele>6.0</ele><time>2026-05-03T08:27:24.976Z</time></trkpt><trkpt lat="44.2278748" lon="8.4173247"><ele>6.0</ele><time>2026-05-03T08:27:25.976Z</time></trkpt><trkpt lat="44.2278157" lon="8.4172401"><ele>6.0</ele><time>2026-05-03T08:27:26.976Z</time></trkpt><trkpt lat="44.2277535" lon="8.417162"><ele>6.0</ele><time>2026-05-03T08:27:27.975Z</time></trkpt><trkpt lat="44.227683" lon="8.4170999"><ele>6.0</ele><time>2026-05-03T08:27:28.976Z</time></trkpt><trkpt lat="44.2276262" lon="8.4170373"><ele>6.0</ele><time>2026-05-03T08:27:29.976Z</time></trkpt><trkpt lat="44.2275744" lon="8.4169809"><ele>6.0</ele><time>2026-05-03T08:27:30.975Z</time></trkpt><trkpt lat="44.227527" lon="8.4169195"><ele>6.4</ele><time>2026-05-03T08:27:31.976Z</time></trkpt><trkpt lat="44.2274727" lon="8.4167747"><ele>6.8</ele><time>2026-05-03T08:27:33.976Z</time></trkpt><trkpt lat="44.2275313" lon="8.4166126"><ele>7.200000000000001</ele><time>2026-05-03T08:27:35.976Z</time></trkpt><trkpt lat="44.2275773" lon="8.4165213"><ele>7.6000000000000005</ele><time>2026-05-03T08:27:36.976Z</time></trkpt><trkpt lat="44.2275801" lon="8.416421"><ele>8.0</ele><time>2026-05-03T08:27:37.975Z</time></trkpt><trkpt lat="44.2275724" lon="8.416306"><ele>7.666666666666666</ele><time>2026-05-03T08:27:38.976Z</time></trkpt><trkpt lat="44.2275198" lon="8.4161727"><ele>7.333333333333333</ele><time>2026-05-03T08:27:39.976Z</time></trkpt><trkpt lat="44.2274676" lon="8.416058"><ele>7.0</ele><time>2026-05-03T08:27:40.976Z</time></trkpt><trkpt lat="44.227427" lon="8.4159619"><ele>6.666666666666666</ele><time>2026-05-03T08:27:41.975Z</time></trkpt><trkpt lat="44.2273904" lon="8.4158768"><ele>6.333333333333333</ele><time>2026-05-03T08:27:42.976Z</time></trkpt><trkpt lat="44.2273509" lon="8.4157848"><ele>6.0</ele><time>2026-05-03T08:27:43.976Z</time></trkpt><trkpt lat="44.2273057" lon="8.4156847"><ele>6.0</ele><time>2026-05-03T08:27:44.975Z</time></trkpt><trkpt lat="44.2272625" lon="8.4155798"><ele>6.0</ele><time>2026-05-03T08:27:45.976Z</time></trkpt><trkpt lat="44.2272185" lon="8.4154799"><ele>6.0</ele><time>2026-05-03T08:27:46.975Z</time></trkpt><trkpt lat="44.2271782" lon="8.4153797"><ele>6.0</ele><time>2026-05-03T08:27:47.975Z</time></trkpt><trkpt lat="44.2271389" lon="8.4152798"><ele>6.0</ele><time>2026-05-03T08:27:48.976Z</time></trkpt><trkpt lat="44.2271015" lon="8.4151731"><ele>6.0</ele><time>2026-05-03T08:27:49.976Z</time></trkpt><trkpt lat="44.2270663" lon="8.4150848"><ele>6.166666666666667</ele><time>2026-05-03T08:27:50.975Z</time></trkpt><trkpt lat="44.2270314" lon="8.4149929"><ele>6.333333333333334</ele><time>2026-05-03T08:27:51.976Z</time></trkpt><trkpt lat="44.226998" lon="8.4149032"><ele>6.5</ele><time>2026-05-03T08:27:52.976Z</time></trkpt><trkpt lat="44.2269669" lon="8.4147954"><ele>6.666666666666667</ele><time>2026-05-03T08:27:53.976Z</time></trkpt><trkpt lat="44.226932" lon="8.4146725"><ele>6.833333333333334</ele><time>2026-05-03T08:27:54.975Z</time></trkpt><trkpt lat="44.226903" lon="8.4145449"><ele>7.0</ele><time>2026-05-03T08:27:55.975Z</time></trkpt><trkpt lat="44.2268855" lon="8.414402"><ele>7.199999999999999</ele><time>2026-05-03T08:27:56.975Z</time></trkpt><trkpt lat="44.226893" lon="8.4142396"><ele>7.3999999999999995</ele><time>2026-05-03T08:27:57.976Z</time></trkpt><trkpt lat="44.2269085" lon="8.4140921"><ele>7.6000000000000005</ele><time>2026-05-03T08:27:58.975Z</time></trkpt><trkpt lat="44.2269319" lon="8.4139584"><ele>7.800000000000001</ele><time>2026-05-03T08:27:59.976Z</time></trkpt><trkpt lat="44.2269508" lon="8.4138415"><ele>8.0</ele><time>2026-05-03T08:28:00.975Z</time></trkpt><trkpt lat="44.2269775" lon="8.4137402"><ele>8.0</ele><time>2026-05-03T08:28:01.977Z</time></trkpt><trkpt lat="44.2270919" lon="8.4136389"><ele>8.0</ele><time>2026-05-03T08:28:03.977Z</time></trkpt><trkpt lat="44.2271697" lon="8.4135927"><ele>8.0</ele><time>2026-05-03T08:28:04.976Z</time></trkpt><trkpt lat="44.2272484" lon="8.4135495"><ele>8.0</ele><time>2026-05-03T08:28:05.977Z</time></trkpt><trkpt lat="44.227321" lon="8.4135071"><ele>8.0</ele><time>2026-05-03T08:28:06.976Z</time></trkpt><trkpt lat="44.2274002" lon="8.4134646"><ele>8.4</ele><time>2026-05-03T08:28:07.976Z</time></trkpt><trkpt lat="44.2274611" lon="8.4134274"><ele>8.8</ele><time>2026-05-03T08:28:08.977Z</time></trkpt><trkpt lat="44.2275578" lon="8.4133599"><ele>9.2</ele><time>2026-05-03T08:28:10.977Z</time></trkpt><trkpt lat="44.227646" lon="8.4133008"><ele>9.6</ele><time>2026-05-03T08:28:12.976Z</time></trkpt><trkpt lat="44.2277552" lon="8.4132198"><ele>10.0</ele><time>2026-05-03T08:28:14.977Z</time></trkpt><trkpt lat="44.2278458" lon="8.4131136"><ele>10.0</ele><time>2026-05-03T08:28:16.977Z</time></trkpt><trkpt lat="44.2278827" lon="8.4130382"><ele>10.0</ele><time>2026-05-03T08:28:17.977Z</time></trkpt><trkpt lat="44.2279141" lon="8.4128785"><ele>10.0</ele><time>2026-05-03T08:28:19.976Z</time></trkpt><trkpt lat="44.227922" lon="8.4127866"><ele>10.0</ele><time>2026-05-03T08:28:20.977Z</time></trkpt><trkpt lat="44.2279222" lon="8.4126907"><ele>10.0</ele><time>2026-05-03T08:28:21.977Z</time></trkpt><trkpt lat="44.2279184" lon="8.4125928"><ele>10.0</ele><time>2026-05-03T08:28:22.977Z</time></trkpt><trkpt lat="44.2279246" lon="8.4124775"><ele>10.285714285714285</ele><time>2026-05-03T08:28:23.977Z</time></trkpt><trkpt lat="44.2279311" lon="8.4123657"><ele>10.571428571428571</ele><time>2026-05-03T08:28:24.977Z</time></trkpt><trkpt lat="44.227939" lon="8.4122666"><ele>10.857142857142858</ele><time>2026-05-03T08:28:25.977Z</time></trkpt><trkpt lat="44.2279415" lon="8.4121663"><ele>11.142857142857142</ele><time>2026-05-03T08:28:26.976Z</time></trkpt><trkpt lat="44.2279415" lon="8.4120652"><ele>11.428571428571429</ele><time>2026-05-03T08:28:27.976Z</time></trkpt><trkpt lat="44.2279368" lon="8.4119651"><ele>11.714285714285714</ele><time>2026-05-03T08:28:28.977Z</time></trkpt><trkpt lat="44.2279356" lon="8.4118608"><ele>12.0</ele><time>2026-05-03T08:28:29.976Z</time></trkpt><trkpt lat="44.2279334" lon="8.4117694"><ele>12.333333333333334</ele><time>2026-05-03T08:28:30.977Z</time></trkpt><trkpt lat="44.2279275" lon="8.4116754"><ele>12.666666666666668</ele><time>2026-05-03T08:28:31.977Z</time></trkpt><trkpt lat="44.2279184" lon="8.4115815"><ele>13.0</ele><time>2026-05-03T08:28:32.976Z</time></trkpt><trkpt lat="44.2279104" lon="8.4114846"><ele>13.333333333333334</ele><time>2026-05-03T08:28:33.977Z</time></trkpt><trkpt lat="44.2278983" lon="8.4113762"><ele>13.666666666666668</ele><time>2026-05-03T08:28:34.976Z</time></trkpt><trkpt lat="44.2278774" lon="8.4112705"><ele>14.0</ele><time>2026-05-03T08:28:35.976Z</time></trkpt><trkpt lat="44.2278423" lon="8.4111486"><ele>14.166666666666668</ele><time>2026-05-03T08:28:36.976Z</time></trkpt><trkpt lat="44.2278038" lon="8.4110284"><ele>14.333333333333334</ele><time>2026-05-03T08:28:37.976Z</time></trkpt><trkpt lat="44.2277733" lon="8.4109282"><ele>14.5</ele><time>2026-05-03T08:28:38.976Z</time></trkpt><trkpt lat="44.2277408" lon="8.410824"><ele>14.666666666666668</ele><time>2026-05-03T08:28:39.977Z</time></trkpt><trkpt lat="44.227712" lon="8.4107171"><ele>14.833333333333334</ele><time>2026-05-03T08:28:40.977Z</time></trkpt><trkpt lat="44.227695" lon="8.4105835"><ele>15.0</ele><time>2026-05-03T08:28:41.976Z</time></trkpt><trkpt lat="44.2276758" lon="8.4104564"><ele>15.0</ele><time>2026-05-03T08:28:42.977Z</time></trkpt><trkpt lat="44.2276785" lon="8.4103333"><ele>15.0</ele><time>2026-05-03T08:28:43.977Z</time></trkpt><trkpt lat="44.2276717" lon="8.4102199"><ele>15.0</ele><time>2026-05-03T08:28:44.976Z</time></trkpt><trkpt lat="44.2276586" lon="8.4101114"><ele>15.0</ele><time>2026-05-03T08:28:45.976Z</time></trkpt><trkpt lat="44.2276437" lon="8.4100071"><ele>15.0</ele><time>2026-05-03T08:28:46.977Z</time></trkpt><trkpt lat="44.227623" lon="8.4099026"><ele>15.0</ele><time>2026-05-03T08:28:47.976Z</time></trkpt><trkpt lat="44.2276008" lon="8.4097988"><ele>15.0</ele><time>2026-05-03T08:28:48.977Z</time></trkpt><trkpt lat="44.2275854" lon="8.4096779"><ele>15.0</ele><time>2026-05-03T08:28:49.976Z</time></trkpt><trkpt lat="44.2275969" lon="8.409553"><ele>15.0</ele><time>2026-05-03T08:28:50.977Z</time></trkpt><trkpt lat="44.2276132" lon="8.4094409"><ele>15.0</ele><time>2026-05-03T08:28:51.976Z</time></trkpt><trkpt lat="44.2276617" lon="8.4093221"><ele>15.0</ele><time>2026-05-03T08:28:52.976Z</time></trkpt><trkpt lat="44.2277015" lon="8.4092277"><ele>15.0</ele><time>2026-05-03T08:28:53.977Z</time></trkpt><trkpt lat="44.2277388" lon="8.4091378"><ele>14.166666666666666</ele><time>2026-05-03T08:28:54.977Z</time></trkpt><trkpt lat="44.2277635" lon="8.4090398"><ele>13.333333333333334</ele><time>2026-05-03T08:28:55.977Z</time></trkpt><trkpt lat="44.2277815" lon="8.4089366"><ele>12.5</ele><time>2026-05-03T08:28:56.977Z</time></trkpt><trkpt lat="44.22778" lon="8.4088304"><ele>11.666666666666668</ele><time>2026-05-03T08:28:57.977Z</time></trkpt><trkpt lat="44.2277584" lon="8.4087269"><ele>10.833333333333334</ele><time>2026-05-03T08:28:58.977Z</time></trkpt><trkpt lat="44.2277146" lon="8.4086334"><ele>10.0</ele><time>2026-05-03T08:28:59.977Z</time></trkpt><trkpt lat="44.2276604" lon="8.4085455"><ele>10.0</ele><time>2026-05-03T08:29:00.977Z</time></trkpt><trkpt lat="44.2276013" lon="8.4084573"><ele>10.0</ele><time>2026-05-03T08:29:01.976Z</time></trkpt><trkpt lat="44.2275429" lon="8.4083627"><ele>10.0</ele><time>2026-05-03T08:29:02.976Z</time></trkpt><trkpt lat="44.2274933" lon="8.4082707"><ele>10.0</ele><time>2026-05-03T08:29:03.976Z</time></trkpt><trkpt lat="44.2274543" lon="8.4081797"><ele>10.0</ele><time>2026-05-03T08:29:04.977Z</time></trkpt><trkpt lat="44.2274297" lon="8.4080807"><ele>10.0</ele><time>2026-05-03T08:29:05.977Z</time></trkpt><trkpt lat="44.2274273" lon="8.4079773"><ele>10.6</ele><time>2026-05-03T08:29:06.976Z</time></trkpt><trkpt lat="44.2274502" lon="8.4078683"><ele>11.2</ele><time>2026-05-03T08:29:07.976Z</time></trkpt><trkpt lat="44.2274784" lon="8.4077387"><ele>11.8</ele><time>2026-05-03T08:29:08.977Z</time></trkpt><trkpt lat="44.2275029" lon="8.4075889"><ele>12.4</ele><time>2026-05-03T08:29:09.976Z</time></trkpt><trkpt lat="44.2275311" lon="8.4074307"><ele>13.0</ele><time>2026-05-03T08:29:10.977Z</time></trkpt><trkpt lat="44.2275651" lon="8.4072802"><ele>13.666666666666666</ele><time>2026-05-03T08:29:11.977Z</time></trkpt><trkpt lat="44.2276197" lon="8.4071556"><ele>14.333333333333332</ele><time>2026-05-03T08:29:12.978Z</time></trkpt><trkpt lat="44.2276854" lon="8.407064"><ele>15.0</ele><time>2026-05-03T08:29:13.978Z</time></trkpt><trkpt lat="44.2277486" lon="8.4069979"><ele>15.666666666666668</ele><time>2026-05-03T08:29:14.978Z</time></trkpt><trkpt lat="44.2278107" lon="8.4069563"><ele>16.333333333333336</ele><time>2026-05-03T08:29:15.977Z</time></trkpt><trkpt lat="44.227868" lon="8.4069139"><ele>17.0</ele><time>2026-05-03T08:29:16.977Z</time></trkpt><trkpt lat="44.2279457" lon="8.40684"><ele>17.0</ele><time>2026-05-03T08:29:18.977Z</time></trkpt><trkpt lat="44.2280076" lon="8.406783"><ele>17.0</ele><time>2026-05-03T08:29:20.978Z</time></trkpt><trkpt lat="44.228077" lon="8.4067013"><ele>17.0</ele><time>2026-05-03T08:29:22.978Z</time></trkpt><trkpt lat="44.2281602" lon="8.4065839"><ele>17.0</ele><time>2026-05-03T08:29:24.978Z</time></trkpt><trkpt lat="44.2282165" lon="8.4065042"><ele>17.0</ele><time>2026-05-03T08:29:25.978Z</time></trkpt><trkpt lat="44.2282834" lon="8.4064291"><ele>17.0</ele><time>2026-05-03T08:29:26.977Z</time></trkpt><trkpt lat="44.228361" lon="8.4063496"><ele>19.0</ele><time>2026-05-03T08:29:27.977Z</time></trkpt><trkpt lat="44.2284415" lon="8.4062651"><ele>21.0</ele><time>2026-05-03T08:29:28.978Z</time></trkpt><trkpt lat="44.2285192" lon="8.4061802"><ele>23.0</ele><time>2026-05-03T08:29:29.978Z</time></trkpt><trkpt lat="44.2285968" lon="8.4061025"><ele>25.0</ele><time>2026-05-03T08:29:30.977Z</time></trkpt><trkpt lat="44.2286667" lon="8.4060409"><ele>26.999999999999996</ele><time>2026-05-03T08:29:31.978Z</time></trkpt><trkpt lat="44.2287253" lon="8.405992"><ele>29.0</ele><time>2026-05-03T08:29:32.978Z</time></trkpt><trkpt lat="44.2287823" lon="8.4059469"><ele>28.999999999999996</ele><time>2026-05-03T08:29:33.977Z</time></trkpt><trkpt lat="44.2288402" lon="8.4058977"><ele>29.0</ele><time>2026-05-03T08:29:34.978Z</time></trkpt><trkpt lat="44.2288924" lon="8.4058478"><ele>29.0</ele><time>2026-05-03T08:29:35.978Z</time></trkpt><trkpt lat="44.2289882" lon="8.4057611"><ele>29.0</ele><time>2026-05-03T08:29:37.978Z</time></trkpt><trkpt lat="44.2290434" lon="8.4056253"><ele>28.999999999999996</ele><time>2026-05-03T08:29:39.978Z</time></trkpt><trkpt lat="44.2290322" lon="8.405533"><ele>29.0</ele><time>2026-05-03T08:29:40.978Z</time></trkpt><trkpt lat="44.228991" lon="8.4054273"><ele>29.0</ele><time>2026-05-03T08:29:41.978Z</time></trkpt><trkpt lat="44.2289271" lon="8.4053753"><ele>29.0</ele><time>2026-05-03T08:29:42.978Z</time></trkpt><trkpt lat="44.2288531" lon="8.4053573"><ele>29.0</ele><time>2026-05-03T08:29:43.977Z</time></trkpt><trkpt lat="44.2287765" lon="8.4053752"><ele>29.0</ele><time>2026-05-03T08:29:44.977Z</time></trkpt><trkpt lat="44.2286766" lon="8.405485"><ele>29.0</ele><time>2026-05-03T08:29:45.978Z</time></trkpt><trkpt lat="44.2285927" lon="8.405604"><ele>29.0</ele><time>2026-05-03T08:29:46.977Z</time></trkpt><trkpt lat="44.2285238" lon="8.4057088"><ele>29.0</ele><time>2026-05-03T08:29:47.978Z</time></trkpt><trkpt lat="44.2284507" lon="8.4057968"><ele>29.0</ele><time>2026-05-03T08:29:48.978Z</time></trkpt><trkpt lat="44.2283734" lon="8.4058714"><ele>29.0</ele><time>2026-05-03T08:29:49.978Z</time></trkpt><trkpt lat="44.2283051" lon="8.4059374"><ele>29.0</ele><time>2026-05-03T08:29:50.977Z</time></trkpt><trkpt lat="44.2282421" lon="8.4059929"><ele>28.999999999999996</ele><time>2026-05-03T08:29:51.978Z</time></trkpt><trkpt lat="44.2281806" lon="8.4060275"><ele>29.0</ele><time>2026-05-03T08:29:52.978Z</time></trkpt><trkpt lat="44.2281173" lon="8.4060337"><ele>29.0</ele><time>2026-05-03T08:29:53.978Z</time></trkpt><trkpt lat="44.2280534" lon="8.4059848"><ele>29.0</ele><time>2026-05-03T08:29:54.977Z</time></trkpt><trkpt lat="44.2280052" lon="8.4058932"><ele>28.999999999999996</ele><time>2026-05-03T08:29:55.978Z</time></trkpt><trkpt lat="44.2279977" lon="8.4057689"><ele>29.0</ele><time>2026-05-03T08:29:56.978Z</time></trkpt><trkpt lat="44.2280501" lon="8.4056888"><ele>29.0</ele><time>2026-05-03T08:29:57.977Z</time></trkpt><trkpt lat="44.2281094" lon="8.4056153"><ele>29.0</ele><time>2026-05-03T08:29:58.977Z</time></trkpt><trkpt lat="44.228185" lon="8.4055603"><ele>29.0</ele><time>2026-05-03T08:29:59.977Z</time></trkpt><trkpt lat="44.228277" lon="8.4055163"><ele>29.0</ele><time>2026-05-03T08:30:00.977Z</time></trkpt><trkpt lat="44.2283803" lon="8.4054581"><ele>29.0</ele><time>2026-05-03T08:30:01.977Z</time></trkpt><trkpt lat="44.2284841" lon="8.4053863"><ele>31.0</ele><time>2026-05-03T08:30:02.978Z</time></trkpt><trkpt lat="44.2285806" lon="8.4052893"><ele>33.0</ele><time>2026-05-03T08:30:03.977Z</time></trkpt><trkpt lat="44.2286491" lon="8.4051794"><ele>35.0</ele><time>2026-05-03T08:30:04.978Z</time></trkpt><trkpt lat="44.2286945" lon="8.4050627"><ele>37.0</ele><time>2026-05-03T08:30:05.978Z</time></trkpt><trkpt lat="44.2287249" lon="8.4049526"><ele>39.0</ele><time>2026-05-03T08:30:06.978Z</time></trkpt><trkpt lat="44.2287496" lon="8.4048453"><ele>39.0</ele><time>2026-05-03T08:30:07.978Z</time></trkpt><trkpt lat="44.2287753" lon="8.4047383"><ele>39.0</ele><time>2026-05-03T08:30:08.978Z</time></trkpt><trkpt lat="44.2288032" lon="8.4046207"><ele>39.0</ele><time>2026-05-03T08:30:09.978Z</time></trkpt><trkpt lat="44.2288279" lon="8.4044842"><ele>39.0</ele><time>2026-05-03T08:30:10.978Z</time></trkpt><trkpt lat="44.2288455" lon="8.4043382"><ele>39.0</ele><time>2026-05-03T08:30:11.978Z</time></trkpt><trkpt lat="44.228843" lon="8.404206"><ele>41.2</ele><time>2026-05-03T08:30:12.979Z</time></trkpt><trkpt lat="44.2288083" lon="8.4040893"><ele>43.4</ele><time>2026-05-03T08:30:13.977Z</time></trkpt><trkpt lat="44.2287498" lon="8.4039895"><ele>45.6</ele><time>2026-05-03T08:30:14.977Z</time></trkpt><trkpt lat="44.2286837" lon="8.4038949"><ele>47.8</ele><time>2026-05-03T08:30:15.978Z</time></trkpt><trkpt lat="44.2286083" lon="8.4038272"><ele>50.0</ele><time>2026-05-03T08:30:16.978Z</time></trkpt><trkpt lat="44.2285029" lon="8.4038042"><ele>48.8</ele><time>2026-05-03T08:30:17.978Z</time></trkpt><trkpt lat="44.2283902" lon="8.4037998"><ele>47.6</ele><time>2026-05-03T08:30:18.978Z</time></trkpt><trkpt lat="44.2282921" lon="8.4037986"><ele>46.400000000000006</ele><time>2026-05-03T08:30:19.978Z</time></trkpt><trkpt lat="44.2282019" lon="8.4037917"><ele>45.2</ele><time>2026-05-03T08:30:20.978Z</time></trkpt><trkpt lat="44.2281177" lon="8.4037782"><ele>44.0</ele><time>2026-05-03T08:30:21.978Z</time></trkpt><trkpt lat="44.2280458" lon="8.4037546"><ele>44.0</ele><time>2026-05-03T08:30:22.979Z</time></trkpt><trkpt lat="44.2279806" lon="8.4037049"><ele>44.0</ele><time>2026-05-03T08:30:23.978Z</time></trkpt><trkpt lat="44.2279257" lon="8.4036203"><ele>44.0</ele><time>2026-05-03T08:30:24.979Z</time></trkpt><trkpt lat="44.2278895" lon="8.4035042"><ele>44.0</ele><time>2026-05-03T08:30:25.979Z</time></trkpt><trkpt lat="44.2278746" lon="8.4033798"><ele>44.0</ele><time>2026-05-03T08:30:26.979Z</time></trkpt><trkpt lat="44.2278796" lon="8.4032554"><ele>44.0</ele><time>2026-05-03T08:30:27.979Z</time></trkpt><trkpt lat="44.2279068" lon="8.4031183"><ele>44.400000000000006</ele><time>2026-05-03T08:30:28.978Z</time></trkpt><trkpt lat="44.2279445" lon="8.4029817"><ele>44.8</ele><time>2026-05-03T08:30:29.979Z</time></trkpt><trkpt lat="44.2279941" lon="8.402819"><ele>45.2</ele><time>2026-05-03T08:30:30.978Z</time></trkpt><trkpt lat="44.2280192" lon="8.4026782"><ele>45.599999999999994</ele><time>2026-05-03T08:30:31.979Z</time></trkpt><trkpt lat="44.2280468" lon="8.4025332"><ele>46.0</ele><time>2026-05-03T08:30:32.978Z</time></trkpt><trkpt lat="44.2280847" lon="8.4023821"><ele>46.0</ele><time>2026-05-03T08:30:33.979Z</time></trkpt><trkpt lat="44.2281336" lon="8.4022261"><ele>46.0</ele><time>2026-05-03T08:30:34.978Z</time></trkpt><trkpt lat="44.228193" lon="8.4020785"><ele>46.0</ele><time>2026-05-03T08:30:35.979Z</time></trkpt><trkpt lat="44.2282625" lon="8.4019481"><ele>46.0</ele><time>2026-05-03T08:30:36.979Z</time></trkpt><trkpt lat="44.2283506" lon="8.4018169"><ele>52.0</ele><time>2026-05-03T08:30:37.978Z</time></trkpt><trkpt lat="44.2284254" lon="8.4016928"><ele>58.0</ele><time>2026-05-03T08:30:38.979Z</time></trkpt><trkpt lat="44.2284807" lon="8.4015727"><ele>63.99999999999999</ele><time>2026-05-03T08:30:39.979Z</time></trkpt><trkpt lat="44.2285216" lon="8.4014467"><ele>70.0</ele><time>2026-05-03T08:30:40.979Z</time></trkpt><trkpt lat="44.228541" lon="8.40132"><ele>76.0</ele><time>2026-05-03T08:30:41.978Z</time></trkpt><trkpt lat="44.2285384" lon="8.4011839"><ele>77.66666666666666</ele><time>2026-05-03T08:30:42.979Z</time></trkpt><trkpt lat="44.2285164" lon="8.4010547"><ele>79.33333333333333</ele><time>2026-05-03T08:30:43.978Z</time></trkpt><trkpt lat="44.2284833" lon="8.4009466"><ele>81.0</ele><time>2026-05-03T08:30:44.978Z</time></trkpt><trkpt lat="44.2284484" lon="8.4008431"><ele>82.66666666666667</ele><time>2026-05-03T08:30:45.978Z</time></trkpt><trkpt lat="44.2284216" lon="8.4007444"><ele>84.33333333333334</ele><time>2026-05-03T08:30:46.979Z</time></trkpt><trkpt lat="44.2284034" lon="8.4006559"><ele>86.0</ele><time>2026-05-03T08:30:47.978Z</time></trkpt><trkpt lat="44.2283914" lon="8.400484"><ele>86.0</ele><time>2026-05-03T08:30:49.978Z</time></trkpt><trkpt lat="44.2284781" lon="8.4003904"><ele>86.0</ele><time>2026-05-03T08:30:51.978Z</time></trkpt><trkpt lat="44.2285817" lon="8.4004543"><ele>86.0</ele><time>2026-05-03T08:30:53.978Z</time></trkpt><trkpt lat="44.2286252" lon="8.4005897"><ele>86.0</ele><time>2026-05-03T08:30:54.979Z</time></trkpt><trkpt lat="44.2286404" lon="8.400748"><ele>86.0</ele><time>2026-05-03T08:30:55.978Z</time></trkpt><trkpt lat="44.2286575" lon="8.4008952"><ele>86.0</ele><time>2026-05-03T08:30:56.979Z</time></trkpt><trkpt lat="44.2286677" lon="8.4010394"><ele>86.0</ele><time>2026-05-03T08:30:57.979Z</time></trkpt><trkpt lat="44.2286846" lon="8.4011809"><ele>86.0</ele><time>2026-05-03T08:30:58.979Z</time></trkpt><trkpt lat="44.2287006" lon="8.401323"><ele>86.0</ele><time>2026-05-03T08:30:59.979Z</time></trkpt><trkpt lat="44.228721" lon="8.4014618"><ele>86.0</ele><time>2026-05-03T08:31:00.979Z</time></trkpt><trkpt lat="44.2287502" lon="8.4016035"><ele>84.0</ele><time>2026-05-03T08:31:01.979Z</time></trkpt><trkpt lat="44.2287862" lon="8.4017432"><ele>82.0</ele><time>2026-05-03T08:31:02.978Z</time></trkpt><trkpt lat="44.2288305" lon="8.4018754"><ele>80.0</ele><time>2026-05-03T08:31:03.978Z</time></trkpt><trkpt lat="44.2288871" lon="8.4019863"><ele>78.0</ele><time>2026-05-03T08:31:04.979Z</time></trkpt><trkpt lat="44.2289575" lon="8.4020824"><ele>76.0</ele><time>2026-05-03T08:31:05.979Z</time></trkpt><trkpt lat="44.2290446" lon="8.4021486"><ele>78.6</ele><time>2026-05-03T08:31:06.979Z</time></trkpt><trkpt lat="44.2291461" lon="8.4021725"><ele>81.19999999999999</ele><time>2026-05-03T08:31:07.979Z</time></trkpt><trkpt lat="44.2292543" lon="8.4021601"><ele>83.80000000000001</ele><time>2026-05-03T08:31:08.978Z</time></trkpt><trkpt lat="44.2293613" lon="8.4021167"><ele>86.4</ele><time>2026-05-03T08:31:09.979Z</time></trkpt><trkpt lat="44.2294709" lon="8.4020505"><ele>89.0</ele><time>2026-05-03T08:31:10.978Z</time></trkpt><trkpt lat="44.2295941" lon="8.4019629"><ele>92.0</ele><time>2026-05-03T08:31:11.979Z</time></trkpt><trkpt lat="44.2296941" lon="8.4018767"><ele>95.0</ele><time>2026-05-03T08:31:12.979Z</time></trkpt><trkpt lat="44.2297997" lon="8.4018009"><ele>98.0</ele><time>2026-05-03T08:31:13.978Z</time></trkpt><trkpt lat="44.2298978" lon="8.4017291"><ele>101.0</ele><time>2026-05-03T08:31:14.979Z</time></trkpt><trkpt lat="44.2299811" lon="8.4016609"><ele>104.0</ele><time>2026-05-03T08:31:15.979Z</time></trkpt><trkpt lat="44.2300486" lon="8.4015988"><ele>104.4</ele><time>2026-05-03T08:31:16.979Z</time></trkpt><trkpt lat="44.2301086" lon="8.4015166"><ele>104.80000000000001</ele><time>2026-05-03T08:31:17.979Z</time></trkpt><trkpt lat="44.2301608" lon="8.4014145"><ele>105.19999999999999</ele><time>2026-05-03T08:31:18.978Z</time></trkpt><trkpt lat="44.2301715" lon="8.4012819"><ele>105.6</ele><time>2026-05-03T08:31:19.978Z</time></trkpt><trkpt lat="44.2301543" lon="8.4011469"><ele>106.0</ele><time>2026-05-03T08:31:20.978Z</time></trkpt><trkpt lat="44.2301167" lon="8.4010361"><ele>107.0</ele><time>2026-05-03T08:31:21.979Z</time></trkpt><trkpt lat="44.2300631" lon="8.4009335"><ele>108.0</ele><time>2026-05-03T08:31:22.979Z</time></trkpt><trkpt lat="44.2299818" lon="8.4008709"><ele>109.0</ele><time>2026-05-03T08:31:23.979Z</time></trkpt><trkpt lat="44.2298789" lon="8.4008687"><ele>110.0</ele><time>2026-05-03T08:31:24.978Z</time></trkpt><trkpt lat="44.2297857" lon="8.40092"><ele>111.0</ele><time>2026-05-03T08:31:25.979Z</time></trkpt><trkpt lat="44.2297148" lon="8.4010098"><ele>111.6</ele><time>2026-05-03T08:31:26.979Z</time></trkpt><trkpt lat="44.229664" lon="8.4011366"><ele>112.19999999999999</ele><time>2026-05-03T08:31:27.978Z</time></trkpt><trkpt lat="44.2296364" lon="8.4012813"><ele>112.80000000000001</ele><time>2026-05-03T08:31:28.979Z</time></trkpt><trkpt lat="44.2296305" lon="8.4014151"><ele>113.4</ele><time>2026-05-03T08:31:29.979Z</time></trkpt><trkpt lat="44.2296191" lon="8.4015185"><ele>114.0</ele><time>2026-05-03T08:31:30.98Z</time></trkpt><trkpt lat="44.2295318" lon="8.4016157"><ele>114.0</ele><time>2026-05-03T08:31:32.98Z</time></trkpt><trkpt lat="44.2294617" lon="8.4016053"><ele>114.0</ele><time>2026-05-03T08:31:33.979Z</time></trkpt><trkpt lat="44.2294026" lon="8.4015461"><ele>114.0</ele><time>2026-05-03T08:31:34.98Z</time></trkpt><trkpt lat="44.2293588" lon="8.4014386"><ele>114.0</ele><time>2026-05-03T08:31:35.98Z</time></trkpt><trkpt lat="44.2293276" lon="8.4013133"><ele>114.0</ele><time>2026-05-03T08:31:36.979Z</time></trkpt><trkpt lat="44.2293044" lon="8.4011702"><ele>114.0</ele><time>2026-05-03T08:31:37.979Z</time></trkpt><trkpt lat="44.2292835" lon="8.4010019"><ele>114.0</ele><time>2026-05-03T08:31:38.979Z</time></trkpt><trkpt lat="44.2292724" lon="8.4008288"><ele>114.0</ele><time>2026-05-03T08:31:39.98Z</time></trkpt><trkpt lat="44.2292713" lon="8.4006483"><ele>114.0</ele><time>2026-05-03T08:31:40.98Z</time></trkpt><trkpt lat="44.2292793" lon="8.4004608"><ele>114.0</ele><time>2026-05-03T08:31:41.98Z</time></trkpt><trkpt lat="44.2292862" lon="8.4002745"><ele>116.0</ele><time>2026-05-03T08:31:42.979Z</time></trkpt><trkpt lat="44.2292789" lon="8.4000887"><ele>118.0</ele><time>2026-05-03T08:31:43.98Z</time></trkpt><trkpt lat="44.22925" lon="8.3999108"><ele>120.0</ele><time>2026-05-03T08:31:44.98Z</time></trkpt><trkpt lat="44.2291993" lon="8.3997477"><ele>122.0</ele><time>2026-05-03T08:31:45.979Z</time></trkpt><trkpt lat="44.2291375" lon="8.399592"><ele>124.0</ele><time>2026-05-03T08:31:46.98Z</time></trkpt><trkpt lat="44.2290751" lon="8.3994463"><ele>125.99999999999999</ele><time>2026-05-03T08:31:47.979Z</time></trkpt><trkpt lat="44.2290241" lon="8.3993103"><ele>127.99999999999999</ele><time>2026-05-03T08:31:48.98Z</time></trkpt><trkpt lat="44.2289882" lon="8.399175"><ele>130.0</ele><time>2026-05-03T08:31:49.98Z</time></trkpt><trkpt lat="44.2289762" lon="8.3990362"><ele>132.0</ele><time>2026-05-03T08:31:50.98Z</time></trkpt><trkpt lat="44.2289946" lon="8.398911"><ele>134.0</ele><time>2026-05-03T08:31:51.98Z</time></trkpt><trkpt lat="44.2290462" lon="8.3988045"><ele>136.0</ele><time>2026-05-03T08:31:52.98Z</time></trkpt><trkpt lat="44.2291104" lon="8.3987169"><ele>138.0</ele><time>2026-05-03T08:31:53.979Z</time></trkpt><trkpt lat="44.2291926" lon="8.3986734"><ele>140.0</ele><time>2026-05-03T08:31:54.98Z</time></trkpt><trkpt lat="44.2292795" lon="8.398648"><ele>142.0</ele><time>2026-05-03T08:31:55.98Z</time></trkpt><trkpt lat="44.2293625" lon="8.398625"><ele>144.0</ele><time>2026-05-03T08:31:56.979Z</time></trkpt><trkpt lat="44.229443" lon="8.3985834"><ele>144.0</ele><time>2026-05-03T08:31:57.979Z</time></trkpt><trkpt lat="44.2295258" lon="8.3984787"><ele>144.0</ele><time>2026-05-03T08:31:58.979Z</time></trkpt><trkpt lat="44.2295727" lon="8.3983559"><ele>144.0</ele><time>2026-05-03T08:31:59.98Z</time></trkpt><trkpt lat="44.2295807" lon="8.3982283"><ele>144.0</ele><time>2026-05-03T08:32:00.98Z</time></trkpt><trkpt lat="44.229555" lon="8.398085"><ele>144.0</ele><time>2026-05-03T08:32:01.98Z</time></trkpt><trkpt lat="44.2294861" lon="8.3979462"><ele>144.0</ele><time>2026-05-03T08:32:02.98Z</time></trkpt><trkpt lat="44.2294128" lon="8.3977959"><ele>144.0</ele><time>2026-05-03T08:32:03.98Z</time></trkpt><trkpt lat="44.2293466" lon="8.3976521"><ele>144.0</ele><time>2026-05-03T08:32:04.98Z</time></trkpt><trkpt lat="44.2292883" lon="8.3975102"><ele>144.0</ele><time>2026-05-03T08:32:05.98Z</time></trkpt><trkpt lat="44.2292223" lon="8.3973706"><ele>144.0</ele><time>2026-05-03T08:32:06.979Z</time></trkpt><trkpt lat="44.2291322" lon="8.397244"><ele>144.0</ele><time>2026-05-03T08:32:07.98Z</time></trkpt><trkpt lat="44.2290296" lon="8.3971304"><ele>144.0</ele><time>2026-05-03T08:32:08.98Z</time></trkpt><trkpt lat="44.2289165" lon="8.3970403"><ele>144.0</ele><time>2026-05-03T08:32:09.979Z</time></trkpt><trkpt lat="44.2288028" lon="8.396946"><ele>148.5</ele><time>2026-05-03T08:32:10.979Z</time></trkpt><trkpt lat="44.2287021" lon="8.3968319"><ele>153.0</ele><time>2026-05-03T08:32:11.98Z</time></trkpt><trkpt lat="44.2286138" lon="8.3967"><ele>157.5</ele><time>2026-05-03T08:32:12.98Z</time></trkpt><trkpt lat="44.2285372" lon="8.39656"><ele>162.0</ele><time>2026-05-03T08:32:13.98Z</time></trkpt><trkpt lat="44.2284654" lon="8.3964265"><ele>159.75</ele><time>2026-05-03T08:32:14.98Z</time></trkpt><trkpt lat="44.2283982" lon="8.3962949"><ele>157.5</ele><time>2026-05-03T08:32:15.98Z</time></trkpt><trkpt lat="44.2283354" lon="8.3961591"><ele>155.25</ele><time>2026-05-03T08:32:16.98Z</time></trkpt><trkpt lat="44.2282749" lon="8.3960177"><ele>153.0</ele><time>2026-05-03T08:32:17.98Z</time></trkpt><trkpt lat="44.2282165" lon="8.3958706"><ele>153.0</ele><time>2026-05-03T08:32:18.98Z</time></trkpt><trkpt lat="44.2281593" lon="8.3957213"><ele>153.0</ele><time>2026-05-03T08:32:19.979Z</time></trkpt><trkpt lat="44.2281016" lon="8.3955762"><ele>153.0</ele><time>2026-05-03T08:32:20.98Z</time></trkpt><trkpt lat="44.228043" lon="8.3954292"><ele>153.0</ele><time>2026-05-03T08:32:21.979Z</time></trkpt><trkpt lat="44.2279871" lon="8.3952815"><ele>157.60000000000002</ele><time>2026-05-03T08:32:22.98Z</time></trkpt><trkpt lat="44.2279318" lon="8.3951367"><ele>162.20000000000002</ele><time>2026-05-03T08:32:23.979Z</time></trkpt><trkpt lat="44.2278768" lon="8.3950001"><ele>166.8</ele><time>2026-05-03T08:32:24.979Z</time></trkpt><trkpt lat="44.2278222" lon="8.3948688"><ele>171.4</ele><time>2026-05-03T08:32:25.98Z</time></trkpt><trkpt lat="44.227772" lon="8.3947424"><ele>176.0</ele><time>2026-05-03T08:32:26.979Z</time></trkpt><trkpt lat="44.2277304" lon="8.3946087"><ele>176.0</ele><time>2026-05-03T08:32:27.979Z</time></trkpt><trkpt lat="44.2277136" lon="8.3944609"><ele>176.0</ele><time>2026-05-03T08:32:28.98Z</time></trkpt><trkpt lat="44.2277195" lon="8.3942969"><ele>176.0</ele><time>2026-05-03T08:32:29.979Z</time></trkpt><trkpt lat="44.2277287" lon="8.3941305"><ele>176.0</ele><time>2026-05-03T08:32:30.979Z</time></trkpt><trkpt lat="44.2277161" lon="8.3939702"><ele>175.5</ele><time>2026-05-03T08:32:31.98Z</time></trkpt><trkpt lat="44.2276767" lon="8.3938086"><ele>175.0</ele><time>2026-05-03T08:32:32.98Z</time></trkpt><trkpt lat="44.2276219" lon="8.3936515"><ele>174.5</ele><time>2026-05-03T08:32:33.979Z</time></trkpt><trkpt lat="44.2275638" lon="8.3935086"><ele>174.0</ele><time>2026-05-03T08:32:34.98Z</time></trkpt><trkpt lat="44.2275057" lon="8.3933814"><ele>174.0</ele><time>2026-05-03T08:32:35.98Z</time></trkpt><trkpt lat="44.2274444" lon="8.3932667"><ele>174.0</ele><time>2026-05-03T08:32:36.98Z</time></trkpt><trkpt lat="44.2273792" lon="8.3931589"><ele>174.0</ele><time>2026-05-03T08:32:37.979Z</time></trkpt><trkpt lat="44.2273214" lon="8.3930479"><ele>174.0</ele><time>2026-05-03T08:32:38.98Z</time></trkpt><trkpt lat="44.2272837" lon="8.392926"><ele>174.0</ele><time>2026-05-03T08:32:39.98Z</time></trkpt><trkpt lat="44.2272833" lon="8.3927996"><ele>174.79999999999998</ele><time>2026-05-03T08:32:40.981Z</time></trkpt><trkpt lat="44.2273134" lon="8.3926899"><ele>175.6</ele><time>2026-05-03T08:32:41.98Z</time></trkpt><trkpt lat="44.2273765" lon="8.3925739"><ele>176.4</ele><time>2026-05-03T08:32:42.98Z</time></trkpt><trkpt lat="44.2274488" lon="8.3924454"><ele>177.2</ele><time>2026-05-03T08:32:43.98Z</time></trkpt><trkpt lat="44.2275051" lon="8.3923014"><ele>178.0</ele><time>2026-05-03T08:32:44.981Z</time></trkpt><trkpt lat="44.2275287" lon="8.3921395"><ele>178.25</ele><time>2026-05-03T08:32:45.981Z</time></trkpt><trkpt lat="44.2275268" lon="8.3919762"><ele>178.5</ele><time>2026-05-03T08:32:46.98Z</time></trkpt><trkpt lat="44.2274981" lon="8.3918123"><ele>178.75</ele><time>2026-05-03T08:32:47.981Z</time></trkpt><trkpt lat="44.2274391" lon="8.3916522"><ele>179.0</ele><time>2026-05-03T08:32:48.981Z</time></trkpt><trkpt lat="44.2273758" lon="8.3914883"><ele>177.0</ele><time>2026-05-03T08:32:49.98Z</time></trkpt><trkpt lat="44.2273151" lon="8.3913239"><ele>175.0</ele><time>2026-05-03T08:32:50.981Z</time></trkpt><trkpt lat="44.2272553" lon="8.3911654"><ele>173.0</ele><time>2026-05-03T08:32:51.98Z</time></trkpt><trkpt lat="44.2271973" lon="8.3910025"><ele>171.0</ele><time>2026-05-03T08:32:52.981Z</time></trkpt><trkpt lat="44.2271447" lon="8.3908358"><ele>178.60000000000002</ele><time>2026-05-03T08:32:53.981Z</time></trkpt><trkpt lat="44.2271048" lon="8.3906676"><ele>186.2</ele><time>2026-05-03T08:32:54.981Z</time></trkpt><trkpt lat="44.2271037" lon="8.390503"><ele>193.8</ele><time>2026-05-03T08:32:55.981Z</time></trkpt><trkpt lat="44.2271184" lon="8.3903629"><ele>201.39999999999998</ele><time>2026-05-03T08:32:56.981Z</time></trkpt><trkpt lat="44.2271264" lon="8.3902245"><ele>209.0</ele><time>2026-05-03T08:32:57.981Z</time></trkpt><trkpt lat="44.2271312" lon="8.3900861"><ele>209.0</ele><time>2026-05-03T08:32:58.981Z</time></trkpt><trkpt lat="44.227123" lon="8.3899276"><ele>209.0</ele><time>2026-05-03T08:32:59.981Z</time></trkpt><trkpt lat="44.2270978" lon="8.3897547"><ele>209.0</ele><time>2026-05-03T08:33:00.981Z</time></trkpt><trkpt lat="44.2270442" lon="8.3895805"><ele>209.0</ele><time>2026-05-03T08:33:01.981Z</time></trkpt><trkpt lat="44.2269871" lon="8.3894277"><ele>207.5</ele><time>2026-05-03T08:33:02.981Z</time></trkpt><trkpt lat="44.22693" lon="8.3892858"><ele>206.0</ele><time>2026-05-03T08:33:03.98Z</time></trkpt><trkpt lat="44.2268729" lon="8.3891423"><ele>204.5</ele><time>2026-05-03T08:33:04.981Z</time></trkpt><trkpt lat="44.2268307" lon="8.3889868"><ele>203.0</ele><time>2026-05-03T08:33:05.98Z</time></trkpt><trkpt lat="44.2268029" lon="8.3888168"><ele>202.8</ele><time>2026-05-03T08:33:06.981Z</time></trkpt><trkpt lat="44.2267917" lon="8.3886485"><ele>202.60000000000002</ele><time>2026-05-03T08:33:07.981Z</time></trkpt><trkpt lat="44.2267909" lon="8.3884913"><ele>202.39999999999998</ele><time>2026-05-03T08:33:08.981Z</time></trkpt><trkpt lat="44.2267887" lon="8.3883391"><ele>202.2</ele><time>2026-05-03T08:33:09.981Z</time></trkpt><trkpt lat="44.2267766" lon="8.3881957"><ele>202.0</ele><time>2026-05-03T08:33:10.981Z</time></trkpt><trkpt lat="44.2267564" lon="8.3880717"><ele>201.39999999999998</ele><time>2026-05-03T08:33:11.98Z</time></trkpt><trkpt lat="44.2267328" lon="8.3879632"><ele>200.79999999999998</ele><time>2026-05-03T08:33:12.981Z</time></trkpt><trkpt lat="44.226709" lon="8.3878645"><ele>200.2</ele><time>2026-05-03T08:33:13.98Z</time></trkpt><trkpt lat="44.2266923" lon="8.3877451"><ele>199.6</ele><time>2026-05-03T08:33:14.981Z</time></trkpt><trkpt lat="44.2266851" lon="8.3875987"><ele>199.0</ele><time>2026-05-03T08:33:15.98Z</time></trkpt><trkpt lat="44.2266894" lon="8.3874388"><ele>199.0</ele><time>2026-05-03T08:33:16.981Z</time></trkpt><trkpt lat="44.2267154" lon="8.3872747"><ele>199.0</ele><time>2026-05-03T08:33:17.981Z</time></trkpt><trkpt lat="44.2267571" lon="8.3871107"><ele>199.0</ele><time>2026-05-03T08:33:18.981Z</time></trkpt><trkpt lat="44.2268126" lon="8.386964"><ele>199.0</ele><time>2026-05-03T08:33:19.98Z</time></trkpt><trkpt lat="44.2268688" lon="8.3868412"><ele>198.0</ele><time>2026-05-03T08:33:20.98Z</time></trkpt><trkpt lat="44.2269278" lon="8.3867178"><ele>197.0</ele><time>2026-05-03T08:33:21.981Z</time></trkpt><trkpt lat="44.2269929" lon="8.3865813"><ele>196.0</ele><time>2026-05-03T08:33:22.98Z</time></trkpt><trkpt lat="44.2270634" lon="8.3864412"><ele>195.0</ele><time>2026-05-03T08:33:23.981Z</time></trkpt><trkpt lat="44.2271344" lon="8.3863308"><ele>193.8</ele><time>2026-05-03T08:33:24.98Z</time></trkpt><trkpt lat="44.2271964" lon="8.3862115"><ele>192.6</ele><time>2026-05-03T08:33:25.981Z</time></trkpt><trkpt lat="44.227246" lon="8.3860864"><ele>191.39999999999998</ele><time>2026-05-03T08:33:26.98Z</time></trkpt><trkpt lat="44.2272932" lon="8.3859543"><ele>190.2</ele><time>2026-05-03T08:33:27.981Z</time></trkpt><trkpt lat="44.2273326" lon="8.3858266"><ele>189.0</ele><time>2026-05-03T08:33:28.981Z</time></trkpt><trkpt lat="44.2273592" lon="8.3856834"><ele>192.0</ele><time>2026-05-03T08:33:29.981Z</time></trkpt><trkpt lat="44.2273982" lon="8.3855317"><ele>195.0</ele><time>2026-05-03T08:33:30.981Z</time></trkpt><trkpt lat="44.227454" lon="8.3853838"><ele>198.0</ele><time>2026-05-03T08:33:31.981Z</time></trkpt><trkpt lat="44.227514" lon="8.3852393"><ele>201.0</ele><time>2026-05-03T08:33:32.98Z</time></trkpt><trkpt lat="44.2275675" lon="8.3850911"><ele>202.0</ele><time>2026-05-03T08:33:33.981Z</time></trkpt><trkpt lat="44.2276108" lon="8.3849336"><ele>203.0</ele><time>2026-05-03T08:33:34.98Z</time></trkpt><trkpt lat="44.2276325" lon="8.3847844"><ele>204.0</ele><time>2026-05-03T08:33:35.981Z</time></trkpt><trkpt lat="44.2276425" lon="8.3846347"><ele>205.0</ele><time>2026-05-03T08:33:36.98Z</time></trkpt><trkpt lat="44.2276494" lon="8.384488"><ele>206.0</ele><time>2026-05-03T08:33:37.98Z</time></trkpt><trkpt lat="44.227665" lon="8.3843463"><ele>206.5</ele><time>2026-05-03T08:33:38.981Z</time></trkpt><trkpt lat="44.2277058" lon="8.3842054"><ele>207.0</ele><time>2026-05-03T08:33:39.98Z</time></trkpt><trkpt lat="44.2277634" lon="8.3840627"><ele>207.5</ele><time>2026-05-03T08:33:40.98Z</time></trkpt><trkpt lat="44.2278291" lon="8.3839206"><ele>208.0</ele><time>2026-05-03T08:33:41.981Z</time></trkpt><trkpt lat="44.2278935" lon="8.3837842"><ele>209.0</ele><time>2026-05-03T08:33:42.981Z</time></trkpt><trkpt lat="44.2279552" lon="8.3836456"><ele>210.0</ele><time>2026-05-03T08:33:43.981Z</time></trkpt><trkpt lat="44.2280152" lon="8.3835143"><ele>211.0</ele><time>2026-05-03T08:33:44.981Z</time></trkpt><trkpt lat="44.228077" lon="8.3833991"><ele>212.0</ele><time>2026-05-03T08:33:45.981Z</time></trkpt><trkpt lat="44.2281589" lon="8.3833111"><ele>213.0</ele><time>2026-05-03T08:33:46.981Z</time></trkpt><trkpt lat="44.2282631" lon="8.383252"><ele>216.75</ele><time>2026-05-03T08:33:47.981Z</time></trkpt><trkpt lat="44.2283737" lon="8.3832013"><ele>220.5</ele><time>2026-05-03T08:33:48.98Z</time></trkpt><trkpt lat="44.2284805" lon="8.3831598"><ele>224.25</ele><time>2026-05-03T08:33:49.981Z</time></trkpt><trkpt lat="44.2285834" lon="8.3831195"><ele>228.0</ele><time>2026-05-03T08:33:50.982Z</time></trkpt><trkpt lat="44.2286989" lon="8.3830966"><ele>228.0</ele><time>2026-05-03T08:33:51.982Z</time></trkpt><trkpt lat="44.2288322" lon="8.3830834"><ele>228.0</ele><time>2026-05-03T08:33:52.981Z</time></trkpt><trkpt lat="44.2289525" lon="8.3831091"><ele>228.0</ele><time>2026-05-03T08:33:53.982Z</time></trkpt><trkpt lat="44.2290626" lon="8.383144"><ele>228.0</ele><time>2026-05-03T08:33:54.981Z</time></trkpt><trkpt lat="44.2291706" lon="8.3831668"><ele>227.60000000000002</ele><time>2026-05-03T08:33:55.982Z</time></trkpt><trkpt lat="44.2292734" lon="8.3831718"><ele>227.20000000000002</ele><time>2026-05-03T08:33:56.982Z</time></trkpt><trkpt lat="44.2293671" lon="8.3831401"><ele>226.8</ele><time>2026-05-03T08:33:57.981Z</time></trkpt><trkpt lat="44.2294583" lon="8.3830708"><ele>226.4</ele><time>2026-05-03T08:33:58.981Z</time></trkpt><trkpt lat="44.2295301" lon="8.3829888"><ele>226.0</ele><time>2026-05-03T08:33:59.981Z</time></trkpt><trkpt lat="44.2295883" lon="8.382879"><ele>231.8</ele><time>2026-05-03T08:34:00.981Z</time></trkpt><trkpt lat="44.22964" lon="8.3827554"><ele>237.60000000000002</ele><time>2026-05-03T08:34:01.981Z</time></trkpt><trkpt lat="44.2296778" lon="8.3826252"><ele>243.4</ele><time>2026-05-03T08:34:02.981Z</time></trkpt><trkpt lat="44.2297025" lon="8.3824861"><ele>249.2</ele><time>2026-05-03T08:34:03.982Z</time></trkpt><trkpt lat="44.2296974" lon="8.3823196"><ele>255.0</ele><time>2026-05-03T08:34:04.982Z</time></trkpt><trkpt lat="44.2296637" lon="8.3821532"><ele>255.5</ele><time>2026-05-03T08:34:05.981Z</time></trkpt><trkpt lat="44.2296069" lon="8.3819978"><ele>256.0</ele><time>2026-05-03T08:34:06.982Z</time></trkpt><trkpt lat="44.2295346" lon="8.3818578"><ele>256.5</ele><time>2026-05-03T08:34:07.982Z</time></trkpt><trkpt lat="44.2294584" lon="8.381724"><ele>257.0</ele><time>2026-05-03T08:34:08.981Z</time></trkpt><trkpt lat="44.2293855" lon="8.3815905"><ele>257.0</ele><time>2026-05-03T08:34:09.981Z</time></trkpt><trkpt lat="44.2293155" lon="8.3814584"><ele>257.0</ele><time>2026-05-03T08:34:10.982Z</time></trkpt><trkpt lat="44.2292513" lon="8.3813318"><ele>257.0</ele><time>2026-05-03T08:34:11.981Z</time></trkpt><trkpt lat="44.2291893" lon="8.3812208"><ele>257.0</ele><time>2026-05-03T08:34:12.981Z</time></trkpt><trkpt lat="44.2291252" lon="8.3811111"><ele>257.0</ele><time>2026-05-03T08:34:13.982Z</time></trkpt><trkpt lat="44.2290544" lon="8.3810077"><ele>257.8</ele><time>2026-05-03T08:34:14.982Z</time></trkpt><trkpt lat="44.2289697" lon="8.3809371"><ele>258.6</ele><time>2026-05-03T08:34:15.981Z</time></trkpt><trkpt lat="44.2288667" lon="8.3808946"><ele>259.40000000000003</ele><time>2026-05-03T08:34:16.982Z</time></trkpt><trkpt lat="44.2287515" lon="8.3808924"><ele>260.2</ele><time>2026-05-03T08:34:17.982Z</time></trkpt><trkpt lat="44.2286324" lon="8.3809089"><ele>261.0</ele><time>2026-05-03T08:34:18.982Z</time></trkpt><trkpt lat="44.2285098" lon="8.3809277"><ele>261.0</ele><time>2026-05-03T08:34:19.981Z</time></trkpt><trkpt lat="44.2283996" lon="8.3809362"><ele>261.0</ele><time>2026-05-03T08:34:20.982Z</time></trkpt><trkpt lat="44.2282994" lon="8.3809038"><ele>261.0</ele><time>2026-05-03T08:34:21.982Z</time></trkpt><trkpt lat="44.2281737" lon="8.3808558"><ele>261.0</ele><time>2026-05-03T08:34:22.982Z</time></trkpt><trkpt lat="44.2281009" lon="8.3807636"><ele>261.0</ele><time>2026-05-03T08:34:23.982Z</time></trkpt><trkpt lat="44.2280621" lon="8.3806335"><ele>258.2</ele><time>2026-05-03T08:34:24.982Z</time></trkpt><trkpt lat="44.2280284" lon="8.3805007"><ele>255.40000000000003</ele><time>2026-05-03T08:34:25.982Z</time></trkpt><trkpt lat="44.2280227" lon="8.3803529"><ele>252.6</ele><time>2026-05-03T08:34:26.981Z</time></trkpt><trkpt lat="44.2280127" lon="8.3802027"><ele>249.8</ele><time>2026-05-03T08:34:27.981Z</time></trkpt><trkpt lat="44.2279991" lon="8.3800536"><ele>247.0</ele><time>2026-05-03T08:34:28.981Z</time></trkpt><trkpt lat="44.2279887" lon="8.3799075"><ele>247.0</ele><time>2026-05-03T08:34:29.982Z</time></trkpt><trkpt lat="44.227973" lon="8.3797596"><ele>247.0</ele><time>2026-05-03T08:34:30.982Z</time></trkpt><trkpt lat="44.227963" lon="8.3796143"><ele>247.0</ele><time>2026-05-03T08:34:31.982Z</time></trkpt><trkpt lat="44.2279575" lon="8.3794649"><ele>247.0</ele><time>2026-05-03T08:34:32.982Z</time></trkpt><trkpt lat="44.2279697" lon="8.3793131"><ele>247.0</ele><time>2026-05-03T08:34:33.981Z</time></trkpt><trkpt lat="44.2280041" lon="8.3791552"><ele>249.25</ele><time>2026-05-03T08:34:34.982Z</time></trkpt><trkpt lat="44.2280648" lon="8.3790016"><ele>251.5</ele><time>2026-05-03T08:34:35.982Z</time></trkpt><trkpt lat="44.2281378" lon="8.3788625"><ele>253.75</ele><time>2026-05-03T08:34:36.981Z</time></trkpt><trkpt lat="44.2282076" lon="8.3787312"><ele>256.0</ele><time>2026-05-03T08:34:37.982Z</time></trkpt><trkpt lat="44.228276" lon="8.3785995"><ele>264.25</ele><time>2026-05-03T08:34:38.982Z</time></trkpt><trkpt lat="44.2283335" lon="8.378454"><ele>272.5</ele><time>2026-05-03T08:34:39.982Z</time></trkpt><trkpt lat="44.2283511" lon="8.3783013"><ele>280.75</ele><time>2026-05-03T08:34:40.982Z</time></trkpt><trkpt lat="44.2283457" lon="8.3781369"><ele>289.0</ele><time>2026-05-03T08:34:41.981Z</time></trkpt><trkpt lat="44.2283306" lon="8.3779604"><ele>289.75</ele><time>2026-05-03T08:34:42.982Z</time></trkpt><trkpt lat="44.2283121" lon="8.3777849"><ele>290.5</ele><time>2026-05-03T08:34:43.982Z</time></trkpt><trkpt lat="44.2282977" lon="8.377605"><ele>291.25</ele><time>2026-05-03T08:34:44.982Z</time></trkpt><trkpt lat="44.228285" lon="8.3774244"><ele>292.0</ele><time>2026-05-03T08:34:45.982Z</time></trkpt><trkpt lat="44.2282746" lon="8.3772412"><ele>291.5</ele><time>2026-05-03T08:34:46.982Z</time></trkpt><trkpt lat="44.228269" lon="8.377062"><ele>291.0</ele><time>2026-05-03T08:34:47.981Z</time></trkpt><trkpt lat="44.2282731" lon="8.3768847"><ele>290.5</ele><time>2026-05-03T08:34:48.982Z</time></trkpt><trkpt lat="44.228292" lon="8.3767184"><ele>290.0</ele><time>2026-05-03T08:34:49.981Z</time></trkpt><trkpt lat="44.2283257" lon="8.3765656"><ele>290.0</ele><time>2026-05-03T08:34:50.982Z</time></trkpt><trkpt lat="44.2283663" lon="8.3764145"><ele>290.0</ele><time>2026-05-03T08:34:51.981Z</time></trkpt><trkpt lat="44.2284054" lon="8.3762623"><ele>290.0</ele><time>2026-05-03T08:34:52.982Z</time></trkpt><trkpt lat="44.2284454" lon="8.3761018"><ele>290.0</ele><time>2026-05-03T08:34:53.981Z</time></trkpt><trkpt lat="44.2284869" lon="8.3759402"><ele>288.75</ele><time>2026-05-03T08:34:54.981Z</time></trkpt><trkpt lat="44.2285303" lon="8.37578"><ele>287.5</ele><time>2026-05-03T08:34:55.982Z</time></trkpt><trkpt lat="44.2285714" lon="8.3756235"><ele>286.25</ele><time>2026-05-03T08:34:56.981Z</time></trkpt><trkpt lat="44.228612" lon="8.3754671"><ele>285.0</ele><time>2026-05-03T08:34:57.981Z</time></trkpt><trkpt lat="44.2286527" lon="8.3753104"><ele>283.8</ele><time>2026-05-03T08:34:58.983Z</time></trkpt><trkpt lat="44.2286911" lon="8.3751675"><ele>282.6</ele><time>2026-05-03T08:34:59.983Z</time></trkpt><trkpt lat="44.2287245" lon="8.3750224"><ele>281.4</ele><time>2026-05-03T08:35:00.983Z</time></trkpt><trkpt lat="44.2287506" lon="8.3748757"><ele>280.2</ele><time>2026-05-03T08:35:01.983Z</time></trkpt><trkpt lat="44.2287772" lon="8.37473"><ele>279.0</ele><time>2026-05-03T08:35:02.983Z</time></trkpt><trkpt lat="44.2288059" lon="8.3745861"><ele>277.8</ele><time>2026-05-03T08:35:03.983Z</time></trkpt><trkpt lat="44.2288423" lon="8.3744497"><ele>276.59999999999997</ele><time>2026-05-03T08:35:04.983Z</time></trkpt><trkpt lat="44.2288938" lon="8.3743193"><ele>275.4</ele><time>2026-05-03T08:35:05.982Z</time></trkpt><trkpt lat="44.2289551" lon="8.3742054"><ele>274.2</ele><time>2026-05-03T08:35:06.983Z</time></trkpt><trkpt lat="44.2290552" lon="8.3741045"><ele>273.0</ele><time>2026-05-03T08:35:07.982Z</time></trkpt><trkpt lat="44.2291803" lon="8.3740145"><ele>277.25</ele><time>2026-05-03T08:35:08.983Z</time></trkpt><trkpt lat="44.2292988" lon="8.3739512"><ele>281.5</ele><time>2026-05-03T08:35:09.983Z</time></trkpt><trkpt lat="44.2294157" lon="8.3738916"><ele>285.75</ele><time>2026-05-03T08:35:10.983Z</time></trkpt><trkpt lat="44.2295268" lon="8.3738214"><ele>290.0</ele><time>2026-05-03T08:35:11.982Z</time></trkpt><trkpt lat="44.2296368" lon="8.3737502"><ele>290.0</ele><time>2026-05-03T08:35:12.983Z</time></trkpt><trkpt lat="44.2297449" lon="8.3736784"><ele>290.0</ele><time>2026-05-03T08:35:13.983Z</time></trkpt><trkpt lat="44.2298548" lon="8.3736059"><ele>290.0</ele><time>2026-05-03T08:35:14.982Z</time></trkpt><trkpt lat="44.2299642" lon="8.373536"><ele>290.0</ele><time>2026-05-03T08:35:15.983Z</time></trkpt><trkpt lat="44.2300757" lon="8.3734668"><ele>295.75</ele><time>2026-05-03T08:35:16.983Z</time></trkpt><trkpt lat="44.230185" lon="8.3733936"><ele>301.5</ele><time>2026-05-03T08:35:17.982Z</time></trkpt><trkpt lat="44.2302852" lon="8.3733043"><ele>307.25</ele><time>2026-05-03T08:35:18.982Z</time></trkpt><trkpt lat="44.2303736" lon="8.3731824"><ele>313.0</ele><time>2026-05-03T08:35:19.983Z</time></trkpt><trkpt lat="44.2304464" lon="8.3730409"><ele>312.0</ele><time>2026-05-03T08:35:20.983Z</time></trkpt><trkpt lat="44.2305095" lon="8.3728805"><ele>311.0</ele><time>2026-05-03T08:35:21.982Z</time></trkpt><trkpt lat="44.2305552" lon="8.3727008"><ele>310.0</ele><time>2026-05-03T08:35:22.982Z</time></trkpt><trkpt lat="44.2305801" lon="8.372511"><ele>309.0</ele><time>2026-05-03T08:35:23.983Z</time></trkpt><trkpt lat="44.2305885" lon="8.3723184"><ele>310.75</ele><time>2026-05-03T08:35:24.983Z</time></trkpt><trkpt lat="44.2305924" lon="8.3721282"><ele>312.5</ele><time>2026-05-03T08:35:25.983Z</time></trkpt><trkpt lat="44.230595" lon="8.3719414"><ele>314.25</ele><time>2026-05-03T08:35:26.983Z</time></trkpt><trkpt lat="44.2306032" lon="8.3717586"><ele>316.0</ele><time>2026-05-03T08:35:27.983Z</time></trkpt><trkpt lat="44.2306165" lon="8.3715853"><ele>316.0</ele><time>2026-05-03T08:35:28.983Z</time></trkpt><trkpt lat="44.2306319" lon="8.3714097"><ele>316.0</ele><time>2026-05-03T08:35:29.982Z</time></trkpt><trkpt lat="44.2306469" lon="8.3712316"><ele>316.0</ele><time>2026-05-03T08:35:30.983Z</time></trkpt><trkpt lat="44.2306611" lon="8.3710524"><ele>316.0</ele><time>2026-05-03T08:35:31.983Z</time></trkpt><trkpt lat="44.2306735" lon="8.37088"><ele>316.0</ele><time>2026-05-03T08:35:32.982Z</time></trkpt><trkpt lat="44.2306837" lon="8.3707243"><ele>316.0</ele><time>2026-05-03T08:35:33.983Z</time></trkpt><trkpt lat="44.2306981" lon="8.3705822"><ele>316.0</ele><time>2026-05-03T08:35:34.983Z</time></trkpt><trkpt lat="44.2307193" lon="8.3704547"><ele>316.0</ele><time>2026-05-03T08:35:35.983Z</time></trkpt><trkpt lat="44.2307565" lon="8.370343"><ele>316.0</ele><time>2026-05-03T08:35:36.983Z</time></trkpt><trkpt lat="44.2308178" lon="8.3702389"><ele>316.0</ele><time>2026-05-03T08:35:37.983Z</time></trkpt><trkpt lat="44.2308896" lon="8.3701463"><ele>316.0</ele><time>2026-05-03T08:35:38.983Z</time></trkpt><trkpt lat="44.2309802" lon="8.3700551"><ele>316.0</ele><time>2026-05-03T08:35:39.983Z</time></trkpt><trkpt lat="44.2310729" lon="8.369941"><ele>316.0</ele><time>2026-05-03T08:35:40.982Z</time></trkpt><trkpt lat="44.2311719" lon="8.3698141"><ele>313.75</ele><time>2026-05-03T08:35:41.982Z</time></trkpt><trkpt lat="44.2312668" lon="8.3696804"><ele>311.5</ele><time>2026-05-03T08:35:42.983Z</time></trkpt><trkpt lat="44.2313455" lon="8.3695509"><ele>309.25</ele><time>2026-05-03T08:35:43.982Z</time></trkpt><trkpt lat="44.2314024" lon="8.3694037"><ele>307.0</ele><time>2026-05-03T08:35:44.983Z</time></trkpt><trkpt lat="44.2314324" lon="8.3692405"><ele>307.0</ele><time>2026-05-03T08:35:45.983Z</time></trkpt><trkpt lat="44.2314405" lon="8.3690598"><ele>307.0</ele><time>2026-05-03T08:35:46.982Z</time></trkpt><trkpt lat="44.2314343" lon="8.3688608"><ele>307.0</ele><time>2026-05-03T08:35:47.983Z</time></trkpt><trkpt lat="44.2314338" lon="8.3686693"><ele>307.0</ele><time>2026-05-03T08:35:48.982Z</time></trkpt><trkpt lat="44.2314381" lon="8.3684763"><ele>305.75</ele><time>2026-05-03T08:35:49.983Z</time></trkpt><trkpt lat="44.2314426" lon="8.3682882"><ele>304.5</ele><time>2026-05-03T08:35:50.982Z</time></trkpt><trkpt lat="44.231449" lon="8.3681056"><ele>303.25</ele><time>2026-05-03T08:35:51.982Z</time></trkpt><trkpt lat="44.2314546" lon="8.3679347"><ele>302.0</ele><time>2026-05-03T08:35:52.982Z</time></trkpt><trkpt lat="44.2314583" lon="8.3677669"><ele>302.0</ele><time>2026-05-03T08:35:53.982Z</time></trkpt><trkpt lat="44.2314617" lon="8.3676009"><ele>302.0</ele><time>2026-05-03T08:35:54.983Z</time></trkpt><trkpt lat="44.2314646" lon="8.3674391"><ele>302.0</ele><time>2026-05-03T08:35:55.983Z</time></trkpt><trkpt lat="44.2314662" lon="8.3672797"><ele>302.0</ele><time>2026-05-03T08:35:56.982Z</time></trkpt><trkpt lat="44.2314726" lon="8.367137"><ele>304.6</ele><time>2026-05-03T08:35:57.983Z</time></trkpt><trkpt lat="44.2314801" lon="8.3669964"><ele>307.2</ele><time>2026-05-03T08:35:58.982Z</time></trkpt><trkpt lat="44.2314786" lon="8.3668542"><ele>309.8</ele><time>2026-05-03T08:35:59.982Z</time></trkpt><trkpt lat="44.2314598" lon="8.3667129"><ele>312.4</ele><time>2026-05-03T08:36:00.983Z</time></trkpt><trkpt lat="44.2314142" lon="8.3665677"><ele>315.0</ele><time>2026-05-03T08:36:01.983Z</time></trkpt><trkpt lat="44.2313246" lon="8.366439"><ele>323.0</ele><time>2026-05-03T08:36:02.982Z</time></trkpt><trkpt lat="44.2312151" lon="8.3663533"><ele>331.0</ele><time>2026-05-03T08:36:03.982Z</time></trkpt><trkpt lat="44.2310746" lon="8.366312"><ele>339.0</ele><time>2026-05-03T08:36:04.983Z</time></trkpt><trkpt lat="44.2309374" lon="8.3663137"><ele>347.0</ele><time>2026-05-03T08:36:05.983Z</time></trkpt><trkpt lat="44.230805" lon="8.3663421"><ele>339.75</ele><time>2026-05-03T08:36:06.984Z</time></trkpt><trkpt lat="44.2306788" lon="8.3663666"><ele>332.5</ele><time>2026-05-03T08:36:07.984Z</time></trkpt><trkpt lat="44.2305605" lon="8.3663877"><ele>325.25</ele><time>2026-05-03T08:36:08.983Z</time></trkpt><trkpt lat="44.2304538" lon="8.3664068"><ele>318.0</ele><time>2026-05-03T08:36:09.983Z</time></trkpt><trkpt lat="44.2303518" lon="8.3664354"><ele>318.0</ele><time>2026-05-03T08:36:10.984Z</time></trkpt><trkpt lat="44.2302599" lon="8.3664735"><ele>318.0</ele><time>2026-05-03T08:36:11.983Z</time></trkpt><trkpt lat="44.2301658" lon="8.3665427"><ele>318.0</ele><time>2026-05-03T08:36:12.984Z</time></trkpt><trkpt lat="44.2300639" lon="8.3666205"><ele>318.0</ele><time>2026-05-03T08:36:13.984Z</time></trkpt><trkpt lat="44.2299658" lon="8.3666824"><ele>318.0</ele><time>2026-05-03T08:36:14.983Z</time></trkpt><trkpt lat="44.2298687" lon="8.3667325"><ele>315.2</ele><time>2026-05-03T08:36:15.984Z</time></trkpt><trkpt lat="44.2297698" lon="8.3667664"><ele>312.4</ele><time>2026-05-03T08:36:16.983Z</time></trkpt><trkpt lat="44.2296683" lon="8.3667448"><ele>309.59999999999997</ele><time>2026-05-03T08:36:17.983Z</time></trkpt><trkpt lat="44.2295672" lon="8.3666877"><ele>306.8</ele><time>2026-05-03T08:36:18.983Z</time></trkpt><trkpt lat="44.2294735" lon="8.3666246"><ele>304.0</ele><time>2026-05-03T08:36:19.984Z</time></trkpt><trkpt lat="44.2293858" lon="8.3665634"><ele>304.0</ele><time>2026-05-03T08:36:20.984Z</time></trkpt><trkpt lat="44.2293031" lon="8.366502"><ele>304.0</ele><time>2026-05-03T08:36:21.984Z</time></trkpt><trkpt lat="44.2292161" lon="8.3664269"><ele>304.0</ele><time>2026-05-03T08:36:22.983Z</time></trkpt><trkpt lat="44.2291295" lon="8.3663208"><ele>304.0</ele><time>2026-05-03T08:36:23.984Z</time></trkpt><trkpt lat="44.2290492" lon="8.3661961"><ele>304.0</ele><time>2026-05-03T08:36:24.984Z</time></trkpt><trkpt lat="44.2289723" lon="8.3660577"><ele>305.0</ele><time>2026-05-03T08:36:25.983Z</time></trkpt><trkpt lat="44.2289012" lon="8.3659193"><ele>306.0</ele><time>2026-05-03T08:36:26.984Z</time></trkpt><trkpt lat="44.2288238" lon="8.3658071"><ele>307.0</ele><time>2026-05-03T08:36:27.984Z</time></trkpt><trkpt lat="44.2287344" lon="8.3657248"><ele>308.0</ele><time>2026-05-03T08:36:28.984Z</time></trkpt><trkpt lat="44.2286294" lon="8.3656823"><ele>308.0</ele><time>2026-05-03T08:36:29.984Z</time></trkpt><trkpt lat="44.2285261" lon="8.3656551"><ele>308.0</ele><time>2026-05-03T08:36:30.984Z</time></trkpt><trkpt lat="44.2284255" lon="8.3656216"><ele>308.0</ele><time>2026-05-03T08:36:31.984Z</time></trkpt><trkpt lat="44.2283277" lon="8.3655813"><ele>308.0</ele><time>2026-05-03T08:36:32.984Z</time></trkpt><trkpt lat="44.2282243" lon="8.3655326"><ele>308.0</ele><time>2026-05-03T08:36:33.984Z</time></trkpt><trkpt lat="44.2281162" lon="8.3655007"><ele>307.25</ele><time>2026-05-03T08:36:34.984Z</time></trkpt><trkpt lat="44.2280076" lon="8.365468"><ele>306.5</ele><time>2026-05-03T08:36:35.983Z</time></trkpt><trkpt lat="44.2278949" lon="8.3654294"><ele>305.75</ele><time>2026-05-03T08:36:36.984Z</time></trkpt><trkpt lat="44.2277826" lon="8.3653732"><ele>305.0</ele><time>2026-05-03T08:36:37.983Z</time></trkpt><trkpt lat="44.2276754" lon="8.3652882"><ele>305.0</ele><time>2026-05-03T08:36:38.984Z</time></trkpt><trkpt lat="44.2275738" lon="8.3651844"><ele>305.0</ele><time>2026-05-03T08:36:39.984Z</time></trkpt><trkpt lat="44.2274757" lon="8.3650778"><ele>305.0</ele><time>2026-05-03T08:36:40.984Z</time></trkpt><trkpt lat="44.2273879" lon="8.3649834"><ele>305.0</ele><time>2026-05-03T08:36:41.984Z</time></trkpt><trkpt lat="44.2273097" lon="8.3649153"><ele>305.0</ele><time>2026-05-03T08:36:42.983Z</time></trkpt><trkpt lat="44.2272068" lon="8.3648717"><ele>305.0</ele><time>2026-05-03T08:36:43.984Z</time></trkpt><trkpt lat="44.2270967" lon="8.3648666"><ele>305.0</ele><time>2026-05-03T08:36:44.983Z</time></trkpt><trkpt lat="44.226982" lon="8.3649024"><ele>305.0</ele><time>2026-05-03T08:36:45.984Z</time></trkpt><trkpt lat="44.2268613" lon="8.3649542"><ele>305.0</ele><time>2026-05-03T08:36:46.984Z</time></trkpt><trkpt lat="44.2267432" lon="8.3650068"><ele>305.0</ele><time>2026-05-03T08:36:47.983Z</time></trkpt><trkpt lat="44.2266339" lon="8.3650654"><ele>305.0</ele><time>2026-05-03T08:36:48.983Z</time></trkpt><trkpt lat="44.226533" lon="8.3651284"><ele>305.0</ele><time>2026-05-03T08:36:49.984Z</time></trkpt><trkpt lat="44.2264404" lon="8.3652159"><ele>305.4</ele><time>2026-05-03T08:36:50.983Z</time></trkpt><trkpt lat="44.2263478" lon="8.3653159"><ele>305.8</ele><time>2026-05-03T08:36:51.984Z</time></trkpt><trkpt lat="44.2262561" lon="8.3654207"><ele>306.2</ele><time>2026-05-03T08:36:52.984Z</time></trkpt><trkpt lat="44.226172" lon="8.3655137"><ele>306.6</ele><time>2026-05-03T08:36:53.983Z</time></trkpt><trkpt lat="44.2260923" lon="8.3655954"><ele>307.0</ele><time>2026-05-03T08:36:54.984Z</time></trkpt><trkpt lat="44.2260254" lon="8.3656722"><ele>308.4</ele><time>2026-05-03T08:36:55.984Z</time></trkpt><trkpt lat="44.2259537" lon="8.3657476"><ele>309.79999999999995</ele><time>2026-05-03T08:36:56.983Z</time></trkpt><trkpt lat="44.2258905" lon="8.3658015"><ele>311.2</ele><time>2026-05-03T08:36:57.984Z</time></trkpt><trkpt lat="44.2257911" lon="8.3658654"><ele>312.59999999999997</ele><time>2026-05-03T08:36:59.984Z</time></trkpt><trkpt lat="44.2256724" lon="8.365852"><ele>314.0</ele><time>2026-05-03T08:37:01.984Z</time></trkpt><trkpt lat="44.225598" lon="8.3658141"><ele>314.59999999999997</ele><time>2026-05-03T08:37:02.983Z</time></trkpt><trkpt lat="44.2255229" lon="8.3657432"><ele>315.2</ele><time>2026-05-03T08:37:03.984Z</time></trkpt><trkpt lat="44.2254519" lon="8.36565"><ele>315.79999999999995</ele><time>2026-05-03T08:37:04.984Z</time></trkpt><trkpt lat="44.2253822" lon="8.3655458"><ele>316.4</ele><time>2026-05-03T08:37:05.983Z</time></trkpt><trkpt lat="44.2253135" lon="8.3654333"><ele>317.0</ele><time>2026-05-03T08:37:06.984Z</time></trkpt><trkpt lat="44.2252451" lon="8.3653224"><ele>317.0</ele><time>2026-05-03T08:37:07.983Z</time></trkpt><trkpt lat="44.2251818" lon="8.3652189"><ele>317.0</ele><time>2026-05-03T08:37:08.984Z</time></trkpt><trkpt lat="44.2251266" lon="8.3651269"><ele>317.0</ele><time>2026-05-03T08:37:09.984Z</time></trkpt><trkpt lat="44.225078" lon="8.3650343"><ele>317.0</ele><time>2026-05-03T08:37:10.983Z</time></trkpt><trkpt lat="44.2250313" lon="8.3649411"><ele>317.0</ele><time>2026-05-03T08:37:11.983Z</time></trkpt><trkpt lat="44.224984" lon="8.3648469"><ele>317.0</ele><time>2026-05-03T08:37:12.985Z</time></trkpt><trkpt lat="44.2249273" lon="8.3647416"><ele>315.25</ele><time>2026-05-03T08:37:13.985Z</time></trkpt><trkpt lat="44.2248549" lon="8.3646233"><ele>313.5</ele><time>2026-05-03T08:37:14.985Z</time></trkpt><trkpt lat="44.2247793" lon="8.3644901"><ele>311.75</ele><time>2026-05-03T08:37:15.984Z</time></trkpt><trkpt lat="44.2247059" lon="8.3643534"><ele>310.0</ele><time>2026-05-03T08:37:16.985Z</time></trkpt><trkpt lat="44.2246312" lon="8.36421"><ele>310.25</ele><time>2026-05-03T08:37:17.985Z</time></trkpt><trkpt lat="44.224557" lon="8.3640674"><ele>310.5</ele><time>2026-05-03T08:37:18.985Z</time></trkpt><trkpt lat="44.224477" lon="8.3639372"><ele>310.75</ele><time>2026-05-03T08:37:19.985Z</time></trkpt><trkpt lat="44.224388" lon="8.3638154"><ele>311.0</ele><time>2026-05-03T08:37:20.985Z</time></trkpt><trkpt lat="44.2242977" lon="8.3637045"><ele>311.0</ele><time>2026-05-03T08:37:21.984Z</time></trkpt><trkpt lat="44.2241939" lon="8.363603"><ele>311.0</ele><time>2026-05-03T08:37:22.985Z</time></trkpt><trkpt lat="44.2240734" lon="8.3635452"><ele>311.0</ele><time>2026-05-03T08:37:23.985Z</time></trkpt><trkpt lat="44.2239531" lon="8.3635036"><ele>311.0</ele><time>2026-05-03T08:37:24.985Z</time></trkpt><trkpt lat="44.2238314" lon="8.3634716"><ele>312.6</ele><time>2026-05-03T08:37:25.985Z</time></trkpt><trkpt lat="44.2237195" lon="8.3634378"><ele>314.20000000000005</ele><time>2026-05-03T08:37:26.985Z</time></trkpt><trkpt lat="44.2236216" lon="8.3633712"><ele>315.79999999999995</ele><time>2026-05-03T08:37:27.985Z</time></trkpt><trkpt lat="44.2235445" lon="8.3632647"><ele>317.4</ele><time>2026-05-03T08:37:28.985Z</time></trkpt><trkpt lat="44.2234813" lon="8.3631319"><ele>319.0</ele><time>2026-05-03T08:37:29.985Z</time></trkpt><trkpt lat="44.2234445" lon="8.3629937"><ele>315.2</ele><time>2026-05-03T08:37:30.985Z</time></trkpt><trkpt lat="44.2234265" lon="8.362833"><ele>311.4</ele><time>2026-05-03T08:37:31.984Z</time></trkpt><trkpt lat="44.223408" lon="8.3627099"><ele>307.6</ele><time>2026-05-03T08:37:32.985Z</time></trkpt><trkpt lat="44.22339" lon="8.3626064"><ele>303.8</ele><time>2026-05-03T08:37:33.984Z</time></trkpt><trkpt lat="44.2233432" lon="8.3625061"><ele>300.0</ele><time>2026-05-03T08:37:34.985Z</time></trkpt><trkpt lat="44.2232733" lon="8.3624175"><ele>300.0</ele><time>2026-05-03T08:37:35.985Z</time></trkpt><trkpt lat="44.2231916" lon="8.362355"><ele>300.0</ele><time>2026-05-03T08:37:36.985Z</time></trkpt><trkpt lat="44.2230871" lon="8.3623138"><ele>300.0</ele><time>2026-05-03T08:37:37.984Z</time></trkpt><trkpt lat="44.2229744" lon="8.3622695"><ele>300.0</ele><time>2026-05-03T08:37:38.985Z</time></trkpt><trkpt lat="44.2228596" lon="8.3622308"><ele>300.0</ele><time>2026-05-03T08:37:39.985Z</time></trkpt><trkpt lat="44.2227413" lon="8.3621861"><ele>296.0</ele><time>2026-05-03T08:37:40.984Z</time></trkpt><trkpt lat="44.2226219" lon="8.3621266"><ele>292.0</ele><time>2026-05-03T08:37:41.985Z</time></trkpt><trkpt lat="44.2225044" lon="8.3620679"><ele>288.0</ele><time>2026-05-03T08:37:42.984Z</time></trkpt><trkpt lat="44.2223841" lon="8.3620118"><ele>284.0</ele><time>2026-05-03T08:37:43.984Z</time></trkpt><trkpt lat="44.2222673" lon="8.3619631"><ele>284.0</ele><time>2026-05-03T08:37:44.985Z</time></trkpt><trkpt lat="44.2221546" lon="8.3619173"><ele>284.0</ele><time>2026-05-03T08:37:45.985Z</time></trkpt><trkpt lat="44.2220425" lon="8.361868"><ele>284.0</ele><time>2026-05-03T08:37:46.984Z</time></trkpt><trkpt lat="44.2219381" lon="8.3618151"><ele>284.0</ele><time>2026-05-03T08:37:47.984Z</time></trkpt><trkpt lat="44.2218355" lon="8.3617568"><ele>284.0</ele><time>2026-05-03T08:37:48.985Z</time></trkpt><trkpt lat="44.2217367" lon="8.3617006"><ele>284.0</ele><time>2026-05-03T08:37:49.985Z</time></trkpt><trkpt lat="44.221638" lon="8.3616549"><ele>284.0</ele><time>2026-05-03T08:37:50.984Z</time></trkpt><trkpt lat="44.2215197" lon="8.3616223"><ele>284.0</ele><time>2026-05-03T08:37:51.985Z</time></trkpt><trkpt lat="44.221393" lon="8.3615999"><ele>283.5</ele><time>2026-05-03T08:37:52.986Z</time></trkpt><trkpt lat="44.2212663" lon="8.3615882"><ele>283.0</ele><time>2026-05-03T08:37:53.985Z</time></trkpt><trkpt lat="44.2211403" lon="8.3615874"><ele>282.5</ele><time>2026-05-03T08:37:54.984Z</time></trkpt><trkpt lat="44.2210215" lon="8.3616075"><ele>282.0</ele><time>2026-05-03T08:37:55.984Z</time></trkpt><trkpt lat="44.2209146" lon="8.3616376"><ele>282.0</ele><time>2026-05-03T08:37:56.984Z</time></trkpt><trkpt lat="44.2208142" lon="8.3616727"><ele>282.0</ele><time>2026-05-03T08:37:57.985Z</time></trkpt><trkpt lat="44.2207136" lon="8.3617062"><ele>282.0</ele><time>2026-05-03T08:37:58.985Z</time></trkpt><trkpt lat="44.2206122" lon="8.3617273"><ele>282.0</ele><time>2026-05-03T08:37:59.985Z</time></trkpt><trkpt lat="44.2205127" lon="8.3617181"><ele>282.0</ele><time>2026-05-03T08:38:00.985Z</time></trkpt><trkpt lat="44.2204205" lon="8.3617116"><ele>279.8</ele><time>2026-05-03T08:38:01.984Z</time></trkpt><trkpt lat="44.2203234" lon="8.3617209"><ele>277.6</ele><time>2026-05-03T08:38:02.984Z</time></trkpt><trkpt lat="44.2202215" lon="8.3617519"><ele>275.40000000000003</ele><time>2026-05-03T08:38:03.984Z</time></trkpt><trkpt lat="44.2201131" lon="8.3618006"><ele>273.2</ele><time>2026-05-03T08:38:04.984Z</time></trkpt><trkpt lat="44.2200072" lon="8.3618546"><ele>271.0</ele><time>2026-05-03T08:38:05.985Z</time></trkpt><trkpt lat="44.219897" lon="8.3619028"><ele>269.6</ele><time>2026-05-03T08:38:06.984Z</time></trkpt><trkpt lat="44.219794" lon="8.361945"><ele>268.20000000000005</ele><time>2026-05-03T08:38:07.984Z</time></trkpt><trkpt lat="44.2196975" lon="8.3619806"><ele>266.79999999999995</ele><time>2026-05-03T08:38:08.985Z</time></trkpt><trkpt lat="44.2195989" lon="8.3620046"><ele>265.4</ele><time>2026-05-03T08:38:09.985Z</time></trkpt><trkpt lat="44.2195047" lon="8.3620159"><ele>264.0</ele><time>2026-05-03T08:38:10.985Z</time></trkpt><trkpt lat="44.2194361" lon="8.3620062"><ele>264.0</ele><time>2026-05-03T08:38:11.985Z</time></trkpt><trkpt lat="44.2193334" lon="8.3619572"><ele>264.0</ele><time>2026-05-03T08:38:13.985Z</time></trkpt><trkpt lat="44.2192859" lon="8.3618708"><ele>264.0</ele><time>2026-05-03T08:38:15.985Z</time></trkpt><trkpt lat="44.219278" lon="8.3617044"><ele>264.0</ele><time>2026-05-03T08:38:17.985Z</time></trkpt><trkpt lat="44.2193105" lon="8.3616032"><ele>264.0</ele><time>2026-05-03T08:38:18.986Z</time></trkpt><trkpt lat="44.2193709" lon="8.3614994"><ele>264.0</ele><time>2026-05-03T08:38:19.986Z</time></trkpt><trkpt lat="44.2194567" lon="8.3613831"><ele>264.0</ele><time>2026-05-03T08:38:20.986Z</time></trkpt><trkpt lat="44.2195466" lon="8.3612785"><ele>264.0</ele><time>2026-05-03T08:38:21.985Z</time></trkpt><trkpt lat="44.2196394" lon="8.3611854"><ele>264.0</ele><time>2026-05-03T08:38:22.985Z</time></trkpt><trkpt lat="44.2197201" lon="8.3611102"><ele>264.0</ele><time>2026-05-03T08:38:23.985Z</time></trkpt><trkpt lat="44.2197886" lon="8.3610173"><ele>262.3333333333333</ele><time>2026-05-03T08:38:24.986Z</time></trkpt><trkpt lat="44.2198531" lon="8.360936"><ele>260.6666666666667</ele><time>2026-05-03T08:38:25.986Z</time></trkpt><trkpt lat="44.2199353" lon="8.3608886"><ele>259.0</ele><time>2026-05-03T08:38:26.986Z</time></trkpt><trkpt lat="44.2200215" lon="8.360862"><ele>257.33333333333337</ele><time>2026-05-03T08:38:27.986Z</time></trkpt><trkpt lat="44.220105" lon="8.360854"><ele>255.66666666666669</ele><time>2026-05-03T08:38:28.985Z</time></trkpt><trkpt lat="44.2201791" lon="8.3608613"><ele>254.0</ele><time>2026-05-03T08:38:29.986Z</time></trkpt><trkpt lat="44.2202429" lon="8.3608838"><ele>254.0</ele><time>2026-05-03T08:38:30.986Z</time></trkpt><trkpt lat="44.2203549" lon="8.3608938"><ele>253.99999999999997</ele><time>2026-05-03T08:38:32.986Z</time></trkpt><trkpt lat="44.2204463" lon="8.3607626"><ele>253.99999999999997</ele><time>2026-05-03T08:38:34.986Z</time></trkpt><trkpt lat="44.220478" lon="8.3606725"><ele>254.0</ele><time>2026-05-03T08:38:35.986Z</time></trkpt><trkpt lat="44.2204899" lon="8.3605346"><ele>254.0</ele><time>2026-05-03T08:38:36.985Z</time></trkpt><trkpt lat="44.2205187" lon="8.3604149"><ele>253.2</ele><time>2026-05-03T08:38:37.986Z</time></trkpt><trkpt lat="44.2205631" lon="8.3603003"><ele>252.39999999999998</ele><time>2026-05-03T08:38:38.985Z</time></trkpt><trkpt lat="44.2206149" lon="8.3601702"><ele>251.6</ele><time>2026-05-03T08:38:39.986Z</time></trkpt><trkpt lat="44.2206788" lon="8.3600296"><ele>250.8</ele><time>2026-05-03T08:38:40.985Z</time></trkpt><trkpt lat="44.2207474" lon="8.3598946"><ele>250.0</ele><time>2026-05-03T08:38:41.986Z</time></trkpt><trkpt lat="44.2208201" lon="8.3597558"><ele>247.0</ele><time>2026-05-03T08:38:42.986Z</time></trkpt><trkpt lat="44.2208918" lon="8.3596324"><ele>244.0</ele><time>2026-05-03T08:38:43.985Z</time></trkpt><trkpt lat="44.2209573" lon="8.3595278"><ele>241.0</ele><time>2026-05-03T08:38:44.985Z</time></trkpt><trkpt lat="44.2210191" lon="8.3594592"><ele>238.0</ele><time>2026-05-03T08:38:45.985Z</time></trkpt><trkpt lat="44.2210893" lon="8.3593982"><ele>235.0</ele><time>2026-05-03T08:38:46.986Z</time></trkpt><trkpt lat="44.2211707" lon="8.359346"><ele>234.99999999999997</ele><time>2026-05-03T08:38:47.986Z</time></trkpt><trkpt lat="44.2212583" lon="8.3593251"><ele>235.0</ele><time>2026-05-03T08:38:48.986Z</time></trkpt><trkpt lat="44.2213352" lon="8.3593101"><ele>235.0</ele><time>2026-05-03T08:38:49.986Z</time></trkpt><trkpt lat="44.2213972" lon="8.3592924"><ele>235.0</ele><time>2026-05-03T08:38:50.985Z</time></trkpt><trkpt lat="44.221481" lon="8.3592178"><ele>234.99999999999997</ele><time>2026-05-03T08:38:52.986Z</time></trkpt><trkpt lat="44.2215075" lon="8.3590864"><ele>235.0</ele><time>2026-05-03T08:38:54.986Z</time></trkpt><trkpt lat="44.2214507" lon="8.3589173"><ele>234.99999999999997</ele><time>2026-05-03T08:38:56.985Z</time></trkpt><trkpt lat="44.2213935" lon="8.3588626"><ele>235.0</ele><time>2026-05-03T08:38:57.986Z</time></trkpt><trkpt lat="44.2212974" lon="8.3588472"><ele>235.0</ele><time>2026-05-03T08:38:58.986Z</time></trkpt><trkpt lat="44.221208" lon="8.3588608"><ele>235.0</ele><time>2026-05-03T08:38:59.986Z</time></trkpt><trkpt lat="44.2211416" lon="8.3588625"><ele>234.99999999999997</ele><time>2026-05-03T08:39:00.986Z</time></trkpt><trkpt lat="44.2210513" lon="8.3588757"><ele>235.0</ele><time>2026-05-03T08:39:01.986Z</time></trkpt><trkpt lat="44.2209518" lon="8.3589384"><ele>235.0</ele><time>2026-05-03T08:39:02.985Z</time></trkpt><trkpt lat="44.2208516" lon="8.3590345"><ele>235.0</ele><time>2026-05-03T08:39:03.986Z</time></trkpt><trkpt lat="44.2207475" lon="8.3591534"><ele>235.0</ele><time>2026-05-03T08:39:04.985Z</time></trkpt><trkpt lat="44.2206532" lon="8.359256"><ele>235.0</ele><time>2026-05-03T08:39:05.986Z</time></trkpt><trkpt lat="44.2205623" lon="8.3593601"><ele>235.2</ele><time>2026-05-03T08:39:06.986Z</time></trkpt><trkpt lat="44.2204728" lon="8.3594754"><ele>235.4</ele><time>2026-05-03T08:39:07.986Z</time></trkpt><trkpt lat="44.2204006" lon="8.359577"><ele>235.60000000000002</ele><time>2026-05-03T08:39:08.985Z</time></trkpt><trkpt lat="44.2203426" lon="8.359686"><ele>235.8</ele><time>2026-05-03T08:39:09.986Z</time></trkpt><trkpt lat="44.2202892" lon="8.3597781"><ele>236.0</ele><time>2026-05-03T08:39:10.986Z</time></trkpt><trkpt lat="44.2202426" lon="8.3598676"><ele>236.00000000000003</ele><time>2026-05-03T08:39:11.985Z</time></trkpt><trkpt lat="44.2201884" lon="8.3599359"><ele>236.0</ele><time>2026-05-03T08:39:12.985Z</time></trkpt><trkpt lat="44.2201219" lon="8.359976"><ele>236.0</ele><time>2026-05-03T08:39:13.986Z</time></trkpt><trkpt lat="44.2200404" lon="8.3599883"><ele>236.0</ele><time>2026-05-03T08:39:14.986Z</time></trkpt><trkpt lat="44.2199548" lon="8.3599795"><ele>236.00000000000003</ele><time>2026-05-03T08:39:15.985Z</time></trkpt><trkpt lat="44.2198561" lon="8.3599293"><ele>236.0</ele><time>2026-05-03T08:39:16.986Z</time></trkpt><trkpt lat="44.2197603" lon="8.3598676"><ele>233.20000000000002</ele><time>2026-05-03T08:39:17.985Z</time></trkpt><trkpt lat="44.2196709" lon="8.3597826"><ele>230.40000000000003</ele><time>2026-05-03T08:39:18.986Z</time></trkpt><trkpt lat="44.2195891" lon="8.3596885"><ele>227.6</ele><time>2026-05-03T08:39:19.986Z</time></trkpt><trkpt lat="44.219515" lon="8.3596028"><ele>224.8</ele><time>2026-05-03T08:39:20.986Z</time></trkpt><trkpt lat="44.21945" lon="8.3595435"><ele>222.0</ele><time>2026-05-03T08:39:21.986Z</time></trkpt><trkpt lat="44.2193836" lon="8.3595212"><ele>222.0</ele><time>2026-05-03T08:39:22.986Z</time></trkpt><trkpt lat="44.2193092" lon="8.3595326"><ele>222.0</ele><time>2026-05-03T08:39:23.986Z</time></trkpt><trkpt lat="44.2192259" lon="8.3595891"><ele>222.0</ele><time>2026-05-03T08:39:24.987Z</time></trkpt><trkpt lat="44.2191257" lon="8.3596589"><ele>222.0</ele><time>2026-05-03T08:39:25.986Z</time></trkpt><trkpt lat="44.2190227" lon="8.3597384"><ele>222.0</ele><time>2026-05-03T08:39:26.987Z</time></trkpt><trkpt lat="44.2189237" lon="8.359804"><ele>220.39999999999998</ele><time>2026-05-03T08:39:27.987Z</time></trkpt><trkpt lat="44.2188204" lon="8.3598592"><ele>218.79999999999998</ele><time>2026-05-03T08:39:28.986Z</time></trkpt><trkpt lat="44.2187271" lon="8.3599164"><ele>217.2</ele><time>2026-05-03T08:39:29.987Z</time></trkpt><trkpt lat="44.2186338" lon="8.3599718"><ele>215.6</ele><time>2026-05-03T08:39:30.986Z</time></trkpt><trkpt lat="44.218541" lon="8.3600103"><ele>214.0</ele><time>2026-05-03T08:39:31.986Z</time></trkpt><trkpt lat="44.2184434" lon="8.3600263"><ele>214.0</ele><time>2026-05-03T08:39:32.986Z</time></trkpt><trkpt lat="44.2183371" lon="8.3600074"><ele>214.0</ele><time>2026-05-03T08:39:33.987Z</time></trkpt><trkpt lat="44.2182311" lon="8.3599593"><ele>214.0</ele><time>2026-05-03T08:39:34.987Z</time></trkpt><trkpt lat="44.2181202" lon="8.3598969"><ele>214.0</ele><time>2026-05-03T08:39:35.987Z</time></trkpt><trkpt lat="44.218017" lon="8.3598302"><ele>214.79999999999998</ele><time>2026-05-03T08:39:36.986Z</time></trkpt><trkpt lat="44.2179228" lon="8.3597623"><ele>215.59999999999997</ele><time>2026-05-03T08:39:37.987Z</time></trkpt><trkpt lat="44.217835" lon="8.3596976"><ele>216.4</ele><time>2026-05-03T08:39:38.987Z</time></trkpt><trkpt lat="44.2177449" lon="8.3596335"><ele>217.2</ele><time>2026-05-03T08:39:39.986Z</time></trkpt><trkpt lat="44.2176594" lon="8.3595674"><ele>218.0</ele><time>2026-05-03T08:39:40.986Z</time></trkpt><trkpt lat="44.2175732" lon="8.3595067"><ele>213.8</ele><time>2026-05-03T08:39:41.986Z</time></trkpt><trkpt lat="44.2174872" lon="8.3594529"><ele>209.60000000000002</ele><time>2026-05-03T08:39:42.987Z</time></trkpt><trkpt lat="44.2173938" lon="8.3594183"><ele>205.39999999999998</ele><time>2026-05-03T08:39:43.987Z</time></trkpt><trkpt lat="44.2172889" lon="8.359404"><ele>201.2</ele><time>2026-05-03T08:39:44.987Z</time></trkpt><trkpt lat="44.2171736" lon="8.3594155"><ele>197.0</ele><time>2026-05-03T08:39:45.986Z</time></trkpt><trkpt lat="44.2170622" lon="8.3594456"><ele>196.2</ele><time>2026-05-03T08:39:46.987Z</time></trkpt><trkpt lat="44.2169498" lon="8.3594877"><ele>195.39999999999998</ele><time>2026-05-03T08:39:47.987Z</time></trkpt><trkpt lat="44.2168406" lon="8.3595295"><ele>194.60000000000002</ele><time>2026-05-03T08:39:48.987Z</time></trkpt><trkpt lat="44.2167357" lon="8.3595626"><ele>193.8</ele><time>2026-05-03T08:39:49.987Z</time></trkpt><trkpt lat="44.216629" lon="8.3595876"><ele>193.0</ele><time>2026-05-03T08:39:50.987Z</time></trkpt><trkpt lat="44.2165165" lon="8.3596064"><ele>191.4</ele><time>2026-05-03T08:39:51.986Z</time></trkpt><trkpt lat="44.2164074" lon="8.3596285"><ele>189.8</ele><time>2026-05-03T08:39:52.987Z</time></trkpt><trkpt lat="44.2163067" lon="8.3596585"><ele>188.2</ele><time>2026-05-03T08:39:53.987Z</time></trkpt><trkpt lat="44.2162139" lon="8.3597075"><ele>186.6</ele><time>2026-05-03T08:39:54.986Z</time></trkpt><trkpt lat="44.2161316" lon="8.3597644"><ele>185.0</ele><time>2026-05-03T08:39:55.987Z</time></trkpt><trkpt lat="44.2160514" lon="8.3598229"><ele>189.5</ele><time>2026-05-03T08:39:56.986Z</time></trkpt><trkpt lat="44.215971" lon="8.3598739"><ele>194.0</ele><time>2026-05-03T08:39:57.987Z</time></trkpt><trkpt lat="44.2158954" lon="8.3598852"><ele>198.5</ele><time>2026-05-03T08:39:58.987Z</time></trkpt><trkpt lat="44.2158125" lon="8.3598381"><ele>203.0</ele><time>2026-05-03T08:39:59.986Z</time></trkpt><trkpt lat="44.2157232" lon="8.359782"><ele>207.50000000000003</ele><time>2026-05-03T08:40:00.987Z</time></trkpt><trkpt lat="44.2156333" lon="8.3597545"><ele>212.0</ele><time>2026-05-03T08:40:01.987Z</time></trkpt><trkpt lat="44.2155417" lon="8.3597427"><ele>213.16666666666669</ele><time>2026-05-03T08:40:02.987Z</time></trkpt><trkpt lat="44.2154455" lon="8.3597512"><ele>214.33333333333334</ele><time>2026-05-03T08:40:03.987Z</time></trkpt><trkpt lat="44.2153586" lon="8.3597667"><ele>215.5</ele><time>2026-05-03T08:40:04.986Z</time></trkpt><trkpt lat="44.2152752" lon="8.3597717"><ele>216.66666666666669</ele><time>2026-05-03T08:40:05.986Z</time></trkpt><trkpt lat="44.2151938" lon="8.3597348"><ele>217.83333333333334</ele><time>2026-05-03T08:40:06.987Z</time></trkpt><trkpt lat="44.2151317" lon="8.3596573"><ele>219.0</ele><time>2026-05-03T08:40:07.987Z</time></trkpt><trkpt lat="44.2150866" lon="8.3595279"><ele>216.0</ele><time>2026-05-03T08:40:08.986Z</time></trkpt><trkpt lat="44.2150314" lon="8.3593825"><ele>213.0</ele><time>2026-05-03T08:40:09.986Z</time></trkpt><trkpt lat="44.2149624" lon="8.359232"><ele>210.0</ele><time>2026-05-03T08:40:10.987Z</time></trkpt><trkpt lat="44.2148911" lon="8.35907"><ele>207.0</ele><time>2026-05-03T08:40:11.987Z</time></trkpt><trkpt lat="44.2148182" lon="8.3589033"><ele>202.75</ele><time>2026-05-03T08:40:12.987Z</time></trkpt><trkpt lat="44.2147455" lon="8.3587205"><ele>198.5</ele><time>2026-05-03T08:40:13.987Z</time></trkpt><trkpt lat="44.2146762" lon="8.3585531"><ele>194.25</ele><time>2026-05-03T08:40:14.987Z</time></trkpt><trkpt lat="44.2146066" lon="8.3583965"><ele>190.0</ele><time>2026-05-03T08:40:15.987Z</time></trkpt><trkpt lat="44.2145381" lon="8.3582508"><ele>190.0</ele><time>2026-05-03T08:40:16.987Z</time></trkpt><trkpt lat="44.2144724" lon="8.3581155"><ele>190.0</ele><time>2026-05-03T08:40:17.987Z</time></trkpt><trkpt lat="44.2144134" lon="8.3579962"><ele>190.0</ele><time>2026-05-03T08:40:18.987Z</time></trkpt><trkpt lat="44.2143548" lon="8.357903"><ele>190.0</ele><time>2026-05-03T08:40:19.987Z</time></trkpt><trkpt lat="44.214294" lon="8.3578277"><ele>190.0</ele><time>2026-05-03T08:40:20.986Z</time></trkpt><trkpt lat="44.2142216" lon="8.3577752"><ele>185.6</ele><time>2026-05-03T08:40:21.986Z</time></trkpt><trkpt lat="44.2141263" lon="8.3577564"><ele>181.2</ele><time>2026-05-03T08:40:22.987Z</time></trkpt><trkpt lat="44.21403" lon="8.3577522"><ele>176.8</ele><time>2026-05-03T08:40:23.987Z</time></trkpt><trkpt lat="44.2139192" lon="8.3577791"><ele>172.4</ele><time>2026-05-03T08:40:24.987Z</time></trkpt><trkpt lat="44.2138001" lon="8.3578311"><ele>168.0</ele><time>2026-05-03T08:40:25.987Z</time></trkpt><trkpt lat="44.2136918" lon="8.3578958"><ele>168.0</ele><time>2026-05-03T08:40:26.987Z</time></trkpt><trkpt lat="44.2135848" lon="8.3579383"><ele>168.0</ele><time>2026-05-03T08:40:27.987Z</time></trkpt><trkpt lat="44.2134894" lon="8.3579312"><ele>168.0</ele><time>2026-05-03T08:40:28.986Z</time></trkpt><trkpt lat="44.2134092" lon="8.3578612"><ele>168.0</ele><time>2026-05-03T08:40:29.986Z</time></trkpt><trkpt lat="44.2133566" lon="8.3577545"><ele>168.0</ele><time>2026-05-03T08:40:30.987Z</time></trkpt><trkpt lat="44.2133148" lon="8.3576282"><ele>168.0</ele><time>2026-05-03T08:40:31.987Z</time></trkpt><trkpt lat="44.2132622" lon="8.3575045"><ele>168.0</ele><time>2026-05-03T08:40:32.988Z</time></trkpt><trkpt lat="44.2131906" lon="8.3573757"><ele>168.0</ele><time>2026-05-03T08:40:33.988Z</time></trkpt><trkpt lat="44.2131132" lon="8.3572671"><ele>168.0</ele><time>2026-05-03T08:40:34.988Z</time></trkpt><trkpt lat="44.2130232" lon="8.3571868"><ele>168.0</ele><time>2026-05-03T08:40:35.987Z</time></trkpt><trkpt lat="44.2129242" lon="8.3571341"><ele>166.16666666666666</ele><time>2026-05-03T08:40:36.988Z</time></trkpt><trkpt lat="44.2128369" lon="8.3570887"><ele>164.33333333333334</ele><time>2026-05-03T08:40:37.988Z</time></trkpt><trkpt lat="44.2127574" lon="8.3570485"><ele>162.5</ele><time>2026-05-03T08:40:38.987Z</time></trkpt><trkpt lat="44.2126857" lon="8.3570098"><ele>160.66666666666669</ele><time>2026-05-03T08:40:39.988Z</time></trkpt><trkpt lat="44.2125874" lon="8.3569581"><ele>158.83333333333334</ele><time>2026-05-03T08:40:41.988Z</time></trkpt><trkpt lat="44.2125148" lon="8.3569052"><ele>157.0</ele><time>2026-05-03T08:40:43.987Z</time></trkpt><trkpt lat="44.2125342" lon="8.356771"><ele>157.0</ele><time>2026-05-03T08:40:45.988Z</time></trkpt><trkpt lat="44.2125957" lon="8.3567969"><ele>157.0</ele><time>2026-05-03T08:40:46.988Z</time></trkpt><trkpt lat="44.212691" lon="8.3568643"><ele>157.0</ele><time>2026-05-03T08:40:47.988Z</time></trkpt><trkpt lat="44.2127808" lon="8.3569321"><ele>157.0</ele><time>2026-05-03T08:40:48.988Z</time></trkpt><trkpt lat="44.212877" lon="8.356997"><ele>157.0</ele><time>2026-05-03T08:40:49.987Z</time></trkpt><trkpt lat="44.2129851" lon="8.3570524"><ele>157.0</ele><time>2026-05-03T08:40:50.987Z</time></trkpt><trkpt lat="44.2131233" lon="8.3570985"><ele>157.0</ele><time>2026-05-03T08:40:51.988Z</time></trkpt><trkpt lat="44.2132785" lon="8.3571174"><ele>157.0</ele><time>2026-05-03T08:40:52.988Z</time></trkpt><trkpt lat="44.2134316" lon="8.357104"><ele>153.75</ele><time>2026-05-03T08:40:53.988Z</time></trkpt><trkpt lat="44.2135692" lon="8.3570734"><ele>150.5</ele><time>2026-05-03T08:40:54.988Z</time></trkpt><trkpt lat="44.2137005" lon="8.3570404"><ele>147.25</ele><time>2026-05-03T08:40:55.987Z</time></trkpt><trkpt lat="44.2138193" lon="8.357019"><ele>144.0</ele><time>2026-05-03T08:40:56.988Z</time></trkpt><trkpt lat="44.2139321" lon="8.3570374"><ele>142.0</ele><time>2026-05-03T08:40:57.987Z</time></trkpt><trkpt lat="44.2140444" lon="8.3570775"><ele>140.0</ele><time>2026-05-03T08:40:58.988Z</time></trkpt><trkpt lat="44.2141612" lon="8.3571339"><ele>138.0</ele><time>2026-05-03T08:40:59.988Z</time></trkpt><trkpt lat="44.2142913" lon="8.3571827"><ele>136.0</ele><time>2026-05-03T08:41:00.988Z</time></trkpt><trkpt lat="44.2144392" lon="8.3572123"><ele>138.25</ele><time>2026-05-03T08:41:01.987Z</time></trkpt><trkpt lat="44.2145853" lon="8.3572344"><ele>140.5</ele><time>2026-05-03T08:41:02.988Z</time></trkpt><trkpt lat="44.2147288" lon="8.3572517"><ele>142.75</ele><time>2026-05-03T08:41:03.988Z</time></trkpt><trkpt lat="44.2148674" lon="8.3572712"><ele>145.0</ele><time>2026-05-03T08:41:04.987Z</time></trkpt><trkpt lat="44.215005" lon="8.3573053"><ele>145.0</ele><time>2026-05-03T08:41:05.988Z</time></trkpt><trkpt lat="44.2151275" lon="8.3573338"><ele>145.0</ele><time>2026-05-03T08:41:06.987Z</time></trkpt><trkpt lat="44.2152353" lon="8.357354"><ele>145.0</ele><time>2026-05-03T08:41:07.988Z</time></trkpt><trkpt lat="44.2153299" lon="8.3573629"><ele>145.0</ele><time>2026-05-03T08:41:08.987Z</time></trkpt><trkpt lat="44.2154199" lon="8.3573708"><ele>145.0</ele><time>2026-05-03T08:41:09.987Z</time></trkpt><trkpt lat="44.2155117" lon="8.3573799"><ele>145.0</ele><time>2026-05-03T08:41:10.987Z</time></trkpt><trkpt lat="44.2156034" lon="8.3573925"><ele>145.0</ele><time>2026-05-03T08:41:11.987Z</time></trkpt><trkpt lat="44.2156898" lon="8.3574095"><ele>145.0</ele><time>2026-05-03T08:41:12.987Z</time></trkpt><trkpt lat="44.2157745" lon="8.3574268"><ele>145.0</ele><time>2026-05-03T08:41:13.988Z</time></trkpt><trkpt lat="44.2158468" lon="8.3574418"><ele>145.0</ele><time>2026-05-03T08:41:14.987Z</time></trkpt><trkpt lat="44.2159107" lon="8.3574526"><ele>145.0</ele><time>2026-05-03T08:41:15.988Z</time></trkpt><trkpt lat="44.2160193" lon="8.35743"><ele>144.66666666666669</ele><time>2026-05-03T08:41:17.987Z</time></trkpt><trkpt lat="44.2161057" lon="8.3573496"><ele>144.33333333333334</ele><time>2026-05-03T08:41:19.988Z</time></trkpt><trkpt lat="44.216165" lon="8.3572803"><ele>144.0</ele><time>2026-05-03T08:41:21.988Z</time></trkpt><trkpt lat="44.216222" lon="8.3571816"><ele>143.66666666666666</ele><time>2026-05-03T08:41:25.988Z</time></trkpt><trkpt lat="44.216162" lon="8.3570665"><ele>143.33333333333331</ele><time>2026-05-03T08:41:28.988Z</time></trkpt><trkpt lat="44.2161009" lon="8.3570289"><ele>143.0</ele><time>2026-05-03T08:41:29.987Z</time></trkpt><trkpt lat="44.2160341" lon="8.3570014"><ele>143.0</ele><time>2026-05-03T08:41:30.988Z</time></trkpt><trkpt lat="44.2159439" lon="8.3569901"><ele>143.0</ele><time>2026-05-03T08:41:31.988Z</time></trkpt><trkpt lat="44.2158308" lon="8.3569781"><ele>143.0</ele><time>2026-05-03T08:41:32.988Z</time></trkpt><trkpt lat="44.2157021" lon="8.3569643"><ele>143.0</ele><time>2026-05-03T08:41:33.988Z</time></trkpt><trkpt lat="44.2155753" lon="8.3569561"><ele>139.5</ele><time>2026-05-03T08:41:34.987Z</time></trkpt><trkpt lat="44.2154513" lon="8.3569471"><ele>136.0</ele><time>2026-05-03T08:41:35.988Z</time></trkpt><trkpt lat="44.2153276" lon="8.3569325"><ele>132.5</ele><time>2026-05-03T08:41:36.989Z</time></trkpt><trkpt lat="44.2152062" lon="8.3569151"><ele>129.0</ele><time>2026-05-03T08:41:37.989Z</time></trkpt><trkpt lat="44.2150909" lon="8.3568951"><ele>129.0</ele><time>2026-05-03T08:41:38.989Z</time></trkpt><trkpt lat="44.2149804" lon="8.3568614"><ele>129.0</ele><time>2026-05-03T08:41:39.989Z</time></trkpt><trkpt lat="44.2148798" lon="8.3568053"><ele>129.0</ele><time>2026-05-03T08:41:40.988Z</time></trkpt><trkpt lat="44.2147815" lon="8.3567344"><ele>129.0</ele><time>2026-05-03T08:41:41.989Z</time></trkpt><trkpt lat="44.2146877" lon="8.3566529"><ele>129.0</ele><time>2026-05-03T08:41:42.989Z</time></trkpt><trkpt lat="44.2145991" lon="8.3565699"><ele>129.75</ele><time>2026-05-03T08:41:43.988Z</time></trkpt><trkpt lat="44.2145094" lon="8.3564869"><ele>130.5</ele><time>2026-05-03T08:41:44.989Z</time></trkpt><trkpt lat="44.2144156" lon="8.3564004"><ele>131.25</ele><time>2026-05-03T08:41:45.988Z</time></trkpt><trkpt lat="44.2143141" lon="8.3563066"><ele>132.0</ele><time>2026-05-03T08:41:46.989Z</time></trkpt><trkpt lat="44.2142013" lon="8.3562129"><ele>132.0</ele><time>2026-05-03T08:41:47.988Z</time></trkpt><trkpt lat="44.2140788" lon="8.3561304"><ele>132.0</ele><time>2026-05-03T08:41:48.989Z</time></trkpt><trkpt lat="44.2139513" lon="8.3560568"><ele>132.0</ele><time>2026-05-03T08:41:49.989Z</time></trkpt><trkpt lat="44.213831" lon="8.3559851"><ele>132.0</ele><time>2026-05-03T08:41:50.989Z</time></trkpt><trkpt lat="44.2137138" lon="8.3559134"><ele>131.25</ele><time>2026-05-03T08:41:51.988Z</time></trkpt><trkpt lat="44.2136022" lon="8.3558426"><ele>130.5</ele><time>2026-05-03T08:41:52.989Z</time></trkpt><trkpt lat="44.2134988" lon="8.3557788"><ele>129.75</ele><time>2026-05-03T08:41:53.988Z</time></trkpt><trkpt lat="44.2133944" lon="8.355725"><ele>129.0</ele><time>2026-05-03T08:41:54.989Z</time></trkpt><trkpt lat="44.2132894" lon="8.3556854"><ele>129.0</ele><time>2026-05-03T08:41:55.989Z</time></trkpt><trkpt lat="44.2131778" lon="8.3556556"><ele>129.0</ele><time>2026-05-03T08:41:56.988Z</time></trkpt><trkpt lat="44.2130555" lon="8.3556433"><ele>129.0</ele><time>2026-05-03T08:41:57.989Z</time></trkpt><trkpt lat="44.2129254" lon="8.3556337"><ele>129.0</ele><time>2026-05-03T08:41:58.989Z</time></trkpt><trkpt lat="44.2128065" lon="8.3556229"><ele>129.5</ele><time>2026-05-03T08:41:59.989Z</time></trkpt><trkpt lat="44.21269" lon="8.3556038"><ele>130.0</ele><time>2026-05-03T08:42:00.988Z</time></trkpt><trkpt lat="44.2125765" lon="8.3555661"><ele>130.5</ele><time>2026-05-03T08:42:01.989Z</time></trkpt><trkpt lat="44.2124616" lon="8.3555219"><ele>131.0</ele><time>2026-05-03T08:42:02.988Z</time></trkpt><trkpt lat="44.2123496" lon="8.3554731"><ele>129.0</ele><time>2026-05-03T08:42:03.989Z</time></trkpt><trkpt lat="44.2122456" lon="8.3554233"><ele>127.0</ele><time>2026-05-03T08:42:04.989Z</time></trkpt><trkpt lat="44.2121511" lon="8.355365"><ele>125.0</ele><time>2026-05-03T08:42:05.989Z</time></trkpt><trkpt lat="44.2120637" lon="8.3552947"><ele>123.0</ele><time>2026-05-03T08:42:06.988Z</time></trkpt><trkpt lat="44.2119811" lon="8.3552233"><ele>121.0</ele><time>2026-05-03T08:42:07.988Z</time></trkpt><trkpt lat="44.2119021" lon="8.3551492"><ele>121.0</ele><time>2026-05-03T08:42:08.989Z</time></trkpt><trkpt lat="44.2118214" lon="8.3550834"><ele>121.0</ele><time>2026-05-03T08:42:09.989Z</time></trkpt><trkpt lat="44.2117371" lon="8.3550145"><ele>121.0</ele><time>2026-05-03T08:42:10.989Z</time></trkpt><trkpt lat="44.2116554" lon="8.35495"><ele>121.0</ele><time>2026-05-03T08:42:11.989Z</time></trkpt><trkpt lat="44.2115768" lon="8.3548868"><ele>121.0</ele><time>2026-05-03T08:42:12.988Z</time></trkpt><trkpt lat="44.2115041" lon="8.3548253"><ele>119.00000000000001</ele><time>2026-05-03T08:42:13.989Z</time></trkpt><trkpt lat="44.2114415" lon="8.3547741"><ele>117.0</ele><time>2026-05-03T08:42:14.988Z</time></trkpt><trkpt lat="44.211385" lon="8.3547293"><ele>115.0</ele><time>2026-05-03T08:42:15.989Z</time></trkpt><trkpt lat="44.2112956" lon="8.3546292"><ele>113.0</ele><time>2026-05-03T08:42:17.989Z</time></trkpt><trkpt lat="44.2112555" lon="8.3545424"><ele>111.00000000000001</ele><time>2026-05-03T08:42:20.989Z</time></trkpt><trkpt lat="44.211301" lon="8.3544511"><ele>109.0</ele><time>2026-05-03T08:42:22.989Z</time></trkpt><trkpt lat="44.2113614" lon="8.3544099"><ele>109.00000000000001</ele><time>2026-05-03T08:42:23.989Z</time></trkpt><trkpt lat="44.2114263" lon="8.3543657"><ele>109.0</ele><time>2026-05-03T08:42:24.989Z</time></trkpt><trkpt lat="44.2115014" lon="8.3543326"><ele>109.0</ele><time>2026-05-03T08:42:25.988Z</time></trkpt><trkpt lat="44.2115782" lon="8.3543234"><ele>109.0</ele><time>2026-05-03T08:42:26.988Z</time></trkpt><trkpt lat="44.2116531" lon="8.3543273"><ele>109.00000000000001</ele><time>2026-05-03T08:42:27.989Z</time></trkpt><trkpt lat="44.2117618" lon="8.3543557"><ele>109.0</ele><time>2026-05-03T08:42:28.988Z</time></trkpt><trkpt lat="44.2118569" lon="8.3543884"><ele>112.2</ele><time>2026-05-03T08:42:29.989Z</time></trkpt><trkpt lat="44.2119597" lon="8.3544312"><ele>115.4</ele><time>2026-05-03T08:42:30.989Z</time></trkpt><trkpt lat="44.2120754" lon="8.3544718"><ele>118.6</ele><time>2026-05-03T08:42:31.989Z</time></trkpt><trkpt lat="44.2121772" lon="8.3544912"><ele>121.8</ele><time>2026-05-03T08:42:32.988Z</time></trkpt><trkpt lat="44.2122797" lon="8.3545062"><ele>125.0</ele><time>2026-05-03T08:42:33.988Z</time></trkpt><trkpt lat="44.2123911" lon="8.3545191"><ele>128.8</ele><time>2026-05-03T08:42:34.989Z</time></trkpt><trkpt lat="44.2125094" lon="8.3545404"><ele>132.6</ele><time>2026-05-03T08:42:35.988Z</time></trkpt><trkpt lat="44.212617" lon="8.3545744"><ele>136.4</ele><time>2026-05-03T08:42:36.989Z</time></trkpt><trkpt lat="44.2127202" lon="8.3546134"><ele>140.2</ele><time>2026-05-03T08:42:37.989Z</time></trkpt><trkpt lat="44.2128211" lon="8.3546493"><ele>144.0</ele><time>2026-05-03T08:42:38.988Z</time></trkpt><trkpt lat="44.2129062" lon="8.3546833"><ele>143.5</ele><time>2026-05-03T08:42:39.988Z</time></trkpt><trkpt lat="44.2129753" lon="8.3547113"><ele>143.0</ele><time>2026-05-03T08:42:40.989Z</time></trkpt><trkpt lat="44.2130345" lon="8.3547509"><ele>142.5</ele><time>2026-05-03T08:42:41.989Z</time></trkpt><trkpt lat="44.2131165" lon="8.3548522"><ele>142.0</ele><time>2026-05-03T08:42:43.989Z</time></trkpt><trkpt lat="44.2131977" lon="8.3549187"><ele>141.5</ele><time>2026-05-03T08:42:45.99Z</time></trkpt><trkpt lat="44.2132593" lon="8.3548598"><ele>141.0</ele><time>2026-05-03T08:42:47.989Z</time></trkpt><trkpt lat="44.2132496" lon="8.3547634"><ele>141.6</ele><time>2026-05-03T08:42:49.989Z</time></trkpt><trkpt lat="44.2131911" lon="8.3546974"><ele>142.2</ele><time>2026-05-03T08:42:50.99Z</time></trkpt><trkpt lat="44.2130917" lon="8.3546229"><ele>142.8</ele><time>2026-05-03T08:42:51.989Z</time></trkpt><trkpt lat="44.2129911" lon="8.3545522"><ele>143.4</ele><time>2026-05-03T08:42:52.989Z</time></trkpt><trkpt lat="44.2129007" lon="8.3544503"><ele>144.0</ele><time>2026-05-03T08:42:53.989Z</time></trkpt><trkpt lat="44.2128032" lon="8.3543164"><ele>144.0</ele><time>2026-05-03T08:42:54.989Z</time></trkpt><trkpt lat="44.212716" lon="8.3542011"><ele>144.0</ele><time>2026-05-03T08:42:55.989Z</time></trkpt><trkpt lat="44.2126259" lon="8.3541285"><ele>144.0</ele><time>2026-05-03T08:42:56.99Z</time></trkpt><trkpt lat="44.212556" lon="8.354081"><ele>144.0</ele><time>2026-05-03T08:42:57.99Z</time></trkpt><trkpt lat="44.2124539" lon="8.354017"><ele>144.0</ele><time>2026-05-03T08:42:59.99Z</time></trkpt><trkpt lat="44.2123485" lon="8.3538999"><ele>144.83333333333334</ele><time>2026-05-03T08:43:01.99Z</time></trkpt><trkpt lat="44.2123027" lon="8.3538014"><ele>145.66666666666666</ele><time>2026-05-03T08:43:02.989Z</time></trkpt><trkpt lat="44.2122701" lon="8.3537027"><ele>146.5</ele><time>2026-05-03T08:43:03.99Z</time></trkpt><trkpt lat="44.2122384" lon="8.3536239"><ele>147.33333333333331</ele><time>2026-05-03T08:43:04.99Z</time></trkpt><trkpt lat="44.2121643" lon="8.3535393"><ele>148.16666666666666</ele><time>2026-05-03T08:43:06.99Z</time></trkpt><trkpt lat="44.212087" lon="8.3535175"><ele>149.0</ele><time>2026-05-03T08:43:08.989Z</time></trkpt><trkpt lat="44.2120156" lon="8.3535081"><ele>149.0</ele><time>2026-05-03T08:43:10.99Z</time></trkpt><trkpt lat="44.2120603" lon="8.3534283"><ele>149.0</ele><time>2026-05-03T08:43:13.99Z</time></trkpt><trkpt lat="44.2121637" lon="8.3534694"><ele>149.0</ele><time>2026-05-03T08:43:15.99Z</time></trkpt><trkpt lat="44.2122274" lon="8.3535091"><ele>149.0</ele><time>2026-05-03T08:43:16.99Z</time></trkpt><trkpt lat="44.2123086" lon="8.3535475"><ele>149.0</ele><time>2026-05-03T08:43:17.99Z</time></trkpt><trkpt lat="44.2123934" lon="8.3535695"><ele>149.0</ele><time>2026-05-03T08:43:18.99Z</time></trkpt><trkpt lat="44.2124911" lon="8.3535991"><ele>152.4</ele><time>2026-05-03T08:43:19.99Z</time></trkpt><trkpt lat="44.2126056" lon="8.3536319"><ele>155.8</ele><time>2026-05-03T08:43:20.99Z</time></trkpt><trkpt lat="44.2127226" lon="8.3536487"><ele>159.20000000000002</ele><time>2026-05-03T08:43:21.989Z</time></trkpt><trkpt lat="44.2128199" lon="8.3536745"><ele>162.60000000000002</ele><time>2026-05-03T08:43:22.99Z</time></trkpt><trkpt lat="44.2129146" lon="8.3536943"><ele>166.0</ele><time>2026-05-03T08:43:23.99Z</time></trkpt><trkpt lat="44.2129905" lon="8.353697"><ele>166.0</ele><time>2026-05-03T08:43:24.99Z</time></trkpt><trkpt lat="44.2130573" lon="8.3536824"><ele>166.0</ele><time>2026-05-03T08:43:25.99Z</time></trkpt><trkpt lat="44.2131374" lon="8.3536247"><ele>166.0</ele><time>2026-05-03T08:43:27.989Z</time></trkpt><trkpt lat="44.2132015" lon="8.3535641"><ele>166.0</ele><time>2026-05-03T08:43:29.99Z</time></trkpt><trkpt lat="44.2133156" lon="8.3534916"><ele>166.0</ele><time>2026-05-03T08:43:31.99Z</time></trkpt><trkpt lat="44.2134069" lon="8.353468"><ele>167.0</ele><time>2026-05-03T08:43:32.99Z</time></trkpt><trkpt lat="44.2135044" lon="8.3534723"><ele>168.0</ele><time>2026-05-03T08:43:33.989Z</time></trkpt><trkpt lat="44.213584" lon="8.3535356"><ele>169.0</ele><time>2026-05-03T08:43:34.99Z</time></trkpt><trkpt lat="44.213663" lon="8.3536303"><ele>170.0</ele><time>2026-05-03T08:43:35.989Z</time></trkpt><trkpt lat="44.2137384" lon="8.3537386"><ele>171.0</ele><time>2026-05-03T08:43:36.99Z</time></trkpt><trkpt lat="44.2138129" lon="8.353826"><ele>171.16666666666666</ele><time>2026-05-03T08:43:37.989Z</time></trkpt><trkpt lat="44.2138869" lon="8.3538976"><ele>171.33333333333334</ele><time>2026-05-03T08:43:38.989Z</time></trkpt><trkpt lat="44.2139582" lon="8.3539658"><ele>171.5</ele><time>2026-05-03T08:43:39.99Z</time></trkpt><trkpt lat="44.2140276" lon="8.3540311"><ele>171.66666666666669</ele><time>2026-05-03T08:43:40.99Z</time></trkpt><trkpt lat="44.2140997" lon="8.3540825"><ele>171.83333333333334</ele><time>2026-05-03T08:43:41.989Z</time></trkpt><trkpt lat="44.2141712" lon="8.35411"><ele>172.0</ele><time>2026-05-03T08:43:42.989Z</time></trkpt><trkpt lat="44.2142368" lon="8.3541173"><ele>172.0</ele><time>2026-05-03T08:43:43.99Z</time></trkpt><trkpt lat="44.2143038" lon="8.354095"><ele>172.0</ele><time>2026-05-03T08:43:44.989Z</time></trkpt><trkpt lat="44.214362" lon="8.3540519"><ele>172.0</ele><time>2026-05-03T08:43:45.989Z</time></trkpt><trkpt lat="44.2144288" lon="8.3539703"><ele>172.0</ele><time>2026-05-03T08:43:46.99Z</time></trkpt><trkpt lat="44.2145039" lon="8.3538688"><ele>172.0</ele><time>2026-05-03T08:43:47.989Z</time></trkpt><trkpt lat="44.2145887" lon="8.3537732"><ele>172.0</ele><time>2026-05-03T08:43:48.99Z</time></trkpt><trkpt lat="44.2146826" lon="8.3537127"><ele>173.6</ele><time>2026-05-03T08:43:49.99Z</time></trkpt><trkpt lat="44.2147942" lon="8.3536999"><ele>175.2</ele><time>2026-05-03T08:43:50.99Z</time></trkpt><trkpt lat="44.2149002" lon="8.3537152"><ele>176.8</ele><time>2026-05-03T08:43:51.99Z</time></trkpt><trkpt lat="44.214998" lon="8.3537331"><ele>178.4</ele><time>2026-05-03T08:43:52.991Z</time></trkpt><trkpt lat="44.2150817" lon="8.3537475"><ele>180.0</ele><time>2026-05-03T08:43:53.99Z</time></trkpt><trkpt lat="44.2151699" lon="8.3537616"><ele>181.4</ele><time>2026-05-03T08:43:54.991Z</time></trkpt><trkpt lat="44.2152578" lon="8.3537727"><ele>182.8</ele><time>2026-05-03T08:43:55.991Z</time></trkpt><trkpt lat="44.2153459" lon="8.3537816"><ele>184.2</ele><time>2026-05-03T08:43:56.991Z</time></trkpt><trkpt lat="44.2154375" lon="8.35379"><ele>185.6</ele><time>2026-05-03T08:43:57.991Z</time></trkpt><trkpt lat="44.2155309" lon="8.3537972"><ele>187.0</ele><time>2026-05-03T08:43:58.99Z</time></trkpt><trkpt lat="44.2156203" lon="8.3537974"><ele>188.33333333333334</ele><time>2026-05-03T08:43:59.99Z</time></trkpt><trkpt lat="44.2157073" lon="8.3537898"><ele>189.66666666666669</ele><time>2026-05-03T08:44:00.991Z</time></trkpt><trkpt lat="44.2157927" lon="8.3537773"><ele>191.0</ele><time>2026-05-03T08:44:01.991Z</time></trkpt><trkpt lat="44.2158791" lon="8.3537634"><ele>192.33333333333334</ele><time>2026-05-03T08:44:02.991Z</time></trkpt><trkpt lat="44.2159669" lon="8.3537507"><ele>193.66666666666666</ele><time>2026-05-03T08:44:03.991Z</time></trkpt><trkpt lat="44.2160486" lon="8.3537503"><ele>195.0</ele><time>2026-05-03T08:44:04.991Z</time></trkpt><trkpt lat="44.2161259" lon="8.3537694"><ele>195.0</ele><time>2026-05-03T08:44:05.99Z</time></trkpt><trkpt lat="44.2161953" lon="8.353805"><ele>195.0</ele><time>2026-05-03T08:44:06.991Z</time></trkpt><trkpt lat="44.2162574" lon="8.3538501"><ele>195.0</ele><time>2026-05-03T08:44:07.99Z</time></trkpt><trkpt lat="44.2163101" lon="8.353902"><ele>195.0</ele><time>2026-05-03T08:44:08.991Z</time></trkpt><trkpt lat="44.2163875" lon="8.3539687"><ele>195.0</ele><time>2026-05-03T08:44:10.991Z</time></trkpt><trkpt lat="44.2164677" lon="8.3539773"><ele>195.0</ele><time>2026-05-03T08:44:12.99Z</time></trkpt><trkpt lat="44.2165159" lon="8.3538465"><ele>195.0</ele><time>2026-05-03T08:44:14.991Z</time></trkpt><trkpt lat="44.216495" lon="8.3537548"><ele>195.0</ele><time>2026-05-03T08:44:15.99Z</time></trkpt><trkpt lat="44.2164449" lon="8.3536583"><ele>195.0</ele><time>2026-05-03T08:44:16.99Z</time></trkpt><trkpt lat="44.2163793" lon="8.3535567"><ele>195.0</ele><time>2026-05-03T08:44:17.99Z</time></trkpt><trkpt lat="44.2163237" lon="8.35346"><ele>195.0</ele><time>2026-05-03T08:44:18.99Z</time></trkpt><trkpt lat="44.2162697" lon="8.3533451"><ele>195.0</ele><time>2026-05-03T08:44:19.99Z</time></trkpt><trkpt lat="44.2162097" lon="8.3532098"><ele>195.0</ele><time>2026-05-03T08:44:20.991Z</time></trkpt><trkpt lat="44.2161437" lon="8.3531145"><ele>195.0</ele><time>2026-05-03T08:44:21.991Z</time></trkpt><trkpt lat="44.2160781" lon="8.353044"><ele>195.0</ele><time>2026-05-03T08:44:22.991Z</time></trkpt><trkpt lat="44.2160111" lon="8.3529841"><ele>195.0</ele><time>2026-05-03T08:44:23.991Z</time></trkpt><trkpt lat="44.2159511" lon="8.3529224"><ele>195.0</ele><time>2026-05-03T08:44:24.99Z</time></trkpt><trkpt lat="44.2158929" lon="8.3528516"><ele>195.0</ele><time>2026-05-03T08:44:25.99Z</time></trkpt><trkpt lat="44.2158382" lon="8.3527741"><ele>196.8</ele><time>2026-05-03T08:44:26.99Z</time></trkpt><trkpt lat="44.2157847" lon="8.3526803"><ele>198.6</ele><time>2026-05-03T08:44:27.991Z</time></trkpt><trkpt lat="44.2157211" lon="8.3525801"><ele>200.39999999999998</ele><time>2026-05-03T08:44:28.991Z</time></trkpt><trkpt lat="44.2156422" lon="8.352496"><ele>202.2</ele><time>2026-05-03T08:44:29.991Z</time></trkpt><trkpt lat="44.2155611" lon="8.3524227"><ele>204.0</ele><time>2026-05-03T08:44:30.99Z</time></trkpt><trkpt lat="44.2154861" lon="8.3523724"><ele>204.0</ele><time>2026-05-03T08:44:31.99Z</time></trkpt><trkpt lat="44.21542" lon="8.352335"><ele>204.0</ele><time>2026-05-03T08:44:32.99Z</time></trkpt><trkpt lat="44.215329" lon="8.3522901"><ele>204.0</ele><time>2026-05-03T08:44:34.991Z</time></trkpt><trkpt lat="44.2152571" lon="8.3522499"><ele>204.0</ele><time>2026-05-03T08:44:37.991Z</time></trkpt><trkpt lat="44.2151705" lon="8.3522294"><ele>204.0</ele><time>2026-05-03T08:44:39.991Z</time></trkpt><trkpt lat="44.2150746" lon="8.3522637"><ele>204.0</ele><time>2026-05-03T08:44:41.991Z</time></trkpt><trkpt lat="44.2149793" lon="8.3522891"><ele>208.2</ele><time>2026-05-03T08:44:43.99Z</time></trkpt><trkpt lat="44.2149371" lon="8.3521734"><ele>212.39999999999998</ele><time>2026-05-03T08:44:45.991Z</time></trkpt><trkpt lat="44.2149822" lon="8.352054"><ele>216.6</ele><time>2026-05-03T08:44:47.99Z</time></trkpt><trkpt lat="44.2151211" lon="8.351944"><ele>220.8</ele><time>2026-05-03T08:44:49.99Z</time></trkpt><trkpt lat="44.2151952" lon="8.3518845"><ele>225.0</ele><time>2026-05-03T08:44:50.991Z</time></trkpt><trkpt lat="44.2152641" lon="8.3518261"><ele>225.0</ele><time>2026-05-03T08:44:51.99Z</time></trkpt><trkpt lat="44.215332" lon="8.3517845"><ele>225.0</ele><time>2026-05-03T08:44:52.991Z</time></trkpt><trkpt lat="44.2154003" lon="8.3517623"><ele>225.0</ele><time>2026-05-03T08:44:53.99Z</time></trkpt><trkpt lat="44.2154764" lon="8.3517553"><ele>225.0</ele><time>2026-05-03T08:44:54.99Z</time></trkpt><trkpt lat="44.2155561" lon="8.3517602"><ele>225.0</ele><time>2026-05-03T08:44:55.991Z</time></trkpt><trkpt lat="44.2156345" lon="8.3517728"><ele>225.0</ele><time>2026-05-03T08:44:56.991Z</time></trkpt><trkpt lat="44.2157189" lon="8.3518005"><ele>225.2</ele><time>2026-05-03T08:44:57.991Z</time></trkpt><trkpt lat="44.2158035" lon="8.3518488"><ele>225.4</ele><time>2026-05-03T08:44:58.991Z</time></trkpt><trkpt lat="44.2158931" lon="8.3519081"><ele>225.60000000000002</ele><time>2026-05-03T08:44:59.992Z</time></trkpt><trkpt lat="44.2159702" lon="8.3519673"><ele>225.8</ele><time>2026-05-03T08:45:00.992Z</time></trkpt><trkpt lat="44.2160471" lon="8.3520285"><ele>226.0</ele><time>2026-05-03T08:45:01.992Z</time></trkpt><trkpt lat="44.2161269" lon="8.3520859"><ele>226.0</ele><time>2026-05-03T08:45:02.992Z</time></trkpt><trkpt lat="44.216198" lon="8.3521346"><ele>226.0</ele><time>2026-05-03T08:45:03.992Z</time></trkpt><trkpt lat="44.2162647" lon="8.3521767"><ele>226.0</ele><time>2026-05-03T08:45:04.992Z</time></trkpt><trkpt lat="44.2163339" lon="8.3522169"><ele>226.0</ele><time>2026-05-03T08:45:05.992Z</time></trkpt><trkpt lat="44.2164022" lon="8.3522454"><ele>226.0</ele><time>2026-05-03T08:45:06.992Z</time></trkpt><trkpt lat="44.216469" lon="8.3522509"><ele>226.0</ele><time>2026-05-03T08:45:07.992Z</time></trkpt><trkpt lat="44.2165372" lon="8.3522282"><ele>226.0</ele><time>2026-05-03T08:45:08.992Z</time></trkpt><trkpt lat="44.2166042" lon="8.3521708"><ele>226.66666666666666</ele><time>2026-05-03T08:45:09.992Z</time></trkpt><trkpt lat="44.2166675" lon="8.3520829"><ele>227.33333333333331</ele><time>2026-05-03T08:45:10.992Z</time></trkpt><trkpt lat="44.2167233" lon="8.3519897"><ele>228.0</ele><time>2026-05-03T08:45:11.992Z</time></trkpt><trkpt lat="44.2167827" lon="8.3519282"><ele>228.66666666666669</ele><time>2026-05-03T08:45:12.991Z</time></trkpt><trkpt lat="44.2168501" lon="8.351908"><ele>229.33333333333334</ele><time>2026-05-03T08:45:13.992Z</time></trkpt><trkpt lat="44.2169227" lon="8.3519049"><ele>230.0</ele><time>2026-05-03T08:45:14.992Z</time></trkpt><trkpt lat="44.2169896" lon="8.3519004"><ele>230.0</ele><time>2026-05-03T08:45:15.991Z</time></trkpt><trkpt lat="44.2170994" lon="8.351878"><ele>230.0</ele><time>2026-05-03T08:45:17.992Z</time></trkpt><trkpt lat="44.217215" lon="8.3518078"><ele>230.0</ele><time>2026-05-03T08:45:19.992Z</time></trkpt><trkpt lat="44.2172675" lon="8.3517384"><ele>230.0</ele><time>2026-05-03T08:45:20.992Z</time></trkpt><trkpt lat="44.2173106" lon="8.3516411"><ele>230.0</ele><time>2026-05-03T08:45:21.992Z</time></trkpt><trkpt lat="44.2173546" lon="8.3515273"><ele>229.0</ele><time>2026-05-03T08:45:22.991Z</time></trkpt><trkpt lat="44.2174026" lon="8.3514143"><ele>228.0</ele><time>2026-05-03T08:45:23.991Z</time></trkpt><trkpt lat="44.2174602" lon="8.3513097"><ele>227.0</ele><time>2026-05-03T08:45:24.992Z</time></trkpt><trkpt lat="44.2175219" lon="8.3512107"><ele>226.0</ele><time>2026-05-03T08:45:25.991Z</time></trkpt><trkpt lat="44.2175854" lon="8.3511207"><ele>225.0</ele><time>2026-05-03T08:45:26.992Z</time></trkpt><trkpt lat="44.2176519" lon="8.351032"><ele>227.83333333333334</ele><time>2026-05-03T08:45:27.992Z</time></trkpt><trkpt lat="44.2177122" lon="8.3509593"><ele>230.66666666666669</ele><time>2026-05-03T08:45:28.992Z</time></trkpt><trkpt lat="44.2177717" lon="8.3508925"><ele>233.5</ele><time>2026-05-03T08:45:29.992Z</time></trkpt><trkpt lat="44.2178289" lon="8.3508273"><ele>236.33333333333334</ele><time>2026-05-03T08:45:30.992Z</time></trkpt><trkpt lat="44.2178816" lon="8.3507612"><ele>239.16666666666669</ele><time>2026-05-03T08:45:31.992Z</time></trkpt><trkpt lat="44.2179416" lon="8.3506848"><ele>242.0</ele><time>2026-05-03T08:45:32.992Z</time></trkpt><trkpt lat="44.2179994" lon="8.3506251"><ele>242.0</ele><time>2026-05-03T08:45:33.992Z</time></trkpt><trkpt lat="44.2180576" lon="8.3505885"><ele>241.99999999999997</ele><time>2026-05-03T08:45:34.991Z</time></trkpt><trkpt lat="44.2181226" lon="8.3505836"><ele>242.0</ele><time>2026-05-03T08:45:35.991Z</time></trkpt><trkpt lat="44.2182144" lon="8.3506788"><ele>242.0</ele><time>2026-05-03T08:45:37.991Z</time></trkpt><trkpt lat="44.2182432" lon="8.3507632"><ele>241.99999999999997</ele><time>2026-05-03T08:45:38.991Z</time></trkpt><trkpt lat="44.2182625" lon="8.3508487"><ele>242.0</ele><time>2026-05-03T08:45:39.992Z</time></trkpt><trkpt lat="44.218282" lon="8.3509352"><ele>242.0</ele><time>2026-05-03T08:45:40.992Z</time></trkpt><trkpt lat="44.2183252" lon="8.3510732"><ele>242.6</ele><time>2026-05-03T08:45:42.991Z</time></trkpt><trkpt lat="44.2183659" lon="8.3512021"><ele>243.2</ele><time>2026-05-03T08:45:44.992Z</time></trkpt><trkpt lat="44.2184736" lon="8.3513094"><ele>243.8</ele><time>2026-05-03T08:45:46.992Z</time></trkpt><trkpt lat="44.2185455" lon="8.3513303"><ele>244.4</ele><time>2026-05-03T08:45:47.992Z</time></trkpt><trkpt lat="44.2186233" lon="8.351325"><ele>245.0</ele><time>2026-05-03T08:45:48.992Z</time></trkpt><trkpt lat="44.2187007" lon="8.3513124"><ele>245.00000000000003</ele><time>2026-05-03T08:45:49.991Z</time></trkpt><trkpt lat="44.2187707" lon="8.3512949"><ele>245.0</ele><time>2026-05-03T08:45:50.991Z</time></trkpt><trkpt lat="44.2188333" lon="8.3512719"><ele>245.0</ele><time>2026-05-03T08:45:51.992Z</time></trkpt><trkpt lat="44.2189498" lon="8.3512317"><ele>245.0</ele><time>2026-05-03T08:45:53.992Z</time></trkpt><trkpt lat="44.2190727" lon="8.3512094"><ele>245.00000000000003</ele><time>2026-05-03T08:45:55.992Z</time></trkpt><trkpt lat="44.2191405" lon="8.3512075"><ele>245.0</ele><time>2026-05-03T08:45:56.993Z</time></trkpt><trkpt lat="44.2192077" lon="8.3512027"><ele>246.6</ele><time>2026-05-03T08:45:57.991Z</time></trkpt><trkpt lat="44.2192736" lon="8.3511809"><ele>248.2</ele><time>2026-05-03T08:45:58.992Z</time></trkpt><trkpt lat="44.2193822" lon="8.3511145"><ele>249.8</ele><time>2026-05-03T08:46:00.991Z</time></trkpt><trkpt lat="44.2194624" lon="8.3510395"><ele>251.4</ele><time>2026-05-03T08:46:02.991Z</time></trkpt><trkpt lat="44.2195528" lon="8.3509602"><ele>253.0</ele><time>2026-05-03T08:46:04.993Z</time></trkpt><trkpt lat="44.2196377" lon="8.350842"><ele>253.0</ele><time>2026-05-03T08:46:06.993Z</time></trkpt><trkpt lat="44.219723" lon="8.3507364"><ele>253.0</ele><time>2026-05-03T08:46:08.993Z</time></trkpt><trkpt lat="44.2198312" lon="8.3507113"><ele>253.0</ele><time>2026-05-03T08:46:10.993Z</time></trkpt><trkpt lat="44.2199425" lon="8.3507273"><ele>253.0</ele><time>2026-05-03T08:46:12.992Z</time></trkpt><trkpt lat="44.2200068" lon="8.3507252"><ele>253.0</ele><time>2026-05-03T08:46:13.993Z</time></trkpt><trkpt lat="44.220068" lon="8.3507026"><ele>251.4</ele><time>2026-05-03T08:46:14.993Z</time></trkpt><trkpt lat="44.2201717" lon="8.3506061"><ele>249.8</ele><time>2026-05-03T08:46:16.993Z</time></trkpt><trkpt lat="44.2202568" lon="8.3504874"><ele>248.2</ele><time>2026-05-03T08:46:18.992Z</time></trkpt><trkpt lat="44.2203304" lon="8.3503603"><ele>246.6</ele><time>2026-05-03T08:46:20.993Z</time></trkpt><trkpt lat="44.2203707" lon="8.35029"><ele>245.0</ele><time>2026-05-03T08:46:21.993Z</time></trkpt><trkpt lat="44.2204452" lon="8.3501367"><ele>246.66666666666669</ele><time>2026-05-03T08:46:23.993Z</time></trkpt><trkpt lat="44.2204856" lon="8.3500501"><ele>248.33333333333334</ele><time>2026-05-03T08:46:24.993Z</time></trkpt><trkpt lat="44.2205207" lon="8.349974"><ele>250.0</ele><time>2026-05-03T08:46:25.993Z</time></trkpt><trkpt lat="44.220591" lon="8.3498574"><ele>251.66666666666669</ele><time>2026-05-03T08:46:27.993Z</time></trkpt><trkpt lat="44.2206907" lon="8.3498677"><ele>253.33333333333334</ele><time>2026-05-03T08:46:29.992Z</time></trkpt><trkpt lat="44.2207493" lon="8.3499079"><ele>255.0</ele><time>2026-05-03T08:46:30.992Z</time></trkpt><trkpt lat="44.2208061" lon="8.3499497"><ele>255.0</ele><time>2026-05-03T08:46:31.993Z</time></trkpt><trkpt lat="44.2209021" lon="8.3500127"><ele>255.0</ele><time>2026-05-03T08:46:33.993Z</time></trkpt><trkpt lat="44.220975" lon="8.350053"><ele>255.0</ele><time>2026-05-03T08:46:35.993Z</time></trkpt><trkpt lat="44.2210677" lon="8.3500527"><ele>255.0</ele><time>2026-05-03T08:46:37.993Z</time></trkpt><trkpt lat="44.221182" lon="8.3500143"><ele>255.0</ele><time>2026-05-03T08:46:39.993Z</time></trkpt><trkpt lat="44.221246" lon="8.3499795"><ele>255.0</ele><time>2026-05-03T08:46:40.993Z</time></trkpt><trkpt lat="44.2213061" lon="8.3499507"><ele>255.00000000000003</ele><time>2026-05-03T08:46:41.992Z</time></trkpt><trkpt lat="44.2213677" lon="8.3499129"><ele>255.0</ele><time>2026-05-03T08:46:42.993Z</time></trkpt><trkpt lat="44.2214286" lon="8.3498634"><ele>255.0</ele><time>2026-05-03T08:46:43.992Z</time></trkpt><trkpt lat="44.2214805" lon="8.3498007"><ele>255.00000000000003</ele><time>2026-05-03T08:46:44.993Z</time></trkpt><trkpt lat="44.221525" lon="8.3497122"><ele>255.0</ele><time>2026-05-03T08:46:45.993Z</time></trkpt><trkpt lat="44.2215592" lon="8.3496165"><ele>255.0</ele><time>2026-05-03T08:46:46.993Z</time></trkpt><trkpt lat="44.2215912" lon="8.3495075"><ele>257.0</ele><time>2026-05-03T08:46:47.993Z</time></trkpt><trkpt lat="44.2216223" lon="8.349381"><ele>259.0</ele><time>2026-05-03T08:46:48.993Z</time></trkpt><trkpt lat="44.2216554" lon="8.3492529"><ele>261.0</ele><time>2026-05-03T08:46:49.993Z</time></trkpt><trkpt lat="44.2216951" lon="8.3491161"><ele>263.0</ele><time>2026-05-03T08:46:50.993Z</time></trkpt><trkpt lat="44.2217345" lon="8.3489863"><ele>265.0</ele><time>2026-05-03T08:46:51.992Z</time></trkpt><trkpt lat="44.2217712" lon="8.3488664"><ele>268.0</ele><time>2026-05-03T08:46:52.993Z</time></trkpt><trkpt lat="44.2218039" lon="8.3487395"><ele>271.0</ele><time>2026-05-03T08:46:53.992Z</time></trkpt><trkpt lat="44.2218297" lon="8.3486146"><ele>274.0</ele><time>2026-05-03T08:46:54.992Z</time></trkpt><trkpt lat="44.2218516" lon="8.3484937"><ele>277.0</ele><time>2026-05-03T08:46:55.992Z</time></trkpt><trkpt lat="44.2218726" lon="8.3483891"><ele>280.0</ele><time>2026-05-03T08:46:56.993Z</time></trkpt><trkpt lat="44.2219115" lon="8.3482754"><ele>283.0</ele><time>2026-05-03T08:46:58.992Z</time></trkpt><trkpt lat="44.2219666" lon="8.3481899"><ele>283.0</ele><time>2026-05-03T08:47:00.992Z</time></trkpt><trkpt lat="44.22203" lon="8.3480979"><ele>283.0</ele><time>2026-05-03T08:47:02.992Z</time></trkpt><trkpt lat="44.2220089" lon="8.3479888"><ele>283.0</ele><time>2026-05-03T08:47:04.993Z</time></trkpt><trkpt lat="44.2219305" lon="8.3480021"><ele>283.0</ele><time>2026-05-03T08:47:06.993Z</time></trkpt><trkpt lat="44.2218699" lon="8.3480578"><ele>283.0</ele><time>2026-05-03T08:47:07.992Z</time></trkpt><trkpt lat="44.221826" lon="8.3481562"><ele>283.0</ele><time>2026-05-03T08:47:08.993Z</time></trkpt><trkpt lat="44.2217612" lon="8.3482665"><ele>283.0</ele><time>2026-05-03T08:47:09.993Z</time></trkpt><trkpt lat="44.2217076" lon="8.3483965"><ele>283.0</ele><time>2026-05-03T08:47:10.993Z</time></trkpt><trkpt lat="44.2216536" lon="8.348527"><ele>283.0</ele><time>2026-05-03T08:47:11.992Z</time></trkpt><trkpt lat="44.2215967" lon="8.3486313"><ele>283.0</ele><time>2026-05-03T08:47:12.994Z</time></trkpt><trkpt lat="44.221531" lon="8.3487169"><ele>283.0</ele><time>2026-05-03T08:47:13.994Z</time></trkpt><trkpt lat="44.2214635" lon="8.3487938"><ele>282.8333333333333</ele><time>2026-05-03T08:47:14.994Z</time></trkpt><trkpt lat="44.2213997" lon="8.3488556"><ele>282.66666666666663</ele><time>2026-05-03T08:47:15.993Z</time></trkpt><trkpt lat="44.22134" lon="8.348905"><ele>282.5</ele><time>2026-05-03T08:47:16.993Z</time></trkpt><trkpt lat="44.2212772" lon="8.3489547"><ele>282.3333333333333</ele><time>2026-05-03T08:47:17.993Z</time></trkpt><trkpt lat="44.2212086" lon="8.3490011"><ele>282.1666666666667</ele><time>2026-05-03T08:47:18.994Z</time></trkpt><trkpt lat="44.2211336" lon="8.3490184"><ele>282.0</ele><time>2026-05-03T08:47:19.993Z</time></trkpt><trkpt lat="44.2210487" lon="8.3490143"><ele>282.0</ele><time>2026-05-03T08:47:20.994Z</time></trkpt><trkpt lat="44.2209465" lon="8.3490049"><ele>282.0</ele><time>2026-05-03T08:47:21.993Z</time></trkpt><trkpt lat="44.22085" lon="8.3490007"><ele>282.0</ele><time>2026-05-03T08:47:22.994Z</time></trkpt><trkpt lat="44.2207531" lon="8.3489998"><ele>282.0</ele><time>2026-05-03T08:47:23.994Z</time></trkpt><trkpt lat="44.2206614" lon="8.348995"><ele>282.0</ele><time>2026-05-03T08:47:24.994Z</time></trkpt><trkpt lat="44.2205764" lon="8.3489886"><ele>285.0</ele><time>2026-05-03T08:47:25.994Z</time></trkpt><trkpt lat="44.2204993" lon="8.3489777"><ele>288.0</ele><time>2026-05-03T08:47:26.994Z</time></trkpt><trkpt lat="44.2204342" lon="8.3489703"><ele>291.0</ele><time>2026-05-03T08:47:27.994Z</time></trkpt><trkpt lat="44.2203345" lon="8.3490079"><ele>294.0</ele><time>2026-05-03T08:47:29.993Z</time></trkpt><trkpt lat="44.2202735" lon="8.3491221"><ele>297.0</ele><time>2026-05-03T08:47:31.993Z</time></trkpt><trkpt lat="44.2202573" lon="8.3492158"><ele>300.0</ele><time>2026-05-03T08:47:32.993Z</time></trkpt><trkpt lat="44.2202191" lon="8.349298"><ele>300.0</ele><time>2026-05-03T08:47:33.993Z</time></trkpt><trkpt lat="44.2201657" lon="8.3493674"><ele>300.0</ele><time>2026-05-03T08:47:34.994Z</time></trkpt><trkpt lat="44.2200946" lon="8.3494203"><ele>300.0</ele><time>2026-05-03T08:47:35.994Z</time></trkpt><trkpt lat="44.22002" lon="8.3494594"><ele>300.0</ele><time>2026-05-03T08:47:36.993Z</time></trkpt><trkpt lat="44.2199445" lon="8.3494934"><ele>300.0</ele><time>2026-05-03T08:47:37.993Z</time></trkpt><trkpt lat="44.2198657" lon="8.3495214"><ele>300.0</ele><time>2026-05-03T08:47:38.993Z</time></trkpt><trkpt lat="44.219786" lon="8.3495431"><ele>300.0</ele><time>2026-05-03T08:47:39.994Z</time></trkpt><trkpt lat="44.2197043" lon="8.3495607"><ele>300.0</ele><time>2026-05-03T08:47:40.993Z</time></trkpt><trkpt lat="44.2196348" lon="8.349579"><ele>300.0</ele><time>2026-05-03T08:47:41.994Z</time></trkpt><trkpt lat="44.2195428" lon="8.3496097"><ele>300.0</ele><time>2026-05-03T08:47:43.994Z</time></trkpt><trkpt lat="44.2194544" lon="8.3496275"><ele>300.0</ele><time>2026-05-03T08:47:46.994Z</time></trkpt><trkpt lat="44.2194399" lon="8.3495374"><ele>300.0</ele><time>2026-05-03T08:47:49.994Z</time></trkpt><trkpt lat="44.2195056" lon="8.3495135"><ele>300.0</ele><time>2026-05-03T08:47:51.994Z</time></trkpt><trkpt lat="44.2196197" lon="8.3495182"><ele>300.0</ele><time>2026-05-03T08:47:53.993Z</time></trkpt><trkpt lat="44.2197023" lon="8.3494868"><ele>300.0</ele><time>2026-05-03T08:47:54.993Z</time></trkpt><trkpt lat="44.2197761" lon="8.3494527"><ele>300.0</ele><time>2026-05-03T08:47:55.993Z</time></trkpt><trkpt lat="44.2198428" lon="8.3494051"><ele>300.0</ele><time>2026-05-03T08:47:56.994Z</time></trkpt><trkpt lat="44.2199094" lon="8.3493482"><ele>300.0</ele><time>2026-05-03T08:47:57.993Z</time></trkpt><trkpt lat="44.2199805" lon="8.3492847"><ele>300.0</ele><time>2026-05-03T08:47:58.994Z</time></trkpt><trkpt lat="44.2200332" lon="8.3492304"><ele>300.0</ele><time>2026-05-03T08:47:59.994Z</time></trkpt><trkpt lat="44.2201196" lon="8.3490908"><ele>300.0</ele><time>2026-05-03T08:48:01.994Z</time></trkpt><trkpt lat="44.2201458" lon="8.3489972"><ele>300.0</ele><time>2026-05-03T08:48:02.994Z</time></trkpt><trkpt lat="44.2201616" lon="8.3489082"><ele>300.0</ele><time>2026-05-03T08:48:03.993Z</time></trkpt><trkpt lat="44.220173" lon="8.3488209"><ele>300.0</ele><time>2026-05-03T08:48:04.994Z</time></trkpt><trkpt lat="44.2201841" lon="8.3486557"><ele>305.4</ele><time>2026-05-03T08:48:06.993Z</time></trkpt><trkpt lat="44.2202073" lon="8.3485366"><ele>310.8</ele><time>2026-05-03T08:48:08.994Z</time></trkpt><trkpt lat="44.2203086" lon="8.348516"><ele>316.20000000000005</ele><time>2026-05-03T08:48:10.994Z</time></trkpt><trkpt lat="44.220378" lon="8.348517"><ele>321.6</ele><time>2026-05-03T08:48:11.994Z</time></trkpt><trkpt lat="44.2204621" lon="8.3485118"><ele>327.0</ele><time>2026-05-03T08:48:12.994Z</time></trkpt><trkpt lat="44.2205715" lon="8.3484919"><ele>324.0</ele><time>2026-05-03T08:48:13.993Z</time></trkpt><trkpt lat="44.2206641" lon="8.3484856"><ele>321.0</ele><time>2026-05-03T08:48:14.994Z</time></trkpt><trkpt lat="44.2207426" lon="8.34846"><ele>318.0</ele><time>2026-05-03T08:48:15.993Z</time></trkpt><trkpt lat="44.2208067" lon="8.3484261"><ele>315.0</ele><time>2026-05-03T08:48:16.993Z</time></trkpt><trkpt lat="44.2208622" lon="8.3483812"><ele>312.0</ele><time>2026-05-03T08:48:17.994Z</time></trkpt><trkpt lat="44.220917" lon="8.3483209"><ele>309.0</ele><time>2026-05-03T08:48:18.994Z</time></trkpt><trkpt lat="44.2209675" lon="8.3482412"><ele>309.0</ele><time>2026-05-03T08:48:19.994Z</time></trkpt><trkpt lat="44.2210047" lon="8.3481444"><ele>309.0</ele><time>2026-05-03T08:48:20.995Z</time></trkpt><trkpt lat="44.2210284" lon="8.3480325"><ele>309.0</ele><time>2026-05-03T08:48:21.995Z</time></trkpt><trkpt lat="44.2210366" lon="8.3479141"><ele>309.0</ele><time>2026-05-03T08:48:22.995Z</time></trkpt><trkpt lat="44.221047" lon="8.34778"><ele>309.0</ele><time>2026-05-03T08:48:23.994Z</time></trkpt><trkpt lat="44.2210545" lon="8.3476371"><ele>309.0</ele><time>2026-05-03T08:48:24.995Z</time></trkpt><trkpt lat="44.2210669" lon="8.3474953"><ele>312.1666666666667</ele><time>2026-05-03T08:48:25.995Z</time></trkpt><trkpt lat="44.2210787" lon="8.3473695"><ele>315.3333333333333</ele><time>2026-05-03T08:48:26.994Z</time></trkpt><trkpt lat="44.221088" lon="8.3472748"><ele>318.5</ele><time>2026-05-03T08:48:27.995Z</time></trkpt><trkpt lat="44.2211458" lon="8.3471793"><ele>321.66666666666663</ele><time>2026-05-03T08:48:29.995Z</time></trkpt><trkpt lat="44.221258" lon="8.347104"><ele>324.8333333333333</ele><time>2026-05-03T08:48:31.994Z</time></trkpt><trkpt lat="44.2213199" lon="8.3470713"><ele>328.0</ele><time>2026-05-03T08:48:32.995Z</time></trkpt><trkpt lat="44.221386" lon="8.3470407"><ele>327.5</ele><time>2026-05-03T08:48:33.995Z</time></trkpt><trkpt lat="44.221458" lon="8.3470088"><ele>327.0</ele><time>2026-05-03T08:48:34.995Z</time></trkpt><trkpt lat="44.2215231" lon="8.346954"><ele>326.5</ele><time>2026-05-03T08:48:35.995Z</time></trkpt><trkpt lat="44.2215742" lon="8.3468741"><ele>326.0</ele><time>2026-05-03T08:48:36.995Z</time></trkpt><trkpt lat="44.2216019" lon="8.3467656"><ele>325.5</ele><time>2026-05-03T08:48:37.995Z</time></trkpt><trkpt lat="44.2216115" lon="8.3466582"><ele>325.0</ele><time>2026-05-03T08:48:38.995Z</time></trkpt><trkpt lat="44.2216146" lon="8.3465669"><ele>325.0</ele><time>2026-05-03T08:48:39.994Z</time></trkpt><trkpt lat="44.2216637" lon="8.3464773"><ele>325.0</ele><time>2026-05-03T08:48:41.995Z</time></trkpt><trkpt lat="44.2217847" lon="8.3464215"><ele>325.0</ele><time>2026-05-03T08:48:43.995Z</time></trkpt><trkpt lat="44.2218514" lon="8.3463591"><ele>325.0</ele><time>2026-05-03T08:48:44.994Z</time></trkpt><trkpt lat="44.221916" lon="8.3462608"><ele>325.0</ele><time>2026-05-03T08:48:45.995Z</time></trkpt><trkpt lat="44.2219735" lon="8.346146"><ele>326.3333333333333</ele><time>2026-05-03T08:48:46.994Z</time></trkpt><trkpt lat="44.2220126" lon="8.3460535"><ele>327.66666666666663</ele><time>2026-05-03T08:48:47.995Z</time></trkpt><trkpt lat="44.2220873" lon="8.3459274"><ele>329.0</ele><time>2026-05-03T08:48:49.995Z</time></trkpt><trkpt lat="44.2221643" lon="8.3458496"><ele>330.3333333333333</ele><time>2026-05-03T08:48:51.995Z</time></trkpt><trkpt lat="44.2222347" lon="8.3458073"><ele>331.6666666666667</ele><time>2026-05-03T08:48:52.994Z</time></trkpt><trkpt lat="44.2222984" lon="8.3457868"><ele>333.0</ele><time>2026-05-03T08:48:53.994Z</time></trkpt><trkpt lat="44.2223687" lon="8.3457717"><ele>333.0</ele><time>2026-05-03T08:48:54.994Z</time></trkpt><trkpt lat="44.2224486" lon="8.3457656"><ele>333.0</ele><time>2026-05-03T08:48:55.994Z</time></trkpt><trkpt lat="44.2225242" lon="8.3457552"><ele>333.0</ele><time>2026-05-03T08:48:56.995Z</time></trkpt><trkpt lat="44.2225888" lon="8.345738"><ele>333.0</ele><time>2026-05-03T08:48:57.994Z</time></trkpt><trkpt lat="44.2226812" lon="8.3456881"><ele>333.0</ele><time>2026-05-03T08:48:59.995Z</time></trkpt><trkpt lat="44.2227405" lon="8.3455946"><ele>333.0</ele><time>2026-05-03T08:49:02.994Z</time></trkpt><trkpt lat="44.2226877" lon="8.3455179"><ele>333.0</ele><time>2026-05-03T08:49:05.995Z</time></trkpt><trkpt lat="44.2225848" lon="8.3455821"><ele>333.0</ele><time>2026-05-03T08:49:07.995Z</time></trkpt><trkpt lat="44.2225028" lon="8.3456321"><ele>333.0</ele><time>2026-05-03T08:49:08.994Z</time></trkpt><trkpt lat="44.2224076" lon="8.3456476"><ele>333.0</ele><time>2026-05-03T08:49:09.995Z</time></trkpt><trkpt lat="44.222318" lon="8.3456338"><ele>333.0</ele><time>2026-05-03T08:49:10.995Z</time></trkpt><trkpt lat="44.2222334" lon="8.3456175"><ele>336.0</ele><time>2026-05-03T08:49:11.995Z</time></trkpt><trkpt lat="44.2221578" lon="8.3456202"><ele>339.0</ele><time>2026-05-03T08:49:12.995Z</time></trkpt><trkpt lat="44.2220665" lon="8.3456484"><ele>342.0</ele><time>2026-05-03T08:49:13.995Z</time></trkpt><trkpt lat="44.2219812" lon="8.3457044"><ele>345.0</ele><time>2026-05-03T08:49:14.995Z</time></trkpt><trkpt lat="44.2219204" lon="8.3457936"><ele>348.0</ele><time>2026-05-03T08:49:15.995Z</time></trkpt><trkpt lat="44.2218604" lon="8.3458971"><ele>351.0</ele><time>2026-05-03T08:49:16.994Z</time></trkpt><trkpt lat="44.2218056" lon="8.3459983"><ele>351.0</ele><time>2026-05-03T08:49:17.995Z</time></trkpt><trkpt lat="44.2217395" lon="8.3460917"><ele>351.0</ele><time>2026-05-03T08:49:18.995Z</time></trkpt><trkpt lat="44.2216811" lon="8.3461495"><ele>351.0</ele><time>2026-05-03T08:49:19.994Z</time></trkpt><trkpt lat="44.2216187" lon="8.3461809"><ele>351.0</ele><time>2026-05-03T08:49:20.995Z</time></trkpt><trkpt lat="44.2215491" lon="8.346177"><ele>351.0</ele><time>2026-05-03T08:49:21.994Z</time></trkpt><trkpt lat="44.2214825" lon="8.3461535"><ele>351.0</ele><time>2026-05-03T08:49:22.994Z</time></trkpt><trkpt lat="44.2213627" lon="8.3461811"><ele>350.8333333333333</ele><time>2026-05-03T08:49:24.994Z</time></trkpt><trkpt lat="44.2213094" lon="8.3462363"><ele>350.6666666666667</ele><time>2026-05-03T08:49:25.996Z</time></trkpt><trkpt lat="44.2212705" lon="8.3463168"><ele>350.5</ele><time>2026-05-03T08:49:26.995Z</time></trkpt><trkpt lat="44.2212362" lon="8.3464077"><ele>350.33333333333337</ele><time>2026-05-03T08:49:27.996Z</time></trkpt><trkpt lat="44.2211956" lon="8.3464912"><ele>350.1666666666667</ele><time>2026-05-03T08:49:28.996Z</time></trkpt><trkpt lat="44.2210669" lon="8.3465578"><ele>350.0</ele><time>2026-05-03T08:49:30.996Z</time></trkpt><trkpt lat="44.2209922" lon="8.3465882"><ele>350.0</ele><time>2026-05-03T08:49:31.995Z</time></trkpt><trkpt lat="44.220904" lon="8.346638"><ele>350.0</ele><time>2026-05-03T08:49:32.996Z</time></trkpt><trkpt lat="44.2208158" lon="8.3466967"><ele>350.0</ele><time>2026-05-03T08:49:33.996Z</time></trkpt><trkpt lat="44.2207291" lon="8.3467507"><ele>350.0</ele><time>2026-05-03T08:49:34.996Z</time></trkpt><trkpt lat="44.2206398" lon="8.3468091"><ele>350.0</ele><time>2026-05-03T08:49:35.996Z</time></trkpt><trkpt lat="44.2205575" lon="8.3468785"><ele>354.4</ele><time>2026-05-03T08:49:36.996Z</time></trkpt><trkpt lat="44.2204698" lon="8.346952"><ele>358.8</ele><time>2026-05-03T08:49:37.995Z</time></trkpt><trkpt lat="44.2204049" lon="8.3470168"><ele>363.20000000000005</ele><time>2026-05-03T08:49:38.995Z</time></trkpt><trkpt lat="44.2203314" lon="8.3470998"><ele>367.6</ele><time>2026-05-03T08:49:40.996Z</time></trkpt><trkpt lat="44.2202604" lon="8.3471849"><ele>372.0</ele><time>2026-05-03T08:49:43.996Z</time></trkpt><trkpt lat="44.2202045" lon="8.3470946"><ele>372.0</ele><time>2026-05-03T08:49:46.995Z</time></trkpt><trkpt lat="44.2202769" lon="8.3469704"><ele>372.0</ele><time>2026-05-03T08:49:48.996Z</time></trkpt><trkpt lat="44.2203369" lon="8.3469192"><ele>372.0</ele><time>2026-05-03T08:49:49.996Z</time></trkpt><trkpt lat="44.2204055" lon="8.3468499"><ele>372.0</ele><time>2026-05-03T08:49:50.996Z</time></trkpt><trkpt lat="44.2204743" lon="8.3467719"><ele>372.0</ele><time>2026-05-03T08:49:51.996Z</time></trkpt><trkpt lat="44.2205485" lon="8.3466701"><ele>372.0</ele><time>2026-05-03T08:49:52.995Z</time></trkpt><trkpt lat="44.2206337" lon="8.3465608"><ele>372.0</ele><time>2026-05-03T08:49:53.996Z</time></trkpt><trkpt lat="44.2207243" lon="8.3464364"><ele>372.0</ele><time>2026-05-03T08:49:54.995Z</time></trkpt><trkpt lat="44.2208009" lon="8.3463184"><ele>372.0</ele><time>2026-05-03T08:49:55.995Z</time></trkpt><trkpt lat="44.2208713" lon="8.3462089"><ele>372.20000000000005</ele><time>2026-05-03T08:49:56.996Z</time></trkpt><trkpt lat="44.2209328" lon="8.3461104"><ele>372.4</ele><time>2026-05-03T08:49:57.996Z</time></trkpt><trkpt lat="44.220994" lon="8.3460204"><ele>372.6</ele><time>2026-05-03T08:49:58.996Z</time></trkpt><trkpt lat="44.2210608" lon="8.3459273"><ele>372.79999999999995</ele><time>2026-05-03T08:49:59.996Z</time></trkpt><trkpt lat="44.2211319" lon="8.345833"><ele>373.0</ele><time>2026-05-03T08:50:00.995Z</time></trkpt><trkpt lat="44.2212055" lon="8.3457403"><ele>373.0</ele><time>2026-05-03T08:50:01.995Z</time></trkpt><trkpt lat="44.221276" lon="8.3456501"><ele>373.0</ele><time>2026-05-03T08:50:02.996Z</time></trkpt><trkpt lat="44.2213453" lon="8.3455569"><ele>373.0</ele><time>2026-05-03T08:50:03.995Z</time></trkpt><trkpt lat="44.221415" lon="8.345463"><ele>373.0</ele><time>2026-05-03T08:50:04.996Z</time></trkpt><trkpt lat="44.2214818" lon="8.3453648"><ele>373.0</ele><time>2026-05-03T08:50:05.996Z</time></trkpt><trkpt lat="44.2215506" lon="8.3452712"><ele>372.66666666666663</ele><time>2026-05-03T08:50:06.995Z</time></trkpt><trkpt lat="44.2216257" lon="8.3451905"><ele>372.3333333333333</ele><time>2026-05-03T08:50:07.996Z</time></trkpt><trkpt lat="44.2217053" lon="8.3451343"><ele>372.0</ele><time>2026-05-03T08:50:08.995Z</time></trkpt><trkpt lat="44.2217842" lon="8.3451062"><ele>371.6666666666667</ele><time>2026-05-03T08:50:09.996Z</time></trkpt><trkpt lat="44.2218486" lon="8.3450863"><ele>371.33333333333337</ele><time>2026-05-03T08:50:10.995Z</time></trkpt><trkpt lat="44.2219174" lon="8.3450551"><ele>371.0</ele><time>2026-05-03T08:50:11.995Z</time></trkpt><trkpt lat="44.2219732" lon="8.3450039"><ele>371.0</ele><time>2026-05-03T08:50:12.995Z</time></trkpt><trkpt lat="44.2220238" lon="8.3449452"><ele>371.0</ele><time>2026-05-03T08:50:13.995Z</time></trkpt><trkpt lat="44.222076" lon="8.3448873"><ele>371.0</ele><time>2026-05-03T08:50:14.996Z</time></trkpt><trkpt lat="44.2221627" lon="8.3447689"><ele>371.0</ele><time>2026-05-03T08:50:16.996Z</time></trkpt><trkpt lat="44.2221984" lon="8.3446904"><ele>371.0</ele><time>2026-05-03T08:50:17.995Z</time></trkpt><trkpt lat="44.222227" lon="8.3445944"><ele>371.0</ele><time>2026-05-03T08:50:18.996Z</time></trkpt><trkpt lat="44.2222492" lon="8.3445036"><ele>369.0</ele><time>2026-05-03T08:50:19.996Z</time></trkpt><trkpt lat="44.222308" lon="8.344369"><ele>367.0</ele><time>2026-05-03T08:50:21.996Z</time></trkpt><trkpt lat="44.2224233" lon="8.344312"><ele>365.0</ele><time>2026-05-03T08:50:23.996Z</time></trkpt><trkpt lat="44.2225018" lon="8.3442955"><ele>363.0</ele><time>2026-05-03T08:50:24.996Z</time></trkpt><trkpt lat="44.2225884" lon="8.3442483"><ele>361.0</ele><time>2026-05-03T08:50:25.996Z</time></trkpt><trkpt lat="44.2226776" lon="8.3441769"><ele>360.8</ele><time>2026-05-03T08:50:26.996Z</time></trkpt><trkpt lat="44.2227632" lon="8.3441022"><ele>360.6</ele><time>2026-05-03T08:50:27.996Z</time></trkpt><trkpt lat="44.222846" lon="8.3440234"><ele>360.4</ele><time>2026-05-03T08:50:28.996Z</time></trkpt><trkpt lat="44.222927" lon="8.3439522"><ele>360.2</ele><time>2026-05-03T08:50:29.996Z</time></trkpt><trkpt lat="44.2230016" lon="8.3438687"><ele>360.0</ele><time>2026-05-03T08:50:30.996Z</time></trkpt><trkpt lat="44.2230693" lon="8.3437724"><ele>361.3333333333333</ele><time>2026-05-03T08:50:31.997Z</time></trkpt><trkpt lat="44.2231287" lon="8.3436696"><ele>362.6666666666667</ele><time>2026-05-03T08:50:32.997Z</time></trkpt><trkpt lat="44.2231792" lon="8.3435669"><ele>364.0</ele><time>2026-05-03T08:50:33.997Z</time></trkpt><trkpt lat="44.2232221" lon="8.3434656"><ele>365.33333333333337</ele><time>2026-05-03T08:50:34.997Z</time></trkpt><trkpt lat="44.2232458" lon="8.3433659"><ele>366.6666666666667</ele><time>2026-05-03T08:50:35.996Z</time></trkpt><trkpt lat="44.2232407" lon="8.343253"><ele>368.0</ele><time>2026-05-03T08:50:36.997Z</time></trkpt><trkpt lat="44.2231915" lon="8.3431681"><ele>364.6666666666667</ele><time>2026-05-03T08:50:37.997Z</time></trkpt><trkpt lat="44.223133" lon="8.3431001"><ele>361.33333333333337</ele><time>2026-05-03T08:50:38.997Z</time></trkpt><trkpt lat="44.2230717" lon="8.3430481"><ele>358.0</ele><time>2026-05-03T08:50:39.997Z</time></trkpt><trkpt lat="44.2229991" lon="8.3429393"><ele>354.6666666666667</ele><time>2026-05-03T08:50:41.997Z</time></trkpt><trkpt lat="44.2229861" lon="8.3428439"><ele>351.3333333333333</ele><time>2026-05-03T08:50:42.997Z</time></trkpt><trkpt lat="44.2229818" lon="8.3427397"><ele>348.0</ele><time>2026-05-03T08:50:43.996Z</time></trkpt><trkpt lat="44.2229722" lon="8.3426347"><ele>348.0</ele><time>2026-05-03T08:50:44.996Z</time></trkpt><trkpt lat="44.2229478" lon="8.3425387"><ele>348.0</ele><time>2026-05-03T08:50:45.997Z</time></trkpt><trkpt lat="44.2229121" lon="8.3424655"><ele>348.0</ele><time>2026-05-03T08:50:46.997Z</time></trkpt><trkpt lat="44.2228539" lon="8.3423923"><ele>348.0</ele><time>2026-05-03T08:50:47.997Z</time></trkpt><trkpt lat="44.2227705" lon="8.3423315"><ele>348.0</ele><time>2026-05-03T08:50:48.997Z</time></trkpt><trkpt lat="44.2226758" lon="8.3422929"><ele>348.0</ele><time>2026-05-03T08:50:49.997Z</time></trkpt><trkpt lat="44.2225838" lon="8.3422563"><ele>348.0</ele><time>2026-05-03T08:50:50.997Z</time></trkpt><trkpt lat="44.2225156" lon="8.3422149"><ele>348.0</ele><time>2026-05-03T08:50:51.997Z</time></trkpt><trkpt lat="44.2224507" lon="8.3421603"><ele>348.0</ele><time>2026-05-03T08:50:52.997Z</time></trkpt><trkpt lat="44.2224105" lon="8.3420884"><ele>348.0</ele><time>2026-05-03T08:50:53.997Z</time></trkpt><trkpt lat="44.2223852" lon="8.3419936"><ele>348.0</ele><time>2026-05-03T08:50:54.997Z</time></trkpt><trkpt lat="44.2223787" lon="8.3418784"><ele>348.0</ele><time>2026-05-03T08:50:55.997Z</time></trkpt><trkpt lat="44.2224002" lon="8.3417509"><ele>348.2</ele><time>2026-05-03T08:50:56.997Z</time></trkpt><trkpt lat="44.2224484" lon="8.3416325"><ele>348.4</ele><time>2026-05-03T08:50:57.997Z</time></trkpt><trkpt lat="44.2224957" lon="8.3415122"><ele>348.59999999999997</ele><time>2026-05-03T08:50:58.997Z</time></trkpt><trkpt lat="44.2225391" lon="8.3413919"><ele>348.79999999999995</ele><time>2026-05-03T08:50:59.997Z</time></trkpt><trkpt lat="44.2225711" lon="8.3412753"><ele>349.0</ele><time>2026-05-03T08:51:00.996Z</time></trkpt><trkpt lat="44.2225854" lon="8.3411561"><ele>349.4</ele><time>2026-05-03T08:51:01.997Z</time></trkpt><trkpt lat="44.2225823" lon="8.3410426"><ele>349.79999999999995</ele><time>2026-05-03T08:51:02.997Z</time></trkpt><trkpt lat="44.2225621" lon="8.3409214"><ele>350.20000000000005</ele><time>2026-05-03T08:51:03.997Z</time></trkpt><trkpt lat="44.2225146" lon="8.340821"><ele>350.6</ele><time>2026-05-03T08:51:04.996Z</time></trkpt><trkpt lat="44.2224452" lon="8.3407427"><ele>351.0</ele><time>2026-05-03T08:51:05.996Z</time></trkpt><trkpt lat="44.2223431" lon="8.3407082"><ele>348.6</ele><time>2026-05-03T08:51:06.997Z</time></trkpt><trkpt lat="44.2222561" lon="8.340698"><ele>346.20000000000005</ele><time>2026-05-03T08:51:07.996Z</time></trkpt><trkpt lat="44.2221745" lon="8.3407055"><ele>343.79999999999995</ele><time>2026-05-03T08:51:08.996Z</time></trkpt><trkpt lat="44.2220717" lon="8.3407237"><ele>341.4</ele><time>2026-05-03T08:51:09.997Z</time></trkpt><trkpt lat="44.2219587" lon="8.3407292"><ele>339.0</ele><time>2026-05-03T08:51:10.997Z</time></trkpt><trkpt lat="44.2218438" lon="8.3407346"><ele>339.0</ele><time>2026-05-03T08:51:11.997Z</time></trkpt><trkpt lat="44.2217355" lon="8.3407438"><ele>339.0</ele><time>2026-05-03T08:51:12.996Z</time></trkpt><trkpt lat="44.2216275" lon="8.3407585"><ele>339.0</ele><time>2026-05-03T08:51:13.997Z</time></trkpt><trkpt lat="44.2215305" lon="8.3407749"><ele>339.0</ele><time>2026-05-03T08:51:14.996Z</time></trkpt><trkpt lat="44.2214569" lon="8.340777"><ele>339.0</ele><time>2026-05-03T08:51:15.997Z</time></trkpt><trkpt lat="44.221387" lon="8.3407451"><ele>338.0</ele><time>2026-05-03T08:51:16.996Z</time></trkpt><trkpt lat="44.2213237" lon="8.3406877"><ele>337.0</ele><time>2026-05-03T08:51:17.997Z</time></trkpt><trkpt lat="44.2212507" lon="8.3406225"><ele>336.0</ele><time>2026-05-03T08:51:18.997Z</time></trkpt><trkpt lat="44.2211608" lon="8.3405603"><ele>335.0</ele><time>2026-05-03T08:51:19.997Z</time></trkpt><trkpt lat="44.2210671" lon="8.3405415"><ele>334.0</ele><time>2026-05-03T08:51:20.996Z</time></trkpt><trkpt lat="44.2209722" lon="8.3405369"><ele>334.0</ele><time>2026-05-03T08:51:21.997Z</time></trkpt><trkpt lat="44.2208806" lon="8.3405292"><ele>334.0</ele><time>2026-05-03T08:51:22.997Z</time></trkpt><trkpt lat="44.2207916" lon="8.340505"><ele>334.0</ele><time>2026-05-03T08:51:23.997Z</time></trkpt><trkpt lat="44.220715" lon="8.3404636"><ele>334.0</ele><time>2026-05-03T08:51:24.996Z</time></trkpt><trkpt lat="44.2206497" lon="8.3404188"><ele>334.0</ele><time>2026-05-03T08:51:25.996Z</time></trkpt><trkpt lat="44.2205904" lon="8.3403778"><ele>334.0</ele><time>2026-05-03T08:51:26.997Z</time></trkpt><trkpt lat="44.2205044" lon="8.3402963"><ele>330.16666666666663</ele><time>2026-05-03T08:51:28.997Z</time></trkpt><trkpt lat="44.2204697" lon="8.3401813"><ele>326.3333333333333</ele><time>2026-05-03T08:51:30.997Z</time></trkpt><trkpt lat="44.2204654" lon="8.3400923"><ele>322.5</ele><time>2026-05-03T08:51:31.996Z</time></trkpt><trkpt lat="44.2204758" lon="8.3399913"><ele>318.6666666666667</ele><time>2026-05-03T08:51:32.997Z</time></trkpt><trkpt lat="44.2205043" lon="8.339884"><ele>314.83333333333337</ele><time>2026-05-03T08:51:33.997Z</time></trkpt><trkpt lat="44.2205413" lon="8.3397771"><ele>311.0</ele><time>2026-05-03T08:51:34.997Z</time></trkpt><trkpt lat="44.2205764" lon="8.3396824"><ele>311.0</ele><time>2026-05-03T08:51:35.998Z</time></trkpt><trkpt lat="44.220618" lon="8.3395224"><ele>311.0</ele><time>2026-05-03T08:51:37.998Z</time></trkpt><trkpt lat="44.2206043" lon="8.3394305"><ele>311.0</ele><time>2026-05-03T08:51:38.998Z</time></trkpt><trkpt lat="44.2205621" lon="8.3393315"><ele>311.0</ele><time>2026-05-03T08:51:39.998Z</time></trkpt><trkpt lat="44.2205033" lon="8.3392471"><ele>311.0</ele><time>2026-05-03T08:51:40.998Z</time></trkpt><trkpt lat="44.2204405" lon="8.3391749"><ele>311.0</ele><time>2026-05-03T08:51:41.998Z</time></trkpt><trkpt lat="44.220381" lon="8.339108"><ele>311.0</ele><time>2026-05-03T08:51:42.998Z</time></trkpt><trkpt lat="44.2203057" lon="8.3389841"><ele>311.0</ele><time>2026-05-03T08:51:44.998Z</time></trkpt><trkpt lat="44.2202772" lon="8.3388452"><ele>311.0</ele><time>2026-05-03T08:51:46.998Z</time></trkpt><trkpt lat="44.2203191" lon="8.3386797"><ele>311.0</ele><time>2026-05-03T08:51:48.998Z</time></trkpt><trkpt lat="44.2203572" lon="8.3385934"><ele>311.0</ele><time>2026-05-03T08:51:49.998Z</time></trkpt><trkpt lat="44.2204172" lon="8.338475"><ele>312.40000000000003</ele><time>2026-05-03T08:51:51.998Z</time></trkpt><trkpt lat="44.2204789" lon="8.3383977"><ele>313.8</ele><time>2026-05-03T08:51:53.997Z</time></trkpt><trkpt lat="44.2205295" lon="8.3382837"><ele>315.20000000000005</ele><time>2026-05-03T08:51:55.998Z</time></trkpt><trkpt lat="44.2205982" lon="8.3381421"><ele>316.6</ele><time>2026-05-03T08:51:57.998Z</time></trkpt><trkpt lat="44.2206468" lon="8.338055"><ele>318.0</ele><time>2026-05-03T08:51:58.998Z</time></trkpt><trkpt lat="44.2206998" lon="8.3379659"><ele>318.0</ele><time>2026-05-03T08:51:59.998Z</time></trkpt><trkpt lat="44.2207486" lon="8.3378789"><ele>318.0</ele><time>2026-05-03T08:52:00.997Z</time></trkpt><trkpt lat="44.2207945" lon="8.3378072"><ele>318.0</ele><time>2026-05-03T08:52:01.998Z</time></trkpt><trkpt lat="44.2208413" lon="8.3377484"><ele>318.0</ele><time>2026-05-03T08:52:02.997Z</time></trkpt><trkpt lat="44.2209354" lon="8.3376595"><ele>318.0</ele><time>2026-05-03T08:52:04.998Z</time></trkpt><trkpt lat="44.2210357" lon="8.3376153"><ele>318.0</ele><time>2026-05-03T08:52:06.997Z</time></trkpt><trkpt lat="44.2211003" lon="8.3376355"><ele>318.0</ele><time>2026-05-03T08:52:07.997Z</time></trkpt><trkpt lat="44.2211731" lon="8.3377021"><ele>318.0</ele><time>2026-05-03T08:52:08.997Z</time></trkpt><trkpt lat="44.2212477" lon="8.3378051"><ele>318.0</ele><time>2026-05-03T08:52:09.998Z</time></trkpt><trkpt lat="44.2213218" lon="8.3379107"><ele>318.0</ele><time>2026-05-03T08:52:10.998Z</time></trkpt><trkpt lat="44.2213967" lon="8.3380109"><ele>318.0</ele><time>2026-05-03T08:52:11.998Z</time></trkpt><trkpt lat="44.2214856" lon="8.3380989"><ele>319.0</ele><time>2026-05-03T08:52:12.998Z</time></trkpt><trkpt lat="44.2215793" lon="8.3381716"><ele>320.0</ele><time>2026-05-03T08:52:13.998Z</time></trkpt><trkpt lat="44.2216673" lon="8.3382335"><ele>321.0</ele><time>2026-05-03T08:52:14.998Z</time></trkpt><trkpt lat="44.2217463" lon="8.3383024"><ele>322.0</ele><time>2026-05-03T08:52:15.998Z</time></trkpt><trkpt lat="44.2218197" lon="8.3383935"><ele>323.0</ele><time>2026-05-03T08:52:16.997Z</time></trkpt><trkpt lat="44.2218726" lon="8.3385095"><ele>323.0</ele><time>2026-05-03T08:52:17.998Z</time></trkpt><trkpt lat="44.2219181" lon="8.338639"><ele>323.0</ele><time>2026-05-03T08:52:18.998Z</time></trkpt><trkpt lat="44.2219792" lon="8.3387538"><ele>323.0</ele><time>2026-05-03T08:52:19.997Z</time></trkpt><trkpt lat="44.2220638" lon="8.3388476"><ele>323.0</ele><time>2026-05-03T08:52:20.997Z</time></trkpt><trkpt lat="44.2221631" lon="8.3389066"><ele>323.0</ele><time>2026-05-03T08:52:21.998Z</time></trkpt><trkpt lat="44.2222718" lon="8.3389025"><ele>324.83333333333337</ele><time>2026-05-03T08:52:22.998Z</time></trkpt><trkpt lat="44.2223544" lon="8.3388907"><ele>326.6666666666667</ele><time>2026-05-03T08:52:23.998Z</time></trkpt><trkpt lat="44.2224271" lon="8.3388856"><ele>328.5</ele><time>2026-05-03T08:52:24.997Z</time></trkpt><trkpt lat="44.2224928" lon="8.3388795"><ele>330.3333333333333</ele><time>2026-05-03T08:52:25.997Z</time></trkpt><trkpt lat="44.2225638" lon="8.3388717"><ele>332.16666666666663</ele><time>2026-05-03T08:52:26.998Z</time></trkpt><trkpt lat="44.2226395" lon="8.3388653"><ele>334.0</ele><time>2026-05-03T08:52:27.998Z</time></trkpt><trkpt lat="44.2227202" lon="8.3388575"><ele>330.66666666666663</ele><time>2026-05-03T08:52:28.997Z</time></trkpt><trkpt lat="44.2228029" lon="8.3388583"><ele>327.3333333333333</ele><time>2026-05-03T08:52:29.998Z</time></trkpt><trkpt lat="44.2228956" lon="8.3388647"><ele>324.0</ele><time>2026-05-03T08:52:30.997Z</time></trkpt><trkpt lat="44.2229897" lon="8.3388658"><ele>320.6666666666667</ele><time>2026-05-03T08:52:31.997Z</time></trkpt><trkpt lat="44.2230757" lon="8.3388539"><ele>317.33333333333337</ele><time>2026-05-03T08:52:32.998Z</time></trkpt><trkpt lat="44.2231581" lon="8.3388198"><ele>314.0</ele><time>2026-05-03T08:52:33.997Z</time></trkpt><trkpt lat="44.2232325" lon="8.3387594"><ele>314.0</ele><time>2026-05-03T08:52:34.997Z</time></trkpt><trkpt lat="44.2232911" lon="8.338678"><ele>314.0</ele><time>2026-05-03T08:52:35.998Z</time></trkpt><trkpt lat="44.2233374" lon="8.338591"><ele>314.0</ele><time>2026-05-03T08:52:36.998Z</time></trkpt><trkpt lat="44.2233772" lon="8.3385101"><ele>314.0</ele><time>2026-05-03T08:52:37.997Z</time></trkpt><trkpt lat="44.2234214" lon="8.3384426"><ele>314.0</ele><time>2026-05-03T08:52:38.998Z</time></trkpt><trkpt lat="44.2235425" lon="8.338415"><ele>314.0</ele><time>2026-05-03T08:52:40.997Z</time></trkpt><trkpt lat="44.2236189" lon="8.3384246"><ele>314.0</ele><time>2026-05-03T08:52:41.998Z</time></trkpt><trkpt lat="44.2236915" lon="8.3384452"><ele>314.0</ele><time>2026-05-03T08:52:42.998Z</time></trkpt><trkpt lat="44.2237582" lon="8.3384631"><ele>314.0</ele><time>2026-05-03T08:52:43.998Z</time></trkpt><trkpt lat="44.2238268" lon="8.3384751"><ele>314.0</ele><time>2026-05-03T08:52:44.998Z</time></trkpt><trkpt lat="44.2239497" lon="8.3384827"><ele>314.0</ele><time>2026-05-03T08:52:46.999Z</time></trkpt><trkpt lat="44.2240741" lon="8.3384716"><ele>313.5</ele><time>2026-05-03T08:52:48.998Z</time></trkpt><trkpt lat="44.2241454" lon="8.3384524"><ele>313.0</ele><time>2026-05-03T08:52:49.999Z</time></trkpt><trkpt lat="44.2242171" lon="8.338409"><ele>312.5</ele><time>2026-05-03T08:52:50.999Z</time></trkpt><trkpt lat="44.2242766" lon="8.3383519"><ele>312.0</ele><time>2026-05-03T08:52:51.998Z</time></trkpt><trkpt lat="44.2243267" lon="8.3382794"><ele>311.5</ele><time>2026-05-03T08:52:52.999Z</time></trkpt><trkpt lat="44.2244047" lon="8.3381498"><ele>311.0</ele><time>2026-05-03T08:52:54.999Z</time></trkpt><trkpt lat="44.2244793" lon="8.3380317"><ele>306.6</ele><time>2026-05-03T08:52:56.998Z</time></trkpt><trkpt lat="44.2245369" lon="8.3379058"><ele>302.20000000000005</ele><time>2026-05-03T08:52:58.999Z</time></trkpt><trkpt lat="44.2246257" lon="8.3378"><ele>297.79999999999995</ele><time>2026-05-03T08:53:00.999Z</time></trkpt><trkpt lat="44.2246901" lon="8.33778"><ele>293.4</ele><time>2026-05-03T08:53:01.999Z</time></trkpt><trkpt lat="44.22477" lon="8.3377945"><ele>289.0</ele><time>2026-05-03T08:53:02.999Z</time></trkpt><trkpt lat="44.2248498" lon="8.3378424"><ele>289.0</ele><time>2026-05-03T08:53:03.998Z</time></trkpt><trkpt lat="44.2249286" lon="8.3378902"><ele>289.0</ele><time>2026-05-03T08:53:04.999Z</time></trkpt><trkpt lat="44.2249997" lon="8.33793"><ele>289.0</ele><time>2026-05-03T08:53:05.999Z</time></trkpt><trkpt lat="44.2250698" lon="8.337955"><ele>289.0</ele><time>2026-05-03T08:53:06.998Z</time></trkpt><trkpt lat="44.225135" lon="8.3379574"><ele>289.0</ele><time>2026-05-03T08:53:07.998Z</time></trkpt><trkpt lat="44.2252391" lon="8.3379194"><ele>289.0</ele><time>2026-05-03T08:53:09.999Z</time></trkpt><trkpt lat="44.22533" lon="8.3378514"><ele>289.0</ele><time>2026-05-03T08:53:11.999Z</time></trkpt><trkpt lat="44.2254062" lon="8.3377808"><ele>289.0</ele><time>2026-05-03T08:53:13.999Z</time></trkpt><trkpt lat="44.2254611" lon="8.3377041"><ele>289.0</ele><time>2026-05-03T08:53:16.998Z</time></trkpt><trkpt lat="44.2254162" lon="8.3376319"><ele>289.0</ele><time>2026-05-03T08:54:56Z</time></trkpt><trkpt lat="44.2254757" lon="8.3376691"><ele>289.0</ele><time>2026-05-03T08:55:08.001Z</time></trkpt><trkpt lat="44.2254185" lon="8.3376245"><ele>289.0</ele><time>2026-05-03T08:56:30.002Z</time></trkpt><trkpt lat="44.225354" lon="8.3375651"><ele>289.0</ele><time>2026-05-03T08:56:40.001Z</time></trkpt><trkpt lat="44.2252451" lon="8.337577"><ele>289.0</ele><time>2026-05-03T08:56:42.002Z</time></trkpt><trkpt lat="44.2251814" lon="8.3376032"><ele>289.0</ele><time>2026-05-03T08:56:43.001Z</time></trkpt><trkpt lat="44.2251126" lon="8.3376231"><ele>289.0</ele><time>2026-05-03T08:56:44.002Z</time></trkpt><trkpt lat="44.2250284" lon="8.3376206"><ele>289.0</ele><time>2026-05-03T08:56:45.002Z</time></trkpt><trkpt lat="44.224943" lon="8.3375872"><ele>289.0</ele><time>2026-05-03T08:56:46.002Z</time></trkpt><trkpt lat="44.2248423" lon="8.3375365"><ele>289.0</ele><time>2026-05-03T08:56:47.002Z</time></trkpt><trkpt lat="44.2247326" lon="8.3374799"><ele>288.66666666666663</ele><time>2026-05-03T08:56:48.001Z</time></trkpt><trkpt lat="44.2246439" lon="8.3374416"><ele>288.3333333333333</ele><time>2026-05-03T08:56:49.002Z</time></trkpt><trkpt lat="44.2245646" lon="8.3374228"><ele>288.0</ele><time>2026-05-03T08:56:50.002Z</time></trkpt><trkpt lat="44.2244886" lon="8.3374311"><ele>287.6666666666667</ele><time>2026-05-03T08:56:51.002Z</time></trkpt><trkpt lat="44.2244039" lon="8.3374597"><ele>287.33333333333337</ele><time>2026-05-03T08:56:52.002Z</time></trkpt><trkpt lat="44.2243324" lon="8.337515"><ele>287.0</ele><time>2026-05-03T08:56:53.001Z</time></trkpt><trkpt lat="44.2242774" lon="8.3375873"><ele>287.0</ele><time>2026-05-03T08:56:54.001Z</time></trkpt><trkpt lat="44.2242086" lon="8.3376498"><ele>287.0</ele><time>2026-05-03T08:56:56.002Z</time></trkpt><trkpt lat="44.2241831" lon="8.3375336"><ele>287.0</ele><time>2026-05-03T08:56:58.002Z</time></trkpt><trkpt lat="44.2242138" lon="8.3374365"><ele>287.0</ele><time>2026-05-03T08:56:59.002Z</time></trkpt><trkpt lat="44.2242681" lon="8.3373539"><ele>287.0</ele><time>2026-05-03T08:57:00.002Z</time></trkpt><trkpt lat="44.2243395" lon="8.3373029"><ele>287.0</ele><time>2026-05-03T08:57:01.001Z</time></trkpt><trkpt lat="44.2244341" lon="8.3372673"><ele>287.0</ele><time>2026-05-03T08:57:02.002Z</time></trkpt><trkpt lat="44.2245325" lon="8.3372417"><ele>287.0</ele><time>2026-05-03T08:57:03.001Z</time></trkpt><trkpt lat="44.224637" lon="8.3372174"><ele>287.0</ele><time>2026-05-03T08:57:04.001Z</time></trkpt><trkpt lat="44.2247399" lon="8.3372016"><ele>287.0</ele><time>2026-05-03T08:57:05.002Z</time></trkpt><trkpt lat="44.2248406" lon="8.337199"><ele>287.0</ele><time>2026-05-03T08:57:06.002Z</time></trkpt><trkpt lat="44.2249416" lon="8.3371956"><ele>281.75</ele><time>2026-05-03T08:57:07.002Z</time></trkpt><trkpt lat="44.2250289" lon="8.3371681"><ele>276.5</ele><time>2026-05-03T08:57:08.003Z</time></trkpt><trkpt lat="44.2251109" lon="8.337083"><ele>271.25</ele><time>2026-05-03T08:57:09.002Z</time></trkpt><trkpt lat="44.2251963" lon="8.3369378"><ele>266.0</ele><time>2026-05-03T08:57:10.001Z</time></trkpt><trkpt lat="44.2252585" lon="8.3367812"><ele>266.0</ele><time>2026-05-03T08:57:11.003Z</time></trkpt><trkpt lat="44.2253127" lon="8.3366075"><ele>266.0</ele><time>2026-05-03T08:57:12.002Z</time></trkpt><trkpt lat="44.2253533" lon="8.3364438"><ele>266.0</ele><time>2026-05-03T08:57:13.002Z</time></trkpt><trkpt lat="44.2253939" lon="8.3362949"><ele>266.0</ele><time>2026-05-03T08:57:14.003Z</time></trkpt><trkpt lat="44.2254315" lon="8.3361645"><ele>263.6</ele><time>2026-05-03T08:57:15.003Z</time></trkpt><trkpt lat="44.2254641" lon="8.336038"><ele>261.20000000000005</ele><time>2026-05-03T08:57:16.002Z</time></trkpt><trkpt lat="44.2254788" lon="8.3359151"><ele>258.79999999999995</ele><time>2026-05-03T08:57:17.003Z</time></trkpt><trkpt lat="44.2254724" lon="8.3357973"><ele>256.4</ele><time>2026-05-03T08:57:18.003Z</time></trkpt><trkpt lat="44.2254414" lon="8.3356732"><ele>254.0</ele><time>2026-05-03T08:57:19.003Z</time></trkpt><trkpt lat="44.2254021" lon="8.3355379"><ele>253.75</ele><time>2026-05-03T08:57:20.003Z</time></trkpt><trkpt lat="44.2253673" lon="8.3353951"><ele>253.5</ele><time>2026-05-03T08:57:21.002Z</time></trkpt><trkpt lat="44.225341" lon="8.3352396"><ele>253.25</ele><time>2026-05-03T08:57:22.003Z</time></trkpt><trkpt lat="44.2253197" lon="8.3350781"><ele>253.0</ele><time>2026-05-03T08:57:23.002Z</time></trkpt><trkpt lat="44.2252994" lon="8.3349178"><ele>253.0</ele><time>2026-05-03T08:57:24.003Z</time></trkpt><trkpt lat="44.2252749" lon="8.3347646"><ele>253.0</ele><time>2026-05-03T08:57:25.002Z</time></trkpt><trkpt lat="44.2252458" lon="8.3346141"><ele>253.0</ele><time>2026-05-03T08:57:26.003Z</time></trkpt><trkpt lat="44.2252022" lon="8.334486"><ele>253.0</ele><time>2026-05-03T08:57:27.002Z</time></trkpt><trkpt lat="44.2251377" lon="8.3343703"><ele>253.0</ele><time>2026-05-03T08:57:28.003Z</time></trkpt><trkpt lat="44.2250772" lon="8.3342595"><ele>252.60000000000002</ele><time>2026-05-03T08:57:29.003Z</time></trkpt><trkpt lat="44.2250341" lon="8.3341565"><ele>252.20000000000002</ele><time>2026-05-03T08:57:30.002Z</time></trkpt><trkpt lat="44.225017" lon="8.3340406"><ele>251.8</ele><time>2026-05-03T08:57:31.002Z</time></trkpt><trkpt lat="44.225031" lon="8.3339211"><ele>251.4</ele><time>2026-05-03T08:57:32.003Z</time></trkpt><trkpt lat="44.2250735" lon="8.3338007"><ele>251.0</ele><time>2026-05-03T08:57:33.002Z</time></trkpt><trkpt lat="44.2251368" lon="8.3336925"><ele>249.16666666666669</ele><time>2026-05-03T08:57:34.003Z</time></trkpt><trkpt lat="44.2252055" lon="8.3335938"><ele>247.33333333333334</ele><time>2026-05-03T08:57:35.003Z</time></trkpt><trkpt lat="44.2252653" lon="8.3335004"><ele>245.5</ele><time>2026-05-03T08:57:36.003Z</time></trkpt><trkpt lat="44.225316" lon="8.3334115"><ele>243.66666666666669</ele><time>2026-05-03T08:57:37.003Z</time></trkpt><trkpt lat="44.2253617" lon="8.3333267"><ele>241.83333333333334</ele><time>2026-05-03T08:57:38.002Z</time></trkpt><trkpt lat="44.2254086" lon="8.3332466"><ele>240.0</ele><time>2026-05-03T08:57:39.003Z</time></trkpt><trkpt lat="44.2254567" lon="8.333165"><ele>240.0</ele><time>2026-05-03T08:57:40.003Z</time></trkpt><trkpt lat="44.2255041" lon="8.3330775"><ele>240.0</ele><time>2026-05-03T08:57:41.003Z</time></trkpt><trkpt lat="44.2255427" lon="8.3329786"><ele>240.0</ele><time>2026-05-03T08:57:42.002Z</time></trkpt><trkpt lat="44.2255601" lon="8.3328595"><ele>240.0</ele><time>2026-05-03T08:57:43.002Z</time></trkpt><trkpt lat="44.2255524" lon="8.3327257"><ele>240.0</ele><time>2026-05-03T08:57:44.003Z</time></trkpt><trkpt lat="44.2255125" lon="8.332595"><ele>240.0</ele><time>2026-05-03T08:57:45.003Z</time></trkpt><trkpt lat="44.2254403" lon="8.3324725"><ele>239.75</ele><time>2026-05-03T08:57:46.002Z</time></trkpt><trkpt lat="44.2253447" lon="8.3323629"><ele>239.5</ele><time>2026-05-03T08:57:47.003Z</time></trkpt><trkpt lat="44.225244" lon="8.3322608"><ele>239.25</ele><time>2026-05-03T08:57:48.003Z</time></trkpt><trkpt lat="44.2251452" lon="8.3321586"><ele>239.0</ele><time>2026-05-03T08:57:49.003Z</time></trkpt><trkpt lat="44.225052" lon="8.3320526"><ele>240.5</ele><time>2026-05-03T08:57:50.003Z</time></trkpt><trkpt lat="44.2249569" lon="8.3319395"><ele>242.0</ele><time>2026-05-03T08:57:51.002Z</time></trkpt><trkpt lat="44.2248617" lon="8.3318216"><ele>243.5</ele><time>2026-05-03T08:57:52.003Z</time></trkpt><trkpt lat="44.2247701" lon="8.3317152"><ele>245.0</ele><time>2026-05-03T08:57:53.003Z</time></trkpt><trkpt lat="44.2246841" lon="8.3316202"><ele>241.6</ele><time>2026-05-03T08:57:54.003Z</time></trkpt><trkpt lat="44.2246007" lon="8.3315289"><ele>238.2</ele><time>2026-05-03T08:57:55.002Z</time></trkpt><trkpt lat="44.2245093" lon="8.3314508"><ele>234.8</ele><time>2026-05-03T08:57:56.003Z</time></trkpt><trkpt lat="44.2244096" lon="8.3313877"><ele>231.4</ele><time>2026-05-03T08:57:57.003Z</time></trkpt><trkpt lat="44.224301" lon="8.3313375"><ele>228.0</ele><time>2026-05-03T08:57:58.003Z</time></trkpt><trkpt lat="44.2241843" lon="8.331297"><ele>228.0</ele><time>2026-05-03T08:57:59.003Z</time></trkpt><trkpt lat="44.224071" lon="8.3312732"><ele>228.0</ele><time>2026-05-03T08:58:00.002Z</time></trkpt><trkpt lat="44.2239742" lon="8.3312499"><ele>228.0</ele><time>2026-05-03T08:58:01.002Z</time></trkpt><trkpt lat="44.2238881" lon="8.3312289"><ele>228.0</ele><time>2026-05-03T08:58:02.002Z</time></trkpt><trkpt lat="44.2238111" lon="8.3311923"><ele>228.0</ele><time>2026-05-03T08:58:03.003Z</time></trkpt><trkpt lat="44.2237429" lon="8.3311275"><ele>226.16666666666666</ele><time>2026-05-03T08:58:04.003Z</time></trkpt><trkpt lat="44.2237037" lon="8.3310357"><ele>224.33333333333331</ele><time>2026-05-03T08:58:05.002Z</time></trkpt><trkpt lat="44.223692" lon="8.3309408"><ele>222.5</ele><time>2026-05-03T08:58:06.003Z</time></trkpt><trkpt lat="44.2237361" lon="8.3307848"><ele>220.66666666666666</ele><time>2026-05-03T08:58:08.003Z</time></trkpt><trkpt lat="44.223795" lon="8.330716"><ele>218.83333333333331</ele><time>2026-05-03T08:58:09.002Z</time></trkpt><trkpt lat="44.2238741" lon="8.3306568"><ele>217.0</ele><time>2026-05-03T08:58:10.003Z</time></trkpt><trkpt lat="44.2239587" lon="8.3306169"><ele>219.2</ele><time>2026-05-03T08:58:11.003Z</time></trkpt><trkpt lat="44.2240561" lon="8.3305895"><ele>221.39999999999998</ele><time>2026-05-03T08:58:12.003Z</time></trkpt><trkpt lat="44.2241583" lon="8.3305663"><ele>223.60000000000002</ele><time>2026-05-03T08:58:13.003Z</time></trkpt><trkpt lat="44.224272" lon="8.3305551"><ele>225.8</ele><time>2026-05-03T08:58:14.002Z</time></trkpt><trkpt lat="44.224386" lon="8.3305693"><ele>228.0</ele><time>2026-05-03T08:58:15.003Z</time></trkpt><trkpt lat="44.2245175" lon="8.3306047"><ele>228.0</ele><time>2026-05-03T08:58:16.002Z</time></trkpt><trkpt lat="44.2246588" lon="8.3306349"><ele>228.0</ele><time>2026-05-03T08:58:17.002Z</time></trkpt><trkpt lat="44.2248078" lon="8.3306519"><ele>228.0</ele><time>2026-05-03T08:58:18.003Z</time></trkpt><trkpt lat="44.2249518" lon="8.3306593"><ele>228.0</ele><time>2026-05-03T08:58:19.003Z</time></trkpt><trkpt lat="44.2250922" lon="8.3306589"><ele>227.5</ele><time>2026-05-03T08:58:20.002Z</time></trkpt><trkpt lat="44.2252248" lon="8.3306583"><ele>227.0</ele><time>2026-05-03T08:58:21.003Z</time></trkpt><trkpt lat="44.2253549" lon="8.3306589"><ele>226.5</ele><time>2026-05-03T08:58:22.004Z</time></trkpt><trkpt lat="44.225484" lon="8.3306634"><ele>226.0</ele><time>2026-05-03T08:58:23.003Z</time></trkpt><trkpt lat="44.2256133" lon="8.3306756"><ele>223.75</ele><time>2026-05-03T08:58:24.004Z</time></trkpt><trkpt lat="44.2257389" lon="8.3306938"><ele>221.5</ele><time>2026-05-03T08:58:25.004Z</time></trkpt><trkpt lat="44.2258587" lon="8.3307161"><ele>219.25</ele><time>2026-05-03T08:58:26.003Z</time></trkpt><trkpt lat="44.2259739" lon="8.3307385"><ele>217.0</ele><time>2026-05-03T08:58:27.004Z</time></trkpt><trkpt lat="44.2260851" lon="8.3307595"><ele>217.0</ele><time>2026-05-03T08:58:28.004Z</time></trkpt><trkpt lat="44.2261854" lon="8.3307796"><ele>217.0</ele><time>2026-05-03T08:58:29.004Z</time></trkpt><trkpt lat="44.2262848" lon="8.3307985"><ele>217.0</ele><time>2026-05-03T08:58:30.004Z</time></trkpt><trkpt lat="44.2263781" lon="8.3308068"><ele>217.0</ele><time>2026-05-03T08:58:31.004Z</time></trkpt><trkpt lat="44.2264722" lon="8.3307875"><ele>217.0</ele><time>2026-05-03T08:58:32.004Z</time></trkpt><trkpt lat="44.2265672" lon="8.3307326"><ele>216.39999999999998</ele><time>2026-05-03T08:58:33.003Z</time></trkpt><trkpt lat="44.2266653" lon="8.3306462"><ele>215.79999999999998</ele><time>2026-05-03T08:58:34.004Z</time></trkpt><trkpt lat="44.2267534" lon="8.3305496"><ele>215.2</ele><time>2026-05-03T08:58:35.004Z</time></trkpt><trkpt lat="44.2268281" lon="8.3304522"><ele>214.6</ele><time>2026-05-03T08:58:36.003Z</time></trkpt><trkpt lat="44.2268952" lon="8.3303629"><ele>214.0</ele><time>2026-05-03T08:58:37.003Z</time></trkpt><trkpt lat="44.2269515" lon="8.3302741"><ele>212.99999999999997</ele><time>2026-05-03T08:58:38.004Z</time></trkpt><trkpt lat="44.2269924" lon="8.3301853"><ele>212.0</ele><time>2026-05-03T08:58:39.004Z</time></trkpt><trkpt lat="44.227005" lon="8.33009"><ele>211.0</ele><time>2026-05-03T08:58:40.004Z</time></trkpt><trkpt lat="44.2269942" lon="8.3299999"><ele>210.0</ele><time>2026-05-03T08:58:41.004Z</time></trkpt><trkpt lat="44.226947" lon="8.3299241"><ele>208.99999999999997</ele><time>2026-05-03T08:58:42.003Z</time></trkpt><trkpt lat="44.2268768" lon="8.3298821"><ele>208.0</ele><time>2026-05-03T08:58:43.003Z</time></trkpt><trkpt lat="44.2267786" lon="8.3298683"><ele>208.0</ele><time>2026-05-03T08:58:44.003Z</time></trkpt><trkpt lat="44.2266646" lon="8.329881"><ele>208.0</ele><time>2026-05-03T08:58:45.003Z</time></trkpt><trkpt lat="44.2265547" lon="8.3298911"><ele>208.0</ele><time>2026-05-03T08:58:46.003Z</time></trkpt><trkpt lat="44.226438" lon="8.3298907"><ele>208.0</ele><time>2026-05-03T08:58:47.004Z</time></trkpt><trkpt lat="44.2263155" lon="8.3298763"><ele>205.5</ele><time>2026-05-03T08:58:48.004Z</time></trkpt><trkpt lat="44.2261914" lon="8.3298523"><ele>203.0</ele><time>2026-05-03T08:58:49.004Z</time></trkpt><trkpt lat="44.2260692" lon="8.32982"><ele>200.5</ele><time>2026-05-03T08:58:50.004Z</time></trkpt><trkpt lat="44.2259561" lon="8.3297865"><ele>198.0</ele><time>2026-05-03T08:58:51.004Z</time></trkpt><trkpt lat="44.2258556" lon="8.3297538"><ele>195.8</ele><time>2026-05-03T08:58:52.003Z</time></trkpt><trkpt lat="44.2257688" lon="8.3297179"><ele>193.60000000000002</ele><time>2026-05-03T08:58:53.004Z</time></trkpt><trkpt lat="44.2256878" lon="8.3296736"><ele>191.39999999999998</ele><time>2026-05-03T08:58:54.003Z</time></trkpt><trkpt lat="44.2256094" lon="8.3295945"><ele>189.2</ele><time>2026-05-03T08:58:55.004Z</time></trkpt><trkpt lat="44.2255334" lon="8.3294692"><ele>187.0</ele><time>2026-05-03T08:58:56.003Z</time></trkpt><trkpt lat="44.225455" lon="8.3293309"><ele>187.0</ele><time>2026-05-03T08:58:57.003Z</time></trkpt><trkpt lat="44.225379" lon="8.3291949"><ele>187.0</ele><time>2026-05-03T08:58:58.004Z</time></trkpt><trkpt lat="44.2253005" lon="8.3290681"><ele>187.0</ele><time>2026-05-03T08:58:59.004Z</time></trkpt><trkpt lat="44.2252194" lon="8.328946"><ele>187.0</ele><time>2026-05-03T08:59:00.004Z</time></trkpt><trkpt lat="44.2251372" lon="8.3288338"><ele>187.75</ele><time>2026-05-03T08:59:01.004Z</time></trkpt><trkpt lat="44.225048" lon="8.3287303"><ele>188.5</ele><time>2026-05-03T08:59:02.004Z</time></trkpt><trkpt lat="44.2249522" lon="8.3286472"><ele>189.25</ele><time>2026-05-03T08:59:03.003Z</time></trkpt><trkpt lat="44.2248453" lon="8.3285866"><ele>190.0</ele><time>2026-05-03T08:59:04.003Z</time></trkpt><trkpt lat="44.2247276" lon="8.3285564"><ele>190.0</ele><time>2026-05-03T08:59:05.003Z</time></trkpt><trkpt lat="44.2246155" lon="8.3285542"><ele>190.0</ele><time>2026-05-03T08:59:06.004Z</time></trkpt><trkpt lat="44.224514" lon="8.3285701"><ele>190.0</ele><time>2026-05-03T08:59:07.004Z</time></trkpt><trkpt lat="44.2244222" lon="8.3285884"><ele>190.0</ele><time>2026-05-03T08:59:08.004Z</time></trkpt><trkpt lat="44.22433" lon="8.3286031"><ele>190.0</ele><time>2026-05-03T08:59:09.004Z</time></trkpt><trkpt lat="44.2242415" lon="8.3286076"><ele>190.0</ele><time>2026-05-03T08:59:10.004Z</time></trkpt><trkpt lat="44.2241507" lon="8.3285954"><ele>190.0</ele><time>2026-05-03T08:59:11.004Z</time></trkpt><trkpt lat="44.2240639" lon="8.3285665"><ele>190.0</ele><time>2026-05-03T08:59:12.004Z</time></trkpt><trkpt lat="44.2239798" lon="8.3285028"><ele>190.0</ele><time>2026-05-03T08:59:13.004Z</time></trkpt><trkpt lat="44.2238991" lon="8.3284212"><ele>190.0</ele><time>2026-05-03T08:59:14.003Z</time></trkpt><trkpt lat="44.223824" lon="8.3283389"><ele>189.0</ele><time>2026-05-03T08:59:15.003Z</time></trkpt><trkpt lat="44.2237538" lon="8.3282536"><ele>188.0</ele><time>2026-05-03T08:59:16.003Z</time></trkpt><trkpt lat="44.2236859" lon="8.3281528"><ele>187.0</ele><time>2026-05-03T08:59:17.003Z</time></trkpt><trkpt lat="44.2236214" lon="8.3280445"><ele>186.0</ele><time>2026-05-03T08:59:18.004Z</time></trkpt><trkpt lat="44.2235588" lon="8.3279365"><ele>185.0</ele><time>2026-05-03T08:59:19.003Z</time></trkpt><trkpt lat="44.2235021" lon="8.3278211"><ele>185.0</ele><time>2026-05-03T08:59:20.004Z</time></trkpt><trkpt lat="44.2234529" lon="8.3277112"><ele>185.0</ele><time>2026-05-03T08:59:21.003Z</time></trkpt><trkpt lat="44.2234103" lon="8.3276141"><ele>185.0</ele><time>2026-05-03T08:59:22.003Z</time></trkpt><trkpt lat="44.2233674" lon="8.3275373"><ele>185.0</ele><time>2026-05-03T08:59:23.004Z</time></trkpt><trkpt lat="44.2233056" lon="8.3274813"><ele>185.0</ele><time>2026-05-03T08:59:24.003Z</time></trkpt><trkpt lat="44.2232326" lon="8.3274402"><ele>185.0</ele><time>2026-05-03T08:59:25.004Z</time></trkpt><trkpt lat="44.2231532" lon="8.3274055"><ele>183.33333333333331</ele><time>2026-05-03T08:59:26.003Z</time></trkpt><trkpt lat="44.2230741" lon="8.3273753"><ele>181.66666666666666</ele><time>2026-05-03T08:59:27.005Z</time></trkpt><trkpt lat="44.2229997" lon="8.3273388"><ele>180.0</ele><time>2026-05-03T08:59:28.005Z</time></trkpt><trkpt lat="44.222928" lon="8.327285"><ele>178.33333333333334</ele><time>2026-05-03T08:59:29.004Z</time></trkpt><trkpt lat="44.222866" lon="8.327195"><ele>176.66666666666669</ele><time>2026-05-03T08:59:30.005Z</time></trkpt><trkpt lat="44.2228111" lon="8.3270938"><ele>175.0</ele><time>2026-05-03T08:59:31.005Z</time></trkpt><trkpt lat="44.2227628" lon="8.326988"><ele>175.0</ele><time>2026-05-03T08:59:32.005Z</time></trkpt><trkpt lat="44.2227176" lon="8.3268817"><ele>175.0</ele><time>2026-05-03T08:59:33.005Z</time></trkpt><trkpt lat="44.222673" lon="8.3267908"><ele>175.0</ele><time>2026-05-03T08:59:34.004Z</time></trkpt><trkpt lat="44.2226246" lon="8.3267287"><ele>175.0</ele><time>2026-05-03T08:59:35.005Z</time></trkpt><trkpt lat="44.2225168" lon="8.3267309"><ele>175.0</ele><time>2026-05-03T08:59:37.005Z</time></trkpt><trkpt lat="44.2224672" lon="8.3268641"><ele>175.0</ele><time>2026-05-03T08:59:39.005Z</time></trkpt><trkpt lat="44.222496" lon="8.3269977"><ele>175.0</ele><time>2026-05-03T08:59:40.005Z</time></trkpt><trkpt lat="44.2225465" lon="8.327124"><ele>175.0</ele><time>2026-05-03T08:59:41.005Z</time></trkpt><trkpt lat="44.2226067" lon="8.3272283"><ele>175.0</ele><time>2026-05-03T08:59:42.004Z</time></trkpt><trkpt lat="44.2226689" lon="8.3273097"><ele>175.0</ele><time>2026-05-03T08:59:43.005Z</time></trkpt><trkpt lat="44.2227349" lon="8.3273886"><ele>175.0</ele><time>2026-05-03T08:59:44.004Z</time></trkpt><trkpt lat="44.2227937" lon="8.3274632"><ele>173.0</ele><time>2026-05-03T08:59:45.004Z</time></trkpt><trkpt lat="44.2228467" lon="8.3275291"><ele>171.0</ele><time>2026-05-03T08:59:46.004Z</time></trkpt><trkpt lat="44.2229143" lon="8.3276613"><ele>169.0</ele><time>2026-05-03T08:59:48.005Z</time></trkpt><trkpt lat="44.2228646" lon="8.3277735"><ele>167.0</ele><time>2026-05-03T08:59:50.005Z</time></trkpt><trkpt lat="44.2227156" lon="8.3277014"><ele>165.0</ele><time>2026-05-03T08:59:52.005Z</time></trkpt><trkpt lat="44.2226322" lon="8.3276132"><ele>165.0</ele><time>2026-05-03T08:59:53.005Z</time></trkpt><trkpt lat="44.2225559" lon="8.327484"><ele>165.0</ele><time>2026-05-03T08:59:54.006Z</time></trkpt><trkpt lat="44.2224821" lon="8.3273633"><ele>165.0</ele><time>2026-05-03T08:59:55.004Z</time></trkpt><trkpt lat="44.2224095" lon="8.3272635"><ele>165.0</ele><time>2026-05-03T08:59:56.004Z</time></trkpt><trkpt lat="44.2223409" lon="8.327182"><ele>165.0</ele><time>2026-05-03T08:59:57.005Z</time></trkpt><trkpt lat="44.2222706" lon="8.3271201"><ele>163.6</ele><time>2026-05-03T08:59:58.005Z</time></trkpt><trkpt lat="44.2221892" lon="8.3270893"><ele>162.2</ele><time>2026-05-03T08:59:59.004Z</time></trkpt><trkpt lat="44.2220934" lon="8.3270871"><ele>160.8</ele><time>2026-05-03T09:00:00.005Z</time></trkpt><trkpt lat="44.2219958" lon="8.3271054"><ele>159.4</ele><time>2026-05-03T09:00:01.004Z</time></trkpt><trkpt lat="44.2219046" lon="8.3271368"><ele>158.0</ele><time>2026-05-03T09:00:02.004Z</time></trkpt><trkpt lat="44.2218148" lon="8.327162"><ele>158.0</ele><time>2026-05-03T09:00:03.005Z</time></trkpt><trkpt lat="44.2217295" lon="8.3271554"><ele>158.0</ele><time>2026-05-03T09:00:04.005Z</time></trkpt><trkpt lat="44.2216588" lon="8.3270989"><ele>158.0</ele><time>2026-05-03T09:00:05.004Z</time></trkpt><trkpt lat="44.2215932" lon="8.3269919"><ele>158.0</ele><time>2026-05-03T09:00:06.005Z</time></trkpt><trkpt lat="44.2215302" lon="8.3268573"><ele>158.0</ele><time>2026-05-03T09:00:07.005Z</time></trkpt><trkpt lat="44.2214682" lon="8.326718"><ele>158.0</ele><time>2026-05-03T09:00:08.005Z</time></trkpt><trkpt lat="44.221407" lon="8.3265747"><ele>158.0</ele><time>2026-05-03T09:00:09.004Z</time></trkpt><trkpt lat="44.2213482" lon="8.3264389"><ele>158.0</ele><time>2026-05-03T09:00:10.005Z</time></trkpt><trkpt lat="44.2212907" lon="8.3263133"><ele>158.0</ele><time>2026-05-03T09:00:11.005Z</time></trkpt><trkpt lat="44.2212294" lon="8.326198"><ele>158.0</ele><time>2026-05-03T09:00:12.005Z</time></trkpt><trkpt lat="44.2211661" lon="8.3260963"><ele>156.4</ele><time>2026-05-03T09:00:13.005Z</time></trkpt><trkpt lat="44.2210952" lon="8.326011"><ele>154.8</ele><time>2026-05-03T09:00:14.004Z</time></trkpt><trkpt lat="44.2210249" lon="8.3259312"><ele>153.2</ele><time>2026-05-03T09:00:15.005Z</time></trkpt><trkpt lat="44.2209566" lon="8.3258463"><ele>151.6</ele><time>2026-05-03T09:00:16.005Z</time></trkpt><trkpt lat="44.2208869" lon="8.3257541"><ele>150.0</ele><time>2026-05-03T09:00:17.005Z</time></trkpt><trkpt lat="44.2208167" lon="8.3256564"><ele>150.0</ele><time>2026-05-03T09:00:18.004Z</time></trkpt><trkpt lat="44.2207443" lon="8.325566"><ele>150.0</ele><time>2026-05-03T09:00:19.005Z</time></trkpt><trkpt lat="44.2206737" lon="8.3254798"><ele>150.0</ele><time>2026-05-03T09:00:20.005Z</time></trkpt><trkpt lat="44.2206066" lon="8.3253981"><ele>150.0</ele><time>2026-05-03T09:00:21.005Z</time></trkpt><trkpt lat="44.2205442" lon="8.325326"><ele>150.0</ele><time>2026-05-03T09:00:22.005Z</time></trkpt><trkpt lat="44.2204744" lon="8.3252669"><ele>150.0</ele><time>2026-05-03T09:00:23.005Z</time></trkpt><trkpt lat="44.2203979" lon="8.3252159"><ele>149.6</ele><time>2026-05-03T09:00:24.005Z</time></trkpt><trkpt lat="44.2203067" lon="8.3251948"><ele>149.2</ele><time>2026-05-03T09:00:25.004Z</time></trkpt><trkpt lat="44.2202061" lon="8.3251934"><ele>148.8</ele><time>2026-05-03T09:00:26.004Z</time></trkpt><trkpt lat="44.2201068" lon="8.3252032"><ele>148.4</ele><time>2026-05-03T09:00:27.005Z</time></trkpt><trkpt lat="44.2200103" lon="8.3252192"><ele>148.0</ele><time>2026-05-03T09:00:28.005Z</time></trkpt><trkpt lat="44.2199075" lon="8.3252415"><ele>146.6</ele><time>2026-05-03T09:00:29.006Z</time></trkpt><trkpt lat="44.219801" lon="8.325266"><ele>145.20000000000002</ele><time>2026-05-03T09:00:30.005Z</time></trkpt><trkpt lat="44.2196932" lon="8.325285"><ele>143.8</ele><time>2026-05-03T09:00:31.005Z</time></trkpt><trkpt lat="44.2195896" lon="8.3252949"><ele>142.4</ele><time>2026-05-03T09:00:32.005Z</time></trkpt><trkpt lat="44.2194875" lon="8.3252883"><ele>141.0</ele><time>2026-05-03T09:00:33.006Z</time></trkpt><trkpt lat="44.2193895" lon="8.325276"><ele>141.0</ele><time>2026-05-03T09:00:34.005Z</time></trkpt><trkpt lat="44.2192945" lon="8.3252619"><ele>141.0</ele><time>2026-05-03T09:00:35.006Z</time></trkpt><trkpt lat="44.2192058" lon="8.3252591"><ele>141.0</ele><time>2026-05-03T09:00:36.006Z</time></trkpt><trkpt lat="44.2191118" lon="8.3252708"><ele>141.0</ele><time>2026-05-03T09:00:37.006Z</time></trkpt><trkpt lat="44.2190288" lon="8.3252932"><ele>141.0</ele><time>2026-05-03T09:00:38.006Z</time></trkpt><trkpt lat="44.2189424" lon="8.3253218"><ele>140.8</ele><time>2026-05-03T09:00:39.006Z</time></trkpt><trkpt lat="44.2188789" lon="8.3253643"><ele>140.6</ele><time>2026-05-03T09:00:40.006Z</time></trkpt><trkpt lat="44.2187798" lon="8.3254252"><ele>140.4</ele><time>2026-05-03T09:00:42.006Z</time></trkpt><trkpt lat="44.2186763" lon="8.3254556"><ele>140.2</ele><time>2026-05-03T09:00:44.006Z</time></trkpt><trkpt lat="44.218576" lon="8.325419"><ele>140.0</ele><time>2026-05-03T09:00:46.006Z</time></trkpt><trkpt lat="44.2185278" lon="8.3252649"><ele>140.0</ele><time>2026-05-03T09:00:48.005Z</time></trkpt><trkpt lat="44.2185122" lon="8.3251158"><ele>140.0</ele><time>2026-05-03T09:00:49.005Z</time></trkpt><trkpt lat="44.2184933" lon="8.3249374"><ele>140.0</ele><time>2026-05-03T09:00:50.006Z</time></trkpt><trkpt lat="44.2184846" lon="8.3247919"><ele>140.0</ele><time>2026-05-03T09:00:51.006Z</time></trkpt><trkpt lat="44.2184828" lon="8.3246844"><ele>140.0</ele><time>2026-05-03T09:00:52.006Z</time></trkpt><trkpt lat="44.2184838" lon="8.3245794"><ele>140.5</ele><time>2026-05-03T09:00:53.005Z</time></trkpt><trkpt lat="44.2184933" lon="8.324431"><ele>141.0</ele><time>2026-05-03T09:00:55.005Z</time></trkpt><trkpt lat="44.2184778" lon="8.3243073"><ele>141.5</ele><time>2026-05-03T09:00:57.006Z</time></trkpt><trkpt lat="44.2184512" lon="8.3242141"><ele>142.0</ele><time>2026-05-03T09:00:59.006Z</time></trkpt><trkpt lat="44.2184254" lon="8.324132"><ele>142.5</ele><time>2026-05-03T09:01:01.006Z</time></trkpt><trkpt lat="44.2184116" lon="8.3240257"><ele>143.0</ele><time>2026-05-03T09:01:05.006Z</time></trkpt><trkpt lat="44.2184043" lon="8.323909"><ele>143.0</ele><time>2026-05-03T09:01:12.006Z</time></trkpt><trkpt lat="44.2183512" lon="8.3237582"><ele>143.0</ele><time>2026-05-03T09:01:14.005Z</time></trkpt><trkpt lat="44.2183278" lon="8.3236668"><ele>143.0</ele><time>2026-05-03T09:01:15.005Z</time></trkpt><trkpt lat="44.2183115" lon="8.3235394"><ele>143.0</ele><time>2026-05-03T09:01:16.006Z</time></trkpt><trkpt lat="44.2183158" lon="8.3234101"><ele>143.0</ele><time>2026-05-03T09:01:17.005Z</time></trkpt><trkpt lat="44.2183242" lon="8.3232864"><ele>143.0</ele><time>2026-05-03T09:01:18.006Z</time></trkpt><trkpt lat="44.2183326" lon="8.3231684"><ele>143.0</ele><time>2026-05-03T09:01:19.005Z</time></trkpt><trkpt lat="44.2183374" lon="8.3230588"><ele>143.0</ele><time>2026-05-03T09:01:20.005Z</time></trkpt><trkpt lat="44.2183406" lon="8.3229582"><ele>143.0</ele><time>2026-05-03T09:01:21.005Z</time></trkpt><trkpt lat="44.2183521" lon="8.322862"><ele>143.0</ele><time>2026-05-03T09:01:22.006Z</time></trkpt><trkpt lat="44.2183767" lon="8.322777"><ele>143.0</ele><time>2026-05-03T09:01:23.006Z</time></trkpt><trkpt lat="44.2184946" lon="8.322698"><ele>144.33333333333331</ele><time>2026-05-03T09:01:25.005Z</time></trkpt><trkpt lat="44.2185616" lon="8.3226625"><ele>145.66666666666666</ele><time>2026-05-03T09:01:26.006Z</time></trkpt><trkpt lat="44.2186251" lon="8.3226302"><ele>147.0</ele><time>2026-05-03T09:01:27.005Z</time></trkpt><trkpt lat="44.2186844" lon="8.3225989"><ele>148.33333333333334</ele><time>2026-05-03T09:01:28.006Z</time></trkpt><trkpt lat="44.2187796" lon="8.32252"><ele>149.66666666666669</ele><time>2026-05-03T09:01:30.006Z</time></trkpt><trkpt lat="44.218801" lon="8.3224077"><ele>151.0</ele><time>2026-05-03T09:01:32.005Z</time></trkpt><trkpt lat="44.218714" lon="8.3223766"><ele>151.0</ele><time>2026-05-03T09:01:34.006Z</time></trkpt><trkpt lat="44.2186399" lon="8.3223927"><ele>151.0</ele><time>2026-05-03T09:01:35.006Z</time></trkpt><trkpt lat="44.2185644" lon="8.3223988"><ele>151.0</ele><time>2026-05-03T09:01:36.006Z</time></trkpt><trkpt lat="44.2184959" lon="8.3223775"><ele>151.0</ele><time>2026-05-03T09:01:37.006Z</time></trkpt><trkpt lat="44.2184106" lon="8.3223043"><ele>151.0</ele><time>2026-05-03T09:01:39.006Z</time></trkpt><trkpt lat="44.2183636" lon="8.3222119"><ele>151.0</ele><time>2026-05-03T09:01:42.007Z</time></trkpt><trkpt lat="44.2184093" lon="8.3221338"><ele>151.0</ele><time>2026-05-03T09:01:45.006Z</time></trkpt><trkpt lat="44.2184852" lon="8.3222407"><ele>151.0</ele><time>2026-05-03T09:01:47.007Z</time></trkpt><trkpt lat="44.2185672" lon="8.3223108"><ele>151.0</ele><time>2026-05-03T09:01:49.006Z</time></trkpt><trkpt lat="44.2186286" lon="8.3222829"><ele>151.0</ele><time>2026-05-03T09:01:50.007Z</time></trkpt><trkpt lat="44.2187053" lon="8.3222627"><ele>151.0</ele><time>2026-05-03T09:01:51.006Z</time></trkpt><trkpt lat="44.2187822" lon="8.3222567"><ele>151.0</ele><time>2026-05-03T09:01:52.007Z</time></trkpt><trkpt lat="44.2188603" lon="8.3222524"><ele>151.0</ele><time>2026-05-03T09:01:53.006Z</time></trkpt><trkpt lat="44.2189303" lon="8.3222601"><ele>151.0</ele><time>2026-05-03T09:01:54.006Z</time></trkpt><trkpt lat="44.219011" lon="8.322275"><ele>151.0</ele><time>2026-05-03T09:01:55.007Z</time></trkpt><trkpt lat="44.2190809" lon="8.322281"><ele>151.0</ele><time>2026-05-03T09:01:56.006Z</time></trkpt><trkpt lat="44.2192017" lon="8.3222039"><ele>151.0</ele><time>2026-05-03T09:01:58.007Z</time></trkpt><trkpt lat="44.2192673" lon="8.3221484"><ele>151.0</ele><time>2026-05-03T09:01:59.007Z</time></trkpt><trkpt lat="44.2193373" lon="8.3221029"><ele>156.16666666666669</ele><time>2026-05-03T09:02:00.006Z</time></trkpt><trkpt lat="44.2194229" lon="8.3220721"><ele>161.33333333333334</ele><time>2026-05-03T09:02:02.007Z</time></trkpt><trkpt lat="44.2195096" lon="8.3220503"><ele>166.5</ele><time>2026-05-03T09:02:06.007Z</time></trkpt><trkpt lat="44.2195903" lon="8.3220829"><ele>171.66666666666666</ele><time>2026-05-03T09:02:08.006Z</time></trkpt><trkpt lat="44.2196734" lon="8.3220838"><ele>176.83333333333331</ele><time>2026-05-03T09:02:10.007Z</time></trkpt><trkpt lat="44.2197183" lon="8.3219785"><ele>182.0</ele><time>2026-05-03T09:02:13.007Z</time></trkpt><trkpt lat="44.2196105" lon="8.321908"><ele>182.0</ele><time>2026-05-03T09:02:16.007Z</time></trkpt><trkpt lat="44.219537" lon="8.3219071"><ele>182.0</ele><time>2026-05-03T09:02:17.006Z</time></trkpt><trkpt lat="44.2194603" lon="8.3219083"><ele>182.0</ele><time>2026-05-03T09:02:18.006Z</time></trkpt><trkpt lat="44.2193862" lon="8.3219141"><ele>182.0</ele><time>2026-05-03T09:02:19.007Z</time></trkpt><trkpt lat="44.2193148" lon="8.3219228"><ele>182.0</ele><time>2026-05-03T09:02:20.007Z</time></trkpt><trkpt lat="44.2192412" lon="8.3219303"><ele>182.0</ele><time>2026-05-03T09:02:21.007Z</time></trkpt><trkpt lat="44.2191747" lon="8.3219417"><ele>182.0</ele><time>2026-05-03T09:02:22.006Z</time></trkpt><trkpt lat="44.2190703" lon="8.3219654"><ele>182.0</ele><time>2026-05-03T09:02:24.006Z</time></trkpt><trkpt lat="44.2189793" lon="8.3219556"><ele>182.0</ele><time>2026-05-03T09:02:26.007Z</time></trkpt><trkpt lat="44.2189278" lon="8.321826"><ele>182.0</ele><time>2026-05-03T09:02:28.006Z</time></trkpt><trkpt lat="44.2189427" lon="8.3217389"><ele>182.0</ele><time>2026-05-03T09:02:29.007Z</time></trkpt><trkpt lat="44.2190179" lon="8.3216031"><ele>182.0</ele><time>2026-05-03T09:02:31.007Z</time></trkpt><trkpt lat="44.2190738" lon="8.3215611"><ele>182.0</ele><time>2026-05-03T09:02:32.007Z</time></trkpt><trkpt lat="44.2191838" lon="8.3215178"><ele>182.0</ele><time>2026-05-03T09:02:34.006Z</time></trkpt><trkpt lat="44.2192519" lon="8.3215609"><ele>182.0</ele><time>2026-05-03T09:02:35.007Z</time></trkpt><trkpt lat="44.2193128" lon="8.3216168"><ele>182.0</ele><time>2026-05-03T09:02:36.007Z</time></trkpt><trkpt lat="44.21937" lon="8.3216607"><ele>182.0</ele><time>2026-05-03T09:02:37.007Z</time></trkpt><trkpt lat="44.2194354" lon="8.3216643"><ele>182.0</ele><time>2026-05-03T09:02:38.006Z</time></trkpt><trkpt lat="44.2195007" lon="8.3216396"><ele>182.0</ele><time>2026-05-03T09:02:39.007Z</time></trkpt><trkpt lat="44.2195679" lon="8.3216188"><ele>182.0</ele><time>2026-05-03T09:02:40.007Z</time></trkpt><trkpt lat="44.219647" lon="8.3215842"><ele>182.0</ele><time>2026-05-03T09:02:41.006Z</time></trkpt><trkpt lat="44.2197262" lon="8.3215302"><ele>182.0</ele><time>2026-05-03T09:02:42.006Z</time></trkpt><trkpt lat="44.2197987" lon="8.321452"><ele>182.0</ele><time>2026-05-03T09:02:43.007Z</time></trkpt><trkpt lat="44.2198643" lon="8.3213857"><ele>182.0</ele><time>2026-05-03T09:02:44.006Z</time></trkpt><trkpt lat="44.2199316" lon="8.3213691"><ele>182.0</ele><time>2026-05-03T09:02:45.006Z</time></trkpt><trkpt lat="44.2199967" lon="8.3213819"><ele>182.0</ele><time>2026-05-03T09:02:46.007Z</time></trkpt><trkpt lat="44.2200867" lon="8.3214008"><ele>187.5</ele><time>2026-05-03T09:02:48.007Z</time></trkpt><trkpt lat="44.2201757" lon="8.3213752"><ele>193.0</ele><time>2026-05-03T09:02:50.007Z</time></trkpt><trkpt lat="44.2201968" lon="8.3212548"><ele>198.5</ele><time>2026-05-03T09:02:52.007Z</time></trkpt><trkpt lat="44.2201132" lon="8.3211575"><ele>204.0</ele><time>2026-05-03T09:02:54.007Z</time></trkpt><trkpt lat="44.2200496" lon="8.3211346"><ele>209.50000000000003</ele><time>2026-05-03T09:02:55.008Z</time></trkpt><trkpt lat="44.2199682" lon="8.3211287"><ele>215.0</ele><time>2026-05-03T09:02:56.007Z</time></trkpt><trkpt lat="44.2198814" lon="8.3211384"><ele>211.2</ele><time>2026-05-03T09:02:57.008Z</time></trkpt><trkpt lat="44.219803" lon="8.3211679"><ele>207.4</ele><time>2026-05-03T09:02:58.008Z</time></trkpt><trkpt lat="44.2197428" lon="8.3212001"><ele>203.60000000000002</ele><time>2026-05-03T09:02:59.008Z</time></trkpt><trkpt lat="44.2196401" lon="8.3212857"><ele>199.8</ele><time>2026-05-03T09:03:01.008Z</time></trkpt><trkpt lat="44.2195265" lon="8.3212958"><ele>196.0</ele><time>2026-05-03T09:03:03.008Z</time></trkpt><trkpt lat="44.2194753" lon="8.3212189"><ele>195.99999999999997</ele><time>2026-05-03T09:03:04.008Z</time></trkpt><trkpt lat="44.2194314" lon="8.3210987"><ele>196.0</ele><time>2026-05-03T09:03:06.008Z</time></trkpt><trkpt lat="44.2193763" lon="8.320984"><ele>196.0</ele><time>2026-05-03T09:03:09.008Z</time></trkpt><trkpt lat="44.2193972" lon="8.320871"><ele>196.0</ele><time>2026-05-03T09:03:11.007Z</time></trkpt><trkpt lat="44.2194863" lon="8.3209224"><ele>195.99999999999997</ele><time>2026-05-03T09:03:13.008Z</time></trkpt><trkpt lat="44.2195249" lon="8.3210036"><ele>196.0</ele><time>2026-05-03T09:03:14.008Z</time></trkpt><trkpt lat="44.2195705" lon="8.3211284"><ele>195.99999999999997</ele><time>2026-05-03T09:03:16.008Z</time></trkpt><trkpt lat="44.2196275" lon="8.3211753"><ele>196.0</ele><time>2026-05-03T09:03:18.007Z</time></trkpt><trkpt lat="44.2196751" lon="8.3211156"><ele>196.0</ele><time>2026-05-03T09:03:20.008Z</time></trkpt><trkpt lat="44.2196878" lon="8.3209626"><ele>196.0</ele><time>2026-05-03T09:03:22.007Z</time></trkpt><trkpt lat="44.2196463" lon="8.3208756"><ele>195.99999999999997</ele><time>2026-05-03T09:03:23.007Z</time></trkpt><trkpt lat="44.2195898" lon="8.3207883"><ele>196.0</ele><time>2026-05-03T09:03:24.008Z</time></trkpt><trkpt lat="44.2195542" lon="8.3207049"><ele>196.0</ele><time>2026-05-03T09:03:25.008Z</time></trkpt><trkpt lat="44.2195351" lon="8.3206133"><ele>196.0</ele><time>2026-05-03T09:03:26.007Z</time></trkpt><trkpt lat="44.2195367" lon="8.32052"><ele>196.0</ele><time>2026-05-03T09:03:27.007Z</time></trkpt><trkpt lat="44.2195667" lon="8.3204326"><ele>196.0</ele><time>2026-05-03T09:03:28.007Z</time></trkpt><trkpt lat="44.2196129" lon="8.3203536"><ele>196.0</ele><time>2026-05-03T09:03:29.008Z</time></trkpt><trkpt lat="44.2196728" lon="8.3203031"><ele>196.0</ele><time>2026-05-03T09:03:30.008Z</time></trkpt><trkpt lat="44.2197353" lon="8.3202389"><ele>196.0</ele><time>2026-05-03T09:03:31.008Z</time></trkpt><trkpt lat="44.2197974" lon="8.3201489"><ele>201.8</ele><time>2026-05-03T09:03:32.007Z</time></trkpt><trkpt lat="44.2198584" lon="8.3200336"><ele>207.60000000000002</ele><time>2026-05-03T09:03:33.007Z</time></trkpt><trkpt lat="44.2199179" lon="8.3199014"><ele>213.4</ele><time>2026-05-03T09:03:34.008Z</time></trkpt><trkpt lat="44.2199665" lon="8.3197604"><ele>219.2</ele><time>2026-05-03T09:03:35.008Z</time></trkpt><trkpt lat="44.2200071" lon="8.3196205"><ele>225.0</ele><time>2026-05-03T09:03:36.008Z</time></trkpt><trkpt lat="44.2200405" lon="8.3194828"><ele>225.66666666666666</ele><time>2026-05-03T09:03:37.007Z</time></trkpt><trkpt lat="44.2200694" lon="8.3193619"><ele>226.33333333333331</ele><time>2026-05-03T09:03:38.008Z</time></trkpt><trkpt lat="44.2200922" lon="8.3192464"><ele>227.0</ele><time>2026-05-03T09:03:39.008Z</time></trkpt><trkpt lat="44.220115" lon="8.3191403"><ele>227.66666666666666</ele><time>2026-05-03T09:03:40.008Z</time></trkpt><trkpt lat="44.2201364" lon="8.3190255"><ele>228.33333333333331</ele><time>2026-05-03T09:03:41.008Z</time></trkpt><trkpt lat="44.2201382" lon="8.3189054"><ele>229.0</ele><time>2026-05-03T09:03:42.007Z</time></trkpt><trkpt lat="44.2201041" lon="8.3187788"><ele>231.16666666666666</ele><time>2026-05-03T09:03:43.008Z</time></trkpt><trkpt lat="44.2200514" lon="8.3186725"><ele>233.33333333333331</ele><time>2026-05-03T09:03:44.008Z</time></trkpt><trkpt lat="44.2199886" lon="8.3185704"><ele>235.5</ele><time>2026-05-03T09:03:45.008Z</time></trkpt><trkpt lat="44.2199379" lon="8.318467"><ele>237.66666666666669</ele><time>2026-05-03T09:03:46.007Z</time></trkpt><trkpt lat="44.2199111" lon="8.3183528"><ele>239.83333333333334</ele><time>2026-05-03T09:03:47.009Z</time></trkpt><trkpt lat="44.219891" lon="8.3182554"><ele>242.0</ele><time>2026-05-03T09:03:48.008Z</time></trkpt><trkpt lat="44.2198514" lon="8.3181089"><ele>242.00000000000003</ele><time>2026-05-03T09:03:50.008Z</time></trkpt><trkpt lat="44.2198289" lon="8.3179941"><ele>242.0</ele><time>2026-05-03T09:03:52.007Z</time></trkpt><trkpt lat="44.2198233" lon="8.3179064"><ele>242.0</ele><time>2026-05-03T09:03:54.008Z</time></trkpt><trkpt lat="44.2198557" lon="8.3178303"><ele>242.0</ele><time>2026-05-03T09:03:56.009Z</time></trkpt><trkpt lat="44.2199351" lon="8.3178823"><ele>242.00000000000003</ele><time>2026-05-03T09:03:58.008Z</time></trkpt><trkpt lat="44.2199642" lon="8.3179744"><ele>242.0</ele><time>2026-05-03T09:03:59.009Z</time></trkpt><trkpt lat="44.2199798" lon="8.3180819"><ele>242.00000000000003</ele><time>2026-05-03T09:04:00.009Z</time></trkpt><trkpt lat="44.2200043" lon="8.3181943"><ele>242.0</ele><time>2026-05-03T09:04:01.009Z</time></trkpt><trkpt lat="44.2200502" lon="8.3182957"><ele>242.0</ele><time>2026-05-03T09:04:02.008Z</time></trkpt><trkpt lat="44.2201101" lon="8.3183783"><ele>242.0</ele><time>2026-05-03T09:04:03.009Z</time></trkpt><trkpt lat="44.2201676" lon="8.3184482"><ele>242.00000000000003</ele><time>2026-05-03T09:04:04.009Z</time></trkpt><trkpt lat="44.2202531" lon="8.3185366"><ele>242.0</ele><time>2026-05-03T09:04:06.008Z</time></trkpt><trkpt lat="44.2203115" lon="8.3185696"><ele>242.0</ele><time>2026-05-03T09:04:08.009Z</time></trkpt><trkpt lat="44.2203863" lon="8.3185417"><ele>242.0</ele><time>2026-05-03T09:04:10.008Z</time></trkpt><trkpt lat="44.2204109" lon="8.3184188"><ele>242.0</ele><time>2026-05-03T09:04:12.008Z</time></trkpt><trkpt lat="44.2203727" lon="8.318344"><ele>242.0</ele><time>2026-05-03T09:04:13.008Z</time></trkpt><trkpt lat="44.2203031" lon="8.3182148"><ele>242.0</ele><time>2026-05-03T09:04:14.009Z</time></trkpt><trkpt lat="44.2202454" lon="8.3180606"><ele>245.16666666666669</ele><time>2026-05-03T09:04:15.009Z</time></trkpt><trkpt lat="44.2202296" lon="8.3179145"><ele>248.33333333333334</ele><time>2026-05-03T09:04:16.009Z</time></trkpt><trkpt lat="44.2202342" lon="8.3177642"><ele>251.5</ele><time>2026-05-03T09:04:17.009Z</time></trkpt><trkpt lat="44.220223" lon="8.3176386"><ele>254.66666666666669</ele><time>2026-05-03T09:04:18.009Z</time></trkpt><trkpt lat="44.2201966" lon="8.317542"><ele>257.8333333333333</ele><time>2026-05-03T09:04:19.008Z</time></trkpt><trkpt lat="44.2201566" lon="8.317474"><ele>261.0</ele><time>2026-05-03T09:04:20.009Z</time></trkpt><trkpt lat="44.2200803" lon="8.317408"><ele>261.0</ele><time>2026-05-03T09:04:22.009Z</time></trkpt><trkpt lat="44.2200643" lon="8.3172938"><ele>261.0</ele><time>2026-05-03T09:04:25.009Z</time></trkpt><trkpt lat="44.2201541" lon="8.3173132"><ele>261.0</ele><time>2026-05-03T09:04:27.008Z</time></trkpt><trkpt lat="44.2202068" lon="8.317368"><ele>261.0</ele><time>2026-05-03T09:04:28.008Z</time></trkpt><trkpt lat="44.2202704" lon="8.3174352"><ele>261.0</ele><time>2026-05-03T09:04:29.009Z</time></trkpt><trkpt lat="44.2203555" lon="8.3175073"><ele>261.0</ele><time>2026-05-03T09:04:30.008Z</time></trkpt><trkpt lat="44.2204448" lon="8.317564"><ele>261.0</ele><time>2026-05-03T09:04:31.009Z</time></trkpt><trkpt lat="44.2205426" lon="8.3176205"><ele>261.0</ele><time>2026-05-03T09:04:32.008Z</time></trkpt><trkpt lat="44.2206456" lon="8.3176664"><ele>261.0</ele><time>2026-05-03T09:04:33.009Z</time></trkpt><trkpt lat="44.2207364" lon="8.3176945"><ele>261.0</ele><time>2026-05-03T09:04:34.008Z</time></trkpt><trkpt lat="44.2208092" lon="8.3177069"><ele>261.0</ele><time>2026-05-03T09:04:35.008Z</time></trkpt><trkpt lat="44.2209262" lon="8.317725"><ele>261.5</ele><time>2026-05-03T09:04:37.008Z</time></trkpt><trkpt lat="44.2209911" lon="8.3177407"><ele>262.0</ele><time>2026-05-03T09:04:38.009Z</time></trkpt><trkpt lat="44.2210572" lon="8.3177763"><ele>262.5</ele><time>2026-05-03T09:04:39.009Z</time></trkpt><trkpt lat="44.2211206" lon="8.3178345"><ele>263.0</ele><time>2026-05-03T09:04:40.009Z</time></trkpt><trkpt lat="44.2211658" lon="8.3179246"><ele>263.5</ele><time>2026-05-03T09:04:41.009Z</time></trkpt><trkpt lat="44.2211922" lon="8.3180371"><ele>264.0</ele><time>2026-05-03T09:04:42.009Z</time></trkpt><trkpt lat="44.2212075" lon="8.318162"><ele>264.0</ele><time>2026-05-03T09:04:43.008Z</time></trkpt><trkpt lat="44.2212083" lon="8.3182891"><ele>264.0</ele><time>2026-05-03T09:04:44.009Z</time></trkpt><trkpt lat="44.2211969" lon="8.3184068"><ele>264.0</ele><time>2026-05-03T09:04:45.009Z</time></trkpt><trkpt lat="44.2211919" lon="8.3185092"><ele>264.0</ele><time>2026-05-03T09:04:46.009Z</time></trkpt><trkpt lat="44.221191" lon="8.3185972"><ele>264.0</ele><time>2026-05-03T09:04:47.008Z</time></trkpt><trkpt lat="44.2212053" lon="8.3187023"><ele>264.0</ele><time>2026-05-03T09:04:49.008Z</time></trkpt><trkpt lat="44.2212835" lon="8.3187769"><ele>264.0</ele><time>2026-05-03T09:04:52.009Z</time></trkpt><trkpt lat="44.2213657" lon="8.3187239"><ele>264.0</ele><time>2026-05-03T09:04:54.008Z</time></trkpt><trkpt lat="44.2213996" lon="8.3186042"><ele>264.0</ele><time>2026-05-03T09:04:55.009Z</time></trkpt><trkpt lat="44.2214374" lon="8.3184517"><ele>264.0</ele><time>2026-05-03T09:04:56.008Z</time></trkpt><trkpt lat="44.2214744" lon="8.3182968"><ele>264.0</ele><time>2026-05-03T09:04:57.009Z</time></trkpt><trkpt lat="44.2215024" lon="8.318129"><ele>266.75</ele><time>2026-05-03T09:04:58.008Z</time></trkpt><trkpt lat="44.2215057" lon="8.3179632"><ele>269.5</ele><time>2026-05-03T09:04:59.009Z</time></trkpt><trkpt lat="44.2214892" lon="8.3177897"><ele>272.25</ele><time>2026-05-03T09:05:00.008Z</time></trkpt><trkpt lat="44.2214587" lon="8.3176135"><ele>275.0</ele><time>2026-05-03T09:05:01.009Z</time></trkpt><trkpt lat="44.2214236" lon="8.3174607"><ele>275.0</ele><time>2026-05-03T09:05:02.009Z</time></trkpt><trkpt lat="44.2213833" lon="8.3173399"><ele>275.0</ele><time>2026-05-03T09:05:03.009Z</time></trkpt><trkpt lat="44.2213287" lon="8.3172413"><ele>275.0</ele><time>2026-05-03T09:05:04.01Z</time></trkpt><trkpt lat="44.2212601" lon="8.3171531"><ele>275.0</ele><time>2026-05-03T09:05:05.01Z</time></trkpt><trkpt lat="44.2211855" lon="8.3170605"><ele>275.0</ele><time>2026-05-03T09:05:06.009Z</time></trkpt><trkpt lat="44.2211135" lon="8.3169781"><ele>275.6666666666667</ele><time>2026-05-03T09:05:07.01Z</time></trkpt><trkpt lat="44.221042" lon="8.3169074"><ele>276.33333333333337</ele><time>2026-05-03T09:05:08.01Z</time></trkpt><trkpt lat="44.2209611" lon="8.3168696"><ele>277.0</ele><time>2026-05-03T09:05:09.01Z</time></trkpt><trkpt lat="44.2208686" lon="8.31685"><ele>277.6666666666667</ele><time>2026-05-03T09:05:10.01Z</time></trkpt><trkpt lat="44.2207781" lon="8.3168311"><ele>278.3333333333333</ele><time>2026-05-03T09:05:11.009Z</time></trkpt><trkpt lat="44.2207015" lon="8.3167889"><ele>279.0</ele><time>2026-05-03T09:05:12.01Z</time></trkpt><trkpt lat="44.2206395" lon="8.3167326"><ele>279.0</ele><time>2026-05-03T09:05:13.01Z</time></trkpt><trkpt lat="44.220595" lon="8.3166461"><ele>279.0</ele><time>2026-05-03T09:05:14.01Z</time></trkpt><trkpt lat="44.2205706" lon="8.3165321"><ele>279.0</ele><time>2026-05-03T09:05:15.01Z</time></trkpt><trkpt lat="44.220562" lon="8.3164054"><ele>279.0</ele><time>2026-05-03T09:05:16.01Z</time></trkpt><trkpt lat="44.2205715" lon="8.3162879"><ele>279.0</ele><time>2026-05-03T09:05:17.01Z</time></trkpt><trkpt lat="44.220579" lon="8.3161755"><ele>279.0</ele><time>2026-05-03T09:05:18.01Z</time></trkpt><trkpt lat="44.220569" lon="8.3160526"><ele>282.0</ele><time>2026-05-03T09:05:19.01Z</time></trkpt><trkpt lat="44.2205446" lon="8.3159259"><ele>285.0</ele><time>2026-05-03T09:05:20.009Z</time></trkpt><trkpt lat="44.2205082" lon="8.3158033"><ele>288.0</ele><time>2026-05-03T09:05:21.009Z</time></trkpt><trkpt lat="44.2204609" lon="8.3157039"><ele>291.0</ele><time>2026-05-03T09:05:22.01Z</time></trkpt><trkpt lat="44.2203906" lon="8.3156101"><ele>294.0</ele><time>2026-05-03T09:05:23.01Z</time></trkpt><trkpt lat="44.2203134" lon="8.3155367"><ele>295.8333333333333</ele><time>2026-05-03T09:05:24.009Z</time></trkpt><trkpt lat="44.2202582" lon="8.3154554"><ele>297.6666666666667</ele><time>2026-05-03T09:05:25.009Z</time></trkpt><trkpt lat="44.2202308" lon="8.3153504"><ele>299.5</ele><time>2026-05-03T09:05:26.009Z</time></trkpt><trkpt lat="44.2202228" lon="8.3152218"><ele>301.33333333333337</ele><time>2026-05-03T09:05:27.009Z</time></trkpt><trkpt lat="44.2202229" lon="8.3151154"><ele>303.1666666666667</ele><time>2026-05-03T09:05:28.01Z</time></trkpt><trkpt lat="44.2202261" lon="8.315016"><ele>305.0</ele><time>2026-05-03T09:05:29.01Z</time></trkpt><trkpt lat="44.2202241" lon="8.3149229"><ele>305.0</ele><time>2026-05-03T09:05:30.01Z</time></trkpt><trkpt lat="44.2202119" lon="8.3148045"><ele>305.0</ele><time>2026-05-03T09:05:32.009Z</time></trkpt><trkpt lat="44.2201921" lon="8.3146809"><ele>305.0</ele><time>2026-05-03T09:05:34.01Z</time></trkpt><trkpt lat="44.2201815" lon="8.3145698"><ele>305.0</ele><time>2026-05-03T09:05:36.01Z</time></trkpt><trkpt lat="44.2202729" lon="8.3145927"><ele>305.0</ele><time>2026-05-03T09:05:39.01Z</time></trkpt><trkpt lat="44.220302" lon="8.3146833"><ele>305.0</ele><time>2026-05-03T09:05:40.01Z</time></trkpt><trkpt lat="44.2203377" lon="8.3148219"><ele>305.0</ele><time>2026-05-03T09:05:41.01Z</time></trkpt><trkpt lat="44.2203614" lon="8.3149508"><ele>305.0</ele><time>2026-05-03T09:05:42.01Z</time></trkpt><trkpt lat="44.2203966" lon="8.3150908"><ele>305.0</ele><time>2026-05-03T09:05:43.009Z</time></trkpt><trkpt lat="44.2204335" lon="8.3152119"><ele>305.0</ele><time>2026-05-03T09:05:44.009Z</time></trkpt><trkpt lat="44.2204838" lon="8.3153245"><ele>305.0</ele><time>2026-05-03T09:05:45.009Z</time></trkpt><trkpt lat="44.2205434" lon="8.3154273"><ele>305.0</ele><time>2026-05-03T09:05:46.01Z</time></trkpt><trkpt lat="44.2206116" lon="8.3155234"><ele>305.0</ele><time>2026-05-03T09:05:47.009Z</time></trkpt><trkpt lat="44.2206866" lon="8.3156241"><ele>305.0</ele><time>2026-05-03T09:05:48.009Z</time></trkpt><trkpt lat="44.2207716" lon="8.3157189"><ele>305.0</ele><time>2026-05-03T09:05:49.009Z</time></trkpt><trkpt lat="44.2208601" lon="8.3157986"><ele>305.0</ele><time>2026-05-03T09:05:50.01Z</time></trkpt><trkpt lat="44.2209386" lon="8.3158586"><ele>306.1666666666667</ele><time>2026-05-03T09:05:51.01Z</time></trkpt><trkpt lat="44.2210158" lon="8.3159205"><ele>307.33333333333337</ele><time>2026-05-03T09:05:52.009Z</time></trkpt><trkpt lat="44.2210801" lon="8.3159777"><ele>308.5</ele><time>2026-05-03T09:05:53.01Z</time></trkpt><trkpt lat="44.2211364" lon="8.3160405"><ele>309.6666666666667</ele><time>2026-05-03T09:05:54.009Z</time></trkpt><trkpt lat="44.2212074" lon="8.31613"><ele>310.8333333333333</ele><time>2026-05-03T09:05:56.01Z</time></trkpt><trkpt lat="44.2212687" lon="8.3161613"><ele>312.0</ele><time>2026-05-03T09:05:58.01Z</time></trkpt><trkpt lat="44.2213317" lon="8.3161014"><ele>312.0</ele><time>2026-05-03T09:06:00.009Z</time></trkpt><trkpt lat="44.2213357" lon="8.3159778"><ele>312.0</ele><time>2026-05-03T09:06:02.01Z</time></trkpt><trkpt lat="44.2212643" lon="8.3158244"><ele>312.0</ele><time>2026-05-03T09:06:04.01Z</time></trkpt><trkpt lat="44.2212088" lon="8.3156912"><ele>312.0</ele><time>2026-05-03T09:06:05.01Z</time></trkpt><trkpt lat="44.2211532" lon="8.3154889"><ele>315.25</ele><time>2026-05-03T09:06:06.01Z</time></trkpt><trkpt lat="44.2211303" lon="8.3153219"><ele>318.5</ele><time>2026-05-03T09:06:07.01Z</time></trkpt><trkpt lat="44.2211064" lon="8.3151628"><ele>321.75</ele><time>2026-05-03T09:06:08.009Z</time></trkpt><trkpt lat="44.22107" lon="8.315002"><ele>325.0</ele><time>2026-05-03T09:06:09.011Z</time></trkpt><trkpt lat="44.2210312" lon="8.314853"><ele>328.8</ele><time>2026-05-03T09:06:10.01Z</time></trkpt><trkpt lat="44.220994" lon="8.3147028"><ele>332.6</ele><time>2026-05-03T09:06:11.01Z</time></trkpt><trkpt lat="44.2209585" lon="8.314558"><ele>336.4</ele><time>2026-05-03T09:06:12.011Z</time></trkpt><trkpt lat="44.2209248" lon="8.3144311"><ele>340.2</ele><time>2026-05-03T09:06:13.01Z</time></trkpt><trkpt lat="44.2208759" lon="8.3143274"><ele>344.0</ele><time>2026-05-03T09:06:14.011Z</time></trkpt><trkpt lat="44.2208084" lon="8.3142312"><ele>344.0</ele><time>2026-05-03T09:06:15.011Z</time></trkpt><trkpt lat="44.2207466" lon="8.3141502"><ele>344.0</ele><time>2026-05-03T09:06:16.011Z</time></trkpt><trkpt lat="44.2206967" lon="8.3140895"><ele>344.0</ele><time>2026-05-03T09:06:17.01Z</time></trkpt><trkpt lat="44.2205998" lon="8.3139998"><ele>344.0</ele><time>2026-05-03T09:06:19.01Z</time></trkpt><trkpt lat="44.22053" lon="8.3139841"><ele>344.0</ele><time>2026-05-03T09:06:20.011Z</time></trkpt><trkpt lat="44.2204292" lon="8.3139678"><ele>344.0</ele><time>2026-05-03T09:06:21.01Z</time></trkpt><trkpt lat="44.2203284" lon="8.3139551"><ele>346.4</ele><time>2026-05-03T09:06:22.011Z</time></trkpt><trkpt lat="44.2202343" lon="8.3139379"><ele>348.79999999999995</ele><time>2026-05-03T09:06:23.011Z</time></trkpt><trkpt lat="44.2201392" lon="8.3139005"><ele>351.20000000000005</ele><time>2026-05-03T09:06:24.01Z</time></trkpt><trkpt lat="44.2200423" lon="8.3138547"><ele>353.6</ele><time>2026-05-03T09:06:25.01Z</time></trkpt><trkpt lat="44.2199509" lon="8.3137964"><ele>356.0</ele><time>2026-05-03T09:06:26.011Z</time></trkpt><trkpt lat="44.2198618" lon="8.3137278"><ele>352.0</ele><time>2026-05-03T09:06:27.011Z</time></trkpt><trkpt lat="44.2197733" lon="8.3136557"><ele>348.0</ele><time>2026-05-03T09:06:28.011Z</time></trkpt><trkpt lat="44.2196881" lon="8.3135823"><ele>344.0</ele><time>2026-05-03T09:06:29.01Z</time></trkpt><trkpt lat="44.2196116" lon="8.3135122"><ele>340.0</ele><time>2026-05-03T09:06:30.011Z</time></trkpt><trkpt lat="44.2195464" lon="8.3134421"><ele>336.0</ele><time>2026-05-03T09:06:31.011Z</time></trkpt><trkpt lat="44.2194796" lon="8.3133591"><ele>336.0</ele><time>2026-05-03T09:06:32.01Z</time></trkpt><trkpt lat="44.2194355" lon="8.3132548"><ele>336.0</ele><time>2026-05-03T09:06:33.011Z</time></trkpt><trkpt lat="44.2193987" lon="8.3131376"><ele>336.0</ele><time>2026-05-03T09:06:34.01Z</time></trkpt><trkpt lat="44.2193708" lon="8.313015"><ele>336.0</ele><time>2026-05-03T09:06:35.01Z</time></trkpt><trkpt lat="44.2193454" lon="8.3129176"><ele>336.0</ele><time>2026-05-03T09:06:36.011Z</time></trkpt><trkpt lat="44.2192815" lon="8.3128164"><ele>336.0</ele><time>2026-05-03T09:06:38.011Z</time></trkpt><trkpt lat="44.2192174" lon="8.3127802"><ele>340.8333333333333</ele><time>2026-05-03T09:06:39.011Z</time></trkpt><trkpt lat="44.2191431" lon="8.3127653"><ele>345.6666666666667</ele><time>2026-05-03T09:06:40.011Z</time></trkpt><trkpt lat="44.2190604" lon="8.3127603"><ele>350.5</ele><time>2026-05-03T09:06:41.011Z</time></trkpt><trkpt lat="44.2189699" lon="8.3127518"><ele>355.33333333333337</ele><time>2026-05-03T09:06:42.011Z</time></trkpt><trkpt lat="44.2188905" lon="8.3127091"><ele>360.1666666666667</ele><time>2026-05-03T09:06:43.01Z</time></trkpt><trkpt lat="44.2188143" lon="8.3126543"><ele>365.0</ele><time>2026-05-03T09:06:44.011Z</time></trkpt><trkpt lat="44.2187461" lon="8.3126081"><ele>365.33333333333337</ele><time>2026-05-03T09:06:45.01Z</time></trkpt><trkpt lat="44.218676" lon="8.3125953"><ele>365.6666666666667</ele><time>2026-05-03T09:06:46.011Z</time></trkpt><trkpt lat="44.2186066" lon="8.3126132"><ele>366.0</ele><time>2026-05-03T09:06:47.01Z</time></trkpt><trkpt lat="44.2184962" lon="8.3126872"><ele>366.3333333333333</ele><time>2026-05-03T09:06:49.011Z</time></trkpt><trkpt lat="44.2184316" lon="8.3127096"><ele>366.66666666666663</ele><time>2026-05-03T09:06:50.011Z</time></trkpt><trkpt lat="44.2183619" lon="8.3127007"><ele>367.0</ele><time>2026-05-03T09:06:51.011Z</time></trkpt><trkpt lat="44.2182925" lon="8.3126557"><ele>367.0</ele><time>2026-05-03T09:06:52.01Z</time></trkpt><trkpt lat="44.2182145" lon="8.312597"><ele>367.0</ele><time>2026-05-03T09:06:53.011Z</time></trkpt><trkpt lat="44.2181436" lon="8.3125816"><ele>367.0</ele><time>2026-05-03T09:06:54.01Z</time></trkpt><trkpt lat="44.2180666" lon="8.3126167"><ele>367.0</ele><time>2026-05-03T09:06:55.01Z</time></trkpt><trkpt lat="44.217982" lon="8.3126825"><ele>367.0</ele><time>2026-05-03T09:06:56.01Z</time></trkpt><trkpt lat="44.2178956" lon="8.3127452"><ele>367.0</ele><time>2026-05-03T09:06:57.011Z</time></trkpt><trkpt lat="44.2177973" lon="8.3127901"><ele>367.6</ele><time>2026-05-03T09:06:58.011Z</time></trkpt><trkpt lat="44.2176933" lon="8.3128176"><ele>368.20000000000005</ele><time>2026-05-03T09:06:59.011Z</time></trkpt><trkpt lat="44.2175921" lon="8.3128475"><ele>368.8</ele><time>2026-05-03T09:07:00.011Z</time></trkpt><trkpt lat="44.2174932" lon="8.312868"><ele>369.4</ele><time>2026-05-03T09:07:01.011Z</time></trkpt><trkpt lat="44.2173933" lon="8.3128722"><ele>370.0</ele><time>2026-05-03T09:07:02.011Z</time></trkpt><trkpt lat="44.2172931" lon="8.3128624"><ele>370.0</ele><time>2026-05-03T09:07:03.011Z</time></trkpt><trkpt lat="44.2172043" lon="8.3128537"><ele>370.0</ele><time>2026-05-03T09:07:04.011Z</time></trkpt><trkpt lat="44.2171298" lon="8.3128569"><ele>370.0</ele><time>2026-05-03T09:07:05.01Z</time></trkpt><trkpt lat="44.2170133" lon="8.312868"><ele>370.0</ele><time>2026-05-03T09:07:07.01Z</time></trkpt><trkpt lat="44.2169116" lon="8.3128448"><ele>370.0</ele><time>2026-05-03T09:07:09.011Z</time></trkpt><trkpt lat="44.2168519" lon="8.3128015"><ele>370.0</ele><time>2026-05-03T09:07:10.011Z</time></trkpt><trkpt lat="44.216802" lon="8.3127281"><ele>370.0</ele><time>2026-05-03T09:07:11.01Z</time></trkpt><trkpt lat="44.2167442" lon="8.3126278"><ele>370.0</ele><time>2026-05-03T09:07:12.011Z</time></trkpt><trkpt lat="44.2166823" lon="8.3125249"><ele>370.0</ele><time>2026-05-03T09:07:13.011Z</time></trkpt><trkpt lat="44.2166286" lon="8.3124389"><ele>370.0</ele><time>2026-05-03T09:07:14.011Z</time></trkpt><trkpt lat="44.2165573" lon="8.3123308"><ele>370.0</ele><time>2026-05-03T09:07:16.011Z</time></trkpt><trkpt lat="44.2164776" lon="8.3122044"><ele>369.2857142857143</ele><time>2026-05-03T09:07:18.01Z</time></trkpt><trkpt lat="44.216435" lon="8.3121215"><ele>368.57142857142856</ele><time>2026-05-03T09:07:19.011Z</time></trkpt><trkpt lat="44.2163942" lon="8.3120326"><ele>367.8571428571429</ele><time>2026-05-03T09:07:20.012Z</time></trkpt><trkpt lat="44.2163621" lon="8.3119463"><ele>367.1428571428571</ele><time>2026-05-03T09:07:21.012Z</time></trkpt><trkpt lat="44.2163491" lon="8.3118487"><ele>366.42857142857144</ele><time>2026-05-03T09:07:22.012Z</time></trkpt><trkpt lat="44.2163591" lon="8.3117601"><ele>365.7142857142857</ele><time>2026-05-03T09:07:23.011Z</time></trkpt><trkpt lat="44.2163876" lon="8.3116698"><ele>365.0</ele><time>2026-05-03T09:07:24.012Z</time></trkpt><trkpt lat="44.2164225" lon="8.311591"><ele>365.0</ele><time>2026-05-03T09:07:25.012Z</time></trkpt><trkpt lat="44.2164673" lon="8.3115169"><ele>365.0</ele><time>2026-05-03T09:07:26.011Z</time></trkpt><trkpt lat="44.2165205" lon="8.3114502"><ele>365.0</ele><time>2026-05-03T09:07:27.011Z</time></trkpt><trkpt lat="44.216586" lon="8.3114039"><ele>365.0</ele><time>2026-05-03T09:07:28.011Z</time></trkpt><trkpt lat="44.2166672" lon="8.3113766"><ele>365.0</ele><time>2026-05-03T09:07:29.011Z</time></trkpt><trkpt lat="44.2167588" lon="8.3113603"><ele>365.0</ele><time>2026-05-03T09:07:30.012Z</time></trkpt><trkpt lat="44.2168614" lon="8.3113556"><ele>366.5</ele><time>2026-05-03T09:07:31.012Z</time></trkpt><trkpt lat="44.216969" lon="8.3113613"><ele>368.0</ele><time>2026-05-03T09:07:32.011Z</time></trkpt><trkpt lat="44.2170886" lon="8.3113689"><ele>369.5</ele><time>2026-05-03T09:07:33.012Z</time></trkpt><trkpt lat="44.2172157" lon="8.3113526"><ele>371.0</ele><time>2026-05-03T09:07:34.012Z</time></trkpt><trkpt lat="44.2173241" lon="8.3112948"><ele>371.0</ele><time>2026-05-03T09:07:35.012Z</time></trkpt><trkpt lat="44.2174109" lon="8.3112031"><ele>371.0</ele><time>2026-05-03T09:07:36.011Z</time></trkpt><trkpt lat="44.2174915" lon="8.3111171"><ele>371.0</ele><time>2026-05-03T09:07:37.011Z</time></trkpt><trkpt lat="44.2175754" lon="8.3110516"><ele>371.0</ele><time>2026-05-03T09:07:38.011Z</time></trkpt><trkpt lat="44.2176607" lon="8.3109969"><ele>371.0</ele><time>2026-05-03T09:07:39.012Z</time></trkpt><trkpt lat="44.2177536" lon="8.3109642"><ele>371.0</ele><time>2026-05-03T09:07:40.011Z</time></trkpt><trkpt lat="44.2178469" lon="8.3109425"><ele>371.0</ele><time>2026-05-03T09:07:41.012Z</time></trkpt><trkpt lat="44.2179412" lon="8.3109251"><ele>371.0</ele><time>2026-05-03T09:07:42.012Z</time></trkpt><trkpt lat="44.2180383" lon="8.3109126"><ele>371.0</ele><time>2026-05-03T09:07:43.012Z</time></trkpt><trkpt lat="44.2181403" lon="8.3109147"><ele>371.0</ele><time>2026-05-03T09:07:44.012Z</time></trkpt><trkpt lat="44.2182476" lon="8.3109306"><ele>374.6</ele><time>2026-05-03T09:07:45.012Z</time></trkpt><trkpt lat="44.2183551" lon="8.31094"><ele>378.20000000000005</ele><time>2026-05-03T09:07:46.012Z</time></trkpt><trkpt lat="44.2184618" lon="8.3109192"><ele>381.79999999999995</ele><time>2026-05-03T09:07:47.012Z</time></trkpt><trkpt lat="44.2185658" lon="8.3108724"><ele>385.4</ele><time>2026-05-03T09:07:48.011Z</time></trkpt><trkpt lat="44.2186695" lon="8.3107933"><ele>389.0</ele><time>2026-05-03T09:07:49.011Z</time></trkpt><trkpt lat="44.2187548" lon="8.3107179"><ele>388.99999999999994</ele><time>2026-05-03T09:07:50.012Z</time></trkpt><trkpt lat="44.2188383" lon="8.310656"><ele>389.0</ele><time>2026-05-03T09:07:51.012Z</time></trkpt><trkpt lat="44.2189197" lon="8.3106133"><ele>389.0</ele><time>2026-05-03T09:07:52.012Z</time></trkpt><trkpt lat="44.2189989" lon="8.3106029"><ele>389.0</ele><time>2026-05-03T09:07:53.012Z</time></trkpt><trkpt lat="44.2190837" lon="8.3106258"><ele>388.99999999999994</ele><time>2026-05-03T09:07:54.012Z</time></trkpt><trkpt lat="44.2191726" lon="8.310645"><ele>389.0</ele><time>2026-05-03T09:07:55.012Z</time></trkpt><trkpt lat="44.2192573" lon="8.3106412"><ele>388.99999999999994</ele><time>2026-05-03T09:07:56.012Z</time></trkpt><trkpt lat="44.2193284" lon="8.3106193"><ele>389.0</ele><time>2026-05-03T09:07:57.012Z</time></trkpt><trkpt lat="44.2194033" lon="8.3105557"><ele>389.0</ele><time>2026-05-03T09:07:59.011Z</time></trkpt><trkpt lat="44.2194733" lon="8.3105067"><ele>389.0</ele><time>2026-05-03T09:08:01.012Z</time></trkpt><trkpt lat="44.2195078" lon="8.3106085"><ele>388.99999999999994</ele><time>2026-05-03T09:08:03.011Z</time></trkpt><trkpt lat="44.2194779" lon="8.3107164"><ele>389.0</ele><time>2026-05-03T09:08:05.011Z</time></trkpt><trkpt lat="44.2194231" lon="8.3107638"><ele>391.49999999999994</ele><time>2026-05-03T09:08:06.011Z</time></trkpt><trkpt lat="44.219345" lon="8.3108281"><ele>394.0</ele><time>2026-05-03T09:08:07.011Z</time></trkpt><trkpt lat="44.2192689" lon="8.3108935"><ele>396.5</ele><time>2026-05-03T09:08:08.011Z</time></trkpt><trkpt lat="44.2191976" lon="8.3109619"><ele>399.0</ele><time>2026-05-03T09:08:09.012Z</time></trkpt><trkpt lat="44.2191421" lon="8.3110299"><ele>401.49999999999994</ele><time>2026-05-03T09:08:10.011Z</time></trkpt><trkpt lat="44.2191048" lon="8.3111008"><ele>404.0</ele><time>2026-05-03T09:08:11.011Z</time></trkpt><trkpt lat="44.2190963" lon="8.3111951"><ele>404.0</ele><time>2026-05-03T09:08:12.012Z</time></trkpt><trkpt lat="44.2191905" lon="8.3112979"><ele>404.0</ele><time>2026-05-03T09:08:14.012Z</time></trkpt><trkpt lat="44.2192699" lon="8.3112806"><ele>404.0</ele><time>2026-05-03T09:08:15.011Z</time></trkpt><trkpt lat="44.2193592" lon="8.3111941"><ele>404.0</ele><time>2026-05-03T09:08:16.012Z</time></trkpt><trkpt lat="44.2194523" lon="8.3111128"><ele>404.0</ele><time>2026-05-03T09:08:17.012Z</time></trkpt><trkpt lat="44.219545" lon="8.3110342"><ele>404.0</ele><time>2026-05-03T09:08:18.012Z</time></trkpt><trkpt lat="44.2196411" lon="8.3109702"><ele>404.0</ele><time>2026-05-03T09:08:19.012Z</time></trkpt><trkpt lat="44.2197339" lon="8.3109243"><ele>404.0</ele><time>2026-05-03T09:08:20.011Z</time></trkpt><trkpt lat="44.2198276" lon="8.3108816"><ele>404.0</ele><time>2026-05-03T09:08:21.012Z</time></trkpt><trkpt lat="44.2199223" lon="8.3108378"><ele>404.0</ele><time>2026-05-03T09:08:22.011Z</time></trkpt><trkpt lat="44.2200217" lon="8.3108032"><ele>406.2</ele><time>2026-05-03T09:08:23.012Z</time></trkpt><trkpt lat="44.2201264" lon="8.3107766"><ele>408.4</ele><time>2026-05-03T09:08:24.012Z</time></trkpt><trkpt lat="44.2202334" lon="8.3107699"><ele>410.6</ele><time>2026-05-03T09:08:25.011Z</time></trkpt><trkpt lat="44.2203427" lon="8.310782"><ele>412.8</ele><time>2026-05-03T09:08:26.013Z</time></trkpt><trkpt lat="44.2204498" lon="8.3108012"><ele>415.0</ele><time>2026-05-03T09:08:27.012Z</time></trkpt><trkpt lat="44.2205531" lon="8.3108257"><ele>415.6</ele><time>2026-05-03T09:08:28.013Z</time></trkpt><trkpt lat="44.2206625" lon="8.3108803"><ele>416.2</ele><time>2026-05-03T09:08:29.013Z</time></trkpt><trkpt lat="44.2207582" lon="8.3109523"><ele>416.79999999999995</ele><time>2026-05-03T09:08:30.012Z</time></trkpt><trkpt lat="44.2208427" lon="8.3110289"><ele>417.4</ele><time>2026-05-03T09:08:31.012Z</time></trkpt><trkpt lat="44.2209232" lon="8.3110947"><ele>418.0</ele><time>2026-05-03T09:08:32.012Z</time></trkpt><trkpt lat="44.2210046" lon="8.3111536"><ele>418.0</ele><time>2026-05-03T09:08:33.013Z</time></trkpt><trkpt lat="44.2210933" lon="8.3111968"><ele>418.0</ele><time>2026-05-03T09:08:34.013Z</time></trkpt><trkpt lat="44.2211774" lon="8.3112123"><ele>418.0</ele><time>2026-05-03T09:08:35.013Z</time></trkpt><trkpt lat="44.2212592" lon="8.3111936"><ele>418.0</ele><time>2026-05-03T09:08:36.013Z</time></trkpt><trkpt lat="44.2213526" lon="8.3111431"><ele>418.0</ele><time>2026-05-03T09:08:37.012Z</time></trkpt><trkpt lat="44.2214495" lon="8.3110762"><ele>420.0</ele><time>2026-05-03T09:08:38.012Z</time></trkpt><trkpt lat="44.221538" lon="8.3109951"><ele>422.0</ele><time>2026-05-03T09:08:39.012Z</time></trkpt><trkpt lat="44.2216302" lon="8.3109159"><ele>423.99999999999994</ele><time>2026-05-03T09:08:40.012Z</time></trkpt><trkpt lat="44.221721" lon="8.3108433"><ele>426.0</ele><time>2026-05-03T09:08:41.013Z</time></trkpt><trkpt lat="44.2218185" lon="8.3107794"><ele>428.0</ele><time>2026-05-03T09:08:42.013Z</time></trkpt><trkpt lat="44.2219255" lon="8.3107265"><ele>428.0</ele><time>2026-05-03T09:08:43.012Z</time></trkpt><trkpt lat="44.2220418" lon="8.310673"><ele>427.99999999999994</ele><time>2026-05-03T09:08:44.013Z</time></trkpt><trkpt lat="44.2221478" lon="8.3106306"><ele>427.99999999999994</ele><time>2026-05-03T09:08:45.013Z</time></trkpt><trkpt lat="44.2222526" lon="8.3105897"><ele>428.0</ele><time>2026-05-03T09:08:46.012Z</time></trkpt><trkpt lat="44.2223441" lon="8.3105471"><ele>428.0</ele><time>2026-05-03T09:08:47.013Z</time></trkpt><trkpt lat="44.2224433" lon="8.3105011"><ele>428.2</ele><time>2026-05-03T09:08:48.014Z</time></trkpt><trkpt lat="44.2225411" lon="8.3104446"><ele>428.4</ele><time>2026-05-03T09:08:49.013Z</time></trkpt><trkpt lat="44.2226372" lon="8.3103803"><ele>428.59999999999997</ele><time>2026-05-03T09:08:50.013Z</time></trkpt><trkpt lat="44.2227321" lon="8.3103236"><ele>428.79999999999995</ele><time>2026-05-03T09:08:51.012Z</time></trkpt><trkpt lat="44.2228279" lon="8.3102785"><ele>429.0</ele><time>2026-05-03T09:08:52.012Z</time></trkpt><trkpt lat="44.2229329" lon="8.3102363"><ele>429.0</ele><time>2026-05-03T09:08:53.013Z</time></trkpt><trkpt lat="44.2230328" lon="8.310185"><ele>429.0</ele><time>2026-05-03T09:08:54.013Z</time></trkpt><trkpt lat="44.2231233" lon="8.310129"><ele>429.0</ele><time>2026-05-03T09:08:55.012Z</time></trkpt><trkpt lat="44.2232017" lon="8.3100612"><ele>429.0</ele><time>2026-05-03T09:08:56.012Z</time></trkpt><trkpt lat="44.2232696" lon="8.3099648"><ele>429.0</ele><time>2026-05-03T09:08:57.013Z</time></trkpt><trkpt lat="44.2233073" lon="8.3098183"><ele>431.0</ele><time>2026-05-03T09:08:58.012Z</time></trkpt><trkpt lat="44.2233121" lon="8.3096632"><ele>433.0</ele><time>2026-05-03T09:08:59.012Z</time></trkpt><trkpt lat="44.2233146" lon="8.3095297"><ele>435.0</ele><time>2026-05-03T09:09:00.013Z</time></trkpt><trkpt lat="44.2233279" lon="8.3094117"><ele>437.0</ele><time>2026-05-03T09:09:01.013Z</time></trkpt><trkpt lat="44.2233655" lon="8.3093182"><ele>439.0</ele><time>2026-05-03T09:09:02.013Z</time></trkpt><trkpt lat="44.2234245" lon="8.3092498"><ele>441.0</ele><time>2026-05-03T09:09:03.013Z</time></trkpt><trkpt lat="44.2234968" lon="8.3091907"><ele>441.0</ele><time>2026-05-03T09:09:04.013Z</time></trkpt><trkpt lat="44.2235808" lon="8.3091344"><ele>441.0</ele><time>2026-05-03T09:09:05.012Z</time></trkpt><trkpt lat="44.2236828" lon="8.3090826"><ele>441.0</ele><time>2026-05-03T09:09:06.012Z</time></trkpt><trkpt lat="44.2237785" lon="8.3090396"><ele>441.0</ele><time>2026-05-03T09:09:07.013Z</time></trkpt><trkpt lat="44.2238754" lon="8.3090068"><ele>441.0</ele><time>2026-05-03T09:09:08.013Z</time></trkpt><trkpt lat="44.2239565" lon="8.3089787"><ele>444.8</ele><time>2026-05-03T09:09:09.013Z</time></trkpt><trkpt lat="44.2240375" lon="8.3089245"><ele>448.6</ele><time>2026-05-03T09:09:10.013Z</time></trkpt><trkpt lat="44.224107" lon="8.3088315"><ele>452.4</ele><time>2026-05-03T09:09:11.013Z</time></trkpt><trkpt lat="44.224144" lon="8.3086897"><ele>456.2</ele><time>2026-05-03T09:09:12.013Z</time></trkpt><trkpt lat="44.2241899" lon="8.3085354"><ele>460.0</ele><time>2026-05-03T09:09:13.013Z</time></trkpt><trkpt lat="44.224235" lon="8.3084148"><ele>460.0</ele><time>2026-05-03T09:09:14.013Z</time></trkpt><trkpt lat="44.2242962" lon="8.3083046"><ele>460.0</ele><time>2026-05-03T09:09:15.012Z</time></trkpt><trkpt lat="44.2243529" lon="8.3081989"><ele>460.0</ele><time>2026-05-03T09:09:16.012Z</time></trkpt><trkpt lat="44.2244141" lon="8.3080941"><ele>460.0</ele><time>2026-05-03T09:09:17.013Z</time></trkpt><trkpt lat="44.2244856" lon="8.3080135"><ele>460.0</ele><time>2026-05-03T09:09:18.012Z</time></trkpt><trkpt lat="44.2245813" lon="8.3079419"><ele>458.2</ele><time>2026-05-03T09:09:19.013Z</time></trkpt><trkpt lat="44.2246846" lon="8.307883"><ele>456.4</ele><time>2026-05-03T09:09:20.013Z</time></trkpt><trkpt lat="44.2247842" lon="8.3078197"><ele>454.6</ele><time>2026-05-03T09:09:21.013Z</time></trkpt><trkpt lat="44.2248735" lon="8.3077531"><ele>452.8</ele><time>2026-05-03T09:09:22.013Z</time></trkpt><trkpt lat="44.2249534" lon="8.3076825"><ele>451.0</ele><time>2026-05-03T09:09:23.012Z</time></trkpt><trkpt lat="44.2250271" lon="8.3076063"><ele>456.4</ele><time>2026-05-03T09:09:24.014Z</time></trkpt><trkpt lat="44.2250769" lon="8.3075183"><ele>461.8</ele><time>2026-05-03T09:09:25.013Z</time></trkpt><trkpt lat="44.2251185" lon="8.3074141"><ele>467.19999999999993</ele><time>2026-05-03T09:09:26.012Z</time></trkpt><trkpt lat="44.2251501" lon="8.3072718"><ele>472.59999999999997</ele><time>2026-05-03T09:09:27.012Z</time></trkpt><trkpt lat="44.2251642" lon="8.307109"><ele>478.0</ele><time>2026-05-03T09:09:28.012Z</time></trkpt><trkpt lat="44.2251907" lon="8.3069444"><ele>478.0</ele><time>2026-05-03T09:09:29.013Z</time></trkpt><trkpt lat="44.2252437" lon="8.3067965"><ele>477.99999999999994</ele><time>2026-05-03T09:09:30.012Z</time></trkpt><trkpt lat="44.2253025" lon="8.3066666"><ele>477.99999999999994</ele><time>2026-05-03T09:09:31.012Z</time></trkpt><trkpt lat="44.2253619" lon="8.3065448"><ele>478.0</ele><time>2026-05-03T09:09:32.014Z</time></trkpt><trkpt lat="44.2253974" lon="8.3064355"><ele>478.0</ele><time>2026-05-03T09:09:33.014Z</time></trkpt><trkpt lat="44.2254193" lon="8.3063242"><ele>477.1666666666667</ele><time>2026-05-03T09:09:34.014Z</time></trkpt><trkpt lat="44.225422" lon="8.3062118"><ele>476.33333333333337</ele><time>2026-05-03T09:09:35.014Z</time></trkpt><trkpt lat="44.2254109" lon="8.3061122"><ele>475.5</ele><time>2026-05-03T09:09:36.013Z</time></trkpt><trkpt lat="44.2254092" lon="8.3060122"><ele>474.66666666666663</ele><time>2026-05-03T09:09:37.014Z</time></trkpt><trkpt lat="44.2254268" lon="8.30591"><ele>473.8333333333333</ele><time>2026-05-03T09:09:38.013Z</time></trkpt><trkpt lat="44.2254862" lon="8.3058123"><ele>473.0</ele><time>2026-05-03T09:09:39.013Z</time></trkpt><trkpt lat="44.2255691" lon="8.3057184"><ele>474.66666666666663</ele><time>2026-05-03T09:09:40.014Z</time></trkpt><trkpt lat="44.2256482" lon="8.305626"><ele>476.3333333333333</ele><time>2026-05-03T09:09:41.013Z</time></trkpt><trkpt lat="44.225714" lon="8.3055395"><ele>478.0</ele><time>2026-05-03T09:09:42.014Z</time></trkpt><trkpt lat="44.2257808" lon="8.3054668"><ele>479.66666666666663</ele><time>2026-05-03T09:09:43.014Z</time></trkpt><trkpt lat="44.2258527" lon="8.3054111"><ele>481.3333333333333</ele><time>2026-05-03T09:09:44.014Z</time></trkpt><trkpt lat="44.2259279" lon="8.3053902"><ele>483.0</ele><time>2026-05-03T09:09:45.013Z</time></trkpt><trkpt lat="44.2260188" lon="8.3053932"><ele>483.0</ele><time>2026-05-03T09:09:46.014Z</time></trkpt><trkpt lat="44.2261167" lon="8.3054013"><ele>482.99999999999994</ele><time>2026-05-03T09:09:47.014Z</time></trkpt><trkpt lat="44.2262209" lon="8.3053967"><ele>482.99999999999994</ele><time>2026-05-03T09:09:48.014Z</time></trkpt><trkpt lat="44.2263275" lon="8.3053689"><ele>483.0</ele><time>2026-05-03T09:09:49.014Z</time></trkpt><trkpt lat="44.2264343" lon="8.3053274"><ele>483.0</ele><time>2026-05-03T09:09:50.014Z</time></trkpt><trkpt lat="44.2265281" lon="8.3052713"><ele>485.1666666666667</ele><time>2026-05-03T09:09:51.013Z</time></trkpt><trkpt lat="44.2266028" lon="8.3051889"><ele>487.33333333333337</ele><time>2026-05-03T09:09:52.014Z</time></trkpt><trkpt lat="44.2266587" lon="8.3050947"><ele>489.5</ele><time>2026-05-03T09:09:53.014Z</time></trkpt><trkpt lat="44.2266942" lon="8.304974"><ele>491.6666666666667</ele><time>2026-05-03T09:09:54.013Z</time></trkpt><trkpt lat="44.2267255" lon="8.3048448"><ele>493.83333333333337</ele><time>2026-05-03T09:09:55.014Z</time></trkpt><trkpt lat="44.2267643" lon="8.3047568"><ele>496.0</ele><time>2026-05-03T09:09:56.014Z</time></trkpt><trkpt lat="44.2268274" lon="8.3047016"><ele>496.0</ele><time>2026-05-03T09:09:57.013Z</time></trkpt><trkpt lat="44.2269148" lon="8.3046597"><ele>496.0</ele><time>2026-05-03T09:09:58.013Z</time></trkpt><trkpt lat="44.2270121" lon="8.3046442"><ele>496.0</ele><time>2026-05-03T09:09:59.014Z</time></trkpt><trkpt lat="44.2271139" lon="8.3046223"><ele>496.0</ele><time>2026-05-03T09:10:00.014Z</time></trkpt><trkpt lat="44.2272234" lon="8.3045923"><ele>496.0</ele><time>2026-05-03T09:10:01.014Z</time></trkpt><trkpt lat="44.2273202" lon="8.3045637"><ele>498.8571428571429</ele><time>2026-05-03T09:10:02.014Z</time></trkpt><trkpt lat="44.2273977" lon="8.3045366"><ele>501.7142857142858</ele><time>2026-05-03T09:10:03.013Z</time></trkpt><trkpt lat="44.2274608" lon="8.3045147"><ele>504.57142857142856</ele><time>2026-05-03T09:10:04.013Z</time></trkpt><trkpt lat="44.2275241" lon="8.3044959"><ele>507.42857142857144</ele><time>2026-05-03T09:10:05.013Z</time></trkpt><trkpt lat="44.2275839" lon="8.3044644"><ele>510.2857142857143</ele><time>2026-05-03T09:10:06.013Z</time></trkpt><trkpt lat="44.2276357" lon="8.3044026"><ele>513.1428571428571</ele><time>2026-05-03T09:10:07.013Z</time></trkpt><trkpt lat="44.2276789" lon="8.3043189"><ele>516.0</ele><time>2026-05-03T09:10:08.014Z</time></trkpt><trkpt lat="44.2277157" lon="8.3041879"><ele>516.0</ele><time>2026-05-03T09:10:09.013Z</time></trkpt><trkpt lat="44.2277505" lon="8.3040514"><ele>516.0</ele><time>2026-05-03T09:10:10.014Z</time></trkpt><trkpt lat="44.227777" lon="8.3039102"><ele>516.0</ele><time>2026-05-03T09:10:11.014Z</time></trkpt><trkpt lat="44.2277968" lon="8.3037735"><ele>516.0</ele><time>2026-05-03T09:10:12.014Z</time></trkpt><trkpt lat="44.2278122" lon="8.3036466"><ele>516.0</ele><time>2026-05-03T09:10:13.013Z</time></trkpt><trkpt lat="44.2278252" lon="8.3035197"><ele>515.5</ele><time>2026-05-03T09:10:14.014Z</time></trkpt><trkpt lat="44.2278491" lon="8.3034027"><ele>515.0</ele><time>2026-05-03T09:10:15.014Z</time></trkpt><trkpt lat="44.227886" lon="8.3033027"><ele>514.5</ele><time>2026-05-03T09:10:16.013Z</time></trkpt><trkpt lat="44.2279509" lon="8.3032225"><ele>514.0</ele><time>2026-05-03T09:10:17.014Z</time></trkpt><trkpt lat="44.2280121" lon="8.3031331"><ele>513.5</ele><time>2026-05-03T09:10:18.014Z</time></trkpt><trkpt lat="44.2280566" lon="8.3030235"><ele>513.0</ele><time>2026-05-03T09:10:19.014Z</time></trkpt><trkpt lat="44.2280837" lon="8.3028903"><ele>511.59999999999997</ele><time>2026-05-03T09:10:20.014Z</time></trkpt><trkpt lat="44.2280976" lon="8.3027443"><ele>510.19999999999993</ele><time>2026-05-03T09:10:21.014Z</time></trkpt><trkpt lat="44.2281137" lon="8.3026023"><ele>508.8</ele><time>2026-05-03T09:10:22.014Z</time></trkpt><trkpt lat="44.2281353" lon="8.3024623"><ele>507.4</ele><time>2026-05-03T09:10:23.014Z</time></trkpt><trkpt lat="44.2281549" lon="8.3023317"><ele>506.0</ele><time>2026-05-03T09:10:24.014Z</time></trkpt><trkpt lat="44.2281878" lon="8.3021932"><ele>511.6</ele><time>2026-05-03T09:10:25.014Z</time></trkpt><trkpt lat="44.2282324" lon="8.302043"><ele>517.2</ele><time>2026-05-03T09:10:26.013Z</time></trkpt><trkpt lat="44.2282771" lon="8.3019046"><ele>522.8</ele><time>2026-05-03T09:10:27.013Z</time></trkpt><trkpt lat="44.228322" lon="8.3017718"><ele>528.4</ele><time>2026-05-03T09:10:28.014Z</time></trkpt><trkpt lat="44.2283658" lon="8.3016452"><ele>534.0</ele><time>2026-05-03T09:10:29.014Z</time></trkpt><trkpt lat="44.2284184" lon="8.3015229"><ele>531.8</ele><time>2026-05-03T09:10:30.013Z</time></trkpt><trkpt lat="44.2284891" lon="8.3014037"><ele>529.5999999999999</ele><time>2026-05-03T09:10:31.013Z</time></trkpt><trkpt lat="44.2285685" lon="8.3012916"><ele>527.4</ele><time>2026-05-03T09:10:32.014Z</time></trkpt><trkpt lat="44.2286473" lon="8.3011909"><ele>525.1999999999999</ele><time>2026-05-03T09:10:33.014Z</time></trkpt><trkpt lat="44.2287289" lon="8.3010908"><ele>523.0</ele><time>2026-05-03T09:10:34.014Z</time></trkpt><trkpt lat="44.2288114" lon="8.3010022"><ele>523.0</ele><time>2026-05-03T09:10:35.013Z</time></trkpt><trkpt lat="44.2288902" lon="8.3009193"><ele>523.0</ele><time>2026-05-03T09:10:36.014Z</time></trkpt><trkpt lat="44.2289733" lon="8.3008399"><ele>523.0</ele><time>2026-05-03T09:10:37.015Z</time></trkpt><trkpt lat="44.2290577" lon="8.3007553"><ele>523.0</ele><time>2026-05-03T09:10:38.015Z</time></trkpt><trkpt lat="44.2291454" lon="8.3006664"><ele>523.0</ele><time>2026-05-03T09:10:39.015Z</time></trkpt><trkpt lat="44.2292386" lon="8.3005725"><ele>526.75</ele><time>2026-05-03T09:10:40.014Z</time></trkpt><trkpt lat="44.2293312" lon="8.3004776"><ele>530.5</ele><time>2026-05-03T09:10:41.014Z</time></trkpt><trkpt lat="44.2294282" lon="8.3003726"><ele>534.25</ele><time>2026-05-03T09:10:42.014Z</time></trkpt><trkpt lat="44.2295291" lon="8.3002602"><ele>538.0</ele><time>2026-05-03T09:10:43.015Z</time></trkpt><trkpt lat="44.2296267" lon="8.3001448"><ele>538.0</ele><time>2026-05-03T09:10:44.014Z</time></trkpt><trkpt lat="44.2297116" lon="8.3000225"><ele>538.0</ele><time>2026-05-03T09:10:45.014Z</time></trkpt><trkpt lat="44.2297925" lon="8.299905"><ele>538.0</ele><time>2026-05-03T09:10:46.014Z</time></trkpt><trkpt lat="44.2298766" lon="8.2997966"><ele>538.0</ele><time>2026-05-03T09:10:47.015Z</time></trkpt><trkpt lat="44.2299553" lon="8.299692"><ele>539.1999999999999</ele><time>2026-05-03T09:10:48.015Z</time></trkpt><trkpt lat="44.2300302" lon="8.2995881"><ele>540.4</ele><time>2026-05-03T09:10:49.014Z</time></trkpt><trkpt lat="44.2301025" lon="8.2994811"><ele>541.5999999999999</ele><time>2026-05-03T09:10:50.015Z</time></trkpt><trkpt lat="44.2301657" lon="8.2993763"><ele>542.8</ele><time>2026-05-03T09:10:51.014Z</time></trkpt><trkpt lat="44.2302239" lon="8.2992755"><ele>544.0</ele><time>2026-05-03T09:10:52.014Z</time></trkpt><trkpt lat="44.2302843" lon="8.2991766"><ele>544.0</ele><time>2026-05-03T09:10:53.014Z</time></trkpt><trkpt lat="44.2303649" lon="8.299106"><ele>544.0</ele><time>2026-05-03T09:10:54.014Z</time></trkpt><trkpt lat="44.2304705" lon="8.2990666"><ele>544.0</ele><time>2026-05-03T09:10:55.015Z</time></trkpt><trkpt lat="44.2305951" lon="8.299048"><ele>544.0</ele><time>2026-05-03T09:10:56.015Z</time></trkpt><trkpt lat="44.2307175" lon="8.2990349"><ele>546.25</ele><time>2026-05-03T09:10:57.014Z</time></trkpt><trkpt lat="44.2308334" lon="8.2990194"><ele>548.5</ele><time>2026-05-03T09:10:58.014Z</time></trkpt><trkpt lat="44.2309495" lon="8.2989971"><ele>550.75</ele><time>2026-05-03T09:10:59.015Z</time></trkpt><trkpt lat="44.2310583" lon="8.2989604"><ele>553.0</ele><time>2026-05-03T09:11:00.015Z</time></trkpt><trkpt lat="44.2311662" lon="8.2989151"><ele>553.0</ele><time>2026-05-03T09:11:01.015Z</time></trkpt><trkpt lat="44.2312674" lon="8.2988723"><ele>553.0</ele><time>2026-05-03T09:11:02.014Z</time></trkpt><trkpt lat="44.2313504" lon="8.2988305"><ele>553.0</ele><time>2026-05-03T09:11:03.015Z</time></trkpt><trkpt lat="44.2314176" lon="8.2987701"><ele>553.0</ele><time>2026-05-03T09:11:04.014Z</time></trkpt><trkpt lat="44.231467" lon="8.2986767"><ele>553.0</ele><time>2026-05-03T09:11:05.015Z</time></trkpt><trkpt lat="44.231509" lon="8.298562"><ele>553.0</ele><time>2026-05-03T09:11:06.014Z</time></trkpt><trkpt lat="44.2315313" lon="8.2984089"><ele>556.1999999999999</ele><time>2026-05-03T09:11:07.015Z</time></trkpt><trkpt lat="44.2315485" lon="8.2982504"><ele>559.4</ele><time>2026-05-03T09:11:08.015Z</time></trkpt><trkpt lat="44.2315713" lon="8.2981048"><ele>562.5999999999999</ele><time>2026-05-03T09:11:09.015Z</time></trkpt><trkpt lat="44.2316061" lon="8.297975"><ele>565.8</ele><time>2026-05-03T09:11:10.014Z</time></trkpt><trkpt lat="44.2316692" lon="8.2978641"><ele>569.0</ele><time>2026-05-03T09:11:11.015Z</time></trkpt><trkpt lat="44.2317665" lon="8.2977979"><ele>569.0</ele><time>2026-05-03T09:11:12.015Z</time></trkpt><trkpt lat="44.2318835" lon="8.2977468"><ele>569.0</ele><time>2026-05-03T09:11:13.014Z</time></trkpt><trkpt lat="44.2320047" lon="8.2977016"><ele>569.0</ele><time>2026-05-03T09:11:14.015Z</time></trkpt><trkpt lat="44.2321338" lon="8.297657"><ele>569.0</ele><time>2026-05-03T09:11:15.015Z</time></trkpt><trkpt lat="44.2322528" lon="8.2975899"><ele>569.5</ele><time>2026-05-03T09:11:16.015Z</time></trkpt><trkpt lat="44.2323633" lon="8.297507"><ele>570.0</ele><time>2026-05-03T09:11:17.014Z</time></trkpt><trkpt lat="44.2324659" lon="8.2974233"><ele>570.5</ele><time>2026-05-03T09:11:18.015Z</time></trkpt><trkpt lat="44.2325606" lon="8.2973357"><ele>571.0</ele><time>2026-05-03T09:11:19.014Z</time></trkpt><trkpt lat="44.232657" lon="8.2972504"><ele>571.0</ele><time>2026-05-03T09:11:20.014Z</time></trkpt><trkpt lat="44.232759" lon="8.2971669"><ele>571.0</ele><time>2026-05-03T09:11:21.015Z</time></trkpt><trkpt lat="44.2328634" lon="8.2970835"><ele>571.0</ele><time>2026-05-03T09:11:22.015Z</time></trkpt><trkpt lat="44.2329684" lon="8.2969965"><ele>571.0</ele><time>2026-05-03T09:11:23.015Z</time></trkpt><trkpt lat="44.2330737" lon="8.2969025"><ele>576.0</ele><time>2026-05-03T09:11:24.014Z</time></trkpt><trkpt lat="44.2331786" lon="8.2968223"><ele>581.0</ele><time>2026-05-03T09:11:25.014Z</time></trkpt><trkpt lat="44.2332823" lon="8.2967476"><ele>586.0</ele><time>2026-05-03T09:11:26.014Z</time></trkpt><trkpt lat="44.2333725" lon="8.2966914"><ele>591.0</ele><time>2026-05-03T09:11:27.015Z</time></trkpt><trkpt lat="44.2334556" lon="8.2966425"><ele>596.0</ele><time>2026-05-03T09:11:28.015Z</time></trkpt><trkpt lat="44.2335291" lon="8.2965939"><ele>596.0</ele><time>2026-05-03T09:11:29.015Z</time></trkpt><trkpt lat="44.2335801" lon="8.2965301"><ele>596.0</ele><time>2026-05-03T09:11:30.014Z</time></trkpt><trkpt lat="44.2336286" lon="8.296434"><ele>596.0</ele><time>2026-05-03T09:11:31.015Z</time></trkpt><trkpt lat="44.2336848" lon="8.2963248"><ele>596.0</ele><time>2026-05-03T09:11:32.014Z</time></trkpt><trkpt lat="44.2337312" lon="8.2962165"><ele>596.0</ele><time>2026-05-03T09:11:33.014Z</time></trkpt><trkpt lat="44.2337773" lon="8.2960905"><ele>596.0</ele><time>2026-05-03T09:11:34.015Z</time></trkpt><trkpt lat="44.2338228" lon="8.2959764"><ele>594.6666666666666</ele><time>2026-05-03T09:11:35.015Z</time></trkpt><trkpt lat="44.2338644" lon="8.2958727"><ele>593.3333333333333</ele><time>2026-05-03T09:11:36.015Z</time></trkpt><trkpt lat="44.2338953" lon="8.2957906"><ele>592.0</ele><time>2026-05-03T09:11:37.014Z</time></trkpt><trkpt lat="44.2339075" lon="8.2956545"><ele>590.6666666666666</ele><time>2026-05-03T09:11:39.014Z</time></trkpt><trkpt lat="44.2338932" lon="8.2955195"><ele>589.3333333333334</ele><time>2026-05-03T09:11:41.016Z</time></trkpt><trkpt lat="44.233955" lon="8.2954939"><ele>588.0</ele><time>2026-05-03T09:11:44.016Z</time></trkpt><trkpt lat="44.2339568" lon="8.2956603"><ele>588.0</ele><time>2026-05-03T09:11:46.015Z</time></trkpt><trkpt lat="44.2339265" lon="8.2957988"><ele>588.0</ele><time>2026-05-03T09:11:47.015Z</time></trkpt><trkpt lat="44.2338929" lon="8.2959533"><ele>588.0</ele><time>2026-05-03T09:11:48.015Z</time></trkpt><trkpt lat="44.233872" lon="8.2961095"><ele>588.0</ele><time>2026-05-03T09:11:49.016Z</time></trkpt><trkpt lat="44.2338582" lon="8.2962587"><ele>588.0</ele><time>2026-05-03T09:11:50.015Z</time></trkpt><trkpt lat="44.2338553" lon="8.2964019"><ele>589.3333333333334</ele><time>2026-05-03T09:11:51.016Z</time></trkpt><trkpt lat="44.2338513" lon="8.2965184"><ele>590.6666666666666</ele><time>2026-05-03T09:11:52.016Z</time></trkpt><trkpt lat="44.2338416" lon="8.2966349"><ele>592.0</ele><time>2026-05-03T09:11:53.016Z</time></trkpt><trkpt lat="44.2338267" lon="8.2967395"><ele>593.3333333333333</ele><time>2026-05-03T09:11:54.016Z</time></trkpt><trkpt lat="44.2338127" lon="8.2968384"><ele>594.6666666666666</ele><time>2026-05-03T09:11:55.016Z</time></trkpt><trkpt lat="44.2338578" lon="8.2969958"><ele>596.0</ele><time>2026-05-03T09:11:57.015Z</time></trkpt><trkpt lat="44.2339407" lon="8.2970665"><ele>600.0</ele><time>2026-05-03T09:11:58.016Z</time></trkpt><trkpt lat="44.2340442" lon="8.2971235"><ele>604.0</ele><time>2026-05-03T09:11:59.016Z</time></trkpt><trkpt lat="44.2341487" lon="8.2972024"><ele>608.0</ele><time>2026-05-03T09:12:00.016Z</time></trkpt><trkpt lat="44.2342402" lon="8.2973088"><ele>612.0</ele><time>2026-05-03T09:12:01.015Z</time></trkpt><trkpt lat="44.2343204" lon="8.2974178"><ele>612.0</ele><time>2026-05-03T09:12:02.016Z</time></trkpt><trkpt lat="44.234402" lon="8.2975028"><ele>612.0</ele><time>2026-05-03T09:12:03.015Z</time></trkpt><trkpt lat="44.2344879" lon="8.297573"><ele>612.0</ele><time>2026-05-03T09:12:04.016Z</time></trkpt><trkpt lat="44.2345849" lon="8.2976408"><ele>612.0</ele><time>2026-05-03T09:12:05.016Z</time></trkpt><trkpt lat="44.2346834" lon="8.2976902"><ele>612.0</ele><time>2026-05-03T09:12:06.015Z</time></trkpt><trkpt lat="44.2347803" lon="8.2977385"><ele>614.0</ele><time>2026-05-03T09:12:07.016Z</time></trkpt><trkpt lat="44.2348751" lon="8.2977854"><ele>616.0</ele><time>2026-05-03T09:12:08.015Z</time></trkpt><trkpt lat="44.2349675" lon="8.2978401"><ele>618.0</ele><time>2026-05-03T09:12:09.015Z</time></trkpt><trkpt lat="44.2350529" lon="8.2979153"><ele>620.0</ele><time>2026-05-03T09:12:10.016Z</time></trkpt><trkpt lat="44.2351393" lon="8.29803"><ele>622.0</ele><time>2026-05-03T09:12:11.016Z</time></trkpt><trkpt lat="44.2352203" lon="8.2981416"><ele>622.0</ele><time>2026-05-03T09:12:12.016Z</time></trkpt><trkpt lat="44.2352994" lon="8.2982544"><ele>622.0</ele><time>2026-05-03T09:12:13.016Z</time></trkpt><trkpt lat="44.2353828" lon="8.298371"><ele>622.0</ele><time>2026-05-03T09:12:14.016Z</time></trkpt><trkpt lat="44.2354636" lon="8.2984857"><ele>622.0</ele><time>2026-05-03T09:12:15.016Z</time></trkpt><trkpt lat="44.2355428" lon="8.2985899"><ele>622.0</ele><time>2026-05-03T09:12:16.015Z</time></trkpt><trkpt lat="44.235616" lon="8.2986844"><ele>622.0</ele><time>2026-05-03T09:12:17.016Z</time></trkpt><trkpt lat="44.2356768" lon="8.2987656"><ele>622.0</ele><time>2026-05-03T09:12:18.015Z</time></trkpt><trkpt lat="44.2357219" lon="8.2988354"><ele>622.0</ele><time>2026-05-03T09:12:19.016Z</time></trkpt><trkpt lat="44.2357621" lon="8.2989231"><ele>622.0</ele><time>2026-05-03T09:12:21.016Z</time></trkpt><trkpt lat="44.2358225" lon="8.2990011"><ele>622.0</ele><time>2026-05-03T09:12:24.016Z</time></trkpt><trkpt lat="44.2358634" lon="8.298915"><ele>631.0</ele><time>2026-05-03T09:12:26.016Z</time></trkpt><trkpt lat="44.2358115" lon="8.2987274"><ele>640.0</ele><time>2026-05-03T09:12:28.016Z</time></trkpt><trkpt lat="44.2357585" lon="8.2986046"><ele>649.0</ele><time>2026-05-03T09:12:29.016Z</time></trkpt><trkpt lat="44.235709" lon="8.298467"><ele>658.0</ele><time>2026-05-03T09:12:30.016Z</time></trkpt><trkpt lat="44.2356788" lon="8.2983145"><ele>658.0</ele><time>2026-05-03T09:12:31.016Z</time></trkpt><trkpt lat="44.235649" lon="8.2981573"><ele>658.0</ele><time>2026-05-03T09:12:32.016Z</time></trkpt><trkpt lat="44.2356016" lon="8.2980063"><ele>658.0</ele><time>2026-05-03T09:12:33.016Z</time></trkpt><trkpt lat="44.2355387" lon="8.2978829"><ele>658.0</ele><time>2026-05-03T09:12:34.016Z</time></trkpt><trkpt lat="44.2354567" lon="8.2977713"><ele>655.4</ele><time>2026-05-03T09:12:35.016Z</time></trkpt><trkpt lat="44.2353833" lon="8.297647"><ele>652.8</ele><time>2026-05-03T09:12:36.015Z</time></trkpt><trkpt lat="44.2353173" lon="8.2975191"><ele>650.2</ele><time>2026-05-03T09:12:37.015Z</time></trkpt><trkpt lat="44.2352533" lon="8.2974096"><ele>647.6</ele><time>2026-05-03T09:12:38.016Z</time></trkpt><trkpt lat="44.2351905" lon="8.2973254"><ele>645.0</ele><time>2026-05-03T09:12:39.015Z</time></trkpt><trkpt lat="44.2351302" lon="8.2972557"><ele>647.8333333333334</ele><time>2026-05-03T09:12:40.016Z</time></trkpt><trkpt lat="44.2350721" lon="8.2971892"><ele>650.6666666666666</ele><time>2026-05-03T09:12:41.016Z</time></trkpt><trkpt lat="44.23502" lon="8.2971231"><ele>653.5</ele><time>2026-05-03T09:12:42.015Z</time></trkpt><trkpt lat="44.2349718" lon="8.297065"><ele>656.3333333333333</ele><time>2026-05-03T09:12:43.015Z</time></trkpt><trkpt lat="44.2348945" lon="8.296938"><ele>659.1666666666666</ele><time>2026-05-03T09:12:45.015Z</time></trkpt><trkpt lat="44.2348853" lon="8.2968497"><ele>662.0</ele><time>2026-05-03T09:12:46.016Z</time></trkpt><trkpt lat="44.2348993" lon="8.2967435"><ele>662.0</ele><time>2026-05-03T09:12:47.016Z</time></trkpt><trkpt lat="44.2349436" lon="8.2966363"><ele>662.0</ele><time>2026-05-03T09:12:48.016Z</time></trkpt><trkpt lat="44.2349979" lon="8.2965242"><ele>662.0</ele><time>2026-05-03T09:12:49.015Z</time></trkpt><trkpt lat="44.2350499" lon="8.296404"><ele>662.0</ele><time>2026-05-03T09:12:50.016Z</time></trkpt><trkpt lat="44.2350855" lon="8.2962686"><ele>662.0</ele><time>2026-05-03T09:12:51.016Z</time></trkpt><trkpt lat="44.235092" lon="8.2961276"><ele>661.75</ele><time>2026-05-03T09:12:52.016Z</time></trkpt><trkpt lat="44.235095" lon="8.2959787"><ele>661.5</ele><time>2026-05-03T09:12:53.017Z</time></trkpt><trkpt lat="44.2351244" lon="8.2958234"><ele>661.25</ele><time>2026-05-03T09:12:54.017Z</time></trkpt><trkpt lat="44.2351833" lon="8.2956754"><ele>661.0</ele><time>2026-05-03T09:12:55.016Z</time></trkpt><trkpt lat="44.2352622" lon="8.2955544"><ele>657.5</ele><time>2026-05-03T09:12:56.017Z</time></trkpt><trkpt lat="44.2353485" lon="8.2954475"><ele>654.0</ele><time>2026-05-03T09:12:57.017Z</time></trkpt><trkpt lat="44.2354313" lon="8.2953451"><ele>650.5</ele><time>2026-05-03T09:12:58.017Z</time></trkpt><trkpt lat="44.2355206" lon="8.2952512"><ele>647.0</ele><time>2026-05-03T09:12:59.017Z</time></trkpt><trkpt lat="44.2356176" lon="8.2951658"><ele>653.75</ele><time>2026-05-03T09:13:00.016Z</time></trkpt><trkpt lat="44.2357233" lon="8.2950825"><ele>660.5</ele><time>2026-05-03T09:13:01.017Z</time></trkpt><trkpt lat="44.2358328" lon="8.2949944"><ele>667.25</ele><time>2026-05-03T09:13:02.017Z</time></trkpt><trkpt lat="44.2359448" lon="8.2948897"><ele>674.0</ele><time>2026-05-03T09:13:03.017Z</time></trkpt><trkpt lat="44.2360578" lon="8.2947832"><ele>676.0</ele><time>2026-05-03T09:13:04.017Z</time></trkpt><trkpt lat="44.2361651" lon="8.2946863"><ele>678.0</ele><time>2026-05-03T09:13:05.016Z</time></trkpt><trkpt lat="44.2362707" lon="8.2945995"><ele>680.0</ele><time>2026-05-03T09:13:06.016Z</time></trkpt><trkpt lat="44.2363775" lon="8.2945202"><ele>682.0</ele><time>2026-05-03T09:13:07.016Z</time></trkpt><trkpt lat="44.2364836" lon="8.2944386"><ele>682.0</ele><time>2026-05-03T09:13:08.017Z</time></trkpt><trkpt lat="44.2365872" lon="8.2943475"><ele>682.0</ele><time>2026-05-03T09:13:09.017Z</time></trkpt><trkpt lat="44.2366857" lon="8.2942459"><ele>682.0</ele><time>2026-05-03T09:13:10.016Z</time></trkpt><trkpt lat="44.236779" lon="8.2941247"><ele>682.0</ele><time>2026-05-03T09:13:11.017Z</time></trkpt><trkpt lat="44.23687" lon="8.2939962"><ele>678.8</ele><time>2026-05-03T09:13:12.016Z</time></trkpt><trkpt lat="44.2369561" lon="8.2938812"><ele>675.6</ele><time>2026-05-03T09:13:13.017Z</time></trkpt><trkpt lat="44.2370277" lon="8.2937779"><ele>672.4</ele><time>2026-05-03T09:13:14.016Z</time></trkpt><trkpt lat="44.2370708" lon="8.293678"><ele>669.1999999999999</ele><time>2026-05-03T09:13:15.016Z</time></trkpt><trkpt lat="44.2370964" lon="8.2935718"><ele>666.0</ele><time>2026-05-03T09:13:16.017Z</time></trkpt><trkpt lat="44.2371136" lon="8.2934691"><ele>666.0</ele><time>2026-05-03T09:13:17.017Z</time></trkpt><trkpt lat="44.2371388" lon="8.2933611"><ele>666.0</ele><time>2026-05-03T09:13:18.017Z</time></trkpt><trkpt lat="44.2372021" lon="8.2932493"><ele>666.0</ele><time>2026-05-03T09:13:19.017Z</time></trkpt><trkpt lat="44.2372918" lon="8.2931423"><ele>666.0</ele><time>2026-05-03T09:13:20.017Z</time></trkpt><trkpt lat="44.2373963" lon="8.2930474"><ele>666.0</ele><time>2026-05-03T09:13:21.017Z</time></trkpt><trkpt lat="44.2374999" lon="8.2929598"><ele>670.1999999999999</ele><time>2026-05-03T09:13:22.016Z</time></trkpt><trkpt lat="44.2375889" lon="8.2928794"><ele>674.4</ele><time>2026-05-03T09:13:23.017Z</time></trkpt><trkpt lat="44.2376694" lon="8.2928012"><ele>678.6</ele><time>2026-05-03T09:13:24.017Z</time></trkpt><trkpt lat="44.2377475" lon="8.2927098"><ele>682.8</ele><time>2026-05-03T09:13:25.017Z</time></trkpt><trkpt lat="44.2378263" lon="8.2926028"><ele>687.0</ele><time>2026-05-03T09:13:26.017Z</time></trkpt><trkpt lat="44.2379073" lon="8.292473"><ele>687.0</ele><time>2026-05-03T09:13:27.017Z</time></trkpt><trkpt lat="44.2379842" lon="8.2923323"><ele>687.0</ele><time>2026-05-03T09:13:28.017Z</time></trkpt><trkpt lat="44.2380516" lon="8.2921808"><ele>687.0</ele><time>2026-05-03T09:13:29.017Z</time></trkpt><trkpt lat="44.238099" lon="8.2920046"><ele>687.0</ele><time>2026-05-03T09:13:30.017Z</time></trkpt><trkpt lat="44.2381327" lon="8.2918263"><ele>691.5</ele><time>2026-05-03T09:13:31.017Z</time></trkpt><trkpt lat="44.2381618" lon="8.2916698"><ele>696.0</ele><time>2026-05-03T09:13:32.017Z</time></trkpt><trkpt lat="44.2381958" lon="8.2915263"><ele>700.5</ele><time>2026-05-03T09:13:33.017Z</time></trkpt><trkpt lat="44.2382413" lon="8.2913793"><ele>705.0</ele><time>2026-05-03T09:13:34.016Z</time></trkpt><trkpt lat="44.2383007" lon="8.291224"><ele>705.0</ele><time>2026-05-03T09:13:35.016Z</time></trkpt><trkpt lat="44.2383697" lon="8.2910683"><ele>705.0</ele><time>2026-05-03T09:13:36.016Z</time></trkpt><trkpt lat="44.2384326" lon="8.2909131"><ele>705.0</ele><time>2026-05-03T09:13:37.017Z</time></trkpt><trkpt lat="44.2384891" lon="8.2907708"><ele>705.0</ele><time>2026-05-03T09:13:38.016Z</time></trkpt><trkpt lat="44.2385302" lon="8.2906121"><ele>703.75</ele><time>2026-05-03T09:13:39.016Z</time></trkpt><trkpt lat="44.238576" lon="8.2904447"><ele>702.5</ele><time>2026-05-03T09:13:40.017Z</time></trkpt><trkpt lat="44.2386406" lon="8.2902794"><ele>701.25</ele><time>2026-05-03T09:13:41.017Z</time></trkpt><trkpt lat="44.238703" lon="8.2901167"><ele>700.0</ele><time>2026-05-03T09:13:42.017Z</time></trkpt><trkpt lat="44.2387556" lon="8.2899566"><ele>700.0</ele><time>2026-05-03T09:13:43.017Z</time></trkpt><trkpt lat="44.2387815" lon="8.2897994"><ele>700.0</ele><time>2026-05-03T09:13:44.017Z</time></trkpt><trkpt lat="44.2387942" lon="8.2896195"><ele>700.0</ele><time>2026-05-03T09:13:45.016Z</time></trkpt><trkpt lat="44.238821" lon="8.2894299"><ele>700.0</ele><time>2026-05-03T09:13:46.017Z</time></trkpt><trkpt lat="44.2388675" lon="8.2892514"><ele>699.0</ele><time>2026-05-03T09:13:47.017Z</time></trkpt><trkpt lat="44.238915" lon="8.2890731"><ele>698.0</ele><time>2026-05-03T09:13:48.016Z</time></trkpt><trkpt lat="44.2389482" lon="8.2888997"><ele>697.0</ele><time>2026-05-03T09:13:49.016Z</time></trkpt><trkpt lat="44.2389604" lon="8.2887203"><ele>696.0</ele><time>2026-05-03T09:13:50.017Z</time></trkpt><trkpt lat="44.2389695" lon="8.2885372"><ele>704.0</ele><time>2026-05-03T09:13:51.017Z</time></trkpt><trkpt lat="44.2389832" lon="8.2883613"><ele>712.0</ele><time>2026-05-03T09:13:52.017Z</time></trkpt><trkpt lat="44.2390102" lon="8.288206"><ele>720.0</ele><time>2026-05-03T09:13:53.017Z</time></trkpt><trkpt lat="44.2390627" lon="8.2880778"><ele>728.0</ele><time>2026-05-03T09:13:54.017Z</time></trkpt><trkpt lat="44.2391367" lon="8.2879631"><ele>728.0</ele><time>2026-05-03T09:13:55.016Z</time></trkpt><trkpt lat="44.2392099" lon="8.2878398"><ele>728.0</ele><time>2026-05-03T09:13:56.018Z</time></trkpt><trkpt lat="44.2392609" lon="8.2876927"><ele>728.0</ele><time>2026-05-03T09:13:57.018Z</time></trkpt><trkpt lat="44.2393026" lon="8.2875454"><ele>728.0</ele><time>2026-05-03T09:13:58.017Z</time></trkpt><trkpt lat="44.239334" lon="8.2873835"><ele>728.25</ele><time>2026-05-03T09:13:59.018Z</time></trkpt><trkpt lat="44.2393425" lon="8.2872052"><ele>728.5</ele><time>2026-05-03T09:14:00.018Z</time></trkpt><trkpt lat="44.2393437" lon="8.2870275"><ele>728.75</ele><time>2026-05-03T09:14:01.017Z</time></trkpt><trkpt lat="44.2393449" lon="8.2868518"><ele>729.0</ele><time>2026-05-03T09:14:02.018Z</time></trkpt><trkpt lat="44.2393596" lon="8.2866916"><ele>729.0</ele><time>2026-05-03T09:14:03.017Z</time></trkpt><trkpt lat="44.2393807" lon="8.2865258"><ele>729.0</ele><time>2026-05-03T09:14:04.018Z</time></trkpt><trkpt lat="44.2393862" lon="8.2863651"><ele>729.0</ele><time>2026-05-03T09:14:05.018Z</time></trkpt><trkpt lat="44.2393681" lon="8.2861958"><ele>729.0</ele><time>2026-05-03T09:14:06.018Z</time></trkpt><trkpt lat="44.2393487" lon="8.2860482"><ele>728.6666666666666</ele><time>2026-05-03T09:14:07.018Z</time></trkpt><trkpt lat="44.2393319" lon="8.2859166"><ele>728.3333333333334</ele><time>2026-05-03T09:14:08.017Z</time></trkpt><trkpt lat="44.2393224" lon="8.2857981"><ele>728.0</ele><time>2026-05-03T09:14:09.018Z</time></trkpt><trkpt lat="44.2393205" lon="8.2856793"><ele>727.6666666666667</ele><time>2026-05-03T09:14:10.018Z</time></trkpt><trkpt lat="44.2393315" lon="8.2855679"><ele>727.3333333333334</ele><time>2026-05-03T09:14:11.017Z</time></trkpt><trkpt lat="44.2393603" lon="8.285457"><ele>727.0</ele><time>2026-05-03T09:14:12.018Z</time></trkpt><trkpt lat="44.2394138" lon="8.2853467"><ele>727.0</ele><time>2026-05-03T09:14:13.017Z</time></trkpt><trkpt lat="44.239475" lon="8.2852269"><ele>727.0</ele><time>2026-05-03T09:14:14.018Z</time></trkpt><trkpt lat="44.239543" lon="8.2851018"><ele>727.0</ele><time>2026-05-03T09:14:15.018Z</time></trkpt><trkpt lat="44.2396192" lon="8.2849771"><ele>727.0</ele><time>2026-05-03T09:14:16.018Z</time></trkpt><trkpt lat="44.2397107" lon="8.2848551"><ele>730.0</ele><time>2026-05-03T09:14:17.018Z</time></trkpt><trkpt lat="44.239791" lon="8.2847325"><ele>733.0</ele><time>2026-05-03T09:14:18.018Z</time></trkpt><trkpt lat="44.2398636" lon="8.284606"><ele>736.0</ele><time>2026-05-03T09:14:19.017Z</time></trkpt><trkpt lat="44.2399306" lon="8.2844935"><ele>739.0</ele><time>2026-05-03T09:14:20.018Z</time></trkpt><trkpt lat="44.2400034" lon="8.2843912"><ele>742.0</ele><time>2026-05-03T09:14:21.017Z</time></trkpt><trkpt lat="44.2400814" lon="8.2842975"><ele>742.0</ele><time>2026-05-03T09:14:22.018Z</time></trkpt><trkpt lat="44.2401546" lon="8.284219"><ele>742.0</ele><time>2026-05-03T09:14:23.017Z</time></trkpt><trkpt lat="44.2402181" lon="8.2841591"><ele>742.0</ele><time>2026-05-03T09:14:24.017Z</time></trkpt><trkpt lat="44.2403022" lon="8.2840802"><ele>742.0</ele><time>2026-05-03T09:14:26.018Z</time></trkpt><trkpt lat="44.2403871" lon="8.2839593"><ele>742.0</ele><time>2026-05-03T09:14:28.018Z</time></trkpt><trkpt lat="44.2404379" lon="8.2838733"><ele>739.1666666666667</ele><time>2026-05-03T09:14:29.018Z</time></trkpt><trkpt lat="44.2404926" lon="8.283772"><ele>736.3333333333334</ele><time>2026-05-03T09:14:30.018Z</time></trkpt><trkpt lat="44.2405465" lon="8.2836832"><ele>733.5</ele><time>2026-05-03T09:14:31.018Z</time></trkpt><trkpt lat="44.2406023" lon="8.2836119"><ele>730.6666666666666</ele><time>2026-05-03T09:14:32.017Z</time></trkpt><trkpt lat="44.2406729" lon="8.2835544"><ele>727.8333333333333</ele><time>2026-05-03T09:14:33.018Z</time></trkpt><trkpt lat="44.2407513" lon="8.2835011"><ele>725.0</ele><time>2026-05-03T09:14:34.017Z</time></trkpt><trkpt lat="44.2408368" lon="8.2834414"><ele>731.0</ele><time>2026-05-03T09:14:35.018Z</time></trkpt><trkpt lat="44.2409054" lon="8.2833301"><ele>737.0</ele><time>2026-05-03T09:14:36.018Z</time></trkpt><trkpt lat="44.240961" lon="8.2831817"><ele>743.0</ele><time>2026-05-03T09:14:37.018Z</time></trkpt><trkpt lat="44.2410176" lon="8.283037"><ele>749.0</ele><time>2026-05-03T09:14:38.018Z</time></trkpt><trkpt lat="44.2410831" lon="8.28292"><ele>749.0</ele><time>2026-05-03T09:14:39.018Z</time></trkpt><trkpt lat="44.2411455" lon="8.2828141"><ele>749.0</ele><time>2026-05-03T09:14:40.017Z</time></trkpt><trkpt lat="44.2412045" lon="8.2827082"><ele>749.0</ele><time>2026-05-03T09:14:41.018Z</time></trkpt><trkpt lat="44.2412566" lon="8.2825857"><ele>749.0</ele><time>2026-05-03T09:14:42.017Z</time></trkpt><trkpt lat="44.2413013" lon="8.2824589"><ele>749.0</ele><time>2026-05-03T09:14:43.018Z</time></trkpt><trkpt lat="44.2413565" lon="8.2823381"><ele>750.0</ele><time>2026-05-03T09:14:44.018Z</time></trkpt><trkpt lat="44.2414237" lon="8.2822175"><ele>751.0</ele><time>2026-05-03T09:14:45.018Z</time></trkpt><trkpt lat="44.2415036" lon="8.2821118"><ele>752.0</ele><time>2026-05-03T09:14:46.017Z</time></trkpt><trkpt lat="44.241601" lon="8.2820153"><ele>753.0</ele><time>2026-05-03T09:14:47.018Z</time></trkpt><trkpt lat="44.2416927" lon="8.2819204"><ele>756.8</ele><time>2026-05-03T09:14:48.017Z</time></trkpt><trkpt lat="44.2417835" lon="8.2818349"><ele>760.5999999999999</ele><time>2026-05-03T09:14:49.019Z</time></trkpt><trkpt lat="44.2418701" lon="8.2817612"><ele>764.4000000000001</ele><time>2026-05-03T09:14:50.018Z</time></trkpt><trkpt lat="44.241954" lon="8.281703"><ele>768.2</ele><time>2026-05-03T09:14:51.017Z</time></trkpt><trkpt lat="44.2420433" lon="8.2816566"><ele>772.0</ele><time>2026-05-03T09:14:52.017Z</time></trkpt><trkpt lat="44.2421375" lon="8.2816125"><ele>771.9999999999999</ele><time>2026-05-03T09:14:53.017Z</time></trkpt><trkpt lat="44.2422337" lon="8.2815574"><ele>772.0</ele><time>2026-05-03T09:14:54.018Z</time></trkpt><trkpt lat="44.2423214" lon="8.2814893"><ele>772.0</ele><time>2026-05-03T09:14:55.018Z</time></trkpt><trkpt lat="44.2423934" lon="8.2814199"><ele>772.0</ele><time>2026-05-03T09:14:56.018Z</time></trkpt><trkpt lat="44.2424514" lon="8.2813524"><ele>771.9999999999999</ele><time>2026-05-03T09:14:57.018Z</time></trkpt><trkpt lat="44.2424969" lon="8.2812877"><ele>772.0</ele><time>2026-05-03T09:14:58.018Z</time></trkpt><trkpt lat="44.2425562" lon="8.2811487"><ele>778.75</ele><time>2026-05-03T09:15:00.018Z</time></trkpt><trkpt lat="44.2425245" lon="8.2810004"><ele>785.5</ele><time>2026-05-03T09:15:02.018Z</time></trkpt><trkpt lat="44.2423908" lon="8.2809684"><ele>792.25</ele><time>2026-05-03T09:15:04.018Z</time></trkpt><trkpt lat="44.2422927" lon="8.2809912"><ele>799.0</ele><time>2026-05-03T09:15:05.018Z</time></trkpt><trkpt lat="44.2421882" lon="8.2810117"><ele>799.0</ele><time>2026-05-03T09:15:06.019Z</time></trkpt><trkpt lat="44.2420743" lon="8.281008"><ele>799.0</ele><time>2026-05-03T09:15:07.018Z</time></trkpt><trkpt lat="44.2419678" lon="8.2809863"><ele>799.0</ele><time>2026-05-03T09:15:08.019Z</time></trkpt><trkpt lat="44.2418616" lon="8.2809563"><ele>799.0</ele><time>2026-05-03T09:15:09.018Z</time></trkpt><trkpt lat="44.2417523" lon="8.2809233"><ele>799.0</ele><time>2026-05-03T09:15:10.018Z</time></trkpt><trkpt lat="44.2416414" lon="8.2808741"><ele>799.0</ele><time>2026-05-03T09:15:11.018Z</time></trkpt><trkpt lat="44.2415322" lon="8.2808085"><ele>799.0</ele><time>2026-05-03T09:15:12.018Z</time></trkpt><trkpt lat="44.2414193" lon="8.2807477"><ele>799.0</ele><time>2026-05-03T09:15:13.019Z</time></trkpt><trkpt lat="44.2413088" lon="8.2806898"><ele>799.0</ele><time>2026-05-03T09:15:14.019Z</time></trkpt><trkpt lat="44.2411982" lon="8.280625"><ele>799.8333333333333</ele><time>2026-05-03T09:15:15.019Z</time></trkpt><trkpt lat="44.2411067" lon="8.2805687"><ele>800.6666666666666</ele><time>2026-05-03T09:15:16.018Z</time></trkpt><trkpt lat="44.2410217" lon="8.280523"><ele>801.5</ele><time>2026-05-03T09:15:17.019Z</time></trkpt><trkpt lat="44.2409469" lon="8.2804907"><ele>802.3333333333333</ele><time>2026-05-03T09:15:18.018Z</time></trkpt><trkpt lat="44.2408856" lon="8.2804527"><ele>803.1666666666666</ele><time>2026-05-03T09:15:19.018Z</time></trkpt><trkpt lat="44.2408234" lon="8.280394"><ele>804.0</ele><time>2026-05-03T09:15:20.019Z</time></trkpt><trkpt lat="44.2407695" lon="8.2803104"><ele>804.0</ele><time>2026-05-03T09:15:21.018Z</time></trkpt><trkpt lat="44.2407427" lon="8.2802094"><ele>804.0</ele><time>2026-05-03T09:15:22.018Z</time></trkpt><trkpt lat="44.2407396" lon="8.2800735"><ele>804.0</ele><time>2026-05-03T09:15:23.018Z</time></trkpt><trkpt lat="44.2407544" lon="8.279909"><ele>804.0</ele><time>2026-05-03T09:15:24.019Z</time></trkpt><trkpt lat="44.240779" lon="8.2797414"><ele>804.0</ele><time>2026-05-03T09:15:25.019Z</time></trkpt><trkpt lat="44.2408108" lon="8.2795876"><ele>805.6</ele><time>2026-05-03T09:15:26.018Z</time></trkpt><trkpt lat="44.2408477" lon="8.2794409"><ele>807.2</ele><time>2026-05-03T09:15:27.018Z</time></trkpt><trkpt lat="44.2408869" lon="8.2793011"><ele>808.8000000000001</ele><time>2026-05-03T09:15:28.018Z</time></trkpt><trkpt lat="44.2409314" lon="8.27918"><ele>810.4000000000001</ele><time>2026-05-03T09:15:29.019Z</time></trkpt><trkpt lat="44.2409626" lon="8.2790567"><ele>812.0</ele><time>2026-05-03T09:15:30.019Z</time></trkpt><trkpt lat="44.240947" lon="8.2789283"><ele>816.25</ele><time>2026-05-03T09:15:31.019Z</time></trkpt><trkpt lat="44.240909" lon="8.2788051"><ele>820.5</ele><time>2026-05-03T09:15:32.018Z</time></trkpt><trkpt lat="44.2408558" lon="8.2786694"><ele>824.75</ele><time>2026-05-03T09:15:33.019Z</time></trkpt><trkpt lat="44.2407707" lon="8.2785329"><ele>829.0</ele><time>2026-05-03T09:15:34.019Z</time></trkpt><trkpt lat="44.2406855" lon="8.2783976"><ele>828.5</ele><time>2026-05-03T09:15:35.019Z</time></trkpt><trkpt lat="44.2406077" lon="8.2782513"><ele>828.0</ele><time>2026-05-03T09:15:36.018Z</time></trkpt><trkpt lat="44.2405345" lon="8.2781239"><ele>827.5</ele><time>2026-05-03T09:15:37.019Z</time></trkpt><trkpt lat="44.2404549" lon="8.2780083"><ele>827.0</ele><time>2026-05-03T09:15:38.019Z</time></trkpt><trkpt lat="44.2403578" lon="8.2779023"><ele>827.0</ele><time>2026-05-03T09:15:39.018Z</time></trkpt><trkpt lat="44.240275" lon="8.2778112"><ele>827.0</ele><time>2026-05-03T09:15:40.018Z</time></trkpt><trkpt lat="44.2402083" lon="8.2777283"><ele>827.0</ele><time>2026-05-03T09:15:41.019Z</time></trkpt><trkpt lat="44.2401449" lon="8.2776484"><ele>827.0</ele><time>2026-05-03T09:15:42.019Z</time></trkpt><trkpt lat="44.2400744" lon="8.2775691"><ele>827.0</ele><time>2026-05-03T09:15:43.018Z</time></trkpt><trkpt lat="44.2399935" lon="8.2775011"><ele>827.0</ele><time>2026-05-03T09:15:44.019Z</time></trkpt><trkpt lat="44.2399063" lon="8.2774192"><ele>827.0</ele><time>2026-05-03T09:15:45.019Z</time></trkpt><trkpt lat="44.2398196" lon="8.2773133"><ele>827.0</ele><time>2026-05-03T09:15:46.019Z</time></trkpt><trkpt lat="44.2397355" lon="8.2771884"><ele>827.0</ele><time>2026-05-03T09:15:47.018Z</time></trkpt><trkpt lat="44.2396707" lon="8.2770527"><ele>829.0</ele><time>2026-05-03T09:15:48.019Z</time></trkpt><trkpt lat="44.2396208" lon="8.2769352"><ele>831.0</ele><time>2026-05-03T09:15:49.018Z</time></trkpt><trkpt lat="44.2395659" lon="8.276817"><ele>833.0</ele><time>2026-05-03T09:15:50.019Z</time></trkpt><trkpt lat="44.2395017" lon="8.2767109"><ele>835.0</ele><time>2026-05-03T09:15:51.019Z</time></trkpt><trkpt lat="44.2394258" lon="8.2766129"><ele>837.0</ele><time>2026-05-03T09:15:52.019Z</time></trkpt><trkpt lat="44.2393475" lon="8.2765259"><ele>837.0</ele><time>2026-05-03T09:15:53.019Z</time></trkpt><trkpt lat="44.2392591" lon="8.2764706"><ele>837.0</ele><time>2026-05-03T09:15:54.019Z</time></trkpt><trkpt lat="44.2391688" lon="8.2764299"><ele>837.0</ele><time>2026-05-03T09:15:55.019Z</time></trkpt><trkpt lat="44.2390799" lon="8.2764155"><ele>837.0</ele><time>2026-05-03T09:15:56.019Z</time></trkpt><trkpt lat="44.2389693" lon="8.2764151"><ele>837.0</ele><time>2026-05-03T09:15:57.018Z</time></trkpt><trkpt lat="44.2388603" lon="8.2764315"><ele>838.25</ele><time>2026-05-03T09:15:58.019Z</time></trkpt><trkpt lat="44.2387176" lon="8.2764439"><ele>839.5</ele><time>2026-05-03T09:15:59.019Z</time></trkpt><trkpt lat="44.2385848" lon="8.2764397"><ele>840.75</ele><time>2026-05-03T09:16:00.018Z</time></trkpt><trkpt lat="44.2384667" lon="8.2764307"><ele>842.0</ele><time>2026-05-03T09:16:01.018Z</time></trkpt><trkpt lat="44.2383628" lon="8.2764163"><ele>842.0</ele><time>2026-05-03T09:16:02.018Z</time></trkpt><trkpt lat="44.2382845" lon="8.2763971"><ele>842.0</ele><time>2026-05-03T09:16:03.018Z</time></trkpt><trkpt lat="44.2382226" lon="8.276361"><ele>842.0</ele><time>2026-05-03T09:16:04.019Z</time></trkpt><trkpt lat="44.2381595" lon="8.2762464"><ele>842.0</ele><time>2026-05-03T09:16:06.019Z</time></trkpt><trkpt lat="44.2381783" lon="8.2760675"><ele>842.0</ele><time>2026-05-03T09:16:08.019Z</time></trkpt><trkpt lat="44.2382237" lon="8.2759465"><ele>842.0</ele><time>2026-05-03T09:16:09.019Z</time></trkpt><trkpt lat="44.2382847" lon="8.2758188"><ele>842.0</ele><time>2026-05-03T09:16:10.019Z</time></trkpt><trkpt lat="44.2383502" lon="8.2756987"><ele>842.0</ele><time>2026-05-03T09:16:11.02Z</time></trkpt><trkpt lat="44.2384179" lon="8.2755851"><ele>842.0</ele><time>2026-05-03T09:16:12.02Z</time></trkpt><trkpt lat="44.238491" lon="8.2754672"><ele>842.0</ele><time>2026-05-03T09:16:13.019Z</time></trkpt><trkpt lat="44.2385711" lon="8.275355"><ele>840.25</ele><time>2026-05-03T09:16:14.02Z</time></trkpt><trkpt lat="44.2386614" lon="8.2752486"><ele>838.5</ele><time>2026-05-03T09:16:15.019Z</time></trkpt><trkpt lat="44.2387554" lon="8.2751424"><ele>836.75</ele><time>2026-05-03T09:16:16.019Z</time></trkpt><trkpt lat="44.2388566" lon="8.2750317"><ele>835.0</ele><time>2026-05-03T09:16:17.02Z</time></trkpt><trkpt lat="44.238952" lon="8.2749135"><ele>839.25</ele><time>2026-05-03T09:16:18.02Z</time></trkpt><trkpt lat="44.2390343" lon="8.2747914"><ele>843.5</ele><time>2026-05-03T09:16:19.02Z</time></trkpt><trkpt lat="44.2391065" lon="8.2746678"><ele>847.75</ele><time>2026-05-03T09:16:20.02Z</time></trkpt><trkpt lat="44.2391733" lon="8.2745449"><ele>852.0</ele><time>2026-05-03T09:16:21.02Z</time></trkpt><trkpt lat="44.2392431" lon="8.2744143"><ele>852.0</ele><time>2026-05-03T09:16:22.02Z</time></trkpt><trkpt lat="44.2393183" lon="8.2742808"><ele>852.0</ele><time>2026-05-03T09:16:23.02Z</time></trkpt><trkpt lat="44.2394" lon="8.2741598"><ele>852.0</ele><time>2026-05-03T09:16:24.02Z</time></trkpt><trkpt lat="44.2394803" lon="8.2740465"><ele>852.0</ele><time>2026-05-03T09:16:25.019Z</time></trkpt><trkpt lat="44.2395595" lon="8.2739333"><ele>849.25</ele><time>2026-05-03T09:16:26.02Z</time></trkpt><trkpt lat="44.2396361" lon="8.273816"><ele>846.5</ele><time>2026-05-03T09:16:27.02Z</time></trkpt><trkpt lat="44.2397102" lon="8.273693"><ele>843.75</ele><time>2026-05-03T09:16:28.019Z</time></trkpt><trkpt lat="44.2397799" lon="8.2735607"><ele>841.0</ele><time>2026-05-03T09:16:29.02Z</time></trkpt><trkpt lat="44.2398482" lon="8.2734158"><ele>844.4</ele><time>2026-05-03T09:16:30.02Z</time></trkpt><trkpt lat="44.2399212" lon="8.2732735"><ele>847.8</ele><time>2026-05-03T09:16:31.019Z</time></trkpt><trkpt lat="44.2399919" lon="8.2731497"><ele>851.1999999999999</ele><time>2026-05-03T09:16:32.02Z</time></trkpt><trkpt lat="44.2400639" lon="8.2730586"><ele>854.5999999999999</ele><time>2026-05-03T09:16:33.02Z</time></trkpt><trkpt lat="44.2401423" lon="8.2729736"><ele>858.0</ele><time>2026-05-03T09:16:34.019Z</time></trkpt><trkpt lat="44.2402305" lon="8.2728822"><ele>858.0</ele><time>2026-05-03T09:16:35.019Z</time></trkpt><trkpt lat="44.240325" lon="8.2727884"><ele>858.0</ele><time>2026-05-03T09:16:36.02Z</time></trkpt><trkpt lat="44.240418" lon="8.2726917"><ele>858.0</ele><time>2026-05-03T09:16:37.02Z</time></trkpt><trkpt lat="44.240508" lon="8.2725916"><ele>858.0</ele><time>2026-05-03T09:16:38.02Z</time></trkpt><trkpt lat="44.2405981" lon="8.2724927"><ele>860.0</ele><time>2026-05-03T09:16:39.019Z</time></trkpt><trkpt lat="44.2406938" lon="8.2723915"><ele>862.0</ele><time>2026-05-03T09:16:40.019Z</time></trkpt><trkpt lat="44.2407936" lon="8.2722891"><ele>864.0</ele><time>2026-05-03T09:16:41.02Z</time></trkpt><trkpt lat="44.2408932" lon="8.2721826"><ele>866.0</ele><time>2026-05-03T09:16:42.019Z</time></trkpt><trkpt lat="44.24099" lon="8.2720722"><ele>866.0</ele><time>2026-05-03T09:16:43.02Z</time></trkpt><trkpt lat="44.2410747" lon="8.2719508"><ele>865.9999999999999</ele><time>2026-05-03T09:16:44.02Z</time></trkpt><trkpt lat="44.2411528" lon="8.2718349"><ele>865.9999999999999</ele><time>2026-05-03T09:16:45.02Z</time></trkpt><trkpt lat="44.2412267" lon="8.2717252"><ele>866.0</ele><time>2026-05-03T09:16:46.02Z</time></trkpt><trkpt lat="44.2412956" lon="8.2716285"><ele>866.0</ele><time>2026-05-03T09:16:47.02Z</time></trkpt><trkpt lat="44.2413628" lon="8.2715296"><ele>867.4</ele><time>2026-05-03T09:16:48.02Z</time></trkpt><trkpt lat="44.2414307" lon="8.2714305"><ele>868.8</ele><time>2026-05-03T09:16:49.02Z</time></trkpt><trkpt lat="44.2415013" lon="8.2713435"><ele>870.1999999999999</ele><time>2026-05-03T09:16:50.02Z</time></trkpt><trkpt lat="44.2415808" lon="8.2712851"><ele>871.5999999999999</ele><time>2026-05-03T09:16:51.019Z</time></trkpt><trkpt lat="44.2416511" lon="8.2712279"><ele>873.0</ele><time>2026-05-03T09:16:52.019Z</time></trkpt><trkpt lat="44.241722" lon="8.271158"><ele>873.0</ele><time>2026-05-03T09:16:53.02Z</time></trkpt><trkpt lat="44.241795" lon="8.2710754"><ele>873.0</ele><time>2026-05-03T09:16:54.019Z</time></trkpt><trkpt lat="44.2418752" lon="8.2710078"><ele>873.0</ele><time>2026-05-03T09:16:55.02Z</time></trkpt><trkpt lat="44.2419579" lon="8.2709556"><ele>873.0</ele><time>2026-05-03T09:16:56.019Z</time></trkpt><trkpt lat="44.2420548" lon="8.2709239"><ele>873.0</ele><time>2026-05-03T09:16:57.02Z</time></trkpt><trkpt lat="44.2421513" lon="8.2708922"><ele>873.0</ele><time>2026-05-03T09:16:58.02Z</time></trkpt><trkpt lat="44.2422459" lon="8.2708676"><ele>873.0</ele><time>2026-05-03T09:16:59.019Z</time></trkpt><trkpt lat="44.2423368" lon="8.2708388"><ele>873.0</ele><time>2026-05-03T09:17:00.02Z</time></trkpt><trkpt lat="44.2424394" lon="8.2708163"><ele>873.0</ele><time>2026-05-03T09:17:01.02Z</time></trkpt><trkpt lat="44.2425415" lon="8.2707876"><ele>873.0</ele><time>2026-05-03T09:17:02.02Z</time></trkpt><trkpt lat="44.242631" lon="8.2707434"><ele>872.0</ele><time>2026-05-03T09:17:03.019Z</time></trkpt><trkpt lat="44.2427147" lon="8.2706717"><ele>871.0</ele><time>2026-05-03T09:17:04.019Z</time></trkpt><trkpt lat="44.2427984" lon="8.2705754"><ele>870.0</ele><time>2026-05-03T09:17:05.02Z</time></trkpt><trkpt lat="44.2428727" lon="8.2704601"><ele>869.0</ele><time>2026-05-03T09:17:06.02Z</time></trkpt><trkpt lat="44.2429385" lon="8.2703449"><ele>868.0</ele><time>2026-05-03T09:17:07.019Z</time></trkpt><trkpt lat="44.2430126" lon="8.2702257"><ele>868.0</ele><time>2026-05-03T09:17:08.02Z</time></trkpt><trkpt lat="44.2430877" lon="8.2701151"><ele>868.0</ele><time>2026-05-03T09:17:09.02Z</time></trkpt><trkpt lat="44.2431708" lon="8.269998"><ele>868.0</ele><time>2026-05-03T09:17:10.019Z</time></trkpt><trkpt lat="44.2432489" lon="8.2698945"><ele>868.0</ele><time>2026-05-03T09:17:11.02Z</time></trkpt><trkpt lat="44.2433413" lon="8.2698074"><ele>868.0</ele><time>2026-05-03T09:17:12.019Z</time></trkpt><trkpt lat="44.2434462" lon="8.2697141"><ele>869.75</ele><time>2026-05-03T09:17:13.019Z</time></trkpt><trkpt lat="44.243547" lon="8.2696193"><ele>871.5</ele><time>2026-05-03T09:17:14.02Z</time></trkpt><trkpt lat="44.2436464" lon="8.26951"><ele>873.25</ele><time>2026-05-03T09:17:15.02Z</time></trkpt><trkpt lat="44.2437476" lon="8.2693934"><ele>875.0</ele><time>2026-05-03T09:17:16.021Z</time></trkpt><trkpt lat="44.2438246" lon="8.2692704"><ele>875.0</ele><time>2026-05-03T09:17:17.02Z</time></trkpt><trkpt lat="44.2438847" lon="8.2691474"><ele>875.0</ele><time>2026-05-03T09:17:18.021Z</time></trkpt><trkpt lat="44.2439397" lon="8.2690236"><ele>875.0</ele><time>2026-05-03T09:17:19.021Z</time></trkpt><trkpt lat="44.2439947" lon="8.2689034"><ele>875.0</ele><time>2026-05-03T09:17:20.021Z</time></trkpt><trkpt lat="44.2440566" lon="8.2687856"><ele>875.0</ele><time>2026-05-03T09:17:21.021Z</time></trkpt><trkpt lat="44.2441253" lon="8.2686562"><ele>879.0</ele><time>2026-05-03T09:17:22.021Z</time></trkpt><trkpt lat="44.2441831" lon="8.2685309"><ele>883.0</ele><time>2026-05-03T09:17:23.021Z</time></trkpt><trkpt lat="44.2442298" lon="8.2683972"><ele>887.0</ele><time>2026-05-03T09:17:24.02Z</time></trkpt><trkpt lat="44.2442639" lon="8.2682598"><ele>891.0</ele><time>2026-05-03T09:17:25.021Z</time></trkpt><trkpt lat="44.2443001" lon="8.2681333"><ele>895.0</ele><time>2026-05-03T09:17:26.021Z</time></trkpt><trkpt lat="44.2443471" lon="8.2680224"><ele>895.0</ele><time>2026-05-03T09:17:27.02Z</time></trkpt><trkpt lat="44.2443995" lon="8.2679278"><ele>895.0</ele><time>2026-05-03T09:17:28.02Z</time></trkpt><trkpt lat="44.2444495" lon="8.2678478"><ele>895.0</ele><time>2026-05-03T09:17:29.02Z</time></trkpt><trkpt lat="44.244534" lon="8.2677522"><ele>895.0</ele><time>2026-05-03T09:17:31.021Z</time></trkpt><trkpt lat="44.244642" lon="8.2676747"><ele>895.0</ele><time>2026-05-03T09:17:33.021Z</time></trkpt><trkpt lat="44.2447088" lon="8.2676553"><ele>895.0</ele><time>2026-05-03T09:17:34.021Z</time></trkpt><trkpt lat="44.2447879" lon="8.2676321"><ele>895.0</ele><time>2026-05-03T09:17:35.02Z</time></trkpt><trkpt lat="44.2448854" lon="8.2676062"><ele>895.0</ele><time>2026-05-03T09:17:36.021Z</time></trkpt><trkpt lat="44.244979" lon="8.2675774"><ele>895.0</ele><time>2026-05-03T09:17:37.02Z</time></trkpt><trkpt lat="44.2450656" lon="8.2675187"><ele>895.0</ele><time>2026-05-03T09:17:38.02Z</time></trkpt><trkpt lat="44.2451418" lon="8.2674256"><ele>899.5</ele><time>2026-05-03T09:17:39.021Z</time></trkpt><trkpt lat="44.2452139" lon="8.267298"><ele>904.0</ele><time>2026-05-03T09:17:40.021Z</time></trkpt><trkpt lat="44.2452701" lon="8.2671469"><ele>908.5</ele><time>2026-05-03T09:17:41.021Z</time></trkpt><trkpt lat="44.2453174" lon="8.2670056"><ele>913.0</ele><time>2026-05-03T09:17:42.02Z</time></trkpt><trkpt lat="44.2453665" lon="8.2668737"><ele>913.0</ele><time>2026-05-03T09:17:43.02Z</time></trkpt><trkpt lat="44.245417" lon="8.2667444"><ele>913.0</ele><time>2026-05-03T09:17:44.02Z</time></trkpt><trkpt lat="44.2454693" lon="8.2666194"><ele>913.0</ele><time>2026-05-03T09:17:45.02Z</time></trkpt><trkpt lat="44.2455224" lon="8.2664954"><ele>913.0</ele><time>2026-05-03T09:17:46.021Z</time></trkpt><trkpt lat="44.245564" lon="8.2663665"><ele>913.0</ele><time>2026-05-03T09:17:47.021Z</time></trkpt><trkpt lat="44.2455853" lon="8.2662183"><ele>911.0</ele><time>2026-05-03T09:17:48.021Z</time></trkpt><trkpt lat="44.2455905" lon="8.2660751"><ele>909.0</ele><time>2026-05-03T09:17:49.021Z</time></trkpt><trkpt lat="44.2455773" lon="8.2659239"><ele>907.0</ele><time>2026-05-03T09:17:50.021Z</time></trkpt><trkpt lat="44.2455647" lon="8.2657921"><ele>905.0</ele><time>2026-05-03T09:17:51.02Z</time></trkpt><trkpt lat="44.2455701" lon="8.2656646"><ele>903.0</ele><time>2026-05-03T09:17:52.02Z</time></trkpt><trkpt lat="44.2455842" lon="8.2655259"><ele>902.0</ele><time>2026-05-03T09:17:53.02Z</time></trkpt><trkpt lat="44.2456208" lon="8.2654137"><ele>901.0</ele><time>2026-05-03T09:17:54.021Z</time></trkpt><trkpt lat="44.2456745" lon="8.2652859"><ele>900.0</ele><time>2026-05-03T09:17:55.02Z</time></trkpt><trkpt lat="44.2457325" lon="8.2651595"><ele>899.0</ele><time>2026-05-03T09:17:56.02Z</time></trkpt><trkpt lat="44.2457987" lon="8.2650321"><ele>898.0</ele><time>2026-05-03T09:17:57.021Z</time></trkpt><trkpt lat="44.2458633" lon="8.2648955"><ele>905.0</ele><time>2026-05-03T09:17:58.021Z</time></trkpt><trkpt lat="44.2459312" lon="8.2647519"><ele>912.0</ele><time>2026-05-03T09:17:59.02Z</time></trkpt><trkpt lat="44.2460095" lon="8.2645908"><ele>919.0</ele><time>2026-05-03T09:18:00.021Z</time></trkpt><trkpt lat="44.246083" lon="8.2644351"><ele>926.0</ele><time>2026-05-03T09:18:01.02Z</time></trkpt><trkpt lat="44.2461538" lon="8.2642784"><ele>926.0</ele><time>2026-05-03T09:18:02.021Z</time></trkpt><trkpt lat="44.2462185" lon="8.2641203"><ele>926.0</ele><time>2026-05-03T09:18:03.02Z</time></trkpt><trkpt lat="44.2462765" lon="8.2639652"><ele>926.0</ele><time>2026-05-03T09:18:04.021Z</time></trkpt><trkpt lat="44.246333" lon="8.2638271"><ele>926.0</ele><time>2026-05-03T09:18:05.021Z</time></trkpt><trkpt lat="44.2463784" lon="8.2636976"><ele>923.5999999999999</ele><time>2026-05-03T09:18:06.021Z</time></trkpt><trkpt lat="44.2464215" lon="8.2635761"><ele>921.1999999999999</ele><time>2026-05-03T09:18:07.021Z</time></trkpt><trkpt lat="44.2464684" lon="8.2634517"><ele>918.8000000000001</ele><time>2026-05-03T09:18:08.021Z</time></trkpt><trkpt lat="44.2465162" lon="8.2633328"><ele>916.4000000000001</ele><time>2026-05-03T09:18:09.021Z</time></trkpt><trkpt lat="44.2465692" lon="8.2632222"><ele>914.0</ele><time>2026-05-03T09:18:10.021Z</time></trkpt><trkpt lat="44.2466244" lon="8.2631199"><ele>916.6666666666667</ele><time>2026-05-03T09:18:11.021Z</time></trkpt><trkpt lat="44.2466802" lon="8.26302"><ele>919.3333333333334</ele><time>2026-05-03T09:18:12.02Z</time></trkpt><trkpt lat="44.246735" lon="8.2629213"><ele>922.0</ele><time>2026-05-03T09:18:13.021Z</time></trkpt><trkpt lat="44.2467901" lon="8.2628256"><ele>924.6666666666667</ele><time>2026-05-03T09:18:14.021Z</time></trkpt><trkpt lat="44.2468484" lon="8.2627346"><ele>927.3333333333334</ele><time>2026-05-03T09:18:15.021Z</time></trkpt><trkpt lat="44.2469082" lon="8.2626442"><ele>930.0</ele><time>2026-05-03T09:18:16.021Z</time></trkpt><trkpt lat="44.2469658" lon="8.2625529"><ele>930.0</ele><time>2026-05-03T09:18:17.021Z</time></trkpt><trkpt lat="44.247026" lon="8.2624627"><ele>930.0</ele><time>2026-05-03T09:18:18.02Z</time></trkpt><trkpt lat="44.2470812" lon="8.2623686"><ele>930.0</ele><time>2026-05-03T09:18:19.021Z</time></trkpt><trkpt lat="44.2471378" lon="8.2622604"><ele>930.0</ele><time>2026-05-03T09:18:20.021Z</time></trkpt><trkpt lat="44.2471902" lon="8.2621535"><ele>930.0</ele><time>2026-05-03T09:18:21.022Z</time></trkpt><trkpt lat="44.2472342" lon="8.2620321"><ele>929.0</ele><time>2026-05-03T09:18:22.021Z</time></trkpt><trkpt lat="44.2472745" lon="8.2619005"><ele>928.0</ele><time>2026-05-03T09:18:23.022Z</time></trkpt><trkpt lat="44.2473154" lon="8.2617675"><ele>927.0</ele><time>2026-05-03T09:18:24.022Z</time></trkpt><trkpt lat="44.2473559" lon="8.2616199"><ele>926.0</ele><time>2026-05-03T09:18:25.022Z</time></trkpt><trkpt lat="44.247396" lon="8.2614562"><ele>925.0</ele><time>2026-05-03T09:18:26.022Z</time></trkpt><trkpt lat="44.2474329" lon="8.2613043"><ele>928.8</ele><time>2026-05-03T09:18:27.022Z</time></trkpt><trkpt lat="44.2474657" lon="8.261149"><ele>932.6</ele><time>2026-05-03T09:18:28.021Z</time></trkpt><trkpt lat="44.2474858" lon="8.2610124"><ele>936.4000000000001</ele><time>2026-05-03T09:18:29.022Z</time></trkpt><trkpt lat="44.2474938" lon="8.2608698"><ele>940.2</ele><time>2026-05-03T09:18:30.022Z</time></trkpt><trkpt lat="44.2474803" lon="8.2607399"><ele>944.0</ele><time>2026-05-03T09:18:31.021Z</time></trkpt><trkpt lat="44.2474486" lon="8.2606053"><ele>945.0</ele><time>2026-05-03T09:18:32.022Z</time></trkpt><trkpt lat="44.2474146" lon="8.2604506"><ele>946.0</ele><time>2026-05-03T09:18:33.022Z</time></trkpt><trkpt lat="44.2473754" lon="8.2602769"><ele>947.0</ele><time>2026-05-03T09:18:34.021Z</time></trkpt><trkpt lat="44.2473475" lon="8.2600753"><ele>948.0</ele><time>2026-05-03T09:18:35.022Z</time></trkpt><trkpt lat="44.2473313" lon="8.2598663"><ele>949.75</ele><time>2026-05-03T09:18:36.022Z</time></trkpt><trkpt lat="44.2473165" lon="8.2596648"><ele>951.5</ele><time>2026-05-03T09:18:37.022Z</time></trkpt><trkpt lat="44.2473084" lon="8.2594566"><ele>953.25</ele><time>2026-05-03T09:18:38.021Z</time></trkpt><trkpt lat="44.2472962" lon="8.2592504"><ele>955.0</ele><time>2026-05-03T09:18:39.022Z</time></trkpt><trkpt lat="44.2472773" lon="8.2590484"><ele>949.5</ele><time>2026-05-03T09:18:40.021Z</time></trkpt><trkpt lat="44.2472512" lon="8.2588566"><ele>944.0</ele><time>2026-05-03T09:18:41.024Z</time></trkpt><trkpt lat="44.24721" lon="8.2586711"><ele>938.5</ele><time>2026-05-03T09:18:42.021Z</time></trkpt><trkpt lat="44.2471571" lon="8.2584935"><ele>933.0</ele><time>2026-05-03T09:18:43.021Z</time></trkpt><trkpt lat="44.2471099" lon="8.2583152"><ele>933.0</ele><time>2026-05-03T09:18:44.022Z</time></trkpt><trkpt lat="44.2470625" lon="8.2581352"><ele>933.0</ele><time>2026-05-03T09:18:45.022Z</time></trkpt><trkpt lat="44.2470152" lon="8.2579505"><ele>933.0</ele><time>2026-05-03T09:18:46.022Z</time></trkpt><trkpt lat="44.2469696" lon="8.2577636"><ele>933.0</ele><time>2026-05-03T09:18:47.021Z</time></trkpt><trkpt lat="44.2469338" lon="8.2575856"><ele>934.5</ele><time>2026-05-03T09:18:48.021Z</time></trkpt><trkpt lat="44.2469052" lon="8.2574047"><ele>936.0</ele><time>2026-05-03T09:18:49.022Z</time></trkpt><trkpt lat="44.2468918" lon="8.2572089"><ele>937.5</ele><time>2026-05-03T09:18:50.022Z</time></trkpt><trkpt lat="44.2468846" lon="8.2570347"><ele>939.0</ele><time>2026-05-03T09:18:51.022Z</time></trkpt><trkpt lat="44.246882" lon="8.2568645"><ele>939.75</ele><time>2026-05-03T09:18:52.021Z</time></trkpt><trkpt lat="44.2468793" lon="8.2566896"><ele>940.5</ele><time>2026-05-03T09:18:53.022Z</time></trkpt><trkpt lat="44.2468808" lon="8.2565106"><ele>941.25</ele><time>2026-05-03T09:18:54.021Z</time></trkpt><trkpt lat="44.2468818" lon="8.2563198"><ele>942.0</ele><time>2026-05-03T09:18:55.021Z</time></trkpt><trkpt lat="44.2468912" lon="8.2561297"><ele>942.0</ele><time>2026-05-03T09:18:56.021Z</time></trkpt><trkpt lat="44.2469138" lon="8.2559483"><ele>942.0</ele><time>2026-05-03T09:18:57.021Z</time></trkpt><trkpt lat="44.2469465" lon="8.2557715"><ele>942.0</ele><time>2026-05-03T09:18:58.022Z</time></trkpt><trkpt lat="44.247001" lon="8.2556182"><ele>942.0</ele><time>2026-05-03T09:18:59.022Z</time></trkpt><trkpt lat="44.2470483" lon="8.2554628"><ele>942.4000000000001</ele><time>2026-05-03T09:19:00.022Z</time></trkpt><trkpt lat="44.2470931" lon="8.2553155"><ele>942.8000000000001</ele><time>2026-05-03T09:19:01.022Z</time></trkpt><trkpt lat="44.2471304" lon="8.2551719"><ele>943.2</ele><time>2026-05-03T09:19:02.022Z</time></trkpt><trkpt lat="44.2471499" lon="8.2550372"><ele>943.6</ele><time>2026-05-03T09:19:03.022Z</time></trkpt><trkpt lat="44.2471473" lon="8.2549054"><ele>944.0</ele><time>2026-05-03T09:19:04.021Z</time></trkpt><trkpt lat="44.2471137" lon="8.2547856"><ele>944.6666666666667</ele><time>2026-05-03T09:19:05.021Z</time></trkpt><trkpt lat="44.2470708" lon="8.254694"><ele>945.3333333333334</ele><time>2026-05-03T09:19:06.022Z</time></trkpt><trkpt lat="44.2470076" lon="8.2546248"><ele>946.0</ele><time>2026-05-03T09:19:07.022Z</time></trkpt><trkpt lat="44.2469321" lon="8.254535"><ele>946.6666666666667</ele><time>2026-05-03T09:19:08.022Z</time></trkpt><trkpt lat="44.246867" lon="8.2544447"><ele>947.3333333333334</ele><time>2026-05-03T09:19:09.022Z</time></trkpt><trkpt lat="44.2468238" lon="8.2543307"><ele>948.0</ele><time>2026-05-03T09:19:10.022Z</time></trkpt><trkpt lat="44.2468021" lon="8.2541905"><ele>948.0</ele><time>2026-05-03T09:19:11.021Z</time></trkpt><trkpt lat="44.2468163" lon="8.2540128"><ele>948.0</ele><time>2026-05-03T09:19:12.022Z</time></trkpt><trkpt lat="44.2468334" lon="8.2538152"><ele>948.0</ele><time>2026-05-03T09:19:13.021Z</time></trkpt><trkpt lat="44.2468508" lon="8.2536208"><ele>948.0</ele><time>2026-05-03T09:19:14.021Z</time></trkpt><trkpt lat="44.2468651" lon="8.2534476"><ele>947.5999999999999</ele><time>2026-05-03T09:19:15.022Z</time></trkpt><trkpt lat="44.2468762" lon="8.2532885"><ele>947.1999999999999</ele><time>2026-05-03T09:19:16.022Z</time></trkpt><trkpt lat="44.2468858" lon="8.2531602"><ele>946.8</ele><time>2026-05-03T09:19:17.022Z</time></trkpt><trkpt lat="44.2468954" lon="8.2530378"><ele>946.4</ele><time>2026-05-03T09:19:18.022Z</time></trkpt><trkpt lat="44.2469082" lon="8.2529144"><ele>946.0</ele><time>2026-05-03T09:19:19.021Z</time></trkpt><trkpt lat="44.2469202" lon="8.2527825"><ele>947.1999999999999</ele><time>2026-05-03T09:19:20.022Z</time></trkpt><trkpt lat="44.2469177" lon="8.2526566"><ele>948.3999999999999</ele><time>2026-05-03T09:19:21.022Z</time></trkpt><trkpt lat="44.2468948" lon="8.2525415"><ele>949.6</ele><time>2026-05-03T09:19:22.023Z</time></trkpt><trkpt lat="44.2468504" lon="8.2524476"><ele>950.8</ele><time>2026-05-03T09:19:23.022Z</time></trkpt><trkpt lat="44.2467774" lon="8.2523523"><ele>952.0</ele><time>2026-05-03T09:19:24.021Z</time></trkpt><trkpt lat="44.2466891" lon="8.252249"><ele>952.5</ele><time>2026-05-03T09:19:25.023Z</time></trkpt><trkpt lat="44.246594" lon="8.252127"><ele>953.0</ele><time>2026-05-03T09:19:26.022Z</time></trkpt><trkpt lat="44.2465069" lon="8.2519936"><ele>953.5</ele><time>2026-05-03T09:19:27.023Z</time></trkpt><trkpt lat="44.246421" lon="8.2518788"><ele>954.0</ele><time>2026-05-03T09:19:28.023Z</time></trkpt><trkpt lat="44.2463446" lon="8.2517709"><ele>953.5</ele><time>2026-05-03T09:19:29.023Z</time></trkpt><trkpt lat="44.2462766" lon="8.2516728"><ele>953.0</ele><time>2026-05-03T09:19:30.023Z</time></trkpt><trkpt lat="44.2462157" lon="8.2515598"><ele>952.5</ele><time>2026-05-03T09:19:31.023Z</time></trkpt><trkpt lat="44.2461599" lon="8.251408"><ele>952.0</ele><time>2026-05-03T09:19:32.022Z</time></trkpt><trkpt lat="44.2461161" lon="8.2512331"><ele>952.0</ele><time>2026-05-03T09:19:33.023Z</time></trkpt><trkpt lat="44.2460882" lon="8.2510391"><ele>952.0</ele><time>2026-05-03T09:19:34.022Z</time></trkpt><trkpt lat="44.2460645" lon="8.250855"><ele>952.0</ele><time>2026-05-03T09:19:35.022Z</time></trkpt><trkpt lat="44.2460321" lon="8.2507022"><ele>952.0</ele><time>2026-05-03T09:19:36.023Z</time></trkpt><trkpt lat="44.2459973" lon="8.2505811"><ele>953.5</ele><time>2026-05-03T09:19:37.023Z</time></trkpt><trkpt lat="44.2459485" lon="8.2504561"><ele>955.0</ele><time>2026-05-03T09:19:38.023Z</time></trkpt><trkpt lat="44.2458803" lon="8.2503081"><ele>956.5</ele><time>2026-05-03T09:19:39.023Z</time></trkpt><trkpt lat="44.2457958" lon="8.2501528"><ele>958.0</ele><time>2026-05-03T09:19:40.023Z</time></trkpt><trkpt lat="44.2457102" lon="8.2499926"><ele>956.25</ele><time>2026-05-03T09:19:41.023Z</time></trkpt><trkpt lat="44.2456257" lon="8.2498347"><ele>954.5</ele><time>2026-05-03T09:19:42.023Z</time></trkpt><trkpt lat="44.2455428" lon="8.2496726"><ele>952.75</ele><time>2026-05-03T09:19:43.023Z</time></trkpt><trkpt lat="44.2454591" lon="8.2495174"><ele>951.0</ele><time>2026-05-03T09:19:44.023Z</time></trkpt><trkpt lat="44.2453761" lon="8.249359"><ele>951.0</ele><time>2026-05-03T09:19:45.023Z</time></trkpt><trkpt lat="44.245298" lon="8.2492048"><ele>951.0</ele><time>2026-05-03T09:19:46.023Z</time></trkpt><trkpt lat="44.2452214" lon="8.2490609"><ele>951.0</ele><time>2026-05-03T09:19:47.023Z</time></trkpt><trkpt lat="44.245144" lon="8.2489246"><ele>951.0</ele><time>2026-05-03T09:19:48.022Z</time></trkpt><trkpt lat="44.2450642" lon="8.2488008"><ele>951.25</ele><time>2026-05-03T09:19:49.023Z</time></trkpt><trkpt lat="44.2449779" lon="8.2486898"><ele>951.5</ele><time>2026-05-03T09:19:50.022Z</time></trkpt><trkpt lat="44.2448754" lon="8.2485977"><ele>951.75</ele><time>2026-05-03T09:19:51.023Z</time></trkpt><trkpt lat="44.2447581" lon="8.2485271"><ele>952.0</ele><time>2026-05-03T09:19:52.023Z</time></trkpt><trkpt lat="44.2446351" lon="8.2484605"><ele>951.75</ele><time>2026-05-03T09:19:53.023Z</time></trkpt><trkpt lat="44.2445257" lon="8.2483798"><ele>951.5</ele><time>2026-05-03T09:19:54.023Z</time></trkpt><trkpt lat="44.2444353" lon="8.2482774"><ele>951.25</ele><time>2026-05-03T09:19:55.023Z</time></trkpt><trkpt lat="44.2443519" lon="8.2481297"><ele>951.0</ele><time>2026-05-03T09:19:56.022Z</time></trkpt><trkpt lat="44.2442897" lon="8.2479573"><ele>951.0</ele><time>2026-05-03T09:19:57.023Z</time></trkpt><trkpt lat="44.2442544" lon="8.2477614"><ele>951.0</ele><time>2026-05-03T09:19:58.023Z</time></trkpt><trkpt lat="44.2442274" lon="8.2475538"><ele>951.0</ele><time>2026-05-03T09:19:59.023Z</time></trkpt><trkpt lat="44.244204" lon="8.2473546"><ele>951.0</ele><time>2026-05-03T09:20:00.022Z</time></trkpt><trkpt lat="44.2441829" lon="8.2471681"><ele>951.0</ele><time>2026-05-03T09:20:01.023Z</time></trkpt><trkpt lat="44.2441616" lon="8.2469962"><ele>951.0</ele><time>2026-05-03T09:20:02.022Z</time></trkpt><trkpt lat="44.2441478" lon="8.2468141"><ele>951.0</ele><time>2026-05-03T09:20:03.023Z</time></trkpt><trkpt lat="44.2441364" lon="8.2466282"><ele>951.0</ele><time>2026-05-03T09:20:04.022Z</time></trkpt><trkpt lat="44.2441217" lon="8.2464279"><ele>951.0</ele><time>2026-05-03T09:20:05.023Z</time></trkpt><trkpt lat="44.2441109" lon="8.2462246"><ele>951.0</ele><time>2026-05-03T09:20:06.023Z</time></trkpt><trkpt lat="44.2441042" lon="8.2460196"><ele>951.0</ele><time>2026-05-03T09:20:07.023Z</time></trkpt><trkpt lat="44.2440971" lon="8.2458146"><ele>951.0</ele><time>2026-05-03T09:20:08.023Z</time></trkpt><trkpt lat="44.2440777" lon="8.245617"><ele>949.75</ele><time>2026-05-03T09:20:09.022Z</time></trkpt><trkpt lat="44.2440465" lon="8.2454312"><ele>948.5</ele><time>2026-05-03T09:20:10.022Z</time></trkpt><trkpt lat="44.2440093" lon="8.2452619"><ele>947.25</ele><time>2026-05-03T09:20:11.023Z</time></trkpt><trkpt lat="44.2439788" lon="8.2451045"><ele>946.0</ele><time>2026-05-03T09:20:12.022Z</time></trkpt><trkpt lat="44.243957" lon="8.2449473"><ele>939.5</ele><time>2026-05-03T09:20:13.023Z</time></trkpt><trkpt lat="44.2439446" lon="8.2447865"><ele>933.0</ele><time>2026-05-03T09:20:14.023Z</time></trkpt><trkpt lat="44.2439407" lon="8.2446212"><ele>926.5</ele><time>2026-05-03T09:20:15.022Z</time></trkpt><trkpt lat="44.2439389" lon="8.2444477"><ele>920.0</ele><time>2026-05-03T09:20:16.023Z</time></trkpt><trkpt lat="44.2439392" lon="8.244275"><ele>920.0</ele><time>2026-05-03T09:20:17.022Z</time></trkpt><trkpt lat="44.2439413" lon="8.2441146"><ele>920.0</ele><time>2026-05-03T09:20:18.023Z</time></trkpt><trkpt lat="44.243942" lon="8.2439592"><ele>920.0</ele><time>2026-05-03T09:20:19.023Z</time></trkpt><trkpt lat="44.2439448" lon="8.2438058"><ele>920.0</ele><time>2026-05-03T09:20:20.022Z</time></trkpt><trkpt lat="44.2439474" lon="8.2436456"><ele>919.75</ele><time>2026-05-03T09:20:21.023Z</time></trkpt><trkpt lat="44.2439541" lon="8.2434886"><ele>919.5</ele><time>2026-05-03T09:20:22.023Z</time></trkpt><trkpt lat="44.2439678" lon="8.2433283"><ele>919.25</ele><time>2026-05-03T09:20:23.023Z</time></trkpt><trkpt lat="44.2439879" lon="8.2431593"><ele>919.0</ele><time>2026-05-03T09:20:24.023Z</time></trkpt><trkpt lat="44.2440158" lon="8.2429817"><ele>922.0</ele><time>2026-05-03T09:20:25.023Z</time></trkpt><trkpt lat="44.2440489" lon="8.2427977"><ele>925.0</ele><time>2026-05-03T09:20:26.023Z</time></trkpt><trkpt lat="44.2440835" lon="8.2426198"><ele>928.0</ele><time>2026-05-03T09:20:27.023Z</time></trkpt><trkpt lat="44.2441185" lon="8.2424522"><ele>931.0</ele><time>2026-05-03T09:20:28.024Z</time></trkpt><trkpt lat="44.2441575" lon="8.2422869"><ele>931.0</ele><time>2026-05-03T09:20:29.023Z</time></trkpt><trkpt lat="44.244203" lon="8.2421279"><ele>931.0</ele><time>2026-05-03T09:20:30.023Z</time></trkpt><trkpt lat="44.2442479" lon="8.241972"><ele>931.0</ele><time>2026-05-03T09:20:31.024Z</time></trkpt><trkpt lat="44.2442969" lon="8.2418344"><ele>931.0</ele><time>2026-05-03T09:20:32.024Z</time></trkpt><trkpt lat="44.2443419" lon="8.2417033"><ele>930.9999999999999</ele><time>2026-05-03T09:20:33.023Z</time></trkpt><trkpt lat="44.2443801" lon="8.2415777"><ele>931.0</ele><time>2026-05-03T09:20:34.023Z</time></trkpt><trkpt lat="44.2444081" lon="8.2414619"><ele>931.0</ele><time>2026-05-03T09:20:35.024Z</time></trkpt><trkpt lat="44.2444292" lon="8.2413616"><ele>931.0</ele><time>2026-05-03T09:20:36.024Z</time></trkpt><trkpt lat="44.2444439" lon="8.2412682"><ele>930.9999999999999</ele><time>2026-05-03T09:20:37.024Z</time></trkpt><trkpt lat="44.2444545" lon="8.241118"><ele>931.0</ele><time>2026-05-03T09:20:39.024Z</time></trkpt><trkpt lat="44.2444387" lon="8.2410296"><ele>930.8</ele><time>2026-05-03T09:20:41.023Z</time></trkpt><trkpt lat="44.2443741" lon="8.2409583"><ele>930.5999999999999</ele><time>2026-05-03T09:20:45.024Z</time></trkpt><trkpt lat="44.2443856" lon="8.2408414"><ele>930.4</ele><time>2026-05-03T09:30:02.032Z</time></trkpt><trkpt lat="44.2444344" lon="8.2407721"><ele>930.2</ele><time>2026-05-03T09:30:04.032Z</time></trkpt><trkpt lat="44.2444991" lon="8.2407006"><ele>930.0</ele><time>2026-05-03T09:30:07.031Z</time></trkpt><trkpt lat="44.2445363" lon="8.2404947"><ele>931.0</ele><time>2026-05-03T09:30:09.031Z</time></trkpt><trkpt lat="44.244543" lon="8.2403692"><ele>932.0</ele><time>2026-05-03T09:30:10.032Z</time></trkpt><trkpt lat="44.2445455" lon="8.2402197"><ele>933.0</ele><time>2026-05-03T09:30:11.032Z</time></trkpt><trkpt lat="44.2445448" lon="8.2400628"><ele>934.0</ele><time>2026-05-03T09:30:12.031Z</time></trkpt><trkpt lat="44.2445477" lon="8.2398987"><ele>935.0</ele><time>2026-05-03T09:30:13.032Z</time></trkpt><trkpt lat="44.2445518" lon="8.2397367"><ele>936.25</ele><time>2026-05-03T09:30:14.032Z</time></trkpt><trkpt lat="44.2445554" lon="8.2395795"><ele>937.5</ele><time>2026-05-03T09:30:15.031Z</time></trkpt><trkpt lat="44.244557" lon="8.2394196"><ele>938.75</ele><time>2026-05-03T09:30:16.032Z</time></trkpt><trkpt lat="44.2445571" lon="8.239252"><ele>940.0</ele><time>2026-05-03T09:30:17.031Z</time></trkpt><trkpt lat="44.2445562" lon="8.2390749"><ele>941.0</ele><time>2026-05-03T09:30:18.032Z</time></trkpt><trkpt lat="44.2445563" lon="8.2388934"><ele>942.0</ele><time>2026-05-03T09:30:19.031Z</time></trkpt><trkpt lat="44.2445524" lon="8.2387092"><ele>943.0</ele><time>2026-05-03T09:30:20.031Z</time></trkpt><trkpt lat="44.2445467" lon="8.238534"><ele>944.0</ele><time>2026-05-03T09:30:21.031Z</time></trkpt><trkpt lat="44.2445374" lon="8.2383616"><ele>944.0</ele><time>2026-05-03T09:30:22.032Z</time></trkpt><trkpt lat="44.2445297" lon="8.238186"><ele>944.0</ele><time>2026-05-03T09:30:23.032Z</time></trkpt><trkpt lat="44.2445225" lon="8.238009"><ele>944.0</ele><time>2026-05-03T09:30:24.031Z</time></trkpt><trkpt lat="44.2445171" lon="8.2378246"><ele>944.0</ele><time>2026-05-03T09:30:25.031Z</time></trkpt><trkpt lat="44.2445178" lon="8.23764"><ele>945.5</ele><time>2026-05-03T09:30:26.031Z</time></trkpt><trkpt lat="44.2445132" lon="8.23745"><ele>947.0</ele><time>2026-05-03T09:30:27.032Z</time></trkpt><trkpt lat="44.2445053" lon="8.2372663"><ele>948.5</ele><time>2026-05-03T09:30:28.031Z</time></trkpt><trkpt lat="44.2444965" lon="8.2370925"><ele>950.0</ele><time>2026-05-03T09:30:29.033Z</time></trkpt><trkpt lat="44.2444854" lon="8.2369261"><ele>951.25</ele><time>2026-05-03T09:30:30.033Z</time></trkpt><trkpt lat="44.2444714" lon="8.2367639"><ele>952.5</ele><time>2026-05-03T09:30:31.033Z</time></trkpt><trkpt lat="44.2444519" lon="8.2366058"><ele>953.75</ele><time>2026-05-03T09:30:32.033Z</time></trkpt><trkpt lat="44.2444317" lon="8.2364523"><ele>955.0</ele><time>2026-05-03T09:30:33.033Z</time></trkpt><trkpt lat="44.2444123" lon="8.2362996"><ele>957.25</ele><time>2026-05-03T09:30:34.033Z</time></trkpt><trkpt lat="44.2444028" lon="8.2361345"><ele>959.5</ele><time>2026-05-03T09:30:35.033Z</time></trkpt><trkpt lat="44.244402" lon="8.2359582"><ele>961.75</ele><time>2026-05-03T09:30:36.033Z</time></trkpt><trkpt lat="44.2444171" lon="8.2357856"><ele>964.0</ele><time>2026-05-03T09:30:37.033Z</time></trkpt><trkpt lat="44.2444413" lon="8.2356316"><ele>966.75</ele><time>2026-05-03T09:30:38.033Z</time></trkpt><trkpt lat="44.2444615" lon="8.2354905"><ele>969.5</ele><time>2026-05-03T09:30:39.033Z</time></trkpt><trkpt lat="44.244443" lon="8.2353334"><ele>972.25</ele><time>2026-05-03T09:30:40.033Z</time></trkpt><trkpt lat="44.2443982" lon="8.2351695"><ele>975.0</ele><time>2026-05-03T09:30:41.033Z</time></trkpt><trkpt lat="44.2443341" lon="8.2350004"><ele>975.0</ele><time>2026-05-03T09:30:42.032Z</time></trkpt><trkpt lat="44.2442607" lon="8.2348362"><ele>975.0</ele><time>2026-05-03T09:30:43.033Z</time></trkpt><trkpt lat="44.2441958" lon="8.2346825"><ele>975.0</ele><time>2026-05-03T09:30:44.033Z</time></trkpt><trkpt lat="44.2441381" lon="8.2345295"><ele>975.0</ele><time>2026-05-03T09:30:45.033Z</time></trkpt><trkpt lat="44.2440867" lon="8.2343758"><ele>975.25</ele><time>2026-05-03T09:30:46.033Z</time></trkpt><trkpt lat="44.2440369" lon="8.234222"><ele>975.5</ele><time>2026-05-03T09:30:47.033Z</time></trkpt><trkpt lat="44.2439863" lon="8.2340704"><ele>975.75</ele><time>2026-05-03T09:30:48.033Z</time></trkpt><trkpt lat="44.2439329" lon="8.2339197"><ele>976.0</ele><time>2026-05-03T09:30:49.033Z</time></trkpt><trkpt lat="44.2438753" lon="8.2337633"><ele>976.0</ele><time>2026-05-03T09:30:50.033Z</time></trkpt><trkpt lat="44.2438113" lon="8.2335981"><ele>976.0</ele><time>2026-05-03T09:30:51.033Z</time></trkpt><trkpt lat="44.2437428" lon="8.2334291"><ele>976.0</ele><time>2026-05-03T09:30:52.033Z</time></trkpt><trkpt lat="44.2436714" lon="8.2332572"><ele>976.0</ele><time>2026-05-03T09:30:53.033Z</time></trkpt><trkpt lat="44.243597" lon="8.2330855"><ele>978.75</ele><time>2026-05-03T09:30:54.032Z</time></trkpt><trkpt lat="44.243516" lon="8.2329245"><ele>981.5</ele><time>2026-05-03T09:30:55.033Z</time></trkpt><trkpt lat="44.2434305" lon="8.2327767"><ele>984.25</ele><time>2026-05-03T09:30:56.032Z</time></trkpt><trkpt lat="44.243345" lon="8.2326439"><ele>987.0</ele><time>2026-05-03T09:30:57.033Z</time></trkpt><trkpt lat="44.2432628" lon="8.2325312"><ele>987.0</ele><time>2026-05-03T09:30:58.033Z</time></trkpt><trkpt lat="44.2431769" lon="8.2324352"><ele>987.0</ele><time>2026-05-03T09:30:59.033Z</time></trkpt><trkpt lat="44.2430721" lon="8.2323598"><ele>987.0</ele><time>2026-05-03T09:31:00.033Z</time></trkpt><trkpt lat="44.2429576" lon="8.2322993"><ele>987.0</ele><time>2026-05-03T09:31:01.033Z</time></trkpt><trkpt lat="44.2428435" lon="8.2322453"><ele>990.75</ele><time>2026-05-03T09:31:02.033Z</time></trkpt><trkpt lat="44.2427259" lon="8.2321956"><ele>994.5</ele><time>2026-05-03T09:31:03.032Z</time></trkpt><trkpt lat="44.2426098" lon="8.2321473"><ele>998.25</ele><time>2026-05-03T09:31:04.032Z</time></trkpt><trkpt lat="44.2424923" lon="8.2320944"><ele>1002.0</ele><time>2026-05-03T09:31:05.033Z</time></trkpt><trkpt lat="44.2423737" lon="8.2320373"><ele>998.25</ele><time>2026-05-03T09:31:06.033Z</time></trkpt><trkpt lat="44.2422577" lon="8.2319604"><ele>994.5</ele><time>2026-05-03T09:31:07.033Z</time></trkpt><trkpt lat="44.2421475" lon="8.2318747"><ele>990.75</ele><time>2026-05-03T09:31:08.033Z</time></trkpt><trkpt lat="44.2420414" lon="8.2317785"><ele>987.0</ele><time>2026-05-03T09:31:09.032Z</time></trkpt><trkpt lat="44.2419384" lon="8.2316813"><ele>987.0</ele><time>2026-05-03T09:31:10.033Z</time></trkpt><trkpt lat="44.2418458" lon="8.2315853"><ele>987.0</ele><time>2026-05-03T09:31:11.032Z</time></trkpt><trkpt lat="44.2417579" lon="8.2314917"><ele>987.0</ele><time>2026-05-03T09:31:12.032Z</time></trkpt><trkpt lat="44.2416767" lon="8.2313842"><ele>987.0</ele><time>2026-05-03T09:31:13.032Z</time></trkpt><trkpt lat="44.2416061" lon="8.2312488"><ele>990.25</ele><time>2026-05-03T09:31:14.032Z</time></trkpt><trkpt lat="44.2415484" lon="8.2310813"><ele>993.5</ele><time>2026-05-03T09:31:15.032Z</time></trkpt><trkpt lat="44.2415122" lon="8.230886"><ele>996.75</ele><time>2026-05-03T09:31:16.033Z</time></trkpt><trkpt lat="44.2414819" lon="8.2307011"><ele>1000.0</ele><time>2026-05-03T09:31:17.033Z</time></trkpt><trkpt lat="44.2414611" lon="8.2305315"><ele>1001.0</ele><time>2026-05-03T09:31:18.033Z</time></trkpt><trkpt lat="44.2414506" lon="8.2303602"><ele>1002.0</ele><time>2026-05-03T09:31:19.032Z</time></trkpt><trkpt lat="44.2414562" lon="8.2301757"><ele>1003.0</ele><time>2026-05-03T09:31:20.032Z</time></trkpt><trkpt lat="44.2414779" lon="8.2299834"><ele>1004.0</ele><time>2026-05-03T09:31:21.033Z</time></trkpt><trkpt lat="44.2414949" lon="8.2297998"><ele>1004.5</ele><time>2026-05-03T09:31:22.032Z</time></trkpt><trkpt lat="44.2415081" lon="8.2296111"><ele>1005.0</ele><time>2026-05-03T09:31:23.033Z</time></trkpt><trkpt lat="44.2415207" lon="8.2294211"><ele>1005.5</ele><time>2026-05-03T09:31:24.033Z</time></trkpt><trkpt lat="44.2415331" lon="8.2292197"><ele>1006.0</ele><time>2026-05-03T09:31:25.033Z</time></trkpt><trkpt lat="44.2415381" lon="8.2290116"><ele>1006.75</ele><time>2026-05-03T09:31:26.033Z</time></trkpt><trkpt lat="44.2415278" lon="8.2288044"><ele>1007.5</ele><time>2026-05-03T09:31:27.032Z</time></trkpt><trkpt lat="44.2415028" lon="8.2286057"><ele>1008.25</ele><time>2026-05-03T09:31:28.032Z</time></trkpt><trkpt lat="44.2414777" lon="8.2284133"><ele>1009.0</ele><time>2026-05-03T09:31:29.033Z</time></trkpt><trkpt lat="44.2414612" lon="8.2282337"><ele>1000.5</ele><time>2026-05-03T09:31:30.032Z</time></trkpt><trkpt lat="44.2414496" lon="8.2280578"><ele>992.0</ele><time>2026-05-03T09:31:31.033Z</time></trkpt><trkpt lat="44.2414298" lon="8.2278812"><ele>983.5</ele><time>2026-05-03T09:31:32.033Z</time></trkpt><trkpt lat="44.2413928" lon="8.2277065"><ele>975.0</ele><time>2026-05-03T09:31:33.033Z</time></trkpt><trkpt lat="44.2413517" lon="8.227546"><ele>975.0</ele><time>2026-05-03T09:31:34.033Z</time></trkpt><trkpt lat="44.2413135" lon="8.227396"><ele>975.0</ele><time>2026-05-03T09:31:35.032Z</time></trkpt><trkpt lat="44.2412883" lon="8.2272388"><ele>975.0</ele><time>2026-05-03T09:31:36.033Z</time></trkpt><trkpt lat="44.2412826" lon="8.2270747"><ele>975.0</ele><time>2026-05-03T09:31:37.034Z</time></trkpt><trkpt lat="44.2413076" lon="8.2268906"><ele>977.0</ele><time>2026-05-03T09:31:38.034Z</time></trkpt><trkpt lat="44.2413425" lon="8.2267102"><ele>979.0</ele><time>2026-05-03T09:31:39.034Z</time></trkpt><trkpt lat="44.2413724" lon="8.2265468"><ele>981.0</ele><time>2026-05-03T09:31:40.033Z</time></trkpt><trkpt lat="44.2413875" lon="8.2263865"><ele>983.0</ele><time>2026-05-03T09:31:41.034Z</time></trkpt><trkpt lat="44.2413722" lon="8.2262174"><ele>984.25</ele><time>2026-05-03T09:31:42.033Z</time></trkpt><trkpt lat="44.2413411" lon="8.2260394"><ele>985.5</ele><time>2026-05-03T09:31:43.033Z</time></trkpt><trkpt lat="44.2413104" lon="8.2258612"><ele>986.75</ele><time>2026-05-03T09:31:44.033Z</time></trkpt><trkpt lat="44.2412931" lon="8.2256859"><ele>988.0</ele><time>2026-05-03T09:31:45.034Z</time></trkpt><trkpt lat="44.2412976" lon="8.2255093"><ele>990.5</ele><time>2026-05-03T09:31:46.034Z</time></trkpt><trkpt lat="44.2413241" lon="8.2253381"><ele>993.0</ele><time>2026-05-03T09:31:47.034Z</time></trkpt><trkpt lat="44.2413551" lon="8.2251695"><ele>995.5</ele><time>2026-05-03T09:31:48.034Z</time></trkpt><trkpt lat="44.2413946" lon="8.2250086"><ele>998.0</ele><time>2026-05-03T09:31:49.033Z</time></trkpt><trkpt lat="44.2414352" lon="8.2248562"><ele>993.4</ele><time>2026-05-03T09:31:50.033Z</time></trkpt><trkpt lat="44.2414723" lon="8.2247156"><ele>988.8</ele><time>2026-05-03T09:31:51.034Z</time></trkpt><trkpt lat="44.2415023" lon="8.2245728"><ele>984.2</ele><time>2026-05-03T09:31:52.033Z</time></trkpt><trkpt lat="44.2415227" lon="8.2244188"><ele>979.6</ele><time>2026-05-03T09:31:53.033Z</time></trkpt><trkpt lat="44.2415215" lon="8.2242615"><ele>975.0</ele><time>2026-05-03T09:31:54.034Z</time></trkpt><trkpt lat="44.2414989" lon="8.2241063"><ele>978.2</ele><time>2026-05-03T09:31:55.033Z</time></trkpt><trkpt lat="44.2414551" lon="8.2239515"><ele>981.4</ele><time>2026-05-03T09:31:56.034Z</time></trkpt><trkpt lat="44.2414036" lon="8.2238134"><ele>984.5999999999999</ele><time>2026-05-03T09:31:57.034Z</time></trkpt><trkpt lat="44.2413496" lon="8.2236934"><ele>987.8</ele><time>2026-05-03T09:31:58.034Z</time></trkpt><trkpt lat="44.2412954" lon="8.2235846"><ele>991.0</ele><time>2026-05-03T09:31:59.034Z</time></trkpt><trkpt lat="44.241235" lon="8.2234801"><ele>991.0</ele><time>2026-05-03T09:32:00.034Z</time></trkpt><trkpt lat="44.2411552" lon="8.2233806"><ele>991.0</ele><time>2026-05-03T09:32:01.033Z</time></trkpt><trkpt lat="44.2410521" lon="8.2232984"><ele>991.0</ele><time>2026-05-03T09:32:02.033Z</time></trkpt><trkpt lat="44.2409402" lon="8.2232326"><ele>991.0</ele><time>2026-05-03T09:32:03.033Z</time></trkpt><trkpt lat="44.2408257" lon="8.2231977"><ele>991.0</ele><time>2026-05-03T09:32:04.034Z</time></trkpt><trkpt lat="44.2407152" lon="8.2231706"><ele>990.9999999999999</ele><time>2026-05-03T09:32:05.034Z</time></trkpt><trkpt lat="44.2406109" lon="8.2231449"><ele>990.9999999999999</ele><time>2026-05-03T09:32:06.034Z</time></trkpt><trkpt lat="44.2405107" lon="8.2231099"><ele>991.0</ele><time>2026-05-03T09:32:07.034Z</time></trkpt><trkpt lat="44.2404156" lon="8.2230619"><ele>991.0</ele><time>2026-05-03T09:32:08.033Z</time></trkpt><trkpt lat="44.240328" lon="8.2229958"><ele>990.75</ele><time>2026-05-03T09:32:09.034Z</time></trkpt><trkpt lat="44.2402473" lon="8.2228939"><ele>990.5</ele><time>2026-05-03T09:32:10.034Z</time></trkpt><trkpt lat="44.2401884" lon="8.222753"><ele>990.25</ele><time>2026-05-03T09:32:11.034Z</time></trkpt><trkpt lat="44.2401538" lon="8.2225809"><ele>990.0</ele><time>2026-05-03T09:32:12.034Z</time></trkpt><trkpt lat="44.2401299" lon="8.2224062"><ele>989.0</ele><time>2026-05-03T09:32:13.034Z</time></trkpt><trkpt lat="44.2401034" lon="8.2222421"><ele>988.0</ele><time>2026-05-03T09:32:14.034Z</time></trkpt><trkpt lat="44.2400765" lon="8.2220881"><ele>987.0</ele><time>2026-05-03T09:32:15.033Z</time></trkpt><trkpt lat="44.2400418" lon="8.2219339"><ele>986.0</ele><time>2026-05-03T09:32:16.034Z</time></trkpt><trkpt lat="44.2400061" lon="8.2217773"><ele>986.0</ele><time>2026-05-03T09:32:17.034Z</time></trkpt><trkpt lat="44.2399647" lon="8.2216142"><ele>986.0</ele><time>2026-05-03T09:32:18.034Z</time></trkpt><trkpt lat="44.2399194" lon="8.2214565"><ele>986.0</ele><time>2026-05-03T09:32:19.034Z</time></trkpt><trkpt lat="44.2398623" lon="8.2212915"><ele>986.0</ele><time>2026-05-03T09:32:20.034Z</time></trkpt><trkpt lat="44.2398034" lon="8.2211445"><ele>985.25</ele><time>2026-05-03T09:32:21.034Z</time></trkpt><trkpt lat="44.2397333" lon="8.2210147"><ele>984.5</ele><time>2026-05-03T09:32:22.034Z</time></trkpt><trkpt lat="44.2396396" lon="8.2208989"><ele>983.75</ele><time>2026-05-03T09:32:23.033Z</time></trkpt><trkpt lat="44.2395199" lon="8.2208013"><ele>983.0</ele><time>2026-05-03T09:32:24.034Z</time></trkpt><trkpt lat="44.2393899" lon="8.2207232"><ele>983.0</ele><time>2026-05-03T09:32:25.034Z</time></trkpt><trkpt lat="44.239255" lon="8.2206721"><ele>983.0</ele><time>2026-05-03T09:32:26.034Z</time></trkpt><trkpt lat="44.2391249" lon="8.2206465"><ele>983.0</ele><time>2026-05-03T09:32:27.034Z</time></trkpt><trkpt lat="44.2390016" lon="8.2206423"><ele>983.0</ele><time>2026-05-03T09:32:28.034Z</time></trkpt><trkpt lat="44.2388766" lon="8.2206372"><ele>980.5999999999999</ele><time>2026-05-03T09:32:29.034Z</time></trkpt><trkpt lat="44.2387543" lon="8.2206318"><ele>978.1999999999999</ele><time>2026-05-03T09:32:30.033Z</time></trkpt><trkpt lat="44.2386427" lon="8.2206127"><ele>975.8</ele><time>2026-05-03T09:32:31.033Z</time></trkpt><trkpt lat="44.2385427" lon="8.2205883"><ele>973.4</ele><time>2026-05-03T09:32:32.033Z</time></trkpt><trkpt lat="44.2384528" lon="8.2205639"><ele>971.0</ele><time>2026-05-03T09:32:33.033Z</time></trkpt><trkpt lat="44.2383676" lon="8.2205397"><ele>971.0</ele><time>2026-05-03T09:32:34.033Z</time></trkpt><trkpt lat="44.2382876" lon="8.2205095"><ele>970.9999999999999</ele><time>2026-05-03T09:32:35.034Z</time></trkpt><trkpt lat="44.2382119" lon="8.220452"><ele>970.9999999999999</ele><time>2026-05-03T09:32:36.034Z</time></trkpt><trkpt lat="44.2381498" lon="8.2203518"><ele>971.0</ele><time>2026-05-03T09:32:37.034Z</time></trkpt><trkpt lat="44.2381004" lon="8.2202234"><ele>971.0</ele><time>2026-05-03T09:32:38.033Z</time></trkpt><trkpt lat="44.2380623" lon="8.220077"><ele>972.1999999999999</ele><time>2026-05-03T09:32:39.034Z</time></trkpt><trkpt lat="44.238018" lon="8.2199321"><ele>973.3999999999999</ele><time>2026-05-03T09:32:40.033Z</time></trkpt><trkpt lat="44.2379587" lon="8.2197902"><ele>974.6</ele><time>2026-05-03T09:32:41.034Z</time></trkpt><trkpt lat="44.237897" lon="8.2196622"><ele>975.8</ele><time>2026-05-03T09:32:42.033Z</time></trkpt><trkpt lat="44.2378468" lon="8.2195378"><ele>977.0</ele><time>2026-05-03T09:32:43.034Z</time></trkpt><trkpt lat="44.2378072" lon="8.2193894"><ele>978.5</ele><time>2026-05-03T09:32:44.034Z</time></trkpt><trkpt lat="44.2377805" lon="8.2192269"><ele>980.0</ele><time>2026-05-03T09:32:45.034Z</time></trkpt><trkpt lat="44.2377665" lon="8.2190525"><ele>981.5</ele><time>2026-05-03T09:32:46.034Z</time></trkpt><trkpt lat="44.2377546" lon="8.2188653"><ele>983.0</ele><time>2026-05-03T09:32:47.035Z</time></trkpt><trkpt lat="44.2377433" lon="8.2186857"><ele>984.5</ele><time>2026-05-03T09:32:48.035Z</time></trkpt><trkpt lat="44.2377274" lon="8.2185067"><ele>986.0</ele><time>2026-05-03T09:32:49.035Z</time></trkpt><trkpt lat="44.2377131" lon="8.2183354"><ele>987.5</ele><time>2026-05-03T09:32:50.035Z</time></trkpt><trkpt lat="44.2377085" lon="8.2181669"><ele>989.0</ele><time>2026-05-03T09:32:51.035Z</time></trkpt><trkpt lat="44.2377153" lon="8.2179915"><ele>990.0</ele><time>2026-05-03T09:32:52.035Z</time></trkpt><trkpt lat="44.2377424" lon="8.2178182"><ele>991.0</ele><time>2026-05-03T09:32:53.035Z</time></trkpt><trkpt lat="44.2378025" lon="8.2176523"><ele>992.0</ele><time>2026-05-03T09:32:54.035Z</time></trkpt><trkpt lat="44.2378858" lon="8.2175108"><ele>993.0</ele><time>2026-05-03T09:32:55.035Z</time></trkpt><trkpt lat="44.2379889" lon="8.2173884"><ele>991.25</ele><time>2026-05-03T09:32:56.034Z</time></trkpt><trkpt lat="44.2381027" lon="8.2172668"><ele>989.5</ele><time>2026-05-03T09:32:57.035Z</time></trkpt><trkpt lat="44.2381968" lon="8.2171509"><ele>987.75</ele><time>2026-05-03T09:32:58.034Z</time></trkpt><trkpt lat="44.2382718" lon="8.2170306"><ele>986.0</ele><time>2026-05-03T09:32:59.035Z</time></trkpt><trkpt lat="44.2383307" lon="8.2169095"><ele>986.0</ele><time>2026-05-03T09:33:00.034Z</time></trkpt><trkpt lat="44.238369" lon="8.2167751"><ele>985.9999999999999</ele><time>2026-05-03T09:33:01.034Z</time></trkpt><trkpt lat="44.2383885" lon="8.2166197"><ele>985.9999999999999</ele><time>2026-05-03T09:33:02.035Z</time></trkpt><trkpt lat="44.238388" lon="8.216468"><ele>986.0</ele><time>2026-05-03T09:33:03.035Z</time></trkpt><trkpt lat="44.238389" lon="8.216329"><ele>986.0</ele><time>2026-05-03T09:33:04.034Z</time></trkpt><trkpt lat="44.238398" lon="8.216209"><ele>987.8333333333334</ele><time>2026-05-03T09:33:05.034Z</time></trkpt><trkpt lat="44.2384279" lon="8.2161202"><ele>989.6666666666667</ele><time>2026-05-03T09:33:06.034Z</time></trkpt><trkpt lat="44.2384838" lon="8.2160595"><ele>991.5</ele><time>2026-05-03T09:33:07.034Z</time></trkpt><trkpt lat="44.2385632" lon="8.2160361"><ele>993.3333333333333</ele><time>2026-05-03T09:33:08.035Z</time></trkpt><trkpt lat="44.2386622" lon="8.2160546"><ele>995.1666666666666</ele><time>2026-05-03T09:33:09.035Z</time></trkpt><trkpt lat="44.238764" lon="8.2161121"><ele>997.0</ele><time>2026-05-03T09:33:10.034Z</time></trkpt><trkpt lat="44.2388566" lon="8.2161666"><ele>997.0</ele><time>2026-05-03T09:33:11.035Z</time></trkpt><trkpt lat="44.2389622" lon="8.2162023"><ele>997.0</ele><time>2026-05-03T09:33:12.035Z</time></trkpt><trkpt lat="44.2390756" lon="8.2161927"><ele>997.0</ele><time>2026-05-03T09:33:13.034Z</time></trkpt><trkpt lat="44.2392047" lon="8.2161367"><ele>997.0</ele><time>2026-05-03T09:33:14.035Z</time></trkpt><trkpt lat="44.239316" lon="8.2160868"><ele>997.0</ele><time>2026-05-03T09:33:15.035Z</time></trkpt><trkpt lat="44.2394235" lon="8.2160509"><ele>997.0</ele><time>2026-05-03T09:33:16.035Z</time></trkpt><trkpt lat="44.2395161" lon="8.2160441"><ele>997.0</ele><time>2026-05-03T09:33:17.035Z</time></trkpt><trkpt lat="44.2396063" lon="8.2160527"><ele>997.0</ele><time>2026-05-03T09:33:18.035Z</time></trkpt><trkpt lat="44.2396899" lon="8.2160523"><ele>997.0</ele><time>2026-05-03T09:33:19.035Z</time></trkpt><trkpt lat="44.2397675" lon="8.2160521"><ele>993.6</ele><time>2026-05-03T09:33:20.035Z</time></trkpt><trkpt lat="44.2398332" lon="8.2160508"><ele>990.2</ele><time>2026-05-03T09:33:21.034Z</time></trkpt><trkpt lat="44.2399426" lon="8.216026"><ele>986.8</ele><time>2026-05-03T09:33:23.034Z</time></trkpt><trkpt lat="44.2400631" lon="8.215942"><ele>983.4</ele><time>2026-05-03T09:33:25.035Z</time></trkpt><trkpt lat="44.2401311" lon="8.2158592"><ele>980.0</ele><time>2026-05-03T09:33:26.034Z</time></trkpt><trkpt lat="44.2401886" lon="8.2157426"><ele>984.1666666666667</ele><time>2026-05-03T09:33:27.035Z</time></trkpt><trkpt lat="44.2402279" lon="8.2156163"><ele>988.3333333333334</ele><time>2026-05-03T09:33:28.035Z</time></trkpt><trkpt lat="44.2402527" lon="8.2154944"><ele>992.5</ele><time>2026-05-03T09:33:29.034Z</time></trkpt><trkpt lat="44.2402732" lon="8.2153893"><ele>996.6666666666667</ele><time>2026-05-03T09:33:30.035Z</time></trkpt><trkpt lat="44.2402962" lon="8.2152887"><ele>1000.8333333333334</ele><time>2026-05-03T09:33:31.034Z</time></trkpt><trkpt lat="44.2403231" lon="8.2151834"><ele>1005.0</ele><time>2026-05-03T09:33:32.035Z</time></trkpt><trkpt lat="44.2403583" lon="8.215072"><ele>1005.0000000000001</ele><time>2026-05-03T09:33:33.035Z</time></trkpt><trkpt lat="44.2403961" lon="8.2149719"><ele>1005.0</ele><time>2026-05-03T09:33:34.035Z</time></trkpt><trkpt lat="44.2404379" lon="8.2148862"><ele>1005.0000000000001</ele><time>2026-05-03T09:33:35.034Z</time></trkpt><trkpt lat="44.2404779" lon="8.2148079"><ele>1005.0000000000001</ele><time>2026-05-03T09:33:36.034Z</time></trkpt><trkpt lat="44.2405132" lon="8.2147323"><ele>1005.0</ele><time>2026-05-03T09:33:37.035Z</time></trkpt><trkpt lat="44.240548" lon="8.2146539"><ele>1005.0000000000001</ele><time>2026-05-03T09:33:38.035Z</time></trkpt><trkpt lat="44.2405886" lon="8.214578"><ele>1005.0000000000001</ele><time>2026-05-03T09:33:39.035Z</time></trkpt><trkpt lat="44.2406365" lon="8.2144968"><ele>1001.3333333333334</ele><time>2026-05-03T09:33:40.035Z</time></trkpt><trkpt lat="44.240686" lon="8.2144215"><ele>997.6666666666667</ele><time>2026-05-03T09:33:41.035Z</time></trkpt><trkpt lat="44.2407439" lon="8.2143426"><ele>994.0</ele><time>2026-05-03T09:33:42.034Z</time></trkpt><trkpt lat="44.2408067" lon="8.2142659"><ele>990.3333333333334</ele><time>2026-05-03T09:33:43.036Z</time></trkpt><trkpt lat="44.2408787" lon="8.2141885"><ele>986.6666666666667</ele><time>2026-05-03T09:33:44.034Z</time></trkpt><trkpt lat="44.2409482" lon="8.2141131"><ele>983.0</ele><time>2026-05-03T09:33:45.035Z</time></trkpt><trkpt lat="44.241019" lon="8.214043"><ele>987.4</ele><time>2026-05-03T09:33:46.034Z</time></trkpt><trkpt lat="44.2410851" lon="8.213975"><ele>991.8</ele><time>2026-05-03T09:33:47.034Z</time></trkpt><trkpt lat="44.2411558" lon="8.2139033"><ele>996.2</ele><time>2026-05-03T09:33:48.034Z</time></trkpt><trkpt lat="44.241233" lon="8.2138192"><ele>1000.6</ele><time>2026-05-03T09:33:49.035Z</time></trkpt><trkpt lat="44.2413027" lon="8.2137296"><ele>1005.0</ele><time>2026-05-03T09:33:50.035Z</time></trkpt><trkpt lat="44.241362" lon="8.2136351"><ele>1005.0</ele><time>2026-05-03T09:33:51.035Z</time></trkpt><trkpt lat="44.2414171" lon="8.2135342"><ele>1005.0</ele><time>2026-05-03T09:33:52.035Z</time></trkpt><trkpt lat="44.2414673" lon="8.2134322"><ele>1005.0</ele><time>2026-05-03T09:33:53.036Z</time></trkpt><trkpt lat="44.2415146" lon="8.2133392"><ele>1005.0</ele><time>2026-05-03T09:33:54.035Z</time></trkpt><trkpt lat="44.2415584" lon="8.2132561"><ele>1005.0</ele><time>2026-05-03T09:33:55.035Z</time></trkpt><trkpt lat="44.2416499" lon="8.2131563"><ele>1005.8</ele><time>2026-05-03T09:33:57.035Z</time></trkpt><trkpt lat="44.2417222" lon="8.2131386"><ele>1006.6</ele><time>2026-05-03T09:33:58.035Z</time></trkpt><trkpt lat="44.2418054" lon="8.2131603"><ele>1007.4000000000001</ele><time>2026-05-03T09:33:59.035Z</time></trkpt><trkpt lat="44.2419001" lon="8.2132181"><ele>1008.2</ele><time>2026-05-03T09:34:00.036Z</time></trkpt><trkpt lat="44.2419809" lon="8.2133174"><ele>1009.0</ele><time>2026-05-03T09:34:01.035Z</time></trkpt><trkpt lat="44.2420411" lon="8.2134236"><ele>1009.3333333333333</ele><time>2026-05-03T09:34:02.036Z</time></trkpt><trkpt lat="44.2420956" lon="8.2135223"><ele>1009.6666666666666</ele><time>2026-05-03T09:34:03.035Z</time></trkpt><trkpt lat="44.2421512" lon="8.2136165"><ele>1010.0</ele><time>2026-05-03T09:34:04.036Z</time></trkpt><trkpt lat="44.2422081" lon="8.21371"><ele>1010.3333333333333</ele><time>2026-05-03T09:34:05.035Z</time></trkpt><trkpt lat="44.2422645" lon="8.2137961"><ele>1010.6666666666666</ele><time>2026-05-03T09:34:06.036Z</time></trkpt><trkpt lat="44.2423184" lon="8.2138797"><ele>1011.0</ele><time>2026-05-03T09:34:07.036Z</time></trkpt><trkpt lat="44.2423734" lon="8.2139677"><ele>1006.8333333333334</ele><time>2026-05-03T09:34:08.035Z</time></trkpt><trkpt lat="44.2424245" lon="8.2140742"><ele>1002.6666666666667</ele><time>2026-05-03T09:34:09.036Z</time></trkpt><trkpt lat="44.2424687" lon="8.2141984"><ele>998.5</ele><time>2026-05-03T09:34:10.035Z</time></trkpt><trkpt lat="44.2424912" lon="8.2143241"><ele>994.3333333333334</ele><time>2026-05-03T09:34:11.036Z</time></trkpt><trkpt lat="44.2425079" lon="8.2144325"><ele>990.1666666666667</ele><time>2026-05-03T09:34:12.036Z</time></trkpt><trkpt lat="44.2425352" lon="8.2145283"><ele>986.0</ele><time>2026-05-03T09:34:13.036Z</time></trkpt><trkpt lat="44.2425706" lon="8.2146251"><ele>986.0000000000001</ele><time>2026-05-03T09:34:14.036Z</time></trkpt><trkpt lat="44.2426081" lon="8.2147263"><ele>986.0</ele><time>2026-05-03T09:34:15.035Z</time></trkpt><trkpt lat="44.2426481" lon="8.2148256"><ele>986.0</ele><time>2026-05-03T09:34:16.035Z</time></trkpt><trkpt lat="44.242687" lon="8.2149178"><ele>986.0</ele><time>2026-05-03T09:34:17.036Z</time></trkpt><trkpt lat="44.2427277" lon="8.2150042"><ele>986.0000000000001</ele><time>2026-05-03T09:34:18.035Z</time></trkpt><trkpt lat="44.2427696" lon="8.2150823"><ele>986.0</ele><time>2026-05-03T09:34:19.035Z</time></trkpt><trkpt lat="44.2428126" lon="8.2151529"><ele>983.5999999999999</ele><time>2026-05-03T09:34:20.036Z</time></trkpt><trkpt lat="44.2428622" lon="8.2152187"><ele>981.1999999999999</ele><time>2026-05-03T09:34:21.035Z</time></trkpt><trkpt lat="44.2429156" lon="8.2152745"><ele>978.8000000000001</ele><time>2026-05-03T09:34:22.036Z</time></trkpt><trkpt lat="44.2430325" lon="8.2153023"><ele>976.4000000000001</ele><time>2026-05-03T09:34:24.035Z</time></trkpt><trkpt lat="44.2431154" lon="8.2152585"><ele>974.0</ele><time>2026-05-03T09:34:25.036Z</time></trkpt><trkpt lat="44.2432176" lon="8.2151875"><ele>974.0</ele><time>2026-05-03T09:34:26.036Z</time></trkpt><trkpt lat="44.2433467" lon="8.2151212"><ele>974.0</ele><time>2026-05-03T09:34:27.035Z</time></trkpt><trkpt lat="44.2434733" lon="8.2150672"><ele>974.0</ele><time>2026-05-03T09:34:28.035Z</time></trkpt><trkpt lat="44.2436033" lon="8.2150197"><ele>974.0</ele><time>2026-05-03T09:34:29.035Z</time></trkpt><trkpt lat="44.243727" lon="8.214965"><ele>974.0</ele><time>2026-05-03T09:34:30.035Z</time></trkpt><trkpt lat="44.2438372" lon="8.2149085"><ele>974.0000000000001</ele><time>2026-05-03T09:34:31.036Z</time></trkpt><trkpt lat="44.2439395" lon="8.214855"><ele>974.0000000000001</ele><time>2026-05-03T09:34:32.036Z</time></trkpt><trkpt lat="44.2440275" lon="8.2148193"><ele>974.0</ele><time>2026-05-03T09:34:33.036Z</time></trkpt><trkpt lat="44.2441042" lon="8.2147952"><ele>974.0</ele><time>2026-05-03T09:34:34.035Z</time></trkpt><trkpt lat="44.2441707" lon="8.2147735"><ele>976.4000000000001</ele><time>2026-05-03T09:34:35.036Z</time></trkpt><trkpt lat="44.2442311" lon="8.2147376"><ele>978.8000000000001</ele><time>2026-05-03T09:34:36.036Z</time></trkpt><trkpt lat="44.2442865" lon="8.2146685"><ele>981.1999999999999</ele><time>2026-05-03T09:34:37.036Z</time></trkpt><trkpt lat="44.2443451" lon="8.2145821"><ele>983.5999999999999</ele><time>2026-05-03T09:34:38.036Z</time></trkpt><trkpt lat="44.2444163" lon="8.2144142"><ele>986.0</ele><time>2026-05-03T09:34:39.035Z</time></trkpt><trkpt lat="44.2444787" lon="8.214227"><ele>986.0</ele><time>2026-05-03T09:34:40.035Z</time></trkpt><trkpt lat="44.2445303" lon="8.2140769"><ele>985.9999999999999</ele><time>2026-05-03T09:34:41.035Z</time></trkpt><trkpt lat="44.244583" lon="8.2139957"><ele>985.9999999999999</ele><time>2026-05-03T09:34:42.035Z</time></trkpt><trkpt lat="44.2446596" lon="8.2139853"><ele>986.0</ele><time>2026-05-03T09:34:43.036Z</time></trkpt><trkpt lat="44.2447539" lon="8.2140277"><ele>986.0</ele><time>2026-05-03T09:34:44.035Z</time></trkpt><trkpt lat="44.2448629" lon="8.2141167"><ele>982.5999999999999</ele><time>2026-05-03T09:34:45.035Z</time></trkpt><trkpt lat="44.2449244" lon="8.2141902"><ele>979.1999999999999</ele><time>2026-05-03T09:34:46.035Z</time></trkpt><trkpt lat="44.2450191" lon="8.2142408"><ele>975.8000000000001</ele><time>2026-05-03T09:34:47.035Z</time></trkpt><trkpt lat="44.2451285" lon="8.2142384"><ele>972.4000000000001</ele><time>2026-05-03T09:34:48.036Z</time></trkpt><trkpt lat="44.2452289" lon="8.2142085"><ele>969.0</ele><time>2026-05-03T09:34:49.036Z</time></trkpt><trkpt lat="44.2453238" lon="8.2141556"><ele>969.0</ele><time>2026-05-03T09:34:50.036Z</time></trkpt><trkpt lat="44.2454017" lon="8.2140624"><ele>969.0</ele><time>2026-05-03T09:34:51.035Z</time></trkpt><trkpt lat="44.2454734" lon="8.2139284"><ele>969.0</ele><time>2026-05-03T09:34:52.036Z</time></trkpt><trkpt lat="44.2455214" lon="8.2137726"><ele>969.0</ele><time>2026-05-03T09:34:53.036Z</time></trkpt><trkpt lat="44.2455628" lon="8.2136251"><ele>974.5</ele><time>2026-05-03T09:34:54.037Z</time></trkpt><trkpt lat="44.2456155" lon="8.2134982"><ele>980.0</ele><time>2026-05-03T09:34:55.036Z</time></trkpt><trkpt lat="44.2456927" lon="8.2133992"><ele>985.5</ele><time>2026-05-03T09:34:56.036Z</time></trkpt><trkpt lat="44.2458094" lon="8.213348"><ele>991.0</ele><time>2026-05-03T09:34:57.036Z</time></trkpt><trkpt lat="44.2459408" lon="8.2133543"><ele>991.0</ele><time>2026-05-03T09:34:58.037Z</time></trkpt><trkpt lat="44.2460803" lon="8.2134057"><ele>991.0</ele><time>2026-05-03T09:34:59.037Z</time></trkpt><trkpt lat="44.2462053" lon="8.2134453"><ele>991.0</ele><time>2026-05-03T09:35:00.037Z</time></trkpt><trkpt lat="44.2463239" lon="8.2134721"><ele>991.0</ele><time>2026-05-03T09:35:01.036Z</time></trkpt><trkpt lat="44.2464213" lon="8.213513"><ele>985.8</ele><time>2026-05-03T09:35:02.036Z</time></trkpt><trkpt lat="44.2465035" lon="8.2135588"><ele>980.5999999999999</ele><time>2026-05-03T09:35:03.037Z</time></trkpt><trkpt lat="44.246574" lon="8.2135987"><ele>975.4</ele><time>2026-05-03T09:35:04.037Z</time></trkpt><trkpt lat="44.2466413" lon="8.2135999"><ele>970.2</ele><time>2026-05-03T09:35:05.037Z</time></trkpt><trkpt lat="44.2467465" lon="8.2134634"><ele>965.0</ele><time>2026-05-03T09:35:07.037Z</time></trkpt><trkpt lat="44.2467819" lon="8.2133256"><ele>963.75</ele><time>2026-05-03T09:35:08.037Z</time></trkpt><trkpt lat="44.2467836" lon="8.2131307"><ele>962.5</ele><time>2026-05-03T09:35:09.037Z</time></trkpt><trkpt lat="44.2467688" lon="8.2129394"><ele>961.25</ele><time>2026-05-03T09:35:10.037Z</time></trkpt><trkpt lat="44.2467423" lon="8.2127584"><ele>960.0</ele><time>2026-05-03T09:35:11.036Z</time></trkpt><trkpt lat="44.2466932" lon="8.2126068"><ele>960.0</ele><time>2026-05-03T09:35:12.036Z</time></trkpt><trkpt lat="44.2466177" lon="8.212478"><ele>960.0</ele><time>2026-05-03T09:35:13.037Z</time></trkpt><trkpt lat="44.2465165" lon="8.2123651"><ele>960.0</ele><time>2026-05-03T09:35:14.036Z</time></trkpt><trkpt lat="44.2464152" lon="8.2122548"><ele>960.0</ele><time>2026-05-03T09:35:15.037Z</time></trkpt><trkpt lat="44.2463184" lon="8.2121538"><ele>969.5</ele><time>2026-05-03T09:35:16.036Z</time></trkpt><trkpt lat="44.2462271" lon="8.2120497"><ele>979.0</ele><time>2026-05-03T09:35:17.036Z</time></trkpt><trkpt lat="44.2461404" lon="8.2119404"><ele>988.5</ele><time>2026-05-03T09:35:18.037Z</time></trkpt><trkpt lat="44.2460596" lon="8.2118247"><ele>998.0</ele><time>2026-05-03T09:35:19.037Z</time></trkpt><trkpt lat="44.2460006" lon="8.2116977"><ele>998.0</ele><time>2026-05-03T09:35:20.036Z</time></trkpt><trkpt lat="44.2459585" lon="8.2115618"><ele>998.0</ele><time>2026-05-03T09:35:21.037Z</time></trkpt><trkpt lat="44.2459275" lon="8.2114133"><ele>998.0</ele><time>2026-05-03T09:35:22.037Z</time></trkpt><trkpt lat="44.2459026" lon="8.2112589"><ele>998.0</ele><time>2026-05-03T09:35:23.036Z</time></trkpt><trkpt lat="44.245877" lon="8.2111089"><ele>998.0</ele><time>2026-05-03T09:35:24.036Z</time></trkpt><trkpt lat="44.2458519" lon="8.210954"><ele>996.25</ele><time>2026-05-03T09:35:25.037Z</time></trkpt><trkpt lat="44.2458252" lon="8.2107895"><ele>994.5</ele><time>2026-05-03T09:35:26.037Z</time></trkpt><trkpt lat="44.2457937" lon="8.2106017"><ele>992.75</ele><time>2026-05-03T09:35:27.037Z</time></trkpt><trkpt lat="44.245758" lon="8.2103983"><ele>991.0</ele><time>2026-05-03T09:35:28.036Z</time></trkpt><trkpt lat="44.2457207" lon="8.2101971"><ele>991.0</ele><time>2026-05-03T09:35:29.037Z</time></trkpt><trkpt lat="44.2456882" lon="8.2099932"><ele>991.0</ele><time>2026-05-03T09:35:30.037Z</time></trkpt><trkpt lat="44.2456597" lon="8.2098372"><ele>991.0</ele><time>2026-05-03T09:35:31.037Z</time></trkpt><trkpt lat="44.2456413" lon="8.209702"><ele>991.0</ele><time>2026-05-03T09:35:32.037Z</time></trkpt><trkpt lat="44.2456405" lon="8.2095778"><ele>996.1999999999999</ele><time>2026-05-03T09:35:33.037Z</time></trkpt><trkpt lat="44.2456539" lon="8.2094648"><ele>1001.3999999999999</ele><time>2026-05-03T09:35:34.036Z</time></trkpt><trkpt lat="44.2456942" lon="8.209362"><ele>1006.6</ele><time>2026-05-03T09:35:35.037Z</time></trkpt><trkpt lat="44.2457659" lon="8.2092727"><ele>1011.8</ele><time>2026-05-03T09:35:36.036Z</time></trkpt><trkpt lat="44.2458763" lon="8.2092335"><ele>1017.0</ele><time>2026-05-03T09:35:37.037Z</time></trkpt><trkpt lat="44.2459918" lon="8.2092373"><ele>1017.0</ele><time>2026-05-03T09:35:38.036Z</time></trkpt><trkpt lat="44.2461296" lon="8.209258"><ele>1017.0</ele><time>2026-05-03T09:35:39.037Z</time></trkpt><trkpt lat="44.2462875" lon="8.2092756"><ele>1017.0</ele><time>2026-05-03T09:35:40.037Z</time></trkpt><trkpt lat="44.246435" lon="8.2092808"><ele>1017.0</ele><time>2026-05-03T09:35:41.037Z</time></trkpt><trkpt lat="44.2465759" lon="8.2092915"><ele>1015.25</ele><time>2026-05-03T09:35:42.036Z</time></trkpt><trkpt lat="44.2467245" lon="8.2093218"><ele>1013.5</ele><time>2026-05-03T09:35:43.036Z</time></trkpt><trkpt lat="44.2468636" lon="8.2093449"><ele>1011.75</ele><time>2026-05-03T09:35:44.037Z</time></trkpt><trkpt lat="44.2470093" lon="8.2093483"><ele>1010.0</ele><time>2026-05-03T09:35:45.036Z</time></trkpt><trkpt lat="44.247147" lon="8.2093378"><ele>1010.0</ele><time>2026-05-03T09:35:46.036Z</time></trkpt><trkpt lat="44.2472806" lon="8.2093187"><ele>1010.0</ele><time>2026-05-03T09:35:47.036Z</time></trkpt><trkpt lat="44.2474113" lon="8.2092858"><ele>1010.0</ele><time>2026-05-03T09:35:48.036Z</time></trkpt><trkpt lat="44.2475357" lon="8.2092416"><ele>1010.0</ele><time>2026-05-03T09:35:49.037Z</time></trkpt><trkpt lat="44.24765" lon="8.2091846"><ele>1009.6666666666667</ele><time>2026-05-03T09:35:50.037Z</time></trkpt><trkpt lat="44.2477454" lon="8.2091155"><ele>1009.3333333333334</ele><time>2026-05-03T09:35:51.037Z</time></trkpt><trkpt lat="44.2478144" lon="8.2090447"><ele>1009.0</ele><time>2026-05-03T09:35:52.036Z</time></trkpt><trkpt lat="44.2478551" lon="8.2089683"><ele>1008.6666666666667</ele><time>2026-05-03T09:35:53.037Z</time></trkpt><trkpt lat="44.2478595" lon="8.2088753"><ele>1008.3333333333334</ele><time>2026-05-03T09:35:54.037Z</time></trkpt><trkpt lat="44.2478178" lon="8.2087829"><ele>1008.0</ele><time>2026-05-03T09:35:55.036Z</time></trkpt><trkpt lat="44.2477444" lon="8.208711"><ele>1008.0</ele><time>2026-05-03T09:35:56.037Z</time></trkpt><trkpt lat="44.2476538" lon="8.2086574"><ele>1008.0</ele><time>2026-05-03T09:35:57.037Z</time></trkpt><trkpt lat="44.2475468" lon="8.2086218"><ele>1008.0</ele><time>2026-05-03T09:35:58.037Z</time></trkpt><trkpt lat="44.2474522" lon="8.2085788"><ele>1008.0</ele><time>2026-05-03T09:35:59.037Z</time></trkpt><trkpt lat="44.2473729" lon="8.2085067"><ele>1008.0</ele><time>2026-05-03T09:36:00.037Z</time></trkpt><trkpt lat="44.2473264" lon="8.208392"><ele>1008.0</ele><time>2026-05-03T09:36:01.036Z</time></trkpt><trkpt lat="44.2473136" lon="8.2082564"><ele>1008.0</ele><time>2026-05-03T09:36:02.037Z</time></trkpt><trkpt lat="44.2473199" lon="8.208117"><ele>1008.0</ele><time>2026-05-03T09:36:03.038Z</time></trkpt><trkpt lat="44.2473399" lon="8.2079904"><ele>1008.0</ele><time>2026-05-03T09:36:04.038Z</time></trkpt><trkpt lat="44.2473768" lon="8.207898"><ele>1008.0</ele><time>2026-05-03T09:36:05.038Z</time></trkpt><trkpt lat="44.2474371" lon="8.2078218"><ele>1008.0</ele><time>2026-05-03T09:36:06.037Z</time></trkpt><trkpt lat="44.2475217" lon="8.2077649"><ele>1014.5</ele><time>2026-05-03T09:36:07.037Z</time></trkpt><trkpt lat="44.2476177" lon="8.2077454"><ele>1021.0</ele><time>2026-05-03T09:36:08.037Z</time></trkpt><trkpt lat="44.2477215" lon="8.2077213"><ele>1027.5</ele><time>2026-05-03T09:36:09.037Z</time></trkpt><trkpt lat="44.2478398" lon="8.2076836"><ele>1034.0</ele><time>2026-05-03T09:36:10.037Z</time></trkpt><trkpt lat="44.2479634" lon="8.2076315"><ele>1034.0</ele><time>2026-05-03T09:36:11.038Z</time></trkpt><trkpt lat="44.2480942" lon="8.2075748"><ele>1034.0</ele><time>2026-05-03T09:36:12.037Z</time></trkpt><trkpt lat="44.2482247" lon="8.2075225"><ele>1034.0</ele><time>2026-05-03T09:36:13.038Z</time></trkpt><trkpt lat="44.248346" lon="8.2074939"><ele>1034.0</ele><time>2026-05-03T09:36:14.038Z</time></trkpt><trkpt lat="44.2484721" lon="8.2075022"><ele>1030.4</ele><time>2026-05-03T09:36:15.037Z</time></trkpt><trkpt lat="44.2485839" lon="8.207539"><ele>1026.8000000000002</ele><time>2026-05-03T09:36:16.037Z</time></trkpt><trkpt lat="44.2486908" lon="8.2075628"><ele>1023.1999999999999</ele><time>2026-05-03T09:36:17.037Z</time></trkpt><trkpt lat="44.2487859" lon="8.2075613"><ele>1019.5999999999999</ele><time>2026-05-03T09:36:18.037Z</time></trkpt><trkpt lat="44.248848" lon="8.2075248"><ele>1016.0</ele><time>2026-05-03T09:36:19.038Z</time></trkpt><trkpt lat="44.2489083" lon="8.2074495"><ele>1016.0</ele><time>2026-05-03T09:36:20.038Z</time></trkpt><trkpt lat="44.2489511" lon="8.2073296"><ele>1016.0</ele><time>2026-05-03T09:36:21.038Z</time></trkpt><trkpt lat="44.248961" lon="8.2071701"><ele>1016.0</ele><time>2026-05-03T09:36:22.037Z</time></trkpt><trkpt lat="44.2489491" lon="8.2069873"><ele>1016.0</ele><time>2026-05-03T09:36:23.037Z</time></trkpt><trkpt lat="44.248944" lon="8.2068009"><ele>1017.4</ele><time>2026-05-03T09:36:24.038Z</time></trkpt><trkpt lat="44.2489466" lon="8.2066235"><ele>1018.8</ele><time>2026-05-03T09:36:25.038Z</time></trkpt><trkpt lat="44.2489563" lon="8.2064598"><ele>1020.1999999999999</ele><time>2026-05-03T09:36:26.038Z</time></trkpt><trkpt lat="44.2489789" lon="8.206322"><ele>1021.5999999999999</ele><time>2026-05-03T09:36:27.037Z</time></trkpt><trkpt lat="44.2490342" lon="8.2062058"><ele>1023.0</ele><time>2026-05-03T09:36:28.038Z</time></trkpt><trkpt lat="44.249122" lon="8.2060914"><ele>1023.0</ele><time>2026-05-03T09:36:29.037Z</time></trkpt><trkpt lat="44.249228" lon="8.2059616"><ele>1023.0</ele><time>2026-05-03T09:36:30.037Z</time></trkpt><trkpt lat="44.249321" lon="8.2058407"><ele>1023.0</ele><time>2026-05-03T09:36:31.038Z</time></trkpt><trkpt lat="44.2494085" lon="8.205729"><ele>1023.0</ele><time>2026-05-03T09:36:32.038Z</time></trkpt><trkpt lat="44.2494805" lon="8.2056271"><ele>1025.6</ele><time>2026-05-03T09:36:33.037Z</time></trkpt><trkpt lat="44.2495526" lon="8.205542"><ele>1028.1999999999998</ele><time>2026-05-03T09:36:34.037Z</time></trkpt><trkpt lat="44.249651" lon="8.2054776"><ele>1030.8</ele><time>2026-05-03T09:36:35.038Z</time></trkpt><trkpt lat="44.2497545" lon="8.2054446"><ele>1033.3999999999999</ele><time>2026-05-03T09:36:36.038Z</time></trkpt><trkpt lat="44.2498881" lon="8.2054526"><ele>1036.0</ele><time>2026-05-03T09:36:37.038Z</time></trkpt><trkpt lat="44.2500422" lon="8.2055112"><ele>1036.0</ele><time>2026-05-03T09:36:38.037Z</time></trkpt><trkpt lat="44.250197" lon="8.2055916"><ele>1036.0</ele><time>2026-05-03T09:36:39.038Z</time></trkpt><trkpt lat="44.2503505" lon="8.2056908"><ele>1036.0</ele><time>2026-05-03T09:36:40.038Z</time></trkpt><trkpt lat="44.2505085" lon="8.2058146"><ele>1032.75</ele><time>2026-05-03T09:36:41.038Z</time></trkpt><trkpt lat="44.2506476" lon="8.2059361"><ele>1029.5</ele><time>2026-05-03T09:36:42.037Z</time></trkpt><trkpt lat="44.2507571" lon="8.2060367"><ele>1026.25</ele><time>2026-05-03T09:36:43.037Z</time></trkpt><trkpt lat="44.2508835" lon="8.2061461"><ele>1023.0</ele><time>2026-05-03T09:36:44.038Z</time></trkpt><trkpt lat="44.2510012" lon="8.2062489"><ele>1023.0</ele><time>2026-05-03T09:36:45.038Z</time></trkpt><trkpt lat="44.2511593" lon="8.2063798"><ele>1023.0</ele><time>2026-05-03T09:36:46.038Z</time></trkpt><trkpt lat="44.2512845" lon="8.2064953"><ele>1023.0</ele><time>2026-05-03T09:36:47.038Z</time></trkpt><trkpt lat="44.2513792" lon="8.2065917"><ele>1022.0</ele><time>2026-05-03T09:36:48.037Z</time></trkpt><trkpt lat="44.2514678" lon="8.2066913"><ele>1021.0</ele><time>2026-05-03T09:36:49.037Z</time></trkpt><trkpt lat="44.2515476" lon="8.2067853"><ele>1020.0</ele><time>2026-05-03T09:36:50.038Z</time></trkpt><trkpt lat="44.2516375" lon="8.2068721"><ele>1019.0</ele><time>2026-05-03T09:36:51.038Z</time></trkpt><trkpt lat="44.2517421" lon="8.2069549"><ele>1018.0</ele><time>2026-05-03T09:36:52.038Z</time></trkpt><trkpt lat="44.2518507" lon="8.2070527"><ele>1018.0</ele><time>2026-05-03T09:36:53.038Z</time></trkpt><trkpt lat="44.2519526" lon="8.2071736"><ele>1018.0</ele><time>2026-05-03T09:36:54.038Z</time></trkpt><trkpt lat="44.2520404" lon="8.2073122"><ele>1018.0</ele><time>2026-05-03T09:36:55.038Z</time></trkpt><trkpt lat="44.2521146" lon="8.20744"><ele>1018.0</ele><time>2026-05-03T09:36:56.037Z</time></trkpt><trkpt lat="44.2521723" lon="8.2075446"><ele>1012.8333333333333</ele><time>2026-05-03T09:36:57.037Z</time></trkpt><trkpt lat="44.252224" lon="8.2076324"><ele>1007.6666666666666</ele><time>2026-05-03T09:36:58.037Z</time></trkpt><trkpt lat="44.2522833" lon="8.2077061"><ele>1002.5</ele><time>2026-05-03T09:36:59.038Z</time></trkpt><trkpt lat="44.2523461" lon="8.207748"><ele>997.3333333333333</ele><time>2026-05-03T09:37:00.038Z</time></trkpt><trkpt lat="44.2524124" lon="8.2077661"><ele>992.1666666666666</ele><time>2026-05-03T09:37:01.038Z</time></trkpt><trkpt lat="44.252503" lon="8.2077245"><ele>987.0</ele><time>2026-05-03T09:37:02.038Z</time></trkpt><trkpt lat="44.252605" lon="8.2076397"><ele>987.0</ele><time>2026-05-03T09:37:03.038Z</time></trkpt><trkpt lat="44.2527048" lon="8.2075269"><ele>987.0</ele><time>2026-05-03T09:37:04.037Z</time></trkpt><trkpt lat="44.2527956" lon="8.2073864"><ele>987.0</ele><time>2026-05-03T09:37:05.038Z</time></trkpt><trkpt lat="44.2528768" lon="8.207236"><ele>987.0</ele><time>2026-05-03T09:37:06.038Z</time></trkpt><trkpt lat="44.2529318" lon="8.2070727"><ele>988.0</ele><time>2026-05-03T09:37:07.038Z</time></trkpt><trkpt lat="44.2529769" lon="8.2069365"><ele>989.0</ele><time>2026-05-03T09:37:08.037Z</time></trkpt><trkpt lat="44.253021" lon="8.2068271"><ele>990.0</ele><time>2026-05-03T09:37:09.039Z</time></trkpt><trkpt lat="44.2530618" lon="8.2067365"><ele>991.0</ele><time>2026-05-03T09:37:10.038Z</time></trkpt><trkpt lat="44.2531099" lon="8.2066601"><ele>992.0</ele><time>2026-05-03T09:37:11.039Z</time></trkpt><trkpt lat="44.253169" lon="8.2066089"><ele>993.0</ele><time>2026-05-03T09:37:12.039Z</time></trkpt><trkpt lat="44.2532503" lon="8.2066026"><ele>993.0</ele><time>2026-05-03T09:37:13.039Z</time></trkpt><trkpt lat="44.2533422" lon="8.2066245"><ele>993.0</ele><time>2026-05-03T09:37:14.038Z</time></trkpt><trkpt lat="44.2534445" lon="8.206689"><ele>993.0</ele><time>2026-05-03T09:37:15.038Z</time></trkpt><trkpt lat="44.2535325" lon="8.2067455"><ele>993.0</ele><time>2026-05-03T09:37:16.039Z</time></trkpt><trkpt lat="44.2536091" lon="8.2067727"><ele>993.0</ele><time>2026-05-03T09:37:17.039Z</time></trkpt><trkpt lat="44.2536865" lon="8.2067592"><ele>993.0</ele><time>2026-05-03T09:37:18.039Z</time></trkpt><trkpt lat="44.2537575" lon="8.2067083"><ele>993.0</ele><time>2026-05-03T09:37:19.038Z</time></trkpt><trkpt lat="44.2538377" lon="8.2066405"><ele>993.0</ele><time>2026-05-03T09:37:20.038Z</time></trkpt><trkpt lat="44.2539178" lon="8.2065642"><ele>993.0</ele><time>2026-05-03T09:37:21.038Z</time></trkpt><trkpt lat="44.2539974" lon="8.2065039"><ele>993.0</ele><time>2026-05-03T09:37:22.038Z</time></trkpt><trkpt lat="44.2540747" lon="8.2064591"><ele>993.0</ele><time>2026-05-03T09:37:23.039Z</time></trkpt><trkpt lat="44.2541522" lon="8.2064266"><ele>990.5999999999999</ele><time>2026-05-03T09:37:24.039Z</time></trkpt><trkpt lat="44.2542363" lon="8.2064104"><ele>988.1999999999999</ele><time>2026-05-03T09:37:25.038Z</time></trkpt><trkpt lat="44.2543307" lon="8.206425"><ele>985.8</ele><time>2026-05-03T09:37:26.039Z</time></trkpt><trkpt lat="44.2544259" lon="8.2064868"><ele>983.4</ele><time>2026-05-03T09:37:27.038Z</time></trkpt><trkpt lat="44.2545129" lon="8.2065997"><ele>981.0</ele><time>2026-05-03T09:37:28.039Z</time></trkpt><trkpt lat="44.25457" lon="8.2067447"><ele>981.0</ele><time>2026-05-03T09:37:29.039Z</time></trkpt><trkpt lat="44.2546117" lon="8.2068917"><ele>981.0</ele><time>2026-05-03T09:37:30.039Z</time></trkpt><trkpt lat="44.2546485" lon="8.2070193"><ele>981.0</ele><time>2026-05-03T09:37:31.039Z</time></trkpt><trkpt lat="44.254684" lon="8.2071191"><ele>981.0</ele><time>2026-05-03T09:37:32.038Z</time></trkpt><trkpt lat="44.2547174" lon="8.2072143"><ele>981.0</ele><time>2026-05-03T09:37:33.039Z</time></trkpt><trkpt lat="44.254752" lon="8.2073018"><ele>981.0</ele><time>2026-05-03T09:37:34.038Z</time></trkpt><trkpt lat="44.2547989" lon="8.2073736"><ele>979.3333333333334</ele><time>2026-05-03T09:37:35.039Z</time></trkpt><trkpt lat="44.2548635" lon="8.2074276"><ele>977.6666666666667</ele><time>2026-05-03T09:37:36.038Z</time></trkpt><trkpt lat="44.2549391" lon="8.2074657"><ele>976.0</ele><time>2026-05-03T09:37:37.038Z</time></trkpt><trkpt lat="44.2550343" lon="8.2074764"><ele>974.3333333333334</ele><time>2026-05-03T09:37:38.039Z</time></trkpt><trkpt lat="44.2551325" lon="8.2074793"><ele>972.6666666666667</ele><time>2026-05-03T09:37:39.038Z</time></trkpt><trkpt lat="44.2552152" lon="8.2074837"><ele>971.0</ele><time>2026-05-03T09:37:40.039Z</time></trkpt><trkpt lat="44.2552833" lon="8.2075063"><ele>971.0000000000001</ele><time>2026-05-03T09:37:41.039Z</time></trkpt><trkpt lat="44.2553422" lon="8.2075542"><ele>971.0</ele><time>2026-05-03T09:37:42.039Z</time></trkpt><trkpt lat="44.2553959" lon="8.207645"><ele>971.0</ele><time>2026-05-03T09:37:43.039Z</time></trkpt><trkpt lat="44.2553959" lon="8.2077679"><ele>971.0</ele><time>2026-05-03T09:37:44.039Z</time></trkpt><trkpt lat="44.2553861" lon="8.2078841"><ele>971.0000000000001</ele><time>2026-05-03T09:37:45.038Z</time></trkpt><trkpt lat="44.2553632" lon="8.2079945"><ele>971.0</ele><time>2026-05-03T09:37:46.038Z</time></trkpt><trkpt lat="44.2553361" lon="8.2080855"><ele>967.4</ele><time>2026-05-03T09:37:47.038Z</time></trkpt><trkpt lat="44.2553105" lon="8.2082301"><ele>963.8</ele><time>2026-05-03T09:37:49.038Z</time></trkpt><trkpt lat="44.2553229" lon="8.2083846"><ele>960.1999999999999</ele><time>2026-05-03T09:37:51.038Z</time></trkpt><trkpt lat="44.2553623" lon="8.2084679"><ele>956.5999999999999</ele><time>2026-05-03T09:37:52.039Z</time></trkpt><trkpt lat="44.2554359" lon="8.2085183"><ele>953.0</ele><time>2026-05-03T09:37:53.039Z</time></trkpt><trkpt lat="44.2555332" lon="8.2085318"><ele>955.0</ele><time>2026-05-03T09:37:54.038Z</time></trkpt><trkpt lat="44.2556475" lon="8.2085004"><ele>957.0</ele><time>2026-05-03T09:37:55.039Z</time></trkpt><trkpt lat="44.2557733" lon="8.2084397"><ele>959.0</ele><time>2026-05-03T09:37:56.038Z</time></trkpt><trkpt lat="44.255902" lon="8.2083625"><ele>961.0</ele><time>2026-05-03T09:37:57.038Z</time></trkpt><trkpt lat="44.2560385" lon="8.2082709"><ele>961.0</ele><time>2026-05-03T09:37:58.038Z</time></trkpt><trkpt lat="44.2561826" lon="8.2081751"><ele>961.0</ele><time>2026-05-03T09:37:59.039Z</time></trkpt><trkpt lat="44.2563573" lon="8.2080821"><ele>961.0</ele><time>2026-05-03T09:38:00.038Z</time></trkpt><trkpt lat="44.256549" lon="8.2080091"><ele>966.5</ele><time>2026-05-03T09:38:01.038Z</time></trkpt><trkpt lat="44.2567018" lon="8.2079647"><ele>972.0</ele><time>2026-05-03T09:38:02.038Z</time></trkpt><trkpt lat="44.256837" lon="8.2079149"><ele>977.5</ele><time>2026-05-03T09:38:03.039Z</time></trkpt><trkpt lat="44.2569392" lon="8.2078668"><ele>983.0</ele><time>2026-05-03T09:38:04.039Z</time></trkpt><trkpt lat="44.257017" lon="8.20782"><ele>983.0</ele><time>2026-05-03T09:38:05.039Z</time></trkpt><trkpt lat="44.2570853" lon="8.2077739"><ele>983.0</ele><time>2026-05-03T09:38:06.039Z</time></trkpt><trkpt lat="44.2571658" lon="8.2077379"><ele>983.0</ele><time>2026-05-03T09:38:07.039Z</time></trkpt><trkpt lat="44.2572746" lon="8.2077418"><ele>983.0</ele><time>2026-05-03T09:38:08.039Z</time></trkpt><trkpt lat="44.2574161" lon="8.2078236"><ele>983.0</ele><time>2026-05-03T09:38:09.038Z</time></trkpt><trkpt lat="44.2575437" lon="8.207984"><ele>981.75</ele><time>2026-05-03T09:38:10.039Z</time></trkpt><trkpt lat="44.2576373" lon="8.2081397"><ele>980.5</ele><time>2026-05-03T09:38:11.039Z</time></trkpt><trkpt lat="44.2577181" lon="8.2083137"><ele>979.25</ele><time>2026-05-03T09:38:12.039Z</time></trkpt><trkpt lat="44.2577831" lon="8.2084882"><ele>978.0</ele><time>2026-05-03T09:38:13.038Z</time></trkpt><trkpt lat="44.2578241" lon="8.2086579"><ele>972.0</ele><time>2026-05-03T09:38:14.039Z</time></trkpt><trkpt lat="44.2578574" lon="8.2088353"><ele>966.0</ele><time>2026-05-03T09:38:15.039Z</time></trkpt><trkpt lat="44.2578839" lon="8.2090191"><ele>960.0</ele><time>2026-05-03T09:38:16.04Z</time></trkpt><trkpt lat="44.2578858" lon="8.2091972"><ele>954.0</ele><time>2026-05-03T09:38:17.04Z</time></trkpt><trkpt lat="44.2578771" lon="8.2093642"><ele>949.25</ele><time>2026-05-03T09:38:18.04Z</time></trkpt><trkpt lat="44.2578369" lon="8.2095217"><ele>944.5</ele><time>2026-05-03T09:38:19.04Z</time></trkpt><trkpt lat="44.2577697" lon="8.2096607"><ele>939.75</ele><time>2026-05-03T09:38:20.04Z</time></trkpt><trkpt lat="44.2576857" lon="8.2097724"><ele>935.0</ele><time>2026-05-03T09:38:21.04Z</time></trkpt><trkpt lat="44.2576197" lon="8.2099005"><ele>935.0</ele><time>2026-05-03T09:38:22.04Z</time></trkpt><trkpt lat="44.2575808" lon="8.2100417"><ele>935.0</ele><time>2026-05-03T09:38:23.04Z</time></trkpt><trkpt lat="44.2575614" lon="8.2102176"><ele>935.0</ele><time>2026-05-03T09:38:24.04Z</time></trkpt><trkpt lat="44.2575684" lon="8.210398"><ele>935.0</ele><time>2026-05-03T09:38:25.039Z</time></trkpt><trkpt lat="44.2576043" lon="8.2105695"><ele>934.0</ele><time>2026-05-03T09:38:26.04Z</time></trkpt><trkpt lat="44.2576536" lon="8.2107408"><ele>933.0</ele><time>2026-05-03T09:38:27.039Z</time></trkpt><trkpt lat="44.2577083" lon="8.2109049"><ele>932.0</ele><time>2026-05-03T09:38:28.04Z</time></trkpt><trkpt lat="44.2577644" lon="8.2110613"><ele>931.0</ele><time>2026-05-03T09:38:29.039Z</time></trkpt><trkpt lat="44.2578159" lon="8.2112034"><ele>931.0</ele><time>2026-05-03T09:38:30.039Z</time></trkpt><trkpt lat="44.2578658" lon="8.2113364"><ele>930.9999999999999</ele><time>2026-05-03T09:38:31.04Z</time></trkpt><trkpt lat="44.2579071" lon="8.2114654"><ele>930.9999999999999</ele><time>2026-05-03T09:38:32.039Z</time></trkpt><trkpt lat="44.2579386" lon="8.211601"><ele>931.0</ele><time>2026-05-03T09:38:33.039Z</time></trkpt><trkpt lat="44.257928" lon="8.211753"><ele>931.0</ele><time>2026-05-03T09:38:34.04Z</time></trkpt><trkpt lat="44.2578824" lon="8.2118988"><ele>929.5999999999999</ele><time>2026-05-03T09:38:35.04Z</time></trkpt><trkpt lat="44.2578009" lon="8.2120314"><ele>928.1999999999999</ele><time>2026-05-03T09:38:36.04Z</time></trkpt><trkpt lat="44.2577292" lon="8.2121529"><ele>926.8000000000001</ele><time>2026-05-03T09:38:37.04Z</time></trkpt><trkpt lat="44.2576864" lon="8.2122767"><ele>925.4000000000001</ele><time>2026-05-03T09:38:38.04Z</time></trkpt><trkpt lat="44.2576758" lon="8.2123886"><ele>924.0</ele><time>2026-05-03T09:38:39.04Z</time></trkpt><trkpt lat="44.2576968" lon="8.2125099"><ele>923.5</ele><time>2026-05-03T09:38:40.04Z</time></trkpt><trkpt lat="44.2577426" lon="8.2126242"><ele>923.0</ele><time>2026-05-03T09:38:41.04Z</time></trkpt><trkpt lat="44.2578081" lon="8.2127368"><ele>922.5</ele><time>2026-05-03T09:38:42.04Z</time></trkpt><trkpt lat="44.2579025" lon="8.2128327"><ele>922.0</ele><time>2026-05-03T09:38:43.04Z</time></trkpt><trkpt lat="44.2580274" lon="8.2129126"><ele>925.0</ele><time>2026-05-03T09:38:44.04Z</time></trkpt><trkpt lat="44.2581718" lon="8.212982"><ele>928.0</ele><time>2026-05-03T09:38:45.04Z</time></trkpt><trkpt lat="44.2583281" lon="8.2130357"><ele>931.0</ele><time>2026-05-03T09:38:46.04Z</time></trkpt><trkpt lat="44.2584936" lon="8.2130835"><ele>931.0</ele><time>2026-05-03T09:38:47.04Z</time></trkpt><trkpt lat="44.2586591" lon="8.2131204"><ele>931.0</ele><time>2026-05-03T09:38:48.039Z</time></trkpt><trkpt lat="44.2588157" lon="8.2131451"><ele>931.0</ele><time>2026-05-03T09:38:49.039Z</time></trkpt><trkpt lat="44.2589799" lon="8.2131439"><ele>933.0</ele><time>2026-05-03T09:38:50.039Z</time></trkpt><trkpt lat="44.2591546" lon="8.2131215"><ele>935.0</ele><time>2026-05-03T09:38:51.04Z</time></trkpt><trkpt lat="44.2593118" lon="8.2131143"><ele>937.0</ele><time>2026-05-03T09:38:52.04Z</time></trkpt><trkpt lat="44.2594645" lon="8.2131443"><ele>932.25</ele><time>2026-05-03T09:38:53.04Z</time></trkpt><trkpt lat="44.2595956" lon="8.2132073"><ele>927.5</ele><time>2026-05-03T09:38:54.04Z</time></trkpt><trkpt lat="44.2597223" lon="8.2132756"><ele>922.75</ele><time>2026-05-03T09:38:55.04Z</time></trkpt><trkpt lat="44.2598342" lon="8.2133312"><ele>918.0</ele><time>2026-05-03T09:38:56.039Z</time></trkpt><trkpt lat="44.2599423" lon="8.2133702"><ele>917.8</ele><time>2026-05-03T09:38:57.04Z</time></trkpt><trkpt lat="44.2600453" lon="8.2134056"><ele>917.5999999999999</ele><time>2026-05-03T09:38:58.039Z</time></trkpt><trkpt lat="44.2601425" lon="8.2134376"><ele>917.4000000000001</ele><time>2026-05-03T09:38:59.04Z</time></trkpt><trkpt lat="44.2602303" lon="8.2134636"><ele>917.2</ele><time>2026-05-03T09:39:00.039Z</time></trkpt><trkpt lat="44.260334" lon="8.2134434"><ele>917.0</ele><time>2026-05-03T09:39:01.04Z</time></trkpt><trkpt lat="44.2604496" lon="8.2133551"><ele>917.0</ele><time>2026-05-03T09:39:02.04Z</time></trkpt><trkpt lat="44.2605597" lon="8.2132373"><ele>917.0</ele><time>2026-05-03T09:39:03.04Z</time></trkpt><trkpt lat="44.2606555" lon="8.2130816"><ele>917.0</ele><time>2026-05-03T09:39:04.039Z</time></trkpt><trkpt lat="44.2607426" lon="8.2129238"><ele>917.0</ele><time>2026-05-03T09:39:05.04Z</time></trkpt><trkpt lat="44.2608368" lon="8.2127863"><ele>916.25</ele><time>2026-05-03T09:39:06.04Z</time></trkpt><trkpt lat="44.2609501" lon="8.2126932"><ele>915.5</ele><time>2026-05-03T09:39:07.04Z</time></trkpt><trkpt lat="44.2610994" lon="8.2126413"><ele>914.75</ele><time>2026-05-03T09:39:08.039Z</time></trkpt><trkpt lat="44.2612578" lon="8.2126158"><ele>914.0</ele><time>2026-05-03T09:39:09.04Z</time></trkpt><trkpt lat="44.2614055" lon="8.2125803"><ele>910.3333333333334</ele><time>2026-05-03T09:39:10.04Z</time></trkpt><trkpt lat="44.2615413" lon="8.2125449"><ele>906.6666666666667</ele><time>2026-05-03T09:39:11.039Z</time></trkpt><trkpt lat="44.261682" lon="8.2125243"><ele>903.0</ele><time>2026-05-03T09:39:12.04Z</time></trkpt><trkpt lat="44.2618545" lon="8.2125517"><ele>903.0</ele><time>2026-05-03T09:39:13.039Z</time></trkpt><trkpt lat="44.262023" lon="8.2126211"><ele>903.0</ele><time>2026-05-03T09:39:14.039Z</time></trkpt><trkpt lat="44.262165" lon="8.212706"><ele>903.0</ele><time>2026-05-03T09:39:15.04Z</time></trkpt><trkpt lat="44.2623029" lon="8.212799"><ele>901.5</ele><time>2026-05-03T09:39:16.04Z</time></trkpt><trkpt lat="44.2624208" lon="8.2128774"><ele>900.0</ele><time>2026-05-03T09:39:17.039Z</time></trkpt><trkpt lat="44.2625283" lon="8.2129472"><ele>898.5</ele><time>2026-05-03T09:39:18.04Z</time></trkpt><trkpt lat="44.2626337" lon="8.2130101"><ele>897.0</ele><time>2026-05-03T09:39:19.04Z</time></trkpt><trkpt lat="44.2627335" lon="8.2130654"><ele>897.0</ele><time>2026-05-03T09:39:20.04Z</time></trkpt><trkpt lat="44.2628293" lon="8.2131075"><ele>897.0</ele><time>2026-05-03T09:39:21.04Z</time></trkpt><trkpt lat="44.2629141" lon="8.2131375"><ele>897.0</ele><time>2026-05-03T09:39:22.041Z</time></trkpt><trkpt lat="44.2629974" lon="8.2131347"><ele>897.0</ele><time>2026-05-03T09:39:23.041Z</time></trkpt><trkpt lat="44.263094" lon="8.2130882"><ele>897.0</ele><time>2026-05-03T09:39:24.041Z</time></trkpt><trkpt lat="44.2631825" lon="8.212974"><ele>895.5</ele><time>2026-05-03T09:39:25.041Z</time></trkpt><trkpt lat="44.2632615" lon="8.2128079"><ele>894.0</ele><time>2026-05-03T09:39:26.04Z</time></trkpt><trkpt lat="44.2633281" lon="8.2126368"><ele>892.5</ele><time>2026-05-03T09:39:27.041Z</time></trkpt><trkpt lat="44.2633778" lon="8.2124725"><ele>891.0</ele><time>2026-05-03T09:39:28.041Z</time></trkpt><trkpt lat="44.2634259" lon="8.2123029"><ele>891.0</ele><time>2026-05-03T09:39:29.041Z</time></trkpt><trkpt lat="44.2634769" lon="8.2121514"><ele>890.9999999999999</ele><time>2026-05-03T09:39:30.041Z</time></trkpt><trkpt lat="44.2635342" lon="8.212018"><ele>890.9999999999999</ele><time>2026-05-03T09:39:31.04Z</time></trkpt><trkpt lat="44.263597" lon="8.2119021"><ele>891.0</ele><time>2026-05-03T09:39:32.041Z</time></trkpt><trkpt lat="44.2636507" lon="8.2118196"><ele>891.0</ele><time>2026-05-03T09:39:33.041Z</time></trkpt><trkpt lat="44.2637018" lon="8.2117625"><ele>891.0</ele><time>2026-05-03T09:39:34.04Z</time></trkpt><trkpt lat="44.2637627" lon="8.2117109"><ele>891.0</ele><time>2026-05-03T09:39:35.041Z</time></trkpt><trkpt lat="44.2638376" lon="8.211681"><ele>891.0</ele><time>2026-05-03T09:39:36.04Z</time></trkpt><trkpt lat="44.2639296" lon="8.2116877"><ele>891.0</ele><time>2026-05-03T09:39:37.041Z</time></trkpt><trkpt lat="44.2640383" lon="8.2117408"><ele>891.0</ele><time>2026-05-03T09:39:38.041Z</time></trkpt><trkpt lat="44.264104" lon="8.211806"><ele>891.0</ele><time>2026-05-03T09:39:39.04Z</time></trkpt><trkpt lat="44.2641561" lon="8.21188"><ele>889.1666666666666</ele><time>2026-05-03T09:39:40.041Z</time></trkpt><trkpt lat="44.2642215" lon="8.211985"><ele>887.3333333333333</ele><time>2026-05-03T09:39:42.041Z</time></trkpt><trkpt lat="44.2643091" lon="8.2120904"><ele>885.5</ele><time>2026-05-03T09:39:44.041Z</time></trkpt><trkpt lat="44.2643615" lon="8.2121414"><ele>883.6666666666666</ele><time>2026-05-03T09:39:45.041Z</time></trkpt><trkpt lat="44.2644213" lon="8.2121857"><ele>881.8333333333333</ele><time>2026-05-03T09:39:46.04Z</time></trkpt><trkpt lat="44.2645003" lon="8.212221"><ele>880.0</ele><time>2026-05-03T09:39:47.041Z</time></trkpt><trkpt lat="44.2645819" lon="8.2122414"><ele>879.9999999999999</ele><time>2026-05-03T09:39:48.041Z</time></trkpt><trkpt lat="44.2646551" lon="8.2122514"><ele>880.0</ele><time>2026-05-03T09:39:49.041Z</time></trkpt><trkpt lat="44.2647238" lon="8.2122515"><ele>880.0</ele><time>2026-05-03T09:39:50.041Z</time></trkpt><trkpt lat="44.2647927" lon="8.212246"><ele>880.0</ele><time>2026-05-03T09:39:51.04Z</time></trkpt><trkpt lat="44.2648777" lon="8.2122445"><ele>880.0</ele><time>2026-05-03T09:39:52.041Z</time></trkpt><trkpt lat="44.2649579" lon="8.2122474"><ele>879.9999999999999</ele><time>2026-05-03T09:39:53.041Z</time></trkpt><trkpt lat="44.2650246" lon="8.2122507"><ele>880.0</ele><time>2026-05-03T09:39:54.04Z</time></trkpt><trkpt lat="44.2651431" lon="8.2122547"><ele>878.0</ele><time>2026-05-03T09:39:56.041Z</time></trkpt><trkpt lat="44.2652577" lon="8.2122748"><ele>876.0</ele><time>2026-05-03T09:39:58.041Z</time></trkpt><trkpt lat="44.2653795" lon="8.2122435"><ele>874.0</ele><time>2026-05-03T09:40:00.041Z</time></trkpt><trkpt lat="44.2654618" lon="8.2121838"><ele>872.0</ele><time>2026-05-03T09:40:01.041Z</time></trkpt><trkpt lat="44.2655386" lon="8.2120716"><ele>870.0</ele><time>2026-05-03T09:40:02.041Z</time></trkpt><trkpt lat="44.2656077" lon="8.2119294"><ele>867.75</ele><time>2026-05-03T09:40:03.041Z</time></trkpt><trkpt lat="44.2656565" lon="8.2117614"><ele>865.5</ele><time>2026-05-03T09:40:04.041Z</time></trkpt><trkpt lat="44.2657033" lon="8.2116074"><ele>863.25</ele><time>2026-05-03T09:40:05.041Z</time></trkpt><trkpt lat="44.2657509" lon="8.2114522"><ele>861.0</ele><time>2026-05-03T09:40:06.041Z</time></trkpt><trkpt lat="44.2658011" lon="8.2113269"><ele>861.0</ele><time>2026-05-03T09:40:07.04Z</time></trkpt><trkpt lat="44.2658462" lon="8.2112173"><ele>861.0</ele><time>2026-05-03T09:40:08.041Z</time></trkpt><trkpt lat="44.2658909" lon="8.211121"><ele>861.0</ele><time>2026-05-03T09:40:09.041Z</time></trkpt><trkpt lat="44.2659386" lon="8.2110414"><ele>861.0</ele><time>2026-05-03T09:40:10.04Z</time></trkpt><trkpt lat="44.2659996" lon="8.2109802"><ele>861.0</ele><time>2026-05-03T09:40:11.041Z</time></trkpt><trkpt lat="44.266078" lon="8.2109579"><ele>861.0</ele><time>2026-05-03T09:40:12.041Z</time></trkpt><trkpt lat="44.266172" lon="8.2109988"><ele>861.0</ele><time>2026-05-03T09:40:13.041Z</time></trkpt><trkpt lat="44.2662696" lon="8.2110956"><ele>861.0</ele><time>2026-05-03T09:40:14.04Z</time></trkpt><trkpt lat="44.2663622" lon="8.2112555"><ele>861.0</ele><time>2026-05-03T09:40:15.04Z</time></trkpt><trkpt lat="44.2664276" lon="8.2114242"><ele>861.0</ele><time>2026-05-03T09:40:16.041Z</time></trkpt><trkpt lat="44.2664832" lon="8.2115673"><ele>856.5</ele><time>2026-05-03T09:40:17.04Z</time></trkpt><trkpt lat="44.2665447" lon="8.211694"><ele>852.0</ele><time>2026-05-03T09:40:18.04Z</time></trkpt><trkpt lat="44.2666164" lon="8.2117913"><ele>847.5</ele><time>2026-05-03T09:40:19.04Z</time></trkpt><trkpt lat="44.2667093" lon="8.2118783"><ele>843.0</ele><time>2026-05-03T09:40:20.04Z</time></trkpt><trkpt lat="44.266829" lon="8.2119574"><ele>843.0</ele><time>2026-05-03T09:40:21.04Z</time></trkpt><trkpt lat="44.2669936" lon="8.2120259"><ele>843.0</ele><time>2026-05-03T09:40:22.041Z</time></trkpt><trkpt lat="44.2671548" lon="8.2121026"><ele>843.0</ele><time>2026-05-03T09:40:23.041Z</time></trkpt><trkpt lat="44.2673062" lon="8.2121862"><ele>844.5</ele><time>2026-05-03T09:40:24.04Z</time></trkpt><trkpt lat="44.2674392" lon="8.2122688"><ele>846.0</ele><time>2026-05-03T09:40:25.04Z</time></trkpt><trkpt lat="44.2675705" lon="8.2123481"><ele>847.5</ele><time>2026-05-03T09:40:26.041Z</time></trkpt><trkpt lat="44.2676992" lon="8.2124254"><ele>849.0</ele><time>2026-05-03T09:40:27.041Z</time></trkpt><trkpt lat="44.2678158" lon="8.2124823"><ele>844.5</ele><time>2026-05-03T09:40:28.04Z</time></trkpt><trkpt lat="44.2679311" lon="8.2125513"><ele>840.0</ele><time>2026-05-03T09:40:29.042Z</time></trkpt><trkpt lat="44.2680423" lon="8.2126104"><ele>835.5</ele><time>2026-05-03T09:40:30.042Z</time></trkpt><trkpt lat="44.2681506" lon="8.2126478"><ele>831.0</ele><time>2026-05-03T09:40:31.041Z</time></trkpt><trkpt lat="44.2682596" lon="8.2126485"><ele>830.0</ele><time>2026-05-03T09:40:32.042Z</time></trkpt><trkpt lat="44.2683864" lon="8.2126085"><ele>829.0</ele><time>2026-05-03T09:40:33.042Z</time></trkpt><trkpt lat="44.2685174" lon="8.2125252"><ele>828.0</ele><time>2026-05-03T09:40:34.041Z</time></trkpt><trkpt lat="44.2686361" lon="8.2124232"><ele>827.0</ele><time>2026-05-03T09:40:35.042Z</time></trkpt><trkpt lat="44.2687361" lon="8.2123059"><ele>829.2</ele><time>2026-05-03T09:40:36.042Z</time></trkpt><trkpt lat="44.2688241" lon="8.212202"><ele>831.4000000000001</ele><time>2026-05-03T09:40:37.042Z</time></trkpt><trkpt lat="44.2689101" lon="8.2121278"><ele>833.5999999999999</ele><time>2026-05-03T09:40:38.042Z</time></trkpt><trkpt lat="44.2690074" lon="8.2120962"><ele>835.8</ele><time>2026-05-03T09:40:39.042Z</time></trkpt><trkpt lat="44.2691073" lon="8.2121229"><ele>838.0</ele><time>2026-05-03T09:40:40.042Z</time></trkpt><trkpt lat="44.269213" lon="8.2121998"><ele>838.0</ele><time>2026-05-03T09:40:41.041Z</time></trkpt><trkpt lat="44.2693224" lon="8.2122833"><ele>838.0</ele><time>2026-05-03T09:40:42.042Z</time></trkpt><trkpt lat="44.2694113" lon="8.2123358"><ele>838.0</ele><time>2026-05-03T09:40:43.041Z</time></trkpt><trkpt lat="44.2695164" lon="8.2123604"><ele>838.0</ele><time>2026-05-03T09:40:44.041Z</time></trkpt><trkpt lat="44.269645" lon="8.2123498"><ele>834.5</ele><time>2026-05-03T09:40:45.041Z</time></trkpt><trkpt lat="44.2697821" lon="8.2122956"><ele>831.0</ele><time>2026-05-03T09:40:46.041Z</time></trkpt><trkpt lat="44.2699166" lon="8.2122408"><ele>827.5</ele><time>2026-05-03T09:40:47.042Z</time></trkpt><trkpt lat="44.2700498" lon="8.2121859"><ele>824.0</ele><time>2026-05-03T09:40:48.042Z</time></trkpt><trkpt lat="44.2701823" lon="8.2121344"><ele>824.0</ele><time>2026-05-03T09:40:49.042Z</time></trkpt><trkpt lat="44.2703044" lon="8.2120818"><ele>824.0</ele><time>2026-05-03T09:40:50.042Z</time></trkpt><trkpt lat="44.2704283" lon="8.212025"><ele>824.0</ele><time>2026-05-03T09:40:51.042Z</time></trkpt><trkpt lat="44.2705527" lon="8.2119565"><ele>824.0</ele><time>2026-05-03T09:40:52.042Z</time></trkpt><trkpt lat="44.2706598" lon="8.2118865"><ele>821.0000000000001</ele><time>2026-05-03T09:40:53.041Z</time></trkpt><trkpt lat="44.2707476" lon="8.2118096"><ele>818.0</ele><time>2026-05-03T09:40:54.041Z</time></trkpt><trkpt lat="44.2708228" lon="8.2117315"><ele>815.0</ele><time>2026-05-03T09:40:55.042Z</time></trkpt><trkpt lat="44.2708865" lon="8.2116545"><ele>812.0</ele><time>2026-05-03T09:40:56.041Z</time></trkpt><trkpt lat="44.2709409" lon="8.2115881"><ele>809.0000000000001</ele><time>2026-05-03T09:40:57.042Z</time></trkpt><trkpt lat="44.2709852" lon="8.211524"><ele>806.0</ele><time>2026-05-03T09:40:58.041Z</time></trkpt><trkpt lat="44.2710405" lon="8.2114125"><ele>805.5999999999999</ele><time>2026-05-03T09:41:00.041Z</time></trkpt><trkpt lat="44.2710597" lon="8.2112479"><ele>805.2</ele><time>2026-05-03T09:41:02.042Z</time></trkpt><trkpt lat="44.271036" lon="8.2111403"><ele>804.8</ele><time>2026-05-03T09:41:03.042Z</time></trkpt><trkpt lat="44.2709726" lon="8.2110254"><ele>804.4000000000001</ele><time>2026-05-03T09:41:04.042Z</time></trkpt><trkpt lat="44.2709076" lon="8.2109086"><ele>804.0</ele><time>2026-05-03T09:41:05.041Z</time></trkpt><trkpt lat="44.2708519" lon="8.2107892"><ele>804.0</ele><time>2026-05-03T09:41:06.042Z</time></trkpt><trkpt lat="44.2708039" lon="8.2106663"><ele>804.0</ele><time>2026-05-03T09:41:07.042Z</time></trkpt><trkpt lat="44.270758" lon="8.2105387"><ele>804.0</ele><time>2026-05-03T09:41:08.042Z</time></trkpt><trkpt lat="44.2707066" lon="8.2104096"><ele>804.0</ele><time>2026-05-03T09:41:09.041Z</time></trkpt><trkpt lat="44.2706511" lon="8.2102763"><ele>804.0</ele><time>2026-05-03T09:41:10.042Z</time></trkpt><trkpt lat="44.2705836" lon="8.2101518"><ele>806.6</ele><time>2026-05-03T09:41:11.042Z</time></trkpt><trkpt lat="44.270494" lon="8.2100637"><ele>809.2</ele><time>2026-05-03T09:41:12.042Z</time></trkpt><trkpt lat="44.2703784" lon="8.2100176"><ele>811.8000000000001</ele><time>2026-05-03T09:41:13.042Z</time></trkpt><trkpt lat="44.2702588" lon="8.2100274"><ele>814.4000000000001</ele><time>2026-05-03T09:41:14.041Z</time></trkpt><trkpt lat="44.2701754" lon="8.2100308"><ele>817.0</ele><time>2026-05-03T09:41:15.042Z</time></trkpt><trkpt lat="44.2700737" lon="8.2099288"><ele>816.4000000000001</ele><time>2026-05-03T09:41:17.041Z</time></trkpt><trkpt lat="44.2700435" lon="8.209821"><ele>815.8000000000001</ele><time>2026-05-03T09:41:18.042Z</time></trkpt><trkpt lat="44.2700198" lon="8.2096865"><ele>815.2</ele><time>2026-05-03T09:41:19.042Z</time></trkpt><trkpt lat="44.2700055" lon="8.209554"><ele>814.6</ele><time>2026-05-03T09:41:20.042Z</time></trkpt><trkpt lat="44.2699868" lon="8.2094283"><ele>814.0</ele><time>2026-05-03T09:41:21.042Z</time></trkpt><trkpt lat="44.2699574" lon="8.2092845"><ele>814.0</ele><time>2026-05-03T09:41:22.042Z</time></trkpt><trkpt lat="44.2699223" lon="8.2091388"><ele>814.0</ele><time>2026-05-03T09:41:23.042Z</time></trkpt><trkpt lat="44.2698781" lon="8.2089907"><ele>814.0</ele><time>2026-05-03T09:41:24.042Z</time></trkpt><trkpt lat="44.2698288" lon="8.208827"><ele>814.0</ele><time>2026-05-03T09:41:25.042Z</time></trkpt><trkpt lat="44.2697929" lon="8.2086697"><ele>815.25</ele><time>2026-05-03T09:41:26.042Z</time></trkpt><trkpt lat="44.2697877" lon="8.2085036"><ele>816.5</ele><time>2026-05-03T09:41:27.042Z</time></trkpt><trkpt lat="44.2698304" lon="8.2083544"><ele>817.75</ele><time>2026-05-03T09:41:28.042Z</time></trkpt><trkpt lat="44.2699011" lon="8.2082146"><ele>819.0</ele><time>2026-05-03T09:41:29.042Z</time></trkpt><trkpt lat="44.2699935" lon="8.2080959"><ele>821.0</ele><time>2026-05-03T09:41:30.041Z</time></trkpt><trkpt lat="44.2700686" lon="8.2079622"><ele>823.0</ele><time>2026-05-03T09:41:31.043Z</time></trkpt><trkpt lat="44.2701173" lon="8.2077896"><ele>825.0</ele><time>2026-05-03T09:41:32.042Z</time></trkpt><trkpt lat="44.2701418" lon="8.2075874"><ele>827.0</ele><time>2026-05-03T09:41:33.042Z</time></trkpt><trkpt lat="44.2701682" lon="8.2073856"><ele>829.0</ele><time>2026-05-03T09:41:34.042Z</time></trkpt><trkpt lat="44.2701955" lon="8.2071906"><ele>831.0</ele><time>2026-05-03T09:41:35.042Z</time></trkpt><trkpt lat="44.2702207" lon="8.2070152"><ele>833.0</ele><time>2026-05-03T09:41:36.042Z</time></trkpt><trkpt lat="44.270251" lon="8.2068463"><ele>835.0</ele><time>2026-05-03T09:41:37.043Z</time></trkpt><trkpt lat="44.2702859" lon="8.2066733"><ele>836.25</ele><time>2026-05-03T09:41:38.042Z</time></trkpt><trkpt lat="44.270329" lon="8.2064942"><ele>837.5</ele><time>2026-05-03T09:41:39.042Z</time></trkpt><trkpt lat="44.2703735" lon="8.2063131"><ele>838.75</ele><time>2026-05-03T09:41:40.043Z</time></trkpt><trkpt lat="44.270416" lon="8.2061405"><ele>840.0</ele><time>2026-05-03T09:41:41.043Z</time></trkpt><trkpt lat="44.2704541" lon="8.2059842"><ele>840.0</ele><time>2026-05-03T09:41:42.043Z</time></trkpt><trkpt lat="44.2704897" lon="8.2058352"><ele>840.0</ele><time>2026-05-03T09:41:43.042Z</time></trkpt><trkpt lat="44.270525" lon="8.2056852"><ele>840.0</ele><time>2026-05-03T09:41:44.042Z</time></trkpt><trkpt lat="44.2705592" lon="8.2055317"><ele>840.0</ele><time>2026-05-03T09:41:45.043Z</time></trkpt><trkpt lat="44.2705888" lon="8.2053791"><ele>837.0</ele><time>2026-05-03T09:41:46.042Z</time></trkpt><trkpt lat="44.2706176" lon="8.2052216"><ele>834.0</ele><time>2026-05-03T09:41:47.042Z</time></trkpt><trkpt lat="44.2706454" lon="8.2050677"><ele>831.0</ele><time>2026-05-03T09:41:48.043Z</time></trkpt><trkpt lat="44.2706836" lon="8.2049226"><ele>828.0</ele><time>2026-05-03T09:41:49.043Z</time></trkpt><trkpt lat="44.2707414" lon="8.2047868"><ele>828.0</ele><time>2026-05-03T09:41:50.043Z</time></trkpt><trkpt lat="44.2708279" lon="8.2046723"><ele>828.0</ele><time>2026-05-03T09:41:51.042Z</time></trkpt><trkpt lat="44.27095" lon="8.2045811"><ele>828.0</ele><time>2026-05-03T09:41:52.043Z</time></trkpt><trkpt lat="44.2710867" lon="8.20452"><ele>828.0</ele><time>2026-05-03T09:41:53.043Z</time></trkpt><trkpt lat="44.2712346" lon="8.20447"><ele>828.0</ele><time>2026-05-03T09:41:54.043Z</time></trkpt><trkpt lat="44.2714001" lon="8.2044442"><ele>828.0</ele><time>2026-05-03T09:41:55.043Z</time></trkpt><trkpt lat="44.2715529" lon="8.204425"><ele>828.0</ele><time>2026-05-03T09:41:56.043Z</time></trkpt><trkpt lat="44.271691" lon="8.2044017"><ele>823.8</ele><time>2026-05-03T09:41:57.042Z</time></trkpt><trkpt lat="44.2718099" lon="8.2043771"><ele>819.5999999999999</ele><time>2026-05-03T09:41:58.043Z</time></trkpt><trkpt lat="44.2719068" lon="8.2043506"><ele>815.4000000000001</ele><time>2026-05-03T09:41:59.043Z</time></trkpt><trkpt lat="44.2719952" lon="8.2043077"><ele>811.2</ele><time>2026-05-03T09:42:00.043Z</time></trkpt><trkpt lat="44.272059" lon="8.204231"><ele>807.0</ele><time>2026-05-03T09:42:01.042Z</time></trkpt><trkpt lat="44.272132" lon="8.2041143"><ele>806.5</ele><time>2026-05-03T09:42:02.043Z</time></trkpt><trkpt lat="44.2721948" lon="8.2039704"><ele>806.0</ele><time>2026-05-03T09:42:03.043Z</time></trkpt><trkpt lat="44.2722662" lon="8.2038444"><ele>805.5</ele><time>2026-05-03T09:42:04.043Z</time></trkpt><trkpt lat="44.2723513" lon="8.2037047"><ele>805.0</ele><time>2026-05-03T09:42:05.043Z</time></trkpt><trkpt lat="44.2724579" lon="8.2036016"><ele>805.0</ele><time>2026-05-03T09:42:06.043Z</time></trkpt><trkpt lat="44.2725833" lon="8.2035329"><ele>805.0</ele><time>2026-05-03T09:42:07.043Z</time></trkpt><trkpt lat="44.272688" lon="8.2034866"><ele>805.0</ele><time>2026-05-03T09:42:08.043Z</time></trkpt><trkpt lat="44.2727499" lon="8.2034458"><ele>805.0</ele><time>2026-05-03T09:42:09.043Z</time></trkpt><trkpt lat="44.2728504" lon="8.2033822"><ele>805.0</ele><time>2026-05-03T09:42:11.042Z</time></trkpt><trkpt lat="44.2729482" lon="8.2033563"><ele>805.0</ele><time>2026-05-03T09:42:13.042Z</time></trkpt><trkpt lat="44.2730629" lon="8.2034197"><ele>805.0</ele><time>2026-05-03T09:42:15.042Z</time></trkpt><trkpt lat="44.2730682" lon="8.2035821"><ele>805.0</ele><time>2026-05-03T09:42:17.043Z</time></trkpt><trkpt lat="44.2729412" lon="8.2037099"><ele>805.0</ele><time>2026-05-03T09:42:19.042Z</time></trkpt><trkpt lat="44.2728523" lon="8.2037487"><ele>804.9999999999999</ele><time>2026-05-03T09:42:20.043Z</time></trkpt><trkpt lat="44.2727743" lon="8.203773"><ele>805.0</ele><time>2026-05-03T09:42:21.043Z</time></trkpt><trkpt lat="44.2726989" lon="8.2038163"><ele>805.0</ele><time>2026-05-03T09:42:22.043Z</time></trkpt><trkpt lat="44.2726454" lon="8.2038744"><ele>805.0</ele><time>2026-05-03T09:42:23.042Z</time></trkpt><trkpt lat="44.2726149" lon="8.2040336"><ele>804.9999999999999</ele><time>2026-05-03T09:42:25.042Z</time></trkpt><trkpt lat="44.2726877" lon="8.204114"><ele>805.0</ele><time>2026-05-03T09:42:27.042Z</time></trkpt><trkpt lat="44.2727613" lon="8.2041017"><ele>805.0</ele><time>2026-05-03T09:42:28.043Z</time></trkpt><trkpt lat="44.2728704" lon="8.2040453"><ele>805.0</ele><time>2026-05-03T09:42:29.043Z</time></trkpt><trkpt lat="44.2729859" lon="8.2039596"><ele>805.0</ele><time>2026-05-03T09:42:30.042Z</time></trkpt><trkpt lat="44.2730965" lon="8.2038835"><ele>805.0</ele><time>2026-05-03T09:42:31.043Z</time></trkpt><trkpt lat="44.2732065" lon="8.203808"><ele>801.25</ele><time>2026-05-03T09:42:32.043Z</time></trkpt><trkpt lat="44.2733109" lon="8.2037315"><ele>797.5</ele><time>2026-05-03T09:42:33.042Z</time></trkpt><trkpt lat="44.2734102" lon="8.2036573"><ele>793.75</ele><time>2026-05-03T09:42:34.043Z</time></trkpt><trkpt lat="44.2735082" lon="8.2035798"><ele>790.0</ele><time>2026-05-03T09:42:35.043Z</time></trkpt><trkpt lat="44.2736253" lon="8.2034873"><ele>790.0</ele><time>2026-05-03T09:42:36.042Z</time></trkpt><trkpt lat="44.2737496" lon="8.203399"><ele>790.0</ele><time>2026-05-03T09:42:37.043Z</time></trkpt><trkpt lat="44.2738687" lon="8.2032945"><ele>790.0</ele><time>2026-05-03T09:42:38.043Z</time></trkpt><trkpt lat="44.2739795" lon="8.2031508"><ele>790.0</ele><time>2026-05-03T09:42:39.042Z</time></trkpt><trkpt lat="44.2740864" lon="8.2030081"><ele>787.25</ele><time>2026-05-03T09:42:40.042Z</time></trkpt><trkpt lat="44.2741901" lon="8.2028763"><ele>784.5</ele><time>2026-05-03T09:42:41.043Z</time></trkpt><trkpt lat="44.274296" lon="8.2027614"><ele>781.75</ele><time>2026-05-03T09:42:42.042Z</time></trkpt><trkpt lat="44.2744106" lon="8.2026717"><ele>779.0</ele><time>2026-05-03T09:42:43.044Z</time></trkpt><trkpt lat="44.2745272" lon="8.2025869"><ele>779.0</ele><time>2026-05-03T09:42:44.043Z</time></trkpt><trkpt lat="44.2746308" lon="8.2025322"><ele>779.0</ele><time>2026-05-03T09:42:45.043Z</time></trkpt><trkpt lat="44.2747315" lon="8.2025126"><ele>779.0</ele><time>2026-05-03T09:42:46.043Z</time></trkpt><trkpt lat="44.2748306" lon="8.2025071"><ele>779.0</ele><time>2026-05-03T09:42:47.044Z</time></trkpt><trkpt lat="44.2749329" lon="8.2025152"><ele>779.0</ele><time>2026-05-03T09:42:48.044Z</time></trkpt><trkpt lat="44.2750267" lon="8.2025586"><ele>776.6</ele><time>2026-05-03T09:42:49.043Z</time></trkpt><trkpt lat="44.2751043" lon="8.2026231"><ele>774.2</ele><time>2026-05-03T09:42:50.043Z</time></trkpt><trkpt lat="44.2751935" lon="8.2026974"><ele>771.8000000000001</ele><time>2026-05-03T09:42:51.043Z</time></trkpt><trkpt lat="44.2752749" lon="8.2027362"><ele>769.4000000000001</ele><time>2026-05-03T09:42:52.043Z</time></trkpt><trkpt lat="44.2753782" lon="8.2027267"><ele>767.0</ele><time>2026-05-03T09:42:53.043Z</time></trkpt><trkpt lat="44.2754865" lon="8.2026679"><ele>767.0</ele><time>2026-05-03T09:42:54.043Z</time></trkpt><trkpt lat="44.2755849" lon="8.2025727"><ele>767.0</ele><time>2026-05-03T09:42:55.043Z</time></trkpt><trkpt lat="44.2756789" lon="8.2024548"><ele>767.0</ele><time>2026-05-03T09:42:56.044Z</time></trkpt><trkpt lat="44.2757756" lon="8.2023365"><ele>767.0</ele><time>2026-05-03T09:42:57.044Z</time></trkpt><trkpt lat="44.275875" lon="8.2022407"><ele>769.75</ele><time>2026-05-03T09:42:58.043Z</time></trkpt><trkpt lat="44.2759816" lon="8.2021716"><ele>772.5</ele><time>2026-05-03T09:42:59.043Z</time></trkpt><trkpt lat="44.2760885" lon="8.2021098"><ele>775.25</ele><time>2026-05-03T09:43:00.043Z</time></trkpt><trkpt lat="44.2761855" lon="8.2020427"><ele>778.0</ele><time>2026-05-03T09:43:01.044Z</time></trkpt><trkpt lat="44.2762883" lon="8.2019883"><ele>778.0</ele><time>2026-05-03T09:43:02.044Z</time></trkpt><trkpt lat="44.276389" lon="8.2019373"><ele>778.0</ele><time>2026-05-03T09:43:03.044Z</time></trkpt><trkpt lat="44.2764914" lon="8.2018959"><ele>778.0</ele><time>2026-05-03T09:43:04.044Z</time></trkpt><trkpt lat="44.2766002" lon="8.201856"><ele>778.0</ele><time>2026-05-03T09:43:05.044Z</time></trkpt><trkpt lat="44.2767034" lon="8.2018062"><ele>778.0</ele><time>2026-05-03T09:43:06.044Z</time></trkpt><trkpt lat="44.2767839" lon="8.2017418"><ele>774.3333333333333</ele><time>2026-05-03T09:43:07.044Z</time></trkpt><trkpt lat="44.2768473" lon="8.2016654"><ele>770.6666666666666</ele><time>2026-05-03T09:43:08.044Z</time></trkpt><trkpt lat="44.276906" lon="8.201607"><ele>767.0</ele><time>2026-05-03T09:43:09.043Z</time></trkpt><trkpt lat="44.2770073" lon="8.2015882"><ele>763.3333333333333</ele><time>2026-05-03T09:43:11.044Z</time></trkpt><trkpt lat="44.2770736" lon="8.2016282"><ele>759.6666666666666</ele><time>2026-05-03T09:43:12.044Z</time></trkpt><trkpt lat="44.2771114" lon="8.2017109"><ele>756.0</ele><time>2026-05-03T09:43:13.044Z</time></trkpt><trkpt lat="44.2770638" lon="8.2018479"><ele>756.0</ele><time>2026-05-03T09:43:14.043Z</time></trkpt><trkpt lat="44.2769815" lon="8.2019592"><ele>756.0</ele><time>2026-05-03T09:43:15.044Z</time></trkpt><trkpt lat="44.2768772" lon="8.2020796"><ele>756.0</ele><time>2026-05-03T09:43:16.044Z</time></trkpt><trkpt lat="44.2767763" lon="8.2022228"><ele>756.0</ele><time>2026-05-03T09:43:17.044Z</time></trkpt><trkpt lat="44.2766861" lon="8.2023696"><ele>756.5999999999999</ele><time>2026-05-03T09:43:18.044Z</time></trkpt><trkpt lat="44.2766039" lon="8.2025049"><ele>757.2</ele><time>2026-05-03T09:43:19.043Z</time></trkpt><trkpt lat="44.2765283" lon="8.2026226"><ele>757.8</ele><time>2026-05-03T09:43:20.044Z</time></trkpt><trkpt lat="44.2764618" lon="8.2027284"><ele>758.4000000000001</ele><time>2026-05-03T09:43:21.044Z</time></trkpt><trkpt lat="44.2764031" lon="8.2028271"><ele>759.0</ele><time>2026-05-03T09:43:22.044Z</time></trkpt><trkpt lat="44.2763483" lon="8.2029219"><ele>759.0</ele><time>2026-05-03T09:43:23.044Z</time></trkpt><trkpt lat="44.2762927" lon="8.2030075"><ele>759.0</ele><time>2026-05-03T09:43:24.044Z</time></trkpt><trkpt lat="44.2762374" lon="8.2030941"><ele>759.0</ele><time>2026-05-03T09:43:25.043Z</time></trkpt><trkpt lat="44.2761774" lon="8.2031873"><ele>759.0</ele><time>2026-05-03T09:43:26.043Z</time></trkpt><trkpt lat="44.2761069" lon="8.2032846"><ele>759.0</ele><time>2026-05-03T09:43:27.043Z</time></trkpt><trkpt lat="44.2760271" lon="8.2033832"><ele>756.5</ele><time>2026-05-03T09:43:28.044Z</time></trkpt><trkpt lat="44.2759504" lon="8.2034728"><ele>754.0</ele><time>2026-05-03T09:43:29.044Z</time></trkpt><trkpt lat="44.2758776" lon="8.2035504"><ele>751.5</ele><time>2026-05-03T09:43:30.043Z</time></trkpt><trkpt lat="44.2758115" lon="8.2036179"><ele>749.0</ele><time>2026-05-03T09:43:31.044Z</time></trkpt><trkpt lat="44.2757675" lon="8.2036825"><ele>746.5</ele><time>2026-05-03T09:43:32.044Z</time></trkpt><trkpt lat="44.2757914" lon="8.2038311"><ele>744.0</ele><time>2026-05-03T09:43:34.043Z</time></trkpt><trkpt lat="44.275845" lon="8.2038791"><ele>744.0</ele><time>2026-05-03T09:43:35.043Z</time></trkpt><trkpt lat="44.2759296" lon="8.2038579"><ele>744.0</ele><time>2026-05-03T09:43:36.044Z</time></trkpt><trkpt lat="44.2760464" lon="8.2037533"><ele>744.0</ele><time>2026-05-03T09:43:37.044Z</time></trkpt><trkpt lat="44.2761561" lon="8.2036464"><ele>744.0</ele><time>2026-05-03T09:43:38.043Z</time></trkpt><trkpt lat="44.2762716" lon="8.2035204"><ele>744.0</ele><time>2026-05-03T09:43:39.043Z</time></trkpt><trkpt lat="44.2764037" lon="8.2033949"><ele>744.0</ele><time>2026-05-03T09:43:40.043Z</time></trkpt><trkpt lat="44.2764999" lon="8.2032956"><ele>744.0</ele><time>2026-05-03T09:43:41.044Z</time></trkpt><trkpt lat="44.2765812" lon="8.2031862"><ele>744.0</ele><time>2026-05-03T09:43:42.044Z</time></trkpt><trkpt lat="44.2766568" lon="8.2030698"><ele>743.6</ele><time>2026-05-03T09:43:43.044Z</time></trkpt><trkpt lat="44.2767325" lon="8.2029632"><ele>743.2</ele><time>2026-05-03T09:43:44.044Z</time></trkpt><trkpt lat="44.2768153" lon="8.2028732"><ele>742.8000000000001</ele><time>2026-05-03T09:43:45.043Z</time></trkpt><trkpt lat="44.2769207" lon="8.202823"><ele>742.4000000000001</ele><time>2026-05-03T09:43:46.043Z</time></trkpt><trkpt lat="44.2770383" lon="8.202804"><ele>742.0</ele><time>2026-05-03T09:43:47.044Z</time></trkpt><trkpt lat="44.277153" lon="8.2027877"><ele>737.75</ele><time>2026-05-03T09:43:48.044Z</time></trkpt><trkpt lat="44.2772691" lon="8.2027695"><ele>733.5</ele><time>2026-05-03T09:43:49.044Z</time></trkpt><trkpt lat="44.2773732" lon="8.2027367"><ele>729.25</ele><time>2026-05-03T09:43:50.045Z</time></trkpt><trkpt lat="44.2774823" lon="8.2026814"><ele>725.0</ele><time>2026-05-03T09:43:51.044Z</time></trkpt><trkpt lat="44.2775806" lon="8.2025988"><ele>725.0</ele><time>2026-05-03T09:43:52.044Z</time></trkpt><trkpt lat="44.2776671" lon="8.2025034"><ele>725.0</ele><time>2026-05-03T09:43:53.045Z</time></trkpt><trkpt lat="44.277746" lon="8.2023976"><ele>725.0</ele><time>2026-05-03T09:43:54.044Z</time></trkpt><trkpt lat="44.2778068" lon="8.2022541"><ele>725.0</ele><time>2026-05-03T09:43:55.045Z</time></trkpt><trkpt lat="44.2778488" lon="8.2020786"><ele>727.0</ele><time>2026-05-03T09:43:56.044Z</time></trkpt><trkpt lat="44.2778671" lon="8.2018894"><ele>729.0</ele><time>2026-05-03T09:43:57.045Z</time></trkpt><trkpt lat="44.2778837" lon="8.2017115"><ele>731.0</ele><time>2026-05-03T09:43:58.045Z</time></trkpt><trkpt lat="44.2778998" lon="8.2015537"><ele>733.0</ele><time>2026-05-03T09:43:59.044Z</time></trkpt><trkpt lat="44.2779129" lon="8.2014098"><ele>733.5999999999999</ele><time>2026-05-03T09:44:00.045Z</time></trkpt><trkpt lat="44.2779314" lon="8.2012556"><ele>734.1999999999999</ele><time>2026-05-03T09:44:01.045Z</time></trkpt><trkpt lat="44.2779528" lon="8.2011025"><ele>734.8</ele><time>2026-05-03T09:44:02.044Z</time></trkpt><trkpt lat="44.2779792" lon="8.2009493"><ele>735.4</ele><time>2026-05-03T09:44:03.045Z</time></trkpt><trkpt lat="44.2780173" lon="8.2008014"><ele>736.0</ele><time>2026-05-03T09:44:04.045Z</time></trkpt><trkpt lat="44.2780848" lon="8.2006531"><ele>731.75</ele><time>2026-05-03T09:44:05.045Z</time></trkpt><trkpt lat="44.2781679" lon="8.2005328"><ele>727.5</ele><time>2026-05-03T09:44:06.045Z</time></trkpt><trkpt lat="44.2782665" lon="8.2004258"><ele>723.25</ele><time>2026-05-03T09:44:07.045Z</time></trkpt><trkpt lat="44.2783644" lon="8.200321"><ele>719.0</ele><time>2026-05-03T09:44:08.044Z</time></trkpt><trkpt lat="44.2784658" lon="8.2002004"><ele>719.0</ele><time>2026-05-03T09:44:09.045Z</time></trkpt><trkpt lat="44.2785478" lon="8.200064"><ele>719.0</ele><time>2026-05-03T09:44:10.044Z</time></trkpt><trkpt lat="44.2786131" lon="8.1999008"><ele>719.0</ele><time>2026-05-03T09:44:11.044Z</time></trkpt><trkpt lat="44.2786662" lon="8.1997267"><ele>719.0</ele><time>2026-05-03T09:44:12.045Z</time></trkpt><trkpt lat="44.2787061" lon="8.199537"><ele>716.25</ele><time>2026-05-03T09:44:13.044Z</time></trkpt><trkpt lat="44.2787276" lon="8.1993448"><ele>713.5</ele><time>2026-05-03T09:44:14.045Z</time></trkpt><trkpt lat="44.2787329" lon="8.1991705"><ele>710.75</ele><time>2026-05-03T09:44:15.044Z</time></trkpt><trkpt lat="44.2787376" lon="8.1990139"><ele>708.0</ele><time>2026-05-03T09:44:16.045Z</time></trkpt><trkpt lat="44.2787275" lon="8.1988855"><ele>703.5</ele><time>2026-05-03T09:44:17.044Z</time></trkpt><trkpt lat="44.2787041" lon="8.1987581"><ele>699.0</ele><time>2026-05-03T09:44:18.045Z</time></trkpt><trkpt lat="44.2786643" lon="8.1986514"><ele>694.5</ele><time>2026-05-03T09:44:19.044Z</time></trkpt><trkpt lat="44.2786235" lon="8.1985571"><ele>690.0</ele><time>2026-05-03T09:44:20.044Z</time></trkpt><trkpt lat="44.2785638" lon="8.1984797"><ele>685.5</ele><time>2026-05-03T09:44:21.045Z</time></trkpt><trkpt lat="44.2784806" lon="8.1984171"><ele>681.0</ele><time>2026-05-03T09:44:22.044Z</time></trkpt><trkpt lat="44.2783837" lon="8.1983741"><ele>681.0</ele><time>2026-05-03T09:44:23.045Z</time></trkpt><trkpt lat="44.2782826" lon="8.1983574"><ele>681.0</ele><time>2026-05-03T09:44:24.045Z</time></trkpt><trkpt lat="44.2781763" lon="8.1983586"><ele>681.0</ele><time>2026-05-03T09:44:25.045Z</time></trkpt><trkpt lat="44.2780624" lon="8.1983774"><ele>681.0</ele><time>2026-05-03T09:44:26.045Z</time></trkpt><trkpt lat="44.2779492" lon="8.1984051"><ele>681.0</ele><time>2026-05-03T09:44:27.045Z</time></trkpt><trkpt lat="44.2778294" lon="8.1984388"><ele>682.0</ele><time>2026-05-03T09:44:28.045Z</time></trkpt><trkpt lat="44.2777148" lon="8.1984709"><ele>683.0</ele><time>2026-05-03T09:44:29.045Z</time></trkpt><trkpt lat="44.2776072" lon="8.1984971"><ele>684.0</ele><time>2026-05-03T09:44:30.045Z</time></trkpt><trkpt lat="44.2775017" lon="8.1985045"><ele>685.0</ele><time>2026-05-03T09:44:31.045Z</time></trkpt><trkpt lat="44.2774075" lon="8.1984805"><ele>686.0</ele><time>2026-05-03T09:44:32.045Z</time></trkpt><trkpt lat="44.2773183" lon="8.1984116"><ele>686.8</ele><time>2026-05-03T09:44:33.045Z</time></trkpt><trkpt lat="44.2772448" lon="8.1982977"><ele>687.5999999999999</ele><time>2026-05-03T09:44:34.045Z</time></trkpt><trkpt lat="44.2771848" lon="8.1981692"><ele>688.4</ele><time>2026-05-03T09:44:35.045Z</time></trkpt><trkpt lat="44.2771378" lon="8.1980442"><ele>689.2</ele><time>2026-05-03T09:44:36.045Z</time></trkpt><trkpt lat="44.2771053" lon="8.1979341"><ele>690.0</ele><time>2026-05-03T09:44:37.045Z</time></trkpt><trkpt lat="44.2770715" lon="8.1978366"><ele>687.0</ele><time>2026-05-03T09:44:38.045Z</time></trkpt><trkpt lat="44.2770397" lon="8.1977354"><ele>684.0</ele><time>2026-05-03T09:44:39.044Z</time></trkpt><trkpt lat="44.2769706" lon="8.1976052"><ele>681.0</ele><time>2026-05-03T09:44:41.044Z</time></trkpt><trkpt lat="44.2768627" lon="8.1975713"><ele>678.0</ele><time>2026-05-03T09:44:43.045Z</time></trkpt><trkpt lat="44.2767549" lon="8.1976138"><ele>675.0</ele><time>2026-05-03T09:44:45.045Z</time></trkpt><trkpt lat="44.276653" lon="8.1976405"><ele>675.0</ele><time>2026-05-03T09:44:47.045Z</time></trkpt><trkpt lat="44.2765992" lon="8.1975836"><ele>675.0</ele><time>2026-05-03T09:44:48.045Z</time></trkpt><trkpt lat="44.2765572" lon="8.1975128"><ele>675.0</ele><time>2026-05-03T09:44:49.045Z</time></trkpt><trkpt lat="44.2765034" lon="8.1974114"><ele>675.0</ele><time>2026-05-03T09:44:51.046Z</time></trkpt><trkpt lat="44.2764536" lon="8.197313"><ele>675.0</ele><time>2026-05-03T09:44:53.045Z</time></trkpt><trkpt lat="44.2764178" lon="8.1972299"><ele>675.0</ele><time>2026-05-03T09:44:55.044Z</time></trkpt><trkpt lat="44.2763835" lon="8.1971387"><ele>676.5</ele><time>2026-05-03T09:44:57.046Z</time></trkpt><trkpt lat="44.2763669" lon="8.1970462"><ele>678.0</ele><time>2026-05-03T09:44:59.046Z</time></trkpt><trkpt lat="44.2763997" lon="8.1969299"><ele>679.5</ele><time>2026-05-03T09:45:01.046Z</time></trkpt><trkpt lat="44.2764498" lon="8.1968759"><ele>681.0</ele><time>2026-05-03T09:45:02.045Z</time></trkpt><trkpt lat="44.2765162" lon="8.1968176"><ele>682.5</ele><time>2026-05-03T09:45:03.046Z</time></trkpt><trkpt lat="44.2766012" lon="8.1967609"><ele>684.0</ele><time>2026-05-03T09:45:04.045Z</time></trkpt><trkpt lat="44.276714" lon="8.1967159"><ele>684.0</ele><time>2026-05-03T09:45:05.046Z</time></trkpt><trkpt lat="44.2768338" lon="8.1967103"><ele>684.0</ele><time>2026-05-03T09:45:06.046Z</time></trkpt><trkpt lat="44.2769574" lon="8.1967481"><ele>684.0</ele><time>2026-05-03T09:45:07.045Z</time></trkpt><trkpt lat="44.2770865" lon="8.1968116"><ele>684.0</ele><time>2026-05-03T09:45:08.045Z</time></trkpt><trkpt lat="44.2772067" lon="8.196881"><ele>685.8000000000001</ele><time>2026-05-03T09:45:09.045Z</time></trkpt><trkpt lat="44.2773153" lon="8.1969346"><ele>687.6</ele><time>2026-05-03T09:45:10.045Z</time></trkpt><trkpt lat="44.2774113" lon="8.1969812"><ele>689.4</ele><time>2026-05-03T09:45:11.045Z</time></trkpt><trkpt lat="44.2775048" lon="8.1970276"><ele>691.2</ele><time>2026-05-03T09:45:12.046Z</time></trkpt><trkpt lat="44.2776013" lon="8.1970763"><ele>693.0</ele><time>2026-05-03T09:45:13.045Z</time></trkpt><trkpt lat="44.2777044" lon="8.1971217"><ele>693.0</ele><time>2026-05-03T09:45:14.045Z</time></trkpt><trkpt lat="44.2778179" lon="8.1971788"><ele>693.0</ele><time>2026-05-03T09:45:15.046Z</time></trkpt><trkpt lat="44.2779282" lon="8.1972361"><ele>693.0</ele><time>2026-05-03T09:45:16.045Z</time></trkpt><trkpt lat="44.2780334" lon="8.1972972"><ele>693.0</ele><time>2026-05-03T09:45:17.046Z</time></trkpt><trkpt lat="44.2781341" lon="8.1973589"><ele>688.4</ele><time>2026-05-03T09:45:18.046Z</time></trkpt><trkpt lat="44.2782326" lon="8.1974164"><ele>683.8</ele><time>2026-05-03T09:45:19.045Z</time></trkpt><trkpt lat="44.27833" lon="8.197469"><ele>679.2</ele><time>2026-05-03T09:45:20.046Z</time></trkpt><trkpt lat="44.2784339" lon="8.1975216"><ele>674.6</ele><time>2026-05-03T09:45:21.046Z</time></trkpt><trkpt lat="44.2785454" lon="8.1975549"><ele>670.0</ele><time>2026-05-03T09:45:22.046Z</time></trkpt><trkpt lat="44.2786686" lon="8.1975674"><ele>670.0</ele><time>2026-05-03T09:45:23.045Z</time></trkpt><trkpt lat="44.2788058" lon="8.1975567"><ele>670.0</ele><time>2026-05-03T09:45:24.046Z</time></trkpt><trkpt lat="44.2789509" lon="8.1975336"><ele>670.0</ele><time>2026-05-03T09:45:25.046Z</time></trkpt><trkpt lat="44.2790993" lon="8.1975119"><ele>670.0</ele><time>2026-05-03T09:45:26.046Z</time></trkpt><trkpt lat="44.2792433" lon="8.1974932"><ele>669.0</ele><time>2026-05-03T09:45:27.045Z</time></trkpt><trkpt lat="44.2793783" lon="8.1974836"><ele>668.0</ele><time>2026-05-03T09:45:28.046Z</time></trkpt><trkpt lat="44.2795057" lon="8.1974862"><ele>667.0</ele><time>2026-05-03T09:45:29.046Z</time></trkpt><trkpt lat="44.2796322" lon="8.1974996"><ele>666.0</ele><time>2026-05-03T09:45:30.045Z</time></trkpt><trkpt lat="44.2797638" lon="8.1975252"><ele>666.75</ele><time>2026-05-03T09:45:31.046Z</time></trkpt><trkpt lat="44.2798923" lon="8.1975624"><ele>667.5</ele><time>2026-05-03T09:45:32.045Z</time></trkpt><trkpt lat="44.2800131" lon="8.1976168"><ele>668.25</ele><time>2026-05-03T09:45:33.046Z</time></trkpt><trkpt lat="44.2801329" lon="8.1976827"><ele>669.0</ele><time>2026-05-03T09:45:34.045Z</time></trkpt><trkpt lat="44.2802473" lon="8.1977737"><ele>669.0</ele><time>2026-05-03T09:45:35.046Z</time></trkpt><trkpt lat="44.2803598" lon="8.1979097"><ele>669.0</ele><time>2026-05-03T09:45:36.045Z</time></trkpt><trkpt lat="44.2804474" lon="8.1980738"><ele>669.0</ele><time>2026-05-03T09:45:37.046Z</time></trkpt><trkpt lat="44.280511" lon="8.1982475"><ele>669.0</ele><time>2026-05-03T09:45:38.046Z</time></trkpt><trkpt lat="44.2805358" lon="8.1984334"><ele>667.0</ele><time>2026-05-03T09:45:39.046Z</time></trkpt><trkpt lat="44.2805339" lon="8.1986198"><ele>665.0</ele><time>2026-05-03T09:45:40.046Z</time></trkpt><trkpt lat="44.2804954" lon="8.1987964"><ele>663.0</ele><time>2026-05-03T09:45:41.045Z</time></trkpt><trkpt lat="44.2804511" lon="8.1989691"><ele>661.0</ele><time>2026-05-03T09:45:42.045Z</time></trkpt><trkpt lat="44.280416" lon="8.199143"><ele>661.0</ele><time>2026-05-03T09:45:43.046Z</time></trkpt><trkpt lat="44.2803858" lon="8.1993112"><ele>661.0</ele><time>2026-05-03T09:45:44.046Z</time></trkpt><trkpt lat="44.2803587" lon="8.1994662"><ele>661.0</ele><time>2026-05-03T09:45:45.046Z</time></trkpt><trkpt lat="44.280336" lon="8.1996158"><ele>661.0</ele><time>2026-05-03T09:45:46.045Z</time></trkpt><trkpt lat="44.2803186" lon="8.1997581"><ele>660.4</ele><time>2026-05-03T09:45:47.045Z</time></trkpt><trkpt lat="44.2803095" lon="8.1998979"><ele>659.8</ele><time>2026-05-03T09:45:48.046Z</time></trkpt><trkpt lat="44.2803074" lon="8.2000383"><ele>659.1999999999999</ele><time>2026-05-03T09:45:49.046Z</time></trkpt><trkpt lat="44.2803151" lon="8.2001805"><ele>658.5999999999999</ele><time>2026-05-03T09:45:50.045Z</time></trkpt><trkpt lat="44.2803587" lon="8.2003278"><ele>658.0</ele><time>2026-05-03T09:45:51.046Z</time></trkpt><trkpt lat="44.2804298" lon="8.2004534"><ele>658.0</ele><time>2026-05-03T09:45:52.045Z</time></trkpt><trkpt lat="44.2805218" lon="8.2005477"><ele>658.0</ele><time>2026-05-03T09:45:53.046Z</time></trkpt><trkpt lat="44.2806234" lon="8.2006239"><ele>658.0</ele><time>2026-05-03T09:45:54.045Z</time></trkpt><trkpt lat="44.2807166" lon="8.2006938"><ele>658.0</ele><time>2026-05-03T09:45:55.045Z</time></trkpt><trkpt lat="44.2807975" lon="8.2007609"><ele>658.0</ele><time>2026-05-03T09:45:56.045Z</time></trkpt><trkpt lat="44.2808717" lon="8.2008288"><ele>658.2</ele><time>2026-05-03T09:45:57.046Z</time></trkpt><trkpt lat="44.2809469" lon="8.2008944"><ele>658.4</ele><time>2026-05-03T09:45:58.045Z</time></trkpt><trkpt lat="44.2810286" lon="8.2009724"><ele>658.6</ele><time>2026-05-03T09:45:59.046Z</time></trkpt><trkpt lat="44.2811133" lon="8.2010556"><ele>658.8000000000001</ele><time>2026-05-03T09:46:00.046Z</time></trkpt><trkpt lat="44.2812041" lon="8.2011424"><ele>659.0</ele><time>2026-05-03T09:46:01.046Z</time></trkpt><trkpt lat="44.2812958" lon="8.201234"><ele>659.0</ele><time>2026-05-03T09:46:02.046Z</time></trkpt><trkpt lat="44.2813872" lon="8.2013304"><ele>659.0</ele><time>2026-05-03T09:46:03.045Z</time></trkpt><trkpt lat="44.2814779" lon="8.2014198"><ele>659.0</ele><time>2026-05-03T09:46:04.046Z</time></trkpt><trkpt lat="44.2815708" lon="8.2015122"><ele>659.0</ele><time>2026-05-03T09:46:05.047Z</time></trkpt><trkpt lat="44.2816652" lon="8.2016043"><ele>658.75</ele><time>2026-05-03T09:46:06.046Z</time></trkpt><trkpt lat="44.2817573" lon="8.2016884"><ele>658.5</ele><time>2026-05-03T09:46:07.047Z</time></trkpt><trkpt lat="44.2818537" lon="8.2017715"><ele>658.25</ele><time>2026-05-03T09:46:08.047Z</time></trkpt><trkpt lat="44.281974" lon="8.2018402"><ele>658.0</ele><time>2026-05-03T09:46:09.047Z</time></trkpt><trkpt lat="44.2820973" lon="8.2019008"><ele>658.0</ele><time>2026-05-03T09:46:10.047Z</time></trkpt><trkpt lat="44.2822228" lon="8.2019538"><ele>658.0</ele><time>2026-05-03T09:46:11.047Z</time></trkpt><trkpt lat="44.2823428" lon="8.202006"><ele>658.0</ele><time>2026-05-03T09:46:12.047Z</time></trkpt><trkpt lat="44.2824657" lon="8.2020604"><ele>658.0</ele><time>2026-05-03T09:46:13.046Z</time></trkpt><trkpt lat="44.2825841" lon="8.2021129"><ele>658.75</ele><time>2026-05-03T09:46:14.047Z</time></trkpt><trkpt lat="44.2827079" lon="8.2021654"><ele>659.5</ele><time>2026-05-03T09:46:15.046Z</time></trkpt><trkpt lat="44.2828379" lon="8.2022238"><ele>660.25</ele><time>2026-05-03T09:46:16.047Z</time></trkpt><trkpt lat="44.2829688" lon="8.2022961"><ele>661.0</ele><time>2026-05-03T09:46:17.047Z</time></trkpt><trkpt lat="44.2830917" lon="8.2023818"><ele>659.25</ele><time>2026-05-03T09:46:18.047Z</time></trkpt><trkpt lat="44.2832043" lon="8.2024687"><ele>657.5</ele><time>2026-05-03T09:46:19.046Z</time></trkpt><trkpt lat="44.283306" lon="8.2025567"><ele>655.75</ele><time>2026-05-03T09:46:20.046Z</time></trkpt><trkpt lat="44.2834032" lon="8.202638"><ele>654.0</ele><time>2026-05-03T09:46:21.047Z</time></trkpt><trkpt lat="44.2834987" lon="8.2027167"><ele>654.0</ele><time>2026-05-03T09:46:22.046Z</time></trkpt><trkpt lat="44.2835976" lon="8.2027934"><ele>654.0</ele><time>2026-05-03T09:46:23.046Z</time></trkpt><trkpt lat="44.2837069" lon="8.2028711"><ele>654.0</ele><time>2026-05-03T09:46:24.047Z</time></trkpt><trkpt lat="44.2838298" lon="8.2029298"><ele>654.0</ele><time>2026-05-03T09:46:25.046Z</time></trkpt><trkpt lat="44.2839524" lon="8.2029643"><ele>654.4000000000001</ele><time>2026-05-03T09:46:26.046Z</time></trkpt><trkpt lat="44.2840748" lon="8.2029893"><ele>654.8</ele><time>2026-05-03T09:46:27.047Z</time></trkpt><trkpt lat="44.2841885" lon="8.2029973"><ele>655.2</ele><time>2026-05-03T09:46:28.046Z</time></trkpt><trkpt lat="44.2842953" lon="8.2029974"><ele>655.5999999999999</ele><time>2026-05-03T09:46:29.046Z</time></trkpt><trkpt lat="44.2843973" lon="8.2029819"><ele>656.0</ele><time>2026-05-03T09:46:30.046Z</time></trkpt><trkpt lat="44.2844924" lon="8.2029681"><ele>656.0</ele><time>2026-05-03T09:46:31.046Z</time></trkpt><trkpt lat="44.2845927" lon="8.2029584"><ele>656.0</ele><time>2026-05-03T09:46:32.046Z</time></trkpt><trkpt lat="44.2846909" lon="8.2029666"><ele>656.0</ele><time>2026-05-03T09:46:33.047Z</time></trkpt><trkpt lat="44.2847733" lon="8.2030013"><ele>656.0</ele><time>2026-05-03T09:46:34.047Z</time></trkpt><trkpt lat="44.284852" lon="8.2030594"><ele>656.0</ele><time>2026-05-03T09:46:35.047Z</time></trkpt><trkpt lat="44.2849108" lon="8.2031338"><ele>653.4</ele><time>2026-05-03T09:46:36.047Z</time></trkpt><trkpt lat="44.2849556" lon="8.2032561"><ele>650.8</ele><time>2026-05-03T09:46:37.047Z</time></trkpt><trkpt lat="44.284999" lon="8.2033723"><ele>648.1999999999999</ele><time>2026-05-03T09:46:38.047Z</time></trkpt><trkpt lat="44.2850331" lon="8.2034989"><ele>645.5999999999999</ele><time>2026-05-03T09:46:39.047Z</time></trkpt><trkpt lat="44.2850682" lon="8.2036167"><ele>643.0</ele><time>2026-05-03T09:46:40.047Z</time></trkpt><trkpt lat="44.285099" lon="8.2037237"><ele>643.0</ele><time>2026-05-03T09:46:41.047Z</time></trkpt><trkpt lat="44.2851265" lon="8.2038308"><ele>643.0</ele><time>2026-05-03T09:46:42.046Z</time></trkpt><trkpt lat="44.2851534" lon="8.2039356"><ele>643.0</ele><time>2026-05-03T09:46:43.047Z</time></trkpt><trkpt lat="44.2851815" lon="8.2040381"><ele>643.0</ele><time>2026-05-03T09:46:44.047Z</time></trkpt><trkpt lat="44.2852171" lon="8.2041247"><ele>643.0</ele><time>2026-05-03T09:46:45.047Z</time></trkpt><trkpt lat="44.285261" lon="8.2042023"><ele>643.0</ele><time>2026-05-03T09:46:46.046Z</time></trkpt><trkpt lat="44.285326" lon="8.204253"><ele>643.2</ele><time>2026-05-03T09:46:47.046Z</time></trkpt><trkpt lat="44.2853985" lon="8.2042979"><ele>643.4</ele><time>2026-05-03T09:46:48.047Z</time></trkpt><trkpt lat="44.2855084" lon="8.2043013"><ele>643.6</ele><time>2026-05-03T09:46:49.046Z</time></trkpt><trkpt lat="44.2856172" lon="8.2042752"><ele>643.8000000000001</ele><time>2026-05-03T09:46:50.046Z</time></trkpt><trkpt lat="44.2857169" lon="8.2042493"><ele>644.0</ele><time>2026-05-03T09:46:51.046Z</time></trkpt><trkpt lat="44.2857977" lon="8.2042326"><ele>644.5</ele><time>2026-05-03T09:46:52.046Z</time></trkpt><trkpt lat="44.2858682" lon="8.2042172"><ele>645.0</ele><time>2026-05-03T09:46:53.046Z</time></trkpt><trkpt lat="44.2859361" lon="8.2041989"><ele>645.5</ele><time>2026-05-03T09:46:54.046Z</time></trkpt><trkpt lat="44.2860042" lon="8.2041771"><ele>646.0</ele><time>2026-05-03T09:46:55.047Z</time></trkpt><trkpt lat="44.286081" lon="8.2041559"><ele>646.5</ele><time>2026-05-03T09:46:56.047Z</time></trkpt><trkpt lat="44.28617" lon="8.2041342"><ele>647.0</ele><time>2026-05-03T09:46:57.046Z</time></trkpt><trkpt lat="44.2862628" lon="8.2041093"><ele>647.0</ele><time>2026-05-03T09:46:58.047Z</time></trkpt><trkpt lat="44.2863624" lon="8.2040852"><ele>647.0</ele><time>2026-05-03T09:46:59.046Z</time></trkpt><trkpt lat="44.2864774" lon="8.204061"><ele>647.0</ele><time>2026-05-03T09:47:00.047Z</time></trkpt><trkpt lat="44.2866062" lon="8.20403"><ele>647.0</ele><time>2026-05-03T09:47:01.047Z</time></trkpt><trkpt lat="44.2867453" lon="8.2040128"><ele>645.25</ele><time>2026-05-03T09:47:02.047Z</time></trkpt><trkpt lat="44.2868775" lon="8.203992"><ele>643.5</ele><time>2026-05-03T09:47:03.047Z</time></trkpt><trkpt lat="44.2870054" lon="8.2039568"><ele>641.75</ele><time>2026-05-03T09:47:04.047Z</time></trkpt><trkpt lat="44.2871236" lon="8.2038687"><ele>640.0</ele><time>2026-05-03T09:47:05.048Z</time></trkpt><trkpt lat="44.2872183" lon="8.2037279"><ele>641.0</ele><time>2026-05-03T09:47:06.046Z</time></trkpt><trkpt lat="44.2873016" lon="8.2036014"><ele>642.0</ele><time>2026-05-03T09:47:07.047Z</time></trkpt><trkpt lat="44.2873866" lon="8.2035151"><ele>643.0</ele><time>2026-05-03T09:47:08.047Z</time></trkpt><trkpt lat="44.2874829" lon="8.2034613"><ele>644.0</ele><time>2026-05-03T09:47:09.046Z</time></trkpt><trkpt lat="44.2875866" lon="8.2034279"><ele>645.0</ele><time>2026-05-03T09:47:10.047Z</time></trkpt><trkpt lat="44.2876941" lon="8.2033953"><ele>645.0</ele><time>2026-05-03T09:47:11.048Z</time></trkpt><trkpt lat="44.2878016" lon="8.2033674"><ele>645.0</ele><time>2026-05-03T09:47:12.048Z</time></trkpt><trkpt lat="44.287908" lon="8.2033469"><ele>645.0</ele><time>2026-05-03T09:47:13.047Z</time></trkpt><trkpt lat="44.2880131" lon="8.2033376"><ele>645.0</ele><time>2026-05-03T09:47:14.048Z</time></trkpt><trkpt lat="44.2881202" lon="8.2033305"><ele>645.0</ele><time>2026-05-03T09:47:15.048Z</time></trkpt><trkpt lat="44.2882317" lon="8.2033109"><ele>645.75</ele><time>2026-05-03T09:47:16.048Z</time></trkpt><trkpt lat="44.2883487" lon="8.2032685"><ele>646.5</ele><time>2026-05-03T09:47:17.048Z</time></trkpt><trkpt lat="44.2884666" lon="8.2031959"><ele>647.25</ele><time>2026-05-03T09:47:18.048Z</time></trkpt><trkpt lat="44.2885831" lon="8.2031029"><ele>648.0</ele><time>2026-05-03T09:47:19.048Z</time></trkpt><trkpt lat="44.2886956" lon="8.2029955"><ele>646.5</ele><time>2026-05-03T09:47:20.048Z</time></trkpt><trkpt lat="44.288808" lon="8.2028889"><ele>645.0</ele><time>2026-05-03T09:47:21.048Z</time></trkpt><trkpt lat="44.2889188" lon="8.202778"><ele>643.5</ele><time>2026-05-03T09:47:22.047Z</time></trkpt><trkpt lat="44.2890281" lon="8.2026576"><ele>642.0</ele><time>2026-05-03T09:47:23.048Z</time></trkpt><trkpt lat="44.2891353" lon="8.2025341"><ele>642.0</ele><time>2026-05-03T09:47:24.048Z</time></trkpt><trkpt lat="44.2892433" lon="8.2024223"><ele>642.0</ele><time>2026-05-03T09:47:25.047Z</time></trkpt><trkpt lat="44.2893614" lon="8.2023399"><ele>642.0</ele><time>2026-05-03T09:47:26.047Z</time></trkpt><trkpt lat="44.2894854" lon="8.2022914"><ele>642.0</ele><time>2026-05-03T09:47:27.047Z</time></trkpt><trkpt lat="44.289614" lon="8.2022572"><ele>640.8000000000001</ele><time>2026-05-03T09:47:28.048Z</time></trkpt><trkpt lat="44.2897324" lon="8.2022153"><ele>639.6</ele><time>2026-05-03T09:47:29.047Z</time></trkpt><trkpt lat="44.2898403" lon="8.2021705"><ele>638.4000000000001</ele><time>2026-05-03T09:47:30.048Z</time></trkpt><trkpt lat="44.289942" lon="8.2021261"><ele>637.2</ele><time>2026-05-03T09:47:31.048Z</time></trkpt><trkpt lat="44.2900357" lon="8.2020876"><ele>636.0</ele><time>2026-05-03T09:47:32.047Z</time></trkpt><trkpt lat="44.2901245" lon="8.2020537"><ele>636.0</ele><time>2026-05-03T09:47:33.048Z</time></trkpt><trkpt lat="44.2902092" lon="8.2020209"><ele>636.0</ele><time>2026-05-03T09:47:34.048Z</time></trkpt><trkpt lat="44.290291" lon="8.2019862"><ele>636.0</ele><time>2026-05-03T09:47:35.047Z</time></trkpt><trkpt lat="44.2903595" lon="8.2019566"><ele>636.0</ele><time>2026-05-03T09:47:36.048Z</time></trkpt><trkpt lat="44.2904602" lon="8.2019071"><ele>636.0</ele><time>2026-05-03T09:47:38.048Z</time></trkpt><trkpt lat="44.2905329" lon="8.2018707"><ele>636.0</ele><time>2026-05-03T09:47:40.047Z</time></trkpt><trkpt lat="44.2905793" lon="8.2017925"><ele>636.0</ele><time>2026-05-03T09:47:43.047Z</time></trkpt><trkpt lat="44.2906111" lon="8.2017141"><ele>641.0</ele><time>2026-05-03T09:47:48.048Z</time></trkpt><trkpt lat="44.2906699" lon="8.2017478"><ele>641.0</ele><time>2026-05-03T09:49:48.049Z</time></trkpt></trkseg><trkseg><trkpt lat="44.2907511" lon="8.2016425"><ele>641.0</ele><time>2026-05-03T11:04:42.061Z</time></trkpt><trkpt lat="44.2906901" lon="8.2017107"><ele>641.0</ele><time>2026-05-03T11:04:44.083Z</time></trkpt><trkpt lat="44.290633" lon="8.2017596"><ele>641.0</ele><time>2026-05-03T11:04:48.171Z</time></trkpt><trkpt lat="44.2906989" lon="8.2017917"><ele>641.0</ele><time>2026-05-03T11:06:34.122Z</time></trkpt><trkpt lat="44.2908047" lon="8.2017998"><ele>641.0</ele><time>2026-05-03T11:06:36.122Z</time></trkpt><trkpt lat="44.2908784" lon="8.2017664"><ele>641.0</ele><time>2026-05-03T11:06:37.121Z</time></trkpt><trkpt lat="44.2909778" lon="8.2017345"><ele>641.0</ele><time>2026-05-03T11:06:38.121Z</time></trkpt><trkpt lat="44.2910911" lon="8.2017017"><ele>641.0</ele><time>2026-05-03T11:06:39.122Z</time></trkpt><trkpt lat="44.2912163" lon="8.2016907"><ele>641.0</ele><time>2026-05-03T11:06:40.124Z</time></trkpt><trkpt lat="44.2913442" lon="8.2017055"><ele>641.0</ele><time>2026-05-03T11:06:41.121Z</time></trkpt><trkpt lat="44.2914609" lon="8.2017205"><ele>641.75</ele><time>2026-05-03T11:06:42.122Z</time></trkpt><trkpt lat="44.2915791" lon="8.2017253"><ele>642.5</ele><time>2026-05-03T11:06:43.122Z</time></trkpt><trkpt lat="44.291701" lon="8.2017231"><ele>643.25</ele><time>2026-05-03T11:06:44.121Z</time></trkpt><trkpt lat="44.2918435" lon="8.2017105"><ele>644.0</ele><time>2026-05-03T11:06:45.122Z</time></trkpt><trkpt lat="44.2919847" lon="8.2017366"><ele>644.0</ele><time>2026-05-03T11:06:46.122Z</time></trkpt><trkpt lat="44.2921287" lon="8.2018011"><ele>644.0</ele><time>2026-05-03T11:06:47.121Z</time></trkpt><trkpt lat="44.2922812" lon="8.2018691"><ele>644.0</ele><time>2026-05-03T11:06:48.122Z</time></trkpt><trkpt lat="44.2924255" lon="8.2019271"><ele>643.3333333333333</ele><time>2026-05-03T11:06:49.122Z</time></trkpt><trkpt lat="44.2925801" lon="8.2019641"><ele>642.6666666666666</ele><time>2026-05-03T11:06:50.123Z</time></trkpt><trkpt lat="44.2927291" lon="8.2019812"><ele>642.0</ele><time>2026-05-03T11:06:51.122Z</time></trkpt><trkpt lat="44.2928837" lon="8.2019728"><ele>642.0</ele><time>2026-05-03T11:06:52.123Z</time></trkpt><trkpt lat="44.2930463" lon="8.2019581"><ele>642.0</ele><time>2026-05-03T11:06:53.123Z</time></trkpt><trkpt lat="44.2932098" lon="8.2019482"><ele>642.0</ele><time>2026-05-03T11:06:54.123Z</time></trkpt><trkpt lat="44.2933693" lon="8.2019409"><ele>640.6666666666666</ele><time>2026-05-03T11:06:55.122Z</time></trkpt><trkpt lat="44.2935187" lon="8.2019344"><ele>639.3333333333333</ele><time>2026-05-03T11:06:56.122Z</time></trkpt><trkpt lat="44.2936682" lon="8.2019352"><ele>638.0</ele><time>2026-05-03T11:06:57.122Z</time></trkpt><trkpt lat="44.2938202" lon="8.2019246"><ele>637.0</ele><time>2026-05-03T11:06:58.123Z</time></trkpt><trkpt lat="44.2939654" lon="8.2019085"><ele>636.0</ele><time>2026-05-03T11:06:59.122Z</time></trkpt><trkpt lat="44.2941003" lon="8.2019032"><ele>635.0</ele><time>2026-05-03T11:07:00.123Z</time></trkpt><trkpt lat="44.2942221" lon="8.2019062"><ele>634.0</ele><time>2026-05-03T11:07:01.122Z</time></trkpt><trkpt lat="44.2943491" lon="8.2018974"><ele>634.0</ele><time>2026-05-03T11:07:02.123Z</time></trkpt><trkpt lat="44.2944865" lon="8.2018875"><ele>634.0</ele><time>2026-05-03T11:07:03.123Z</time></trkpt><trkpt lat="44.2946289" lon="8.2018714"><ele>634.0</ele><time>2026-05-03T11:07:04.123Z</time></trkpt><trkpt lat="44.2947732" lon="8.201873"><ele>634.0</ele><time>2026-05-03T11:07:05.122Z</time></trkpt><trkpt lat="44.294922" lon="8.2018715"><ele>635.3333333333334</ele><time>2026-05-03T11:07:06.123Z</time></trkpt><trkpt lat="44.2950727" lon="8.2018819"><ele>636.6666666666666</ele><time>2026-05-03T11:07:07.123Z</time></trkpt><trkpt lat="44.2952286" lon="8.201911"><ele>638.0</ele><time>2026-05-03T11:07:08.122Z</time></trkpt><trkpt lat="44.2953846" lon="8.2019281"><ele>638.0</ele><time>2026-05-03T11:07:09.123Z</time></trkpt><trkpt lat="44.2955359" lon="8.2019454"><ele>638.0</ele><time>2026-05-03T11:07:10.122Z</time></trkpt><trkpt lat="44.2957029" lon="8.2019507"><ele>638.0</ele><time>2026-05-03T11:07:11.122Z</time></trkpt><trkpt lat="44.295865" lon="8.2019565"><ele>639.3333333333333</ele><time>2026-05-03T11:07:12.123Z</time></trkpt><trkpt lat="44.2960171" lon="8.2019632"><ele>640.6666666666666</ele><time>2026-05-03T11:07:13.122Z</time></trkpt><trkpt lat="44.2961837" lon="8.2019717"><ele>642.0</ele><time>2026-05-03T11:07:14.122Z</time></trkpt><trkpt lat="44.2963484" lon="8.2019804"><ele>641.0</ele><time>2026-05-03T11:07:15.123Z</time></trkpt><trkpt lat="44.2965124" lon="8.2019738"><ele>640.0</ele><time>2026-05-03T11:07:16.122Z</time></trkpt><trkpt lat="44.2966804" lon="8.2019398"><ele>639.0</ele><time>2026-05-03T11:07:17.123Z</time></trkpt><trkpt lat="44.2968451" lon="8.2018875"><ele>639.0</ele><time>2026-05-03T11:07:18.123Z</time></trkpt><trkpt lat="44.2970134" lon="8.2018176"><ele>639.0</ele><time>2026-05-03T11:07:19.123Z</time></trkpt><trkpt lat="44.2971831" lon="8.2017525"><ele>639.0</ele><time>2026-05-03T11:07:20.123Z</time></trkpt><trkpt lat="44.297361" lon="8.2016897"><ele>641.0</ele><time>2026-05-03T11:07:21.123Z</time></trkpt><trkpt lat="44.2975272" lon="8.2016378"><ele>643.0</ele><time>2026-05-03T11:07:22.122Z</time></trkpt><trkpt lat="44.2976887" lon="8.2015892"><ele>645.0</ele><time>2026-05-03T11:07:23.122Z</time></trkpt><trkpt lat="44.2978421" lon="8.2015384"><ele>642.6666666666666</ele><time>2026-05-03T11:07:24.123Z</time></trkpt><trkpt lat="44.2979898" lon="8.201479"><ele>640.3333333333333</ele><time>2026-05-03T11:07:25.123Z</time></trkpt><trkpt lat="44.2981344" lon="8.2014115"><ele>638.0</ele><time>2026-05-03T11:07:26.122Z</time></trkpt><trkpt lat="44.2982762" lon="8.2013371"><ele>638.0</ele><time>2026-05-03T11:07:27.122Z</time></trkpt><trkpt lat="44.2984154" lon="8.2012533"><ele>638.0</ele><time>2026-05-03T11:07:28.123Z</time></trkpt><trkpt lat="44.298546" lon="8.2011682"><ele>638.0</ele><time>2026-05-03T11:07:29.123Z</time></trkpt><trkpt lat="44.2986843" lon="8.2010845"><ele>638.0</ele><time>2026-05-03T11:07:30.123Z</time></trkpt><trkpt lat="44.2988152" lon="8.2010113"><ele>640.75</ele><time>2026-05-03T11:07:31.123Z</time></trkpt><trkpt lat="44.298948" lon="8.2009526"><ele>643.5</ele><time>2026-05-03T11:07:32.123Z</time></trkpt><trkpt lat="44.2990691" lon="8.2008906"><ele>646.25</ele><time>2026-05-03T11:07:33.123Z</time></trkpt><trkpt lat="44.2991816" lon="8.2008225"><ele>649.0</ele><time>2026-05-03T11:07:34.122Z</time></trkpt><trkpt lat="44.2992871" lon="8.2007318"><ele>645.0</ele><time>2026-05-03T11:07:35.122Z</time></trkpt><trkpt lat="44.29939" lon="8.2006055"><ele>641.0</ele><time>2026-05-03T11:07:36.123Z</time></trkpt><trkpt lat="44.2994958" lon="8.2004494"><ele>637.0</ele><time>2026-05-03T11:07:37.122Z</time></trkpt><trkpt lat="44.2995925" lon="8.2002831"><ele>633.0</ele><time>2026-05-03T11:07:38.123Z</time></trkpt><trkpt lat="44.2996862" lon="8.2001135"><ele>633.25</ele><time>2026-05-03T11:07:39.123Z</time></trkpt><trkpt lat="44.299777" lon="8.1999556"><ele>633.5</ele><time>2026-05-03T11:07:40.123Z</time></trkpt><trkpt lat="44.2998608" lon="8.1998074"><ele>633.75</ele><time>2026-05-03T11:07:41.122Z</time></trkpt><trkpt lat="44.2999399" lon="8.1996645"><ele>634.0</ele><time>2026-05-03T11:07:42.123Z</time></trkpt><trkpt lat="44.3000224" lon="8.1995276"><ele>634.0</ele><time>2026-05-03T11:07:43.123Z</time></trkpt><trkpt lat="44.3001099" lon="8.1994039"><ele>634.0</ele><time>2026-05-03T11:07:44.122Z</time></trkpt><trkpt lat="44.3002094" lon="8.1992918"><ele>634.0</ele><time>2026-05-03T11:07:45.122Z</time></trkpt><trkpt lat="44.300327" lon="8.1992006"><ele>634.0</ele><time>2026-05-03T11:07:46.123Z</time></trkpt><trkpt lat="44.3004498" lon="8.1991329"><ele>634.0</ele><time>2026-05-03T11:07:47.123Z</time></trkpt><trkpt lat="44.300564" lon="8.1990861"><ele>634.0</ele><time>2026-05-03T11:07:48.122Z</time></trkpt><trkpt lat="44.3006715" lon="8.1990667"><ele>634.0</ele><time>2026-05-03T11:07:49.123Z</time></trkpt><trkpt lat="44.3007855" lon="8.1990903"><ele>634.0</ele><time>2026-05-03T11:07:50.123Z</time></trkpt><trkpt lat="44.3009077" lon="8.1991388"><ele>636.75</ele><time>2026-05-03T11:07:51.123Z</time></trkpt><trkpt lat="44.3010367" lon="8.1991999"><ele>639.5</ele><time>2026-05-03T11:07:52.123Z</time></trkpt><trkpt lat="44.3011683" lon="8.1992242"><ele>642.25</ele><time>2026-05-03T11:07:53.123Z</time></trkpt><trkpt lat="44.3012803" lon="8.1992022"><ele>645.0</ele><time>2026-05-03T11:07:54.123Z</time></trkpt><trkpt lat="44.3013906" lon="8.1991542"><ele>647.5</ele><time>2026-05-03T11:07:55.123Z</time></trkpt><trkpt lat="44.3015018" lon="8.1990978"><ele>650.0</ele><time>2026-05-03T11:07:56.123Z</time></trkpt><trkpt lat="44.3016092" lon="8.1990355"><ele>652.5</ele><time>2026-05-03T11:07:57.122Z</time></trkpt><trkpt lat="44.301716" lon="8.1989675"><ele>655.0</ele><time>2026-05-03T11:07:58.122Z</time></trkpt><trkpt lat="44.3018224" lon="8.198889"><ele>649.75</ele><time>2026-05-03T11:07:59.122Z</time></trkpt><trkpt lat="44.3019273" lon="8.1987862"><ele>644.5</ele><time>2026-05-03T11:08:00.122Z</time></trkpt><trkpt lat="44.302021" lon="8.1986555"><ele>639.25</ele><time>2026-05-03T11:08:01.123Z</time></trkpt><trkpt lat="44.3021073" lon="8.1984971"><ele>634.0</ele><time>2026-05-03T11:08:02.124Z</time></trkpt><trkpt lat="44.302182" lon="8.1983439"><ele>634.0</ele><time>2026-05-03T11:08:03.123Z</time></trkpt><trkpt lat="44.3022423" lon="8.1981758"><ele>634.0</ele><time>2026-05-03T11:08:04.124Z</time></trkpt><trkpt lat="44.3022944" lon="8.1980035"><ele>634.0</ele><time>2026-05-03T11:08:05.123Z</time></trkpt><trkpt lat="44.3023476" lon="8.1978428"><ele>634.0</ele><time>2026-05-03T11:08:06.124Z</time></trkpt><trkpt lat="44.3024065" lon="8.1976867"><ele>633.25</ele><time>2026-05-03T11:08:07.124Z</time></trkpt><trkpt lat="44.3024844" lon="8.1975423"><ele>632.5</ele><time>2026-05-03T11:08:08.123Z</time></trkpt><trkpt lat="44.3025826" lon="8.1974138"><ele>631.75</ele><time>2026-05-03T11:08:09.124Z</time></trkpt><trkpt lat="44.3026938" lon="8.1973059"><ele>631.0</ele><time>2026-05-03T11:08:10.123Z</time></trkpt><trkpt lat="44.3028152" lon="8.1972209"><ele>631.0</ele><time>2026-05-03T11:08:11.123Z</time></trkpt><trkpt lat="44.3029451" lon="8.1971567"><ele>631.0</ele><time>2026-05-03T11:08:12.124Z</time></trkpt><trkpt lat="44.303086" lon="8.1971121"><ele>631.0</ele><time>2026-05-03T11:08:13.123Z</time></trkpt><trkpt lat="44.3032409" lon="8.1970814"><ele>631.0</ele><time>2026-05-03T11:08:14.124Z</time></trkpt><trkpt lat="44.3034064" lon="8.1970532"><ele>631.6666666666667</ele><time>2026-05-03T11:08:15.124Z</time></trkpt><trkpt lat="44.3035606" lon="8.1970156"><ele>632.3333333333334</ele><time>2026-05-03T11:08:16.123Z</time></trkpt><trkpt lat="44.3037078" lon="8.1969726"><ele>633.0</ele><time>2026-05-03T11:08:17.124Z</time></trkpt><trkpt lat="44.3038539" lon="8.1969229"><ele>636.0</ele><time>2026-05-03T11:08:18.124Z</time></trkpt><trkpt lat="44.3039945" lon="8.1968614"><ele>639.0</ele><time>2026-05-03T11:08:19.124Z</time></trkpt><trkpt lat="44.3041257" lon="8.1967731"><ele>642.0</ele><time>2026-05-03T11:08:20.124Z</time></trkpt><trkpt lat="44.3042582" lon="8.1966663"><ele>645.0</ele><time>2026-05-03T11:08:21.123Z</time></trkpt><trkpt lat="44.3043874" lon="8.1965341"><ele>640.3333333333334</ele><time>2026-05-03T11:08:22.123Z</time></trkpt><trkpt lat="44.3045074" lon="8.1963932"><ele>635.6666666666667</ele><time>2026-05-03T11:08:23.123Z</time></trkpt><trkpt lat="44.304622" lon="8.1962438"><ele>631.0</ele><time>2026-05-03T11:08:24.123Z</time></trkpt><trkpt lat="44.3047432" lon="8.1960842"><ele>631.3333333333334</ele><time>2026-05-03T11:08:25.124Z</time></trkpt><trkpt lat="44.3048766" lon="8.1959237"><ele>631.6666666666666</ele><time>2026-05-03T11:08:26.124Z</time></trkpt><trkpt lat="44.3050193" lon="8.1957687"><ele>632.0</ele><time>2026-05-03T11:08:27.124Z</time></trkpt><trkpt lat="44.3051661" lon="8.1956346"><ele>632.0</ele><time>2026-05-03T11:08:28.124Z</time></trkpt><trkpt lat="44.30531" lon="8.1955199"><ele>632.0</ele><time>2026-05-03T11:08:29.124Z</time></trkpt><trkpt lat="44.3054422" lon="8.195424"><ele>632.0</ele><time>2026-05-03T11:08:30.124Z</time></trkpt><trkpt lat="44.3055678" lon="8.1953323"><ele>635.25</ele><time>2026-05-03T11:08:31.123Z</time></trkpt><trkpt lat="44.3056918" lon="8.195246"><ele>638.5</ele><time>2026-05-03T11:08:32.124Z</time></trkpt><trkpt lat="44.3058114" lon="8.1951593"><ele>641.75</ele><time>2026-05-03T11:08:33.123Z</time></trkpt><trkpt lat="44.3059268" lon="8.1950758"><ele>645.0</ele><time>2026-05-03T11:08:34.124Z</time></trkpt><trkpt lat="44.3060341" lon="8.1950089"><ele>645.0</ele><time>2026-05-03T11:08:35.124Z</time></trkpt><trkpt lat="44.3061524" lon="8.1949906"><ele>645.0</ele><time>2026-05-03T11:08:36.123Z</time></trkpt><trkpt lat="44.306288" lon="8.1950363"><ele>645.0</ele><time>2026-05-03T11:08:37.124Z</time></trkpt><trkpt lat="44.3064217" lon="8.1951343"><ele>645.0</ele><time>2026-05-03T11:08:38.123Z</time></trkpt><trkpt lat="44.3065746" lon="8.1952928"><ele>643.0</ele><time>2026-05-03T11:08:39.124Z</time></trkpt><trkpt lat="44.3067206" lon="8.1954447"><ele>641.0</ele><time>2026-05-03T11:08:40.123Z</time></trkpt><trkpt lat="44.3068417" lon="8.1955615"><ele>639.0</ele><time>2026-05-03T11:08:41.124Z</time></trkpt><trkpt lat="44.3069568" lon="8.1956516"><ele>639.75</ele><time>2026-05-03T11:08:42.124Z</time></trkpt><trkpt lat="44.3070739" lon="8.1957342"><ele>640.5</ele><time>2026-05-03T11:08:43.123Z</time></trkpt><trkpt lat="44.3071824" lon="8.1958002"><ele>641.25</ele><time>2026-05-03T11:08:44.124Z</time></trkpt><trkpt lat="44.307277" lon="8.1958501"><ele>642.0</ele><time>2026-05-03T11:08:45.124Z</time></trkpt><trkpt lat="44.3073732" lon="8.1959043"><ele>642.0</ele><time>2026-05-03T11:08:46.124Z</time></trkpt><trkpt lat="44.3074698" lon="8.1959972"><ele>642.0</ele><time>2026-05-03T11:08:47.125Z</time></trkpt><trkpt lat="44.3075567" lon="8.1961436"><ele>642.0</ele><time>2026-05-03T11:08:48.123Z</time></trkpt><trkpt lat="44.3076443" lon="8.1963129"><ele>642.0</ele><time>2026-05-03T11:08:49.123Z</time></trkpt><trkpt lat="44.3077466" lon="8.1964986"><ele>640.0</ele><time>2026-05-03T11:08:50.124Z</time></trkpt><trkpt lat="44.3078632" lon="8.1966622"><ele>638.0</ele><time>2026-05-03T11:08:51.123Z</time></trkpt><trkpt lat="44.3079891" lon="8.1967866"><ele>636.0</ele><time>2026-05-03T11:08:52.124Z</time></trkpt><trkpt lat="44.3081138" lon="8.1969112"><ele>636.0</ele><time>2026-05-03T11:08:53.123Z</time></trkpt><trkpt lat="44.3082321" lon="8.1970408"><ele>636.0</ele><time>2026-05-03T11:08:54.124Z</time></trkpt><trkpt lat="44.3083438" lon="8.197167"><ele>636.0</ele><time>2026-05-03T11:08:55.123Z</time></trkpt><trkpt lat="44.3084513" lon="8.1972902"><ele>636.0</ele><time>2026-05-03T11:08:56.124Z</time></trkpt><trkpt lat="44.308559" lon="8.1974124"><ele>635.75</ele><time>2026-05-03T11:08:57.124Z</time></trkpt><trkpt lat="44.3086661" lon="8.1975361"><ele>635.5</ele><time>2026-05-03T11:08:58.123Z</time></trkpt><trkpt lat="44.3087735" lon="8.1976553"><ele>635.25</ele><time>2026-05-03T11:08:59.124Z</time></trkpt><trkpt lat="44.3088784" lon="8.1977646"><ele>635.0</ele><time>2026-05-03T11:09:00.123Z</time></trkpt><trkpt lat="44.3089777" lon="8.1978641"><ele>635.0</ele><time>2026-05-03T11:09:01.124Z</time></trkpt><trkpt lat="44.3090767" lon="8.1979655"><ele>635.0</ele><time>2026-05-03T11:09:02.123Z</time></trkpt><trkpt lat="44.3091748" lon="8.198074"><ele>635.0</ele><time>2026-05-03T11:09:03.124Z</time></trkpt><trkpt lat="44.3092752" lon="8.1981933"><ele>635.0</ele><time>2026-05-03T11:09:04.124Z</time></trkpt><trkpt lat="44.3093737" lon="8.1983185"><ele>634.25</ele><time>2026-05-03T11:09:05.123Z</time></trkpt><trkpt lat="44.3094694" lon="8.198444"><ele>633.5</ele><time>2026-05-03T11:09:06.124Z</time></trkpt><trkpt lat="44.309567" lon="8.1985685"><ele>632.75</ele><time>2026-05-03T11:09:07.124Z</time></trkpt><trkpt lat="44.3096674" lon="8.198691"><ele>632.0</ele><time>2026-05-03T11:09:08.123Z</time></trkpt><trkpt lat="44.3097636" lon="8.1988029"><ele>632.0</ele><time>2026-05-03T11:09:09.123Z</time></trkpt><trkpt lat="44.3098556" lon="8.1988988"><ele>632.0</ele><time>2026-05-03T11:09:10.125Z</time></trkpt><trkpt lat="44.3099437" lon="8.1989716"><ele>632.0</ele><time>2026-05-03T11:09:11.125Z</time></trkpt><trkpt lat="44.3100399" lon="8.1990249"><ele>632.0</ele><time>2026-05-03T11:09:12.125Z</time></trkpt><trkpt lat="44.3101459" lon="8.1990623"><ele>632.0</ele><time>2026-05-03T11:09:13.124Z</time></trkpt><trkpt lat="44.3102564" lon="8.199095"><ele>631.0</ele><time>2026-05-03T11:09:14.125Z</time></trkpt><trkpt lat="44.3103586" lon="8.1991248"><ele>630.0</ele><time>2026-05-03T11:09:15.125Z</time></trkpt><trkpt lat="44.3104506" lon="8.1991519"><ele>629.0</ele><time>2026-05-03T11:09:16.124Z</time></trkpt><trkpt lat="44.3105338" lon="8.1991592"><ele>628.0</ele><time>2026-05-03T11:09:17.125Z</time></trkpt><trkpt lat="44.3106248" lon="8.1991803"><ele>627.0</ele><time>2026-05-03T11:09:18.125Z</time></trkpt><trkpt lat="44.3107151" lon="8.1992464"><ele>627.0</ele><time>2026-05-03T11:09:19.125Z</time></trkpt><trkpt lat="44.3107888" lon="8.1993694"><ele>627.0</ele><time>2026-05-03T11:09:20.124Z</time></trkpt><trkpt lat="44.3108325" lon="8.1995086"><ele>627.0</ele><time>2026-05-03T11:09:21.125Z</time></trkpt><trkpt lat="44.3108313" lon="8.1996703"><ele>627.0</ele><time>2026-05-03T11:09:22.125Z</time></trkpt><trkpt lat="44.3107901" lon="8.1998348"><ele>628.75</ele><time>2026-05-03T11:09:23.124Z</time></trkpt><trkpt lat="44.3107373" lon="8.2000053"><ele>630.5</ele><time>2026-05-03T11:09:24.125Z</time></trkpt><trkpt lat="44.3106875" lon="8.2001572"><ele>632.25</ele><time>2026-05-03T11:09:25.125Z</time></trkpt><trkpt lat="44.3106315" lon="8.2002947"><ele>634.0</ele><time>2026-05-03T11:09:26.125Z</time></trkpt><trkpt lat="44.3105717" lon="8.2004221"><ele>639.8333333333334</ele><time>2026-05-03T11:09:27.125Z</time></trkpt><trkpt lat="44.3105213" lon="8.2005357"><ele>645.6666666666667</ele><time>2026-05-03T11:09:28.124Z</time></trkpt><trkpt lat="44.3104799" lon="8.2006505"><ele>651.5</ele><time>2026-05-03T11:09:29.125Z</time></trkpt><trkpt lat="44.3104399" lon="8.2007519"><ele>657.3333333333334</ele><time>2026-05-03T11:09:30.124Z</time></trkpt><trkpt lat="44.3103977" lon="8.2008982"><ele>663.1666666666666</ele><time>2026-05-03T11:09:32.124Z</time></trkpt><trkpt lat="44.310427" lon="8.2009778"><ele>669.0</ele><time>2026-05-03T11:09:34.125Z</time></trkpt><trkpt lat="44.3105546" lon="8.2010169"><ele>661.2</ele><time>2026-05-03T11:09:36.125Z</time></trkpt><trkpt lat="44.310675" lon="8.2010016"><ele>653.4000000000001</ele><time>2026-05-03T11:09:37.125Z</time></trkpt><trkpt lat="44.3107853" lon="8.2009916"><ele>645.6</ele><time>2026-05-03T11:09:38.125Z</time></trkpt><trkpt lat="44.3108861" lon="8.200999"><ele>637.8</ele><time>2026-05-03T11:09:39.125Z</time></trkpt><trkpt lat="44.3109844" lon="8.2010279"><ele>630.0</ele><time>2026-05-03T11:09:40.124Z</time></trkpt><trkpt lat="44.311076" lon="8.2010791"><ele>630.0</ele><time>2026-05-03T11:09:41.125Z</time></trkpt><trkpt lat="44.311169" lon="8.2011408"><ele>630.0</ele><time>2026-05-03T11:09:42.124Z</time></trkpt><trkpt lat="44.3112566" lon="8.2012053"><ele>630.0</ele><time>2026-05-03T11:09:43.124Z</time></trkpt><trkpt lat="44.311333" lon="8.2012883"><ele>630.0</ele><time>2026-05-03T11:09:44.124Z</time></trkpt><trkpt lat="44.3113926" lon="8.201386"><ele>630.0</ele><time>2026-05-03T11:09:45.125Z</time></trkpt><trkpt lat="44.3114191" lon="8.2015055"><ele>633.25</ele><time>2026-05-03T11:09:46.124Z</time></trkpt><trkpt lat="44.3114106" lon="8.2016457"><ele>636.5</ele><time>2026-05-03T11:09:47.125Z</time></trkpt><trkpt lat="44.3113567" lon="8.2018169"><ele>639.75</ele><time>2026-05-03T11:09:48.125Z</time></trkpt><trkpt lat="44.3112973" lon="8.2020036"><ele>643.0</ele><time>2026-05-03T11:09:49.125Z</time></trkpt><trkpt lat="44.3112428" lon="8.2021811"><ele>642.75</ele><time>2026-05-03T11:09:50.125Z</time></trkpt><trkpt lat="44.3111855" lon="8.2023886"><ele>642.5</ele><time>2026-05-03T11:09:51.125Z</time></trkpt><trkpt lat="44.3111338" lon="8.2025794"><ele>642.25</ele><time>2026-05-03T11:09:52.125Z</time></trkpt><trkpt lat="44.3110952" lon="8.2027368"><ele>642.0</ele><time>2026-05-03T11:09:53.125Z</time></trkpt><trkpt lat="44.311067" lon="8.2029073"><ele>642.0</ele><time>2026-05-03T11:09:54.125Z</time></trkpt><trkpt lat="44.3110538" lon="8.2030643"><ele>642.0</ele><time>2026-05-03T11:09:55.125Z</time></trkpt><trkpt lat="44.3110462" lon="8.2032479"><ele>642.0</ele><time>2026-05-03T11:09:56.125Z</time></trkpt><trkpt lat="44.311055" lon="8.2034007"><ele>642.0</ele><time>2026-05-03T11:09:57.125Z</time></trkpt><trkpt lat="44.3110826" lon="8.2035312"><ele>642.4000000000001</ele><time>2026-05-03T11:09:58.125Z</time></trkpt><trkpt lat="44.3111552" lon="8.2036035"><ele>642.8000000000001</ele><time>2026-05-03T11:09:59.125Z</time></trkpt><trkpt lat="44.3112476" lon="8.2036357"><ele>643.2</ele><time>2026-05-03T11:10:00.125Z</time></trkpt><trkpt lat="44.3113576" lon="8.2036969"><ele>643.6</ele><time>2026-05-03T11:10:01.125Z</time></trkpt><trkpt lat="44.3114239" lon="8.2037839"><ele>644.0</ele><time>2026-05-03T11:10:02.125Z</time></trkpt><trkpt lat="44.3114914" lon="8.2038927"><ele>637.3333333333333</ele><time>2026-05-03T11:10:03.125Z</time></trkpt><trkpt lat="44.3115357" lon="8.2040154"><ele>630.6666666666666</ele><time>2026-05-03T11:10:04.124Z</time></trkpt><trkpt lat="44.3115563" lon="8.2041167"><ele>624.0</ele><time>2026-05-03T11:10:05.124Z</time></trkpt><trkpt lat="44.3116174" lon="8.2042399"><ele>617.3333333333334</ele><time>2026-05-03T11:10:07.125Z</time></trkpt><trkpt lat="44.3116731" lon="8.2042938"><ele>610.6666666666667</ele><time>2026-05-03T11:10:08.124Z</time></trkpt><trkpt lat="44.3117482" lon="8.2043033"><ele>604.0</ele><time>2026-05-03T11:10:09.125Z</time></trkpt><trkpt lat="44.3118248" lon="8.2042567"><ele>604.0</ele><time>2026-05-03T11:10:10.124Z</time></trkpt><trkpt lat="44.3118915" lon="8.2041459"><ele>604.0</ele><time>2026-05-03T11:10:11.125Z</time></trkpt><trkpt lat="44.3119344" lon="8.2040557"><ele>604.0</ele><time>2026-05-03T11:10:12.124Z</time></trkpt><trkpt lat="44.3119185" lon="8.2039127"><ele>604.0</ele><time>2026-05-03T11:10:13.125Z</time></trkpt><trkpt lat="44.3118652" lon="8.2037845"><ele>604.0</ele><time>2026-05-03T11:10:14.124Z</time></trkpt><trkpt lat="44.3117782" lon="8.2036593"><ele>603.75</ele><time>2026-05-03T11:10:15.125Z</time></trkpt><trkpt lat="44.3116948" lon="8.2035378"><ele>603.5</ele><time>2026-05-03T11:10:16.125Z</time></trkpt><trkpt lat="44.3116073" lon="8.2033993"><ele>603.25</ele><time>2026-05-03T11:10:17.124Z</time></trkpt><trkpt lat="44.3115351" lon="8.2032522"><ele>603.0</ele><time>2026-05-03T11:10:18.124Z</time></trkpt><trkpt lat="44.3114905" lon="8.2030945"><ele>602.0</ele><time>2026-05-03T11:10:19.126Z</time></trkpt><trkpt lat="44.311468" lon="8.202923"><ele>601.0</ele><time>2026-05-03T11:10:20.126Z</time></trkpt><trkpt lat="44.3114659" lon="8.2027373"><ele>600.0</ele><time>2026-05-03T11:10:21.125Z</time></trkpt><trkpt lat="44.3114814" lon="8.2025659"><ele>599.0</ele><time>2026-05-03T11:10:22.125Z</time></trkpt><trkpt lat="44.3115148" lon="8.2023899"><ele>599.25</ele><time>2026-05-03T11:10:23.125Z</time></trkpt><trkpt lat="44.31157" lon="8.2022009"><ele>599.5</ele><time>2026-05-03T11:10:24.126Z</time></trkpt><trkpt lat="44.3116335" lon="8.202013"><ele>599.75</ele><time>2026-05-03T11:10:25.125Z</time></trkpt><trkpt lat="44.3117059" lon="8.2018315"><ele>600.0</ele><time>2026-05-03T11:10:26.126Z</time></trkpt><trkpt lat="44.3117728" lon="8.2016666"><ele>600.0</ele><time>2026-05-03T11:10:27.125Z</time></trkpt><trkpt lat="44.3118302" lon="8.2015059"><ele>600.0</ele><time>2026-05-03T11:10:28.126Z</time></trkpt><trkpt lat="44.3118694" lon="8.2013597"><ele>600.0</ele><time>2026-05-03T11:10:29.126Z</time></trkpt><trkpt lat="44.3118901" lon="8.2012272"><ele>600.0</ele><time>2026-05-03T11:10:30.126Z</time></trkpt><trkpt lat="44.3119007" lon="8.2011179"><ele>600.0</ele><time>2026-05-03T11:10:31.126Z</time></trkpt><trkpt lat="44.311906" lon="8.2010228"><ele>598.25</ele><time>2026-05-03T11:10:32.125Z</time></trkpt><trkpt lat="44.3119657" lon="8.2009062"><ele>596.5</ele><time>2026-05-03T11:10:34.126Z</time></trkpt><trkpt lat="44.3120561" lon="8.2010911"><ele>594.75</ele><time>2026-05-03T11:10:36.126Z</time></trkpt><trkpt lat="44.3120711" lon="8.2012738"><ele>593.0</ele><time>2026-05-03T11:10:37.126Z</time></trkpt><trkpt lat="44.3120617" lon="8.2014625"><ele>594.75</ele><time>2026-05-03T11:10:38.125Z</time></trkpt><trkpt lat="44.312045" lon="8.201632"><ele>596.5</ele><time>2026-05-03T11:10:39.126Z</time></trkpt><trkpt lat="44.3120319" lon="8.2017896"><ele>598.25</ele><time>2026-05-03T11:10:40.126Z</time></trkpt><trkpt lat="44.3120161" lon="8.2019432"><ele>600.0</ele><time>2026-05-03T11:10:41.126Z</time></trkpt><trkpt lat="44.3119998" lon="8.202098"><ele>600.0</ele><time>2026-05-03T11:10:42.126Z</time></trkpt><trkpt lat="44.3119803" lon="8.2022592"><ele>600.0</ele><time>2026-05-03T11:10:43.125Z</time></trkpt><trkpt lat="44.3119684" lon="8.2024271"><ele>600.0</ele><time>2026-05-03T11:10:44.126Z</time></trkpt><trkpt lat="44.3119647" lon="8.2026062"><ele>600.0</ele><time>2026-05-03T11:10:45.126Z</time></trkpt><trkpt lat="44.3120022" lon="8.2028027"><ele>599.6666666666666</ele><time>2026-05-03T11:10:46.125Z</time></trkpt><trkpt lat="44.312081" lon="8.2030027"><ele>599.3333333333333</ele><time>2026-05-03T11:10:47.126Z</time></trkpt><trkpt lat="44.3121735" lon="8.2031929"><ele>599.0</ele><time>2026-05-03T11:10:48.126Z</time></trkpt><trkpt lat="44.3122703" lon="8.203387"><ele>588.6666666666666</ele><time>2026-05-03T11:10:49.125Z</time></trkpt><trkpt lat="44.3123632" lon="8.2035871"><ele>578.3333333333334</ele><time>2026-05-03T11:10:50.125Z</time></trkpt><trkpt lat="44.312448" lon="8.2037826"><ele>568.0</ele><time>2026-05-03T11:10:51.126Z</time></trkpt><trkpt lat="44.312523" lon="8.2039714"><ele>569.0</ele><time>2026-05-03T11:10:52.126Z</time></trkpt><trkpt lat="44.3125945" lon="8.2041453"><ele>570.0</ele><time>2026-05-03T11:10:53.126Z</time></trkpt><trkpt lat="44.3126605" lon="8.2043046"><ele>571.0</ele><time>2026-05-03T11:10:54.126Z</time></trkpt><trkpt lat="44.3127223" lon="8.2044462"><ele>572.0</ele><time>2026-05-03T11:10:55.126Z</time></trkpt><trkpt lat="44.3127785" lon="8.2045678"><ele>572.0</ele><time>2026-05-03T11:10:56.126Z</time></trkpt><trkpt lat="44.3128219" lon="8.2046815"><ele>572.0</ele><time>2026-05-03T11:10:57.126Z</time></trkpt><trkpt lat="44.3128386" lon="8.2048055"><ele>572.0</ele><time>2026-05-03T11:10:58.125Z</time></trkpt><trkpt lat="44.3128002" lon="8.2049306"><ele>572.0</ele><time>2026-05-03T11:10:59.126Z</time></trkpt><trkpt lat="44.3127503" lon="8.2050272"><ele>572.0</ele><time>2026-05-03T11:11:00.126Z</time></trkpt><trkpt lat="44.3127008" lon="8.2051095"><ele>572.0</ele><time>2026-05-03T11:11:01.126Z</time></trkpt><trkpt lat="44.3126448" lon="8.2052004"><ele>569.5</ele><time>2026-05-03T11:11:02.126Z</time></trkpt><trkpt lat="44.3125557" lon="8.2052933"><ele>567.0</ele><time>2026-05-03T11:11:03.126Z</time></trkpt><trkpt lat="44.3124231" lon="8.2053511"><ele>564.5</ele><time>2026-05-03T11:11:04.125Z</time></trkpt><trkpt lat="44.312271" lon="8.2053996"><ele>562.0</ele><time>2026-05-03T11:11:05.125Z</time></trkpt><trkpt lat="44.3120675" lon="8.2054166"><ele>568.6666666666667</ele><time>2026-05-03T11:11:06.126Z</time></trkpt><trkpt lat="44.3118842" lon="8.2054556"><ele>575.3333333333334</ele><time>2026-05-03T11:11:07.126Z</time></trkpt><trkpt lat="44.3117264" lon="8.2055057"><ele>582.0</ele><time>2026-05-03T11:11:08.126Z</time></trkpt><trkpt lat="44.3115823" lon="8.2055595"><ele>582.0</ele><time>2026-05-03T11:11:09.125Z</time></trkpt><trkpt lat="44.311445" lon="8.2056165"><ele>582.0</ele><time>2026-05-03T11:11:10.125Z</time></trkpt><trkpt lat="44.3113077" lon="8.2057073"><ele>582.0</ele><time>2026-05-03T11:11:11.126Z</time></trkpt><trkpt lat="44.3111999" lon="8.2058276"><ele>582.0</ele><time>2026-05-03T11:11:12.126Z</time></trkpt><trkpt lat="44.3111311" lon="8.20601"><ele>580.3333333333334</ele><time>2026-05-03T11:11:13.125Z</time></trkpt><trkpt lat="44.3111051" lon="8.2062202"><ele>578.6666666666667</ele><time>2026-05-03T11:11:14.125Z</time></trkpt><trkpt lat="44.3110884" lon="8.2064729"><ele>577.0</ele><time>2026-05-03T11:11:15.125Z</time></trkpt><trkpt lat="44.3110749" lon="8.2067206"><ele>577.0</ele><time>2026-05-03T11:11:16.126Z</time></trkpt><trkpt lat="44.311109" lon="8.2069634"><ele>577.0</ele><time>2026-05-03T11:11:17.126Z</time></trkpt><trkpt lat="44.3111701" lon="8.2071962"><ele>577.0</ele><time>2026-05-03T11:11:18.126Z</time></trkpt><trkpt lat="44.3112214" lon="8.2074259"><ele>579.0</ele><time>2026-05-03T11:11:19.125Z</time></trkpt><trkpt lat="44.3112783" lon="8.2076674"><ele>581.0</ele><time>2026-05-03T11:11:20.126Z</time></trkpt><trkpt lat="44.3113429" lon="8.2079251"><ele>583.0</ele><time>2026-05-03T11:11:21.126Z</time></trkpt><trkpt lat="44.3114049" lon="8.2081888"><ele>569.3333333333334</ele><time>2026-05-03T11:11:22.127Z</time></trkpt><trkpt lat="44.311464" lon="8.2084558"><ele>555.6666666666666</ele><time>2026-05-03T11:11:23.126Z</time></trkpt><trkpt lat="44.3115174" lon="8.2087194"><ele>542.0</ele><time>2026-05-03T11:11:24.126Z</time></trkpt><trkpt lat="44.311566" lon="8.2089806"><ele>543.0</ele><time>2026-05-03T11:11:25.125Z</time></trkpt><trkpt lat="44.3116158" lon="8.2092371"><ele>544.0</ele><time>2026-05-03T11:11:26.126Z</time></trkpt><trkpt lat="44.3116646" lon="8.2094906"><ele>545.0</ele><time>2026-05-03T11:11:27.125Z</time></trkpt><trkpt lat="44.3117129" lon="8.2097374"><ele>547.3333333333333</ele><time>2026-05-03T11:11:28.127Z</time></trkpt><trkpt lat="44.3117601" lon="8.2099702"><ele>549.6666666666666</ele><time>2026-05-03T11:11:29.127Z</time></trkpt><trkpt lat="44.3118033" lon="8.2101836"><ele>552.0</ele><time>2026-05-03T11:11:30.127Z</time></trkpt><trkpt lat="44.3118428" lon="8.2103795"><ele>552.0</ele><time>2026-05-03T11:11:31.127Z</time></trkpt><trkpt lat="44.3118864" lon="8.2105683"><ele>552.0</ele><time>2026-05-03T11:11:32.126Z</time></trkpt><trkpt lat="44.3119398" lon="8.2107566"><ele>552.0</ele><time>2026-05-03T11:11:33.126Z</time></trkpt><trkpt lat="44.3120128" lon="8.2109415"><ele>552.0</ele><time>2026-05-03T11:11:34.126Z</time></trkpt><trkpt lat="44.3120931" lon="8.2111099"><ele>555.5</ele><time>2026-05-03T11:11:35.126Z</time></trkpt><trkpt lat="44.3121762" lon="8.2112514"><ele>559.0</ele><time>2026-05-03T11:11:36.127Z</time></trkpt><trkpt lat="44.3122746" lon="8.2113616"><ele>562.5</ele><time>2026-05-03T11:11:37.127Z</time></trkpt><trkpt lat="44.3123849" lon="8.2114386"><ele>566.0</ele><time>2026-05-03T11:11:38.127Z</time></trkpt><trkpt lat="44.3125009" lon="8.211474"><ele>557.0</ele><time>2026-05-03T11:11:39.127Z</time></trkpt><trkpt lat="44.3126115" lon="8.2114851"><ele>548.0</ele><time>2026-05-03T11:11:40.127Z</time></trkpt><trkpt lat="44.3127241" lon="8.2114593"><ele>539.0</ele><time>2026-05-03T11:11:41.127Z</time></trkpt><trkpt lat="44.3128217" lon="8.2113932"><ele>530.0</ele><time>2026-05-03T11:11:42.127Z</time></trkpt><trkpt lat="44.3129166" lon="8.2112963"><ele>530.0</ele><time>2026-05-03T11:11:43.127Z</time></trkpt><trkpt lat="44.3129731" lon="8.2111598"><ele>530.0</ele><time>2026-05-03T11:11:44.126Z</time></trkpt><trkpt lat="44.3130114" lon="8.2109961"><ele>530.0</ele><time>2026-05-03T11:11:45.126Z</time></trkpt><trkpt lat="44.3130514" lon="8.2108127"><ele>530.0</ele><time>2026-05-03T11:11:46.127Z</time></trkpt><trkpt lat="44.3131036" lon="8.2106345"><ele>529.2</ele><time>2026-05-03T11:11:47.127Z</time></trkpt><trkpt lat="44.3131537" lon="8.2104974"><ele>528.4</ele><time>2026-05-03T11:11:48.126Z</time></trkpt><trkpt lat="44.3132147" lon="8.2103802"><ele>527.6</ele><time>2026-05-03T11:11:49.126Z</time></trkpt><trkpt lat="44.3132962" lon="8.2103132"><ele>526.8</ele><time>2026-05-03T11:11:50.127Z</time></trkpt><trkpt lat="44.3133749" lon="8.2102938"><ele>526.0</ele><time>2026-05-03T11:11:51.127Z</time></trkpt><trkpt lat="44.3134584" lon="8.2103129"><ele>526.0</ele><time>2026-05-03T11:11:52.126Z</time></trkpt><trkpt lat="44.3135362" lon="8.2103966"><ele>526.0</ele><time>2026-05-03T11:11:53.127Z</time></trkpt><trkpt lat="44.3136115" lon="8.2105608"><ele>526.0</ele><time>2026-05-03T11:11:54.127Z</time></trkpt><trkpt lat="44.3136592" lon="8.2107161"><ele>526.0</ele><time>2026-05-03T11:11:55.126Z</time></trkpt><trkpt lat="44.313692" lon="8.2108486"><ele>526.4</ele><time>2026-05-03T11:11:56.127Z</time></trkpt><trkpt lat="44.3137317" lon="8.2109728"><ele>526.8</ele><time>2026-05-03T11:11:57.127Z</time></trkpt><trkpt lat="44.3137756" lon="8.2110803"><ele>527.1999999999999</ele><time>2026-05-03T11:11:58.127Z</time></trkpt><trkpt lat="44.3138176" lon="8.2111873"><ele>527.6</ele><time>2026-05-03T11:11:59.127Z</time></trkpt><trkpt lat="44.3138626" lon="8.2113071"><ele>528.0</ele><time>2026-05-03T11:12:00.126Z</time></trkpt><trkpt lat="44.3139175" lon="8.2114544"><ele>526.75</ele><time>2026-05-03T11:12:01.127Z</time></trkpt><trkpt lat="44.3139805" lon="8.2116199"><ele>525.5</ele><time>2026-05-03T11:12:02.127Z</time></trkpt><trkpt lat="44.314047" lon="8.2117872"><ele>524.25</ele><time>2026-05-03T11:12:03.127Z</time></trkpt><trkpt lat="44.3141202" lon="8.2119508"><ele>523.0</ele><time>2026-05-03T11:12:04.126Z</time></trkpt><trkpt lat="44.3141924" lon="8.2121147"><ele>523.0</ele><time>2026-05-03T11:12:05.126Z</time></trkpt><trkpt lat="44.3142602" lon="8.2122805"><ele>523.0</ele><time>2026-05-03T11:12:06.127Z</time></trkpt><trkpt lat="44.3143254" lon="8.2124453"><ele>523.0</ele><time>2026-05-03T11:12:07.127Z</time></trkpt><trkpt lat="44.3143933" lon="8.2126112"><ele>523.0</ele><time>2026-05-03T11:12:08.127Z</time></trkpt><trkpt lat="44.3144603" lon="8.2127796"><ele>523.0</ele><time>2026-05-03T11:12:09.127Z</time></trkpt><trkpt lat="44.3145256" lon="8.2129469"><ele>523.0</ele><time>2026-05-03T11:12:10.127Z</time></trkpt><trkpt lat="44.3145906" lon="8.2131118"><ele>523.0</ele><time>2026-05-03T11:12:11.127Z</time></trkpt><trkpt lat="44.3146523" lon="8.2132833"><ele>523.0</ele><time>2026-05-03T11:12:12.126Z</time></trkpt><trkpt lat="44.3146912" lon="8.2134761"><ele>527.6666666666667</ele><time>2026-05-03T11:12:13.127Z</time></trkpt><trkpt lat="44.3147048" lon="8.2136944"><ele>532.3333333333334</ele><time>2026-05-03T11:12:14.127Z</time></trkpt><trkpt lat="44.3147057" lon="8.2139301"><ele>537.0</ele><time>2026-05-03T11:12:15.126Z</time></trkpt><trkpt lat="44.3147078" lon="8.2141555"><ele>540.0</ele><time>2026-05-03T11:12:16.126Z</time></trkpt><trkpt lat="44.3147173" lon="8.2143791"><ele>543.0</ele><time>2026-05-03T11:12:17.126Z</time></trkpt><trkpt lat="44.3147446" lon="8.2145983"><ele>546.0</ele><time>2026-05-03T11:12:18.127Z</time></trkpt><trkpt lat="44.3148054" lon="8.2147991"><ele>539.0</ele><time>2026-05-03T11:12:19.127Z</time></trkpt><trkpt lat="44.3148793" lon="8.2149785"><ele>532.0</ele><time>2026-05-03T11:12:20.127Z</time></trkpt><trkpt lat="44.3149547" lon="8.2151327"><ele>525.0</ele><time>2026-05-03T11:12:21.127Z</time></trkpt><trkpt lat="44.3150332" lon="8.2152782"><ele>518.0</ele><time>2026-05-03T11:12:22.127Z</time></trkpt><trkpt lat="44.3151224" lon="8.2154073"><ele>518.0</ele><time>2026-05-03T11:12:23.127Z</time></trkpt><trkpt lat="44.3152332" lon="8.2155142"><ele>518.0</ele><time>2026-05-03T11:12:24.127Z</time></trkpt><trkpt lat="44.3153682" lon="8.2155963"><ele>518.0</ele><time>2026-05-03T11:12:25.127Z</time></trkpt><trkpt lat="44.315506" lon="8.2156537"><ele>518.0</ele><time>2026-05-03T11:12:26.126Z</time></trkpt><trkpt lat="44.3156439" lon="8.2157098"><ele>518.75</ele><time>2026-05-03T11:12:27.127Z</time></trkpt><trkpt lat="44.3157741" lon="8.2157636"><ele>519.5</ele><time>2026-05-03T11:12:28.127Z</time></trkpt><trkpt lat="44.3159066" lon="8.2158242"><ele>520.25</ele><time>2026-05-03T11:12:29.126Z</time></trkpt><trkpt lat="44.3160409" lon="8.2158756"><ele>521.0</ele><time>2026-05-03T11:12:30.127Z</time></trkpt><trkpt lat="44.3161663" lon="8.2159016"><ele>521.0</ele><time>2026-05-03T11:12:31.127Z</time></trkpt><trkpt lat="44.3163011" lon="8.2159116"><ele>521.0</ele><time>2026-05-03T11:12:32.128Z</time></trkpt><trkpt lat="44.316429" lon="8.2159155"><ele>521.0</ele><time>2026-05-03T11:12:33.127Z</time></trkpt><trkpt lat="44.3165574" lon="8.2159245"><ele>521.0</ele><time>2026-05-03T11:12:34.127Z</time></trkpt><trkpt lat="44.3166915" lon="8.215955"><ele>518.75</ele><time>2026-05-03T11:12:35.127Z</time></trkpt><trkpt lat="44.3168348" lon="8.2160083"><ele>516.5</ele><time>2026-05-03T11:12:36.128Z</time></trkpt><trkpt lat="44.3169822" lon="8.2160711"><ele>514.25</ele><time>2026-05-03T11:12:37.127Z</time></trkpt><trkpt lat="44.3171172" lon="8.2161338"><ele>512.0</ele><time>2026-05-03T11:12:38.128Z</time></trkpt><trkpt lat="44.3172464" lon="8.2161936"><ele>512.0</ele><time>2026-05-03T11:12:39.128Z</time></trkpt><trkpt lat="44.3173749" lon="8.2162535"><ele>512.0</ele><time>2026-05-03T11:12:40.127Z</time></trkpt><trkpt lat="44.3175087" lon="8.216314"><ele>512.0</ele><time>2026-05-03T11:12:41.127Z</time></trkpt><trkpt lat="44.3176452" lon="8.2163735"><ele>512.0</ele><time>2026-05-03T11:12:42.128Z</time></trkpt><trkpt lat="44.3177861" lon="8.2164373"><ele>512.0</ele><time>2026-05-03T11:12:43.128Z</time></trkpt><trkpt lat="44.3179252" lon="8.2164874"><ele>512.0</ele><time>2026-05-03T11:12:44.128Z</time></trkpt><trkpt lat="44.3180735" lon="8.2165229"><ele>512.0</ele><time>2026-05-03T11:12:45.127Z</time></trkpt><trkpt lat="44.3182366" lon="8.2165477"><ele>512.0</ele><time>2026-05-03T11:12:46.127Z</time></trkpt><trkpt lat="44.3183987" lon="8.2165394"><ele>512.0</ele><time>2026-05-03T11:12:47.127Z</time></trkpt><trkpt lat="44.318556" lon="8.2165034"><ele>512.0</ele><time>2026-05-03T11:12:48.128Z</time></trkpt><trkpt lat="44.3187068" lon="8.2164537"><ele>510.25</ele><time>2026-05-03T11:12:49.128Z</time></trkpt><trkpt lat="44.3188467" lon="8.2164076"><ele>508.5</ele><time>2026-05-03T11:12:50.127Z</time></trkpt><trkpt lat="44.3189773" lon="8.2163726"><ele>506.75</ele><time>2026-05-03T11:12:51.127Z</time></trkpt><trkpt lat="44.3191069" lon="8.2163391"><ele>505.0</ele><time>2026-05-03T11:12:52.128Z</time></trkpt><trkpt lat="44.3192342" lon="8.2163052"><ele>504.75</ele><time>2026-05-03T11:12:53.128Z</time></trkpt><trkpt lat="44.3193624" lon="8.2162672"><ele>504.5</ele><time>2026-05-03T11:12:54.128Z</time></trkpt><trkpt lat="44.3194938" lon="8.2162321"><ele>504.25</ele><time>2026-05-03T11:12:55.128Z</time></trkpt><trkpt lat="44.319628" lon="8.2162117"><ele>504.0</ele><time>2026-05-03T11:12:56.128Z</time></trkpt><trkpt lat="44.3197657" lon="8.2162184"><ele>505.5</ele><time>2026-05-03T11:12:57.128Z</time></trkpt><trkpt lat="44.3199086" lon="8.2162329"><ele>507.0</ele><time>2026-05-03T11:12:58.128Z</time></trkpt><trkpt lat="44.3200534" lon="8.216238"><ele>508.5</ele><time>2026-05-03T11:12:59.127Z</time></trkpt><trkpt lat="44.3201936" lon="8.216242"><ele>510.0</ele><time>2026-05-03T11:13:00.128Z</time></trkpt><trkpt lat="44.3203303" lon="8.2162477"><ele>510.0</ele><time>2026-05-03T11:13:01.128Z</time></trkpt><trkpt lat="44.320463" lon="8.2162528"><ele>510.0</ele><time>2026-05-03T11:13:02.128Z</time></trkpt><trkpt lat="44.3205988" lon="8.2162625"><ele>510.0</ele><time>2026-05-03T11:13:03.128Z</time></trkpt><trkpt lat="44.3207355" lon="8.2162732"><ele>510.0</ele><time>2026-05-03T11:13:04.128Z</time></trkpt><trkpt lat="44.3208639" lon="8.2162825"><ele>509.8</ele><time>2026-05-03T11:13:05.128Z</time></trkpt><trkpt lat="44.3209856" lon="8.2162865"><ele>509.6</ele><time>2026-05-03T11:13:06.128Z</time></trkpt><trkpt lat="44.3210948" lon="8.2162899"><ele>509.4</ele><time>2026-05-03T11:13:07.128Z</time></trkpt><trkpt lat="44.3212003" lon="8.2162865"><ele>509.2</ele><time>2026-05-03T11:13:08.128Z</time></trkpt><trkpt lat="44.3213074" lon="8.2162545"><ele>509.0</ele><time>2026-05-03T11:13:09.128Z</time></trkpt><trkpt lat="44.3214098" lon="8.216178"><ele>508.75</ele><time>2026-05-03T11:13:10.127Z</time></trkpt><trkpt lat="44.3214926" lon="8.2160605"><ele>508.5</ele><time>2026-05-03T11:13:11.128Z</time></trkpt><trkpt lat="44.3215578" lon="8.2159119"><ele>508.25</ele><time>2026-05-03T11:13:12.128Z</time></trkpt><trkpt lat="44.3215986" lon="8.2157358"><ele>508.0</ele><time>2026-05-03T11:13:13.128Z</time></trkpt><trkpt lat="44.3216123" lon="8.2155474"><ele>508.0</ele><time>2026-05-03T11:13:14.128Z</time></trkpt><trkpt lat="44.3216238" lon="8.2153463"><ele>508.0</ele><time>2026-05-03T11:13:15.127Z</time></trkpt><trkpt lat="44.3216419" lon="8.2151576"><ele>508.0</ele><time>2026-05-03T11:13:16.128Z</time></trkpt><trkpt lat="44.3216672" lon="8.214973"><ele>508.0</ele><time>2026-05-03T11:13:17.127Z</time></trkpt><trkpt lat="44.3216919" lon="8.2147824"><ele>507.0</ele><time>2026-05-03T11:13:18.128Z</time></trkpt><trkpt lat="44.3217171" lon="8.2145881"><ele>506.0</ele><time>2026-05-03T11:13:19.128Z</time></trkpt><trkpt lat="44.3217412" lon="8.2143964"><ele>505.0</ele><time>2026-05-03T11:13:20.128Z</time></trkpt><trkpt lat="44.3217647" lon="8.2142076"><ele>504.0</ele><time>2026-05-03T11:13:21.128Z</time></trkpt><trkpt lat="44.3217883" lon="8.2140261"><ele>503.5</ele><time>2026-05-03T11:13:22.128Z</time></trkpt><trkpt lat="44.3218115" lon="8.2138464"><ele>503.0</ele><time>2026-05-03T11:13:23.128Z</time></trkpt><trkpt lat="44.3218347" lon="8.2136658"><ele>502.5</ele><time>2026-05-03T11:13:24.128Z</time></trkpt><trkpt lat="44.3218575" lon="8.2134775"><ele>502.0</ele><time>2026-05-03T11:13:25.128Z</time></trkpt><trkpt lat="44.3218821" lon="8.2132934"><ele>502.25</ele><time>2026-05-03T11:13:26.127Z</time></trkpt><trkpt lat="44.321906" lon="8.2131152"><ele>502.5</ele><time>2026-05-03T11:13:27.128Z</time></trkpt><trkpt lat="44.3219327" lon="8.2129341"><ele>502.75</ele><time>2026-05-03T11:13:28.128Z</time></trkpt><trkpt lat="44.3219611" lon="8.2127539"><ele>503.0</ele><time>2026-05-03T11:13:29.127Z</time></trkpt><trkpt lat="44.321987" lon="8.2125711"><ele>503.0</ele><time>2026-05-03T11:13:30.127Z</time></trkpt><trkpt lat="44.3220126" lon="8.2123967"><ele>503.0</ele><time>2026-05-03T11:13:31.128Z</time></trkpt><trkpt lat="44.3220399" lon="8.2122295"><ele>503.0</ele><time>2026-05-03T11:13:32.128Z</time></trkpt><trkpt lat="44.3220797" lon="8.2120719"><ele>503.0</ele><time>2026-05-03T11:13:33.127Z</time></trkpt><trkpt lat="44.3221321" lon="8.211917"><ele>501.25</ele><time>2026-05-03T11:13:34.128Z</time></trkpt><trkpt lat="44.3222053" lon="8.2117832"><ele>499.5</ele><time>2026-05-03T11:13:35.127Z</time></trkpt><trkpt lat="44.3223089" lon="8.2116705"><ele>497.75</ele><time>2026-05-03T11:13:36.128Z</time></trkpt><trkpt lat="44.3224352" lon="8.2115888"><ele>496.0</ele><time>2026-05-03T11:13:37.128Z</time></trkpt><trkpt lat="44.3225739" lon="8.2115448"><ele>496.0</ele><time>2026-05-03T11:13:38.128Z</time></trkpt><trkpt lat="44.3227141" lon="8.2115405"><ele>496.0</ele><time>2026-05-03T11:13:39.127Z</time></trkpt><trkpt lat="44.3228558" lon="8.2115812"><ele>496.0</ele><time>2026-05-03T11:13:40.127Z</time></trkpt><trkpt lat="44.3230136" lon="8.2116676"><ele>496.25</ele><time>2026-05-03T11:13:41.129Z</time></trkpt><trkpt lat="44.3231603" lon="8.2117376"><ele>496.5</ele><time>2026-05-03T11:13:42.13Z</time></trkpt><trkpt lat="44.3233037" lon="8.211776"><ele>496.75</ele><time>2026-05-03T11:13:43.129Z</time></trkpt><trkpt lat="44.3234503" lon="8.2117645"><ele>497.0</ele><time>2026-05-03T11:13:44.129Z</time></trkpt><trkpt lat="44.3235844" lon="8.2117206"><ele>497.0</ele><time>2026-05-03T11:13:45.129Z</time></trkpt><trkpt lat="44.3237052" lon="8.2116496"><ele>497.0</ele><time>2026-05-03T11:13:46.128Z</time></trkpt><trkpt lat="44.3238153" lon="8.2115614"><ele>497.0</ele><time>2026-05-03T11:13:47.129Z</time></trkpt><trkpt lat="44.3239187" lon="8.2114618"><ele>497.0</ele><time>2026-05-03T11:13:48.128Z</time></trkpt><trkpt lat="44.3240166" lon="8.2113425"><ele>496.75</ele><time>2026-05-03T11:13:49.129Z</time></trkpt><trkpt lat="44.3241099" lon="8.2112024"><ele>496.5</ele><time>2026-05-03T11:13:50.129Z</time></trkpt><trkpt lat="44.324199" lon="8.2110572"><ele>496.25</ele><time>2026-05-03T11:13:51.129Z</time></trkpt><trkpt lat="44.3242868" lon="8.2108996"><ele>496.0</ele><time>2026-05-03T11:13:52.129Z</time></trkpt><trkpt lat="44.3243688" lon="8.2107432"><ele>495.25</ele><time>2026-05-03T11:13:53.128Z</time></trkpt><trkpt lat="44.3244504" lon="8.2105882"><ele>494.5</ele><time>2026-05-03T11:13:54.129Z</time></trkpt><trkpt lat="44.3245351" lon="8.2104359"><ele>493.75</ele><time>2026-05-03T11:13:55.129Z</time></trkpt><trkpt lat="44.3246178" lon="8.2102843"><ele>493.0</ele><time>2026-05-03T11:13:56.129Z</time></trkpt><trkpt lat="44.3246979" lon="8.2101367"><ele>494.5</ele><time>2026-05-03T11:13:57.129Z</time></trkpt><trkpt lat="44.3247769" lon="8.2099916"><ele>496.0</ele><time>2026-05-03T11:13:58.129Z</time></trkpt><trkpt lat="44.3248532" lon="8.2098537"><ele>497.5</ele><time>2026-05-03T11:13:59.129Z</time></trkpt><trkpt lat="44.3249246" lon="8.2097262"><ele>499.0</ele><time>2026-05-03T11:14:00.129Z</time></trkpt><trkpt lat="44.3249889" lon="8.2096057"><ele>499.0</ele><time>2026-05-03T11:14:01.128Z</time></trkpt><trkpt lat="44.3250444" lon="8.2094883"><ele>499.0</ele><time>2026-05-03T11:14:02.128Z</time></trkpt><trkpt lat="44.3250853" lon="8.2093696"><ele>499.0</ele><time>2026-05-03T11:14:03.129Z</time></trkpt><trkpt lat="44.3251042" lon="8.2092417"><ele>499.0</ele><time>2026-05-03T11:14:04.129Z</time></trkpt><trkpt lat="44.3250956" lon="8.209099"><ele>499.0</ele><time>2026-05-03T11:14:05.129Z</time></trkpt><trkpt lat="44.3250549" lon="8.2089502"><ele>500.75</ele><time>2026-05-03T11:14:06.129Z</time></trkpt><trkpt lat="44.3249948" lon="8.2088169"><ele>502.5</ele><time>2026-05-03T11:14:07.129Z</time></trkpt><trkpt lat="44.3248964" lon="8.2086934"><ele>504.25</ele><time>2026-05-03T11:14:08.129Z</time></trkpt><trkpt lat="44.3247963" lon="8.2085892"><ele>506.0</ele><time>2026-05-03T11:14:09.129Z</time></trkpt><trkpt lat="44.3247" lon="8.2084886"><ele>502.4</ele><time>2026-05-03T11:14:10.129Z</time></trkpt><trkpt lat="44.3246155" lon="8.2083933"><ele>498.8</ele><time>2026-05-03T11:14:11.129Z</time></trkpt><trkpt lat="44.3245448" lon="8.2082867"><ele>495.19999999999993</ele><time>2026-05-03T11:14:12.129Z</time></trkpt><trkpt lat="44.3245069" lon="8.2081624"><ele>491.59999999999997</ele><time>2026-05-03T11:14:13.129Z</time></trkpt><trkpt lat="44.3245202" lon="8.2079771"><ele>488.0</ele><time>2026-05-03T11:14:14.129Z</time></trkpt><trkpt lat="44.3245835" lon="8.2077932"><ele>488.5</ele><time>2026-05-03T11:14:15.129Z</time></trkpt><trkpt lat="44.3246756" lon="8.2076829"><ele>489.0</ele><time>2026-05-03T11:14:16.129Z</time></trkpt><trkpt lat="44.3247776" lon="8.2076"><ele>489.5</ele><time>2026-05-03T11:14:17.128Z</time></trkpt><trkpt lat="44.3248833" lon="8.2075127"><ele>490.0</ele><time>2026-05-03T11:14:18.129Z</time></trkpt><trkpt lat="44.3249894" lon="8.2074194"><ele>486.25</ele><time>2026-05-03T11:14:19.129Z</time></trkpt><trkpt lat="44.3251043" lon="8.2073244"><ele>482.5</ele><time>2026-05-03T11:14:20.129Z</time></trkpt><trkpt lat="44.3252142" lon="8.2072333"><ele>478.75</ele><time>2026-05-03T11:14:21.129Z</time></trkpt><trkpt lat="44.3253174" lon="8.2071434"><ele>475.0</ele><time>2026-05-03T11:14:22.129Z</time></trkpt><trkpt lat="44.3254167" lon="8.2070596"><ele>475.0</ele><time>2026-05-03T11:14:23.128Z</time></trkpt><trkpt lat="44.3255169" lon="8.2069729"><ele>475.0</ele><time>2026-05-03T11:14:24.129Z</time></trkpt><trkpt lat="44.3256181" lon="8.2068791"><ele>475.0</ele><time>2026-05-03T11:14:25.128Z</time></trkpt><trkpt lat="44.3257205" lon="8.2067812"><ele>475.0</ele><time>2026-05-03T11:14:26.129Z</time></trkpt><trkpt lat="44.3258241" lon="8.2066846"><ele>474.75</ele><time>2026-05-03T11:14:27.128Z</time></trkpt><trkpt lat="44.3259319" lon="8.2065838"><ele>474.5</ele><time>2026-05-03T11:14:28.129Z</time></trkpt><trkpt lat="44.3260394" lon="8.2065094"><ele>474.25</ele><time>2026-05-03T11:14:29.129Z</time></trkpt><trkpt lat="44.3261699" lon="8.2064896"><ele>474.0</ele><time>2026-05-03T11:14:30.128Z</time></trkpt><trkpt lat="44.3263396" lon="8.2065245"><ele>478.33333333333337</ele><time>2026-05-03T11:14:31.128Z</time></trkpt><trkpt lat="44.3264929" lon="8.2065341"><ele>482.6666666666667</ele><time>2026-05-03T11:14:32.129Z</time></trkpt><trkpt lat="44.3266616" lon="8.2065508"><ele>487.0</ele><time>2026-05-03T11:14:33.129Z</time></trkpt><trkpt lat="44.3268139" lon="8.2065558"><ele>487.0</ele><time>2026-05-03T11:14:34.128Z</time></trkpt><trkpt lat="44.3269614" lon="8.2065631"><ele>487.0</ele><time>2026-05-03T11:14:35.129Z</time></trkpt><trkpt lat="44.3271068" lon="8.2065715"><ele>487.0</ele><time>2026-05-03T11:14:36.128Z</time></trkpt><trkpt lat="44.3272522" lon="8.2065836"><ele>487.0</ele><time>2026-05-03T11:14:37.129Z</time></trkpt><trkpt lat="44.3273984" lon="8.2066083"><ele>485.33333333333337</ele><time>2026-05-03T11:14:38.129Z</time></trkpt><trkpt lat="44.3275429" lon="8.2066733"><ele>483.66666666666663</ele><time>2026-05-03T11:14:39.129Z</time></trkpt><trkpt lat="44.3276874" lon="8.2067665"><ele>482.0</ele><time>2026-05-03T11:14:40.129Z</time></trkpt><trkpt lat="44.3278306" lon="8.2068619"><ele>482.0</ele><time>2026-05-03T11:14:41.129Z</time></trkpt><trkpt lat="44.3279693" lon="8.2069564"><ele>482.0</ele><time>2026-05-03T11:14:42.129Z</time></trkpt><trkpt lat="44.3281076" lon="8.2070358"><ele>482.0</ele><time>2026-05-03T11:14:43.128Z</time></trkpt><trkpt lat="44.3282456" lon="8.2071072"><ele>479.75</ele><time>2026-05-03T11:14:44.129Z</time></trkpt><trkpt lat="44.3283852" lon="8.2071658"><ele>477.5</ele><time>2026-05-03T11:14:45.128Z</time></trkpt><trkpt lat="44.3285304" lon="8.207208"><ele>475.25</ele><time>2026-05-03T11:14:46.128Z</time></trkpt><trkpt lat="44.3286775" lon="8.2072367"><ele>473.0</ele><time>2026-05-03T11:14:47.13Z</time></trkpt><trkpt lat="44.3288209" lon="8.2072589"><ele>472.5</ele><time>2026-05-03T11:14:48.13Z</time></trkpt><trkpt lat="44.3289615" lon="8.20728"><ele>472.0</ele><time>2026-05-03T11:14:49.13Z</time></trkpt><trkpt lat="44.3290971" lon="8.2072995"><ele>471.5</ele><time>2026-05-03T11:14:50.13Z</time></trkpt><trkpt lat="44.3292308" lon="8.2073188"><ele>471.0</ele><time>2026-05-03T11:14:51.129Z</time></trkpt><trkpt lat="44.3293644" lon="8.2073354"><ele>471.0</ele><time>2026-05-03T11:14:52.13Z</time></trkpt><trkpt lat="44.3294988" lon="8.2073435"><ele>471.0</ele><time>2026-05-03T11:14:53.129Z</time></trkpt><trkpt lat="44.329636" lon="8.2073259"><ele>471.0</ele><time>2026-05-03T11:14:54.13Z</time></trkpt><trkpt lat="44.3297723" lon="8.2072877"><ele>471.0</ele><time>2026-05-03T11:14:55.13Z</time></trkpt><trkpt lat="44.3299066" lon="8.2072462"><ele>470.0</ele><time>2026-05-03T11:14:56.13Z</time></trkpt><trkpt lat="44.3300348" lon="8.2072093"><ele>469.0</ele><time>2026-05-03T11:14:57.13Z</time></trkpt><trkpt lat="44.3301591" lon="8.2071759"><ele>468.0</ele><time>2026-05-03T11:14:58.129Z</time></trkpt><trkpt lat="44.3302853" lon="8.2071268"><ele>467.0</ele><time>2026-05-03T11:14:59.13Z</time></trkpt><trkpt lat="44.3304067" lon="8.2070414"><ele>467.0</ele><time>2026-05-03T11:15:00.129Z</time></trkpt><trkpt lat="44.3305167" lon="8.2069233"><ele>467.0</ele><time>2026-05-03T11:15:01.13Z</time></trkpt><trkpt lat="44.3306133" lon="8.2067969"><ele>467.0</ele><time>2026-05-03T11:15:02.13Z</time></trkpt><trkpt lat="44.3306952" lon="8.2066643"><ele>467.0</ele><time>2026-05-03T11:15:03.13Z</time></trkpt><trkpt lat="44.3307649" lon="8.2065474"><ele>467.40000000000003</ele><time>2026-05-03T11:15:04.129Z</time></trkpt><trkpt lat="44.3308273" lon="8.2064266"><ele>467.80000000000007</ele><time>2026-05-03T11:15:05.13Z</time></trkpt><trkpt lat="44.3308861" lon="8.2063063"><ele>468.2</ele><time>2026-05-03T11:15:06.13Z</time></trkpt><trkpt lat="44.3309433" lon="8.2061845"><ele>468.6</ele><time>2026-05-03T11:15:07.13Z</time></trkpt><trkpt lat="44.331" lon="8.2060736"><ele>469.0</ele><time>2026-05-03T11:15:08.13Z</time></trkpt><trkpt lat="44.3310575" lon="8.2059703"><ele>469.0</ele><time>2026-05-03T11:15:09.129Z</time></trkpt><trkpt lat="44.3311257" lon="8.205891"><ele>469.0</ele><time>2026-05-03T11:15:10.129Z</time></trkpt><trkpt lat="44.3312115" lon="8.2058494"><ele>469.0</ele><time>2026-05-03T11:15:11.129Z</time></trkpt><trkpt lat="44.3313217" lon="8.2058709"><ele>469.0</ele><time>2026-05-03T11:15:12.129Z</time></trkpt><trkpt lat="44.3314367" lon="8.2059234"><ele>469.0</ele><time>2026-05-03T11:15:13.13Z</time></trkpt><trkpt lat="44.3315269" lon="8.2059352"><ele>469.1666666666667</ele><time>2026-05-03T11:15:14.13Z</time></trkpt><trkpt lat="44.3315933" lon="8.2059168"><ele>469.33333333333337</ele><time>2026-05-03T11:15:15.13Z</time></trkpt><trkpt lat="44.3316833" lon="8.2058392"><ele>469.5</ele><time>2026-05-03T11:15:17.13Z</time></trkpt><trkpt lat="44.331741" lon="8.2057782"><ele>469.66666666666663</ele><time>2026-05-03T11:15:19.13Z</time></trkpt><trkpt lat="44.3317978" lon="8.2057331"><ele>469.8333333333333</ele><time>2026-05-03T11:15:21.13Z</time></trkpt><trkpt lat="44.3318909" lon="8.2056964"><ele>470.0</ele><time>2026-05-03T11:15:23.13Z</time></trkpt><trkpt lat="44.3320353" lon="8.2057636"><ele>470.0</ele><time>2026-05-03T11:15:25.13Z</time></trkpt><trkpt lat="44.3321194" lon="8.2058541"><ele>470.0</ele><time>2026-05-03T11:15:26.129Z</time></trkpt><trkpt lat="44.3322016" lon="8.2059715"><ele>470.0</ele><time>2026-05-03T11:15:27.129Z</time></trkpt><trkpt lat="44.3322824" lon="8.2061022"><ele>470.0</ele><time>2026-05-03T11:15:28.129Z</time></trkpt><trkpt lat="44.3323672" lon="8.2062382"><ele>470.0</ele><time>2026-05-03T11:15:29.129Z</time></trkpt><trkpt lat="44.3324463" lon="8.206377"><ele>470.0</ele><time>2026-05-03T11:15:30.13Z</time></trkpt><trkpt lat="44.3325198" lon="8.2065289"><ele>470.0</ele><time>2026-05-03T11:15:31.129Z</time></trkpt><trkpt lat="44.3325889" lon="8.2066874"><ele>470.0</ele><time>2026-05-03T11:15:32.129Z</time></trkpt><trkpt lat="44.332652" lon="8.2068427"><ele>468.75</ele><time>2026-05-03T11:15:33.129Z</time></trkpt><trkpt lat="44.3327068" lon="8.2069893"><ele>467.5</ele><time>2026-05-03T11:15:34.13Z</time></trkpt><trkpt lat="44.3327558" lon="8.2071366"><ele>466.25</ele><time>2026-05-03T11:15:35.13Z</time></trkpt><trkpt lat="44.3328043" lon="8.2072944"><ele>465.0</ele><time>2026-05-03T11:15:36.129Z</time></trkpt><trkpt lat="44.3328596" lon="8.2074581"><ele>464.25</ele><time>2026-05-03T11:15:37.129Z</time></trkpt><trkpt lat="44.332925" lon="8.2076228"><ele>463.5</ele><time>2026-05-03T11:15:38.129Z</time></trkpt><trkpt lat="44.3330026" lon="8.207781"><ele>462.75</ele><time>2026-05-03T11:15:39.13Z</time></trkpt><trkpt lat="44.333083" lon="8.2079301"><ele>462.0</ele><time>2026-05-03T11:15:40.129Z</time></trkpt><trkpt lat="44.3331696" lon="8.2080766"><ele>463.5</ele><time>2026-05-03T11:15:41.13Z</time></trkpt><trkpt lat="44.3332615" lon="8.2082099"><ele>465.0</ele><time>2026-05-03T11:15:42.131Z</time></trkpt><trkpt lat="44.3333521" lon="8.2083299"><ele>466.5</ele><time>2026-05-03T11:15:43.13Z</time></trkpt><trkpt lat="44.3334372" lon="8.2084426"><ele>468.0</ele><time>2026-05-03T11:15:44.13Z</time></trkpt><trkpt lat="44.3335168" lon="8.2085472"><ele>468.0</ele><time>2026-05-03T11:15:45.129Z</time></trkpt><trkpt lat="44.3335901" lon="8.2086424"><ele>467.99999999999994</ele><time>2026-05-03T11:15:46.13Z</time></trkpt><trkpt lat="44.333657" lon="8.2087345"><ele>467.99999999999994</ele><time>2026-05-03T11:15:47.13Z</time></trkpt><trkpt lat="44.3337121" lon="8.2088295"><ele>468.0</ele><time>2026-05-03T11:15:48.13Z</time></trkpt><trkpt lat="44.3337475" lon="8.2089379"><ele>468.0</ele><time>2026-05-03T11:15:49.129Z</time></trkpt><trkpt lat="44.3337557" lon="8.2090718"><ele>466.59999999999997</ele><time>2026-05-03T11:15:50.129Z</time></trkpt><trkpt lat="44.3337255" lon="8.2092102"><ele>465.19999999999993</ele><time>2026-05-03T11:15:51.13Z</time></trkpt><trkpt lat="44.3336592" lon="8.2093349"><ele>463.8</ele><time>2026-05-03T11:15:52.13Z</time></trkpt><trkpt lat="44.3335745" lon="8.209451"><ele>462.4</ele><time>2026-05-03T11:15:53.129Z</time></trkpt><trkpt lat="44.3334969" lon="8.2095696"><ele>461.0</ele><time>2026-05-03T11:15:54.131Z</time></trkpt><trkpt lat="44.3334294" lon="8.209682"><ele>461.0</ele><time>2026-05-03T11:15:55.131Z</time></trkpt><trkpt lat="44.3333766" lon="8.2097835"><ele>461.0</ele><time>2026-05-03T11:15:56.131Z</time></trkpt><trkpt lat="44.3333278" lon="8.2098847"><ele>461.0</ele><time>2026-05-03T11:15:57.131Z</time></trkpt><trkpt lat="44.3332905" lon="8.2099941"><ele>461.0</ele><time>2026-05-03T11:15:58.131Z</time></trkpt><trkpt lat="44.3332791" lon="8.2101425"><ele>461.0</ele><time>2026-05-03T11:15:59.13Z</time></trkpt><trkpt lat="44.333285" lon="8.2103126"><ele>462.75</ele><time>2026-05-03T11:16:00.13Z</time></trkpt><trkpt lat="44.3333332" lon="8.2104641"><ele>464.5</ele><time>2026-05-03T11:16:01.131Z</time></trkpt><trkpt lat="44.3334024" lon="8.2106138"><ele>466.25</ele><time>2026-05-03T11:16:02.131Z</time></trkpt><trkpt lat="44.3334765" lon="8.2107681"><ele>468.0</ele><time>2026-05-03T11:16:03.131Z</time></trkpt><trkpt lat="44.3335415" lon="8.2109129"><ele>470.79999999999995</ele><time>2026-05-03T11:16:04.131Z</time></trkpt><trkpt lat="44.3335957" lon="8.2110485"><ele>473.59999999999997</ele><time>2026-05-03T11:16:05.131Z</time></trkpt><trkpt lat="44.3336442" lon="8.2111796"><ele>476.40000000000003</ele><time>2026-05-03T11:16:06.131Z</time></trkpt><trkpt lat="44.3336934" lon="8.2113122"><ele>479.20000000000005</ele><time>2026-05-03T11:16:07.13Z</time></trkpt><trkpt lat="44.3337535" lon="8.2114518"><ele>482.0</ele><time>2026-05-03T11:16:08.13Z</time></trkpt><trkpt lat="44.333823" lon="8.2115926"><ele>477.75</ele><time>2026-05-03T11:16:09.131Z</time></trkpt><trkpt lat="44.333904" lon="8.211719"><ele>473.5</ele><time>2026-05-03T11:16:10.131Z</time></trkpt><trkpt lat="44.3340225" lon="8.2118197"><ele>469.25</ele><time>2026-05-03T11:16:11.13Z</time></trkpt><trkpt lat="44.3341507" lon="8.2118826"><ele>465.0</ele><time>2026-05-03T11:16:12.13Z</time></trkpt><trkpt lat="44.3342865" lon="8.2119276"><ele>465.0</ele><time>2026-05-03T11:16:13.13Z</time></trkpt><trkpt lat="44.3344208" lon="8.2119745"><ele>465.0</ele><time>2026-05-03T11:16:14.131Z</time></trkpt><trkpt lat="44.3345606" lon="8.2120415"><ele>465.0</ele><time>2026-05-03T11:16:15.131Z</time></trkpt><trkpt lat="44.3347002" lon="8.2121103"><ele>465.0</ele><time>2026-05-03T11:16:16.131Z</time></trkpt><trkpt lat="44.3348325" lon="8.2121777"><ele>465.0</ele><time>2026-05-03T11:16:17.131Z</time></trkpt><trkpt lat="44.3349604" lon="8.2122433"><ele>465.0</ele><time>2026-05-03T11:16:18.13Z</time></trkpt><trkpt lat="44.3350795" lon="8.2123044"><ele>465.0</ele><time>2026-05-03T11:16:19.131Z</time></trkpt><trkpt lat="44.3351908" lon="8.2123638"><ele>465.0</ele><time>2026-05-03T11:16:20.13Z</time></trkpt><trkpt lat="44.3352982" lon="8.2124295"><ele>465.0</ele><time>2026-05-03T11:16:21.13Z</time></trkpt><trkpt lat="44.3354117" lon="8.2124912"><ele>465.0</ele><time>2026-05-03T11:16:22.13Z</time></trkpt><trkpt lat="44.3355351" lon="8.2125381"><ele>465.0</ele><time>2026-05-03T11:16:23.131Z</time></trkpt><trkpt lat="44.3356612" lon="8.2125418"><ele>465.0</ele><time>2026-05-03T11:16:24.131Z</time></trkpt><trkpt lat="44.3357945" lon="8.2124935"><ele>465.33333333333337</ele><time>2026-05-03T11:16:25.131Z</time></trkpt><trkpt lat="44.3359342" lon="8.2123967"><ele>465.6666666666667</ele><time>2026-05-03T11:16:26.13Z</time></trkpt><trkpt lat="44.3360649" lon="8.2122746"><ele>466.0</ele><time>2026-05-03T11:16:27.131Z</time></trkpt><trkpt lat="44.3361785" lon="8.212144"><ele>464.25</ele><time>2026-05-03T11:16:28.131Z</time></trkpt><trkpt lat="44.3362823" lon="8.2120132"><ele>462.5</ele><time>2026-05-03T11:16:29.131Z</time></trkpt><trkpt lat="44.3363812" lon="8.2118845"><ele>460.75</ele><time>2026-05-03T11:16:30.131Z</time></trkpt><trkpt lat="44.3364737" lon="8.2117562"><ele>459.0</ele><time>2026-05-03T11:16:31.13Z</time></trkpt><trkpt lat="44.336561" lon="8.2116244"><ele>461.5</ele><time>2026-05-03T11:16:32.13Z</time></trkpt><trkpt lat="44.3366426" lon="8.2114882"><ele>464.0</ele><time>2026-05-03T11:16:33.131Z</time></trkpt><trkpt lat="44.3367089" lon="8.2113502"><ele>466.5</ele><time>2026-05-03T11:16:34.131Z</time></trkpt><trkpt lat="44.336756" lon="8.2111774"><ele>469.0</ele><time>2026-05-03T11:16:35.131Z</time></trkpt><trkpt lat="44.3367908" lon="8.2109885"><ele>469.0</ele><time>2026-05-03T11:16:36.13Z</time></trkpt><trkpt lat="44.3368119" lon="8.2107942"><ele>469.0</ele><time>2026-05-03T11:16:37.13Z</time></trkpt><trkpt lat="44.3368346" lon="8.2106024"><ele>469.0</ele><time>2026-05-03T11:16:38.131Z</time></trkpt><trkpt lat="44.3368588" lon="8.2104286"><ele>469.0</ele><time>2026-05-03T11:16:39.131Z</time></trkpt><trkpt lat="44.3368848" lon="8.2102568"><ele>467.25</ele><time>2026-05-03T11:16:40.131Z</time></trkpt><trkpt lat="44.3369136" lon="8.2100799"><ele>465.5</ele><time>2026-05-03T11:16:41.13Z</time></trkpt><trkpt lat="44.3369443" lon="8.2098908"><ele>463.75</ele><time>2026-05-03T11:16:42.131Z</time></trkpt><trkpt lat="44.3369801" lon="8.2096988"><ele>462.0</ele><time>2026-05-03T11:16:43.13Z</time></trkpt><trkpt lat="44.3370182" lon="8.2095049"><ele>461.33333333333337</ele><time>2026-05-03T11:16:44.131Z</time></trkpt><trkpt lat="44.3370591" lon="8.2093017"><ele>460.6666666666667</ele><time>2026-05-03T11:16:45.13Z</time></trkpt><trkpt lat="44.3371" lon="8.2090905"><ele>460.0</ele><time>2026-05-03T11:16:46.131Z</time></trkpt><trkpt lat="44.3371391" lon="8.2088721"><ele>459.0</ele><time>2026-05-03T11:16:47.131Z</time></trkpt><trkpt lat="44.3371762" lon="8.2086503"><ele>458.0</ele><time>2026-05-03T11:16:48.131Z</time></trkpt><trkpt lat="44.337212" lon="8.2084288"><ele>457.0</ele><time>2026-05-03T11:16:49.131Z</time></trkpt><trkpt lat="44.3372488" lon="8.2082076"><ele>458.0</ele><time>2026-05-03T11:16:50.132Z</time></trkpt><trkpt lat="44.3372861" lon="8.207986"><ele>459.0</ele><time>2026-05-03T11:16:51.131Z</time></trkpt><trkpt lat="44.337325" lon="8.2077584"><ele>460.0</ele><time>2026-05-03T11:16:52.131Z</time></trkpt><trkpt lat="44.3373628" lon="8.2075223"><ele>460.0</ele><time>2026-05-03T11:16:53.13Z</time></trkpt><trkpt lat="44.3373941" lon="8.2072917"><ele>460.0</ele><time>2026-05-03T11:16:54.131Z</time></trkpt><trkpt lat="44.3374132" lon="8.2070785"><ele>460.0</ele><time>2026-05-03T11:16:55.13Z</time></trkpt><trkpt lat="44.3374125" lon="8.20688"><ele>460.0</ele><time>2026-05-03T11:16:56.131Z</time></trkpt><trkpt lat="44.337411" lon="8.2066888"><ele>460.0</ele><time>2026-05-03T11:16:57.131Z</time></trkpt><trkpt lat="44.3374163" lon="8.2065016"><ele>460.0</ele><time>2026-05-03T11:16:58.131Z</time></trkpt><trkpt lat="44.3374291" lon="8.2063143"><ele>460.0</ele><time>2026-05-03T11:16:59.131Z</time></trkpt><trkpt lat="44.3374504" lon="8.2061256"><ele>459.75</ele><time>2026-05-03T11:17:00.132Z</time></trkpt><trkpt lat="44.3374845" lon="8.20594"><ele>459.5</ele><time>2026-05-03T11:17:01.132Z</time></trkpt><trkpt lat="44.3375358" lon="8.2057634"><ele>459.25</ele><time>2026-05-03T11:17:02.131Z</time></trkpt><trkpt lat="44.3375966" lon="8.205595"><ele>459.0</ele><time>2026-05-03T11:17:03.131Z</time></trkpt><trkpt lat="44.3376827" lon="8.2054491"><ele>459.25</ele><time>2026-05-03T11:17:04.131Z</time></trkpt><trkpt lat="44.3377937" lon="8.2053437"><ele>459.5</ele><time>2026-05-03T11:17:05.131Z</time></trkpt><trkpt lat="44.3379223" lon="8.2052547"><ele>459.75</ele><time>2026-05-03T11:17:06.131Z</time></trkpt><trkpt lat="44.3380629" lon="8.2051755"><ele>460.0</ele><time>2026-05-03T11:17:07.132Z</time></trkpt><trkpt lat="44.3382055" lon="8.2050871"><ele>460.0</ele><time>2026-05-03T11:17:08.131Z</time></trkpt><trkpt lat="44.3383453" lon="8.2049909"><ele>460.0</ele><time>2026-05-03T11:17:09.132Z</time></trkpt><trkpt lat="44.3384824" lon="8.2048838"><ele>460.0</ele><time>2026-05-03T11:17:10.131Z</time></trkpt><trkpt lat="44.3386155" lon="8.2047698"><ele>460.25</ele><time>2026-05-03T11:17:11.132Z</time></trkpt><trkpt lat="44.3387557" lon="8.2046597"><ele>460.5</ele><time>2026-05-03T11:17:12.131Z</time></trkpt><trkpt lat="44.338878" lon="8.204539"><ele>460.75</ele><time>2026-05-03T11:17:13.132Z</time></trkpt><trkpt lat="44.3389893" lon="8.2044301"><ele>461.0</ele><time>2026-05-03T11:17:14.132Z</time></trkpt><trkpt lat="44.3390941" lon="8.2043296"><ele>461.0</ele><time>2026-05-03T11:17:15.132Z</time></trkpt><trkpt lat="44.3391973" lon="8.2042318"><ele>461.0</ele><time>2026-05-03T11:17:16.132Z</time></trkpt><trkpt lat="44.339307" lon="8.2041297"><ele>461.0</ele><time>2026-05-03T11:17:17.132Z</time></trkpt><trkpt lat="44.3394197" lon="8.2040201"><ele>461.0</ele><time>2026-05-03T11:17:18.132Z</time></trkpt><trkpt lat="44.3395296" lon="8.2039071"><ele>461.5</ele><time>2026-05-03T11:17:19.131Z</time></trkpt><trkpt lat="44.339646" lon="8.2037972"><ele>462.0</ele><time>2026-05-03T11:17:20.132Z</time></trkpt><trkpt lat="44.3397578" lon="8.2036892"><ele>462.5</ele><time>2026-05-03T11:17:21.132Z</time></trkpt><trkpt lat="44.3398663" lon="8.2035852"><ele>463.0</ele><time>2026-05-03T11:17:22.131Z</time></trkpt><trkpt lat="44.3399719" lon="8.203469"><ele>463.0</ele><time>2026-05-03T11:17:23.132Z</time></trkpt><trkpt lat="44.3400689" lon="8.2033541"><ele>463.0</ele><time>2026-05-03T11:17:24.132Z</time></trkpt><trkpt lat="44.3401588" lon="8.2032297"><ele>463.0</ele><time>2026-05-03T11:17:25.132Z</time></trkpt><trkpt lat="44.3402532" lon="8.2030963"><ele>463.0</ele><time>2026-05-03T11:17:26.131Z</time></trkpt><trkpt lat="44.3403574" lon="8.2029666"><ele>461.25</ele><time>2026-05-03T11:17:27.132Z</time></trkpt><trkpt lat="44.3404705" lon="8.2028512"><ele>459.5</ele><time>2026-05-03T11:17:28.132Z</time></trkpt><trkpt lat="44.3405928" lon="8.2027477"><ele>457.75</ele><time>2026-05-03T11:17:29.132Z</time></trkpt><trkpt lat="44.340723" lon="8.2026721"><ele>456.0</ele><time>2026-05-03T11:17:30.132Z</time></trkpt><trkpt lat="44.3408536" lon="8.2026162"><ele>456.0</ele><time>2026-05-03T11:17:31.131Z</time></trkpt><trkpt lat="44.3409911" lon="8.2025671"><ele>456.0</ele><time>2026-05-03T11:17:32.132Z</time></trkpt><trkpt lat="44.3411369" lon="8.2025084"><ele>456.0</ele><time>2026-05-03T11:17:33.131Z</time></trkpt><trkpt lat="44.341273" lon="8.202425"><ele>456.0</ele><time>2026-05-03T11:17:34.132Z</time></trkpt><trkpt lat="44.3413745" lon="8.2022969"><ele>454.75</ele><time>2026-05-03T11:17:35.132Z</time></trkpt><trkpt lat="44.3414545" lon="8.2021512"><ele>453.5</ele><time>2026-05-03T11:17:36.132Z</time></trkpt><trkpt lat="44.3415376" lon="8.2020294"><ele>452.25</ele><time>2026-05-03T11:17:37.132Z</time></trkpt><trkpt lat="44.3416109" lon="8.2019131"><ele>451.0</ele><time>2026-05-03T11:17:38.132Z</time></trkpt><trkpt lat="44.3416834" lon="8.2018051"><ele>451.0</ele><time>2026-05-03T11:17:39.131Z</time></trkpt><trkpt lat="44.3417522" lon="8.2017093"><ele>451.0</ele><time>2026-05-03T11:17:40.132Z</time></trkpt><trkpt lat="44.341826" lon="8.2016334"><ele>451.0</ele><time>2026-05-03T11:17:41.132Z</time></trkpt><trkpt lat="44.3419046" lon="8.2015758"><ele>451.0</ele><time>2026-05-03T11:17:42.132Z</time></trkpt><trkpt lat="44.3420016" lon="8.201565"><ele>451.0</ele><time>2026-05-03T11:17:43.131Z</time></trkpt><trkpt lat="44.342147" lon="8.2016188"><ele>455.75</ele><time>2026-05-03T11:17:44.132Z</time></trkpt><trkpt lat="44.3422584" lon="8.2017197"><ele>460.5</ele><time>2026-05-03T11:17:45.132Z</time></trkpt><trkpt lat="44.3423784" lon="8.2018292"><ele>465.25</ele><time>2026-05-03T11:17:46.131Z</time></trkpt><trkpt lat="44.3425034" lon="8.2019276"><ele>470.0</ele><time>2026-05-03T11:17:47.132Z</time></trkpt><trkpt lat="44.3426271" lon="8.2020223"><ele>470.0</ele><time>2026-05-03T11:17:48.132Z</time></trkpt><trkpt lat="44.3427461" lon="8.2021248"><ele>470.0</ele><time>2026-05-03T11:17:49.132Z</time></trkpt><trkpt lat="44.3428476" lon="8.2022397"><ele>470.0</ele><time>2026-05-03T11:17:50.132Z</time></trkpt><trkpt lat="44.3429246" lon="8.2023886"><ele>470.0</ele><time>2026-05-03T11:17:51.132Z</time></trkpt><trkpt lat="44.3429734" lon="8.2025573"><ele>466.25</ele><time>2026-05-03T11:17:52.132Z</time></trkpt><trkpt lat="44.3430062" lon="8.202725"><ele>462.5</ele><time>2026-05-03T11:17:53.131Z</time></trkpt><trkpt lat="44.3430153" lon="8.2028998"><ele>458.75</ele><time>2026-05-03T11:17:54.131Z</time></trkpt><trkpt lat="44.343002" lon="8.2030709"><ele>455.0</ele><time>2026-05-03T11:17:55.132Z</time></trkpt><trkpt lat="44.3429812" lon="8.2032444"><ele>454.0</ele><time>2026-05-03T11:17:56.132Z</time></trkpt><trkpt lat="44.3429668" lon="8.20343"><ele>453.0</ele><time>2026-05-03T11:17:57.131Z</time></trkpt><trkpt lat="44.3429692" lon="8.2036106"><ele>452.0</ele><time>2026-05-03T11:17:58.131Z</time></trkpt><trkpt lat="44.3430064" lon="8.2037793"><ele>451.0</ele><time>2026-05-03T11:17:59.132Z</time></trkpt><trkpt lat="44.3430936" lon="8.2039383"><ele>454.25</ele><time>2026-05-03T11:18:00.133Z</time></trkpt><trkpt lat="44.3432062" lon="8.2040764"><ele>457.5</ele><time>2026-05-03T11:18:01.131Z</time></trkpt><trkpt lat="44.3433103" lon="8.2042093"><ele>460.75</ele><time>2026-05-03T11:18:02.131Z</time></trkpt><trkpt lat="44.3434113" lon="8.2043422"><ele>464.0</ele><time>2026-05-03T11:18:03.132Z</time></trkpt><trkpt lat="44.3435111" lon="8.2044759"><ele>464.0</ele><time>2026-05-03T11:18:04.131Z</time></trkpt><trkpt lat="44.3436177" lon="8.2046023"><ele>464.0</ele><time>2026-05-03T11:18:05.131Z</time></trkpt><trkpt lat="44.3437427" lon="8.2046963"><ele>464.0</ele><time>2026-05-03T11:18:06.132Z</time></trkpt><trkpt lat="44.3438711" lon="8.2047817"><ele>464.0</ele><time>2026-05-03T11:18:07.131Z</time></trkpt><trkpt lat="44.3440131" lon="8.2048739"><ele>463.3333333333333</ele><time>2026-05-03T11:18:08.133Z</time></trkpt><trkpt lat="44.3441561" lon="8.2049731"><ele>462.66666666666663</ele><time>2026-05-03T11:18:09.133Z</time></trkpt><trkpt lat="44.3442931" lon="8.205082"><ele>462.0</ele><time>2026-05-03T11:18:10.133Z</time></trkpt><trkpt lat="44.344412" lon="8.2051893"><ele>462.0</ele><time>2026-05-03T11:18:11.132Z</time></trkpt><trkpt lat="44.3445231" lon="8.2052975"><ele>462.0</ele><time>2026-05-03T11:18:12.133Z</time></trkpt><trkpt lat="44.344637" lon="8.205401"><ele>462.0</ele><time>2026-05-03T11:18:13.133Z</time></trkpt><trkpt lat="44.3447512" lon="8.2054996"><ele>462.0</ele><time>2026-05-03T11:18:14.133Z</time></trkpt><trkpt lat="44.3448683" lon="8.2055937"><ele>459.5</ele><time>2026-05-03T11:18:15.132Z</time></trkpt><trkpt lat="44.3449938" lon="8.2056816"><ele>457.0</ele><time>2026-05-03T11:18:16.133Z</time></trkpt><trkpt lat="44.3451252" lon="8.2057568"><ele>454.5</ele><time>2026-05-03T11:18:17.133Z</time></trkpt><trkpt lat="44.3452665" lon="8.205809"><ele>452.0</ele><time>2026-05-03T11:18:18.133Z</time></trkpt><trkpt lat="44.3454129" lon="8.2058511"><ele>455.75</ele><time>2026-05-03T11:18:19.133Z</time></trkpt><trkpt lat="44.3455537" lon="8.2058866"><ele>459.5</ele><time>2026-05-03T11:18:20.133Z</time></trkpt><trkpt lat="44.3456855" lon="8.2059294"><ele>463.25</ele><time>2026-05-03T11:18:21.132Z</time></trkpt><trkpt lat="44.3458018" lon="8.2059982"><ele>467.0</ele><time>2026-05-03T11:18:22.133Z</time></trkpt><trkpt lat="44.3459016" lon="8.2060998"><ele>467.0</ele><time>2026-05-03T11:18:23.132Z</time></trkpt><trkpt lat="44.3459789" lon="8.206235"><ele>467.0</ele><time>2026-05-03T11:18:24.133Z</time></trkpt><trkpt lat="44.3460376" lon="8.2064022"><ele>467.0</ele><time>2026-05-03T11:18:25.133Z</time></trkpt><trkpt lat="44.3460721" lon="8.2065979"><ele>467.0</ele><time>2026-05-03T11:18:26.132Z</time></trkpt><trkpt lat="44.3460876" lon="8.206814"><ele>464.0</ele><time>2026-05-03T11:18:27.132Z</time></trkpt><trkpt lat="44.3460983" lon="8.2070285"><ele>461.0</ele><time>2026-05-03T11:18:28.132Z</time></trkpt><trkpt lat="44.3461107" lon="8.207244"><ele>458.0</ele><time>2026-05-03T11:18:29.133Z</time></trkpt><trkpt lat="44.3461231" lon="8.2074507"><ele>455.3333333333333</ele><time>2026-05-03T11:18:30.133Z</time></trkpt><trkpt lat="44.3461399" lon="8.2076664"><ele>452.66666666666663</ele><time>2026-05-03T11:18:31.133Z</time></trkpt><trkpt lat="44.3461579" lon="8.2078858"><ele>450.0</ele><time>2026-05-03T11:18:32.133Z</time></trkpt><trkpt lat="44.3461765" lon="8.208096"><ele>449.5</ele><time>2026-05-03T11:18:33.133Z</time></trkpt><trkpt lat="44.3461931" lon="8.208287"><ele>449.0</ele><time>2026-05-03T11:18:34.133Z</time></trkpt><trkpt lat="44.346208" lon="8.2084588"><ele>448.5</ele><time>2026-05-03T11:18:35.132Z</time></trkpt><trkpt lat="44.3462202" lon="8.2086231"><ele>448.0</ele><time>2026-05-03T11:18:36.133Z</time></trkpt><trkpt lat="44.3462288" lon="8.208784"><ele>448.0</ele><time>2026-05-03T11:18:37.133Z</time></trkpt><trkpt lat="44.3462337" lon="8.2089592"><ele>448.0</ele><time>2026-05-03T11:18:38.133Z</time></trkpt><trkpt lat="44.3462328" lon="8.2091486"><ele>448.0</ele><time>2026-05-03T11:18:39.132Z</time></trkpt><trkpt lat="44.3462362" lon="8.2093402"><ele>448.0</ele><time>2026-05-03T11:18:40.132Z</time></trkpt><trkpt lat="44.3462607" lon="8.2095292"><ele>448.0</ele><time>2026-05-03T11:18:41.133Z</time></trkpt><trkpt lat="44.3463332" lon="8.2097139"><ele>448.0</ele><time>2026-05-03T11:18:42.132Z</time></trkpt><trkpt lat="44.3464371" lon="8.209863"><ele>448.0</ele><time>2026-05-03T11:18:43.133Z</time></trkpt><trkpt lat="44.3465317" lon="8.209986"><ele>448.0</ele><time>2026-05-03T11:18:44.132Z</time></trkpt><trkpt lat="44.3466234" lon="8.2100873"><ele>448.25</ele><time>2026-05-03T11:18:45.133Z</time></trkpt><trkpt lat="44.3467119" lon="8.2101637"><ele>448.5</ele><time>2026-05-03T11:18:46.133Z</time></trkpt><trkpt lat="44.3468132" lon="8.2102021"><ele>448.75</ele><time>2026-05-03T11:18:47.133Z</time></trkpt><trkpt lat="44.3469324" lon="8.210207"><ele>449.0</ele><time>2026-05-03T11:18:48.132Z</time></trkpt><trkpt lat="44.3470666" lon="8.2101567"><ele>449.0</ele><time>2026-05-03T11:18:49.133Z</time></trkpt><trkpt lat="44.3472013" lon="8.2100557"><ele>449.0</ele><time>2026-05-03T11:18:50.133Z</time></trkpt><trkpt lat="44.3473419" lon="8.2099291"><ele>449.0</ele><time>2026-05-03T11:18:51.133Z</time></trkpt><trkpt lat="44.3474708" lon="8.2097975"><ele>454.0</ele><time>2026-05-03T11:18:52.133Z</time></trkpt><trkpt lat="44.3476019" lon="8.209667"><ele>459.0</ele><time>2026-05-03T11:18:53.132Z</time></trkpt><trkpt lat="44.3477275" lon="8.2095425"><ele>464.0</ele><time>2026-05-03T11:18:54.133Z</time></trkpt><trkpt lat="44.3478503" lon="8.2094215"><ele>464.0</ele><time>2026-05-03T11:18:55.133Z</time></trkpt><trkpt lat="44.3479705" lon="8.209305"><ele>464.0</ele><time>2026-05-03T11:18:56.133Z</time></trkpt><trkpt lat="44.3480819" lon="8.2091991"><ele>464.0</ele><time>2026-05-03T11:18:57.133Z</time></trkpt><trkpt lat="44.3481986" lon="8.2091008"><ele>464.0</ele><time>2026-05-03T11:18:58.132Z</time></trkpt><trkpt lat="44.3483209" lon="8.2090092"><ele>466.75</ele><time>2026-05-03T11:18:59.133Z</time></trkpt><trkpt lat="44.3484383" lon="8.2089203"><ele>469.5</ele><time>2026-05-03T11:19:00.133Z</time></trkpt><trkpt lat="44.3485538" lon="8.2088388"><ele>472.25</ele><time>2026-05-03T11:19:01.132Z</time></trkpt><trkpt lat="44.3486694" lon="8.208763"><ele>475.0</ele><time>2026-05-03T11:19:02.133Z</time></trkpt><trkpt lat="44.348792" lon="8.2087138"><ele>473.5</ele><time>2026-05-03T11:19:03.133Z</time></trkpt><trkpt lat="44.3489122" lon="8.2087153"><ele>472.0</ele><time>2026-05-03T11:19:04.134Z</time></trkpt><trkpt lat="44.3490381" lon="8.2087602"><ele>470.5</ele><time>2026-05-03T11:19:05.133Z</time></trkpt><trkpt lat="44.3491788" lon="8.2088111"><ele>469.0</ele><time>2026-05-03T11:19:06.132Z</time></trkpt><trkpt lat="44.3493272" lon="8.2088457"><ele>469.0</ele><time>2026-05-03T11:19:07.133Z</time></trkpt><trkpt lat="44.3494741" lon="8.2088287"><ele>469.0</ele><time>2026-05-03T11:19:08.133Z</time></trkpt><trkpt lat="44.3496275" lon="8.2087644"><ele>469.0</ele><time>2026-05-03T11:19:09.133Z</time></trkpt><trkpt lat="44.3497773" lon="8.2086662"><ele>467.33333333333337</ele><time>2026-05-03T11:19:10.132Z</time></trkpt><trkpt lat="44.3499186" lon="8.2085619"><ele>465.66666666666663</ele><time>2026-05-03T11:19:11.133Z</time></trkpt><trkpt lat="44.350056" lon="8.208464"><ele>464.0</ele><time>2026-05-03T11:19:12.134Z</time></trkpt><trkpt lat="44.3501996" lon="8.2083709"><ele>464.0</ele><time>2026-05-03T11:19:13.133Z</time></trkpt><trkpt lat="44.3503513" lon="8.2082892"><ele>464.0</ele><time>2026-05-03T11:19:14.133Z</time></trkpt><trkpt lat="44.3505019" lon="8.2082092"><ele>464.0</ele><time>2026-05-03T11:19:15.134Z</time></trkpt><trkpt lat="44.3506493" lon="8.2081295"><ele>468.0</ele><time>2026-05-03T11:19:16.134Z</time></trkpt><trkpt lat="44.3507972" lon="8.2080502"><ele>472.0</ele><time>2026-05-03T11:19:17.134Z</time></trkpt><trkpt lat="44.3509421" lon="8.2079763"><ele>476.0</ele><time>2026-05-03T11:19:18.133Z</time></trkpt><trkpt lat="44.3510762" lon="8.2079048"><ele>476.0</ele><time>2026-05-03T11:19:19.134Z</time></trkpt><trkpt lat="44.3512031" lon="8.2078423"><ele>476.0</ele><time>2026-05-03T11:19:20.133Z</time></trkpt><trkpt lat="44.3513315" lon="8.2077772"><ele>476.0</ele><time>2026-05-03T11:19:21.134Z</time></trkpt><trkpt lat="44.3514545" lon="8.2077047"><ele>476.0</ele><time>2026-05-03T11:19:22.134Z</time></trkpt><trkpt lat="44.3515638" lon="8.2076055"><ele>471.5</ele><time>2026-05-03T11:19:23.134Z</time></trkpt><trkpt lat="44.3516496" lon="8.2074693"><ele>467.0</ele><time>2026-05-03T11:19:24.134Z</time></trkpt><trkpt lat="44.3517174" lon="8.2073026"><ele>462.5</ele><time>2026-05-03T11:19:25.134Z</time></trkpt><trkpt lat="44.3517825" lon="8.2071219"><ele>458.0</ele><time>2026-05-03T11:19:26.133Z</time></trkpt><trkpt lat="44.3518389" lon="8.2069481"><ele>458.0</ele><time>2026-05-03T11:19:27.134Z</time></trkpt><trkpt lat="44.3518945" lon="8.2067702"><ele>458.0</ele><time>2026-05-03T11:19:28.133Z</time></trkpt><trkpt lat="44.3519524" lon="8.2065934"><ele>458.0</ele><time>2026-05-03T11:19:29.133Z</time></trkpt><trkpt lat="44.3520275" lon="8.2064272"><ele>458.0</ele><time>2026-05-03T11:19:30.133Z</time></trkpt><trkpt lat="44.3521242" lon="8.2062931"><ele>457.75</ele><time>2026-05-03T11:19:31.133Z</time></trkpt><trkpt lat="44.3522505" lon="8.2061919"><ele>457.5</ele><time>2026-05-03T11:19:32.133Z</time></trkpt><trkpt lat="44.352371" lon="8.2060893"><ele>457.25</ele><time>2026-05-03T11:19:33.133Z</time></trkpt><trkpt lat="44.3525022" lon="8.2059843"><ele>457.0</ele><time>2026-05-03T11:19:34.134Z</time></trkpt><trkpt lat="44.3526297" lon="8.2058703"><ele>457.0</ele><time>2026-05-03T11:19:35.134Z</time></trkpt><trkpt lat="44.3527571" lon="8.2057607"><ele>457.0</ele><time>2026-05-03T11:19:36.133Z</time></trkpt><trkpt lat="44.3528787" lon="8.2056574"><ele>457.0</ele><time>2026-05-03T11:19:37.133Z</time></trkpt><trkpt lat="44.3530017" lon="8.2055605"><ele>457.0</ele><time>2026-05-03T11:19:38.134Z</time></trkpt><trkpt lat="44.3531228" lon="8.2054674"><ele>456.5</ele><time>2026-05-03T11:19:39.133Z</time></trkpt><trkpt lat="44.3532472" lon="8.2053832"><ele>456.0</ele><time>2026-05-03T11:19:40.134Z</time></trkpt><trkpt lat="44.3533785" lon="8.2053146"><ele>455.5</ele><time>2026-05-03T11:19:41.134Z</time></trkpt><trkpt lat="44.3535202" lon="8.2052643"><ele>455.0</ele><time>2026-05-03T11:19:42.134Z</time></trkpt><trkpt lat="44.3536585" lon="8.2052335"><ele>455.0</ele><time>2026-05-03T11:19:43.134Z</time></trkpt><trkpt lat="44.3537852" lon="8.2052177"><ele>455.0</ele><time>2026-05-03T11:19:44.133Z</time></trkpt><trkpt lat="44.3539031" lon="8.2052072"><ele>455.0</ele><time>2026-05-03T11:19:45.134Z</time></trkpt><trkpt lat="44.3540072" lon="8.205207"><ele>455.0</ele><time>2026-05-03T11:19:46.133Z</time></trkpt><trkpt lat="44.3541125" lon="8.2052305"><ele>451.25</ele><time>2026-05-03T11:19:47.133Z</time></trkpt><trkpt lat="44.3542217" lon="8.2053041"><ele>447.5</ele><time>2026-05-03T11:19:48.133Z</time></trkpt><trkpt lat="44.354318" lon="8.2054248"><ele>443.75</ele><time>2026-05-03T11:19:49.133Z</time></trkpt><trkpt lat="44.3543918" lon="8.2055853"><ele>440.0</ele><time>2026-05-03T11:19:50.134Z</time></trkpt><trkpt lat="44.3544458" lon="8.2057482"><ele>439.2</ele><time>2026-05-03T11:19:51.133Z</time></trkpt><trkpt lat="44.3545017" lon="8.2058954"><ele>438.4</ele><time>2026-05-03T11:19:52.133Z</time></trkpt><trkpt lat="44.3545555" lon="8.2060274"><ele>437.6</ele><time>2026-05-03T11:19:53.134Z</time></trkpt><trkpt lat="44.3546128" lon="8.2061479"><ele>436.8</ele><time>2026-05-03T11:19:54.134Z</time></trkpt><trkpt lat="44.3546714" lon="8.2062687"><ele>436.0</ele><time>2026-05-03T11:19:55.134Z</time></trkpt><trkpt lat="44.3547359" lon="8.206383"><ele>438.20000000000005</ele><time>2026-05-03T11:19:56.133Z</time></trkpt><trkpt lat="44.3548016" lon="8.2064714"><ele>440.40000000000003</ele><time>2026-05-03T11:19:57.133Z</time></trkpt><trkpt lat="44.3548947" lon="8.2065223"><ele>442.6</ele><time>2026-05-03T11:19:58.134Z</time></trkpt><trkpt lat="44.3550206" lon="8.2065321"><ele>444.8</ele><time>2026-05-03T11:19:59.134Z</time></trkpt><trkpt lat="44.3551494" lon="8.2065203"><ele>447.0</ele><time>2026-05-03T11:20:00.134Z</time></trkpt><trkpt lat="44.3552671" lon="8.2065057"><ele>447.3333333333333</ele><time>2026-05-03T11:20:01.134Z</time></trkpt><trkpt lat="44.355372" lon="8.2064997"><ele>447.66666666666663</ele><time>2026-05-03T11:20:02.133Z</time></trkpt><trkpt lat="44.3554534" lon="8.2065008"><ele>448.0</ele><time>2026-05-03T11:20:03.134Z</time></trkpt><trkpt lat="44.3555409" lon="8.2065237"><ele>448.3333333333333</ele><time>2026-05-03T11:20:04.134Z</time></trkpt><trkpt lat="44.3556169" lon="8.2065522"><ele>448.66666666666663</ele><time>2026-05-03T11:20:05.133Z</time></trkpt><trkpt lat="44.3557014" lon="8.2065749"><ele>449.0</ele><time>2026-05-03T11:20:06.134Z</time></trkpt><trkpt lat="44.3557828" lon="8.2065992"><ele>447.2</ele><time>2026-05-03T11:20:07.134Z</time></trkpt><trkpt lat="44.3558751" lon="8.2066405"><ele>445.4</ele><time>2026-05-03T11:20:08.133Z</time></trkpt><trkpt lat="44.3559727" lon="8.2066847"><ele>443.6</ele><time>2026-05-03T11:20:09.134Z</time></trkpt><trkpt lat="44.356066" lon="8.2067257"><ele>441.8</ele><time>2026-05-03T11:20:10.134Z</time></trkpt><trkpt lat="44.3561626" lon="8.2067618"><ele>440.0</ele><time>2026-05-03T11:20:11.133Z</time></trkpt><trkpt lat="44.356265" lon="8.2068044"><ele>439.4</ele><time>2026-05-03T11:20:12.133Z</time></trkpt><trkpt lat="44.3563725" lon="8.2068513"><ele>438.8</ele><time>2026-05-03T11:20:13.133Z</time></trkpt><trkpt lat="44.3564676" lon="8.2068921"><ele>438.20000000000005</ele><time>2026-05-03T11:20:14.134Z</time></trkpt><trkpt lat="44.3565548" lon="8.2069231"><ele>437.6</ele><time>2026-05-03T11:20:15.134Z</time></trkpt><trkpt lat="44.3566358" lon="8.20695"><ele>437.0</ele><time>2026-05-03T11:20:16.133Z</time></trkpt><trkpt lat="44.3567291" lon="8.2069826"><ele>437.0</ele><time>2026-05-03T11:20:17.134Z</time></trkpt><trkpt lat="44.3568265" lon="8.2070146"><ele>437.00000000000006</ele><time>2026-05-03T11:20:18.133Z</time></trkpt><trkpt lat="44.3569276" lon="8.207051"><ele>437.00000000000006</ele><time>2026-05-03T11:20:19.133Z</time></trkpt><trkpt lat="44.3570305" lon="8.2070868"><ele>437.0</ele><time>2026-05-03T11:20:20.134Z</time></trkpt><trkpt lat="44.3571336" lon="8.2071221"><ele>437.0</ele><time>2026-05-03T11:20:21.133Z</time></trkpt><trkpt lat="44.3572364" lon="8.2071609"><ele>436.6</ele><time>2026-05-03T11:20:22.134Z</time></trkpt><trkpt lat="44.3573356" lon="8.2072024"><ele>436.20000000000005</ele><time>2026-05-03T11:20:23.134Z</time></trkpt><trkpt lat="44.3574373" lon="8.2072419"><ele>435.8</ele><time>2026-05-03T11:20:24.134Z</time></trkpt><trkpt lat="44.3575432" lon="8.2072812"><ele>435.4</ele><time>2026-05-03T11:20:25.135Z</time></trkpt><trkpt lat="44.3576508" lon="8.2073196"><ele>435.0</ele><time>2026-05-03T11:20:26.134Z</time></trkpt><trkpt lat="44.3577614" lon="8.2073589"><ele>435.4</ele><time>2026-05-03T11:20:27.134Z</time></trkpt><trkpt lat="44.3578707" lon="8.2074073"><ele>435.8</ele><time>2026-05-03T11:20:28.134Z</time></trkpt><trkpt lat="44.3579789" lon="8.2074614"><ele>436.20000000000005</ele><time>2026-05-03T11:20:29.135Z</time></trkpt><trkpt lat="44.3580795" lon="8.2075241"><ele>436.6</ele><time>2026-05-03T11:20:30.135Z</time></trkpt><trkpt lat="44.3581743" lon="8.2075866"><ele>437.0</ele><time>2026-05-03T11:20:31.134Z</time></trkpt><trkpt lat="44.3582759" lon="8.2076526"><ele>437.0</ele><time>2026-05-03T11:20:32.134Z</time></trkpt><trkpt lat="44.3583856" lon="8.2077216"><ele>437.0</ele><time>2026-05-03T11:20:33.135Z</time></trkpt><trkpt lat="44.3584949" lon="8.2077899"><ele>437.0</ele><time>2026-05-03T11:20:34.135Z</time></trkpt><trkpt lat="44.3586022" lon="8.2078575"><ele>437.0</ele><time>2026-05-03T11:20:35.135Z</time></trkpt><trkpt lat="44.358706" lon="8.2079255"><ele>437.0</ele><time>2026-05-03T11:20:36.134Z</time></trkpt><trkpt lat="44.3588046" lon="8.2080039"><ele>437.0</ele><time>2026-05-03T11:20:37.135Z</time></trkpt><trkpt lat="44.3588919" lon="8.2080981"><ele>437.0</ele><time>2026-05-03T11:20:38.134Z</time></trkpt><trkpt lat="44.3589692" lon="8.2082048"><ele>437.0</ele><time>2026-05-03T11:20:39.134Z</time></trkpt><trkpt lat="44.3590497" lon="8.2083282"><ele>438.75</ele><time>2026-05-03T11:20:40.134Z</time></trkpt><trkpt lat="44.3591345" lon="8.2084562"><ele>440.5</ele><time>2026-05-03T11:20:41.135Z</time></trkpt><trkpt lat="44.3592227" lon="8.2085807"><ele>442.25</ele><time>2026-05-03T11:20:42.135Z</time></trkpt><trkpt lat="44.3593068" lon="8.2086998"><ele>444.0</ele><time>2026-05-03T11:20:43.134Z</time></trkpt><trkpt lat="44.3593877" lon="8.2088049"><ele>444.0</ele><time>2026-05-03T11:20:44.135Z</time></trkpt><trkpt lat="44.3594659" lon="8.2089039"><ele>444.0</ele><time>2026-05-03T11:20:45.135Z</time></trkpt><trkpt lat="44.3595471" lon="8.2089986"><ele>444.0</ele><time>2026-05-03T11:20:46.134Z</time></trkpt><trkpt lat="44.3596305" lon="8.2091085"><ele>444.0</ele><time>2026-05-03T11:20:47.135Z</time></trkpt><trkpt lat="44.3597187" lon="8.2092177"><ele>444.0</ele><time>2026-05-03T11:20:48.135Z</time></trkpt><trkpt lat="44.3597892" lon="8.2093294"><ele>441.79999999999995</ele><time>2026-05-03T11:20:49.135Z</time></trkpt><trkpt lat="44.3598866" lon="8.2094129"><ele>439.59999999999997</ele><time>2026-05-03T11:20:50.135Z</time></trkpt><trkpt lat="44.3599699" lon="8.209489"><ele>437.4</ele><time>2026-05-03T11:20:51.134Z</time></trkpt><trkpt lat="44.3600507" lon="8.2095632"><ele>435.2</ele><time>2026-05-03T11:20:52.135Z</time></trkpt><trkpt lat="44.3601266" lon="8.2096361"><ele>433.0</ele><time>2026-05-03T11:20:53.134Z</time></trkpt><trkpt lat="44.3601944" lon="8.2097004"><ele>433.00000000000006</ele><time>2026-05-03T11:20:54.134Z</time></trkpt><trkpt lat="44.3602565" lon="8.2097592"><ele>433.0</ele><time>2026-05-03T11:20:55.134Z</time></trkpt><trkpt lat="44.3603146" lon="8.2098189"><ele>433.0</ele><time>2026-05-03T11:20:56.134Z</time></trkpt><trkpt lat="44.3603751" lon="8.209879"><ele>433.0</ele><time>2026-05-03T11:20:57.134Z</time></trkpt><trkpt lat="44.3604363" lon="8.2099334"><ele>433.00000000000006</ele><time>2026-05-03T11:20:58.134Z</time></trkpt><trkpt lat="44.3604957" lon="8.2099742"><ele>433.0</ele><time>2026-05-03T11:20:59.135Z</time></trkpt><trkpt lat="44.3606065" lon="8.2100102"><ele>434.0</ele><time>2026-05-03T11:21:01.134Z</time></trkpt><trkpt lat="44.3606862" lon="8.2100253"><ele>434.99999999999994</ele><time>2026-05-03T11:21:03.134Z</time></trkpt><trkpt lat="44.3607872" lon="8.210081"><ele>435.99999999999994</ele><time>2026-05-03T11:21:07.135Z</time></trkpt><trkpt lat="44.3608695" lon="8.2102217"><ele>437.0</ele><time>2026-05-03T11:21:09.135Z</time></trkpt><trkpt lat="44.3608938" lon="8.210315"><ele>438.0</ele><time>2026-05-03T11:21:10.135Z</time></trkpt><trkpt lat="44.3609001" lon="8.210414"><ele>438.0</ele><time>2026-05-03T11:21:11.135Z</time></trkpt><trkpt lat="44.3609021" lon="8.2105168"><ele>438.0</ele><time>2026-05-03T11:21:12.136Z</time></trkpt><trkpt lat="44.3609028" lon="8.2106127"><ele>438.0</ele><time>2026-05-03T11:21:13.135Z</time></trkpt><trkpt lat="44.3609064" lon="8.2107099"><ele>438.0</ele><time>2026-05-03T11:21:14.135Z</time></trkpt><trkpt lat="44.3609108" lon="8.2108029"><ele>438.0</ele><time>2026-05-03T11:21:15.135Z</time></trkpt><trkpt lat="44.3609054" lon="8.210959"><ele>438.0</ele><time>2026-05-03T11:21:17.135Z</time></trkpt><trkpt lat="44.3608857" lon="8.2110886"><ele>439.0</ele><time>2026-05-03T11:21:19.134Z</time></trkpt><trkpt lat="44.3608415" lon="8.2112076"><ele>439.99999999999994</ele><time>2026-05-03T11:21:22.135Z</time></trkpt><trkpt lat="44.3608037" lon="8.2113025"><ele>440.99999999999994</ele><time>2026-05-03T11:21:24.135Z</time></trkpt><trkpt lat="44.3607672" lon="8.211382"><ele>442.0</ele><time>2026-05-03T11:21:26.134Z</time></trkpt><trkpt lat="44.3607292" lon="8.2114705"><ele>443.0</ele><time>2026-05-03T11:21:28.135Z</time></trkpt><trkpt lat="44.3607" lon="8.2116554"><ele>443.59999999999997</ele><time>2026-05-03T11:21:30.134Z</time></trkpt><trkpt lat="44.3607115" lon="8.2118107"><ele>444.19999999999993</ele><time>2026-05-03T11:21:31.134Z</time></trkpt><trkpt lat="44.3607264" lon="8.2119514"><ele>444.8</ele><time>2026-05-03T11:21:32.136Z</time></trkpt><trkpt lat="44.3607188" lon="8.2120977"><ele>445.4</ele><time>2026-05-03T11:21:33.136Z</time></trkpt><trkpt lat="44.3607027" lon="8.2122454"><ele>446.0</ele><time>2026-05-03T11:21:34.136Z</time></trkpt><trkpt lat="44.3606912" lon="8.2123951"><ele>446.0</ele><time>2026-05-03T11:21:35.135Z</time></trkpt><trkpt lat="44.3606853" lon="8.2125549"><ele>446.0</ele><time>2026-05-03T11:21:36.136Z</time></trkpt><trkpt lat="44.360677" lon="8.2127279"><ele>446.0</ele><time>2026-05-03T11:21:37.135Z</time></trkpt><trkpt lat="44.3606584" lon="8.2129082"><ele>446.0</ele><time>2026-05-03T11:21:38.136Z</time></trkpt><trkpt lat="44.36063" lon="8.213094"><ele>446.75</ele><time>2026-05-03T11:21:39.135Z</time></trkpt><trkpt lat="44.3605889" lon="8.2132804"><ele>447.5</ele><time>2026-05-03T11:21:40.136Z</time></trkpt><trkpt lat="44.3605328" lon="8.2134654"><ele>448.25</ele><time>2026-05-03T11:21:41.135Z</time></trkpt><trkpt lat="44.3604619" lon="8.2136497"><ele>449.0</ele><time>2026-05-03T11:21:42.136Z</time></trkpt><trkpt lat="44.3603799" lon="8.2138191"><ele>449.5</ele><time>2026-05-03T11:21:43.136Z</time></trkpt><trkpt lat="44.3602929" lon="8.2139647"><ele>450.0</ele><time>2026-05-03T11:21:44.136Z</time></trkpt><trkpt lat="44.3601884" lon="8.2141005"><ele>450.5</ele><time>2026-05-03T11:21:45.135Z</time></trkpt><trkpt lat="44.3600607" lon="8.2142303"><ele>451.0</ele><time>2026-05-03T11:21:46.136Z</time></trkpt><trkpt lat="44.359924" lon="8.2143435"><ele>451.0</ele><time>2026-05-03T11:21:47.135Z</time></trkpt><trkpt lat="44.3597957" lon="8.2144452"><ele>451.0</ele><time>2026-05-03T11:21:48.136Z</time></trkpt><trkpt lat="44.3596715" lon="8.2145417"><ele>451.0</ele><time>2026-05-03T11:21:49.136Z</time></trkpt><trkpt lat="44.3595476" lon="8.2146383"><ele>451.0</ele><time>2026-05-03T11:21:50.136Z</time></trkpt><trkpt lat="44.3594289" lon="8.2147356"><ele>453.0</ele><time>2026-05-03T11:21:51.136Z</time></trkpt><trkpt lat="44.3593142" lon="8.2148392"><ele>455.0</ele><time>2026-05-03T11:21:52.136Z</time></trkpt><trkpt lat="44.3592021" lon="8.2149383"><ele>457.0</ele><time>2026-05-03T11:21:53.136Z</time></trkpt><trkpt lat="44.3591009" lon="8.2150313"><ele>459.0</ele><time>2026-05-03T11:21:54.136Z</time></trkpt><trkpt lat="44.3590081" lon="8.2151288"><ele>459.0</ele><time>2026-05-03T11:21:55.135Z</time></trkpt><trkpt lat="44.35893" lon="8.2152338"><ele>459.0</ele><time>2026-05-03T11:21:56.135Z</time></trkpt><trkpt lat="44.3588659" lon="8.2153568"><ele>459.0</ele><time>2026-05-03T11:21:57.136Z</time></trkpt><trkpt lat="44.3588342" lon="8.2154883"><ele>459.0</ele><time>2026-05-03T11:21:58.136Z</time></trkpt><trkpt lat="44.3588282" lon="8.2156352"><ele>459.0</ele><time>2026-05-03T11:21:59.136Z</time></trkpt><trkpt lat="44.3588518" lon="8.2157929"><ele>460.75</ele><time>2026-05-03T11:22:00.136Z</time></trkpt><trkpt lat="44.3588996" lon="8.2159419"><ele>462.5</ele><time>2026-05-03T11:22:01.136Z</time></trkpt><trkpt lat="44.3589659" lon="8.2160869"><ele>464.25</ele><time>2026-05-03T11:22:02.136Z</time></trkpt><trkpt lat="44.3590519" lon="8.2162495"><ele>466.0</ele><time>2026-05-03T11:22:03.136Z</time></trkpt><trkpt lat="44.3591195" lon="8.2164038"><ele>466.25</ele><time>2026-05-03T11:22:04.135Z</time></trkpt><trkpt lat="44.359182" lon="8.2165608"><ele>466.5</ele><time>2026-05-03T11:22:05.135Z</time></trkpt><trkpt lat="44.3592362" lon="8.2167189"><ele>466.75</ele><time>2026-05-03T11:22:06.136Z</time></trkpt><trkpt lat="44.3592759" lon="8.2168842"><ele>467.0</ele><time>2026-05-03T11:22:07.135Z</time></trkpt><trkpt lat="44.3592908" lon="8.2170665"><ele>467.0</ele><time>2026-05-03T11:22:08.136Z</time></trkpt><trkpt lat="44.3592811" lon="8.2172581"><ele>467.0</ele><time>2026-05-03T11:22:09.136Z</time></trkpt><trkpt lat="44.3592283" lon="8.2174469"><ele>467.0</ele><time>2026-05-03T11:22:10.136Z</time></trkpt><trkpt lat="44.3591519" lon="8.2176312"><ele>467.0</ele><time>2026-05-03T11:22:11.136Z</time></trkpt><trkpt lat="44.3590648" lon="8.2178035"><ele>466.75</ele><time>2026-05-03T11:22:12.135Z</time></trkpt><trkpt lat="44.3589887" lon="8.2179579"><ele>466.5</ele><time>2026-05-03T11:22:13.136Z</time></trkpt><trkpt lat="44.3589306" lon="8.2181012"><ele>466.25</ele><time>2026-05-03T11:22:14.136Z</time></trkpt><trkpt lat="44.3588847" lon="8.2182649"><ele>466.0</ele><time>2026-05-03T11:22:15.136Z</time></trkpt><trkpt lat="44.3588615" lon="8.2184399"><ele>467.0</ele><time>2026-05-03T11:22:16.136Z</time></trkpt><trkpt lat="44.3588429" lon="8.2186236"><ele>468.0</ele><time>2026-05-03T11:22:17.136Z</time></trkpt><trkpt lat="44.3588188" lon="8.2188174"><ele>469.0</ele><time>2026-05-03T11:22:18.136Z</time></trkpt><trkpt lat="44.3587963" lon="8.2190054"><ele>470.0</ele><time>2026-05-03T11:22:19.136Z</time></trkpt><trkpt lat="44.3587759" lon="8.2191909"><ele>471.5</ele><time>2026-05-03T11:22:20.136Z</time></trkpt><trkpt lat="44.3587621" lon="8.2193705"><ele>473.0</ele><time>2026-05-03T11:22:21.135Z</time></trkpt><trkpt lat="44.3587594" lon="8.2195461"><ele>474.5</ele><time>2026-05-03T11:22:22.135Z</time></trkpt><trkpt lat="44.3587644" lon="8.2197241"><ele>476.0</ele><time>2026-05-03T11:22:23.136Z</time></trkpt><trkpt lat="44.3587738" lon="8.219897"><ele>477.0</ele><time>2026-05-03T11:22:24.136Z</time></trkpt><trkpt lat="44.3587771" lon="8.2200637"><ele>478.0</ele><time>2026-05-03T11:22:25.136Z</time></trkpt><trkpt lat="44.3587642" lon="8.2202204"><ele>479.0</ele><time>2026-05-03T11:22:26.136Z</time></trkpt><trkpt lat="44.3587107" lon="8.2203737"><ele>480.0</ele><time>2026-05-03T11:22:27.136Z</time></trkpt><trkpt lat="44.3586236" lon="8.2204923"><ele>480.0</ele><time>2026-05-03T11:22:28.135Z</time></trkpt><trkpt lat="44.358524" lon="8.2205869"><ele>480.0</ele><time>2026-05-03T11:22:29.136Z</time></trkpt><trkpt lat="44.3584108" lon="8.2206267"><ele>480.0</ele><time>2026-05-03T11:22:30.136Z</time></trkpt><trkpt lat="44.3582741" lon="8.2206277"><ele>480.0</ele><time>2026-05-03T11:22:31.135Z</time></trkpt><trkpt lat="44.3581486" lon="8.2206242"><ele>480.75</ele><time>2026-05-03T11:22:32.136Z</time></trkpt><trkpt lat="44.3580144" lon="8.2206216"><ele>481.5</ele><time>2026-05-03T11:22:33.136Z</time></trkpt><trkpt lat="44.3578941" lon="8.2206279"><ele>482.25</ele><time>2026-05-03T11:22:34.135Z</time></trkpt><trkpt lat="44.3577925" lon="8.220637"><ele>483.0</ele><time>2026-05-03T11:22:35.135Z</time></trkpt><trkpt lat="44.3576911" lon="8.2206464"><ele>484.2</ele><time>2026-05-03T11:22:36.136Z</time></trkpt><trkpt lat="44.3575922" lon="8.220659"><ele>485.4</ele><time>2026-05-03T11:22:37.136Z</time></trkpt><trkpt lat="44.3574916" lon="8.2206918"><ele>486.59999999999997</ele><time>2026-05-03T11:22:38.135Z</time></trkpt><trkpt lat="44.3574038" lon="8.2207589"><ele>487.79999999999995</ele><time>2026-05-03T11:22:39.136Z</time></trkpt><trkpt lat="44.3573242" lon="8.2208692"><ele>489.0</ele><time>2026-05-03T11:22:40.136Z</time></trkpt><trkpt lat="44.3572608" lon="8.2210817"><ele>489.0</ele><time>2026-05-03T11:22:41.136Z</time></trkpt><trkpt lat="44.357207" lon="8.2212637"><ele>489.0</ele><time>2026-05-03T11:22:42.136Z</time></trkpt><trkpt lat="44.3571918" lon="8.2214531"><ele>489.0</ele><time>2026-05-03T11:22:43.137Z</time></trkpt><trkpt lat="44.3571849" lon="8.2216319"><ele>489.0</ele><time>2026-05-03T11:22:44.137Z</time></trkpt><trkpt lat="44.3571868" lon="8.2218102"><ele>491.75</ele><time>2026-05-03T11:22:45.137Z</time></trkpt><trkpt lat="44.3572015" lon="8.2219913"><ele>494.5</ele><time>2026-05-03T11:22:46.137Z</time></trkpt><trkpt lat="44.3572246" lon="8.2221853"><ele>497.25</ele><time>2026-05-03T11:22:47.137Z</time></trkpt><trkpt lat="44.3572388" lon="8.2223752"><ele>500.0</ele><time>2026-05-03T11:22:48.137Z</time></trkpt><trkpt lat="44.3572527" lon="8.2225604"><ele>501.8</ele><time>2026-05-03T11:22:49.137Z</time></trkpt><trkpt lat="44.3572708" lon="8.2227324"><ele>503.6</ele><time>2026-05-03T11:22:50.136Z</time></trkpt><trkpt lat="44.3572994" lon="8.2228842"><ele>505.4</ele><time>2026-05-03T11:22:51.136Z</time></trkpt><trkpt lat="44.3573399" lon="8.2230224"><ele>507.2</ele><time>2026-05-03T11:22:52.137Z</time></trkpt><trkpt lat="44.3573813" lon="8.2231553"><ele>509.0</ele><time>2026-05-03T11:22:53.136Z</time></trkpt><trkpt lat="44.3574215" lon="8.2232833"><ele>509.79999999999995</ele><time>2026-05-03T11:22:54.137Z</time></trkpt><trkpt lat="44.3574635" lon="8.223413"><ele>510.59999999999997</ele><time>2026-05-03T11:22:55.137Z</time></trkpt><trkpt lat="44.357504" lon="8.2235437"><ele>511.4</ele><time>2026-05-03T11:22:56.137Z</time></trkpt><trkpt lat="44.3575362" lon="8.2236782"><ele>512.1999999999999</ele><time>2026-05-03T11:22:57.136Z</time></trkpt><trkpt lat="44.3575662" lon="8.2238163"><ele>513.0</ele><time>2026-05-03T11:22:58.136Z</time></trkpt><trkpt lat="44.3575987" lon="8.2239574"><ele>513.75</ele><time>2026-05-03T11:22:59.136Z</time></trkpt><trkpt lat="44.3576331" lon="8.2241016"><ele>514.5</ele><time>2026-05-03T11:23:00.136Z</time></trkpt><trkpt lat="44.3576692" lon="8.2242518"><ele>515.25</ele><time>2026-05-03T11:23:01.137Z</time></trkpt><trkpt lat="44.3577076" lon="8.2244163"><ele>516.0</ele><time>2026-05-03T11:23:02.137Z</time></trkpt><trkpt lat="44.3577457" lon="8.2245923"><ele>516.0</ele><time>2026-05-03T11:23:03.137Z</time></trkpt><trkpt lat="44.3577805" lon="8.2247747"><ele>516.0</ele><time>2026-05-03T11:23:04.137Z</time></trkpt><trkpt lat="44.3578106" lon="8.22496"><ele>516.0</ele><time>2026-05-03T11:23:05.137Z</time></trkpt><trkpt lat="44.3578375" lon="8.2251508"><ele>516.0</ele><time>2026-05-03T11:23:06.137Z</time></trkpt><trkpt lat="44.3578634" lon="8.225346"><ele>517.5</ele><time>2026-05-03T11:23:07.137Z</time></trkpt><trkpt lat="44.357889" lon="8.2255437"><ele>519.0</ele><time>2026-05-03T11:23:08.137Z</time></trkpt><trkpt lat="44.357914" lon="8.2257407"><ele>520.5</ele><time>2026-05-03T11:23:09.137Z</time></trkpt><trkpt lat="44.3579364" lon="8.2259353"><ele>522.0</ele><time>2026-05-03T11:23:10.136Z</time></trkpt><trkpt lat="44.3579577" lon="8.2261284"><ele>523.0</ele><time>2026-05-03T11:23:11.137Z</time></trkpt><trkpt lat="44.3579774" lon="8.2263186"><ele>524.0</ele><time>2026-05-03T11:23:12.137Z</time></trkpt><trkpt lat="44.3579988" lon="8.2265085"><ele>525.0</ele><time>2026-05-03T11:23:13.137Z</time></trkpt><trkpt lat="44.358024" lon="8.2266995"><ele>526.0</ele><time>2026-05-03T11:23:14.137Z</time></trkpt><trkpt lat="44.3580591" lon="8.2268838"><ele>526.5</ele><time>2026-05-03T11:23:15.136Z</time></trkpt><trkpt lat="44.3581123" lon="8.2270574"><ele>527.0</ele><time>2026-05-03T11:23:16.137Z</time></trkpt><trkpt lat="44.3581852" lon="8.2272152"><ele>527.5</ele><time>2026-05-03T11:23:17.137Z</time></trkpt><trkpt lat="44.358286" lon="8.2273563"><ele>528.0</ele><time>2026-05-03T11:23:18.137Z</time></trkpt><trkpt lat="44.3583954" lon="8.2274921"><ele>528.0</ele><time>2026-05-03T11:23:19.137Z</time></trkpt><trkpt lat="44.3584968" lon="8.2276203"><ele>528.0</ele><time>2026-05-03T11:23:20.136Z</time></trkpt><trkpt lat="44.3585961" lon="8.2277562"><ele>528.0</ele><time>2026-05-03T11:23:21.137Z</time></trkpt><trkpt lat="44.3586927" lon="8.2279107"><ele>528.0</ele><time>2026-05-03T11:23:22.137Z</time></trkpt><trkpt lat="44.35879" lon="8.2280772"><ele>526.0</ele><time>2026-05-03T11:23:23.136Z</time></trkpt><trkpt lat="44.3588888" lon="8.2282497"><ele>524.0</ele><time>2026-05-03T11:23:24.137Z</time></trkpt><trkpt lat="44.3589894" lon="8.2284233"><ele>522.0</ele><time>2026-05-03T11:23:25.137Z</time></trkpt><trkpt lat="44.3590891" lon="8.2285957"><ele>522.0</ele><time>2026-05-03T11:23:26.136Z</time></trkpt><trkpt lat="44.3591858" lon="8.2287684"><ele>522.0</ele><time>2026-05-03T11:23:27.136Z</time></trkpt><trkpt lat="44.3592762" lon="8.2289397"><ele>522.0</ele><time>2026-05-03T11:23:28.137Z</time></trkpt><trkpt lat="44.3593643" lon="8.2291132"><ele>519.3333333333334</ele><time>2026-05-03T11:23:29.137Z</time></trkpt><trkpt lat="44.3594485" lon="8.2292859"><ele>516.6666666666667</ele><time>2026-05-03T11:23:30.136Z</time></trkpt><trkpt lat="44.3595289" lon="8.2294616"><ele>514.0</ele><time>2026-05-03T11:23:31.136Z</time></trkpt><trkpt lat="44.3596107" lon="8.2296449"><ele>513.6666666666667</ele><time>2026-05-03T11:23:32.137Z</time></trkpt><trkpt lat="44.3596927" lon="8.2298368"><ele>513.3333333333334</ele><time>2026-05-03T11:23:33.136Z</time></trkpt><trkpt lat="44.3597798" lon="8.2300336"><ele>513.0</ele><time>2026-05-03T11:23:34.137Z</time></trkpt><trkpt lat="44.3598675" lon="8.230227"><ele>513.0</ele><time>2026-05-03T11:23:35.137Z</time></trkpt><trkpt lat="44.3599521" lon="8.2304232"><ele>513.0</ele><time>2026-05-03T11:23:36.137Z</time></trkpt><trkpt lat="44.3600346" lon="8.2306189"><ele>513.0</ele><time>2026-05-03T11:23:37.137Z</time></trkpt><trkpt lat="44.3601142" lon="8.2308114"><ele>510.66666666666663</ele><time>2026-05-03T11:23:38.138Z</time></trkpt><trkpt lat="44.3601898" lon="8.2309997"><ele>508.3333333333333</ele><time>2026-05-03T11:23:39.137Z</time></trkpt><trkpt lat="44.3602671" lon="8.231183"><ele>506.0</ele><time>2026-05-03T11:23:40.136Z</time></trkpt><trkpt lat="44.3603481" lon="8.2313605"><ele>503.3333333333333</ele><time>2026-05-03T11:23:41.137Z</time></trkpt><trkpt lat="44.3604325" lon="8.2315465"><ele>500.66666666666663</ele><time>2026-05-03T11:23:42.137Z</time></trkpt><trkpt lat="44.3605154" lon="8.2317349"><ele>498.0</ele><time>2026-05-03T11:23:43.137Z</time></trkpt><trkpt lat="44.360598" lon="8.231925"><ele>497.33333333333337</ele><time>2026-05-03T11:23:44.137Z</time></trkpt><trkpt lat="44.3606819" lon="8.2321197"><ele>496.6666666666667</ele><time>2026-05-03T11:23:45.136Z</time></trkpt><trkpt lat="44.3607688" lon="8.2323211"><ele>496.0</ele><time>2026-05-03T11:23:46.137Z</time></trkpt><trkpt lat="44.3608629" lon="8.2325295"><ele>496.0</ele><time>2026-05-03T11:23:47.137Z</time></trkpt><trkpt lat="44.3609811" lon="8.2327277"><ele>496.0</ele><time>2026-05-03T11:23:48.137Z</time></trkpt><trkpt lat="44.3611042" lon="8.2329064"><ele>496.0</ele><time>2026-05-03T11:23:49.137Z</time></trkpt><trkpt lat="44.3612235" lon="8.2330736"><ele>492.33333333333337</ele><time>2026-05-03T11:23:50.137Z</time></trkpt><trkpt lat="44.3613369" lon="8.2332292"><ele>488.66666666666663</ele><time>2026-05-03T11:23:51.137Z</time></trkpt><trkpt lat="44.3614436" lon="8.2333819"><ele>485.0</ele><time>2026-05-03T11:23:52.138Z</time></trkpt><trkpt lat="44.3615449" lon="8.2335385"><ele>485.0</ele><time>2026-05-03T11:23:53.138Z</time></trkpt><trkpt lat="44.3616404" lon="8.2336938"><ele>485.0</ele><time>2026-05-03T11:23:54.138Z</time></trkpt><trkpt lat="44.3617312" lon="8.2338504"><ele>485.0</ele><time>2026-05-03T11:23:55.138Z</time></trkpt><trkpt lat="44.3618185" lon="8.2340226"><ele>485.0</ele><time>2026-05-03T11:23:56.137Z</time></trkpt><trkpt lat="44.3618994" lon="8.2342112"><ele>483.0</ele><time>2026-05-03T11:23:57.138Z</time></trkpt><trkpt lat="44.3619686" lon="8.234417"><ele>481.0</ele><time>2026-05-03T11:23:58.138Z</time></trkpt><trkpt lat="44.3620174" lon="8.234637"><ele>479.0</ele><time>2026-05-03T11:23:59.138Z</time></trkpt><trkpt lat="44.362059" lon="8.2348679"><ele>476.66666666666663</ele><time>2026-05-03T11:24:00.137Z</time></trkpt><trkpt lat="44.3621006" lon="8.2350945"><ele>474.33333333333337</ele><time>2026-05-03T11:24:01.138Z</time></trkpt><trkpt lat="44.3621416" lon="8.2353057"><ele>472.0</ele><time>2026-05-03T11:24:02.137Z</time></trkpt><trkpt lat="44.3621787" lon="8.2355049"><ele>473.25</ele><time>2026-05-03T11:24:03.137Z</time></trkpt><trkpt lat="44.3622142" lon="8.235697"><ele>474.5</ele><time>2026-05-03T11:24:04.138Z</time></trkpt><trkpt lat="44.3622502" lon="8.2358947"><ele>475.75</ele><time>2026-05-03T11:24:05.138Z</time></trkpt><trkpt lat="44.3622871" lon="8.2360845"><ele>477.0</ele><time>2026-05-03T11:24:06.138Z</time></trkpt><trkpt lat="44.3623248" lon="8.2362698"><ele>477.0</ele><time>2026-05-03T11:24:07.138Z</time></trkpt><trkpt lat="44.3623602" lon="8.2364516"><ele>477.0</ele><time>2026-05-03T11:24:08.138Z</time></trkpt><trkpt lat="44.3623978" lon="8.2366333"><ele>477.0</ele><time>2026-05-03T11:24:09.138Z</time></trkpt><trkpt lat="44.3624382" lon="8.2368187"><ele>477.0</ele><time>2026-05-03T11:24:10.137Z</time></trkpt><trkpt lat="44.3624788" lon="8.2370007"><ele>475.25</ele><time>2026-05-03T11:24:11.138Z</time></trkpt><trkpt lat="44.3625167" lon="8.2371729"><ele>473.5</ele><time>2026-05-03T11:24:12.138Z</time></trkpt><trkpt lat="44.362556" lon="8.2373412"><ele>471.75</ele><time>2026-05-03T11:24:13.138Z</time></trkpt><trkpt lat="44.3625901" lon="8.2375044"><ele>470.0</ele><time>2026-05-03T11:24:14.138Z</time></trkpt><trkpt lat="44.3626232" lon="8.2376644"><ele>468.75</ele><time>2026-05-03T11:24:15.138Z</time></trkpt><trkpt lat="44.362653" lon="8.2378241"><ele>467.5</ele><time>2026-05-03T11:24:16.138Z</time></trkpt><trkpt lat="44.3626762" lon="8.2379805"><ele>466.25</ele><time>2026-05-03T11:24:17.137Z</time></trkpt><trkpt lat="44.3626915" lon="8.2381376"><ele>465.0</ele><time>2026-05-03T11:24:18.138Z</time></trkpt><trkpt lat="44.36269" lon="8.2383042"><ele>464.75</ele><time>2026-05-03T11:24:19.137Z</time></trkpt><trkpt lat="44.3626676" lon="8.2384675"><ele>464.5</ele><time>2026-05-03T11:24:20.137Z</time></trkpt><trkpt lat="44.3626328" lon="8.238631"><ele>464.25</ele><time>2026-05-03T11:24:21.138Z</time></trkpt><trkpt lat="44.3625948" lon="8.2387894"><ele>464.0</ele><time>2026-05-03T11:24:22.138Z</time></trkpt><trkpt lat="44.3625609" lon="8.2389407"><ele>463.8333333333333</ele><time>2026-05-03T11:24:23.137Z</time></trkpt><trkpt lat="44.3625329" lon="8.2390836"><ele>463.66666666666663</ele><time>2026-05-03T11:24:24.138Z</time></trkpt><trkpt lat="44.3625108" lon="8.2392125"><ele>463.5</ele><time>2026-05-03T11:24:25.138Z</time></trkpt><trkpt lat="44.3624899" lon="8.2393278"><ele>463.33333333333337</ele><time>2026-05-03T11:24:26.138Z</time></trkpt><trkpt lat="44.3624706" lon="8.2394271"><ele>463.1666666666667</ele><time>2026-05-03T11:24:27.138Z</time></trkpt><trkpt lat="44.3624436" lon="8.2395296"><ele>463.0</ele><time>2026-05-03T11:24:28.138Z</time></trkpt><trkpt lat="44.362397" lon="8.2396453"><ele>463.0</ele><time>2026-05-03T11:24:29.138Z</time></trkpt><trkpt lat="44.3623614" lon="8.2397694"><ele>462.99999999999994</ele><time>2026-05-03T11:24:30.137Z</time></trkpt><trkpt lat="44.3623552" lon="8.2399255"><ele>462.99999999999994</ele><time>2026-05-03T11:24:31.138Z</time></trkpt><trkpt lat="44.3623555" lon="8.2400832"><ele>463.0</ele><time>2026-05-03T11:24:32.138Z</time></trkpt><trkpt lat="44.3623524" lon="8.2402316"><ele>463.0</ele><time>2026-05-03T11:24:33.138Z</time></trkpt><trkpt lat="44.3623464" lon="8.2403692"><ele>463.4</ele><time>2026-05-03T11:24:34.138Z</time></trkpt><trkpt lat="44.3623349" lon="8.2404878"><ele>463.79999999999995</ele><time>2026-05-03T11:24:35.138Z</time></trkpt><trkpt lat="44.3623165" lon="8.2406004"><ele>464.2</ele><time>2026-05-03T11:24:36.137Z</time></trkpt><trkpt lat="44.3622911" lon="8.2407199"><ele>464.6</ele><time>2026-05-03T11:24:37.138Z</time></trkpt><trkpt lat="44.3622612" lon="8.2408544"><ele>465.0</ele><time>2026-05-03T11:24:38.137Z</time></trkpt><trkpt lat="44.362243" lon="8.2410033"><ele>465.5</ele><time>2026-05-03T11:24:39.138Z</time></trkpt><trkpt lat="44.3622559" lon="8.2411471"><ele>466.0</ele><time>2026-05-03T11:24:40.137Z</time></trkpt><trkpt lat="44.3623041" lon="8.2413023"><ele>466.5</ele><time>2026-05-03T11:24:41.138Z</time></trkpt><trkpt lat="44.362389" lon="8.2414485"><ele>467.0</ele><time>2026-05-03T11:24:42.138Z</time></trkpt><trkpt lat="44.3624978" lon="8.2415857"><ele>465.75</ele><time>2026-05-03T11:24:43.138Z</time></trkpt><trkpt lat="44.3626086" lon="8.2417281"><ele>464.5</ele><time>2026-05-03T11:24:44.137Z</time></trkpt><trkpt lat="44.3627267" lon="8.2418767"><ele>463.25</ele><time>2026-05-03T11:24:45.138Z</time></trkpt><trkpt lat="44.3628321" lon="8.2420036"><ele>462.0</ele><time>2026-05-03T11:24:46.138Z</time></trkpt><trkpt lat="44.3629324" lon="8.242127"><ele>461.5</ele><time>2026-05-03T11:24:47.137Z</time></trkpt><trkpt lat="44.3630362" lon="8.242253"><ele>461.0</ele><time>2026-05-03T11:24:48.137Z</time></trkpt><trkpt lat="44.3631389" lon="8.2423886"><ele>460.5</ele><time>2026-05-03T11:24:49.138Z</time></trkpt><trkpt lat="44.3632448" lon="8.242522"><ele>460.0</ele><time>2026-05-03T11:24:50.137Z</time></trkpt><trkpt lat="44.3633444" lon="8.2426576"><ele>460.0</ele><time>2026-05-03T11:24:51.138Z</time></trkpt><trkpt lat="44.3634396" lon="8.2427998"><ele>460.0</ele><time>2026-05-03T11:24:52.138Z</time></trkpt><trkpt lat="44.3635305" lon="8.2429589"><ele>460.0</ele><time>2026-05-03T11:24:53.137Z</time></trkpt><trkpt lat="44.3636179" lon="8.2431346"><ele>460.0</ele><time>2026-05-03T11:24:54.138Z</time></trkpt><trkpt lat="44.3636953" lon="8.2433239"><ele>461.0</ele><time>2026-05-03T11:24:55.138Z</time></trkpt><trkpt lat="44.3637702" lon="8.2435262"><ele>462.0</ele><time>2026-05-03T11:24:56.139Z</time></trkpt><trkpt lat="44.363841" lon="8.2437345"><ele>463.0</ele><time>2026-05-03T11:24:57.139Z</time></trkpt><trkpt lat="44.3639032" lon="8.2439428"><ele>460.33333333333337</ele><time>2026-05-03T11:24:58.138Z</time></trkpt><trkpt lat="44.3639471" lon="8.2441551"><ele>457.66666666666663</ele><time>2026-05-03T11:24:59.139Z</time></trkpt><trkpt lat="44.3639828" lon="8.2443655"><ele>455.0</ele><time>2026-05-03T11:25:00.139Z</time></trkpt><trkpt lat="44.3640146" lon="8.2445829"><ele>453.66666666666663</ele><time>2026-05-03T11:25:01.138Z</time></trkpt><trkpt lat="44.3640452" lon="8.2448039"><ele>452.33333333333337</ele><time>2026-05-03T11:25:02.138Z</time></trkpt><trkpt lat="44.3640744" lon="8.2450291"><ele>451.0</ele><time>2026-05-03T11:25:03.139Z</time></trkpt><trkpt lat="44.3641045" lon="8.245258"><ele>451.0</ele><time>2026-05-03T11:25:04.139Z</time></trkpt><trkpt lat="44.3641322" lon="8.2454901"><ele>451.0</ele><time>2026-05-03T11:25:05.139Z</time></trkpt><trkpt lat="44.3641631" lon="8.2457213"><ele>451.0</ele><time>2026-05-03T11:25:06.139Z</time></trkpt><trkpt lat="44.3641949" lon="8.2459477"><ele>449.33333333333337</ele><time>2026-05-03T11:25:07.138Z</time></trkpt><trkpt lat="44.3642273" lon="8.2461708"><ele>447.66666666666663</ele><time>2026-05-03T11:25:08.138Z</time></trkpt><trkpt lat="44.3642591" lon="8.2463941"><ele>446.0</ele><time>2026-05-03T11:25:09.138Z</time></trkpt><trkpt lat="44.3642895" lon="8.2466208"><ele>445.0</ele><time>2026-05-03T11:25:10.139Z</time></trkpt><trkpt lat="44.3643194" lon="8.2468464"><ele>444.0</ele><time>2026-05-03T11:25:11.139Z</time></trkpt><trkpt lat="44.3643494" lon="8.2470685"><ele>443.0</ele><time>2026-05-03T11:25:12.138Z</time></trkpt><trkpt lat="44.3643781" lon="8.2472876"><ele>442.3333333333333</ele><time>2026-05-03T11:25:13.139Z</time></trkpt><trkpt lat="44.3644125" lon="8.2475096"><ele>441.66666666666663</ele><time>2026-05-03T11:25:14.139Z</time></trkpt><trkpt lat="44.364444" lon="8.2477268"><ele>441.0</ele><time>2026-05-03T11:25:15.138Z</time></trkpt><trkpt lat="44.3644712" lon="8.2479396"><ele>439.33333333333337</ele><time>2026-05-03T11:25:16.139Z</time></trkpt><trkpt lat="44.3645027" lon="8.2481566"><ele>437.6666666666667</ele><time>2026-05-03T11:25:17.139Z</time></trkpt><trkpt lat="44.3645376" lon="8.2483784"><ele>436.0</ele><time>2026-05-03T11:25:18.138Z</time></trkpt><trkpt lat="44.3645703" lon="8.2486018"><ele>436.0</ele><time>2026-05-03T11:25:19.139Z</time></trkpt><trkpt lat="44.3646004" lon="8.2488236"><ele>436.0</ele><time>2026-05-03T11:25:20.138Z</time></trkpt><trkpt lat="44.3646296" lon="8.2490464"><ele>436.0</ele><time>2026-05-03T11:25:21.138Z</time></trkpt><trkpt lat="44.3646576" lon="8.2492696"><ele>436.6666666666667</ele><time>2026-05-03T11:25:22.138Z</time></trkpt><trkpt lat="44.3646859" lon="8.2494937"><ele>437.33333333333337</ele><time>2026-05-03T11:25:23.139Z</time></trkpt><trkpt lat="44.3647159" lon="8.2497144"><ele>438.0</ele><time>2026-05-03T11:25:24.139Z</time></trkpt><trkpt lat="44.3647498" lon="8.249926"><ele>439.0</ele><time>2026-05-03T11:25:25.138Z</time></trkpt><trkpt lat="44.3647829" lon="8.2501351"><ele>440.0</ele><time>2026-05-03T11:25:26.139Z</time></trkpt><trkpt lat="44.3648139" lon="8.250344"><ele>441.0</ele><time>2026-05-03T11:25:27.139Z</time></trkpt><trkpt lat="44.364841" lon="8.2505576"><ele>439.66666666666663</ele><time>2026-05-03T11:25:28.139Z</time></trkpt><trkpt lat="44.3648651" lon="8.250774"><ele>438.3333333333333</ele><time>2026-05-03T11:25:29.138Z</time></trkpt><trkpt lat="44.3648915" lon="8.2509956"><ele>437.0</ele><time>2026-05-03T11:25:30.139Z</time></trkpt><trkpt lat="44.3649206" lon="8.251225"><ele>437.0</ele><time>2026-05-03T11:25:31.138Z</time></trkpt><trkpt lat="44.3649509" lon="8.2514551"><ele>437.0</ele><time>2026-05-03T11:25:32.138Z</time></trkpt><trkpt lat="44.3649836" lon="8.2516833"><ele>437.0</ele><time>2026-05-03T11:25:33.139Z</time></trkpt><trkpt lat="44.3650155" lon="8.2519061"><ele>435.66666666666663</ele><time>2026-05-03T11:25:34.139Z</time></trkpt><trkpt lat="44.3650484" lon="8.2521295"><ele>434.33333333333337</ele><time>2026-05-03T11:25:35.139Z</time></trkpt><trkpt lat="44.3650844" lon="8.2523566"><ele>433.0</ele><time>2026-05-03T11:25:36.139Z</time></trkpt><trkpt lat="44.3651245" lon="8.2525883"><ele>431.6666666666667</ele><time>2026-05-03T11:25:37.139Z</time></trkpt><trkpt lat="44.365168" lon="8.2528208"><ele>430.33333333333337</ele><time>2026-05-03T11:25:38.139Z</time></trkpt><trkpt lat="44.365216" lon="8.2530439"><ele>429.0</ele><time>2026-05-03T11:25:39.139Z</time></trkpt><trkpt lat="44.365272" lon="8.2532569"><ele>428.33333333333337</ele><time>2026-05-03T11:25:40.139Z</time></trkpt><trkpt lat="44.3653385" lon="8.2534603"><ele>427.6666666666667</ele><time>2026-05-03T11:25:41.139Z</time></trkpt><trkpt lat="44.3654169" lon="8.2536573"><ele>427.0</ele><time>2026-05-03T11:25:42.138Z</time></trkpt><trkpt lat="44.3654997" lon="8.2538451"><ele>429.33333333333337</ele><time>2026-05-03T11:25:43.139Z</time></trkpt><trkpt lat="44.3655895" lon="8.2540188"><ele>431.66666666666663</ele><time>2026-05-03T11:25:44.138Z</time></trkpt><trkpt lat="44.3656853" lon="8.2541892"><ele>434.0</ele><time>2026-05-03T11:25:45.138Z</time></trkpt><trkpt lat="44.3657803" lon="8.2543574"><ele>434.0</ele><time>2026-05-03T11:25:46.138Z</time></trkpt><trkpt lat="44.3658733" lon="8.2545251"><ele>434.0</ele><time>2026-05-03T11:25:47.138Z</time></trkpt><trkpt lat="44.3659613" lon="8.2546855"><ele>434.0</ele><time>2026-05-03T11:25:48.139Z</time></trkpt><trkpt lat="44.3660463" lon="8.2548435"><ele>434.0</ele><time>2026-05-03T11:25:49.138Z</time></trkpt><trkpt lat="44.3661302" lon="8.2550071"><ele>432.5</ele><time>2026-05-03T11:25:50.139Z</time></trkpt><trkpt lat="44.3662078" lon="8.2551882"><ele>431.0</ele><time>2026-05-03T11:25:51.139Z</time></trkpt><trkpt lat="44.3662732" lon="8.2553755"><ele>429.5</ele><time>2026-05-03T11:25:52.139Z</time></trkpt><trkpt lat="44.3663059" lon="8.2555653"><ele>428.0</ele><time>2026-05-03T11:25:53.138Z</time></trkpt><trkpt lat="44.3663184" lon="8.2557585"><ele>428.0</ele><time>2026-05-03T11:25:54.139Z</time></trkpt><trkpt lat="44.3663285" lon="8.2559586"><ele>428.0</ele><time>2026-05-03T11:25:55.138Z</time></trkpt><trkpt lat="44.3663404" lon="8.2561596"><ele>428.0</ele><time>2026-05-03T11:25:56.14Z</time></trkpt><trkpt lat="44.3663606" lon="8.2563621"><ele>428.0</ele><time>2026-05-03T11:25:57.138Z</time></trkpt><trkpt lat="44.3663834" lon="8.2565474"><ele>428.0</ele><time>2026-05-03T11:25:58.139Z</time></trkpt><trkpt lat="44.3664053" lon="8.2567151"><ele>427.99999999999994</ele><time>2026-05-03T11:25:59.138Z</time></trkpt><trkpt lat="44.3664259" lon="8.2568679"><ele>427.99999999999994</ele><time>2026-05-03T11:26:00.14Z</time></trkpt><trkpt lat="44.3664482" lon="8.2570109"><ele>428.0</ele><time>2026-05-03T11:26:01.139Z</time></trkpt><trkpt lat="44.3664812" lon="8.2571536"><ele>428.0</ele><time>2026-05-03T11:26:02.14Z</time></trkpt><trkpt lat="44.366554" lon="8.2572911"><ele>425.75</ele><time>2026-05-03T11:26:03.14Z</time></trkpt><trkpt lat="44.3666706" lon="8.2574175"><ele>423.5</ele><time>2026-05-03T11:26:04.14Z</time></trkpt><trkpt lat="44.3667871" lon="8.2575173"><ele>421.25</ele><time>2026-05-03T11:26:05.139Z</time></trkpt><trkpt lat="44.3668977" lon="8.2576068"><ele>419.0</ele><time>2026-05-03T11:26:06.14Z</time></trkpt><trkpt lat="44.3669865" lon="8.2577319"><ele>419.0</ele><time>2026-05-03T11:26:07.14Z</time></trkpt><trkpt lat="44.3670545" lon="8.2578888"><ele>419.0</ele><time>2026-05-03T11:26:08.14Z</time></trkpt><trkpt lat="44.3671089" lon="8.2580446"><ele>419.0</ele><time>2026-05-03T11:26:09.139Z</time></trkpt><trkpt lat="44.3671543" lon="8.2581848"><ele>419.0</ele><time>2026-05-03T11:26:10.14Z</time></trkpt><trkpt lat="44.3672011" lon="8.2583199"><ele>421.25</ele><time>2026-05-03T11:26:11.14Z</time></trkpt><trkpt lat="44.3672301" lon="8.2584714"><ele>423.5</ele><time>2026-05-03T11:26:12.14Z</time></trkpt><trkpt lat="44.3672362" lon="8.2586623"><ele>425.75</ele><time>2026-05-03T11:26:13.14Z</time></trkpt><trkpt lat="44.3672215" lon="8.2588569"><ele>428.0</ele><time>2026-05-03T11:26:14.14Z</time></trkpt><trkpt lat="44.3671836" lon="8.2590595"><ele>423.25</ele><time>2026-05-03T11:26:15.14Z</time></trkpt><trkpt lat="44.3671432" lon="8.2592513"><ele>418.5</ele><time>2026-05-03T11:26:16.139Z</time></trkpt><trkpt lat="44.3671041" lon="8.2594362"><ele>413.75</ele><time>2026-05-03T11:26:17.139Z</time></trkpt><trkpt lat="44.3670704" lon="8.259617"><ele>409.0</ele><time>2026-05-03T11:26:18.139Z</time></trkpt><trkpt lat="44.3670425" lon="8.2597911"><ele>408.5</ele><time>2026-05-03T11:26:19.139Z</time></trkpt><trkpt lat="44.3670196" lon="8.2599546"><ele>408.0</ele><time>2026-05-03T11:26:20.14Z</time></trkpt><trkpt lat="44.3669998" lon="8.2601115"><ele>407.5</ele><time>2026-05-03T11:26:21.139Z</time></trkpt><trkpt lat="44.3669816" lon="8.2602648"><ele>407.0</ele><time>2026-05-03T11:26:22.139Z</time></trkpt><trkpt lat="44.3669576" lon="8.2604243"><ele>407.0</ele><time>2026-05-03T11:26:23.14Z</time></trkpt><trkpt lat="44.3669299" lon="8.2606005"><ele>407.0</ele><time>2026-05-03T11:26:24.14Z</time></trkpt><trkpt lat="44.3669" lon="8.2607701"><ele>407.0</ele><time>2026-05-03T11:26:25.139Z</time></trkpt><trkpt lat="44.3668634" lon="8.2609442"><ele>407.0</ele><time>2026-05-03T11:26:26.139Z</time></trkpt><trkpt lat="44.3668292" lon="8.2611273"><ele>407.25</ele><time>2026-05-03T11:26:27.14Z</time></trkpt><trkpt lat="44.3667957" lon="8.2613146"><ele>407.5</ele><time>2026-05-03T11:26:28.14Z</time></trkpt><trkpt lat="44.3667656" lon="8.2614989"><ele>407.75</ele><time>2026-05-03T11:26:29.14Z</time></trkpt><trkpt lat="44.3667376" lon="8.2616743"><ele>408.0</ele><time>2026-05-03T11:26:30.14Z</time></trkpt><trkpt lat="44.3667109" lon="8.2618376"><ele>408.0</ele><time>2026-05-03T11:26:31.14Z</time></trkpt><trkpt lat="44.3666857" lon="8.2619915"><ele>408.0</ele><time>2026-05-03T11:26:32.14Z</time></trkpt><trkpt lat="44.3666603" lon="8.2621405"><ele>408.0</ele><time>2026-05-03T11:26:33.14Z</time></trkpt><trkpt lat="44.3666325" lon="8.262293"><ele>408.0</ele><time>2026-05-03T11:26:34.14Z</time></trkpt><trkpt lat="44.3666034" lon="8.2624523"><ele>406.25</ele><time>2026-05-03T11:26:35.14Z</time></trkpt><trkpt lat="44.3665733" lon="8.2626181"><ele>404.5</ele><time>2026-05-03T11:26:36.14Z</time></trkpt><trkpt lat="44.3665435" lon="8.2627906"><ele>402.75</ele><time>2026-05-03T11:26:37.14Z</time></trkpt><trkpt lat="44.3665129" lon="8.2629533"><ele>401.0</ele><time>2026-05-03T11:26:38.139Z</time></trkpt><trkpt lat="44.3664828" lon="8.2630999"><ele>401.0</ele><time>2026-05-03T11:26:39.14Z</time></trkpt><trkpt lat="44.3664571" lon="8.2632294"><ele>401.0</ele><time>2026-05-03T11:26:40.139Z</time></trkpt><trkpt lat="44.3664328" lon="8.2633487"><ele>401.0</ele><time>2026-05-03T11:26:41.14Z</time></trkpt><trkpt lat="44.3664064" lon="8.2634701"><ele>401.0</ele><time>2026-05-03T11:26:42.14Z</time></trkpt><trkpt lat="44.3663837" lon="8.263595"><ele>401.0</ele><time>2026-05-03T11:26:43.139Z</time></trkpt><trkpt lat="44.3663552" lon="8.2637241"><ele>401.20000000000005</ele><time>2026-05-03T11:26:44.139Z</time></trkpt><trkpt lat="44.3663216" lon="8.2638601"><ele>401.40000000000003</ele><time>2026-05-03T11:26:45.139Z</time></trkpt><trkpt lat="44.3662889" lon="8.264002"><ele>401.6</ele><time>2026-05-03T11:26:46.14Z</time></trkpt><trkpt lat="44.3662566" lon="8.2641412"><ele>401.8</ele><time>2026-05-03T11:26:47.14Z</time></trkpt><trkpt lat="44.3662256" lon="8.2642789"><ele>402.0</ele><time>2026-05-03T11:26:48.14Z</time></trkpt><trkpt lat="44.366193" lon="8.2644186"><ele>401.20000000000005</ele><time>2026-05-03T11:26:49.14Z</time></trkpt><trkpt lat="44.3661606" lon="8.2645563"><ele>400.4</ele><time>2026-05-03T11:26:50.139Z</time></trkpt><trkpt lat="44.3661326" lon="8.2646987"><ele>399.6</ele><time>2026-05-03T11:26:51.139Z</time></trkpt><trkpt lat="44.3661008" lon="8.2648419"><ele>398.79999999999995</ele><time>2026-05-03T11:26:52.14Z</time></trkpt><trkpt lat="44.3660668" lon="8.2649876"><ele>398.0</ele><time>2026-05-03T11:26:53.14Z</time></trkpt><trkpt lat="44.3660364" lon="8.2651379"><ele>397.0</ele><time>2026-05-03T11:26:54.14Z</time></trkpt><trkpt lat="44.366006" lon="8.265287"><ele>396.0</ele><time>2026-05-03T11:26:55.14Z</time></trkpt><trkpt lat="44.3659742" lon="8.2654403"><ele>395.0</ele><time>2026-05-03T11:26:56.14Z</time></trkpt><trkpt lat="44.365939" lon="8.2655963"><ele>394.0</ele><time>2026-05-03T11:26:57.14Z</time></trkpt><trkpt lat="44.365902" lon="8.2657557"><ele>394.0</ele><time>2026-05-03T11:26:58.14Z</time></trkpt><trkpt lat="44.3658636" lon="8.2659182"><ele>394.0</ele><time>2026-05-03T11:26:59.14Z</time></trkpt><trkpt lat="44.365827" lon="8.266087"><ele>394.0</ele><time>2026-05-03T11:27:00.139Z</time></trkpt><trkpt lat="44.3657914" lon="8.2662534"><ele>394.0</ele><time>2026-05-03T11:27:01.14Z</time></trkpt><trkpt lat="44.3657563" lon="8.2664162"><ele>394.25</ele><time>2026-05-03T11:27:02.14Z</time></trkpt><trkpt lat="44.3657228" lon="8.2665707"><ele>394.5</ele><time>2026-05-03T11:27:03.139Z</time></trkpt><trkpt lat="44.3656883" lon="8.2667244"><ele>394.75</ele><time>2026-05-03T11:27:04.14Z</time></trkpt><trkpt lat="44.3656521" lon="8.2668816"><ele>395.0</ele><time>2026-05-03T11:27:05.14Z</time></trkpt><trkpt lat="44.3656146" lon="8.2670361"><ele>395.0</ele><time>2026-05-03T11:27:06.141Z</time></trkpt><trkpt lat="44.3655784" lon="8.2671866"><ele>395.0</ele><time>2026-05-03T11:27:07.141Z</time></trkpt><trkpt lat="44.3655465" lon="8.2673367"><ele>395.0</ele><time>2026-05-03T11:27:08.14Z</time></trkpt><trkpt lat="44.3655147" lon="8.2674887"><ele>395.0</ele><time>2026-05-03T11:27:09.141Z</time></trkpt><trkpt lat="44.3654798" lon="8.2676313"><ele>395.0</ele><time>2026-05-03T11:27:10.141Z</time></trkpt><trkpt lat="44.3654526" lon="8.267775"><ele>393.25</ele><time>2026-05-03T11:27:11.141Z</time></trkpt><trkpt lat="44.3654161" lon="8.2679314"><ele>391.5</ele><time>2026-05-03T11:27:12.141Z</time></trkpt><trkpt lat="44.3653804" lon="8.268095"><ele>389.75</ele><time>2026-05-03T11:27:13.14Z</time></trkpt><trkpt lat="44.3653434" lon="8.2682527"><ele>388.0</ele><time>2026-05-03T11:27:14.141Z</time></trkpt><trkpt lat="44.3653076" lon="8.2684098"><ele>387.5</ele><time>2026-05-03T11:27:15.141Z</time></trkpt><trkpt lat="44.3652745" lon="8.268569"><ele>387.0</ele><time>2026-05-03T11:27:16.141Z</time></trkpt><trkpt lat="44.3652445" lon="8.2687246"><ele>386.5</ele><time>2026-05-03T11:27:17.141Z</time></trkpt><trkpt lat="44.365214" lon="8.2688746"><ele>386.0</ele><time>2026-05-03T11:27:18.14Z</time></trkpt><trkpt lat="44.3651828" lon="8.2690277"><ele>386.0</ele><time>2026-05-03T11:27:19.14Z</time></trkpt><trkpt lat="44.365152" lon="8.2691812"><ele>386.0</ele><time>2026-05-03T11:27:20.141Z</time></trkpt><trkpt lat="44.3651194" lon="8.2693327"><ele>386.0</ele><time>2026-05-03T11:27:21.141Z</time></trkpt><trkpt lat="44.3650869" lon="8.2694875"><ele>386.0</ele><time>2026-05-03T11:27:22.141Z</time></trkpt><trkpt lat="44.365053" lon="8.2696378"><ele>386.0</ele><time>2026-05-03T11:27:23.141Z</time></trkpt><trkpt lat="44.3650183" lon="8.2697895"><ele>386.0</ele><time>2026-05-03T11:27:24.141Z</time></trkpt><trkpt lat="44.3649852" lon="8.2699428"><ele>386.0</ele><time>2026-05-03T11:27:25.141Z</time></trkpt><trkpt lat="44.3649493" lon="8.2700992"><ele>386.0</ele><time>2026-05-03T11:27:26.14Z</time></trkpt><trkpt lat="44.3649134" lon="8.2702641"><ele>386.0</ele><time>2026-05-03T11:27:27.14Z</time></trkpt><trkpt lat="44.3648736" lon="8.2704311"><ele>386.0</ele><time>2026-05-03T11:27:28.141Z</time></trkpt><trkpt lat="44.3648344" lon="8.2706026"><ele>386.0</ele><time>2026-05-03T11:27:29.14Z</time></trkpt><trkpt lat="44.3647914" lon="8.2707731"><ele>386.0</ele><time>2026-05-03T11:27:30.14Z</time></trkpt><trkpt lat="44.3647483" lon="8.2709452"><ele>386.0</ele><time>2026-05-03T11:27:31.141Z</time></trkpt><trkpt lat="44.3647076" lon="8.2711132"><ele>386.0</ele><time>2026-05-03T11:27:32.141Z</time></trkpt><trkpt lat="44.3646733" lon="8.2712683"><ele>386.0</ele><time>2026-05-03T11:27:33.141Z</time></trkpt><trkpt lat="44.3646407" lon="8.2714091"><ele>386.0</ele><time>2026-05-03T11:27:34.141Z</time></trkpt><trkpt lat="44.3646103" lon="8.2715395"><ele>386.0</ele><time>2026-05-03T11:27:35.14Z</time></trkpt><trkpt lat="44.3645743" lon="8.2716786"><ele>385.25</ele><time>2026-05-03T11:27:36.14Z</time></trkpt><trkpt lat="44.3645447" lon="8.2718214"><ele>384.5</ele><time>2026-05-03T11:27:37.141Z</time></trkpt><trkpt lat="44.3645136" lon="8.2719821"><ele>383.75</ele><time>2026-05-03T11:27:38.14Z</time></trkpt><trkpt lat="44.3644757" lon="8.272138"><ele>383.0</ele><time>2026-05-03T11:27:39.141Z</time></trkpt><trkpt lat="44.3644421" lon="8.2722942"><ele>383.0</ele><time>2026-05-03T11:27:40.14Z</time></trkpt><trkpt lat="44.3644074" lon="8.272452"><ele>383.0</ele><time>2026-05-03T11:27:41.141Z</time></trkpt><trkpt lat="44.3643711" lon="8.2726138"><ele>383.0</ele><time>2026-05-03T11:27:42.141Z</time></trkpt><trkpt lat="44.3643315" lon="8.2727841"><ele>383.0</ele><time>2026-05-03T11:27:43.141Z</time></trkpt><trkpt lat="44.3642885" lon="8.2729603"><ele>382.5</ele><time>2026-05-03T11:27:44.14Z</time></trkpt><trkpt lat="44.3642489" lon="8.2731391"><ele>382.0</ele><time>2026-05-03T11:27:45.141Z</time></trkpt><trkpt lat="44.3642131" lon="8.2733026"><ele>381.5</ele><time>2026-05-03T11:27:46.14Z</time></trkpt><trkpt lat="44.3641801" lon="8.2734651"><ele>381.0</ele><time>2026-05-03T11:27:47.141Z</time></trkpt><trkpt lat="44.3641444" lon="8.2736231"><ele>381.0</ele><time>2026-05-03T11:27:48.141Z</time></trkpt><trkpt lat="44.3641083" lon="8.2737801"><ele>381.0</ele><time>2026-05-03T11:27:49.14Z</time></trkpt><trkpt lat="44.3640743" lon="8.2739339"><ele>381.0</ele><time>2026-05-03T11:27:50.141Z</time></trkpt><trkpt lat="44.3640422" lon="8.2740861"><ele>381.0</ele><time>2026-05-03T11:27:51.141Z</time></trkpt><trkpt lat="44.3640191" lon="8.2742384"><ele>381.25</ele><time>2026-05-03T11:27:52.141Z</time></trkpt><trkpt lat="44.3639898" lon="8.274399"><ele>381.5</ele><time>2026-05-03T11:27:53.141Z</time></trkpt><trkpt lat="44.3639542" lon="8.2745657"><ele>381.75</ele><time>2026-05-03T11:27:54.141Z</time></trkpt><trkpt lat="44.3639159" lon="8.2747351"><ele>382.0</ele><time>2026-05-03T11:27:55.14Z</time></trkpt><trkpt lat="44.3638767" lon="8.2748978"><ele>380.5</ele><time>2026-05-03T11:27:56.141Z</time></trkpt><trkpt lat="44.3638384" lon="8.2750666"><ele>379.0</ele><time>2026-05-03T11:27:57.141Z</time></trkpt><trkpt lat="44.3637987" lon="8.2752354"><ele>377.5</ele><time>2026-05-03T11:27:58.141Z</time></trkpt><trkpt lat="44.3637577" lon="8.2754065"><ele>376.0</ele><time>2026-05-03T11:27:59.14Z</time></trkpt><trkpt lat="44.3637203" lon="8.275589"><ele>374.3333333333333</ele><time>2026-05-03T11:28:00.14Z</time></trkpt><trkpt lat="44.3636932" lon="8.275794"><ele>372.6666666666667</ele><time>2026-05-03T11:28:01.14Z</time></trkpt><trkpt lat="44.3636896" lon="8.2760182"><ele>371.0</ele><time>2026-05-03T11:28:02.14Z</time></trkpt><trkpt lat="44.3636966" lon="8.2762414"><ele>370.0</ele><time>2026-05-03T11:28:03.14Z</time></trkpt><trkpt lat="44.3637223" lon="8.2764707"><ele>369.0</ele><time>2026-05-03T11:28:04.141Z</time></trkpt><trkpt lat="44.3637456" lon="8.2766973"><ele>368.0</ele><time>2026-05-03T11:28:05.14Z</time></trkpt><trkpt lat="44.3637663" lon="8.2769279"><ele>368.0</ele><time>2026-05-03T11:28:06.14Z</time></trkpt><trkpt lat="44.3637835" lon="8.2771636"><ele>368.0</ele><time>2026-05-03T11:28:07.141Z</time></trkpt><trkpt lat="44.3637979" lon="8.2774001"><ele>368.0</ele><time>2026-05-03T11:28:08.141Z</time></trkpt><trkpt lat="44.363814" lon="8.2776355"><ele>368.0</ele><time>2026-05-03T11:28:09.14Z</time></trkpt><trkpt lat="44.3638281" lon="8.2778633"><ele>368.0</ele><time>2026-05-03T11:28:10.141Z</time></trkpt><trkpt lat="44.3638406" lon="8.2780787"><ele>368.0</ele><time>2026-05-03T11:28:11.142Z</time></trkpt><trkpt lat="44.3638526" lon="8.278286"><ele>368.0</ele><time>2026-05-03T11:28:12.141Z</time></trkpt><trkpt lat="44.3638627" lon="8.2784851"><ele>368.0</ele><time>2026-05-03T11:28:13.142Z</time></trkpt><trkpt lat="44.3638696" lon="8.2786844"><ele>368.0</ele><time>2026-05-03T11:28:14.141Z</time></trkpt><trkpt lat="44.3638737" lon="8.2788815"><ele>368.0</ele><time>2026-05-03T11:28:15.142Z</time></trkpt><trkpt lat="44.3638752" lon="8.2790842"><ele>367.6666666666667</ele><time>2026-05-03T11:28:16.142Z</time></trkpt><trkpt lat="44.3638695" lon="8.2792933"><ele>367.3333333333333</ele><time>2026-05-03T11:28:17.142Z</time></trkpt><trkpt lat="44.3638549" lon="8.2795107"><ele>367.0</ele><time>2026-05-03T11:28:18.142Z</time></trkpt><trkpt lat="44.3638351" lon="8.2797297"><ele>366.3333333333333</ele><time>2026-05-03T11:28:19.142Z</time></trkpt><trkpt lat="44.3638106" lon="8.2799505"><ele>365.6666666666667</ele><time>2026-05-03T11:28:20.141Z</time></trkpt><trkpt lat="44.3637805" lon="8.2801731"><ele>365.0</ele><time>2026-05-03T11:28:21.142Z</time></trkpt><trkpt lat="44.3637445" lon="8.2803969"><ele>364.33333333333337</ele><time>2026-05-03T11:28:22.142Z</time></trkpt><trkpt lat="44.3637078" lon="8.2806221"><ele>363.6666666666667</ele><time>2026-05-03T11:28:23.142Z</time></trkpt><trkpt lat="44.3636751" lon="8.2808436"><ele>363.0</ele><time>2026-05-03T11:28:24.142Z</time></trkpt><trkpt lat="44.3636457" lon="8.28106"><ele>363.0</ele><time>2026-05-03T11:28:25.142Z</time></trkpt><trkpt lat="44.3636165" lon="8.281272"><ele>363.0</ele><time>2026-05-03T11:28:26.141Z</time></trkpt><trkpt lat="44.3635898" lon="8.2814782"><ele>363.0</ele><time>2026-05-03T11:28:27.142Z</time></trkpt><trkpt lat="44.3635615" lon="8.2816785"><ele>362.5</ele><time>2026-05-03T11:28:28.141Z</time></trkpt><trkpt lat="44.363534" lon="8.2818722"><ele>362.0</ele><time>2026-05-03T11:28:29.142Z</time></trkpt><trkpt lat="44.3635065" lon="8.2820613"><ele>361.5</ele><time>2026-05-03T11:28:30.142Z</time></trkpt><trkpt lat="44.3634811" lon="8.2822465"><ele>361.0</ele><time>2026-05-03T11:28:31.142Z</time></trkpt><trkpt lat="44.3634537" lon="8.28243"><ele>361.0</ele><time>2026-05-03T11:28:32.142Z</time></trkpt><trkpt lat="44.363426" lon="8.2826135"><ele>361.0</ele><time>2026-05-03T11:28:33.142Z</time></trkpt><trkpt lat="44.3634007" lon="8.2827943"><ele>361.0</ele><time>2026-05-03T11:28:34.141Z</time></trkpt><trkpt lat="44.3633791" lon="8.2829691"><ele>361.0</ele><time>2026-05-03T11:28:35.142Z</time></trkpt><trkpt lat="44.3633584" lon="8.2831457"><ele>360.25</ele><time>2026-05-03T11:28:36.142Z</time></trkpt><trkpt lat="44.3633398" lon="8.283322"><ele>359.5</ele><time>2026-05-03T11:28:37.142Z</time></trkpt><trkpt lat="44.3633213" lon="8.2834977"><ele>358.75</ele><time>2026-05-03T11:28:38.141Z</time></trkpt><trkpt lat="44.3633018" lon="8.2836765"><ele>358.0</ele><time>2026-05-03T11:28:39.141Z</time></trkpt><trkpt lat="44.3632806" lon="8.2838572"><ele>358.0</ele><time>2026-05-03T11:28:40.141Z</time></trkpt><trkpt lat="44.3632583" lon="8.2840365"><ele>358.0</ele><time>2026-05-03T11:28:41.142Z</time></trkpt><trkpt lat="44.3632338" lon="8.2842138"><ele>358.0</ele><time>2026-05-03T11:28:42.141Z</time></trkpt><trkpt lat="44.3632071" lon="8.2843903"><ele>358.0</ele><time>2026-05-03T11:28:43.142Z</time></trkpt><trkpt lat="44.3631841" lon="8.284561"><ele>358.0</ele><time>2026-05-03T11:28:44.142Z</time></trkpt><trkpt lat="44.3631638" lon="8.284718"><ele>358.0</ele><time>2026-05-03T11:28:45.141Z</time></trkpt><trkpt lat="44.3631474" lon="8.2848621"><ele>358.0</ele><time>2026-05-03T11:28:46.142Z</time></trkpt><trkpt lat="44.3631298" lon="8.2849989"><ele>358.0</ele><time>2026-05-03T11:28:47.142Z</time></trkpt><trkpt lat="44.3631099" lon="8.2851279"><ele>358.0</ele><time>2026-05-03T11:28:48.142Z</time></trkpt><trkpt lat="44.3630871" lon="8.2852495"><ele>357.8333333333333</ele><time>2026-05-03T11:28:49.141Z</time></trkpt><trkpt lat="44.3630509" lon="8.2853693"><ele>357.66666666666663</ele><time>2026-05-03T11:28:50.142Z</time></trkpt><trkpt lat="44.3630097" lon="8.2854658"><ele>357.5</ele><time>2026-05-03T11:28:51.141Z</time></trkpt><trkpt lat="44.3629568" lon="8.2855467"><ele>357.3333333333333</ele><time>2026-05-03T11:28:52.142Z</time></trkpt><trkpt lat="44.3628929" lon="8.2856091"><ele>357.1666666666667</ele><time>2026-05-03T11:28:53.141Z</time></trkpt><trkpt lat="44.362832" lon="8.2856563"><ele>357.0</ele><time>2026-05-03T11:28:54.142Z</time></trkpt><trkpt lat="44.3627724" lon="8.2857897"><ele>357.0</ele><time>2026-05-03T11:28:56.142Z</time></trkpt><trkpt lat="44.3627741" lon="8.285881"><ele>357.0</ele><time>2026-05-03T11:28:57.141Z</time></trkpt><trkpt lat="44.3628123" lon="8.2859655"><ele>357.0</ele><time>2026-05-03T11:28:58.142Z</time></trkpt><trkpt lat="44.3628679" lon="8.2860618"><ele>357.0</ele><time>2026-05-03T11:28:59.142Z</time></trkpt><trkpt lat="44.3629125" lon="8.2861656"><ele>357.0</ele><time>2026-05-03T11:29:00.142Z</time></trkpt><trkpt lat="44.3629286" lon="8.2862937"><ele>357.0</ele><time>2026-05-03T11:29:01.141Z</time></trkpt><trkpt lat="44.3629259" lon="8.286448"><ele>356.8</ele><time>2026-05-03T11:29:02.142Z</time></trkpt><trkpt lat="44.3629139" lon="8.2865863"><ele>356.6</ele><time>2026-05-03T11:29:03.141Z</time></trkpt><trkpt lat="44.3628987" lon="8.2867212"><ele>356.40000000000003</ele><time>2026-05-03T11:29:04.141Z</time></trkpt><trkpt lat="44.3628773" lon="8.2868563"><ele>356.20000000000005</ele><time>2026-05-03T11:29:05.142Z</time></trkpt><trkpt lat="44.3628621" lon="8.286983"><ele>356.0</ele><time>2026-05-03T11:29:06.141Z</time></trkpt><trkpt lat="44.3628359" lon="8.2871225"><ele>355.4</ele><time>2026-05-03T11:29:07.141Z</time></trkpt><trkpt lat="44.3628125" lon="8.2872638"><ele>354.8</ele><time>2026-05-03T11:29:08.142Z</time></trkpt><trkpt lat="44.3627929" lon="8.2874162"><ele>354.2</ele><time>2026-05-03T11:29:09.142Z</time></trkpt><trkpt lat="44.3627733" lon="8.2875731"><ele>353.59999999999997</ele><time>2026-05-03T11:29:10.141Z</time></trkpt><trkpt lat="44.3627502" lon="8.2877378"><ele>353.0</ele><time>2026-05-03T11:29:11.141Z</time></trkpt><trkpt lat="44.3627258" lon="8.2879063"><ele>353.0</ele><time>2026-05-03T11:29:12.142Z</time></trkpt><trkpt lat="44.3626914" lon="8.2880789"><ele>353.0</ele><time>2026-05-03T11:29:13.142Z</time></trkpt><trkpt lat="44.3626726" lon="8.2882441"><ele>353.0</ele><time>2026-05-03T11:29:14.142Z</time></trkpt><trkpt lat="44.3626517" lon="8.2884095"><ele>353.0</ele><time>2026-05-03T11:29:15.142Z</time></trkpt><trkpt lat="44.3626288" lon="8.2885712"><ele>352.59999999999997</ele><time>2026-05-03T11:29:16.142Z</time></trkpt><trkpt lat="44.3626047" lon="8.288727"><ele>352.2</ele><time>2026-05-03T11:29:17.143Z</time></trkpt><trkpt lat="44.3625846" lon="8.2888748"><ele>351.8</ele><time>2026-05-03T11:29:18.142Z</time></trkpt><trkpt lat="44.362578" lon="8.2890192"><ele>351.4</ele><time>2026-05-03T11:29:19.143Z</time></trkpt><trkpt lat="44.362586" lon="8.2891666"><ele>351.0</ele><time>2026-05-03T11:29:20.142Z</time></trkpt><trkpt lat="44.3626071" lon="8.2893141"><ele>351.0</ele><time>2026-05-03T11:29:21.142Z</time></trkpt><trkpt lat="44.3626448" lon="8.2894559"><ele>351.0</ele><time>2026-05-03T11:29:22.143Z</time></trkpt><trkpt lat="44.3626967" lon="8.2895808"><ele>351.0</ele><time>2026-05-03T11:29:23.142Z</time></trkpt><trkpt lat="44.3627616" lon="8.2896908"><ele>351.0</ele><time>2026-05-03T11:29:24.143Z</time></trkpt><trkpt lat="44.3628356" lon="8.2897863"><ele>351.0</ele><time>2026-05-03T11:29:25.143Z</time></trkpt><trkpt lat="44.3629034" lon="8.2898665"><ele>350.6</ele><time>2026-05-03T11:29:26.142Z</time></trkpt><trkpt lat="44.3629544" lon="8.2899359"><ele>350.20000000000005</ele><time>2026-05-03T11:29:27.142Z</time></trkpt><trkpt lat="44.3630315" lon="8.2900682"><ele>349.79999999999995</ele><time>2026-05-03T11:29:29.142Z</time></trkpt><trkpt lat="44.3630914" lon="8.2902186"><ele>349.4</ele><time>2026-05-03T11:29:31.142Z</time></trkpt><trkpt lat="44.3630996" lon="8.2903209"><ele>349.0</ele><time>2026-05-03T11:29:32.142Z</time></trkpt><trkpt lat="44.3630804" lon="8.2904338"><ele>348.6</ele><time>2026-05-03T11:29:33.143Z</time></trkpt><trkpt lat="44.3630243" lon="8.2905296"><ele>348.2</ele><time>2026-05-03T11:29:34.143Z</time></trkpt><trkpt lat="44.3629601" lon="8.290574"><ele>347.8</ele><time>2026-05-03T11:29:35.142Z</time></trkpt><trkpt lat="44.3628695" lon="8.2905875"><ele>347.40000000000003</ele><time>2026-05-03T11:29:36.143Z</time></trkpt><trkpt lat="44.3627407" lon="8.2905794"><ele>347.0</ele><time>2026-05-03T11:29:37.143Z</time></trkpt><trkpt lat="44.3626198" lon="8.2905721"><ele>347.0</ele><time>2026-05-03T11:29:38.143Z</time></trkpt><trkpt lat="44.3624532" lon="8.2905677"><ele>347.0</ele><time>2026-05-03T11:29:39.142Z</time></trkpt><trkpt lat="44.3623169" lon="8.2905688"><ele>347.0</ele><time>2026-05-03T11:29:40.143Z</time></trkpt><trkpt lat="44.362195" lon="8.2905748"><ele>347.0</ele><time>2026-05-03T11:29:41.143Z</time></trkpt><trkpt lat="44.3620747" lon="8.2905843"><ele>347.20000000000005</ele><time>2026-05-03T11:29:42.142Z</time></trkpt><trkpt lat="44.361959" lon="8.290606"><ele>347.4</ele><time>2026-05-03T11:29:43.143Z</time></trkpt><trkpt lat="44.3618589" lon="8.2906607"><ele>347.6</ele><time>2026-05-03T11:29:44.143Z</time></trkpt><trkpt lat="44.3617773" lon="8.2907415"><ele>347.79999999999995</ele><time>2026-05-03T11:29:45.143Z</time></trkpt><trkpt lat="44.3617192" lon="8.290857"><ele>348.0</ele><time>2026-05-03T11:29:46.143Z</time></trkpt><trkpt lat="44.3616594" lon="8.2909767"><ele>348.0</ele><time>2026-05-03T11:29:47.143Z</time></trkpt><trkpt lat="44.3615822" lon="8.291116"><ele>348.0</ele><time>2026-05-03T11:29:48.143Z</time></trkpt><trkpt lat="44.3614954" lon="8.2912606"><ele>348.0</ele><time>2026-05-03T11:29:49.143Z</time></trkpt><trkpt lat="44.3614016" lon="8.2914104"><ele>348.0</ele><time>2026-05-03T11:29:50.143Z</time></trkpt><trkpt lat="44.361307" lon="8.2915605"><ele>348.0</ele><time>2026-05-03T11:29:51.143Z</time></trkpt><trkpt lat="44.3612159" lon="8.2917042"><ele>348.0</ele><time>2026-05-03T11:29:52.142Z</time></trkpt><trkpt lat="44.3611301" lon="8.2918395"><ele>348.0</ele><time>2026-05-03T11:29:53.143Z</time></trkpt><trkpt lat="44.3610488" lon="8.2919638"><ele>348.0</ele><time>2026-05-03T11:29:54.142Z</time></trkpt><trkpt lat="44.3609552" lon="8.2920713"><ele>348.0</ele><time>2026-05-03T11:29:55.142Z</time></trkpt><trkpt lat="44.3608365" lon="8.2921365"><ele>348.0</ele><time>2026-05-03T11:29:56.143Z</time></trkpt><trkpt lat="44.3607091" lon="8.2921513"><ele>348.0</ele><time>2026-05-03T11:29:57.142Z</time></trkpt><trkpt lat="44.3605672" lon="8.2921284"><ele>348.0</ele><time>2026-05-03T11:29:58.143Z</time></trkpt><trkpt lat="44.3604233" lon="8.2921066"><ele>348.3333333333333</ele><time>2026-05-03T11:29:59.142Z</time></trkpt><trkpt lat="44.3602747" lon="8.2920893"><ele>348.66666666666663</ele><time>2026-05-03T11:30:00.143Z</time></trkpt><trkpt lat="44.3601144" lon="8.2920816"><ele>349.0</ele><time>2026-05-03T11:30:01.143Z</time></trkpt><trkpt lat="44.3599574" lon="8.2920795"><ele>349.0</ele><time>2026-05-03T11:30:02.142Z</time></trkpt><trkpt lat="44.3598" lon="8.2920806"><ele>349.0</ele><time>2026-05-03T11:30:03.142Z</time></trkpt><trkpt lat="44.3596479" lon="8.2920778"><ele>349.0</ele><time>2026-05-03T11:30:04.144Z</time></trkpt><trkpt lat="44.359491" lon="8.2920696"><ele>350.0</ele><time>2026-05-03T11:30:05.143Z</time></trkpt><trkpt lat="44.35933" lon="8.2920676"><ele>351.0</ele><time>2026-05-03T11:30:06.143Z</time></trkpt><trkpt lat="44.3591706" lon="8.2920652"><ele>352.0</ele><time>2026-05-03T11:30:07.142Z</time></trkpt><trkpt lat="44.3590125" lon="8.2920712"><ele>352.0</ele><time>2026-05-03T11:30:08.142Z</time></trkpt><trkpt lat="44.358851" lon="8.2920733"><ele>352.0</ele><time>2026-05-03T11:30:09.142Z</time></trkpt><trkpt lat="44.3586907" lon="8.2920796"><ele>352.0</ele><time>2026-05-03T11:30:10.143Z</time></trkpt><trkpt lat="44.3585191" lon="8.2920784"><ele>352.0</ele><time>2026-05-03T11:30:11.143Z</time></trkpt><trkpt lat="44.3583446" lon="8.2920757"><ele>352.0</ele><time>2026-05-03T11:30:12.143Z</time></trkpt><trkpt lat="44.3581713" lon="8.292077"><ele>352.0</ele><time>2026-05-03T11:30:13.143Z</time></trkpt><trkpt lat="44.3579946" lon="8.2920722"><ele>353.0</ele><time>2026-05-03T11:30:14.143Z</time></trkpt><trkpt lat="44.3578139" lon="8.2920694"><ele>354.0</ele><time>2026-05-03T11:30:15.142Z</time></trkpt><trkpt lat="44.3576371" lon="8.2920698"><ele>355.0</ele><time>2026-05-03T11:30:16.142Z</time></trkpt><trkpt lat="44.3574605" lon="8.2920712"><ele>355.0</ele><time>2026-05-03T11:30:17.143Z</time></trkpt><trkpt lat="44.3572953" lon="8.2920591"><ele>355.0</ele><time>2026-05-03T11:30:18.143Z</time></trkpt><trkpt lat="44.3571377" lon="8.2920352"><ele>355.0</ele><time>2026-05-03T11:30:19.143Z</time></trkpt><trkpt lat="44.3569817" lon="8.2920018"><ele>356.66666666666663</ele><time>2026-05-03T11:30:20.143Z</time></trkpt><trkpt lat="44.3568254" lon="8.2919553"><ele>358.3333333333333</ele><time>2026-05-03T11:30:21.143Z</time></trkpt><trkpt lat="44.3566701" lon="8.2919035"><ele>360.0</ele><time>2026-05-03T11:30:22.144Z</time></trkpt><trkpt lat="44.3565198" lon="8.291839"><ele>360.3333333333333</ele><time>2026-05-03T11:30:23.144Z</time></trkpt><trkpt lat="44.3563693" lon="8.2917886"><ele>360.66666666666663</ele><time>2026-05-03T11:30:24.144Z</time></trkpt><trkpt lat="44.3562217" lon="8.2917529"><ele>361.0</ele><time>2026-05-03T11:30:25.144Z</time></trkpt><trkpt lat="44.3560749" lon="8.2917376"><ele>361.0</ele><time>2026-05-03T11:30:26.144Z</time></trkpt><trkpt lat="44.3559308" lon="8.2917591"><ele>361.0</ele><time>2026-05-03T11:30:27.144Z</time></trkpt><trkpt lat="44.3557844" lon="8.2918017"><ele>361.0</ele><time>2026-05-03T11:30:28.144Z</time></trkpt><trkpt lat="44.3556444" lon="8.2918615"><ele>361.0</ele><time>2026-05-03T11:30:29.144Z</time></trkpt><trkpt lat="44.3555158" lon="8.2919296"><ele>361.25</ele><time>2026-05-03T11:30:30.144Z</time></trkpt><trkpt lat="44.3553949" lon="8.292005"><ele>361.5</ele><time>2026-05-03T11:30:31.144Z</time></trkpt><trkpt lat="44.3552753" lon="8.2920802"><ele>361.75</ele><time>2026-05-03T11:30:32.144Z</time></trkpt><trkpt lat="44.3551441" lon="8.2921503"><ele>362.0</ele><time>2026-05-03T11:30:33.144Z</time></trkpt><trkpt lat="44.3550075" lon="8.2922208"><ele>362.33333333333337</ele><time>2026-05-03T11:30:34.144Z</time></trkpt><trkpt lat="44.3548663" lon="8.2922916"><ele>362.6666666666667</ele><time>2026-05-03T11:30:35.143Z</time></trkpt><trkpt lat="44.3547194" lon="8.2923635"><ele>363.0</ele><time>2026-05-03T11:30:36.144Z</time></trkpt><trkpt lat="44.3545717" lon="8.2924334"><ele>363.0</ele><time>2026-05-03T11:30:37.144Z</time></trkpt><trkpt lat="44.3544181" lon="8.2925095"><ele>363.0</ele><time>2026-05-03T11:30:38.143Z</time></trkpt><trkpt lat="44.3542604" lon="8.2925851"><ele>363.0</ele><time>2026-05-03T11:30:39.144Z</time></trkpt><trkpt lat="44.3540992" lon="8.2926676"><ele>363.0</ele><time>2026-05-03T11:30:40.143Z</time></trkpt><trkpt lat="44.3539395" lon="8.2927499"><ele>363.0</ele><time>2026-05-03T11:30:41.144Z</time></trkpt><trkpt lat="44.3537747" lon="8.2928369"><ele>363.0</ele><time>2026-05-03T11:30:42.144Z</time></trkpt><trkpt lat="44.3536005" lon="8.2929239"><ele>363.0</ele><time>2026-05-03T11:30:43.144Z</time></trkpt><trkpt lat="44.3534473" lon="8.2930177"><ele>363.0</ele><time>2026-05-03T11:30:44.144Z</time></trkpt><trkpt lat="44.3533053" lon="8.2931225"><ele>363.0</ele><time>2026-05-03T11:30:45.144Z</time></trkpt><trkpt lat="44.3531698" lon="8.2932377"><ele>363.0</ele><time>2026-05-03T11:30:46.143Z</time></trkpt><trkpt lat="44.3530461" lon="8.2933626"><ele>363.0</ele><time>2026-05-03T11:30:47.143Z</time></trkpt><trkpt lat="44.3529289" lon="8.2934973"><ele>363.0</ele><time>2026-05-03T11:30:48.144Z</time></trkpt><trkpt lat="44.3528087" lon="8.2936439"><ele>363.3333333333333</ele><time>2026-05-03T11:30:49.144Z</time></trkpt><trkpt lat="44.352689" lon="8.2938079"><ele>363.66666666666663</ele><time>2026-05-03T11:30:50.144Z</time></trkpt><trkpt lat="44.3525763" lon="8.2939765"><ele>364.0</ele><time>2026-05-03T11:30:51.143Z</time></trkpt><trkpt lat="44.3524743" lon="8.2941439"><ele>364.0</ele><time>2026-05-03T11:30:52.144Z</time></trkpt><trkpt lat="44.3523742" lon="8.2943082"><ele>364.0</ele><time>2026-05-03T11:30:53.144Z</time></trkpt><trkpt lat="44.3522739" lon="8.2944644"><ele>364.0</ele><time>2026-05-03T11:30:54.144Z</time></trkpt><trkpt lat="44.3521718" lon="8.2946136"><ele>364.25</ele><time>2026-05-03T11:30:55.144Z</time></trkpt><trkpt lat="44.3520709" lon="8.2947626"><ele>364.5</ele><time>2026-05-03T11:30:56.144Z</time></trkpt><trkpt lat="44.3519774" lon="8.2948979"><ele>364.75</ele><time>2026-05-03T11:30:57.143Z</time></trkpt><trkpt lat="44.3518782" lon="8.2950394"><ele>365.0</ele><time>2026-05-03T11:30:58.144Z</time></trkpt><trkpt lat="44.3517732" lon="8.2951817"><ele>365.0</ele><time>2026-05-03T11:30:59.143Z</time></trkpt><trkpt lat="44.3516632" lon="8.2953325"><ele>365.0</ele><time>2026-05-03T11:31:00.144Z</time></trkpt><trkpt lat="44.351555" lon="8.2954862"><ele>365.0</ele><time>2026-05-03T11:31:01.144Z</time></trkpt><trkpt lat="44.351446" lon="8.2956478"><ele>365.33333333333337</ele><time>2026-05-03T11:31:02.144Z</time></trkpt><trkpt lat="44.3513368" lon="8.2958139"><ele>365.6666666666667</ele><time>2026-05-03T11:31:03.144Z</time></trkpt><trkpt lat="44.351224" lon="8.2959769"><ele>366.0</ele><time>2026-05-03T11:31:04.144Z</time></trkpt><trkpt lat="44.3511176" lon="8.2961508"><ele>366.0</ele><time>2026-05-03T11:31:05.144Z</time></trkpt><trkpt lat="44.3510166" lon="8.2963484"><ele>366.0</ele><time>2026-05-03T11:31:06.145Z</time></trkpt><trkpt lat="44.3509445" lon="8.2965652"><ele>366.0</ele><time>2026-05-03T11:31:07.144Z</time></trkpt><trkpt lat="44.3508806" lon="8.2967847"><ele>367.0</ele><time>2026-05-03T11:31:08.144Z</time></trkpt><trkpt lat="44.3508038" lon="8.296981"><ele>368.0</ele><time>2026-05-03T11:31:09.144Z</time></trkpt><trkpt lat="44.3507102" lon="8.2971557"><ele>369.0</ele><time>2026-05-03T11:31:10.144Z</time></trkpt><trkpt lat="44.3505962" lon="8.2973217"><ele>370.0</ele><time>2026-05-03T11:31:11.144Z</time></trkpt><trkpt lat="44.350473" lon="8.2974681"><ele>371.0</ele><time>2026-05-03T11:31:12.144Z</time></trkpt><trkpt lat="44.3503507" lon="8.2976096"><ele>372.0</ele><time>2026-05-03T11:31:13.144Z</time></trkpt><trkpt lat="44.3502372" lon="8.2977527"><ele>372.0</ele><time>2026-05-03T11:31:14.143Z</time></trkpt><trkpt lat="44.3501267" lon="8.2978896"><ele>372.0</ele><time>2026-05-03T11:31:15.144Z</time></trkpt><trkpt lat="44.3500213" lon="8.2980284"><ele>372.0</ele><time>2026-05-03T11:31:16.143Z</time></trkpt><trkpt lat="44.3499177" lon="8.2981618"><ele>372.0</ele><time>2026-05-03T11:31:17.144Z</time></trkpt><trkpt lat="44.3498181" lon="8.2982895"><ele>372.75</ele><time>2026-05-03T11:31:18.144Z</time></trkpt><trkpt lat="44.3497214" lon="8.2984174"><ele>373.5</ele><time>2026-05-03T11:31:19.144Z</time></trkpt><trkpt lat="44.3496295" lon="8.2985349"><ele>374.25</ele><time>2026-05-03T11:31:20.145Z</time></trkpt><trkpt lat="44.3495354" lon="8.2986534"><ele>375.0</ele><time>2026-05-03T11:31:21.144Z</time></trkpt><trkpt lat="44.3494376" lon="8.2987873"><ele>377.6666666666667</ele><time>2026-05-03T11:31:22.143Z</time></trkpt><trkpt lat="44.3493268" lon="8.2989307"><ele>380.33333333333337</ele><time>2026-05-03T11:31:23.143Z</time></trkpt><trkpt lat="44.3492117" lon="8.2990813"><ele>383.0</ele><time>2026-05-03T11:31:24.144Z</time></trkpt><trkpt lat="44.3490914" lon="8.2992358"><ele>383.0</ele><time>2026-05-03T11:31:25.144Z</time></trkpt><trkpt lat="44.3489728" lon="8.2993836"><ele>383.0</ele><time>2026-05-03T11:31:26.144Z</time></trkpt><trkpt lat="44.3488559" lon="8.299534"><ele>383.0</ele><time>2026-05-03T11:31:27.145Z</time></trkpt><trkpt lat="44.3487251" lon="8.2996809"><ele>383.75</ele><time>2026-05-03T11:31:28.144Z</time></trkpt><trkpt lat="44.3486004" lon="8.2998"><ele>384.5</ele><time>2026-05-03T11:31:29.145Z</time></trkpt><trkpt lat="44.3484748" lon="8.2999034"><ele>385.25</ele><time>2026-05-03T11:31:30.145Z</time></trkpt><trkpt lat="44.3483534" lon="8.3000059"><ele>386.0</ele><time>2026-05-03T11:31:31.144Z</time></trkpt><trkpt lat="44.3482336" lon="8.3001118"><ele>386.0</ele><time>2026-05-03T11:31:32.144Z</time></trkpt><trkpt lat="44.3481265" lon="8.3002221"><ele>386.0</ele><time>2026-05-03T11:31:33.144Z</time></trkpt><trkpt lat="44.3480211" lon="8.3003513"><ele>386.0</ele><time>2026-05-03T11:31:34.144Z</time></trkpt><trkpt lat="44.3479254" lon="8.3004991"><ele>386.0</ele><time>2026-05-03T11:31:35.145Z</time></trkpt><trkpt lat="44.3478308" lon="8.3006601"><ele>388.3333333333333</ele><time>2026-05-03T11:31:36.145Z</time></trkpt><trkpt lat="44.3477479" lon="8.300843"><ele>390.66666666666663</ele><time>2026-05-03T11:31:37.144Z</time></trkpt><trkpt lat="44.3476831" lon="8.301035"><ele>393.0</ele><time>2026-05-03T11:31:38.144Z</time></trkpt><trkpt lat="44.3476184" lon="8.3012224"><ele>393.0</ele><time>2026-05-03T11:31:39.145Z</time></trkpt><trkpt lat="44.3475667" lon="8.3014052"><ele>393.0</ele><time>2026-05-03T11:31:40.145Z</time></trkpt><trkpt lat="44.3475266" lon="8.3015651"><ele>393.0</ele><time>2026-05-03T11:31:41.145Z</time></trkpt><trkpt lat="44.3474962" lon="8.3017095"><ele>393.0</ele><time>2026-05-03T11:31:42.144Z</time></trkpt><trkpt lat="44.3474707" lon="8.3018298"><ele>393.5</ele><time>2026-05-03T11:31:43.145Z</time></trkpt><trkpt lat="44.3474438" lon="8.3019383"><ele>394.0</ele><time>2026-05-03T11:31:44.145Z</time></trkpt><trkpt lat="44.3474122" lon="8.302038"><ele>394.5</ele><time>2026-05-03T11:31:45.145Z</time></trkpt><trkpt lat="44.3473797" lon="8.3021269"><ele>395.0</ele><time>2026-05-03T11:31:46.145Z</time></trkpt><trkpt lat="44.3473376" lon="8.3022089"><ele>395.5</ele><time>2026-05-03T11:31:47.145Z</time></trkpt><trkpt lat="44.3472841" lon="8.3022695"><ele>396.0</ele><time>2026-05-03T11:31:48.145Z</time></trkpt><trkpt lat="44.3471775" lon="8.3023329"><ele>398.25</ele><time>2026-05-03T11:31:50.145Z</time></trkpt><trkpt lat="44.34714" lon="8.3025215"><ele>400.5</ele><time>2026-05-03T11:31:52.145Z</time></trkpt><trkpt lat="44.3471577" lon="8.3026638"><ele>402.75</ele><time>2026-05-03T11:31:53.145Z</time></trkpt><trkpt lat="44.3471913" lon="8.3028422"><ele>405.0</ele><time>2026-05-03T11:31:54.145Z</time></trkpt><trkpt lat="44.3471889" lon="8.3029939"><ele>405.25</ele><time>2026-05-03T11:31:55.144Z</time></trkpt><trkpt lat="44.3471509" lon="8.3031509"><ele>405.5</ele><time>2026-05-03T11:31:56.145Z</time></trkpt><trkpt lat="44.3471013" lon="8.3033222"><ele>405.75</ele><time>2026-05-03T11:31:57.145Z</time></trkpt><trkpt lat="44.3470445" lon="8.3034938"><ele>406.0</ele><time>2026-05-03T11:31:58.145Z</time></trkpt><trkpt lat="44.3469968" lon="8.3036744"><ele>406.0</ele><time>2026-05-03T11:31:59.145Z</time></trkpt><trkpt lat="44.3469489" lon="8.3038536"><ele>406.0</ele><time>2026-05-03T11:32:00.144Z</time></trkpt><trkpt lat="44.346902" lon="8.3040391"><ele>406.0</ele><time>2026-05-03T11:32:01.145Z</time></trkpt><trkpt lat="44.3468515" lon="8.3042516"><ele>406.0</ele><time>2026-05-03T11:32:02.145Z</time></trkpt><trkpt lat="44.3468041" lon="8.3044664"><ele>405.33333333333337</ele><time>2026-05-03T11:32:03.145Z</time></trkpt><trkpt lat="44.3467714" lon="8.3046797"><ele>404.66666666666663</ele><time>2026-05-03T11:32:04.145Z</time></trkpt><trkpt lat="44.346767" lon="8.3048841"><ele>404.0</ele><time>2026-05-03T11:32:05.144Z</time></trkpt><trkpt lat="44.3467841" lon="8.3050909"><ele>403.75</ele><time>2026-05-03T11:32:06.144Z</time></trkpt><trkpt lat="44.3468234" lon="8.3052957"><ele>403.5</ele><time>2026-05-03T11:32:07.145Z</time></trkpt><trkpt lat="44.3468586" lon="8.3054932"><ele>403.25</ele><time>2026-05-03T11:32:08.144Z</time></trkpt><trkpt lat="44.3468848" lon="8.3056959"><ele>403.0</ele><time>2026-05-03T11:32:09.145Z</time></trkpt><trkpt lat="44.3469102" lon="8.3059076"><ele>402.0</ele><time>2026-05-03T11:32:10.145Z</time></trkpt><trkpt lat="44.3469338" lon="8.3061108"><ele>401.0</ele><time>2026-05-03T11:32:11.144Z</time></trkpt><trkpt lat="44.346951" lon="8.3063002"><ele>400.0</ele><time>2026-05-03T11:32:12.144Z</time></trkpt><trkpt lat="44.3469637" lon="8.3064911"><ele>399.0</ele><time>2026-05-03T11:32:13.144Z</time></trkpt><trkpt lat="44.3469769" lon="8.3067004"><ele>397.66666666666663</ele><time>2026-05-03T11:32:14.144Z</time></trkpt><trkpt lat="44.3470023" lon="8.3069158"><ele>396.3333333333333</ele><time>2026-05-03T11:32:15.144Z</time></trkpt><trkpt lat="44.3470453" lon="8.3071234"><ele>395.0</ele><time>2026-05-03T11:32:16.145Z</time></trkpt><trkpt lat="44.3471019" lon="8.3073228"><ele>393.66666666666663</ele><time>2026-05-03T11:32:17.145Z</time></trkpt><trkpt lat="44.3471989" lon="8.3075115"><ele>392.33333333333337</ele><time>2026-05-03T11:32:18.146Z</time></trkpt><trkpt lat="44.3473033" lon="8.3076911"><ele>391.0</ele><time>2026-05-03T11:32:19.145Z</time></trkpt><trkpt lat="44.3473933" lon="8.3078497"><ele>392.0</ele><time>2026-05-03T11:32:20.145Z</time></trkpt><trkpt lat="44.3474652" lon="8.3080048"><ele>393.0</ele><time>2026-05-03T11:32:21.144Z</time></trkpt><trkpt lat="44.3475054" lon="8.3081808"><ele>394.0</ele><time>2026-05-03T11:32:22.145Z</time></trkpt><trkpt lat="44.3475056" lon="8.3083699"><ele>395.0</ele><time>2026-05-03T11:32:23.145Z</time></trkpt><trkpt lat="44.3474839" lon="8.3085663"><ele>395.0</ele><time>2026-05-03T11:32:24.145Z</time></trkpt><trkpt lat="44.3474318" lon="8.3087615"><ele>395.0</ele><time>2026-05-03T11:32:25.145Z</time></trkpt><trkpt lat="44.3473656" lon="8.3089452"><ele>395.0</ele><time>2026-05-03T11:32:26.146Z</time></trkpt><trkpt lat="44.3472821" lon="8.3091192"><ele>395.0</ele><time>2026-05-03T11:32:27.145Z</time></trkpt><trkpt lat="44.3471868" lon="8.3092572"><ele>394.0</ele><time>2026-05-03T11:32:28.146Z</time></trkpt><trkpt lat="44.3470906" lon="8.309406"><ele>393.0</ele><time>2026-05-03T11:32:29.146Z</time></trkpt><trkpt lat="44.3470038" lon="8.3095682"><ele>392.0</ele><time>2026-05-03T11:32:30.145Z</time></trkpt><trkpt lat="44.3469215" lon="8.3097548"><ele>391.0</ele><time>2026-05-03T11:32:31.145Z</time></trkpt><trkpt lat="44.346863" lon="8.3099355"><ele>391.0</ele><time>2026-05-03T11:32:32.145Z</time></trkpt><trkpt lat="44.3468317" lon="8.3101331"><ele>391.0</ele><time>2026-05-03T11:32:33.146Z</time></trkpt><trkpt lat="44.3467977" lon="8.310323"><ele>391.0</ele><time>2026-05-03T11:32:34.146Z</time></trkpt><trkpt lat="44.3467829" lon="8.3105045"><ele>391.0</ele><time>2026-05-03T11:32:35.145Z</time></trkpt><trkpt lat="44.3467859" lon="8.3106922"><ele>390.5</ele><time>2026-05-03T11:32:36.146Z</time></trkpt><trkpt lat="44.3468006" lon="8.310884"><ele>390.0</ele><time>2026-05-03T11:32:37.146Z</time></trkpt><trkpt lat="44.3468239" lon="8.3110911"><ele>389.5</ele><time>2026-05-03T11:32:38.146Z</time></trkpt><trkpt lat="44.3468456" lon="8.3113068"><ele>389.0</ele><time>2026-05-03T11:32:39.146Z</time></trkpt><trkpt lat="44.3468616" lon="8.3115252"><ele>387.3333333333333</ele><time>2026-05-03T11:32:40.146Z</time></trkpt><trkpt lat="44.3468765" lon="8.3117491"><ele>385.66666666666663</ele><time>2026-05-03T11:32:41.146Z</time></trkpt><trkpt lat="44.3468817" lon="8.3119776"><ele>384.0</ele><time>2026-05-03T11:32:42.146Z</time></trkpt><trkpt lat="44.3468907" lon="8.3122117"><ele>385.0</ele><time>2026-05-03T11:32:43.146Z</time></trkpt><trkpt lat="44.3468859" lon="8.3124454"><ele>386.0</ele><time>2026-05-03T11:32:44.145Z</time></trkpt><trkpt lat="44.3468731" lon="8.3126792"><ele>387.0</ele><time>2026-05-03T11:32:45.146Z</time></trkpt><trkpt lat="44.3468367" lon="8.3129128"><ele>385.0</ele><time>2026-05-03T11:32:46.145Z</time></trkpt><trkpt lat="44.3467812" lon="8.313144"><ele>383.0</ele><time>2026-05-03T11:32:47.145Z</time></trkpt><trkpt lat="44.3467101" lon="8.3133656"><ele>381.0</ele><time>2026-05-03T11:32:48.146Z</time></trkpt><trkpt lat="44.346635" lon="8.313579"><ele>381.0</ele><time>2026-05-03T11:32:49.145Z</time></trkpt><trkpt lat="44.346562" lon="8.3137794"><ele>381.0</ele><time>2026-05-03T11:32:50.146Z</time></trkpt><trkpt lat="44.3464775" lon="8.3139635"><ele>381.0</ele><time>2026-05-03T11:32:51.146Z</time></trkpt><trkpt lat="44.3463818" lon="8.3141373"><ele>382.0</ele><time>2026-05-03T11:32:52.146Z</time></trkpt><trkpt lat="44.3462888" lon="8.3143021"><ele>383.0</ele><time>2026-05-03T11:32:53.146Z</time></trkpt><trkpt lat="44.3461946" lon="8.3144694"><ele>384.0</ele><time>2026-05-03T11:32:54.146Z</time></trkpt><trkpt lat="44.3461138" lon="8.3146397"><ele>385.0</ele><time>2026-05-03T11:32:55.146Z</time></trkpt><trkpt lat="44.346042" lon="8.3148134"><ele>385.0</ele><time>2026-05-03T11:32:56.146Z</time></trkpt><trkpt lat="44.3459804" lon="8.3150068"><ele>385.0</ele><time>2026-05-03T11:32:57.146Z</time></trkpt><trkpt lat="44.3459284" lon="8.3152123"><ele>385.0</ele><time>2026-05-03T11:32:58.146Z</time></trkpt><trkpt lat="44.3458815" lon="8.3154212"><ele>384.33333333333337</ele><time>2026-05-03T11:32:59.145Z</time></trkpt><trkpt lat="44.3458398" lon="8.3156306"><ele>383.6666666666667</ele><time>2026-05-03T11:33:00.146Z</time></trkpt><trkpt lat="44.3458065" lon="8.3158376"><ele>383.0</ele><time>2026-05-03T11:33:01.146Z</time></trkpt><trkpt lat="44.3457776" lon="8.3160438"><ele>383.0</ele><time>2026-05-03T11:33:02.145Z</time></trkpt><trkpt lat="44.3457496" lon="8.3162453"><ele>383.0</ele><time>2026-05-03T11:33:03.145Z</time></trkpt><trkpt lat="44.3457164" lon="8.316456"><ele>383.0</ele><time>2026-05-03T11:33:04.146Z</time></trkpt><trkpt lat="44.3456827" lon="8.3166699"><ele>382.25</ele><time>2026-05-03T11:33:05.146Z</time></trkpt><trkpt lat="44.3456478" lon="8.3168799"><ele>381.5</ele><time>2026-05-03T11:33:06.146Z</time></trkpt><trkpt lat="44.3456147" lon="8.317073"><ele>380.75</ele><time>2026-05-03T11:33:07.145Z</time></trkpt><trkpt lat="44.3455832" lon="8.3172479"><ele>380.0</ele><time>2026-05-03T11:33:08.146Z</time></trkpt><trkpt lat="44.3455539" lon="8.3174163"><ele>386.0</ele><time>2026-05-03T11:33:09.145Z</time></trkpt><trkpt lat="44.345527" lon="8.3175885"><ele>392.0</ele><time>2026-05-03T11:33:10.146Z</time></trkpt><trkpt lat="44.3454989" lon="8.3177689"><ele>398.0</ele><time>2026-05-03T11:33:11.146Z</time></trkpt><trkpt lat="44.3454668" lon="8.3179587"><ele>404.0</ele><time>2026-05-03T11:33:12.146Z</time></trkpt><trkpt lat="44.3454325" lon="8.3181515"><ele>404.0</ele><time>2026-05-03T11:33:13.146Z</time></trkpt><trkpt lat="44.3453987" lon="8.3183399"><ele>404.0</ele><time>2026-05-03T11:33:14.146Z</time></trkpt><trkpt lat="44.3453686" lon="8.3185158"><ele>404.0</ele><time>2026-05-03T11:33:15.146Z</time></trkpt><trkpt lat="44.3453404" lon="8.3186863"><ele>404.0</ele><time>2026-05-03T11:33:16.145Z</time></trkpt><trkpt lat="44.3453119" lon="8.3188546"><ele>404.0</ele><time>2026-05-03T11:33:17.146Z</time></trkpt><trkpt lat="44.3452813" lon="8.3190226"><ele>404.0</ele><time>2026-05-03T11:33:18.146Z</time></trkpt><trkpt lat="44.3452535" lon="8.3191918"><ele>404.0</ele><time>2026-05-03T11:33:19.146Z</time></trkpt><trkpt lat="44.3452347" lon="8.3193594"><ele>404.0</ele><time>2026-05-03T11:33:20.146Z</time></trkpt><trkpt lat="44.3452261" lon="8.3195221"><ele>404.0</ele><time>2026-05-03T11:33:21.146Z</time></trkpt><trkpt lat="44.3452464" lon="8.3196764"><ele>404.0</ele><time>2026-05-03T11:33:22.146Z</time></trkpt><trkpt lat="44.3452893" lon="8.3198223"><ele>404.0</ele><time>2026-05-03T11:33:23.145Z</time></trkpt><trkpt lat="44.345339" lon="8.3199545"><ele>404.0</ele><time>2026-05-03T11:33:24.145Z</time></trkpt><trkpt lat="44.3453859" lon="8.320072"><ele>404.0</ele><time>2026-05-03T11:33:25.145Z</time></trkpt><trkpt lat="44.3454294" lon="8.3201572"><ele>405.6</ele><time>2026-05-03T11:33:26.146Z</time></trkpt><trkpt lat="44.3454906" lon="8.3202511"><ele>407.2</ele><time>2026-05-03T11:33:28.145Z</time></trkpt><trkpt lat="44.3455241" lon="8.3203323"><ele>408.8</ele><time>2026-05-03T11:33:31.145Z</time></trkpt><trkpt lat="44.3455545" lon="8.3204607"><ele>410.40000000000003</ele><time>2026-05-03T11:33:33.145Z</time></trkpt><trkpt lat="44.3455628" lon="8.3206266"><ele>412.0</ele><time>2026-05-03T11:33:35.147Z</time></trkpt><trkpt lat="44.3455493" lon="8.3207975"><ele>410.0</ele><time>2026-05-03T11:33:37.147Z</time></trkpt><trkpt lat="44.3455315" lon="8.3208871"><ele>408.0</ele><time>2026-05-03T11:33:38.147Z</time></trkpt><trkpt lat="44.3454927" lon="8.3210038"><ele>406.0</ele><time>2026-05-03T11:33:39.147Z</time></trkpt><trkpt lat="44.3454316" lon="8.3211346"><ele>404.0</ele><time>2026-05-03T11:33:40.147Z</time></trkpt><trkpt lat="44.3453724" lon="8.321244"><ele>402.0</ele><time>2026-05-03T11:33:41.146Z</time></trkpt><trkpt lat="44.3453094" lon="8.3213425"><ele>397.75</ele><time>2026-05-03T11:33:42.146Z</time></trkpt><trkpt lat="44.3452412" lon="8.321437"><ele>393.5</ele><time>2026-05-03T11:33:43.147Z</time></trkpt><trkpt lat="44.3451523" lon="8.3215423"><ele>389.25</ele><time>2026-05-03T11:33:44.146Z</time></trkpt><trkpt lat="44.3450474" lon="8.3216547"><ele>385.0</ele><time>2026-05-03T11:33:45.147Z</time></trkpt><trkpt lat="44.3449388" lon="8.32176"><ele>385.0</ele><time>2026-05-03T11:33:46.146Z</time></trkpt><trkpt lat="44.3448299" lon="8.3218575"><ele>385.0</ele><time>2026-05-03T11:33:47.147Z</time></trkpt><trkpt lat="44.3447289" lon="8.3219506"><ele>385.0</ele><time>2026-05-03T11:33:48.147Z</time></trkpt><trkpt lat="44.34463" lon="8.3220398"><ele>385.0</ele><time>2026-05-03T11:33:49.146Z</time></trkpt><trkpt lat="44.3445299" lon="8.3221341"><ele>384.0</ele><time>2026-05-03T11:33:50.147Z</time></trkpt><trkpt lat="44.3444314" lon="8.3222328"><ele>383.0</ele><time>2026-05-03T11:33:51.147Z</time></trkpt><trkpt lat="44.3443355" lon="8.3223279"><ele>382.0</ele><time>2026-05-03T11:33:52.146Z</time></trkpt><trkpt lat="44.3442408" lon="8.3224215"><ele>381.0</ele><time>2026-05-03T11:33:53.147Z</time></trkpt><trkpt lat="44.3441435" lon="8.322515"><ele>381.0</ele><time>2026-05-03T11:33:54.147Z</time></trkpt><trkpt lat="44.3440465" lon="8.3226058"><ele>381.0</ele><time>2026-05-03T11:33:55.147Z</time></trkpt><trkpt lat="44.3439522" lon="8.3226925"><ele>381.0</ele><time>2026-05-03T11:33:56.146Z</time></trkpt><trkpt lat="44.3438619" lon="8.3227778"><ele>381.0</ele><time>2026-05-03T11:33:57.147Z</time></trkpt><trkpt lat="44.3437767" lon="8.3228628"><ele>381.0</ele><time>2026-05-03T11:33:58.146Z</time></trkpt><trkpt lat="44.343691" lon="8.3229446"><ele>380.8333333333333</ele><time>2026-05-03T11:33:59.146Z</time></trkpt><trkpt lat="44.3436106" lon="8.3230232"><ele>380.6666666666667</ele><time>2026-05-03T11:34:00.146Z</time></trkpt><trkpt lat="44.3435355" lon="8.3231001"><ele>380.5</ele><time>2026-05-03T11:34:01.147Z</time></trkpt><trkpt lat="44.3434711" lon="8.3231712"><ele>380.33333333333337</ele><time>2026-05-03T11:34:02.147Z</time></trkpt><trkpt lat="44.3434157" lon="8.3232383"><ele>380.1666666666667</ele><time>2026-05-03T11:34:03.146Z</time></trkpt><trkpt lat="44.3433692" lon="8.3232993"><ele>380.0</ele><time>2026-05-03T11:34:04.147Z</time></trkpt><trkpt lat="44.3432759" lon="8.3234081"><ele>380.0</ele><time>2026-05-03T11:34:06.147Z</time></trkpt><trkpt lat="44.3432142" lon="8.3234717"><ele>380.0</ele><time>2026-05-03T11:34:07.147Z</time></trkpt><trkpt lat="44.3431379" lon="8.3235465"><ele>380.0</ele><time>2026-05-03T11:34:08.147Z</time></trkpt><trkpt lat="44.3430517" lon="8.3236235"><ele>380.0</ele><time>2026-05-03T11:34:09.147Z</time></trkpt><trkpt lat="44.3429561" lon="8.3237032"><ele>380.0</ele><time>2026-05-03T11:34:10.146Z</time></trkpt><trkpt lat="44.3428486" lon="8.3237965"><ele>380.25</ele><time>2026-05-03T11:34:11.147Z</time></trkpt><trkpt lat="44.342735" lon="8.3239025"><ele>380.5</ele><time>2026-05-03T11:34:12.147Z</time></trkpt><trkpt lat="44.3426168" lon="8.3240154"><ele>380.75</ele><time>2026-05-03T11:34:13.146Z</time></trkpt><trkpt lat="44.3424998" lon="8.3241245"><ele>381.0</ele><time>2026-05-03T11:34:14.147Z</time></trkpt><trkpt lat="44.3423837" lon="8.3242346"><ele>381.0</ele><time>2026-05-03T11:34:15.147Z</time></trkpt><trkpt lat="44.3422686" lon="8.3243511"><ele>381.0</ele><time>2026-05-03T11:34:16.147Z</time></trkpt><trkpt lat="44.3421576" lon="8.3244759"><ele>381.0</ele><time>2026-05-03T11:34:17.147Z</time></trkpt><trkpt lat="44.3420516" lon="8.3246089"><ele>381.0</ele><time>2026-05-03T11:34:18.147Z</time></trkpt><trkpt lat="44.3419525" lon="8.3247569"><ele>380.6666666666667</ele><time>2026-05-03T11:34:19.147Z</time></trkpt><trkpt lat="44.3418609" lon="8.3249216"><ele>380.33333333333337</ele><time>2026-05-03T11:34:20.147Z</time></trkpt><trkpt lat="44.3417776" lon="8.325098"><ele>380.0</ele><time>2026-05-03T11:34:21.147Z</time></trkpt><trkpt lat="44.3417026" lon="8.3252846"><ele>380.0</ele><time>2026-05-03T11:34:22.147Z</time></trkpt><trkpt lat="44.341637" lon="8.3254816"><ele>380.0</ele><time>2026-05-03T11:34:23.147Z</time></trkpt><trkpt lat="44.3415787" lon="8.3256888"><ele>380.0</ele><time>2026-05-03T11:34:24.147Z</time></trkpt><trkpt lat="44.3415333" lon="8.3259115"><ele>380.33333333333337</ele><time>2026-05-03T11:34:25.147Z</time></trkpt><trkpt lat="44.3415009" lon="8.3261409"><ele>380.6666666666667</ele><time>2026-05-03T11:34:26.146Z</time></trkpt><trkpt lat="44.341485" lon="8.32637"><ele>381.0</ele><time>2026-05-03T11:34:27.146Z</time></trkpt><trkpt lat="44.3414781" lon="8.3265876"><ele>382.66666666666663</ele><time>2026-05-03T11:34:28.147Z</time></trkpt><trkpt lat="44.3414822" lon="8.3268066"><ele>384.3333333333333</ele><time>2026-05-03T11:34:29.146Z</time></trkpt><trkpt lat="44.3414913" lon="8.3270295"><ele>386.0</ele><time>2026-05-03T11:34:30.147Z</time></trkpt><trkpt lat="44.3414994" lon="8.3272564"><ele>439.0</ele><time>2026-05-03T11:34:31.146Z</time></trkpt><trkpt lat="44.3386923" lon="8.3503823"><ele>434.0</ele><time>2026-05-03T11:36:16.149Z</time></trkpt><trkpt lat="44.3386237" lon="8.350552"><ele>429.0</ele><time>2026-05-03T11:36:17.149Z</time></trkpt><trkpt lat="44.3385333" lon="8.3507753"><ele>424.0</ele><time>2026-05-03T11:36:18.149Z</time></trkpt><trkpt lat="44.3384323" lon="8.3509078"><ele>424.0</ele><time>2026-05-03T11:36:19.148Z</time></trkpt><trkpt lat="44.3383317" lon="8.3510312"><ele>424.0</ele><time>2026-05-03T11:36:20.149Z</time></trkpt><trkpt lat="44.3382275" lon="8.3511693"><ele>424.0</ele><time>2026-05-03T11:36:21.149Z</time></trkpt><trkpt lat="44.3381217" lon="8.3513138"><ele>424.0</ele><time>2026-05-03T11:36:22.148Z</time></trkpt><trkpt lat="44.3380169" lon="8.3514595"><ele>424.5</ele><time>2026-05-03T11:36:23.149Z</time></trkpt><trkpt lat="44.337918" lon="8.3515941"><ele>425.0</ele><time>2026-05-03T11:36:24.149Z</time></trkpt><trkpt lat="44.3378276" lon="8.3517161"><ele>425.5</ele><time>2026-05-03T11:36:25.149Z</time></trkpt><trkpt lat="44.3377431" lon="8.3518256"><ele>426.0</ele><time>2026-05-03T11:36:26.149Z</time></trkpt><trkpt lat="44.3376614" lon="8.3519368"><ele>426.0</ele><time>2026-05-03T11:36:27.149Z</time></trkpt><trkpt lat="44.3375808" lon="8.3520549"><ele>426.0</ele><time>2026-05-03T11:36:28.149Z</time></trkpt><trkpt lat="44.3375016" lon="8.3521783"><ele>426.0</ele><time>2026-05-03T11:36:29.149Z</time></trkpt><trkpt lat="44.3374145" lon="8.3523064"><ele>426.0</ele><time>2026-05-03T11:36:30.149Z</time></trkpt><trkpt lat="44.3373235" lon="8.3524407"><ele>423.75</ele><time>2026-05-03T11:36:31.149Z</time></trkpt><trkpt lat="44.3372355" lon="8.3525742"><ele>421.5</ele><time>2026-05-03T11:36:32.149Z</time></trkpt><trkpt lat="44.3371484" lon="8.3527255"><ele>419.25</ele><time>2026-05-03T11:36:33.149Z</time></trkpt><trkpt lat="44.3370588" lon="8.3528837"><ele>417.0</ele><time>2026-05-03T11:36:34.148Z</time></trkpt><trkpt lat="44.3369667" lon="8.3530431"><ele>412.0</ele><time>2026-05-03T11:36:35.149Z</time></trkpt><trkpt lat="44.3368718" lon="8.3532089"><ele>407.0</ele><time>2026-05-03T11:36:36.148Z</time></trkpt><trkpt lat="44.3367787" lon="8.3533781"><ele>402.0</ele><time>2026-05-03T11:36:37.149Z</time></trkpt><trkpt lat="44.3366904" lon="8.3535457"><ele>402.0</ele><time>2026-05-03T11:36:38.149Z</time></trkpt><trkpt lat="44.3366056" lon="8.3537139"><ele>402.0</ele><time>2026-05-03T11:36:39.149Z</time></trkpt><trkpt lat="44.3365253" lon="8.3538802"><ele>402.0</ele><time>2026-05-03T11:36:40.149Z</time></trkpt><trkpt lat="44.3364467" lon="8.3540467"><ele>402.0</ele><time>2026-05-03T11:36:41.148Z</time></trkpt><trkpt lat="44.3363697" lon="8.3542133"><ele>396.25</ele><time>2026-05-03T11:36:42.148Z</time></trkpt><trkpt lat="44.3362914" lon="8.354385"><ele>390.5</ele><time>2026-05-03T11:36:43.149Z</time></trkpt><trkpt lat="44.3362141" lon="8.3545614"><ele>384.75</ele><time>2026-05-03T11:36:44.148Z</time></trkpt><trkpt lat="44.3361369" lon="8.3547416"><ele>379.0</ele><time>2026-05-03T11:36:45.149Z</time></trkpt><trkpt lat="44.3360647" lon="8.3549208"><ele>378.75</ele><time>2026-05-03T11:36:46.149Z</time></trkpt><trkpt lat="44.3359967" lon="8.3550983"><ele>378.5</ele><time>2026-05-03T11:36:47.149Z</time></trkpt><trkpt lat="44.3359318" lon="8.3552777"><ele>378.25</ele><time>2026-05-03T11:36:48.149Z</time></trkpt><trkpt lat="44.3358627" lon="8.3554706"><ele>378.0</ele><time>2026-05-03T11:36:49.15Z</time></trkpt><trkpt lat="44.3357972" lon="8.3556662"><ele>378.0</ele><time>2026-05-03T11:36:50.15Z</time></trkpt><trkpt lat="44.3357342" lon="8.3558579"><ele>378.0</ele><time>2026-05-03T11:36:51.15Z</time></trkpt><trkpt lat="44.3356715" lon="8.3560491"><ele>378.0</ele><time>2026-05-03T11:36:52.15Z</time></trkpt><trkpt lat="44.3356072" lon="8.3562496"><ele>389.66666666666663</ele><time>2026-05-03T11:36:53.149Z</time></trkpt><trkpt lat="44.3355437" lon="8.3564617"><ele>401.3333333333333</ele><time>2026-05-03T11:36:54.15Z</time></trkpt><trkpt lat="44.3354812" lon="8.3566855"><ele>413.0</ele><time>2026-05-03T11:36:55.149Z</time></trkpt><trkpt lat="44.3354217" lon="8.3569125"><ele>413.0</ele><time>2026-05-03T11:36:56.149Z</time></trkpt><trkpt lat="44.3353618" lon="8.3571463"><ele>413.0</ele><time>2026-05-03T11:36:57.15Z</time></trkpt><trkpt lat="44.3353037" lon="8.3573841"><ele>413.0</ele><time>2026-05-03T11:36:58.149Z</time></trkpt><trkpt lat="44.3352429" lon="8.3576258"><ele>409.66666666666663</ele><time>2026-05-03T11:36:59.15Z</time></trkpt><trkpt lat="44.3351834" lon="8.3578698"><ele>406.33333333333337</ele><time>2026-05-03T11:37:00.15Z</time></trkpt><trkpt lat="44.3351236" lon="8.358114"><ele>403.0</ele><time>2026-05-03T11:37:01.15Z</time></trkpt><trkpt lat="44.335063" lon="8.3583619"><ele>402.6666666666667</ele><time>2026-05-03T11:37:02.149Z</time></trkpt><trkpt lat="44.3350007" lon="8.3586108"><ele>402.33333333333337</ele><time>2026-05-03T11:37:03.15Z</time></trkpt><trkpt lat="44.3349369" lon="8.3588582"><ele>402.0</ele><time>2026-05-03T11:37:04.149Z</time></trkpt><trkpt lat="44.3348748" lon="8.3591047"><ele>402.0</ele><time>2026-05-03T11:37:05.15Z</time></trkpt><trkpt lat="44.3348147" lon="8.3593416"><ele>402.0</ele><time>2026-05-03T11:37:06.149Z</time></trkpt><trkpt lat="44.3347517" lon="8.3595636"><ele>402.0</ele><time>2026-05-03T11:37:07.15Z</time></trkpt><trkpt lat="44.3346922" lon="8.3597873"><ele>391.6666666666667</ele><time>2026-05-03T11:37:08.15Z</time></trkpt><trkpt lat="44.3346338" lon="8.3600086"><ele>381.33333333333337</ele><time>2026-05-03T11:37:09.15Z</time></trkpt><trkpt lat="44.3345878" lon="8.3602275"><ele>371.0</ele><time>2026-05-03T11:37:10.149Z</time></trkpt><trkpt lat="44.3345639" lon="8.360451"><ele>375.33333333333337</ele><time>2026-05-03T11:37:11.149Z</time></trkpt><trkpt lat="44.3345669" lon="8.3606784"><ele>379.6666666666667</ele><time>2026-05-03T11:37:12.149Z</time></trkpt><trkpt lat="44.3345911" lon="8.3609096"><ele>384.0</ele><time>2026-05-03T11:37:13.149Z</time></trkpt><trkpt lat="44.334643" lon="8.3611436"><ele>380.0</ele><time>2026-05-03T11:37:14.15Z</time></trkpt><trkpt lat="44.3347185" lon="8.3613887"><ele>376.0</ele><time>2026-05-03T11:37:15.149Z</time></trkpt><trkpt lat="44.3347974" lon="8.3616286"><ele>372.0</ele><time>2026-05-03T11:37:16.15Z</time></trkpt><trkpt lat="44.3348537" lon="8.3618767"><ele>375.6666666666667</ele><time>2026-05-03T11:37:17.15Z</time></trkpt><trkpt lat="44.3349164" lon="8.3621204"><ele>379.33333333333337</ele><time>2026-05-03T11:37:18.15Z</time></trkpt><trkpt lat="44.334977" lon="8.3623613"><ele>383.0</ele><time>2026-05-03T11:37:19.15Z</time></trkpt><trkpt lat="44.3350297" lon="8.3625927"><ele>383.0</ele><time>2026-05-03T11:37:20.15Z</time></trkpt><trkpt lat="44.3350875" lon="8.3628082"><ele>383.0</ele><time>2026-05-03T11:37:21.149Z</time></trkpt><trkpt lat="44.3351424" lon="8.363023"><ele>383.0</ele><time>2026-05-03T11:37:22.15Z</time></trkpt><trkpt lat="44.3352052" lon="8.3632327"><ele>379.33333333333337</ele><time>2026-05-03T11:37:23.149Z</time></trkpt><trkpt lat="44.3352711" lon="8.3634352"><ele>375.6666666666667</ele><time>2026-05-03T11:37:24.149Z</time></trkpt><trkpt lat="44.3353127" lon="8.3636381"><ele>372.0</ele><time>2026-05-03T11:37:25.15Z</time></trkpt><trkpt lat="44.3353125" lon="8.3638435"><ele>370.5</ele><time>2026-05-03T11:37:26.15Z</time></trkpt><trkpt lat="44.3352638" lon="8.364049"><ele>369.0</ele><time>2026-05-03T11:37:27.149Z</time></trkpt><trkpt lat="44.3352083" lon="8.3642307"><ele>367.5</ele><time>2026-05-03T11:37:28.15Z</time></trkpt><trkpt lat="44.3351409" lon="8.3644062"><ele>366.0</ele><time>2026-05-03T11:37:29.149Z</time></trkpt><trkpt lat="44.3350794" lon="8.3645918"><ele>367.6666666666667</ele><time>2026-05-03T11:37:30.15Z</time></trkpt><trkpt lat="44.3350227" lon="8.3648043"><ele>369.33333333333337</ele><time>2026-05-03T11:37:31.149Z</time></trkpt><trkpt lat="44.3349811" lon="8.3650087"><ele>371.0</ele><time>2026-05-03T11:37:32.149Z</time></trkpt><trkpt lat="44.3349674" lon="8.3652189"><ele>371.0</ele><time>2026-05-03T11:37:33.15Z</time></trkpt><trkpt lat="44.3349961" lon="8.3654193"><ele>371.0</ele><time>2026-05-03T11:37:34.15Z</time></trkpt><trkpt lat="44.3350772" lon="8.3655934"><ele>371.0</ele><time>2026-05-03T11:37:35.149Z</time></trkpt><trkpt lat="44.3351512" lon="8.3657429"><ele>371.0</ele><time>2026-05-03T11:37:36.15Z</time></trkpt><trkpt lat="44.3352497" lon="8.3658916"><ele>370.0</ele><time>2026-05-03T11:37:37.149Z</time></trkpt><trkpt lat="44.335351" lon="8.3660556"><ele>369.0</ele><time>2026-05-03T11:37:38.15Z</time></trkpt><trkpt lat="44.3354158" lon="8.3662555"><ele>368.0</ele><time>2026-05-03T11:37:39.149Z</time></trkpt><trkpt lat="44.3354322" lon="8.3664737"><ele>362.33333333333337</ele><time>2026-05-03T11:37:40.15Z</time></trkpt><trkpt lat="44.3354003" lon="8.3667089"><ele>356.6666666666667</ele><time>2026-05-03T11:37:41.15Z</time></trkpt><trkpt lat="44.3353644" lon="8.3669202"><ele>351.0</ele><time>2026-05-03T11:37:42.15Z</time></trkpt><trkpt lat="44.3353441" lon="8.3671265"><ele>349.3333333333333</ele><time>2026-05-03T11:37:43.15Z</time></trkpt><trkpt lat="44.3353395" lon="8.3673448"><ele>347.66666666666663</ele><time>2026-05-03T11:37:44.15Z</time></trkpt><trkpt lat="44.3353622" lon="8.3675636"><ele>346.0</ele><time>2026-05-03T11:37:45.15Z</time></trkpt><trkpt lat="44.3353987" lon="8.3677864"><ele>346.0</ele><time>2026-05-03T11:37:46.149Z</time></trkpt><trkpt lat="44.3354621" lon="8.3679989"><ele>346.0</ele><time>2026-05-03T11:37:47.15Z</time></trkpt><trkpt lat="44.3355698" lon="8.3681993"><ele>346.0</ele><time>2026-05-03T11:37:48.15Z</time></trkpt><trkpt lat="44.3356886" lon="8.3683693"><ele>350.3333333333333</ele><time>2026-05-03T11:37:49.15Z</time></trkpt><trkpt lat="44.3358149" lon="8.3685006"><ele>354.6666666666667</ele><time>2026-05-03T11:37:50.151Z</time></trkpt><trkpt lat="44.335958" lon="8.3685957"><ele>359.0</ele><time>2026-05-03T11:37:51.15Z</time></trkpt><trkpt lat="44.3360889" lon="8.3686742"><ele>359.0</ele><time>2026-05-03T11:37:52.151Z</time></trkpt><trkpt lat="44.3362403" lon="8.3687308"><ele>359.0</ele><time>2026-05-03T11:37:53.151Z</time></trkpt><trkpt lat="44.3364118" lon="8.368818"><ele>359.0</ele><time>2026-05-03T11:37:54.15Z</time></trkpt><trkpt lat="44.3365402" lon="8.3689348"><ele>356.33333333333337</ele><time>2026-05-03T11:37:55.15Z</time></trkpt><trkpt lat="44.3366381" lon="8.3690729"><ele>353.6666666666667</ele><time>2026-05-03T11:37:56.15Z</time></trkpt><trkpt lat="44.3367172" lon="8.3692503"><ele>351.0</ele><time>2026-05-03T11:37:57.151Z</time></trkpt><trkpt lat="44.3367772" lon="8.3694626"><ele>351.0</ele><time>2026-05-03T11:37:58.151Z</time></trkpt><trkpt lat="44.336819" lon="8.3696643"><ele>351.0</ele><time>2026-05-03T11:37:59.15Z</time></trkpt><trkpt lat="44.3368474" lon="8.3698736"><ele>351.0</ele><time>2026-05-03T11:38:00.15Z</time></trkpt><trkpt lat="44.3367885" lon="8.370105"><ele>349.3333333333333</ele><time>2026-05-03T11:38:01.151Z</time></trkpt><trkpt lat="44.3367207" lon="8.3703008"><ele>347.66666666666663</ele><time>2026-05-03T11:38:02.151Z</time></trkpt><trkpt lat="44.3366144" lon="8.3704819"><ele>346.0</ele><time>2026-05-03T11:38:03.15Z</time></trkpt><trkpt lat="44.3364972" lon="8.3706221"><ele>344.0</ele><time>2026-05-03T11:38:04.15Z</time></trkpt><trkpt lat="44.3363864" lon="8.3707749"><ele>342.0</ele><time>2026-05-03T11:38:05.151Z</time></trkpt><trkpt lat="44.3362995" lon="8.3709473"><ele>340.0</ele><time>2026-05-03T11:38:06.151Z</time></trkpt><trkpt lat="44.3362136" lon="8.3711483"><ele>338.66666666666663</ele><time>2026-05-03T11:38:07.151Z</time></trkpt><trkpt lat="44.3361419" lon="8.3713362"><ele>337.3333333333333</ele><time>2026-05-03T11:38:08.151Z</time></trkpt><trkpt lat="44.3360775" lon="8.3715383"><ele>336.0</ele><time>2026-05-03T11:38:09.151Z</time></trkpt><trkpt lat="44.3360259" lon="8.371746"><ele>336.0</ele><time>2026-05-03T11:38:10.15Z</time></trkpt><trkpt lat="44.3359893" lon="8.3719602"><ele>336.0</ele><time>2026-05-03T11:38:11.151Z</time></trkpt><trkpt lat="44.3359585" lon="8.3721714"><ele>336.0</ele><time>2026-05-03T11:38:12.15Z</time></trkpt><trkpt lat="44.3359284" lon="8.3723777"><ele>337.3333333333333</ele><time>2026-05-03T11:38:13.151Z</time></trkpt><trkpt lat="44.3359025" lon="8.3725878"><ele>338.66666666666663</ele><time>2026-05-03T11:38:14.151Z</time></trkpt><trkpt lat="44.3358819" lon="8.3727969"><ele>340.0</ele><time>2026-05-03T11:38:15.151Z</time></trkpt><trkpt lat="44.3358646" lon="8.3730066"><ele>341.25</ele><time>2026-05-03T11:38:16.151Z</time></trkpt><trkpt lat="44.3358492" lon="8.3731829"><ele>342.5</ele><time>2026-05-03T11:38:17.15Z</time></trkpt><trkpt lat="44.3358408" lon="8.3733662"><ele>343.75</ele><time>2026-05-03T11:38:18.15Z</time></trkpt><trkpt lat="44.3358553" lon="8.3735365"><ele>345.0</ele><time>2026-05-03T11:38:19.151Z</time></trkpt><trkpt lat="44.3358541" lon="8.3737026"><ele>348.25</ele><time>2026-05-03T11:38:20.15Z</time></trkpt><trkpt lat="44.3358228" lon="8.3738814"><ele>351.5</ele><time>2026-05-03T11:38:21.151Z</time></trkpt><trkpt lat="44.3357841" lon="8.3740384"><ele>354.75</ele><time>2026-05-03T11:38:22.15Z</time></trkpt><trkpt lat="44.3357251" lon="8.3741563"><ele>358.0</ele><time>2026-05-03T11:38:23.15Z</time></trkpt><trkpt lat="44.3356229" lon="8.374223"><ele>356.25</ele><time>2026-05-03T11:38:24.151Z</time></trkpt><trkpt lat="44.3354902" lon="8.3742454"><ele>354.5</ele><time>2026-05-03T11:38:25.15Z</time></trkpt><trkpt lat="44.3353421" lon="8.3742283"><ele>352.75</ele><time>2026-05-03T11:38:26.15Z</time></trkpt><trkpt lat="44.3352144" lon="8.3742313"><ele>351.0</ele><time>2026-05-03T11:38:27.15Z</time></trkpt><trkpt lat="44.335103" lon="8.3742552"><ele>351.0</ele><time>2026-05-03T11:38:28.15Z</time></trkpt><trkpt lat="44.3349884" lon="8.3743215"><ele>351.0</ele><time>2026-05-03T11:38:29.15Z</time></trkpt><trkpt lat="44.3349043" lon="8.3744483"><ele>351.0</ele><time>2026-05-03T11:38:30.15Z</time></trkpt><trkpt lat="44.3348603" lon="8.3746143"><ele>351.0</ele><time>2026-05-03T11:38:31.151Z</time></trkpt><trkpt lat="44.3348628" lon="8.3748105"><ele>350.75</ele><time>2026-05-03T11:38:32.151Z</time></trkpt><trkpt lat="44.334909" lon="8.3750551"><ele>350.5</ele><time>2026-05-03T11:38:33.151Z</time></trkpt><trkpt lat="44.3349262" lon="8.3752429"><ele>350.25</ele><time>2026-05-03T11:38:34.151Z</time></trkpt><trkpt lat="44.3349069" lon="8.375411"><ele>350.0</ele><time>2026-05-03T11:38:35.15Z</time></trkpt><trkpt lat="44.3348684" lon="8.375571"><ele>350.0</ele><time>2026-05-03T11:38:36.151Z</time></trkpt><trkpt lat="44.3348267" lon="8.3757355"><ele>350.0</ele><time>2026-05-03T11:38:37.15Z</time></trkpt><trkpt lat="44.3347874" lon="8.3759053"><ele>350.0</ele><time>2026-05-03T11:38:38.15Z</time></trkpt><trkpt lat="44.3347599" lon="8.3760721"><ele>350.0</ele><time>2026-05-03T11:38:39.15Z</time></trkpt><trkpt lat="44.3347237" lon="8.3762371"><ele>347.25</ele><time>2026-05-03T11:38:40.151Z</time></trkpt><trkpt lat="44.3346837" lon="8.3764051"><ele>344.5</ele><time>2026-05-03T11:38:41.151Z</time></trkpt><trkpt lat="44.3346301" lon="8.3765589"><ele>341.75</ele><time>2026-05-03T11:38:42.15Z</time></trkpt><trkpt lat="44.334571" lon="8.3767121"><ele>339.0</ele><time>2026-05-03T11:38:43.151Z</time></trkpt><trkpt lat="44.3345172" lon="8.3768846"><ele>339.0</ele><time>2026-05-03T11:38:44.15Z</time></trkpt><trkpt lat="44.3344791" lon="8.3770888"><ele>339.0</ele><time>2026-05-03T11:38:45.151Z</time></trkpt><trkpt lat="44.3344854" lon="8.3773035"><ele>339.0</ele><time>2026-05-03T11:38:46.151Z</time></trkpt><trkpt lat="44.3345146" lon="8.3775015"><ele>339.0</ele><time>2026-05-03T11:38:47.15Z</time></trkpt><trkpt lat="44.3345522" lon="8.3776839"><ele>337.79999999999995</ele><time>2026-05-03T11:38:48.151Z</time></trkpt><trkpt lat="44.3345774" lon="8.3778366"><ele>336.59999999999997</ele><time>2026-05-03T11:38:49.15Z</time></trkpt><trkpt lat="44.3345917" lon="8.3779744"><ele>335.4</ele><time>2026-05-03T11:38:50.151Z</time></trkpt><trkpt lat="44.3346113" lon="8.3781136"><ele>334.2</ele><time>2026-05-03T11:38:51.151Z</time></trkpt><trkpt lat="44.3346381" lon="8.3782738"><ele>333.0</ele><time>2026-05-03T11:38:52.152Z</time></trkpt><trkpt lat="44.3346621" lon="8.378445"><ele>334.0</ele><time>2026-05-03T11:38:53.152Z</time></trkpt><trkpt lat="44.3346656" lon="8.3786232"><ele>335.0</ele><time>2026-05-03T11:38:54.152Z</time></trkpt><trkpt lat="44.3346504" lon="8.3788018"><ele>336.0</ele><time>2026-05-03T11:38:55.152Z</time></trkpt><trkpt lat="44.3346039" lon="8.3789845"><ele>337.0</ele><time>2026-05-03T11:38:56.151Z</time></trkpt><trkpt lat="44.3345492" lon="8.3791512"><ele>337.0</ele><time>2026-05-03T11:38:57.151Z</time></trkpt><trkpt lat="44.3344783" lon="8.3793012"><ele>337.0</ele><time>2026-05-03T11:38:58.151Z</time></trkpt><trkpt lat="44.3343969" lon="8.379446"><ele>337.0</ele><time>2026-05-03T11:38:59.151Z</time></trkpt><trkpt lat="44.3343079" lon="8.379576"><ele>337.0</ele><time>2026-05-03T11:39:00.152Z</time></trkpt><trkpt lat="44.334196" lon="8.3796716"><ele>334.75</ele><time>2026-05-03T11:39:01.151Z</time></trkpt><trkpt lat="44.3340711" lon="8.3797351"><ele>332.5</ele><time>2026-05-03T11:39:02.152Z</time></trkpt><trkpt lat="44.3339532" lon="8.3797659"><ele>330.25</ele><time>2026-05-03T11:39:03.151Z</time></trkpt><trkpt lat="44.3338395" lon="8.3797976"><ele>328.0</ele><time>2026-05-03T11:39:04.151Z</time></trkpt><trkpt lat="44.3337424" lon="8.3798489"><ele>328.0</ele><time>2026-05-03T11:39:05.152Z</time></trkpt><trkpt lat="44.3336575" lon="8.3799425"><ele>328.0</ele><time>2026-05-03T11:39:06.152Z</time></trkpt><trkpt lat="44.3335974" lon="8.3800897"><ele>328.0</ele><time>2026-05-03T11:39:07.151Z</time></trkpt><trkpt lat="44.333561" lon="8.3802571"><ele>328.0</ele><time>2026-05-03T11:39:08.152Z</time></trkpt><trkpt lat="44.3335182" lon="8.3804179"><ele>331.25</ele><time>2026-05-03T11:39:09.152Z</time></trkpt><trkpt lat="44.333474" lon="8.3805818"><ele>334.5</ele><time>2026-05-03T11:39:10.152Z</time></trkpt><trkpt lat="44.3334337" lon="8.3807351"><ele>337.75</ele><time>2026-05-03T11:39:11.152Z</time></trkpt><trkpt lat="44.3333946" lon="8.3808813"><ele>341.0</ele><time>2026-05-03T11:39:12.151Z</time></trkpt><trkpt lat="44.3333461" lon="8.3810256"><ele>341.0</ele><time>2026-05-03T11:39:13.152Z</time></trkpt><trkpt lat="44.3332924" lon="8.3811643"><ele>341.0</ele><time>2026-05-03T11:39:14.151Z</time></trkpt><trkpt lat="44.3332426" lon="8.3812914"><ele>341.0</ele><time>2026-05-03T11:39:15.152Z</time></trkpt><trkpt lat="44.3331859" lon="8.3814074"><ele>341.0</ele><time>2026-05-03T11:39:16.152Z</time></trkpt><trkpt lat="44.3331235" lon="8.3815125"><ele>341.0</ele><time>2026-05-03T11:39:17.151Z</time></trkpt><trkpt lat="44.333051" lon="8.381603"><ele>341.20000000000005</ele><time>2026-05-03T11:39:18.152Z</time></trkpt><trkpt lat="44.3329573" lon="8.3816595"><ele>341.40000000000003</ele><time>2026-05-03T11:39:19.151Z</time></trkpt><trkpt lat="44.3328556" lon="8.3816713"><ele>341.6</ele><time>2026-05-03T11:39:20.151Z</time></trkpt><trkpt lat="44.3327375" lon="8.3816502"><ele>341.8</ele><time>2026-05-03T11:39:21.151Z</time></trkpt><trkpt lat="44.3326124" lon="8.3816282"><ele>342.0</ele><time>2026-05-03T11:39:22.151Z</time></trkpt><trkpt lat="44.3324927" lon="8.3816151"><ele>342.0</ele><time>2026-05-03T11:39:23.152Z</time></trkpt><trkpt lat="44.3323763" lon="8.3816334"><ele>342.0</ele><time>2026-05-03T11:39:24.152Z</time></trkpt><trkpt lat="44.3322705" lon="8.3816815"><ele>342.0</ele><time>2026-05-03T11:39:25.152Z</time></trkpt><trkpt lat="44.3321817" lon="8.3817436"><ele>342.0</ele><time>2026-05-03T11:39:26.151Z</time></trkpt><trkpt lat="44.3320903" lon="8.3818272"><ele>342.0</ele><time>2026-05-03T11:39:27.152Z</time></trkpt><trkpt lat="44.3320148" lon="8.381958"><ele>339.75</ele><time>2026-05-03T11:39:28.152Z</time></trkpt><trkpt lat="44.3319755" lon="8.3821352"><ele>337.5</ele><time>2026-05-03T11:39:29.152Z</time></trkpt><trkpt lat="44.3319955" lon="8.382357"><ele>335.25</ele><time>2026-05-03T11:39:30.151Z</time></trkpt><trkpt lat="44.3320336" lon="8.3825512"><ele>333.0</ele><time>2026-05-03T11:39:31.152Z</time></trkpt><trkpt lat="44.3320627" lon="8.3827039"><ele>330.59999999999997</ele><time>2026-05-03T11:39:32.151Z</time></trkpt><trkpt lat="44.3320647" lon="8.3828385"><ele>328.2</ele><time>2026-05-03T11:39:33.152Z</time></trkpt><trkpt lat="44.3320402" lon="8.3829568"><ele>325.8</ele><time>2026-05-03T11:39:34.152Z</time></trkpt><trkpt lat="44.3320011" lon="8.3830778"><ele>323.4</ele><time>2026-05-03T11:39:35.153Z</time></trkpt><trkpt lat="44.3319635" lon="8.3832051"><ele>321.0</ele><time>2026-05-03T11:39:36.152Z</time></trkpt><trkpt lat="44.3319267" lon="8.383334"><ele>321.0</ele><time>2026-05-03T11:39:37.152Z</time></trkpt><trkpt lat="44.3318954" lon="8.383477"><ele>321.0</ele><time>2026-05-03T11:39:38.152Z</time></trkpt><trkpt lat="44.3318874" lon="8.3836288"><ele>321.0</ele><time>2026-05-03T11:39:39.151Z</time></trkpt><trkpt lat="44.331926" lon="8.3838204"><ele>321.0</ele><time>2026-05-03T11:39:40.151Z</time></trkpt><trkpt lat="44.3319505" lon="8.3839903"><ele>321.0</ele><time>2026-05-03T11:39:41.152Z</time></trkpt><trkpt lat="44.3319862" lon="8.3841517"><ele>321.0</ele><time>2026-05-03T11:39:42.152Z</time></trkpt><trkpt lat="44.3320211" lon="8.3843084"><ele>321.0</ele><time>2026-05-03T11:39:43.151Z</time></trkpt><trkpt lat="44.3320577" lon="8.3844639"><ele>321.0</ele><time>2026-05-03T11:39:44.151Z</time></trkpt><trkpt lat="44.3320905" lon="8.3846173"><ele>320.5</ele><time>2026-05-03T11:39:45.152Z</time></trkpt><trkpt lat="44.3321469" lon="8.3847838"><ele>320.0</ele><time>2026-05-03T11:39:46.152Z</time></trkpt><trkpt lat="44.3322204" lon="8.3849533"><ele>319.5</ele><time>2026-05-03T11:39:47.152Z</time></trkpt><trkpt lat="44.3322915" lon="8.385124"><ele>319.0</ele><time>2026-05-03T11:39:48.153Z</time></trkpt><trkpt lat="44.3323579" lon="8.3852931"><ele>319.5</ele><time>2026-05-03T11:39:49.152Z</time></trkpt><trkpt lat="44.3324094" lon="8.3854759"><ele>320.0</ele><time>2026-05-03T11:39:50.152Z</time></trkpt><trkpt lat="44.3324447" lon="8.3856725"><ele>320.5</ele><time>2026-05-03T11:39:51.152Z</time></trkpt><trkpt lat="44.3324573" lon="8.3858882"><ele>321.0</ele><time>2026-05-03T11:39:52.151Z</time></trkpt><trkpt lat="44.3324627" lon="8.3861231"><ele>320.0</ele><time>2026-05-03T11:39:53.152Z</time></trkpt><trkpt lat="44.3324622" lon="8.3863595"><ele>319.0</ele><time>2026-05-03T11:39:54.152Z</time></trkpt><trkpt lat="44.3324621" lon="8.3865928"><ele>318.0</ele><time>2026-05-03T11:39:55.152Z</time></trkpt><trkpt lat="44.3324541" lon="8.3868217"><ele>318.0</ele><time>2026-05-03T11:39:56.152Z</time></trkpt><trkpt lat="44.3324401" lon="8.3870517"><ele>318.0</ele><time>2026-05-03T11:39:57.153Z</time></trkpt><trkpt lat="44.3324262" lon="8.3872786"><ele>318.0</ele><time>2026-05-03T11:39:58.152Z</time></trkpt><trkpt lat="44.33241" lon="8.3875021"><ele>317.3333333333333</ele><time>2026-05-03T11:39:59.153Z</time></trkpt><trkpt lat="44.3323862" lon="8.3877156"><ele>316.66666666666663</ele><time>2026-05-03T11:40:00.153Z</time></trkpt><trkpt lat="44.332362" lon="8.3879294"><ele>316.0</ele><time>2026-05-03T11:40:01.153Z</time></trkpt><trkpt lat="44.3323411" lon="8.3881359"><ele>314.66666666666663</ele><time>2026-05-03T11:40:02.153Z</time></trkpt><trkpt lat="44.332323" lon="8.3883435"><ele>313.3333333333333</ele><time>2026-05-03T11:40:03.153Z</time></trkpt><trkpt lat="44.3323019" lon="8.3885556"><ele>312.0</ele><time>2026-05-03T11:40:04.153Z</time></trkpt><trkpt lat="44.3322802" lon="8.3887724"><ele>309.6666666666667</ele><time>2026-05-03T11:40:05.152Z</time></trkpt><trkpt lat="44.3322582" lon="8.3889992"><ele>307.33333333333337</ele><time>2026-05-03T11:40:06.153Z</time></trkpt><trkpt lat="44.3322316" lon="8.389221"><ele>305.0</ele><time>2026-05-03T11:40:07.153Z</time></trkpt><trkpt lat="44.3322044" lon="8.3894408"><ele>301.6666666666667</ele><time>2026-05-03T11:40:08.152Z</time></trkpt><trkpt lat="44.3321691" lon="8.3896679"><ele>298.3333333333333</ele><time>2026-05-03T11:40:09.152Z</time></trkpt><trkpt lat="44.3321254" lon="8.3899023"><ele>295.0</ele><time>2026-05-03T11:40:10.153Z</time></trkpt><trkpt lat="44.3320805" lon="8.3901364"><ele>293.66666666666663</ele><time>2026-05-03T11:40:11.153Z</time></trkpt><trkpt lat="44.332031" lon="8.390365"><ele>292.3333333333333</ele><time>2026-05-03T11:40:12.153Z</time></trkpt><trkpt lat="44.3319845" lon="8.3905896"><ele>291.0</ele><time>2026-05-03T11:40:13.153Z</time></trkpt><trkpt lat="44.3319397" lon="8.3908145"><ele>289.6666666666667</ele><time>2026-05-03T11:40:14.152Z</time></trkpt><trkpt lat="44.3318926" lon="8.3910353"><ele>288.33333333333337</ele><time>2026-05-03T11:40:15.152Z</time></trkpt><trkpt lat="44.3318471" lon="8.3912574"><ele>287.0</ele><time>2026-05-03T11:40:16.153Z</time></trkpt><trkpt lat="44.3318025" lon="8.3914808"><ele>286.6666666666667</ele><time>2026-05-03T11:40:17.153Z</time></trkpt><trkpt lat="44.3317579" lon="8.3917074"><ele>286.3333333333333</ele><time>2026-05-03T11:40:18.153Z</time></trkpt><trkpt lat="44.3317146" lon="8.3919344"><ele>286.0</ele><time>2026-05-03T11:40:19.153Z</time></trkpt><trkpt lat="44.3316688" lon="8.3921582"><ele>284.66666666666663</ele><time>2026-05-03T11:40:20.153Z</time></trkpt><trkpt lat="44.3316315" lon="8.3923924"><ele>283.3333333333333</ele><time>2026-05-03T11:40:21.153Z</time></trkpt><trkpt lat="44.3315852" lon="8.3926085"><ele>282.0</ele><time>2026-05-03T11:40:22.153Z</time></trkpt><trkpt lat="44.3315466" lon="8.3928272"><ele>282.0</ele><time>2026-05-03T11:40:23.153Z</time></trkpt><trkpt lat="44.3315047" lon="8.3930249"><ele>282.0</ele><time>2026-05-03T11:40:24.153Z</time></trkpt><trkpt lat="44.3314582" lon="8.3932075"><ele>282.0</ele><time>2026-05-03T11:40:25.152Z</time></trkpt><trkpt lat="44.3314269" lon="8.393382"><ele>282.0</ele><time>2026-05-03T11:40:26.152Z</time></trkpt><trkpt lat="44.3314013" lon="8.3935388"><ele>282.0</ele><time>2026-05-03T11:40:27.153Z</time></trkpt><trkpt lat="44.3313802" lon="8.3936767"><ele>282.0</ele><time>2026-05-03T11:40:28.152Z</time></trkpt><trkpt lat="44.3313594" lon="8.3938058"><ele>282.0</ele><time>2026-05-03T11:40:29.153Z</time></trkpt><trkpt lat="44.3313323" lon="8.3939438"><ele>282.0</ele><time>2026-05-03T11:40:30.152Z</time></trkpt><trkpt lat="44.3313023" lon="8.3940869"><ele>282.0</ele><time>2026-05-03T11:40:31.152Z</time></trkpt><trkpt lat="44.3312578" lon="8.3942318"><ele>282.0</ele><time>2026-05-03T11:40:32.153Z</time></trkpt><trkpt lat="44.3312076" lon="8.3943758"><ele>282.0</ele><time>2026-05-03T11:40:33.153Z</time></trkpt><trkpt lat="44.3311503" lon="8.3945101"><ele>282.0</ele><time>2026-05-03T11:40:34.153Z</time></trkpt><trkpt lat="44.3310705" lon="8.3946564"><ele>282.0</ele><time>2026-05-03T11:40:35.153Z</time></trkpt><trkpt lat="44.3309885" lon="8.3947955"><ele>281.3333333333333</ele><time>2026-05-03T11:40:36.153Z</time></trkpt><trkpt lat="44.3309218" lon="8.3949138"><ele>280.6666666666667</ele><time>2026-05-03T11:40:37.153Z</time></trkpt><trkpt lat="44.3308703" lon="8.3950213"><ele>280.0</ele><time>2026-05-03T11:40:38.153Z</time></trkpt><trkpt lat="44.3308241" lon="8.395132"><ele>279.33333333333337</ele><time>2026-05-03T11:40:39.153Z</time></trkpt><trkpt lat="44.3307946" lon="8.3952133"><ele>278.6666666666667</ele><time>2026-05-03T11:40:40.153Z</time></trkpt><trkpt lat="44.3307682" lon="8.395299"><ele>278.0</ele><time>2026-05-03T11:40:41.153Z</time></trkpt><trkpt lat="44.3307493" lon="8.3953908"><ele>278.0</ele><time>2026-05-03T11:40:42.153Z</time></trkpt><trkpt lat="44.3307369" lon="8.3954927"><ele>278.0</ele><time>2026-05-03T11:40:43.153Z</time></trkpt><trkpt lat="44.3307358" lon="8.3956215"><ele>278.0</ele><time>2026-05-03T11:40:44.153Z</time></trkpt><trkpt lat="44.3307601" lon="8.3957443"><ele>278.0</ele><time>2026-05-03T11:40:45.153Z</time></trkpt><trkpt lat="44.330788" lon="8.3958501"><ele>278.0</ele><time>2026-05-03T11:40:46.153Z</time></trkpt><trkpt lat="44.3308129" lon="8.3959431"><ele>278.0</ele><time>2026-05-03T11:40:47.153Z</time></trkpt><trkpt lat="44.3308459" lon="8.3960209"><ele>277.1666666666667</ele><time>2026-05-03T11:40:48.152Z</time></trkpt><trkpt lat="44.3308744" lon="8.3961269"><ele>276.33333333333337</ele><time>2026-05-03T11:40:49.153Z</time></trkpt><trkpt lat="44.330935" lon="8.3962236"><ele>275.5</ele><time>2026-05-03T11:40:50.153Z</time></trkpt><trkpt lat="44.3310082" lon="8.3963012"><ele>274.6666666666667</ele><time>2026-05-03T11:40:51.152Z</time></trkpt><trkpt lat="44.3310883" lon="8.3963528"><ele>273.8333333333333</ele><time>2026-05-03T11:40:52.153Z</time></trkpt><trkpt lat="44.3311821" lon="8.3963824"><ele>273.0</ele><time>2026-05-03T11:40:53.153Z</time></trkpt><trkpt lat="44.331276" lon="8.3964172"><ele>272.8</ele><time>2026-05-03T11:40:54.152Z</time></trkpt><trkpt lat="44.3313452" lon="8.3965037"><ele>272.6</ele><time>2026-05-03T11:40:55.153Z</time></trkpt><trkpt lat="44.3313955" lon="8.3966146"><ele>272.4</ele><time>2026-05-03T11:40:56.153Z</time></trkpt><trkpt lat="44.3314436" lon="8.3967471"><ele>272.2</ele><time>2026-05-03T11:40:57.153Z</time></trkpt><trkpt lat="44.3314912" lon="8.3968926"><ele>272.0</ele><time>2026-05-03T11:40:58.153Z</time></trkpt><trkpt lat="44.3315074" lon="8.3970313"><ele>272.0</ele><time>2026-05-03T11:40:59.153Z</time></trkpt><trkpt lat="44.3315042" lon="8.3971653"><ele>272.0</ele><time>2026-05-03T11:41:00.153Z</time></trkpt><trkpt lat="44.3314757" lon="8.3973357"><ele>272.0</ele><time>2026-05-03T11:41:01.153Z</time></trkpt><trkpt lat="44.3314119" lon="8.3975077"><ele>272.0</ele><time>2026-05-03T11:41:02.154Z</time></trkpt><trkpt lat="44.3313502" lon="8.3976691"><ele>270.5</ele><time>2026-05-03T11:41:03.153Z</time></trkpt><trkpt lat="44.3312775" lon="8.397811"><ele>269.0</ele><time>2026-05-03T11:41:04.154Z</time></trkpt><trkpt lat="44.3311816" lon="8.3979237"><ele>267.5</ele><time>2026-05-03T11:41:05.153Z</time></trkpt><trkpt lat="44.3310678" lon="8.3980031"><ele>266.0</ele><time>2026-05-03T11:41:06.154Z</time></trkpt><trkpt lat="44.3309733" lon="8.3980603"><ele>264.8</ele><time>2026-05-03T11:41:07.154Z</time></trkpt><trkpt lat="44.3309078" lon="8.3980961"><ele>263.6</ele><time>2026-05-03T11:41:08.154Z</time></trkpt><trkpt lat="44.3308474" lon="8.3981729"><ele>262.4</ele><time>2026-05-03T11:41:09.154Z</time></trkpt><trkpt lat="44.3308" lon="8.3982743"><ele>261.2</ele><time>2026-05-03T11:41:10.154Z</time></trkpt><trkpt lat="44.3307634" lon="8.3984155"><ele>260.0</ele><time>2026-05-03T11:41:11.154Z</time></trkpt><trkpt lat="44.3307352" lon="8.3985747"><ele>260.0</ele><time>2026-05-03T11:41:12.153Z</time></trkpt><trkpt lat="44.3307176" lon="8.3987426"><ele>260.0</ele><time>2026-05-03T11:41:13.154Z</time></trkpt><trkpt lat="44.3307089" lon="8.3989163"><ele>260.0</ele><time>2026-05-03T11:41:14.153Z</time></trkpt><trkpt lat="44.3307052" lon="8.3990951"><ele>260.0</ele><time>2026-05-03T11:41:15.153Z</time></trkpt><trkpt lat="44.3307056" lon="8.3992649"><ele>259.2</ele><time>2026-05-03T11:41:16.153Z</time></trkpt><trkpt lat="44.3307117" lon="8.3994307"><ele>258.4</ele><time>2026-05-03T11:41:17.154Z</time></trkpt><trkpt lat="44.3307262" lon="8.3995896"><ele>257.6</ele><time>2026-05-03T11:41:18.153Z</time></trkpt><trkpt lat="44.3307347" lon="8.3997395"><ele>256.8</ele><time>2026-05-03T11:41:19.153Z</time></trkpt><trkpt lat="44.3307482" lon="8.399889"><ele>256.0</ele><time>2026-05-03T11:41:20.154Z</time></trkpt><trkpt lat="44.3307866" lon="8.4000479"><ele>256.25</ele><time>2026-05-03T11:41:21.154Z</time></trkpt><trkpt lat="44.3308381" lon="8.4002049"><ele>256.5</ele><time>2026-05-03T11:41:22.153Z</time></trkpt><trkpt lat="44.3309208" lon="8.4003652"><ele>256.75</ele><time>2026-05-03T11:41:23.154Z</time></trkpt><trkpt lat="44.3310219" lon="8.4005135"><ele>257.0</ele><time>2026-05-03T11:41:24.154Z</time></trkpt><trkpt lat="44.3311304" lon="8.4006716"><ele>257.0</ele><time>2026-05-03T11:41:25.154Z</time></trkpt><trkpt lat="44.3312336" lon="8.4008321"><ele>257.0</ele><time>2026-05-03T11:41:26.154Z</time></trkpt><trkpt lat="44.3313465" lon="8.4010034"><ele>257.0</ele><time>2026-05-03T11:41:27.154Z</time></trkpt><trkpt lat="44.3314533" lon="8.4011693"><ele>256.5</ele><time>2026-05-03T11:41:28.154Z</time></trkpt><trkpt lat="44.3315471" lon="8.4013081"><ele>256.0</ele><time>2026-05-03T11:41:29.154Z</time></trkpt><trkpt lat="44.3316324" lon="8.4014454"><ele>255.5</ele><time>2026-05-03T11:41:30.154Z</time></trkpt><trkpt lat="44.3317119" lon="8.4015608"><ele>255.0</ele><time>2026-05-03T11:41:31.153Z</time></trkpt><trkpt lat="44.3317829" lon="8.4016662"><ele>252.4</ele><time>2026-05-03T11:41:32.153Z</time></trkpt><trkpt lat="44.3318433" lon="8.4017663"><ele>249.8</ele><time>2026-05-03T11:41:33.153Z</time></trkpt><trkpt lat="44.3319036" lon="8.4018864"><ele>247.2</ele><time>2026-05-03T11:41:34.153Z</time></trkpt><trkpt lat="44.3319523" lon="8.4020258"><ele>244.6</ele><time>2026-05-03T11:41:35.154Z</time></trkpt><trkpt lat="44.3319813" lon="8.4021849"><ele>242.0</ele><time>2026-05-03T11:41:36.153Z</time></trkpt><trkpt lat="44.3319915" lon="8.4023608"><ele>241.5</ele><time>2026-05-03T11:41:37.153Z</time></trkpt><trkpt lat="44.3319759" lon="8.4025298"><ele>241.0</ele><time>2026-05-03T11:41:38.153Z</time></trkpt><trkpt lat="44.331952" lon="8.4027134"><ele>240.5</ele><time>2026-05-03T11:41:39.153Z</time></trkpt><trkpt lat="44.3319193" lon="8.4028955"><ele>240.0</ele><time>2026-05-03T11:41:40.154Z</time></trkpt><trkpt lat="44.3318695" lon="8.4030902"><ele>238.0</ele><time>2026-05-03T11:41:41.154Z</time></trkpt><trkpt lat="44.3318057" lon="8.4032886"><ele>236.0</ele><time>2026-05-03T11:41:42.154Z</time></trkpt><trkpt lat="44.3317072" lon="8.4034958"><ele>234.0</ele><time>2026-05-03T11:41:43.154Z</time></trkpt><trkpt lat="44.3315916" lon="8.4037046"><ele>235.0</ele><time>2026-05-03T11:41:44.154Z</time></trkpt><trkpt lat="44.3314865" lon="8.4038915"><ele>236.0</ele><time>2026-05-03T11:41:45.153Z</time></trkpt><trkpt lat="44.3313839" lon="8.4040689"><ele>237.0</ele><time>2026-05-03T11:41:46.154Z</time></trkpt><trkpt lat="44.3312855" lon="8.4042427"><ele>237.66666666666669</ele><time>2026-05-03T11:41:47.154Z</time></trkpt><trkpt lat="44.3311569" lon="8.4044452"><ele>238.33333333333334</ele><time>2026-05-03T11:41:48.154Z</time></trkpt><trkpt lat="44.3310418" lon="8.4046598"><ele>239.0</ele><time>2026-05-03T11:41:49.154Z</time></trkpt><trkpt lat="44.3309283" lon="8.4048755"><ele>238.0</ele><time>2026-05-03T11:41:50.153Z</time></trkpt><trkpt lat="44.3308178" lon="8.4051109"><ele>237.0</ele><time>2026-05-03T11:41:51.154Z</time></trkpt><trkpt lat="44.3307074" lon="8.4053518"><ele>236.0</ele><time>2026-05-03T11:41:52.153Z</time></trkpt><trkpt lat="44.3306095" lon="8.405576"><ele>236.66666666666669</ele><time>2026-05-03T11:41:53.154Z</time></trkpt><trkpt lat="44.330509" lon="8.4057982"><ele>237.33333333333331</ele><time>2026-05-03T11:41:54.154Z</time></trkpt><trkpt lat="44.3304128" lon="8.4060044"><ele>238.0</ele><time>2026-05-03T11:41:55.153Z</time></trkpt><trkpt lat="44.3303303" lon="8.4061933"><ele>235.60000000000002</ele><time>2026-05-03T11:41:56.153Z</time></trkpt><trkpt lat="44.3302599" lon="8.4063564"><ele>233.20000000000002</ele><time>2026-05-03T11:41:57.153Z</time></trkpt><trkpt lat="44.3302092" lon="8.4064778"><ele>230.8</ele><time>2026-05-03T11:41:58.153Z</time></trkpt><trkpt lat="44.3301703" lon="8.4065729"><ele>228.4</ele><time>2026-05-03T11:41:59.154Z</time></trkpt><trkpt lat="44.3301211" lon="8.4066606"><ele>226.0</ele><time>2026-05-03T11:42:00.153Z</time></trkpt><trkpt lat="44.3300411" lon="8.4067239"><ele>226.0</ele><time>2026-05-03T11:42:01.154Z</time></trkpt><trkpt lat="44.3299492" lon="8.4067524"><ele>226.0</ele><time>2026-05-03T11:42:02.155Z</time></trkpt><trkpt lat="44.3298354" lon="8.4067269"><ele>226.0</ele><time>2026-05-03T11:42:03.154Z</time></trkpt><trkpt lat="44.329708" lon="8.4066692"><ele>226.0</ele><time>2026-05-03T11:42:04.154Z</time></trkpt><trkpt lat="44.3295782" lon="8.4066186"><ele>227.60000000000002</ele><time>2026-05-03T11:42:05.155Z</time></trkpt><trkpt lat="44.3294591" lon="8.4065912"><ele>229.20000000000002</ele><time>2026-05-03T11:42:06.155Z</time></trkpt><trkpt lat="44.3293604" lon="8.4066192"><ele>230.79999999999998</ele><time>2026-05-03T11:42:07.155Z</time></trkpt><trkpt lat="44.3292783" lon="8.4067"><ele>232.39999999999998</ele><time>2026-05-03T11:42:08.155Z</time></trkpt><trkpt lat="44.329222" lon="8.4068152"><ele>234.0</ele><time>2026-05-03T11:42:09.154Z</time></trkpt><trkpt lat="44.3291704" lon="8.4069625"><ele>234.0</ele><time>2026-05-03T11:42:10.155Z</time></trkpt><trkpt lat="44.3291639" lon="8.4071487"><ele>234.0</ele><time>2026-05-03T11:42:11.154Z</time></trkpt><trkpt lat="44.3291373" lon="8.4073456"><ele>234.0</ele><time>2026-05-03T11:42:12.154Z</time></trkpt><trkpt lat="44.3291107" lon="8.4075054"><ele>234.0</ele><time>2026-05-03T11:42:13.155Z</time></trkpt><trkpt lat="44.3290248" lon="8.4076522"><ele>233.75</ele><time>2026-05-03T11:42:14.154Z</time></trkpt><trkpt lat="44.3289209" lon="8.4077793"><ele>233.5</ele><time>2026-05-03T11:42:15.154Z</time></trkpt><trkpt lat="44.3288096" lon="8.407891"><ele>233.25</ele><time>2026-05-03T11:42:16.155Z</time></trkpt><trkpt lat="44.328692" lon="8.4079694"><ele>233.0</ele><time>2026-05-03T11:42:17.155Z</time></trkpt><trkpt lat="44.328589" lon="8.4080551"><ele>229.0</ele><time>2026-05-03T11:42:18.155Z</time></trkpt><trkpt lat="44.3285045" lon="8.4081629"><ele>225.0</ele><time>2026-05-03T11:42:19.154Z</time></trkpt><trkpt lat="44.3284424" lon="8.4083042"><ele>221.0</ele><time>2026-05-03T11:42:20.155Z</time></trkpt><trkpt lat="44.3284198" lon="8.4084929"><ele>217.0</ele><time>2026-05-03T11:42:21.154Z</time></trkpt><trkpt lat="44.3284525" lon="8.4087181"><ele>216.5</ele><time>2026-05-03T11:42:22.155Z</time></trkpt><trkpt lat="44.328484" lon="8.4089253"><ele>216.0</ele><time>2026-05-03T11:42:23.155Z</time></trkpt><trkpt lat="44.3284944" lon="8.4091112"><ele>215.5</ele><time>2026-05-03T11:42:24.154Z</time></trkpt><trkpt lat="44.328496" lon="8.4092805"><ele>215.0</ele><time>2026-05-03T11:42:25.154Z</time></trkpt><trkpt lat="44.3284785" lon="8.4094519"><ele>215.0</ele><time>2026-05-03T11:42:26.154Z</time></trkpt><trkpt lat="44.3284336" lon="8.4096113"><ele>215.0</ele><time>2026-05-03T11:42:27.155Z</time></trkpt><trkpt lat="44.3283963" lon="8.4097683"><ele>215.0</ele><time>2026-05-03T11:42:28.154Z</time></trkpt><trkpt lat="44.3283716" lon="8.4099043"><ele>215.0</ele><time>2026-05-03T11:42:29.155Z</time></trkpt><trkpt lat="44.3283859" lon="8.4100425"><ele>215.0</ele><time>2026-05-03T11:42:30.154Z</time></trkpt><trkpt lat="44.3284318" lon="8.4101767"><ele>214.0</ele><time>2026-05-03T11:42:31.155Z</time></trkpt><trkpt lat="44.3284949" lon="8.4103098"><ele>213.0</ele><time>2026-05-03T11:42:32.155Z</time></trkpt><trkpt lat="44.3285733" lon="8.4104487"><ele>212.0</ele><time>2026-05-03T11:42:33.155Z</time></trkpt><trkpt lat="44.3286559" lon="8.4105831"><ele>211.0</ele><time>2026-05-03T11:42:34.154Z</time></trkpt><trkpt lat="44.3287371" lon="8.4107232"><ele>209.20000000000002</ele><time>2026-05-03T11:42:35.155Z</time></trkpt><trkpt lat="44.3288201" lon="8.4108547"><ele>207.4</ele><time>2026-05-03T11:42:36.154Z</time></trkpt><trkpt lat="44.3288976" lon="8.4109758"><ele>205.6</ele><time>2026-05-03T11:42:37.155Z</time></trkpt><trkpt lat="44.3289492" lon="8.4111045"><ele>203.8</ele><time>2026-05-03T11:42:38.155Z</time></trkpt><trkpt lat="44.3289597" lon="8.4112354"><ele>202.0</ele><time>2026-05-03T11:42:39.155Z</time></trkpt><trkpt lat="44.3288739" lon="8.411366"><ele>201.25</ele><time>2026-05-03T11:42:40.155Z</time></trkpt><trkpt lat="44.3287794" lon="8.41147"><ele>200.5</ele><time>2026-05-03T11:42:41.154Z</time></trkpt><trkpt lat="44.3286648" lon="8.4115404"><ele>199.75</ele><time>2026-05-03T11:42:42.155Z</time></trkpt><trkpt lat="44.3285441" lon="8.4115931"><ele>199.0</ele><time>2026-05-03T11:42:43.156Z</time></trkpt><trkpt lat="44.3284156" lon="8.4116386"><ele>199.0</ele><time>2026-05-03T11:42:44.155Z</time></trkpt><trkpt lat="44.3282677" lon="8.4116972"><ele>199.0</ele><time>2026-05-03T11:42:45.155Z</time></trkpt><trkpt lat="44.3281278" lon="8.41178"><ele>199.0</ele><time>2026-05-03T11:42:46.154Z</time></trkpt><trkpt lat="44.3279983" lon="8.4119009"><ele>198.0</ele><time>2026-05-03T11:42:47.154Z</time></trkpt><trkpt lat="44.327872" lon="8.4120414"><ele>197.0</ele><time>2026-05-03T11:42:48.155Z</time></trkpt><trkpt lat="44.3277575" lon="8.4121801"><ele>196.0</ele><time>2026-05-03T11:42:49.155Z</time></trkpt><trkpt lat="44.3276513" lon="8.4122992"><ele>195.0</ele><time>2026-05-03T11:42:50.154Z</time></trkpt><trkpt lat="44.3275534" lon="8.4123976"><ele>195.0</ele><time>2026-05-03T11:42:51.154Z</time></trkpt><trkpt lat="44.3274558" lon="8.4124836"><ele>195.0</ele><time>2026-05-03T11:42:52.155Z</time></trkpt><trkpt lat="44.3273437" lon="8.4125594"><ele>195.0</ele><time>2026-05-03T11:42:53.155Z</time></trkpt><trkpt lat="44.3272235" lon="8.4126052"><ele>195.0</ele><time>2026-05-03T11:42:54.155Z</time></trkpt><trkpt lat="44.3271023" lon="8.4126525"><ele>193.5</ele><time>2026-05-03T11:42:55.154Z</time></trkpt><trkpt lat="44.3269907" lon="8.4127261"><ele>192.0</ele><time>2026-05-03T11:42:56.154Z</time></trkpt><trkpt lat="44.3269071" lon="8.4128511"><ele>190.5</ele><time>2026-05-03T11:42:57.155Z</time></trkpt><trkpt lat="44.3268601" lon="8.4130237"><ele>189.0</ele><time>2026-05-03T11:42:58.155Z</time></trkpt><trkpt lat="44.3268219" lon="8.4132283"><ele>189.0</ele><time>2026-05-03T11:42:59.154Z</time></trkpt><trkpt lat="44.3267718" lon="8.4134078"><ele>189.0</ele><time>2026-05-03T11:43:00.155Z</time></trkpt><trkpt lat="44.3266868" lon="8.4135543"><ele>189.0</ele><time>2026-05-03T11:43:01.155Z</time></trkpt><trkpt lat="44.3265701" lon="8.4136605"><ele>189.0</ele><time>2026-05-03T11:43:02.155Z</time></trkpt><trkpt lat="44.3264554" lon="8.4137597"><ele>188.5</ele><time>2026-05-03T11:43:03.155Z</time></trkpt><trkpt lat="44.3263484" lon="8.413859"><ele>188.0</ele><time>2026-05-03T11:43:04.155Z</time></trkpt><trkpt lat="44.3262648" lon="8.4139797"><ele>187.5</ele><time>2026-05-03T11:43:05.155Z</time></trkpt><trkpt lat="44.3261962" lon="8.4141304"><ele>187.0</ele><time>2026-05-03T11:43:06.154Z</time></trkpt><trkpt lat="44.3261414" lon="8.4143069"><ele>187.0</ele><time>2026-05-03T11:43:07.156Z</time></trkpt><trkpt lat="44.3261098" lon="8.4145076"><ele>187.0</ele><time>2026-05-03T11:43:08.154Z</time></trkpt><trkpt lat="44.3260851" lon="8.4147099"><ele>187.0</ele><time>2026-05-03T11:43:09.155Z</time></trkpt><trkpt lat="44.326065" lon="8.4149228"><ele>187.0</ele><time>2026-05-03T11:43:10.156Z</time></trkpt><trkpt lat="44.3260393" lon="8.4151357"><ele>185.0</ele><time>2026-05-03T11:43:11.155Z</time></trkpt><trkpt lat="44.3260163" lon="8.415347"><ele>183.0</ele><time>2026-05-03T11:43:12.155Z</time></trkpt><trkpt lat="44.3259962" lon="8.4155712"><ele>181.0</ele><time>2026-05-03T11:43:13.155Z</time></trkpt><trkpt lat="44.3259635" lon="8.4157962"><ele>181.0</ele><time>2026-05-03T11:43:14.155Z</time></trkpt><trkpt lat="44.3259312" lon="8.4160226"><ele>181.0</ele><time>2026-05-03T11:43:15.155Z</time></trkpt><trkpt lat="44.3258977" lon="8.4162409"><ele>181.0</ele><time>2026-05-03T11:43:16.155Z</time></trkpt><trkpt lat="44.3258687" lon="8.416448"><ele>182.25</ele><time>2026-05-03T11:43:17.156Z</time></trkpt><trkpt lat="44.3258389" lon="8.4166478"><ele>183.5</ele><time>2026-05-03T11:43:18.156Z</time></trkpt><trkpt lat="44.3258112" lon="8.4168255"><ele>184.75</ele><time>2026-05-03T11:43:19.155Z</time></trkpt><trkpt lat="44.3257829" lon="8.4169965"><ele>186.0</ele><time>2026-05-03T11:43:20.155Z</time></trkpt><trkpt lat="44.3257524" lon="8.4171573"><ele>183.5</ele><time>2026-05-03T11:43:21.156Z</time></trkpt><trkpt lat="44.3256928" lon="8.4172973"><ele>181.0</ele><time>2026-05-03T11:43:22.156Z</time></trkpt><trkpt lat="44.3256037" lon="8.4174087"><ele>178.5</ele><time>2026-05-03T11:43:23.155Z</time></trkpt><trkpt lat="44.3254819" lon="8.4174862"><ele>176.0</ele><time>2026-05-03T11:43:24.156Z</time></trkpt><trkpt lat="44.3253601" lon="8.417538"><ele>176.0</ele><time>2026-05-03T11:43:25.155Z</time></trkpt><trkpt lat="44.3252522" lon="8.4175806"><ele>176.0</ele><time>2026-05-03T11:43:26.155Z</time></trkpt><trkpt lat="44.325166" lon="8.4176361"><ele>176.0</ele><time>2026-05-03T11:43:27.156Z</time></trkpt><trkpt lat="44.3251058" lon="8.4177128"><ele>176.0</ele><time>2026-05-03T11:43:28.156Z</time></trkpt><trkpt lat="44.325062" lon="8.4178033"><ele>176.0</ele><time>2026-05-03T11:43:29.156Z</time></trkpt><trkpt lat="44.3250144" lon="8.4179359"><ele>175.0</ele><time>2026-05-03T11:43:30.155Z</time></trkpt><trkpt lat="44.3249903" lon="8.4181335"><ele>174.0</ele><time>2026-05-03T11:43:31.156Z</time></trkpt><trkpt lat="44.3250556" lon="8.4183616"><ele>173.0</ele><time>2026-05-03T11:43:32.155Z</time></trkpt><trkpt lat="44.3251032" lon="8.4185773"><ele>173.0</ele><time>2026-05-03T11:43:33.156Z</time></trkpt><trkpt lat="44.3251601" lon="8.4187599"><ele>173.0</ele><time>2026-05-03T11:43:34.155Z</time></trkpt><trkpt lat="44.3252374" lon="8.4189303"><ele>173.0</ele><time>2026-05-03T11:43:35.155Z</time></trkpt><trkpt lat="44.3253235" lon="8.4190727"><ele>173.0</ele><time>2026-05-03T11:43:36.156Z</time></trkpt><trkpt lat="44.3254136" lon="8.419204"><ele>171.25</ele><time>2026-05-03T11:43:37.155Z</time></trkpt><trkpt lat="44.3255011" lon="8.4193464"><ele>169.5</ele><time>2026-05-03T11:43:38.155Z</time></trkpt><trkpt lat="44.3255721" lon="8.4195095"><ele>167.75</ele><time>2026-05-03T11:43:39.155Z</time></trkpt><trkpt lat="44.3255982" lon="8.4197283"><ele>166.0</ele><time>2026-05-03T11:43:40.156Z</time></trkpt><trkpt lat="44.3256095" lon="8.4199791"><ele>171.66666666666669</ele><time>2026-05-03T11:43:41.155Z</time></trkpt><trkpt lat="44.3256193" lon="8.4202363"><ele>177.33333333333334</ele><time>2026-05-03T11:43:42.156Z</time></trkpt><trkpt lat="44.3256099" lon="8.4204578"><ele>183.0</ele><time>2026-05-03T11:43:43.155Z</time></trkpt><trkpt lat="44.3255794" lon="8.4206531"><ele>179.75</ele><time>2026-05-03T11:43:44.156Z</time></trkpt><trkpt lat="44.3255321" lon="8.4208246"><ele>176.5</ele><time>2026-05-03T11:43:45.155Z</time></trkpt><trkpt lat="44.3254751" lon="8.4209965"><ele>173.25</ele><time>2026-05-03T11:43:46.155Z</time></trkpt><trkpt lat="44.3254184" lon="8.4211788"><ele>170.0</ele><time>2026-05-03T11:43:47.156Z</time></trkpt><trkpt lat="44.3253648" lon="8.4213761"><ele>168.33333333333331</ele><time>2026-05-03T11:43:48.156Z</time></trkpt><trkpt lat="44.3253112" lon="8.4215827"><ele>166.66666666666666</ele><time>2026-05-03T11:43:49.155Z</time></trkpt><trkpt lat="44.3252597" lon="8.4217854"><ele>165.0</ele><time>2026-05-03T11:43:50.155Z</time></trkpt><trkpt lat="44.3252182" lon="8.4219775"><ele>164.25</ele><time>2026-05-03T11:43:51.156Z</time></trkpt><trkpt lat="44.325168" lon="8.422156"><ele>163.5</ele><time>2026-05-03T11:43:52.156Z</time></trkpt><trkpt lat="44.3251002" lon="8.4223371"><ele>162.75</ele><time>2026-05-03T11:43:53.156Z</time></trkpt><trkpt lat="44.3250264" lon="8.422522"><ele>162.0</ele><time>2026-05-03T11:43:54.156Z</time></trkpt><trkpt lat="44.3249466" lon="8.4227059"><ele>162.0</ele><time>2026-05-03T11:43:55.155Z</time></trkpt><trkpt lat="44.3248607" lon="8.4228998"><ele>162.0</ele><time>2026-05-03T11:43:56.155Z</time></trkpt><trkpt lat="44.3247754" lon="8.4230986"><ele>162.0</ele><time>2026-05-03T11:43:57.156Z</time></trkpt><trkpt lat="44.3246721" lon="8.4233054"><ele>161.0</ele><time>2026-05-03T11:43:58.156Z</time></trkpt><trkpt lat="44.3245872" lon="8.4235"><ele>160.0</ele><time>2026-05-03T11:43:59.156Z</time></trkpt><trkpt lat="44.3245082" lon="8.4236955"><ele>159.0</ele><time>2026-05-03T11:44:00.156Z</time></trkpt><trkpt lat="44.3244388" lon="8.4239021"><ele>159.0</ele><time>2026-05-03T11:44:01.156Z</time></trkpt><trkpt lat="44.3243818" lon="8.4241291"><ele>159.0</ele><time>2026-05-03T11:44:02.156Z</time></trkpt><trkpt lat="44.3243413" lon="8.4244032"><ele>159.0</ele><time>2026-05-03T11:44:03.155Z</time></trkpt><trkpt lat="44.3243291" lon="8.4246731"><ele>159.0</ele><time>2026-05-03T11:44:04.156Z</time></trkpt><trkpt lat="44.3243258" lon="8.4249214"><ele>159.0</ele><time>2026-05-03T11:44:05.156Z</time></trkpt><trkpt lat="44.32432" lon="8.4251335"><ele>159.0</ele><time>2026-05-03T11:44:06.155Z</time></trkpt><trkpt lat="44.3243174" lon="8.4253282"><ele>158.66666666666666</ele><time>2026-05-03T11:44:07.156Z</time></trkpt><trkpt lat="44.3243077" lon="8.4255413"><ele>158.33333333333331</ele><time>2026-05-03T11:44:08.156Z</time></trkpt><trkpt lat="44.3242613" lon="8.4257681"><ele>158.0</ele><time>2026-05-03T11:44:09.156Z</time></trkpt><trkpt lat="44.324183" lon="8.4259704"><ele>158.0</ele><time>2026-05-03T11:44:10.156Z</time></trkpt><trkpt lat="44.324089" lon="8.4261484"><ele>158.0</ele><time>2026-05-03T11:44:11.156Z</time></trkpt><trkpt lat="44.3239749" lon="8.4262974"><ele>158.0</ele><time>2026-05-03T11:44:12.155Z</time></trkpt><trkpt lat="44.3238654" lon="8.4264394"><ele>158.0</ele><time>2026-05-03T11:44:13.157Z</time></trkpt><trkpt lat="44.3237543" lon="8.42659"><ele>158.0</ele><time>2026-05-03T11:44:14.157Z</time></trkpt><trkpt lat="44.3236537" lon="8.4267379"><ele>158.0</ele><time>2026-05-03T11:44:15.157Z</time></trkpt><trkpt lat="44.323557" lon="8.4268878"><ele>158.0</ele><time>2026-05-03T11:44:16.156Z</time></trkpt><trkpt lat="44.3234624" lon="8.4270369"><ele>157.0</ele><time>2026-05-03T11:44:17.156Z</time></trkpt><trkpt lat="44.3233743" lon="8.4271806"><ele>156.0</ele><time>2026-05-03T11:44:18.157Z</time></trkpt><trkpt lat="44.3233128" lon="8.4273261"><ele>155.0</ele><time>2026-05-03T11:44:19.156Z</time></trkpt><trkpt lat="44.3232721" lon="8.4274851"><ele>154.0</ele><time>2026-05-03T11:44:20.157Z</time></trkpt><trkpt lat="44.32325" lon="8.4276971"><ele>154.0</ele><time>2026-05-03T11:44:21.156Z</time></trkpt><trkpt lat="44.323268" lon="8.427901"><ele>154.0</ele><time>2026-05-03T11:44:22.156Z</time></trkpt><trkpt lat="44.3233133" lon="8.4280983"><ele>154.0</ele><time>2026-05-03T11:44:23.156Z</time></trkpt><trkpt lat="44.3233798" lon="8.4282984"><ele>153.66666666666669</ele><time>2026-05-03T11:44:24.157Z</time></trkpt><trkpt lat="44.3234514" lon="8.4284966"><ele>153.33333333333334</ele><time>2026-05-03T11:44:25.157Z</time></trkpt><trkpt lat="44.3235605" lon="8.428682"><ele>153.0</ele><time>2026-05-03T11:44:26.157Z</time></trkpt><trkpt lat="44.3236991" lon="8.4288566"><ele>155.0</ele><time>2026-05-03T11:44:27.156Z</time></trkpt><trkpt lat="44.3238275" lon="8.4290104"><ele>157.0</ele><time>2026-05-03T11:44:28.157Z</time></trkpt><trkpt lat="44.3239509" lon="8.4291586"><ele>159.0</ele><time>2026-05-03T11:44:29.157Z</time></trkpt><trkpt lat="44.3240616" lon="8.4293012"><ele>158.5</ele><time>2026-05-03T11:44:30.157Z</time></trkpt><trkpt lat="44.32416" lon="8.4294245"><ele>158.0</ele><time>2026-05-03T11:44:31.157Z</time></trkpt><trkpt lat="44.3242663" lon="8.4295258"><ele>157.5</ele><time>2026-05-03T11:44:32.156Z</time></trkpt><trkpt lat="44.3243899" lon="8.4295924"><ele>157.0</ele><time>2026-05-03T11:44:33.157Z</time></trkpt><trkpt lat="44.3245411" lon="8.4296504"><ele>157.0</ele><time>2026-05-03T11:44:34.157Z</time></trkpt><trkpt lat="44.3246977" lon="8.4297142"><ele>157.0</ele><time>2026-05-03T11:44:35.156Z</time></trkpt><trkpt lat="44.3248491" lon="8.4297813"><ele>157.0</ele><time>2026-05-03T11:44:36.157Z</time></trkpt><trkpt lat="44.3250015" lon="8.4298589"><ele>153.5</ele><time>2026-05-03T11:44:37.157Z</time></trkpt><trkpt lat="44.3251499" lon="8.4299519"><ele>150.0</ele><time>2026-05-03T11:44:38.157Z</time></trkpt><trkpt lat="44.3252683" lon="8.4300677"><ele>146.5</ele><time>2026-05-03T11:44:39.157Z</time></trkpt><trkpt lat="44.3253631" lon="8.4302029"><ele>143.0</ele><time>2026-05-03T11:44:40.156Z</time></trkpt><trkpt lat="44.3254402" lon="8.4303609"><ele>143.0</ele><time>2026-05-03T11:44:41.156Z</time></trkpt><trkpt lat="44.3254896" lon="8.4305524"><ele>143.0</ele><time>2026-05-03T11:44:42.157Z</time></trkpt><trkpt lat="44.3254914" lon="8.430772"><ele>143.0</ele><time>2026-05-03T11:44:43.156Z</time></trkpt><trkpt lat="44.3254722" lon="8.4309853"><ele>143.0</ele><time>2026-05-03T11:44:44.157Z</time></trkpt><trkpt lat="44.3254376" lon="8.4311759"><ele>143.0</ele><time>2026-05-03T11:44:45.157Z</time></trkpt><trkpt lat="44.3254046" lon="8.4313635"><ele>143.0</ele><time>2026-05-03T11:44:46.157Z</time></trkpt><trkpt lat="44.3253651" lon="8.4315492"><ele>143.0</ele><time>2026-05-03T11:44:47.157Z</time></trkpt><trkpt lat="44.3253206" lon="8.4317331"><ele>143.25</ele><time>2026-05-03T11:44:48.157Z</time></trkpt><trkpt lat="44.3252764" lon="8.4319185"><ele>143.5</ele><time>2026-05-03T11:44:49.157Z</time></trkpt><trkpt lat="44.3252263" lon="8.4321"><ele>143.75</ele><time>2026-05-03T11:44:50.157Z</time></trkpt><trkpt lat="44.3251659" lon="8.4322737"><ele>144.0</ele><time>2026-05-03T11:44:51.156Z</time></trkpt><trkpt lat="44.3250873" lon="8.4324411"><ele>143.25</ele><time>2026-05-03T11:44:52.157Z</time></trkpt><trkpt lat="44.3249868" lon="8.4325879"><ele>142.5</ele><time>2026-05-03T11:44:53.157Z</time></trkpt><trkpt lat="44.324879" lon="8.4327205"><ele>141.75</ele><time>2026-05-03T11:44:54.157Z</time></trkpt><trkpt lat="44.3247715" lon="8.4328482"><ele>141.0</ele><time>2026-05-03T11:44:55.156Z</time></trkpt><trkpt lat="44.3246764" lon="8.4329721"><ele>142.25</ele><time>2026-05-03T11:44:56.157Z</time></trkpt><trkpt lat="44.3245867" lon="8.4331049"><ele>143.5</ele><time>2026-05-03T11:44:57.156Z</time></trkpt><trkpt lat="44.3245024" lon="8.4332373"><ele>144.75</ele><time>2026-05-03T11:44:58.157Z</time></trkpt><trkpt lat="44.3244186" lon="8.4333957"><ele>146.0</ele><time>2026-05-03T11:44:59.157Z</time></trkpt><trkpt lat="44.3243543" lon="8.4335641"><ele>146.0</ele><time>2026-05-03T11:45:00.156Z</time></trkpt><trkpt lat="44.3243149" lon="8.4337403"><ele>146.0</ele><time>2026-05-03T11:45:01.157Z</time></trkpt><trkpt lat="44.3243166" lon="8.4339341"><ele>146.0</ele><time>2026-05-03T11:45:02.156Z</time></trkpt><trkpt lat="44.324359" lon="8.434123"><ele>146.0</ele><time>2026-05-03T11:45:03.156Z</time></trkpt><trkpt lat="44.3244835" lon="8.4342905"><ele>146.33333333333331</ele><time>2026-05-03T11:45:04.156Z</time></trkpt><trkpt lat="44.3246174" lon="8.4344264"><ele>146.66666666666666</ele><time>2026-05-03T11:45:05.156Z</time></trkpt><trkpt lat="44.3247438" lon="8.434551"><ele>147.0</ele><time>2026-05-03T11:45:06.157Z</time></trkpt><trkpt lat="44.3248646" lon="8.4346692"><ele>144.75</ele><time>2026-05-03T11:45:07.156Z</time></trkpt><trkpt lat="44.3249823" lon="8.434796"><ele>142.5</ele><time>2026-05-03T11:45:08.156Z</time></trkpt><trkpt lat="44.325109" lon="8.4349239"><ele>140.25</ele><time>2026-05-03T11:45:09.156Z</time></trkpt><trkpt lat="44.3251979" lon="8.4350687"><ele>138.0</ele><time>2026-05-03T11:45:10.157Z</time></trkpt><trkpt lat="44.3252467" lon="8.4352478"><ele>138.0</ele><time>2026-05-03T11:45:11.156Z</time></trkpt><trkpt lat="44.3252559" lon="8.4354557"><ele>138.0</ele><time>2026-05-03T11:45:12.157Z</time></trkpt><trkpt lat="44.3252175" lon="8.4356601"><ele>138.0</ele><time>2026-05-03T11:45:13.156Z</time></trkpt><trkpt lat="44.3251714" lon="8.4358433"><ele>138.0</ele><time>2026-05-03T11:45:14.156Z</time></trkpt><trkpt lat="44.3251136" lon="8.4360065"><ele>137.0</ele><time>2026-05-03T11:45:15.157Z</time></trkpt><trkpt lat="44.3250447" lon="8.4361533"><ele>136.0</ele><time>2026-05-03T11:45:16.157Z</time></trkpt><trkpt lat="44.3249847" lon="8.4362997"><ele>135.0</ele><time>2026-05-03T11:45:17.157Z</time></trkpt><trkpt lat="44.3249372" lon="8.4364407"><ele>134.0</ele><time>2026-05-03T11:45:18.158Z</time></trkpt><trkpt lat="44.3249035" lon="8.4365788"><ele>134.0</ele><time>2026-05-03T11:45:19.158Z</time></trkpt><trkpt lat="44.324907" lon="8.436709"><ele>134.0</ele><time>2026-05-03T11:45:20.158Z</time></trkpt><trkpt lat="44.3249882" lon="8.4368593"><ele>134.0</ele><time>2026-05-03T11:45:21.158Z</time></trkpt><trkpt lat="44.3250856" lon="8.4369649"><ele>134.0</ele><time>2026-05-03T11:45:22.158Z</time></trkpt><trkpt lat="44.3252115" lon="8.4370426"><ele>135.5</ele><time>2026-05-03T11:45:23.158Z</time></trkpt><trkpt lat="44.3253259" lon="8.4371366"><ele>137.0</ele><time>2026-05-03T11:45:24.158Z</time></trkpt><trkpt lat="44.3254217" lon="8.4372652"><ele>138.5</ele><time>2026-05-03T11:45:25.158Z</time></trkpt><trkpt lat="44.3254937" lon="8.4374358"><ele>140.0</ele><time>2026-05-03T11:45:26.157Z</time></trkpt><trkpt lat="44.3255509" lon="8.437657"><ele>140.0</ele><time>2026-05-03T11:45:27.158Z</time></trkpt><trkpt lat="44.3255851" lon="8.4378773"><ele>140.0</ele><time>2026-05-03T11:45:28.158Z</time></trkpt><trkpt lat="44.3256164" lon="8.4380866"><ele>140.0</ele><time>2026-05-03T11:45:29.158Z</time></trkpt><trkpt lat="44.3256558" lon="8.4382912"><ele>140.0</ele><time>2026-05-03T11:45:30.157Z</time></trkpt><trkpt lat="44.3257018" lon="8.4384932"><ele>140.0</ele><time>2026-05-03T11:45:31.157Z</time></trkpt><trkpt lat="44.3257548" lon="8.4387053"><ele>140.0</ele><time>2026-05-03T11:45:32.158Z</time></trkpt><trkpt lat="44.325803" lon="8.4389258"><ele>139.33333333333331</ele><time>2026-05-03T11:45:33.157Z</time></trkpt><trkpt lat="44.3258506" lon="8.4391505"><ele>138.66666666666666</ele><time>2026-05-03T11:45:34.157Z</time></trkpt><trkpt lat="44.3258996" lon="8.4393742"><ele>138.0</ele><time>2026-05-03T11:45:35.158Z</time></trkpt><trkpt lat="44.3259466" lon="8.4395951"><ele>137.33333333333334</ele><time>2026-05-03T11:45:36.157Z</time></trkpt><trkpt lat="44.3259974" lon="8.4398153"><ele>136.66666666666669</ele><time>2026-05-03T11:45:37.157Z</time></trkpt><trkpt lat="44.3260506" lon="8.4400342"><ele>136.0</ele><time>2026-05-03T11:45:38.158Z</time></trkpt><trkpt lat="44.3261011" lon="8.4402568"><ele>137.66666666666669</ele><time>2026-05-03T11:45:39.157Z</time></trkpt><trkpt lat="44.3261657" lon="8.4404774"><ele>139.33333333333334</ele><time>2026-05-03T11:45:40.158Z</time></trkpt><trkpt lat="44.3262354" lon="8.4406855"><ele>141.0</ele><time>2026-05-03T11:45:41.157Z</time></trkpt><trkpt lat="44.3263098" lon="8.4408843"><ele>141.0</ele><time>2026-05-03T11:45:42.157Z</time></trkpt><trkpt lat="44.3263871" lon="8.4410823"><ele>141.0</ele><time>2026-05-03T11:45:43.158Z</time></trkpt><trkpt lat="44.3264633" lon="8.4412844"><ele>141.0</ele><time>2026-05-03T11:45:44.157Z</time></trkpt><trkpt lat="44.3265393" lon="8.4414843"><ele>137.0</ele><time>2026-05-03T11:45:45.157Z</time></trkpt><trkpt lat="44.3266026" lon="8.4416694"><ele>133.0</ele><time>2026-05-03T11:45:46.157Z</time></trkpt><trkpt lat="44.3266639" lon="8.441844"><ele>129.0</ele><time>2026-05-03T11:45:47.157Z</time></trkpt><trkpt lat="44.3267086" lon="8.4420306"><ele>125.0</ele><time>2026-05-03T11:45:48.157Z</time></trkpt><trkpt lat="44.3267103" lon="8.442221"><ele>125.0</ele><time>2026-05-03T11:45:49.158Z</time></trkpt><trkpt lat="44.326683" lon="8.44242"><ele>125.0</ele><time>2026-05-03T11:45:50.158Z</time></trkpt><trkpt lat="44.3266308" lon="8.442591"><ele>125.0</ele><time>2026-05-03T11:45:51.157Z</time></trkpt><trkpt lat="44.3265668" lon="8.4427342"><ele>125.0</ele><time>2026-05-03T11:45:52.158Z</time></trkpt><trkpt lat="44.3265162" lon="8.4428631"><ele>124.0</ele><time>2026-05-03T11:45:53.158Z</time></trkpt><trkpt lat="44.3264972" lon="8.4429757"><ele>123.0</ele><time>2026-05-03T11:45:54.158Z</time></trkpt><trkpt lat="44.326527" lon="8.4431039"><ele>122.0</ele><time>2026-05-03T11:45:55.158Z</time></trkpt><trkpt lat="44.3265898" lon="8.4432171"><ele>121.0</ele><time>2026-05-03T11:45:56.158Z</time></trkpt><trkpt lat="44.3266962" lon="8.4433154"><ele>120.0</ele><time>2026-05-03T11:45:57.158Z</time></trkpt><trkpt lat="44.3268242" lon="8.4433757"><ele>120.0</ele><time>2026-05-03T11:45:58.157Z</time></trkpt><trkpt lat="44.3269698" lon="8.4434062"><ele>120.0</ele><time>2026-05-03T11:45:59.158Z</time></trkpt><trkpt lat="44.3270962" lon="8.4434479"><ele>120.0</ele><time>2026-05-03T11:46:00.158Z</time></trkpt><trkpt lat="44.3271848" lon="8.4435389"><ele>120.0</ele><time>2026-05-03T11:46:01.157Z</time></trkpt><trkpt lat="44.3272496" lon="8.4437019"><ele>121.0</ele><time>2026-05-03T11:46:02.157Z</time></trkpt><trkpt lat="44.3272758" lon="8.4438784"><ele>122.0</ele><time>2026-05-03T11:46:03.157Z</time></trkpt><trkpt lat="44.3272927" lon="8.4440568"><ele>123.0</ele><time>2026-05-03T11:46:04.158Z</time></trkpt><trkpt lat="44.3273062" lon="8.4442344"><ele>124.0</ele><time>2026-05-03T11:46:05.158Z</time></trkpt><trkpt lat="44.3273375" lon="8.4443783"><ele>124.0</ele><time>2026-05-03T11:46:06.157Z</time></trkpt><trkpt lat="44.327373" lon="8.4445277"><ele>124.0</ele><time>2026-05-03T11:46:07.157Z</time></trkpt><trkpt lat="44.3274057" lon="8.4446859"><ele>124.0</ele><time>2026-05-03T11:46:08.158Z</time></trkpt><trkpt lat="44.3274231" lon="8.4448369"><ele>124.0</ele><time>2026-05-03T11:46:09.157Z</time></trkpt><trkpt lat="44.3274099" lon="8.4449842"><ele>124.0</ele><time>2026-05-03T11:46:10.157Z</time></trkpt><trkpt lat="44.3273454" lon="8.4451236"><ele>123.5</ele><time>2026-05-03T11:46:11.157Z</time></trkpt><trkpt lat="44.3272781" lon="8.4452688"><ele>123.0</ele><time>2026-05-03T11:46:12.158Z</time></trkpt><trkpt lat="44.3272149" lon="8.4454287"><ele>122.5</ele><time>2026-05-03T11:46:13.158Z</time></trkpt><trkpt lat="44.327163" lon="8.4455996"><ele>122.0</ele><time>2026-05-03T11:46:14.158Z</time></trkpt><trkpt lat="44.3271118" lon="8.4457845"><ele>121.25</ele><time>2026-05-03T11:46:15.158Z</time></trkpt><trkpt lat="44.3270611" lon="8.4459699"><ele>120.5</ele><time>2026-05-03T11:46:16.158Z</time></trkpt><trkpt lat="44.32701" lon="8.4461639"><ele>119.75</ele><time>2026-05-03T11:46:17.157Z</time></trkpt><trkpt lat="44.3269682" lon="8.4463631"><ele>119.0</ele><time>2026-05-03T11:46:18.158Z</time></trkpt><trkpt lat="44.3269392" lon="8.4465745"><ele>116.0</ele><time>2026-05-03T11:46:19.158Z</time></trkpt><trkpt lat="44.3269283" lon="8.4467976"><ele>113.0</ele><time>2026-05-03T11:46:20.159Z</time></trkpt><trkpt lat="44.3269273" lon="8.4470187"><ele>110.0</ele><time>2026-05-03T11:46:21.157Z</time></trkpt><trkpt lat="44.3269385" lon="8.4472398"><ele>108.5</ele><time>2026-05-03T11:46:22.157Z</time></trkpt><trkpt lat="44.3269503" lon="8.4474451"><ele>107.0</ele><time>2026-05-03T11:46:23.157Z</time></trkpt><trkpt lat="44.3269612" lon="8.4476349"><ele>105.5</ele><time>2026-05-03T11:46:24.158Z</time></trkpt><trkpt lat="44.3269609" lon="8.4478201"><ele>104.0</ele><time>2026-05-03T11:46:25.159Z</time></trkpt><trkpt lat="44.3269459" lon="8.4480208"><ele>102.0</ele><time>2026-05-03T11:46:26.159Z</time></trkpt><trkpt lat="44.326902" lon="8.4482177"><ele>100.0</ele><time>2026-05-03T11:46:27.159Z</time></trkpt><trkpt lat="44.3268334" lon="8.4484196"><ele>98.0</ele><time>2026-05-03T11:46:28.158Z</time></trkpt><trkpt lat="44.3267421" lon="8.4486274"><ele>98.0</ele><time>2026-05-03T11:46:29.159Z</time></trkpt><trkpt lat="44.326653" lon="8.4488413"><ele>98.0</ele><time>2026-05-03T11:46:30.158Z</time></trkpt><trkpt lat="44.3265665" lon="8.4490414"><ele>98.0</ele><time>2026-05-03T11:46:31.158Z</time></trkpt><trkpt lat="44.3264854" lon="8.4492223"><ele>98.0</ele><time>2026-05-03T11:46:32.159Z</time></trkpt><trkpt lat="44.3264184" lon="8.4493897"><ele>98.0</ele><time>2026-05-03T11:46:33.158Z</time></trkpt><trkpt lat="44.3263601" lon="8.4495396"><ele>98.0</ele><time>2026-05-03T11:46:34.159Z</time></trkpt><trkpt lat="44.3263076" lon="8.4496741"><ele>98.0</ele><time>2026-05-03T11:46:35.158Z</time></trkpt><trkpt lat="44.3262675" lon="8.4498079"><ele>96.5</ele><time>2026-05-03T11:46:36.159Z</time></trkpt><trkpt lat="44.3262528" lon="8.4499738"><ele>95.0</ele><time>2026-05-03T11:46:37.159Z</time></trkpt><trkpt lat="44.3262817" lon="8.4501581"><ele>93.5</ele><time>2026-05-03T11:46:38.159Z</time></trkpt><trkpt lat="44.3263489" lon="8.4503346"><ele>92.0</ele><time>2026-05-03T11:46:39.159Z</time></trkpt><trkpt lat="44.326421" lon="8.4505"><ele>92.0</ele><time>2026-05-03T11:46:40.159Z</time></trkpt><trkpt lat="44.3264919" lon="8.4506627"><ele>92.0</ele><time>2026-05-03T11:46:41.159Z</time></trkpt><trkpt lat="44.3265338" lon="8.4508329"><ele>92.0</ele><time>2026-05-03T11:46:42.158Z</time></trkpt><trkpt lat="44.3265334" lon="8.4510271"><ele>92.0</ele><time>2026-05-03T11:46:43.158Z</time></trkpt><trkpt lat="44.3265082" lon="8.4512338"><ele>91.33333333333334</ele><time>2026-05-03T11:46:44.159Z</time></trkpt><trkpt lat="44.3264817" lon="8.4514417"><ele>90.66666666666667</ele><time>2026-05-03T11:46:45.158Z</time></trkpt><trkpt lat="44.3264562" lon="8.4516488"><ele>90.0</ele><time>2026-05-03T11:46:46.159Z</time></trkpt><trkpt lat="44.3264335" lon="8.45186"><ele>90.0</ele><time>2026-05-03T11:46:47.159Z</time></trkpt><trkpt lat="44.3264104" lon="8.4520726"><ele>90.0</ele><time>2026-05-03T11:46:48.159Z</time></trkpt><trkpt lat="44.3263846" lon="8.4522847"><ele>90.0</ele><time>2026-05-03T11:46:49.159Z</time></trkpt><trkpt lat="44.3263574" lon="8.4525021"><ele>91.66666666666667</ele><time>2026-05-03T11:46:50.159Z</time></trkpt><trkpt lat="44.3263315" lon="8.4527322"><ele>93.33333333333334</ele><time>2026-05-03T11:46:51.159Z</time></trkpt><trkpt lat="44.3263032" lon="8.4529712"><ele>95.0</ele><time>2026-05-03T11:46:52.158Z</time></trkpt><trkpt lat="44.3262757" lon="8.4532165"><ele>95.0</ele><time>2026-05-03T11:46:53.159Z</time></trkpt><trkpt lat="44.3262455" lon="8.4534562"><ele>95.0</ele><time>2026-05-03T11:46:54.158Z</time></trkpt><trkpt lat="44.3262123" lon="8.4536886"><ele>95.0</ele><time>2026-05-03T11:46:55.159Z</time></trkpt><trkpt lat="44.3261766" lon="8.4539235"><ele>92.0</ele><time>2026-05-03T11:46:56.159Z</time></trkpt><trkpt lat="44.3261332" lon="8.4541606"><ele>89.0</ele><time>2026-05-03T11:46:57.159Z</time></trkpt><trkpt lat="44.3260666" lon="8.4543976"><ele>86.0</ele><time>2026-05-03T11:46:58.158Z</time></trkpt><trkpt lat="44.3259718" lon="8.4546317"><ele>85.0</ele><time>2026-05-03T11:46:59.159Z</time></trkpt><trkpt lat="44.3258579" lon="8.4548618"><ele>84.0</ele><time>2026-05-03T11:47:00.159Z</time></trkpt><trkpt lat="44.325753" lon="8.4550859"><ele>83.0</ele><time>2026-05-03T11:47:01.159Z</time></trkpt><trkpt lat="44.3256607" lon="8.4552886"><ele>84.33333333333334</ele><time>2026-05-03T11:47:02.159Z</time></trkpt><trkpt lat="44.3255798" lon="8.4554711"><ele>85.66666666666667</ele><time>2026-05-03T11:47:03.159Z</time></trkpt><trkpt lat="44.3255007" lon="8.455647"><ele>87.0</ele><time>2026-05-03T11:47:04.159Z</time></trkpt><trkpt lat="44.3254226" lon="8.4558339"><ele>88.33333333333333</ele><time>2026-05-03T11:47:05.159Z</time></trkpt><trkpt lat="44.3253397" lon="8.4560339"><ele>89.66666666666666</ele><time>2026-05-03T11:47:06.159Z</time></trkpt><trkpt lat="44.3252652" lon="8.4562537"><ele>91.0</ele><time>2026-05-03T11:47:07.158Z</time></trkpt><trkpt lat="44.3252237" lon="8.4565009"><ele>87.33333333333333</ele><time>2026-05-03T11:47:08.159Z</time></trkpt><trkpt lat="44.3251993" lon="8.4567551"><ele>83.66666666666667</ele><time>2026-05-03T11:47:09.159Z</time></trkpt><trkpt lat="44.3251784" lon="8.4570058"><ele>80.0</ele><time>2026-05-03T11:47:10.159Z</time></trkpt><trkpt lat="44.3251486" lon="8.4572112"><ele>77.75</ele><time>2026-05-03T11:47:11.159Z</time></trkpt><trkpt lat="44.3250803" lon="8.4573894"><ele>75.5</ele><time>2026-05-03T11:47:12.159Z</time></trkpt><trkpt lat="44.3249865" lon="8.4575479"><ele>73.25</ele><time>2026-05-03T11:47:13.159Z</time></trkpt><trkpt lat="44.3248731" lon="8.4576938"><ele>71.0</ele><time>2026-05-03T11:47:14.159Z</time></trkpt><trkpt lat="44.3247987" lon="8.457868"><ele>72.0</ele><time>2026-05-03T11:47:15.158Z</time></trkpt><trkpt lat="44.3247374" lon="8.4580683"><ele>73.0</ele><time>2026-05-03T11:47:16.159Z</time></trkpt><trkpt lat="44.3246832" lon="8.4582808"><ele>74.0</ele><time>2026-05-03T11:47:17.159Z</time></trkpt><trkpt lat="44.3246319" lon="8.4584712"><ele>72.0</ele><time>2026-05-03T11:47:18.158Z</time></trkpt><trkpt lat="44.3245894" lon="8.4586301"><ele>70.0</ele><time>2026-05-03T11:47:19.158Z</time></trkpt><trkpt lat="44.3245594" lon="8.4587639"><ele>68.0</ele><time>2026-05-03T11:47:20.159Z</time></trkpt><trkpt lat="44.3244811" lon="8.4588884"><ele>66.0</ele><time>2026-05-03T11:47:21.159Z</time></trkpt><trkpt lat="44.3243903" lon="8.458957"><ele>64.0</ele><time>2026-05-03T11:47:22.158Z</time></trkpt><trkpt lat="44.3242688" lon="8.4589942"><ele>63.0</ele><time>2026-05-03T11:47:23.159Z</time></trkpt><trkpt lat="44.3241281" lon="8.4590046"><ele>62.0</ele><time>2026-05-03T11:47:24.159Z</time></trkpt><trkpt lat="44.3239913" lon="8.4590056"><ele>61.0</ele><time>2026-05-03T11:47:25.16Z</time></trkpt><trkpt lat="44.3238566" lon="8.4590124"><ele>60.0</ele><time>2026-05-03T11:47:26.159Z</time></trkpt><trkpt lat="44.323714" lon="8.4590222"><ele>57.75</ele><time>2026-05-03T11:47:27.159Z</time></trkpt><trkpt lat="44.3235737" lon="8.4590309"><ele>55.5</ele><time>2026-05-03T11:47:28.159Z</time></trkpt><trkpt lat="44.3234295" lon="8.4590424"><ele>53.25</ele><time>2026-05-03T11:47:29.16Z</time></trkpt><trkpt lat="44.3232903" lon="8.4590508"><ele>51.0</ele><time>2026-05-03T11:47:30.159Z</time></trkpt><trkpt lat="44.323156" lon="8.4590575"><ele>51.5</ele><time>2026-05-03T11:47:31.16Z</time></trkpt><trkpt lat="44.3230372" lon="8.4590723"><ele>52.0</ele><time>2026-05-03T11:47:32.159Z</time></trkpt><trkpt lat="44.3229275" lon="8.4590941"><ele>52.5</ele><time>2026-05-03T11:47:33.16Z</time></trkpt><trkpt lat="44.3228227" lon="8.4591553"><ele>53.0</ele><time>2026-05-03T11:47:34.16Z</time></trkpt><trkpt lat="44.322717" lon="8.4592688"><ele>53.0</ele><time>2026-05-03T11:47:35.159Z</time></trkpt><trkpt lat="44.3226283" lon="8.4594213"><ele>53.0</ele><time>2026-05-03T11:47:36.16Z</time></trkpt><trkpt lat="44.3225643" lon="8.459593"><ele>53.0</ele><time>2026-05-03T11:47:37.159Z</time></trkpt><trkpt lat="44.322523" lon="8.4597739"><ele>53.0</ele><time>2026-05-03T11:47:38.16Z</time></trkpt><trkpt lat="44.3224843" lon="8.4599346"><ele>50.25</ele><time>2026-05-03T11:47:39.159Z</time></trkpt><trkpt lat="44.3224522" lon="8.4600836"><ele>47.5</ele><time>2026-05-03T11:47:40.16Z</time></trkpt><trkpt lat="44.3224692" lon="8.4602352"><ele>44.75</ele><time>2026-05-03T11:47:41.16Z</time></trkpt><trkpt lat="44.3225342" lon="8.4603883"><ele>42.0</ele><time>2026-05-03T11:47:42.16Z</time></trkpt><trkpt lat="44.3226025" lon="8.4605224"><ele>41.4</ele><time>2026-05-03T11:47:43.159Z</time></trkpt><trkpt lat="44.322657" lon="8.4606607"><ele>40.800000000000004</ele><time>2026-05-03T11:47:44.16Z</time></trkpt><trkpt lat="44.3226909" lon="8.4607952"><ele>40.2</ele><time>2026-05-03T11:47:45.159Z</time></trkpt><trkpt lat="44.3226633" lon="8.4609055"><ele>39.6</ele><time>2026-05-03T11:47:46.16Z</time></trkpt><trkpt lat="44.3225941" lon="8.4610013"><ele>39.0</ele><time>2026-05-03T11:47:47.159Z</time></trkpt><trkpt lat="44.3224986" lon="8.4610731"><ele>39.0</ele><time>2026-05-03T11:47:48.16Z</time></trkpt><trkpt lat="44.3223951" lon="8.4611402"><ele>39.0</ele><time>2026-05-03T11:47:49.159Z</time></trkpt><trkpt lat="44.322286" lon="8.4612195"><ele>39.0</ele><time>2026-05-03T11:47:50.159Z</time></trkpt><trkpt lat="44.3221775" lon="8.4613065"><ele>39.0</ele><time>2026-05-03T11:47:51.16Z</time></trkpt><trkpt lat="44.322065" lon="8.4613998"><ele>40.0</ele><time>2026-05-03T11:47:52.16Z</time></trkpt><trkpt lat="44.3219479" lon="8.4614918"><ele>41.0</ele><time>2026-05-03T11:47:53.16Z</time></trkpt><trkpt lat="44.3218177" lon="8.4615888"><ele>42.0</ele><time>2026-05-03T11:47:54.16Z</time></trkpt><trkpt lat="44.3216891" lon="8.4616799"><ele>43.0</ele><time>2026-05-03T11:47:55.16Z</time></trkpt><trkpt lat="44.3215609" lon="8.4617735"><ele>43.0</ele><time>2026-05-03T11:47:56.159Z</time></trkpt><trkpt lat="44.3214393" lon="8.4618705"><ele>43.0</ele><time>2026-05-03T11:47:57.159Z</time></trkpt><trkpt lat="44.321323" lon="8.4619671"><ele>43.0</ele><time>2026-05-03T11:47:58.16Z</time></trkpt><trkpt lat="44.3212232" lon="8.4620587"><ele>43.0</ele><time>2026-05-03T11:47:59.159Z</time></trkpt><trkpt lat="44.3211413" lon="8.4621594"><ele>41.5</ele><time>2026-05-03T11:48:00.16Z</time></trkpt><trkpt lat="44.3210723" lon="8.4623004"><ele>40.0</ele><time>2026-05-03T11:48:01.159Z</time></trkpt><trkpt lat="44.3210283" lon="8.4624703"><ele>38.5</ele><time>2026-05-03T11:48:02.159Z</time></trkpt><trkpt lat="44.3210191" lon="8.4626726"><ele>37.0</ele><time>2026-05-03T11:48:03.16Z</time></trkpt><trkpt lat="44.3210165" lon="8.4628625"><ele>36.5</ele><time>2026-05-03T11:48:04.16Z</time></trkpt><trkpt lat="44.3210164" lon="8.4630561"><ele>36.0</ele><time>2026-05-03T11:48:05.16Z</time></trkpt><trkpt lat="44.3209991" lon="8.4632485"><ele>35.5</ele><time>2026-05-03T11:48:06.16Z</time></trkpt><trkpt lat="44.3209863" lon="8.4634348"><ele>35.0</ele><time>2026-05-03T11:48:07.16Z</time></trkpt><trkpt lat="44.3209763" lon="8.4636163"><ele>33.0</ele><time>2026-05-03T11:48:08.159Z</time></trkpt><trkpt lat="44.3209674" lon="8.4637961"><ele>31.0</ele><time>2026-05-03T11:48:09.16Z</time></trkpt><trkpt lat="44.3209587" lon="8.4639689"><ele>29.0</ele><time>2026-05-03T11:48:10.159Z</time></trkpt><trkpt lat="44.3209473" lon="8.4641386"><ele>27.0</ele><time>2026-05-03T11:48:11.16Z</time></trkpt><trkpt lat="44.3209351" lon="8.4643098"><ele>27.0</ele><time>2026-05-03T11:48:12.16Z</time></trkpt><trkpt lat="44.320917" lon="8.4644801"><ele>27.0</ele><time>2026-05-03T11:48:13.16Z</time></trkpt><trkpt lat="44.3208917" lon="8.4646501"><ele>27.0</ele><time>2026-05-03T11:48:14.159Z</time></trkpt><trkpt lat="44.3208714" lon="8.4648192"><ele>27.0</ele><time>2026-05-03T11:48:15.16Z</time></trkpt><trkpt lat="44.3208509" lon="8.4649911"><ele>26.666666666666668</ele><time>2026-05-03T11:48:16.16Z</time></trkpt><trkpt lat="44.3208306" lon="8.4651431"><ele>26.333333333333336</ele><time>2026-05-03T11:48:17.159Z</time></trkpt><trkpt lat="44.3208155" lon="8.4652658"><ele>26.0</ele><time>2026-05-03T11:48:18.159Z</time></trkpt><trkpt lat="44.3208038" lon="8.4653744"><ele>25.666666666666668</ele><time>2026-05-03T11:48:19.159Z</time></trkpt><trkpt lat="44.3207899" lon="8.4654861"><ele>25.333333333333336</ele><time>2026-05-03T11:48:20.159Z</time></trkpt><trkpt lat="44.3207761" lon="8.4655897"><ele>25.0</ele><time>2026-05-03T11:48:21.16Z</time></trkpt><trkpt lat="44.3207613" lon="8.4656925"><ele>25.0</ele><time>2026-05-03T11:48:22.159Z</time></trkpt><trkpt lat="44.3207235" lon="8.4658567"><ele>25.0</ele><time>2026-05-03T11:48:24.16Z</time></trkpt><trkpt lat="44.3206935" lon="8.4660055"><ele>25.0</ele><time>2026-05-03T11:48:26.159Z</time></trkpt><trkpt lat="44.3206856" lon="8.4661235"><ele>25.0</ele><time>2026-05-03T11:48:28.159Z</time></trkpt><trkpt lat="44.3207299" lon="8.4661945"><ele>25.0</ele><time>2026-05-03T11:54:52.166Z</time></trkpt><trkpt lat="44.3207249" lon="8.4662903"><ele>25.000000000000004</ele><time>2026-05-03T11:54:55.165Z</time></trkpt><trkpt lat="44.3206648" lon="8.4663779"><ele>25.0</ele><time>2026-05-03T11:54:57.166Z</time></trkpt><trkpt lat="44.3206855" lon="8.466471"><ele>25.0</ele><time>2026-05-03T11:55:02.165Z</time></trkpt><trkpt lat="44.3206745" lon="8.4666189"><ele>25.0</ele><time>2026-05-03T11:55:05.166Z</time></trkpt><trkpt lat="44.3206549" lon="8.4667047"><ele>25.000000000000004</ele><time>2026-05-03T11:55:06.166Z</time></trkpt><trkpt lat="44.3206938" lon="8.4668286"><ele>25.0</ele><time>2026-05-03T11:55:08.166Z</time></trkpt><trkpt lat="44.3206851" lon="8.466917"><ele>25.0</ele><time>2026-05-03T11:55:09.166Z</time></trkpt><trkpt lat="44.3206592" lon="8.4670129"><ele>25.0</ele><time>2026-05-03T11:55:10.166Z</time></trkpt><trkpt lat="44.3206197" lon="8.4671303"><ele>25.0</ele><time>2026-05-03T11:55:11.166Z</time></trkpt><trkpt lat="44.3205676" lon="8.4672488"><ele>25.0</ele><time>2026-05-03T11:55:12.165Z</time></trkpt><trkpt lat="44.3205107" lon="8.4673578"><ele>25.0</ele><time>2026-05-03T11:55:13.166Z</time></trkpt><trkpt lat="44.3204394" lon="8.4674518"><ele>24.0</ele><time>2026-05-03T11:55:14.166Z</time></trkpt><trkpt lat="44.3203498" lon="8.4675526"><ele>23.0</ele><time>2026-05-03T11:55:15.165Z</time></trkpt><trkpt lat="44.3202479" lon="8.4676438"><ele>22.0</ele><time>2026-05-03T11:55:16.166Z</time></trkpt><trkpt lat="44.320147" lon="8.4677405"><ele>21.0</ele><time>2026-05-03T11:55:17.166Z</time></trkpt><trkpt lat="44.3200416" lon="8.4678333"><ele>21.0</ele><time>2026-05-03T11:55:18.166Z</time></trkpt><trkpt lat="44.319936" lon="8.4679201"><ele>21.0</ele><time>2026-05-03T11:55:19.166Z</time></trkpt><trkpt lat="44.3198319" lon="8.4680101"><ele>21.0</ele><time>2026-05-03T11:55:20.166Z</time></trkpt><trkpt lat="44.3197265" lon="8.4681002"><ele>21.0</ele><time>2026-05-03T11:55:21.166Z</time></trkpt><trkpt lat="44.3196198" lon="8.4681869"><ele>20.25</ele><time>2026-05-03T11:55:22.166Z</time></trkpt><trkpt lat="44.3195129" lon="8.4682702"><ele>19.5</ele><time>2026-05-03T11:55:23.166Z</time></trkpt><trkpt lat="44.3194026" lon="8.4683535"><ele>18.75</ele><time>2026-05-03T11:55:24.166Z</time></trkpt><trkpt lat="44.3192957" lon="8.4684413"><ele>18.0</ele><time>2026-05-03T11:55:25.165Z</time></trkpt><trkpt lat="44.3191934" lon="8.4685251"><ele>18.0</ele><time>2026-05-03T11:55:26.166Z</time></trkpt><trkpt lat="44.3190929" lon="8.4686072"><ele>18.0</ele><time>2026-05-03T11:55:27.165Z</time></trkpt><trkpt lat="44.3189898" lon="8.4686848"><ele>18.0</ele><time>2026-05-03T11:55:28.165Z</time></trkpt><trkpt lat="44.3188884" lon="8.4687685"><ele>18.0</ele><time>2026-05-03T11:55:29.166Z</time></trkpt><trkpt lat="44.3187769" lon="8.4688596"><ele>17.75</ele><time>2026-05-03T11:55:30.165Z</time></trkpt><trkpt lat="44.3186687" lon="8.4689523"><ele>17.5</ele><time>2026-05-03T11:55:31.166Z</time></trkpt><trkpt lat="44.3185542" lon="8.4690524"><ele>17.25</ele><time>2026-05-03T11:55:32.166Z</time></trkpt><trkpt lat="44.3184326" lon="8.4691578"><ele>17.0</ele><time>2026-05-03T11:55:33.166Z</time></trkpt><trkpt lat="44.3183064" lon="8.4692678"><ele>17.0</ele><time>2026-05-03T11:55:34.167Z</time></trkpt><trkpt lat="44.3181804" lon="8.4693787"><ele>17.0</ele><time>2026-05-03T11:55:35.166Z</time></trkpt><trkpt lat="44.3180531" lon="8.4694871"><ele>17.0</ele><time>2026-05-03T11:55:36.165Z</time></trkpt><trkpt lat="44.3179194" lon="8.4695916"><ele>17.333333333333336</ele><time>2026-05-03T11:55:37.166Z</time></trkpt><trkpt lat="44.317787" lon="8.4696958"><ele>17.666666666666668</ele><time>2026-05-03T11:55:38.167Z</time></trkpt><trkpt lat="44.3176547" lon="8.4698021"><ele>18.0</ele><time>2026-05-03T11:55:39.166Z</time></trkpt><trkpt lat="44.3175221" lon="8.4699122"><ele>18.0</ele><time>2026-05-03T11:55:40.167Z</time></trkpt><trkpt lat="44.3173868" lon="8.470028"><ele>18.0</ele><time>2026-05-03T11:55:41.167Z</time></trkpt><trkpt lat="44.3172553" lon="8.4701449"><ele>18.0</ele><time>2026-05-03T11:55:42.167Z</time></trkpt><trkpt lat="44.3171299" lon="8.4702531"><ele>18.5</ele><time>2026-05-03T11:55:43.167Z</time></trkpt><trkpt lat="44.3170076" lon="8.4703591"><ele>19.0</ele><time>2026-05-03T11:55:44.166Z</time></trkpt><trkpt lat="44.3168887" lon="8.4704579"><ele>19.5</ele><time>2026-05-03T11:55:45.167Z</time></trkpt><trkpt lat="44.3167687" lon="8.4705537"><ele>20.0</ele><time>2026-05-03T11:55:46.166Z</time></trkpt><trkpt lat="44.3166544" lon="8.4706515"><ele>20.0</ele><time>2026-05-03T11:55:47.167Z</time></trkpt><trkpt lat="44.3165376" lon="8.4707483"><ele>20.0</ele><time>2026-05-03T11:55:48.167Z</time></trkpt><trkpt lat="44.3164214" lon="8.470851"><ele>20.0</ele><time>2026-05-03T11:55:49.166Z</time></trkpt><trkpt lat="44.316306" lon="8.4709461"><ele>20.0</ele><time>2026-05-03T11:55:50.167Z</time></trkpt><trkpt lat="44.3161877" lon="8.4710454"><ele>19.25</ele><time>2026-05-03T11:55:51.166Z</time></trkpt><trkpt lat="44.3160712" lon="8.4711403"><ele>18.5</ele><time>2026-05-03T11:55:52.167Z</time></trkpt><trkpt lat="44.3159539" lon="8.4712322"><ele>17.75</ele><time>2026-05-03T11:55:53.167Z</time></trkpt><trkpt lat="44.3158324" lon="8.4713163"><ele>17.0</ele><time>2026-05-03T11:55:54.167Z</time></trkpt><trkpt lat="44.3157128" lon="8.4713981"><ele>17.0</ele><time>2026-05-03T11:55:55.166Z</time></trkpt><trkpt lat="44.3155992" lon="8.4714736"><ele>17.0</ele><time>2026-05-03T11:55:56.166Z</time></trkpt><trkpt lat="44.3154841" lon="8.4715387"><ele>17.0</ele><time>2026-05-03T11:55:57.167Z</time></trkpt><trkpt lat="44.3153751" lon="8.4716112"><ele>17.0</ele><time>2026-05-03T11:55:58.167Z</time></trkpt><trkpt lat="44.3152635" lon="8.4716913"><ele>17.0</ele><time>2026-05-03T11:55:59.167Z</time></trkpt><trkpt lat="44.3151503" lon="8.4717605"><ele>17.0</ele><time>2026-05-03T11:56:00.167Z</time></trkpt><trkpt lat="44.3150406" lon="8.4718314"><ele>17.0</ele><time>2026-05-03T11:56:01.166Z</time></trkpt><trkpt lat="44.3149366" lon="8.4718929"><ele>17.0</ele><time>2026-05-03T11:56:02.166Z</time></trkpt><trkpt lat="44.314838" lon="8.4719472"><ele>17.0</ele><time>2026-05-03T11:56:03.166Z</time></trkpt><trkpt lat="44.314745" lon="8.4719985"><ele>17.0</ele><time>2026-05-03T11:56:04.167Z</time></trkpt><trkpt lat="44.3146589" lon="8.4720481"><ele>17.0</ele><time>2026-05-03T11:56:05.167Z</time></trkpt><trkpt lat="44.3145796" lon="8.4720939"><ele>17.0</ele><time>2026-05-03T11:56:06.167Z</time></trkpt><trkpt lat="44.3145088" lon="8.4721309"><ele>17.0</ele><time>2026-05-03T11:56:07.167Z</time></trkpt><trkpt lat="44.3144478" lon="8.4721683"><ele>17.0</ele><time>2026-05-03T11:56:08.167Z</time></trkpt><trkpt lat="44.3143498" lon="8.4722276"><ele>16.4</ele><time>2026-05-03T11:56:10.166Z</time></trkpt><trkpt lat="44.3142631" lon="8.4722891"><ele>15.799999999999999</ele><time>2026-05-03T11:56:12.167Z</time></trkpt><trkpt lat="44.3141641" lon="8.4723496"><ele>15.2</ele><time>2026-05-03T11:56:14.167Z</time></trkpt><trkpt lat="44.3140741" lon="8.472358"><ele>14.6</ele><time>2026-05-03T11:56:16.167Z</time></trkpt><trkpt lat="44.3140541" lon="8.4722473"><ele>14.0</ele><time>2026-05-03T11:56:17.167Z</time></trkpt><trkpt lat="44.3140301" lon="8.472151"><ele>13.799999999999999</ele><time>2026-05-03T11:56:18.167Z</time></trkpt><trkpt lat="44.3140034" lon="8.47204"><ele>13.599999999999998</ele><time>2026-05-03T11:56:19.166Z</time></trkpt><trkpt lat="44.3139684" lon="8.4719171"><ele>13.4</ele><time>2026-05-03T11:56:20.167Z</time></trkpt><trkpt lat="44.3139394" lon="8.4717953"><ele>13.2</ele><time>2026-05-03T11:56:21.167Z</time></trkpt><trkpt lat="44.3139103" lon="8.4716725"><ele>13.0</ele><time>2026-05-03T11:56:22.167Z</time></trkpt><trkpt lat="44.3138762" lon="8.4715472"><ele>13.666666666666666</ele><time>2026-05-03T11:56:23.167Z</time></trkpt><trkpt lat="44.313847" lon="8.4714295"><ele>14.333333333333332</ele><time>2026-05-03T11:56:24.167Z</time></trkpt><trkpt lat="44.3138157" lon="8.4713197"><ele>15.0</ele><time>2026-05-03T11:56:25.167Z</time></trkpt><trkpt lat="44.3137901" lon="8.4712166"><ele>15.666666666666668</ele><time>2026-05-03T11:56:26.167Z</time></trkpt><trkpt lat="44.3137645" lon="8.4711211"><ele>16.333333333333336</ele><time>2026-05-03T11:56:27.166Z</time></trkpt><trkpt lat="44.3137396" lon="8.4710365"><ele>17.0</ele><time>2026-05-03T11:56:28.167Z</time></trkpt><trkpt lat="44.3136754" lon="8.4709052"><ele>17.0</ele><time>2026-05-03T11:56:30.167Z</time></trkpt><trkpt lat="44.3135132" lon="8.4708023"><ele>17.0</ele><time>2026-05-03T11:56:32.167Z</time></trkpt><trkpt lat="44.3134168" lon="8.4708125"><ele>17.0</ele><time>2026-05-03T11:56:33.167Z</time></trkpt><trkpt lat="44.3133262" lon="8.4708197"><ele>17.0</ele><time>2026-05-03T11:56:34.168Z</time></trkpt><trkpt lat="44.3132647" lon="8.4708537"><ele>17.0</ele><time>2026-05-03T11:56:35.167Z</time></trkpt><trkpt lat="44.3131564" lon="8.4708491"><ele>16.5</ele><time>2026-05-03T11:56:36.167Z</time></trkpt><trkpt lat="44.3130346" lon="8.4708416"><ele>16.0</ele><time>2026-05-03T11:56:37.166Z</time></trkpt><trkpt lat="44.3129006" lon="8.4708386"><ele>15.5</ele><time>2026-05-03T11:56:38.167Z</time></trkpt><trkpt lat="44.3127639" lon="8.4708316"><ele>15.0</ele><time>2026-05-03T11:56:39.166Z</time></trkpt><trkpt lat="44.3126313" lon="8.4708226"><ele>15.0</ele><time>2026-05-03T11:56:40.166Z</time></trkpt><trkpt lat="44.3125069" lon="8.4708123"><ele>15.0</ele><time>2026-05-03T11:56:41.167Z</time></trkpt><trkpt lat="44.312398" lon="8.4708036"><ele>15.0</ele><time>2026-05-03T11:56:42.167Z</time></trkpt><trkpt lat="44.3123039" lon="8.470799"><ele>15.0</ele><time>2026-05-03T11:56:43.167Z</time></trkpt><trkpt lat="44.3122199" lon="8.4707862"><ele>15.0</ele><time>2026-05-03T11:56:44.167Z</time></trkpt><trkpt lat="44.312151" lon="8.4707794"><ele>14.8</ele><time>2026-05-03T11:56:45.167Z</time></trkpt><trkpt lat="44.3120877" lon="8.4707597"><ele>14.6</ele><time>2026-05-03T11:56:46.167Z</time></trkpt><trkpt lat="44.3119776" lon="8.4706244"><ele>14.399999999999999</ele><time>2026-05-03T11:56:48.168Z</time></trkpt><trkpt lat="44.3119385" lon="8.47051"><ele>14.2</ele><time>2026-05-03T11:56:49.166Z</time></trkpt><trkpt lat="44.3119031" lon="8.4703825"><ele>14.0</ele><time>2026-05-03T11:56:50.166Z</time></trkpt><trkpt lat="44.3115728" lon="8.4695181"><ele>16.0</ele><time>2026-05-03T11:56:57.167Z</time></trkpt><trkpt lat="44.3114769" lon="8.4694151"><ele>18.0</ele><time>2026-05-03T11:56:58.168Z</time></trkpt><trkpt lat="44.311348" lon="8.4693827"><ele>20.0</ele><time>2026-05-03T11:56:59.168Z</time></trkpt><trkpt lat="44.3111505" lon="8.4693459"><ele>20.0</ele><time>2026-05-03T11:57:01.167Z</time></trkpt><trkpt lat="44.3110277" lon="8.4693153"><ele>20.0</ele><time>2026-05-03T11:57:02.168Z</time></trkpt><trkpt lat="44.3108676" lon="8.469318"><ele>20.0</ele><time>2026-05-03T11:57:03.167Z</time></trkpt><trkpt lat="44.3107338" lon="8.4693181"><ele>20.0</ele><time>2026-05-03T11:57:04.168Z</time></trkpt><trkpt lat="44.3106002" lon="8.4693149"><ele>19.5</ele><time>2026-05-03T11:57:05.168Z</time></trkpt><trkpt lat="44.3104671" lon="8.4693137"><ele>19.0</ele><time>2026-05-03T11:57:06.168Z</time></trkpt><trkpt lat="44.3103335" lon="8.469313"><ele>18.5</ele><time>2026-05-03T11:57:07.167Z</time></trkpt><trkpt lat="44.3101973" lon="8.4693094"><ele>18.0</ele><time>2026-05-03T11:57:08.168Z</time></trkpt><trkpt lat="44.3100591" lon="8.4693069"><ele>18.0</ele><time>2026-05-03T11:57:09.168Z</time></trkpt><trkpt lat="44.3099218" lon="8.4693027"><ele>18.0</ele><time>2026-05-03T11:57:10.168Z</time></trkpt><trkpt lat="44.3097847" lon="8.4693018"><ele>18.0</ele><time>2026-05-03T11:57:11.168Z</time></trkpt><trkpt lat="44.3096489" lon="8.4692967"><ele>18.0</ele><time>2026-05-03T11:57:12.168Z</time></trkpt><trkpt lat="44.3095111" lon="8.4692936"><ele>17.75</ele><time>2026-05-03T11:57:13.167Z</time></trkpt><trkpt lat="44.3093693" lon="8.4692912"><ele>17.5</ele><time>2026-05-03T11:57:14.168Z</time></trkpt><trkpt lat="44.3092254" lon="8.4692896"><ele>17.25</ele><time>2026-05-03T11:57:15.168Z</time></trkpt><trkpt lat="44.3090823" lon="8.4692878"><ele>17.0</ele><time>2026-05-03T11:57:16.168Z</time></trkpt><trkpt lat="44.3089388" lon="8.469287"><ele>18.0</ele><time>2026-05-03T11:57:17.167Z</time></trkpt><trkpt lat="44.3087965" lon="8.4692865"><ele>19.0</ele><time>2026-05-03T11:57:18.168Z</time></trkpt><trkpt lat="44.3086597" lon="8.4692857"><ele>20.0</ele><time>2026-05-03T11:57:19.168Z</time></trkpt><trkpt lat="44.3085305" lon="8.4692858"><ele>21.0</ele><time>2026-05-03T11:57:20.168Z</time></trkpt><trkpt lat="44.3084108" lon="8.4692866"><ele>21.0</ele><time>2026-05-03T11:57:21.168Z</time></trkpt><trkpt lat="44.3082941" lon="8.4692846"><ele>21.0</ele><time>2026-05-03T11:57:22.168Z</time></trkpt><trkpt lat="44.3081806" lon="8.4692838"><ele>21.0</ele><time>2026-05-03T11:57:23.167Z</time></trkpt><trkpt lat="44.3080721" lon="8.4692802"><ele>21.0</ele><time>2026-05-03T11:57:24.167Z</time></trkpt><trkpt lat="44.3079688" lon="8.4692795"><ele>21.0</ele><time>2026-05-03T11:57:25.168Z</time></trkpt><trkpt lat="44.3078728" lon="8.469279"><ele>21.5</ele><time>2026-05-03T11:57:26.167Z</time></trkpt><trkpt lat="44.307787" lon="8.4692769"><ele>22.0</ele><time>2026-05-03T11:57:27.168Z</time></trkpt><trkpt lat="44.3077106" lon="8.4692731"><ele>22.5</ele><time>2026-05-03T11:57:28.167Z</time></trkpt><trkpt lat="44.3076369" lon="8.4692716"><ele>23.0</ele><time>2026-05-03T11:57:29.167Z</time></trkpt><trkpt lat="44.3075256" lon="8.4692689"><ele>23.5</ele><time>2026-05-03T11:57:31.167Z</time></trkpt><trkpt lat="44.3074282" lon="8.4692624"><ele>24.0</ele><time>2026-05-03T11:57:33.168Z</time></trkpt><trkpt lat="44.3073566" lon="8.4692596"><ele>24.0</ele><time>2026-05-03T11:57:35.168Z</time></trkpt><trkpt lat="44.3072746" lon="8.4692637"><ele>24.0</ele><time>2026-05-03T11:57:38.167Z</time></trkpt><trkpt lat="44.3071798" lon="8.469273"><ele>24.0</ele><time>2026-05-03T11:57:44.167Z</time></trkpt><trkpt lat="44.3070743" lon="8.4692844"><ele>24.0</ele><time>2026-05-03T11:57:46.168Z</time></trkpt><trkpt lat="44.3069601" lon="8.4692894"><ele>24.0</ele><time>2026-05-03T11:57:48.167Z</time></trkpt><trkpt lat="44.3068897" lon="8.4692871"><ele>24.2</ele><time>2026-05-03T11:57:49.167Z</time></trkpt><trkpt lat="44.3068051" lon="8.4692784"><ele>24.4</ele><time>2026-05-03T11:57:50.167Z</time></trkpt><trkpt lat="44.3067047" lon="8.4692705"><ele>24.6</ele><time>2026-05-03T11:57:51.167Z</time></trkpt><trkpt lat="44.3066052" lon="8.4692624"><ele>24.8</ele><time>2026-05-03T11:57:52.167Z</time></trkpt><trkpt lat="44.306504" lon="8.4692547"><ele>25.0</ele><time>2026-05-03T11:57:53.168Z</time></trkpt><trkpt lat="44.3064066" lon="8.4692444"><ele>25.8</ele><time>2026-05-03T11:57:54.169Z</time></trkpt><trkpt lat="44.3063197" lon="8.4691898"><ele>26.6</ele><time>2026-05-03T11:57:55.168Z</time></trkpt><trkpt lat="44.3062147" lon="8.4691787"><ele>27.4</ele><time>2026-05-03T11:57:56.169Z</time></trkpt><trkpt lat="44.3061108" lon="8.4691712"><ele>28.2</ele><time>2026-05-03T11:57:57.168Z</time></trkpt><trkpt lat="44.3059905" lon="8.4692093"><ele>29.0</ele><time>2026-05-03T11:57:58.168Z</time></trkpt><trkpt lat="44.3058895" lon="8.4692056"><ele>29.0</ele><time>2026-05-03T11:57:59.168Z</time></trkpt><trkpt lat="44.3057808" lon="8.4692035"><ele>29.0</ele><time>2026-05-03T11:58:00.168Z</time></trkpt><trkpt lat="44.3056675" lon="8.4692033"><ele>29.0</ele><time>2026-05-03T11:58:01.168Z</time></trkpt><trkpt lat="44.3055505" lon="8.4692144"><ele>29.0</ele><time>2026-05-03T11:58:02.169Z</time></trkpt><trkpt lat="44.3054453" lon="8.4692299"><ele>29.0</ele><time>2026-05-03T11:58:03.168Z</time></trkpt><trkpt lat="44.3053493" lon="8.4692345"><ele>28.4</ele><time>2026-05-03T11:58:04.168Z</time></trkpt><trkpt lat="44.3052368" lon="8.469237"><ele>27.799999999999997</ele><time>2026-05-03T11:58:05.169Z</time></trkpt><trkpt lat="44.3051277" lon="8.4692359"><ele>27.200000000000003</ele><time>2026-05-03T11:58:06.168Z</time></trkpt><trkpt lat="44.3050182" lon="8.469239"><ele>26.6</ele><time>2026-05-03T11:58:07.168Z</time></trkpt><trkpt lat="44.3049069" lon="8.4692449"><ele>26.0</ele><time>2026-05-03T11:58:08.169Z</time></trkpt><trkpt lat="44.3047924" lon="8.4692568"><ele>24.5</ele><time>2026-05-03T11:58:09.169Z</time></trkpt><trkpt lat="44.3046777" lon="8.4692646"><ele>23.0</ele><time>2026-05-03T11:58:10.169Z</time></trkpt><trkpt lat="44.3045621" lon="8.4692681"><ele>21.5</ele><time>2026-05-03T11:58:11.169Z</time></trkpt><trkpt lat="44.3044451" lon="8.4692653"><ele>20.0</ele><time>2026-05-03T11:58:12.168Z</time></trkpt><trkpt lat="44.3043267" lon="8.4692577"><ele>20.0</ele><time>2026-05-03T11:58:13.169Z</time></trkpt><trkpt lat="44.3042075" lon="8.4692465"><ele>20.0</ele><time>2026-05-03T11:58:14.169Z</time></trkpt><trkpt lat="44.3040824" lon="8.469236"><ele>20.0</ele><time>2026-05-03T11:58:15.168Z</time></trkpt><trkpt lat="44.3039571" lon="8.4692218"><ele>20.0</ele><time>2026-05-03T11:58:16.169Z</time></trkpt><trkpt lat="44.3038301" lon="8.4692027"><ele>20.0</ele><time>2026-05-03T11:58:17.168Z</time></trkpt><trkpt lat="44.303703" lon="8.4691829"><ele>20.0</ele><time>2026-05-03T11:58:18.168Z</time></trkpt><trkpt lat="44.3035803" lon="8.4691593"><ele>20.0</ele><time>2026-05-03T11:58:19.169Z</time></trkpt><trkpt lat="44.303463" lon="8.469132"><ele>20.0</ele><time>2026-05-03T11:58:20.168Z</time></trkpt><trkpt lat="44.3033496" lon="8.4691051"><ele>20.0</ele><time>2026-05-03T11:58:21.169Z</time></trkpt><trkpt lat="44.3032427" lon="8.4690796"><ele>20.0</ele><time>2026-05-03T11:58:22.169Z</time></trkpt><trkpt lat="44.3031435" lon="8.4690557"><ele>20.0</ele><time>2026-05-03T11:58:23.169Z</time></trkpt><trkpt lat="44.3030574" lon="8.4690339"><ele>20.0</ele><time>2026-05-03T11:58:24.168Z</time></trkpt><trkpt lat="44.3029938" lon="8.469011"><ele>20.0</ele><time>2026-05-03T11:58:25.169Z</time></trkpt><trkpt lat="44.3029191" lon="8.4689853"><ele>20.0</ele><time>2026-05-03T11:58:27.169Z</time></trkpt><trkpt lat="44.3028426" lon="8.4689632"><ele>18.2</ele><time>2026-05-03T11:58:30.168Z</time></trkpt><trkpt lat="44.3027545" lon="8.468922"><ele>16.4</ele><time>2026-05-03T11:58:32.169Z</time></trkpt><trkpt lat="44.302626" lon="8.4688804"><ele>14.600000000000001</ele><time>2026-05-03T11:58:34.169Z</time></trkpt><trkpt lat="44.3025487" lon="8.4688731"><ele>12.8</ele><time>2026-05-03T11:58:35.169Z</time></trkpt><trkpt lat="44.3024536" lon="8.468865"><ele>11.0</ele><time>2026-05-03T11:58:36.168Z</time></trkpt><trkpt lat="44.302356" lon="8.4688549"><ele>11.0</ele><time>2026-05-03T11:58:37.168Z</time></trkpt><trkpt lat="44.3022585" lon="8.468839"><ele>11.0</ele><time>2026-05-03T11:58:38.169Z</time></trkpt><trkpt lat="44.3021598" lon="8.4688194"><ele>11.0</ele><time>2026-05-03T11:58:39.168Z</time></trkpt><trkpt lat="44.3020595" lon="8.4687912"><ele>11.0</ele><time>2026-05-03T11:58:40.168Z</time></trkpt><trkpt lat="44.3019677" lon="8.4687541"><ele>11.0</ele><time>2026-05-03T11:58:41.169Z</time></trkpt><trkpt lat="44.3018824" lon="8.4687068"><ele>11.0</ele><time>2026-05-03T11:58:42.169Z</time></trkpt><trkpt lat="44.3018036" lon="8.4686422"><ele>11.0</ele><time>2026-05-03T11:58:43.168Z</time></trkpt><trkpt lat="44.3017325" lon="8.4685524"><ele>11.0</ele><time>2026-05-03T11:58:44.169Z</time></trkpt><trkpt lat="44.3016647" lon="8.4684457"><ele>11.0</ele><time>2026-05-03T11:58:45.168Z</time></trkpt><trkpt lat="44.3015969" lon="8.4683269"><ele>11.0</ele><time>2026-05-03T11:58:46.169Z</time></trkpt><trkpt lat="44.3015336" lon="8.4682073"><ele>11.0</ele><time>2026-05-03T11:58:47.168Z</time></trkpt><trkpt lat="44.3014725" lon="8.4680885"><ele>11.0</ele><time>2026-05-03T11:58:48.168Z</time></trkpt><trkpt lat="44.3014123" lon="8.4679733"><ele>11.0</ele><time>2026-05-03T11:58:49.169Z</time></trkpt><trkpt lat="44.3013513" lon="8.4678601"><ele>11.0</ele><time>2026-05-03T11:58:50.169Z</time></trkpt><trkpt lat="44.3012871" lon="8.4677429"><ele>11.0</ele><time>2026-05-03T11:58:51.169Z</time></trkpt><trkpt lat="44.3012222" lon="8.4676253"><ele>11.0</ele><time>2026-05-03T11:58:52.168Z</time></trkpt><trkpt lat="44.301154" lon="8.4674977"><ele>11.0</ele><time>2026-05-03T11:58:53.169Z</time></trkpt><trkpt lat="44.3010848" lon="8.4673613"><ele>11.0</ele><time>2026-05-03T11:58:54.17Z</time></trkpt><trkpt lat="44.3010136" lon="8.4672265"><ele>11.0</ele><time>2026-05-03T11:58:55.169Z</time></trkpt><trkpt lat="44.3009451" lon="8.4670885"><ele>10.75</ele><time>2026-05-03T11:58:56.168Z</time></trkpt><trkpt lat="44.3008745" lon="8.4669487"><ele>10.5</ele><time>2026-05-03T11:58:57.169Z</time></trkpt><trkpt lat="44.3008038" lon="8.4668099"><ele>10.25</ele><time>2026-05-03T11:58:58.169Z</time></trkpt><trkpt lat="44.3007335" lon="8.4666732"><ele>10.0</ele><time>2026-05-03T11:58:59.169Z</time></trkpt><trkpt lat="44.300664" lon="8.4665415"><ele>10.0</ele><time>2026-05-03T11:59:00.169Z</time></trkpt><trkpt lat="44.3005888" lon="8.4664128"><ele>10.0</ele><time>2026-05-03T11:59:01.169Z</time></trkpt><trkpt lat="44.3005063" lon="8.4662872"><ele>10.0</ele><time>2026-05-03T11:59:02.169Z</time></trkpt><trkpt lat="44.3004243" lon="8.4661691"><ele>10.0</ele><time>2026-05-03T11:59:03.168Z</time></trkpt><trkpt lat="44.3003468" lon="8.4660542"><ele>9.8</ele><time>2026-05-03T11:59:04.169Z</time></trkpt><trkpt lat="44.3002701" lon="8.465943"><ele>9.6</ele><time>2026-05-03T11:59:05.168Z</time></trkpt><trkpt lat="44.3001972" lon="8.4658339"><ele>9.4</ele><time>2026-05-03T11:59:06.169Z</time></trkpt><trkpt lat="44.3001243" lon="8.4657229"><ele>9.2</ele><time>2026-05-03T11:59:07.169Z</time></trkpt><trkpt lat="44.3000531" lon="8.4656072"><ele>9.0</ele><time>2026-05-03T11:59:08.168Z</time></trkpt><trkpt lat="44.299976" lon="8.4654896"><ele>9.0</ele><time>2026-05-03T11:59:09.17Z</time></trkpt><trkpt lat="44.299897" lon="8.4653707"><ele>9.0</ele><time>2026-05-03T11:59:10.17Z</time></trkpt><trkpt lat="44.2998194" lon="8.4652509"><ele>9.0</ele><time>2026-05-03T11:59:11.17Z</time></trkpt><trkpt lat="44.2997477" lon="8.4651312"><ele>9.0</ele><time>2026-05-03T11:59:12.17Z</time></trkpt><trkpt lat="44.2996813" lon="8.4650143"><ele>9.0</ele><time>2026-05-03T11:59:13.17Z</time></trkpt><trkpt lat="44.2996162" lon="8.4648975"><ele>9.0</ele><time>2026-05-03T11:59:14.17Z</time></trkpt><trkpt lat="44.2995507" lon="8.4647809"><ele>9.0</ele><time>2026-05-03T11:59:15.17Z</time></trkpt><trkpt lat="44.2994866" lon="8.4646674"><ele>9.0</ele><time>2026-05-03T11:59:16.17Z</time></trkpt><trkpt lat="44.2994248" lon="8.4645592"><ele>9.0</ele><time>2026-05-03T11:59:17.169Z</time></trkpt><trkpt lat="44.2993672" lon="8.4644552"><ele>8.8</ele><time>2026-05-03T11:59:18.169Z</time></trkpt><trkpt lat="44.2993084" lon="8.4643514"><ele>8.600000000000001</ele><time>2026-05-03T11:59:19.169Z</time></trkpt><trkpt lat="44.2992495" lon="8.4642449"><ele>8.4</ele><time>2026-05-03T11:59:20.17Z</time></trkpt><trkpt lat="44.2991906" lon="8.4641354"><ele>8.200000000000001</ele><time>2026-05-03T11:59:21.17Z</time></trkpt><trkpt lat="44.2991346" lon="8.4640285"><ele>8.0</ele><time>2026-05-03T11:59:22.17Z</time></trkpt><trkpt lat="44.2990808" lon="8.4639248"><ele>7.999999999999999</ele><time>2026-05-03T11:59:23.169Z</time></trkpt><trkpt lat="44.2990278" lon="8.4638262"><ele>8.0</ele><time>2026-05-03T11:59:24.169Z</time></trkpt><trkpt lat="44.2989738" lon="8.4637352"><ele>8.0</ele><time>2026-05-03T11:59:25.17Z</time></trkpt><trkpt lat="44.2989221" lon="8.4636451"><ele>8.0</ele><time>2026-05-03T11:59:26.169Z</time></trkpt><trkpt lat="44.2988725" lon="8.4635598"><ele>7.999999999999999</ele><time>2026-05-03T11:59:27.169Z</time></trkpt><trkpt lat="44.2988266" lon="8.4634805"><ele>8.0</ele><time>2026-05-03T11:59:28.169Z</time></trkpt><trkpt lat="44.2987813" lon="8.4634055"><ele>8.0</ele><time>2026-05-03T11:59:29.17Z</time></trkpt><trkpt lat="44.2987403" lon="8.4633338"><ele>8.0</ele><time>2026-05-03T11:59:30.169Z</time></trkpt><trkpt lat="44.2986789" lon="8.4632112"><ele>8.0</ele><time>2026-05-03T11:59:32.17Z</time></trkpt><trkpt lat="44.2986621" lon="8.4630723"><ele>8.0</ele><time>2026-05-03T11:59:34.169Z</time></trkpt><trkpt lat="44.2986962" lon="8.4629541"><ele>8.0</ele><time>2026-05-03T11:59:36.17Z</time></trkpt><trkpt lat="44.2987577" lon="8.4628662"><ele>8.142857142857142</ele><time>2026-05-03T11:59:38.17Z</time></trkpt><trkpt lat="44.2988156" lon="8.4628165"><ele>8.285714285714285</ele><time>2026-05-03T11:59:39.169Z</time></trkpt><trkpt lat="44.2988751" lon="8.4627636"><ele>8.428571428571429</ele><time>2026-05-03T11:59:40.169Z</time></trkpt><trkpt lat="44.2989417" lon="8.46272"><ele>8.571428571428571</ele><time>2026-05-03T11:59:41.17Z</time></trkpt><trkpt lat="44.2990092" lon="8.4626562"><ele>8.714285714285715</ele><time>2026-05-03T11:59:42.169Z</time></trkpt><trkpt lat="44.2989959" lon="8.4625591"><ele>8.857142857142858</ele><time>2026-05-03T11:59:43.17Z</time></trkpt><trkpt lat="44.298974" lon="8.4624733"><ele>9.0</ele><time>2026-05-03T11:59:44.169Z</time></trkpt><trkpt lat="44.2988882" lon="8.4623628"><ele>9.0</ele><time>2026-05-03T11:59:46.17Z</time></trkpt><trkpt lat="44.2988116" lon="8.4622924"><ele>9.0</ele><time>2026-05-03T11:59:47.17Z</time></trkpt><trkpt lat="44.2987406" lon="8.4621678"><ele>9.0</ele><time>2026-05-03T11:59:48.17Z</time></trkpt><trkpt lat="44.2986897" lon="8.4620557"><ele>9.0</ele><time>2026-05-03T11:59:49.17Z</time></trkpt><trkpt lat="44.2986492" lon="8.4619329"><ele>9.0</ele><time>2026-05-03T11:59:50.17Z</time></trkpt><trkpt lat="44.2986112" lon="8.4618119"><ele>9.0</ele><time>2026-05-03T11:59:51.169Z</time></trkpt><trkpt lat="44.2985749" lon="8.4616991"><ele>9.0</ele><time>2026-05-03T11:59:52.17Z</time></trkpt><trkpt lat="44.2985403" lon="8.4615959"><ele>9.0</ele><time>2026-05-03T11:59:53.17Z</time></trkpt><trkpt lat="44.2985067" lon="8.4615011"><ele>9.0</ele><time>2026-05-03T11:59:54.17Z</time></trkpt><trkpt lat="44.2984711" lon="8.4614124"><ele>9.0</ele><time>2026-05-03T11:59:55.17Z</time></trkpt><trkpt lat="44.2984376" lon="8.4613224"><ele>9.0</ele><time>2026-05-03T11:59:56.17Z</time></trkpt><trkpt lat="44.2984055" lon="8.4612307"><ele>9.0</ele><time>2026-05-03T11:59:57.17Z</time></trkpt><trkpt lat="44.2983701" lon="8.4611375"><ele>9.0</ele><time>2026-05-03T11:59:58.17Z</time></trkpt><trkpt lat="44.2983318" lon="8.4610424"><ele>9.0</ele><time>2026-05-03T11:59:59.17Z</time></trkpt><trkpt lat="44.2982943" lon="8.460949"><ele>9.0</ele><time>2026-05-03T12:00:00.17Z</time></trkpt><trkpt lat="44.2982565" lon="8.4608555"><ele>9.0</ele><time>2026-05-03T12:00:01.17Z</time></trkpt><trkpt lat="44.2982196" lon="8.4607617"><ele>9.0</ele><time>2026-05-03T12:00:02.17Z</time></trkpt><trkpt lat="44.2981834" lon="8.4606664"><ele>9.0</ele><time>2026-05-03T12:00:03.17Z</time></trkpt><trkpt lat="44.2981464" lon="8.4605708"><ele>9.0</ele><time>2026-05-03T12:00:04.17Z</time></trkpt><trkpt lat="44.2981089" lon="8.4604765"><ele>9.0</ele><time>2026-05-03T12:00:05.17Z</time></trkpt><trkpt lat="44.2980698" lon="8.4603815"><ele>9.0</ele><time>2026-05-03T12:00:06.169Z</time></trkpt><trkpt lat="44.2980302" lon="8.4602894"><ele>9.0</ele><time>2026-05-03T12:00:07.17Z</time></trkpt><trkpt lat="44.2979914" lon="8.4601978"><ele>9.0</ele><time>2026-05-03T12:00:08.169Z</time></trkpt><trkpt lat="44.2979503" lon="8.460112"><ele>9.000000000000002</ele><time>2026-05-03T12:00:09.17Z</time></trkpt><trkpt lat="44.297913" lon="8.4600259"><ele>9.0</ele><time>2026-05-03T12:00:10.169Z</time></trkpt><trkpt lat="44.297877" lon="8.4599414"><ele>9.0</ele><time>2026-05-03T12:00:11.169Z</time></trkpt><trkpt lat="44.2978418" lon="8.4598608"><ele>9.0</ele><time>2026-05-03T12:00:12.17Z</time></trkpt><trkpt lat="44.2978035" lon="8.4597817"><ele>9.0</ele><time>2026-05-03T12:00:13.169Z</time></trkpt><trkpt lat="44.2977627" lon="8.4596938"><ele>9.000000000000002</ele><time>2026-05-03T12:00:14.17Z</time></trkpt><trkpt lat="44.2977172" lon="8.4595996"><ele>9.0</ele><time>2026-05-03T12:00:15.17Z</time></trkpt><trkpt lat="44.2976716" lon="8.4595121"><ele>9.000000000000002</ele><time>2026-05-03T12:00:16.171Z</time></trkpt><trkpt lat="44.2976273" lon="8.4594329"><ele>9.0</ele><time>2026-05-03T12:00:17.169Z</time></trkpt><trkpt lat="44.2975838" lon="8.4593599"><ele>9.0</ele><time>2026-05-03T12:00:18.171Z</time></trkpt><trkpt lat="44.2975422" lon="8.4592899"><ele>9.0</ele><time>2026-05-03T12:00:19.171Z</time></trkpt><trkpt lat="44.2975007" lon="8.4592205"><ele>9.0</ele><time>2026-05-03T12:00:20.171Z</time></trkpt><trkpt lat="44.2974612" lon="8.4591477"><ele>9.000000000000002</ele><time>2026-05-03T12:00:21.171Z</time></trkpt><trkpt lat="44.2974191" lon="8.4590735"><ele>9.0</ele><time>2026-05-03T12:00:22.171Z</time></trkpt><trkpt lat="44.2973739" lon="8.4589925"><ele>9.0</ele><time>2026-05-03T12:00:23.171Z</time></trkpt><trkpt lat="44.2973233" lon="8.4589108"><ele>9.0</ele><time>2026-05-03T12:00:24.171Z</time></trkpt><trkpt lat="44.2972722" lon="8.4588232"><ele>9.0</ele><time>2026-05-03T12:00:25.171Z</time></trkpt><trkpt lat="44.297219" lon="8.4587321"><ele>9.0</ele><time>2026-05-03T12:00:26.171Z</time></trkpt><trkpt lat="44.2971621" lon="8.4586334"><ele>9.0</ele><time>2026-05-03T12:00:27.171Z</time></trkpt><trkpt lat="44.2971029" lon="8.4585303"><ele>9.0</ele><time>2026-05-03T12:00:28.171Z</time></trkpt><trkpt lat="44.2970405" lon="8.4584233"><ele>9.166666666666666</ele><time>2026-05-03T12:00:29.171Z</time></trkpt><trkpt lat="44.2969845" lon="8.458321"><ele>9.333333333333334</ele><time>2026-05-03T12:00:30.17Z</time></trkpt><trkpt lat="44.2969323" lon="8.4582292"><ele>9.5</ele><time>2026-05-03T12:00:31.171Z</time></trkpt><trkpt lat="44.2968838" lon="8.4581487"><ele>9.666666666666668</ele><time>2026-05-03T12:00:32.171Z</time></trkpt><trkpt lat="44.2968362" lon="8.458068"><ele>9.833333333333334</ele><time>2026-05-03T12:00:33.17Z</time></trkpt><trkpt lat="44.2967875" lon="8.4579893"><ele>10.0</ele><time>2026-05-03T12:00:34.171Z</time></trkpt><trkpt lat="44.2967342" lon="8.4579048"><ele>9.666666666666668</ele><time>2026-05-03T12:00:35.171Z</time></trkpt><trkpt lat="44.2966784" lon="8.4578175"><ele>9.333333333333334</ele><time>2026-05-03T12:00:36.171Z</time></trkpt><trkpt lat="44.2966232" lon="8.4577324"><ele>9.0</ele><time>2026-05-03T12:00:37.17Z</time></trkpt><trkpt lat="44.2965709" lon="8.457649"><ele>8.666666666666666</ele><time>2026-05-03T12:00:38.171Z</time></trkpt><trkpt lat="44.2965209" lon="8.4575635"><ele>8.333333333333332</ele><time>2026-05-03T12:00:39.171Z</time></trkpt><trkpt lat="44.2964737" lon="8.4574798"><ele>8.0</ele><time>2026-05-03T12:00:40.171Z</time></trkpt><trkpt lat="44.2964315" lon="8.4573956"><ele>7.999999999999999</ele><time>2026-05-03T12:00:41.171Z</time></trkpt><trkpt lat="44.2964015" lon="8.4573029"><ele>8.0</ele><time>2026-05-03T12:00:42.171Z</time></trkpt><trkpt lat="44.2963835" lon="8.457195"><ele>8.0</ele><time>2026-05-03T12:00:43.17Z</time></trkpt><trkpt lat="44.2963753" lon="8.4570828"><ele>8.0</ele><time>2026-05-03T12:00:44.17Z</time></trkpt><trkpt lat="44.2963765" lon="8.4569594"><ele>7.999999999999999</ele><time>2026-05-03T12:00:45.171Z</time></trkpt><trkpt lat="44.2963752" lon="8.456831"><ele>8.0</ele><time>2026-05-03T12:00:46.17Z</time></trkpt><trkpt lat="44.2963684" lon="8.4567063"><ele>7.999999999999999</ele><time>2026-05-03T12:00:47.17Z</time></trkpt><trkpt lat="44.2963496" lon="8.4565941"><ele>8.0</ele><time>2026-05-03T12:00:48.17Z</time></trkpt><trkpt lat="44.296317" lon="8.4564946"><ele>8.0</ele><time>2026-05-03T12:00:49.171Z</time></trkpt><trkpt lat="44.2962754" lon="8.4564097"><ele>8.0</ele><time>2026-05-03T12:00:50.17Z</time></trkpt><trkpt lat="44.2962241" lon="8.4563373"><ele>7.999999999999999</ele><time>2026-05-03T12:00:51.171Z</time></trkpt><trkpt lat="44.2961719" lon="8.4562839"><ele>8.0</ele><time>2026-05-03T12:00:52.17Z</time></trkpt><trkpt lat="44.2960583" lon="8.456239"><ele>7.999999999999999</ele><time>2026-05-03T12:00:54.171Z</time></trkpt><trkpt lat="44.2959948" lon="8.456246"><ele>8.0</ele><time>2026-05-03T12:00:55.17Z</time></trkpt><trkpt lat="44.2958667" lon="8.4562758"><ele>8.0</ele><time>2026-05-03T12:00:57.171Z</time></trkpt><trkpt lat="44.2957917" lon="8.4562738"><ele>8.0</ele><time>2026-05-03T12:00:58.171Z</time></trkpt><trkpt lat="44.2957253" lon="8.4562348"><ele>7.999999999999999</ele><time>2026-05-03T12:00:59.171Z</time></trkpt><trkpt lat="44.2957095" lon="8.4561275"><ele>8.0</ele><time>2026-05-03T12:01:00.171Z</time></trkpt><trkpt lat="44.2956637" lon="8.456037"><ele>7.999999999999999</ele><time>2026-05-03T12:01:01.171Z</time></trkpt><trkpt lat="44.2956098" lon="8.4559417"><ele>8.0</ele><time>2026-05-03T12:01:02.17Z</time></trkpt><trkpt lat="44.2955539" lon="8.4558475"><ele>8.0</ele><time>2026-05-03T12:01:03.171Z</time></trkpt><trkpt lat="44.2954988" lon="8.4557559"><ele>8.0</ele><time>2026-05-03T12:01:04.171Z</time></trkpt><trkpt lat="44.2954472" lon="8.4556687"><ele>7.999999999999999</ele><time>2026-05-03T12:01:05.171Z</time></trkpt><trkpt lat="44.2954003" lon="8.4555842"><ele>8.0</ele><time>2026-05-03T12:01:06.171Z</time></trkpt><trkpt lat="44.2953499" lon="8.4554983"><ele>8.166666666666666</ele><time>2026-05-03T12:01:07.17Z</time></trkpt><trkpt lat="44.2952954" lon="8.455423"><ele>8.333333333333332</ele><time>2026-05-03T12:01:08.17Z</time></trkpt><trkpt lat="44.2952338" lon="8.4553584"><ele>8.5</ele><time>2026-05-03T12:01:09.171Z</time></trkpt><trkpt lat="44.2951679" lon="8.4552983"><ele>8.666666666666666</ele><time>2026-05-03T12:01:10.171Z</time></trkpt><trkpt lat="44.2951045" lon="8.4552285"><ele>8.833333333333334</ele><time>2026-05-03T12:01:11.171Z</time></trkpt><trkpt lat="44.2950412" lon="8.4551399"><ele>9.0</ele><time>2026-05-03T12:01:12.171Z</time></trkpt><trkpt lat="44.2949789" lon="8.455047"><ele>9.0</ele><time>2026-05-03T12:01:13.171Z</time></trkpt><trkpt lat="44.29492" lon="8.4549591"><ele>9.0</ele><time>2026-05-03T12:01:14.171Z</time></trkpt><trkpt lat="44.2948636" lon="8.4548685"><ele>9.0</ele><time>2026-05-03T12:01:15.171Z</time></trkpt><trkpt lat="44.2948115" lon="8.4547738"><ele>9.0</ele><time>2026-05-03T12:01:16.171Z</time></trkpt><trkpt lat="44.2947659" lon="8.4546708"><ele>9.0</ele><time>2026-05-03T12:01:17.171Z</time></trkpt><trkpt lat="44.29472" lon="8.4545689"><ele>9.0</ele><time>2026-05-03T12:01:18.17Z</time></trkpt><trkpt lat="44.2946726" lon="8.4544725"><ele>9.166666666666666</ele><time>2026-05-03T12:01:19.171Z</time></trkpt><trkpt lat="44.294622" lon="8.454383"><ele>9.333333333333334</ele><time>2026-05-03T12:01:20.17Z</time></trkpt><trkpt lat="44.2945687" lon="8.4542939"><ele>9.5</ele><time>2026-05-03T12:01:21.17Z</time></trkpt><trkpt lat="44.2945134" lon="8.4541986"><ele>9.666666666666668</ele><time>2026-05-03T12:01:22.17Z</time></trkpt><trkpt lat="44.2944603" lon="8.4540987"><ele>9.833333333333334</ele><time>2026-05-03T12:01:23.171Z</time></trkpt><trkpt lat="44.2944141" lon="8.4539901"><ele>10.0</ele><time>2026-05-03T12:01:24.171Z</time></trkpt><trkpt lat="44.294368" lon="8.4538855"><ele>9.833333333333334</ele><time>2026-05-03T12:01:25.17Z</time></trkpt><trkpt lat="44.294323" lon="8.4537777"><ele>9.666666666666668</ele><time>2026-05-03T12:01:26.171Z</time></trkpt><trkpt lat="44.2942773" lon="8.4536644"><ele>9.5</ele><time>2026-05-03T12:01:27.172Z</time></trkpt><trkpt lat="44.2942309" lon="8.453557"><ele>9.333333333333334</ele><time>2026-05-03T12:01:28.172Z</time></trkpt><trkpt lat="44.294187" lon="8.4534562"><ele>9.166666666666666</ele><time>2026-05-03T12:01:29.171Z</time></trkpt><trkpt lat="44.2941457" lon="8.4533603"><ele>9.0</ele><time>2026-05-03T12:01:30.172Z</time></trkpt><trkpt lat="44.2941062" lon="8.4532639"><ele>9.0</ele><time>2026-05-03T12:01:31.172Z</time></trkpt><trkpt lat="44.2940658" lon="8.4531627"><ele>9.0</ele><time>2026-05-03T12:01:32.171Z</time></trkpt><trkpt lat="44.2940194" lon="8.4530612"><ele>9.0</ele><time>2026-05-03T12:01:33.171Z</time></trkpt><trkpt lat="44.2939689" lon="8.4529628"><ele>9.0</ele><time>2026-05-03T12:01:34.172Z</time></trkpt><trkpt lat="44.2939212" lon="8.4528641"><ele>9.0</ele><time>2026-05-03T12:01:35.172Z</time></trkpt><trkpt lat="44.2938759" lon="8.4527634"><ele>9.0</ele><time>2026-05-03T12:01:36.172Z</time></trkpt><trkpt lat="44.2938299" lon="8.4526625"><ele>9.0</ele><time>2026-05-03T12:01:37.172Z</time></trkpt><trkpt lat="44.2937844" lon="8.4525576"><ele>9.0</ele><time>2026-05-03T12:01:38.171Z</time></trkpt><trkpt lat="44.2937427" lon="8.4524431"><ele>9.0</ele><time>2026-05-03T12:01:39.172Z</time></trkpt><trkpt lat="44.293704" lon="8.4523125"><ele>9.0</ele><time>2026-05-03T12:01:40.172Z</time></trkpt><trkpt lat="44.2936633" lon="8.4521768"><ele>9.0</ele><time>2026-05-03T12:01:41.172Z</time></trkpt><trkpt lat="44.2936108" lon="8.4520401"><ele>9.0</ele><time>2026-05-03T12:01:42.172Z</time></trkpt><trkpt lat="44.2935367" lon="8.4519083"><ele>9.0</ele><time>2026-05-03T12:01:43.172Z</time></trkpt><trkpt lat="44.293459" lon="8.4517765"><ele>9.0</ele><time>2026-05-03T12:01:44.171Z</time></trkpt><trkpt lat="44.2933801" lon="8.4516536"><ele>9.0</ele><time>2026-05-03T12:01:45.172Z</time></trkpt><trkpt lat="44.2933077" lon="8.4515393"><ele>9.0</ele><time>2026-05-03T12:01:46.171Z</time></trkpt><trkpt lat="44.2932306" lon="8.4514313"><ele>9.0</ele><time>2026-05-03T12:01:47.172Z</time></trkpt><trkpt lat="44.2931523" lon="8.4513227"><ele>9.0</ele><time>2026-05-03T12:01:48.172Z</time></trkpt><trkpt lat="44.293069" lon="8.4512202"><ele>9.0</ele><time>2026-05-03T12:01:49.172Z</time></trkpt><trkpt lat="44.2929812" lon="8.451123"><ele>9.0</ele><time>2026-05-03T12:01:50.171Z</time></trkpt><trkpt lat="44.2928986" lon="8.451034"><ele>9.4</ele><time>2026-05-03T12:01:51.172Z</time></trkpt><trkpt lat="44.2928132" lon="8.4509566"><ele>9.8</ele><time>2026-05-03T12:01:52.172Z</time></trkpt><trkpt lat="44.2927265" lon="8.4508877"><ele>10.200000000000001</ele><time>2026-05-03T12:01:53.172Z</time></trkpt><trkpt lat="44.2926433" lon="8.4508261"><ele>10.600000000000001</ele><time>2026-05-03T12:01:54.171Z</time></trkpt><trkpt lat="44.2925594" lon="8.4507688"><ele>11.0</ele><time>2026-05-03T12:01:55.172Z</time></trkpt><trkpt lat="44.292474" lon="8.4507156"><ele>11.0</ele><time>2026-05-03T12:01:56.172Z</time></trkpt><trkpt lat="44.2923824" lon="8.4506676"><ele>11.0</ele><time>2026-05-03T12:01:57.172Z</time></trkpt><trkpt lat="44.2922869" lon="8.4506269"><ele>11.0</ele><time>2026-05-03T12:01:58.172Z</time></trkpt><trkpt lat="44.2921859" lon="8.450595"><ele>11.0</ele><time>2026-05-03T12:01:59.171Z</time></trkpt><trkpt lat="44.2920825" lon="8.4505697"><ele>11.0</ele><time>2026-05-03T12:02:00.172Z</time></trkpt><trkpt lat="44.2919773" lon="8.4505511"><ele>11.4</ele><time>2026-05-03T12:02:01.172Z</time></trkpt><trkpt lat="44.2918709" lon="8.45054"><ele>11.8</ele><time>2026-05-03T12:02:02.171Z</time></trkpt><trkpt lat="44.2917671" lon="8.4505306"><ele>12.200000000000001</ele><time>2026-05-03T12:02:03.171Z</time></trkpt><trkpt lat="44.2916602" lon="8.4505203"><ele>12.600000000000001</ele><time>2026-05-03T12:02:04.172Z</time></trkpt><trkpt lat="44.2915521" lon="8.4505095"><ele>13.0</ele><time>2026-05-03T12:02:05.171Z</time></trkpt><trkpt lat="44.2914436" lon="8.4504953"><ele>13.0</ele><time>2026-05-03T12:02:06.172Z</time></trkpt><trkpt lat="44.291333" lon="8.4504776"><ele>13.0</ele><time>2026-05-03T12:02:07.172Z</time></trkpt><trkpt lat="44.2912197" lon="8.4504538"><ele>13.0</ele><time>2026-05-03T12:02:08.172Z</time></trkpt><trkpt lat="44.2911004" lon="8.4504257"><ele>13.0</ele><time>2026-05-03T12:02:09.171Z</time></trkpt><trkpt lat="44.2909774" lon="8.4503951"><ele>12.75</ele><time>2026-05-03T12:02:10.171Z</time></trkpt><trkpt lat="44.2908518" lon="8.4503544"><ele>12.5</ele><time>2026-05-03T12:02:11.172Z</time></trkpt><trkpt lat="44.2907255" lon="8.4502978"><ele>12.25</ele><time>2026-05-03T12:02:12.172Z</time></trkpt><trkpt lat="44.2906004" lon="8.4502289"><ele>12.0</ele><time>2026-05-03T12:02:13.171Z</time></trkpt><trkpt lat="44.2904748" lon="8.450147"><ele>12.0</ele><time>2026-05-03T12:02:14.171Z</time></trkpt><trkpt lat="44.2903511" lon="8.4500589"><ele>12.0</ele><time>2026-05-03T12:02:15.172Z</time></trkpt><trkpt lat="44.2902337" lon="8.4499707"><ele>12.0</ele><time>2026-05-03T12:02:16.172Z</time></trkpt><trkpt lat="44.29012" lon="8.4498805"><ele>12.0</ele><time>2026-05-03T12:02:17.172Z</time></trkpt><trkpt lat="44.290011" lon="8.4497908"><ele>12.0</ele><time>2026-05-03T12:02:18.171Z</time></trkpt><trkpt lat="44.2899105" lon="8.4497052"><ele>12.0</ele><time>2026-05-03T12:02:19.172Z</time></trkpt><trkpt lat="44.2898132" lon="8.4496252"><ele>12.0</ele><time>2026-05-03T12:02:20.172Z</time></trkpt><trkpt lat="44.2897223" lon="8.4495491"><ele>12.0</ele><time>2026-05-03T12:02:21.171Z</time></trkpt><trkpt lat="44.2896389" lon="8.4494727"><ele>12.0</ele><time>2026-05-03T12:02:22.172Z</time></trkpt><trkpt lat="44.289564" lon="8.4493942"><ele>12.2</ele><time>2026-05-03T12:02:23.172Z</time></trkpt><trkpt lat="44.2894941" lon="8.4493164"><ele>12.399999999999999</ele><time>2026-05-03T12:02:24.172Z</time></trkpt><trkpt lat="44.2894239" lon="8.4492384"><ele>12.600000000000001</ele><time>2026-05-03T12:02:25.172Z</time></trkpt><trkpt lat="44.2893526" lon="8.4491505"><ele>12.8</ele><time>2026-05-03T12:02:26.171Z</time></trkpt><trkpt lat="44.289279" lon="8.4490519"><ele>13.0</ele><time>2026-05-03T12:02:27.172Z</time></trkpt><trkpt lat="44.2892021" lon="8.4489455"><ele>13.0</ele><time>2026-05-03T12:02:28.172Z</time></trkpt><trkpt lat="44.2891199" lon="8.4488346"><ele>13.0</ele><time>2026-05-03T12:02:29.172Z</time></trkpt><trkpt lat="44.2890337" lon="8.44872"><ele>13.0</ele><time>2026-05-03T12:02:30.172Z</time></trkpt><trkpt lat="44.2889461" lon="8.4485986"><ele>13.0</ele><time>2026-05-03T12:02:31.172Z</time></trkpt><trkpt lat="44.2888521" lon="8.4484749"><ele>13.5</ele><time>2026-05-03T12:02:32.172Z</time></trkpt><trkpt lat="44.2887546" lon="8.448348"><ele>14.0</ele><time>2026-05-03T12:02:33.173Z</time></trkpt><trkpt lat="44.2886567" lon="8.4482135"><ele>14.5</ele><time>2026-05-03T12:02:34.171Z</time></trkpt><trkpt lat="44.2885589" lon="8.448067"><ele>15.0</ele><time>2026-05-03T12:02:35.173Z</time></trkpt><trkpt lat="44.288461" lon="8.4479154"><ele>14.5</ele><time>2026-05-03T12:02:36.172Z</time></trkpt><trkpt lat="44.2883658" lon="8.447766"><ele>14.0</ele><time>2026-05-03T12:02:37.173Z</time></trkpt><trkpt lat="44.2882712" lon="8.4476205"><ele>13.5</ele><time>2026-05-03T12:02:38.173Z</time></trkpt><trkpt lat="44.2881786" lon="8.4474797"><ele>13.0</ele><time>2026-05-03T12:02:39.173Z</time></trkpt><trkpt lat="44.2880897" lon="8.4473417"><ele>13.0</ele><time>2026-05-03T12:02:40.173Z</time></trkpt><trkpt lat="44.288006" lon="8.4472062"><ele>13.0</ele><time>2026-05-03T12:02:41.173Z</time></trkpt><trkpt lat="44.287929" lon="8.4470745"><ele>13.0</ele><time>2026-05-03T12:02:42.173Z</time></trkpt><trkpt lat="44.2878559" lon="8.446944"><ele>13.0</ele><time>2026-05-03T12:02:43.173Z</time></trkpt><trkpt lat="44.2877874" lon="8.4468139"><ele>13.833333333333332</ele><time>2026-05-03T12:02:44.173Z</time></trkpt><trkpt lat="44.2877278" lon="8.4466898"><ele>14.666666666666666</ele><time>2026-05-03T12:02:45.173Z</time></trkpt><trkpt lat="44.287678" lon="8.4465742"><ele>15.5</ele><time>2026-05-03T12:02:46.173Z</time></trkpt><trkpt lat="44.2876376" lon="8.4464638"><ele>16.333333333333332</ele><time>2026-05-03T12:02:47.172Z</time></trkpt><trkpt lat="44.2876025" lon="8.4463584"><ele>17.166666666666668</ele><time>2026-05-03T12:02:48.173Z</time></trkpt><trkpt lat="44.287572" lon="8.4462664"><ele>18.0</ele><time>2026-05-03T12:02:49.173Z</time></trkpt><trkpt lat="44.2875458" lon="8.44618"><ele>18.8</ele><time>2026-05-03T12:02:50.173Z</time></trkpt><trkpt lat="44.2875216" lon="8.4460975"><ele>19.6</ele><time>2026-05-03T12:02:51.173Z</time></trkpt><trkpt lat="44.2874714" lon="8.4459536"><ele>20.400000000000002</ele><time>2026-05-03T12:02:53.173Z</time></trkpt><trkpt lat="44.2874264" lon="8.4458116"><ele>21.200000000000003</ele><time>2026-05-03T12:02:55.173Z</time></trkpt><trkpt lat="44.2873988" lon="8.4457081"><ele>22.0</ele><time>2026-05-03T12:02:56.172Z</time></trkpt><trkpt lat="44.2873785" lon="8.4455884"><ele>22.5</ele><time>2026-05-03T12:02:57.172Z</time></trkpt><trkpt lat="44.2873704" lon="8.4454454"><ele>23.0</ele><time>2026-05-03T12:02:58.173Z</time></trkpt><trkpt lat="44.2873845" lon="8.445299"><ele>23.5</ele><time>2026-05-03T12:02:59.173Z</time></trkpt><trkpt lat="44.2875259" lon="8.4451519"><ele>24.0</ele><time>2026-05-03T12:03:00.173Z</time></trkpt><trkpt lat="44.287611" lon="8.4449961"><ele>24.0</ele><time>2026-05-03T12:03:01.173Z</time></trkpt><trkpt lat="44.2876934" lon="8.4448393"><ele>24.0</ele><time>2026-05-03T12:03:02.172Z</time></trkpt><trkpt lat="44.287777" lon="8.4446856"><ele>24.0</ele><time>2026-05-03T12:03:03.173Z</time></trkpt><trkpt lat="44.2878588" lon="8.4445323"><ele>24.0</ele><time>2026-05-03T12:03:04.173Z</time></trkpt><trkpt lat="44.2879418" lon="8.4443779"><ele>24.5</ele><time>2026-05-03T12:03:05.173Z</time></trkpt><trkpt lat="44.2880203" lon="8.4442225"><ele>25.0</ele><time>2026-05-03T12:03:06.172Z</time></trkpt><trkpt lat="44.2880995" lon="8.4440597"><ele>25.5</ele><time>2026-05-03T12:03:07.172Z</time></trkpt><trkpt lat="44.288178" lon="8.443895"><ele>26.0</ele><time>2026-05-03T12:03:08.172Z</time></trkpt><trkpt lat="44.2882535" lon="8.4437177"><ele>26.5</ele><time>2026-05-03T12:03:09.173Z</time></trkpt><trkpt lat="44.2883194" lon="8.4435295"><ele>27.0</ele><time>2026-05-03T12:03:10.173Z</time></trkpt><trkpt lat="44.2883754" lon="8.4433401"><ele>27.5</ele><time>2026-05-03T12:03:11.172Z</time></trkpt><trkpt lat="44.2884188" lon="8.4431507"><ele>28.0</ele><time>2026-05-03T12:03:12.173Z</time></trkpt><trkpt lat="44.2884528" lon="8.4429714"><ele>27.0</ele><time>2026-05-03T12:03:13.173Z</time></trkpt><trkpt lat="44.2884817" lon="8.4428019"><ele>26.0</ele><time>2026-05-03T12:03:14.172Z</time></trkpt><trkpt lat="44.2885106" lon="8.4426355"><ele>25.0</ele><time>2026-05-03T12:03:15.173Z</time></trkpt><trkpt lat="44.2885267" lon="8.4424936"><ele>24.0</ele><time>2026-05-03T12:03:16.173Z</time></trkpt><trkpt lat="44.2885294" lon="8.4423458"><ele>24.0</ele><time>2026-05-03T12:03:17.172Z</time></trkpt><trkpt lat="44.2884718" lon="8.4421784"><ele>24.0</ele><time>2026-05-03T12:03:18.173Z</time></trkpt><trkpt lat="44.2884514" lon="8.4420214"><ele>24.0</ele><time>2026-05-03T12:03:19.172Z</time></trkpt><trkpt lat="44.2883739" lon="8.4418517"><ele>24.0</ele><time>2026-05-03T12:03:20.173Z</time></trkpt><trkpt lat="44.288294" lon="8.4416668"><ele>24.0</ele><time>2026-05-03T12:03:21.173Z</time></trkpt><trkpt lat="44.2882179" lon="8.4414672"><ele>24.0</ele><time>2026-05-03T12:03:22.173Z</time></trkpt><trkpt lat="44.2881517" lon="8.4412783"><ele>24.0</ele><time>2026-05-03T12:03:23.173Z</time></trkpt><trkpt lat="44.2880849" lon="8.4410816"><ele>23.666666666666668</ele><time>2026-05-03T12:03:24.173Z</time></trkpt><trkpt lat="44.288017" lon="8.4408846"><ele>23.333333333333336</ele><time>2026-05-03T12:03:25.172Z</time></trkpt><trkpt lat="44.2879532" lon="8.4406885"><ele>23.0</ele><time>2026-05-03T12:03:26.172Z</time></trkpt><trkpt lat="44.2878898" lon="8.440492"><ele>22.75</ele><time>2026-05-03T12:03:27.173Z</time></trkpt><trkpt lat="44.28783" lon="8.4402984"><ele>22.5</ele><time>2026-05-03T12:03:28.173Z</time></trkpt><trkpt lat="44.2877714" lon="8.4401103"><ele>22.25</ele><time>2026-05-03T12:03:29.173Z</time></trkpt><trkpt lat="44.2877151" lon="8.4399257"><ele>22.0</ele><time>2026-05-03T12:03:30.173Z</time></trkpt><trkpt lat="44.2876535" lon="8.4397479"><ele>22.25</ele><time>2026-05-03T12:03:31.172Z</time></trkpt><trkpt lat="44.2875948" lon="8.4395722"><ele>22.5</ele><time>2026-05-03T12:03:32.173Z</time></trkpt><trkpt lat="44.2875346" lon="8.4394032"><ele>22.75</ele><time>2026-05-03T12:03:33.172Z</time></trkpt><trkpt lat="44.2874717" lon="8.4392356"><ele>23.0</ele><time>2026-05-03T12:03:34.173Z</time></trkpt><trkpt lat="44.2874082" lon="8.43907"><ele>23.0</ele><time>2026-05-03T12:03:35.173Z</time></trkpt><trkpt lat="44.2873403" lon="8.438907"><ele>23.0</ele><time>2026-05-03T12:03:36.173Z</time></trkpt><trkpt lat="44.2872767" lon="8.4387504"><ele>23.0</ele><time>2026-05-03T12:03:37.173Z</time></trkpt><trkpt lat="44.2872171" lon="8.4385974"><ele>23.0</ele><time>2026-05-03T12:03:38.173Z</time></trkpt><trkpt lat="44.287155" lon="8.4384427"><ele>20.666666666666668</ele><time>2026-05-03T12:03:39.173Z</time></trkpt><trkpt lat="44.2870242" lon="8.4381465"><ele>18.333333333333332</ele><time>2026-05-03T12:03:41.173Z</time></trkpt><trkpt lat="44.2869557" lon="8.4380141"><ele>16.0</ele><time>2026-05-03T12:03:42.173Z</time></trkpt><trkpt lat="44.286881" lon="8.4378741"><ele>16.0</ele><time>2026-05-03T12:03:43.173Z</time></trkpt><trkpt lat="44.286803" lon="8.4377419"><ele>16.0</ele><time>2026-05-03T12:03:44.174Z</time></trkpt><trkpt lat="44.2867253" lon="8.4376071"><ele>16.0</ele><time>2026-05-03T12:03:45.174Z</time></trkpt><trkpt lat="44.2866489" lon="8.4374808"><ele>16.0</ele><time>2026-05-03T12:03:46.174Z</time></trkpt><trkpt lat="44.2865748" lon="8.4373608"><ele>16.0</ele><time>2026-05-03T12:03:47.174Z</time></trkpt><trkpt lat="44.2865002" lon="8.4372456"><ele>16.0</ele><time>2026-05-03T12:03:48.174Z</time></trkpt><trkpt lat="44.2864232" lon="8.4371343"><ele>16.0</ele><time>2026-05-03T12:03:49.174Z</time></trkpt><trkpt lat="44.2863439" lon="8.4370224"><ele>16.0</ele><time>2026-05-03T12:03:50.174Z</time></trkpt><trkpt lat="44.2862642" lon="8.43691"><ele>16.0</ele><time>2026-05-03T12:03:51.174Z</time></trkpt><trkpt lat="44.2861812" lon="8.4367954"><ele>14.75</ele><time>2026-05-03T12:03:52.174Z</time></trkpt><trkpt lat="44.2860939" lon="8.4366797"><ele>13.5</ele><time>2026-05-03T12:03:53.174Z</time></trkpt><trkpt lat="44.2860057" lon="8.4365623"><ele>12.25</ele><time>2026-05-03T12:03:54.173Z</time></trkpt><trkpt lat="44.2859136" lon="8.4364487"><ele>11.0</ele><time>2026-05-03T12:03:55.174Z</time></trkpt><trkpt lat="44.2858198" lon="8.4363402"><ele>11.25</ele><time>2026-05-03T12:03:56.174Z</time></trkpt><trkpt lat="44.2857251" lon="8.4362365"><ele>11.5</ele><time>2026-05-03T12:03:57.174Z</time></trkpt><trkpt lat="44.2856296" lon="8.4361377"><ele>11.75</ele><time>2026-05-03T12:03:58.173Z</time></trkpt><trkpt lat="44.2855314" lon="8.4360444"><ele>12.0</ele><time>2026-05-03T12:03:59.174Z</time></trkpt><trkpt lat="44.2854381" lon="8.4359593"><ele>11.4</ele><time>2026-05-03T12:04:00.174Z</time></trkpt><trkpt lat="44.2853454" lon="8.4358741"><ele>10.799999999999999</ele><time>2026-05-03T12:04:01.173Z</time></trkpt><trkpt lat="44.2852538" lon="8.4357941"><ele>10.2</ele><time>2026-05-03T12:04:02.174Z</time></trkpt><trkpt lat="44.2851664" lon="8.43572"><ele>9.6</ele><time>2026-05-03T12:04:03.174Z</time></trkpt><trkpt lat="44.2850845" lon="8.4356516"><ele>9.0</ele><time>2026-05-03T12:04:04.173Z</time></trkpt><trkpt lat="44.2850097" lon="8.4355875"><ele>9.0</ele><time>2026-05-03T12:04:05.173Z</time></trkpt><trkpt lat="44.2849381" lon="8.4355283"><ele>9.0</ele><time>2026-05-03T12:04:06.173Z</time></trkpt><trkpt lat="44.2848743" lon="8.435478"><ele>9.0</ele><time>2026-05-03T12:04:07.173Z</time></trkpt><trkpt lat="44.2847777" lon="8.4353987"><ele>9.0</ele><time>2026-05-03T12:04:09.174Z</time></trkpt><trkpt lat="44.2846958" lon="8.4353038"><ele>9.0</ele><time>2026-05-03T12:04:11.174Z</time></trkpt><trkpt lat="44.2846622" lon="8.4352169"><ele>9.0</ele><time>2026-05-03T12:04:12.174Z</time></trkpt><trkpt lat="44.2846536" lon="8.4351015"><ele>9.0</ele><time>2026-05-03T12:04:13.174Z</time></trkpt><trkpt lat="44.2846676" lon="8.4349739"><ele>9.0</ele><time>2026-05-03T12:04:14.173Z</time></trkpt><trkpt lat="44.2847053" lon="8.4348444"><ele>9.0</ele><time>2026-05-03T12:04:15.173Z</time></trkpt><trkpt lat="44.2847568" lon="8.4347206"><ele>9.0</ele><time>2026-05-03T12:04:16.174Z</time></trkpt><trkpt lat="44.2848184" lon="8.434598"><ele>9.0</ele><time>2026-05-03T12:04:17.174Z</time></trkpt><trkpt lat="44.2848892" lon="8.4344749"><ele>9.0</ele><time>2026-05-03T12:04:18.173Z</time></trkpt><trkpt lat="44.2849678" lon="8.434356"><ele>9.0</ele><time>2026-05-03T12:04:19.174Z</time></trkpt><trkpt lat="44.2850513" lon="8.4342435"><ele>9.0</ele><time>2026-05-03T12:04:20.173Z</time></trkpt><trkpt lat="44.2851389" lon="8.4341268"><ele>9.0</ele><time>2026-05-03T12:04:21.173Z</time></trkpt><trkpt lat="44.2852245" lon="8.4340179"><ele>9.0</ele><time>2026-05-03T12:04:22.174Z</time></trkpt><trkpt lat="44.2853048" lon="8.433915"><ele>9.0</ele><time>2026-05-03T12:04:23.174Z</time></trkpt><trkpt lat="44.2853858" lon="8.4338244"><ele>9.0</ele><time>2026-05-03T12:04:24.174Z</time></trkpt><trkpt lat="44.285467" lon="8.4337402"><ele>9.0</ele><time>2026-05-03T12:04:25.174Z</time></trkpt><trkpt lat="44.2855468" lon="8.433659"><ele>9.0</ele><time>2026-05-03T12:04:26.173Z</time></trkpt><trkpt lat="44.2856268" lon="8.4335805"><ele>8.833333333333334</ele><time>2026-05-03T12:04:27.173Z</time></trkpt><trkpt lat="44.2856999" lon="8.4335122"><ele>8.666666666666666</ele><time>2026-05-03T12:04:28.174Z</time></trkpt><trkpt lat="44.2857672" lon="8.4334503"><ele>8.5</ele><time>2026-05-03T12:04:29.174Z</time></trkpt><trkpt lat="44.2858275" lon="8.4333939"><ele>8.333333333333332</ele><time>2026-05-03T12:04:30.174Z</time></trkpt><trkpt lat="44.2858849" lon="8.4333428"><ele>8.166666666666666</ele><time>2026-05-03T12:04:31.174Z</time></trkpt><trkpt lat="44.2859771" lon="8.4332644"><ele>8.0</ele><time>2026-05-03T12:04:33.173Z</time></trkpt><trkpt lat="44.286073" lon="8.4332116"><ele>8.0</ele><time>2026-05-03T12:04:35.174Z</time></trkpt><trkpt lat="44.2861515" lon="8.4331142"><ele>8.0</ele><time>2026-05-03T12:04:37.173Z</time></trkpt><trkpt lat="44.2860947" lon="8.4330197"><ele>8.0</ele><time>2026-05-03T12:04:38.174Z</time></trkpt><trkpt lat="44.2860466" lon="8.4329333"><ele>8.0</ele><time>2026-05-03T12:04:40.174Z</time></trkpt><trkpt lat="44.2859654" lon="8.43286"><ele>8.0</ele><time>2026-05-03T12:04:41.174Z</time></trkpt><trkpt lat="44.2858623" lon="8.432771"><ele>8.0</ele><time>2026-05-03T12:04:42.174Z</time></trkpt><trkpt lat="44.2858076" lon="8.4326909"><ele>8.0</ele><time>2026-05-03T12:04:43.174Z</time></trkpt><trkpt lat="44.2857606" lon="8.4326167"><ele>8.0</ele><time>2026-05-03T12:04:44.174Z</time></trkpt><trkpt lat="44.2856892" lon="8.4324951"><ele>8.0</ele><time>2026-05-03T12:04:46.174Z</time></trkpt><trkpt lat="44.2855899" lon="8.4324694"><ele>8.0</ele><time>2026-05-03T12:04:48.174Z</time></trkpt><trkpt lat="44.2855038" lon="8.4325578"><ele>8.0</ele><time>2026-05-03T12:04:49.174Z</time></trkpt><trkpt lat="44.2854327" lon="8.4326521"><ele>8.0</ele><time>2026-05-03T12:04:50.173Z</time></trkpt><trkpt lat="44.2853532" lon="8.4327596"><ele>8.0</ele><time>2026-05-03T12:04:51.175Z</time></trkpt><trkpt lat="44.2852647" lon="8.4328746"><ele>8.0</ele><time>2026-05-03T12:04:52.174Z</time></trkpt><trkpt lat="44.2851682" lon="8.4329955"><ele>8.0</ele><time>2026-05-03T12:04:53.175Z</time></trkpt><trkpt lat="44.2850744" lon="8.4331163"><ele>8.0</ele><time>2026-05-03T12:04:54.175Z</time></trkpt><trkpt lat="44.284986" lon="8.4332427"><ele>8.0</ele><time>2026-05-03T12:04:55.174Z</time></trkpt><trkpt lat="44.2848977" lon="8.4333636"><ele>8.0</ele><time>2026-05-03T12:04:56.175Z</time></trkpt><trkpt lat="44.2848111" lon="8.4334834"><ele>8.0</ele><time>2026-05-03T12:04:57.174Z</time></trkpt><trkpt lat="44.2847225" lon="8.433603"><ele>8.0</ele><time>2026-05-03T12:04:58.175Z</time></trkpt><trkpt lat="44.2846389" lon="8.4337226"><ele>8.0</ele><time>2026-05-03T12:04:59.174Z</time></trkpt><trkpt lat="44.2845538" lon="8.4338394"><ele>8.0</ele><time>2026-05-03T12:05:00.175Z</time></trkpt><trkpt lat="44.2844705" lon="8.4339504"><ele>7.6000000000000005</ele><time>2026-05-03T12:05:01.174Z</time></trkpt><trkpt lat="44.284388" lon="8.4340569"><ele>7.200000000000001</ele><time>2026-05-03T12:05:02.175Z</time></trkpt><trkpt lat="44.2843072" lon="8.4341667"><ele>6.8</ele><time>2026-05-03T12:05:03.175Z</time></trkpt><trkpt lat="44.2842307" lon="8.4342782"><ele>6.4</ele><time>2026-05-03T12:05:04.175Z</time></trkpt><trkpt lat="44.2841575" lon="8.434385"><ele>6.0</ele><time>2026-05-03T12:05:05.174Z</time></trkpt><trkpt lat="44.2840882" lon="8.4344865"><ele>6.0</ele><time>2026-05-03T12:05:06.174Z</time></trkpt><trkpt lat="44.2840234" lon="8.4345835"><ele>6.0</ele><time>2026-05-03T12:05:07.174Z</time></trkpt><trkpt lat="44.2839654" lon="8.4346705"><ele>6.0</ele><time>2026-05-03T12:05:08.175Z</time></trkpt><trkpt lat="44.2839138" lon="8.4347515"><ele>6.0</ele><time>2026-05-03T12:05:09.175Z</time></trkpt><trkpt lat="44.2838672" lon="8.4348271"><ele>6.0</ele><time>2026-05-03T12:05:10.175Z</time></trkpt><trkpt lat="44.2838288" lon="8.4348978"><ele>6.0</ele><time>2026-05-03T12:05:11.174Z</time></trkpt><trkpt lat="44.2837697" lon="8.4349974"><ele>6.0</ele><time>2026-05-03T12:05:13.175Z</time></trkpt><trkpt lat="44.2837004" lon="8.4349791"><ele>6.0</ele><time>2026-05-03T12:05:15.174Z</time></trkpt><trkpt lat="44.2836344" lon="8.4348628"><ele>6.0</ele><time>2026-05-03T12:05:17.175Z</time></trkpt><trkpt lat="44.2835979" lon="8.4347831"><ele>6.0</ele><time>2026-05-03T12:05:18.174Z</time></trkpt><trkpt lat="44.2835628" lon="8.4346946"><ele>6.0</ele><time>2026-05-03T12:05:19.174Z</time></trkpt><trkpt lat="44.2835237" lon="8.4345987"><ele>6.0</ele><time>2026-05-03T12:05:20.174Z</time></trkpt><trkpt lat="44.2834926" lon="8.4344905"><ele>6.0</ele><time>2026-05-03T12:05:21.175Z</time></trkpt><trkpt lat="44.2834548" lon="8.434373"><ele>6.0</ele><time>2026-05-03T12:05:22.174Z</time></trkpt><trkpt lat="44.2834087" lon="8.4342444"><ele>6.0</ele><time>2026-05-03T12:05:23.175Z</time></trkpt><trkpt lat="44.283361" lon="8.4341238"><ele>6.0</ele><time>2026-05-03T12:05:24.175Z</time></trkpt><trkpt lat="44.283304" lon="8.4340153"><ele>6.0</ele><time>2026-05-03T12:05:25.174Z</time></trkpt><trkpt lat="44.2832372" lon="8.4339223"><ele>6.0</ele><time>2026-05-03T12:05:26.174Z</time></trkpt><trkpt lat="44.2831702" lon="8.4338416"><ele>6.0</ele><time>2026-05-03T12:05:27.175Z</time></trkpt><trkpt lat="44.2830999" lon="8.433765"><ele>6.0</ele><time>2026-05-03T12:05:28.175Z</time></trkpt><trkpt lat="44.2830306" lon="8.4336871"><ele>6.0</ele><time>2026-05-03T12:05:29.175Z</time></trkpt><trkpt lat="44.2829695" lon="8.433611"><ele>6.0</ele><time>2026-05-03T12:05:30.176Z</time></trkpt><trkpt lat="44.2829139" lon="8.4335432"><ele>6.0</ele><time>2026-05-03T12:05:31.174Z</time></trkpt><trkpt lat="44.2828572" lon="8.4334798"><ele>6.333333333333333</ele><time>2026-05-03T12:05:32.174Z</time></trkpt><trkpt lat="44.2828034" lon="8.4334237"><ele>6.666666666666666</ele><time>2026-05-03T12:05:33.175Z</time></trkpt><trkpt lat="44.282712" lon="8.4333479"><ele>7.0</ele><time>2026-05-03T12:05:35.175Z</time></trkpt><trkpt lat="44.2826234" lon="8.4333497"><ele>7.333333333333333</ele><time>2026-05-03T12:05:37.175Z</time></trkpt><trkpt lat="44.2825562" lon="8.4333849"><ele>7.666666666666666</ele><time>2026-05-03T12:05:39.175Z</time></trkpt><trkpt lat="44.2824975" lon="8.4334245"><ele>8.0</ele><time>2026-05-03T12:05:41.174Z</time></trkpt><trkpt lat="44.2824371" lon="8.43346"><ele>7.999999999999999</ele><time>2026-05-03T12:05:44.175Z</time></trkpt><trkpt lat="44.2823636" lon="8.4334924"><ele>8.0</ele><time>2026-05-03T12:06:01.176Z</time></trkpt><trkpt lat="44.2823346" lon="8.4335872"><ele>8.0</ele><time>2026-05-03T12:06:04.175Z</time></trkpt><trkpt lat="44.2823859" lon="8.4336619"><ele>8.0</ele><time>2026-05-03T12:06:06.176Z</time></trkpt><trkpt lat="44.2824435" lon="8.4337035"><ele>7.999999999999999</ele><time>2026-05-03T12:06:12.176Z</time></trkpt><trkpt lat="44.2825228" lon="8.4338102"><ele>8.0</ele><time>2026-05-03T12:13:20.322Z</time></trkpt><trkpt lat="44.2824728" lon="8.4338848"><ele>7.999999999999999</ele><time>2026-05-03T12:24:33.278Z</time></trkpt><trkpt lat="44.2824781" lon="8.4337277"><ele>8.0</ele><time>2026-05-03T12:26:11.243Z</time></trkpt><trkpt lat="44.2824112" lon="8.4336993"><ele>8.0</ele><time>2026-05-03T12:26:53.275Z</time></trkpt><trkpt lat="44.2824141" lon="8.4336104"><ele>8.0</ele><time>2026-05-03T12:27:02.255Z</time></trkpt><trkpt lat="44.2824045" lon="8.43352"><ele>7.999999999999999</ele><time>2026-05-03T12:27:15.263Z</time></trkpt><trkpt lat="44.2824923" lon="8.4334905"><ele>8.0</ele><time>2026-05-03T12:28:07.293Z</time></trkpt><trkpt lat="44.2825629" lon="8.4334237"><ele>8.0</ele><time>2026-05-03T12:28:09.149Z</time></trkpt><trkpt lat="44.2826281" lon="8.4333844"><ele>8.0</ele><time>2026-05-03T12:28:12.272Z</time></trkpt><trkpt lat="44.2826825" lon="8.4332777"><ele>8.0</ele><time>2026-05-03T12:28:16.195Z</time></trkpt><trkpt lat="44.2826319" lon="8.4331804"><ele>8.0</ele><time>2026-05-03T12:28:18.194Z</time></trkpt><trkpt lat="44.2825341" lon="8.4331117"><ele>8.0</ele><time>2026-05-03T12:28:19.195Z</time></trkpt><trkpt lat="44.2824475" lon="8.4330419"><ele>7.999999999999999</ele><time>2026-05-03T12:28:20.195Z</time></trkpt><trkpt lat="44.2823731" lon="8.4329758"><ele>8.0</ele><time>2026-05-03T12:28:21.195Z</time></trkpt><trkpt lat="44.2823182" lon="8.4329109"><ele>8.0</ele><time>2026-05-03T12:28:22.195Z</time></trkpt><trkpt lat="44.282261" lon="8.4327838"><ele>8.0</ele><time>2026-05-03T12:28:24.194Z</time></trkpt><trkpt lat="44.2822636" lon="8.4326683"><ele>7.999999999999999</ele><time>2026-05-03T12:28:26.194Z</time></trkpt><trkpt lat="44.2823224" lon="8.4325741"><ele>8.0</ele><time>2026-05-03T12:28:28.195Z</time></trkpt><trkpt lat="44.2824279" lon="8.4324862"><ele>7.800000000000001</ele><time>2026-05-03T12:28:30.195Z</time></trkpt><trkpt lat="44.2824915" lon="8.4324286"><ele>7.6000000000000005</ele><time>2026-05-03T12:28:31.196Z</time></trkpt><trkpt lat="44.2825501" lon="8.4323778"><ele>7.3999999999999995</ele><time>2026-05-03T12:28:32.194Z</time></trkpt><trkpt lat="44.2826226" lon="8.432324"><ele>7.199999999999999</ele><time>2026-05-03T12:28:33.195Z</time></trkpt><trkpt lat="44.282727" lon="8.4322665"><ele>7.0</ele><time>2026-05-03T12:28:34.195Z</time></trkpt><trkpt lat="44.2828295" lon="8.4322055"><ele>7.0</ele><time>2026-05-03T12:28:35.196Z</time></trkpt><trkpt lat="44.2829249" lon="8.4321493"><ele>6.999999999999999</ele><time>2026-05-03T12:28:36.195Z</time></trkpt><trkpt lat="44.2830184" lon="8.4320886"><ele>6.999999999999999</ele><time>2026-05-03T12:28:37.195Z</time></trkpt><trkpt lat="44.283112" lon="8.4320155"><ele>7.0</ele><time>2026-05-03T12:28:38.194Z</time></trkpt><trkpt lat="44.2831976" lon="8.4319589"><ele>7.0</ele><time>2026-05-03T12:28:39.194Z</time></trkpt><trkpt lat="44.2832931" lon="8.431895"><ele>7.0</ele><time>2026-05-03T12:28:40.195Z</time></trkpt><trkpt lat="44.2833964" lon="8.4318328"><ele>6.999999999999999</ele><time>2026-05-03T12:28:41.195Z</time></trkpt><trkpt lat="44.2834922" lon="8.4317675"><ele>6.999999999999999</ele><time>2026-05-03T12:28:42.195Z</time></trkpt><trkpt lat="44.2835856" lon="8.4316847"><ele>7.0</ele><time>2026-05-03T12:28:43.195Z</time></trkpt><trkpt lat="44.2836719" lon="8.4315915"><ele>7.0</ele><time>2026-05-03T12:28:44.195Z</time></trkpt><trkpt lat="44.2837545" lon="8.4314756"><ele>7.0</ele><time>2026-05-03T12:28:45.194Z</time></trkpt><trkpt lat="44.2838353" lon="8.4313531"><ele>7.0</ele><time>2026-05-03T12:28:46.194Z</time></trkpt><trkpt lat="44.283915" lon="8.4312334"><ele>7.0</ele><time>2026-05-03T12:28:47.196Z</time></trkpt><trkpt lat="44.2839989" lon="8.4311159"><ele>7.0</ele><time>2026-05-03T12:28:48.196Z</time></trkpt><trkpt lat="44.2840743" lon="8.4310027"><ele>7.500000000000001</ele><time>2026-05-03T12:28:49.195Z</time></trkpt><trkpt lat="44.2841386" lon="8.430887"><ele>8.0</ele><time>2026-05-03T12:28:50.196Z</time></trkpt><trkpt lat="44.2841941" lon="8.4307778"><ele>8.5</ele><time>2026-05-03T12:28:51.195Z</time></trkpt><trkpt lat="44.2842399" lon="8.4306817"><ele>9.0</ele><time>2026-05-03T12:28:52.195Z</time></trkpt><trkpt lat="44.2842816" lon="8.4306042"><ele>9.5</ele><time>2026-05-03T12:28:53.194Z</time></trkpt><trkpt lat="44.2843439" lon="8.4305087"><ele>10.0</ele><time>2026-05-03T12:28:55.195Z</time></trkpt><trkpt lat="44.2844272" lon="8.430556"><ele>10.0</ele><time>2026-05-03T12:28:57.195Z</time></trkpt><trkpt lat="44.2844864" lon="8.4306304"><ele>10.0</ele><time>2026-05-03T12:28:58.195Z</time></trkpt><trkpt lat="44.2845525" lon="8.4307206"><ele>10.0</ele><time>2026-05-03T12:28:59.196Z</time></trkpt><trkpt lat="44.2846128" lon="8.4308131"><ele>10.0</ele><time>2026-05-03T12:29:00.195Z</time></trkpt><trkpt lat="44.2846768" lon="8.4309155"><ele>10.0</ele><time>2026-05-03T12:29:01.196Z</time></trkpt><trkpt lat="44.2847438" lon="8.4310248"><ele>9.5</ele><time>2026-05-03T12:29:02.194Z</time></trkpt><trkpt lat="44.2848207" lon="8.4311475"><ele>9.0</ele><time>2026-05-03T12:29:03.196Z</time></trkpt><trkpt lat="44.284895" lon="8.4312793"><ele>8.5</ele><time>2026-05-03T12:29:04.195Z</time></trkpt><trkpt lat="44.2849708" lon="8.4314051"><ele>8.0</ele><time>2026-05-03T12:29:05.196Z</time></trkpt><trkpt lat="44.285052" lon="8.4315287"><ele>7.75</ele><time>2026-05-03T12:29:06.196Z</time></trkpt><trkpt lat="44.2851344" lon="8.4316518"><ele>7.5</ele><time>2026-05-03T12:29:07.196Z</time></trkpt><trkpt lat="44.2852198" lon="8.4317918"><ele>7.25</ele><time>2026-05-03T12:29:08.195Z</time></trkpt><trkpt lat="44.2853132" lon="8.4319301"><ele>7.0</ele><time>2026-05-03T12:29:09.195Z</time></trkpt><trkpt lat="44.2854008" lon="8.4320735"><ele>7.25</ele><time>2026-05-03T12:29:10.195Z</time></trkpt><trkpt lat="44.2854855" lon="8.4322145"><ele>7.5</ele><time>2026-05-03T12:29:11.196Z</time></trkpt><trkpt lat="44.2855661" lon="8.4323511"><ele>7.75</ele><time>2026-05-03T12:29:12.196Z</time></trkpt><trkpt lat="44.2856382" lon="8.4324794"><ele>8.0</ele><time>2026-05-03T12:29:13.196Z</time></trkpt><trkpt lat="44.2857073" lon="8.4326"><ele>8.0</ele><time>2026-05-03T12:29:14.196Z</time></trkpt><trkpt lat="44.2857737" lon="8.4327178"><ele>8.0</ele><time>2026-05-03T12:29:15.196Z</time></trkpt><trkpt lat="44.2858368" lon="8.4328282"><ele>8.0</ele><time>2026-05-03T12:29:16.196Z</time></trkpt><trkpt lat="44.2859" lon="8.432923"><ele>8.0</ele><time>2026-05-03T12:29:17.196Z</time></trkpt><trkpt lat="44.2859601" lon="8.433006"><ele>8.0</ele><time>2026-05-03T12:29:18.196Z</time></trkpt><trkpt lat="44.2860078" lon="8.4330784"><ele>8.0</ele><time>2026-05-03T12:29:19.195Z</time></trkpt><trkpt lat="44.2860625" lon="8.4331893"><ele>8.0</ele><time>2026-05-03T12:29:21.196Z</time></trkpt><trkpt lat="44.2861103" lon="8.4332747"><ele>8.0</ele><time>2026-05-03T12:29:23.197Z</time></trkpt><trkpt lat="44.2862122" lon="8.4332829"><ele>8.0</ele><time>2026-05-03T12:29:25.195Z</time></trkpt><trkpt lat="44.2862811" lon="8.4332422"><ele>8.0</ele><time>2026-05-03T12:29:26.196Z</time></trkpt><trkpt lat="44.2863523" lon="8.4331315"><ele>8.0</ele><time>2026-05-03T12:29:27.196Z</time></trkpt><trkpt lat="44.2864263" lon="8.4329977"><ele>8.0</ele><time>2026-05-03T12:29:28.195Z</time></trkpt><trkpt lat="44.2864965" lon="8.4328066"><ele>8.0</ele><time>2026-05-03T12:29:29.196Z</time></trkpt><trkpt lat="44.2865714" lon="8.4326537"><ele>8.0</ele><time>2026-05-03T12:29:30.196Z</time></trkpt><trkpt lat="44.286649" lon="8.4325058"><ele>8.0</ele><time>2026-05-03T12:29:31.196Z</time></trkpt><trkpt lat="44.2867201" lon="8.4323426"><ele>8.0</ele><time>2026-05-03T12:29:32.196Z</time></trkpt><trkpt lat="44.2867844" lon="8.4321846"><ele>8.0</ele><time>2026-05-03T12:29:33.196Z</time></trkpt><trkpt lat="44.286847" lon="8.4320208"><ele>8.0</ele><time>2026-05-03T12:29:34.196Z</time></trkpt><trkpt lat="44.2869143" lon="8.4318571"><ele>8.0</ele><time>2026-05-03T12:29:35.195Z</time></trkpt><trkpt lat="44.2869822" lon="8.4317105"><ele>8.0</ele><time>2026-05-03T12:29:36.196Z</time></trkpt><trkpt lat="44.2870519" lon="8.4315678"><ele>8.0</ele><time>2026-05-03T12:29:37.196Z</time></trkpt><trkpt lat="44.2871216" lon="8.4314191"><ele>8.0</ele><time>2026-05-03T12:29:38.196Z</time></trkpt><trkpt lat="44.2871922" lon="8.4312608"><ele>8.75</ele><time>2026-05-03T12:29:39.196Z</time></trkpt><trkpt lat="44.2872619" lon="8.4310916"><ele>9.5</ele><time>2026-05-03T12:29:40.197Z</time></trkpt><trkpt lat="44.2873262" lon="8.4309181"><ele>10.25</ele><time>2026-05-03T12:29:41.195Z</time></trkpt><trkpt lat="44.2873783" lon="8.4307419"><ele>11.0</ele><time>2026-05-03T12:29:42.197Z</time></trkpt><trkpt lat="44.2874179" lon="8.4305649"><ele>10.75</ele><time>2026-05-03T12:29:43.197Z</time></trkpt><trkpt lat="44.2874541" lon="8.4303813"><ele>10.5</ele><time>2026-05-03T12:29:44.196Z</time></trkpt><trkpt lat="44.2874976" lon="8.4301945"><ele>10.25</ele><time>2026-05-03T12:29:45.195Z</time></trkpt><trkpt lat="44.2875434" lon="8.4300064"><ele>10.0</ele><time>2026-05-03T12:29:46.196Z</time></trkpt><trkpt lat="44.287589" lon="8.4298173"><ele>10.0</ele><time>2026-05-03T12:29:47.195Z</time></trkpt><trkpt lat="44.2876344" lon="8.4296261"><ele>10.0</ele><time>2026-05-03T12:29:48.196Z</time></trkpt><trkpt lat="44.287678" lon="8.4294389"><ele>10.0</ele><time>2026-05-03T12:29:49.196Z</time></trkpt><trkpt lat="44.2877219" lon="8.4292524"><ele>10.0</ele><time>2026-05-03T12:29:50.196Z</time></trkpt><trkpt lat="44.2877653" lon="8.4290646"><ele>10.0</ele><time>2026-05-03T12:29:51.196Z</time></trkpt><trkpt lat="44.2878101" lon="8.4288729"><ele>10.0</ele><time>2026-05-03T12:29:52.195Z</time></trkpt><trkpt lat="44.287857" lon="8.4286775"><ele>10.0</ele><time>2026-05-03T12:29:53.195Z</time></trkpt><trkpt lat="44.2879036" lon="8.4284785"><ele>10.0</ele><time>2026-05-03T12:29:54.197Z</time></trkpt><trkpt lat="44.2879481" lon="8.4282815"><ele>10.0</ele><time>2026-05-03T12:29:55.196Z</time></trkpt><trkpt lat="44.2879926" lon="8.4280853"><ele>10.0</ele><time>2026-05-03T12:29:56.196Z</time></trkpt><trkpt lat="44.2880378" lon="8.4278942"><ele>10.0</ele><time>2026-05-03T12:29:57.196Z</time></trkpt><trkpt lat="44.2880885" lon="8.4277082"><ele>10.0</ele><time>2026-05-03T12:29:58.197Z</time></trkpt><trkpt lat="44.2881405" lon="8.4275217"><ele>10.0</ele><time>2026-05-03T12:29:59.196Z</time></trkpt><trkpt lat="44.2881949" lon="8.4273401"><ele>10.0</ele><time>2026-05-03T12:30:00.196Z</time></trkpt><trkpt lat="44.2882463" lon="8.4271555"><ele>10.0</ele><time>2026-05-03T12:30:01.197Z</time></trkpt><trkpt lat="44.2882989" lon="8.4269651"><ele>10.0</ele><time>2026-05-03T12:30:02.195Z</time></trkpt><trkpt lat="44.2883508" lon="8.4267745"><ele>10.5</ele><time>2026-05-03T12:30:03.197Z</time></trkpt><trkpt lat="44.2884015" lon="8.4265864"><ele>11.0</ele><time>2026-05-03T12:30:04.197Z</time></trkpt><trkpt lat="44.2884532" lon="8.4264004"><ele>11.5</ele><time>2026-05-03T12:30:05.197Z</time></trkpt><trkpt lat="44.2885039" lon="8.4262125"><ele>12.0</ele><time>2026-05-03T12:30:06.197Z</time></trkpt><trkpt lat="44.288554" lon="8.4260248"><ele>12.0</ele><time>2026-05-03T12:30:07.197Z</time></trkpt><trkpt lat="44.2886003" lon="8.4258386"><ele>12.0</ele><time>2026-05-03T12:30:08.197Z</time></trkpt><trkpt lat="44.2886459" lon="8.4256523"><ele>12.0</ele><time>2026-05-03T12:30:09.196Z</time></trkpt><trkpt lat="44.28869" lon="8.4254749"><ele>12.0</ele><time>2026-05-03T12:30:10.196Z</time></trkpt><trkpt lat="44.2887389" lon="8.4252857"><ele>11.75</ele><time>2026-05-03T12:30:11.196Z</time></trkpt><trkpt lat="44.2887941" lon="8.4251009"><ele>11.5</ele><time>2026-05-03T12:30:12.195Z</time></trkpt><trkpt lat="44.288853" lon="8.4249181"><ele>11.25</ele><time>2026-05-03T12:30:13.196Z</time></trkpt><trkpt lat="44.2889189" lon="8.4247343"><ele>11.0</ele><time>2026-05-03T12:30:14.196Z</time></trkpt><trkpt lat="44.2889856" lon="8.4245492"><ele>12.25</ele><time>2026-05-03T12:30:15.195Z</time></trkpt><trkpt lat="44.2890536" lon="8.4243693"><ele>13.5</ele><time>2026-05-03T12:30:16.197Z</time></trkpt><trkpt lat="44.2891267" lon="8.4241926"><ele>14.75</ele><time>2026-05-03T12:30:17.196Z</time></trkpt><trkpt lat="44.2892024" lon="8.4240154"><ele>16.0</ele><time>2026-05-03T12:30:18.196Z</time></trkpt><trkpt lat="44.2892769" lon="8.4238348"><ele>16.0</ele><time>2026-05-03T12:30:19.197Z</time></trkpt><trkpt lat="44.2893498" lon="8.423648"><ele>16.0</ele><time>2026-05-03T12:30:20.197Z</time></trkpt><trkpt lat="44.2894201" lon="8.4234581"><ele>16.0</ele><time>2026-05-03T12:30:21.197Z</time></trkpt><trkpt lat="44.2894832" lon="8.423262"><ele>16.0</ele><time>2026-05-03T12:30:22.196Z</time></trkpt><trkpt lat="44.2895446" lon="8.4230716"><ele>16.0</ele><time>2026-05-03T12:30:23.197Z</time></trkpt><trkpt lat="44.2896065" lon="8.4228748"><ele>16.0</ele><time>2026-05-03T12:30:24.196Z</time></trkpt><trkpt lat="44.2896694" lon="8.4226751"><ele>15.333333333333332</ele><time>2026-05-03T12:30:25.197Z</time></trkpt><trkpt lat="44.2897328" lon="8.4224716"><ele>14.666666666666668</ele><time>2026-05-03T12:30:26.196Z</time></trkpt><trkpt lat="44.289798" lon="8.4222674"><ele>14.0</ele><time>2026-05-03T12:30:27.197Z</time></trkpt><trkpt lat="44.2898652" lon="8.4220645"><ele>15.666666666666668</ele><time>2026-05-03T12:30:28.197Z</time></trkpt><trkpt lat="44.2899342" lon="8.4218574"><ele>17.333333333333332</ele><time>2026-05-03T12:30:29.197Z</time></trkpt><trkpt lat="44.2900022" lon="8.4216532"><ele>19.0</ele><time>2026-05-03T12:30:30.196Z</time></trkpt><trkpt lat="44.2900648" lon="8.4214511"><ele>17.666666666666664</ele><time>2026-05-03T12:30:31.196Z</time></trkpt><trkpt lat="44.2901264" lon="8.4212487"><ele>16.333333333333332</ele><time>2026-05-03T12:30:32.196Z</time></trkpt><trkpt lat="44.2901859" lon="8.4210443"><ele>15.0</ele><time>2026-05-03T12:30:33.197Z</time></trkpt><trkpt lat="44.2902486" lon="8.4208302"><ele>15.0</ele><time>2026-05-03T12:30:34.196Z</time></trkpt><trkpt lat="44.290311" lon="8.4206131"><ele>15.0</ele><time>2026-05-03T12:30:35.197Z</time></trkpt><trkpt lat="44.2903748" lon="8.4203952"><ele>15.0</ele><time>2026-05-03T12:30:36.197Z</time></trkpt><trkpt lat="44.2904506" lon="8.420185"><ele>14.666666666666668</ele><time>2026-05-03T12:30:37.197Z</time></trkpt><trkpt lat="44.2905381" lon="8.4199891"><ele>14.333333333333334</ele><time>2026-05-03T12:30:38.196Z</time></trkpt><trkpt lat="44.2906437" lon="8.4198079"><ele>14.0</ele><time>2026-05-03T12:30:39.197Z</time></trkpt><trkpt lat="44.2907532" lon="8.4196334"><ele>14.666666666666668</ele><time>2026-05-03T12:30:40.198Z</time></trkpt><trkpt lat="44.2908627" lon="8.4194559"><ele>15.333333333333332</ele><time>2026-05-03T12:30:41.197Z</time></trkpt><trkpt lat="44.2909697" lon="8.4192723"><ele>16.0</ele><time>2026-05-03T12:30:42.197Z</time></trkpt><trkpt lat="44.2910756" lon="8.4190849"><ele>16.0</ele><time>2026-05-03T12:30:43.197Z</time></trkpt><trkpt lat="44.2911693" lon="8.4188917"><ele>16.0</ele><time>2026-05-03T12:30:44.196Z</time></trkpt><trkpt lat="44.2912548" lon="8.4186998"><ele>16.0</ele><time>2026-05-03T12:30:45.197Z</time></trkpt><trkpt lat="44.2913316" lon="8.4185117"><ele>16.0</ele><time>2026-05-03T12:30:46.197Z</time></trkpt><trkpt lat="44.291401" lon="8.4183299"><ele>16.0</ele><time>2026-05-03T12:30:47.198Z</time></trkpt><trkpt lat="44.2914501" lon="8.4181489"><ele>16.0</ele><time>2026-05-03T12:30:48.198Z</time></trkpt><trkpt lat="44.2915022" lon="8.4179848"><ele>16.0</ele><time>2026-05-03T12:30:49.197Z</time></trkpt><trkpt lat="44.2915453" lon="8.417817"><ele>16.6</ele><time>2026-05-03T12:30:50.196Z</time></trkpt><trkpt lat="44.2915779" lon="8.417652"><ele>17.200000000000003</ele><time>2026-05-03T12:30:51.196Z</time></trkpt><trkpt lat="44.2915956" lon="8.4175019"><ele>17.799999999999997</ele><time>2026-05-03T12:30:52.197Z</time></trkpt><trkpt lat="44.2916066" lon="8.417347"><ele>18.4</ele><time>2026-05-03T12:30:53.196Z</time></trkpt><trkpt lat="44.2916159" lon="8.41721"><ele>19.0</ele><time>2026-05-03T12:30:54.196Z</time></trkpt><trkpt lat="44.2916273" lon="8.4171024"><ele>19.5</ele><time>2026-05-03T12:30:55.196Z</time></trkpt><trkpt lat="44.2916616" lon="8.4169884"><ele>20.0</ele><time>2026-05-03T12:30:57.197Z</time></trkpt><trkpt lat="44.2917278" lon="8.4170118"><ele>20.5</ele><time>2026-05-03T12:30:59.197Z</time></trkpt><trkpt lat="44.2918376" lon="8.4170197"><ele>21.0</ele><time>2026-05-03T12:31:01.198Z</time></trkpt><trkpt lat="44.2919338" lon="8.4169889"><ele>21.5</ele><time>2026-05-03T12:31:03.196Z</time></trkpt><trkpt lat="44.291984" lon="8.4169013"><ele>22.0</ele><time>2026-05-03T12:31:05.197Z</time></trkpt><trkpt lat="44.2918903" lon="8.4169399"><ele>22.0</ele><time>2026-05-03T12:31:32.197Z</time></trkpt><trkpt lat="44.2918288" lon="8.4169071"><ele>22.0</ele><time>2026-05-03T12:32:43.199Z</time></trkpt><trkpt lat="44.29189" lon="8.4169439"><ele>22.0</ele><time>2026-05-03T12:33:20.199Z</time></trkpt><trkpt lat="44.2920095" lon="8.4169294"><ele>22.0</ele><time>2026-05-03T12:33:27.199Z</time></trkpt><trkpt lat="44.2920822" lon="8.4169339"><ele>22.0</ele><time>2026-05-03T12:33:28.199Z</time></trkpt><trkpt lat="44.2921582" lon="8.416928"><ele>22.0</ele><time>2026-05-03T12:33:29.199Z</time></trkpt><trkpt lat="44.2922623" lon="8.4169401"><ele>22.0</ele><time>2026-05-03T12:33:31.199Z</time></trkpt><trkpt lat="44.292324" lon="8.4169751"><ele>22.0</ele><time>2026-05-03T12:33:32.198Z</time></trkpt><trkpt lat="44.2923724" lon="8.4170319"><ele>22.0</ele><time>2026-05-03T12:33:33.199Z</time></trkpt><trkpt lat="44.2924175" lon="8.4171619"><ele>22.0</ele><time>2026-05-03T12:33:35.199Z</time></trkpt><trkpt lat="44.2924579" lon="8.4172609"><ele>22.0</ele><time>2026-05-03T12:33:37.199Z</time></trkpt><trkpt lat="44.292555" lon="8.4172591"><ele>22.0</ele><time>2026-05-03T12:33:39.199Z</time></trkpt><trkpt lat="44.2926176" lon="8.4172428"><ele>22.0</ele><time>2026-05-03T12:33:40.198Z</time></trkpt><trkpt lat="44.2927372" lon="8.4171948"><ele>22.0</ele><time>2026-05-03T12:33:42.198Z</time></trkpt><trkpt lat="44.2928278" lon="8.4171219"><ele>22.0</ele><time>2026-05-03T12:33:44.199Z</time></trkpt><trkpt lat="44.2928576" lon="8.4170047"><ele>22.0</ele><time>2026-05-03T12:33:46.199Z</time></trkpt><trkpt lat="44.2928424" lon="8.4169161"><ele>22.0</ele><time>2026-05-03T12:33:47.199Z</time></trkpt><trkpt lat="44.2928258" lon="8.4168229"><ele>22.0</ele><time>2026-05-03T12:33:48.199Z</time></trkpt><trkpt lat="44.2928123" lon="8.4167216"><ele>22.0</ele><time>2026-05-03T12:33:49.199Z</time></trkpt><trkpt lat="44.2927978" lon="8.4166003"><ele>22.0</ele><time>2026-05-03T12:33:50.199Z</time></trkpt><trkpt lat="44.2927735" lon="8.4164698"><ele>22.0</ele><time>2026-05-03T12:33:51.199Z</time></trkpt><trkpt lat="44.2927472" lon="8.4163343"><ele>22.0</ele><time>2026-05-03T12:33:52.2Z</time></trkpt><trkpt lat="44.292723" lon="8.4161933"><ele>22.166666666666664</ele><time>2026-05-03T12:33:53.2Z</time></trkpt><trkpt lat="44.2927051" lon="8.4160639"><ele>22.333333333333332</ele><time>2026-05-03T12:33:54.2Z</time></trkpt><trkpt lat="44.2926948" lon="8.415933"><ele>22.5</ele><time>2026-05-03T12:33:55.2Z</time></trkpt><trkpt lat="44.2926935" lon="8.4158145"><ele>22.666666666666668</ele><time>2026-05-03T12:33:56.2Z</time></trkpt><trkpt lat="44.2926954" lon="8.4157049"><ele>22.833333333333336</ele><time>2026-05-03T12:33:57.2Z</time></trkpt><trkpt lat="44.2926927" lon="8.4156059"><ele>23.0</ele><time>2026-05-03T12:33:58.199Z</time></trkpt><trkpt lat="44.2926881" lon="8.4155128"><ele>23.2</ele><time>2026-05-03T12:33:59.2Z</time></trkpt><trkpt lat="44.2926511" lon="8.4154316"><ele>23.4</ele><time>2026-05-03T12:34:04.2Z</time></trkpt><trkpt lat="44.2925443" lon="8.4153894"><ele>23.599999999999998</ele><time>2026-05-03T12:34:06.199Z</time></trkpt><trkpt lat="44.2924258" lon="8.4153822"><ele>23.799999999999997</ele><time>2026-05-03T12:34:08.2Z</time></trkpt><trkpt lat="44.2923126" lon="8.415367"><ele>24.0</ele><time>2026-05-03T12:34:10.2Z</time></trkpt><trkpt lat="44.2922368" lon="8.4153508"><ele>24.0</ele><time>2026-05-03T12:34:11.2Z</time></trkpt><trkpt lat="44.2921622" lon="8.4153359"><ele>24.0</ele><time>2026-05-03T12:34:12.2Z</time></trkpt><trkpt lat="44.2920975" lon="8.415317"><ele>24.0</ele><time>2026-05-03T12:34:13.2Z</time></trkpt><trkpt lat="44.2920354" lon="8.4152893"><ele>24.0</ele><time>2026-05-03T12:34:14.199Z</time></trkpt><trkpt lat="44.2919622" lon="8.4152614"><ele>24.0</ele><time>2026-05-03T12:34:15.199Z</time></trkpt><trkpt lat="44.291835" lon="8.4152253"><ele>24.0</ele><time>2026-05-03T12:34:17.2Z</time></trkpt><trkpt lat="44.2917432" lon="8.4152102"><ele>24.0</ele><time>2026-05-03T12:34:19.199Z</time></trkpt><trkpt lat="44.2916796" lon="8.4152873"><ele>24.0</ele><time>2026-05-03T12:34:24.2Z</time></trkpt><trkpt lat="44.2916534" lon="8.4154279"><ele>24.0</ele><time>2026-05-03T12:34:26.2Z</time></trkpt><trkpt lat="44.2916768" lon="8.4156168"><ele>24.0</ele><time>2026-05-03T12:34:28.2Z</time></trkpt><trkpt lat="44.2916772" lon="8.415737"><ele>24.0</ele><time>2026-05-03T12:34:29.2Z</time></trkpt><trkpt lat="44.2916888" lon="8.4158838"><ele>23.6</ele><time>2026-05-03T12:34:30.2Z</time></trkpt><trkpt lat="44.2916867" lon="8.4160301"><ele>23.2</ele><time>2026-05-03T12:34:31.199Z</time></trkpt><trkpt lat="44.291683" lon="8.4161834"><ele>22.8</ele><time>2026-05-03T12:34:32.199Z</time></trkpt><trkpt lat="44.2916777" lon="8.4163363"><ele>22.400000000000002</ele><time>2026-05-03T12:34:33.2Z</time></trkpt><trkpt lat="44.2916751" lon="8.4164852"><ele>22.0</ele><time>2026-05-03T12:34:34.2Z</time></trkpt><trkpt lat="44.2916672" lon="8.4166456"><ele>22.0</ele><time>2026-05-03T12:34:35.2Z</time></trkpt><trkpt lat="44.2916547" lon="8.4168086"><ele>22.0</ele><time>2026-05-03T12:34:36.2Z</time></trkpt><trkpt lat="44.2916345" lon="8.4169682"><ele>22.0</ele><time>2026-05-03T12:34:37.199Z</time></trkpt><trkpt lat="44.2916054" lon="8.4171342"><ele>22.0</ele><time>2026-05-03T12:34:38.2Z</time></trkpt><trkpt lat="44.2915716" lon="8.4173119"><ele>21.25</ele><time>2026-05-03T12:34:39.199Z</time></trkpt><trkpt lat="44.2915347" lon="8.417498"><ele>20.5</ele><time>2026-05-03T12:34:40.2Z</time></trkpt><trkpt lat="44.2915014" lon="8.4176926"><ele>19.75</ele><time>2026-05-03T12:34:41.2Z</time></trkpt><trkpt lat="44.2914658" lon="8.4178859"><ele>19.0</ele><time>2026-05-03T12:34:42.2Z</time></trkpt><trkpt lat="44.2914241" lon="8.4180845"><ele>18.0</ele><time>2026-05-03T12:34:43.2Z</time></trkpt><trkpt lat="44.2913785" lon="8.4182818"><ele>17.0</ele><time>2026-05-03T12:34:44.2Z</time></trkpt><trkpt lat="44.2913145" lon="8.4184882"><ele>16.0</ele><time>2026-05-03T12:34:45.2Z</time></trkpt><trkpt lat="44.2912397" lon="8.4186965"><ele>16.0</ele><time>2026-05-03T12:34:46.2Z</time></trkpt><trkpt lat="44.2911524" lon="8.4189017"><ele>16.0</ele><time>2026-05-03T12:34:47.199Z</time></trkpt><trkpt lat="44.2910514" lon="8.4191048"><ele>16.0</ele><time>2026-05-03T12:34:48.199Z</time></trkpt><trkpt lat="44.2909457" lon="8.4193094"><ele>16.0</ele><time>2026-05-03T12:34:49.2Z</time></trkpt><trkpt lat="44.2908419" lon="8.4195009"><ele>16.0</ele><time>2026-05-03T12:34:50.199Z</time></trkpt><trkpt lat="44.2907377" lon="8.4196939"><ele>16.0</ele><time>2026-05-03T12:34:51.199Z</time></trkpt><trkpt lat="44.290635" lon="8.4198828"><ele>15.333333333333332</ele><time>2026-05-03T12:34:52.2Z</time></trkpt><trkpt lat="44.2905317" lon="8.4200678"><ele>14.666666666666668</ele><time>2026-05-03T12:34:53.2Z</time></trkpt><trkpt lat="44.2904312" lon="8.4202538"><ele>14.0</ele><time>2026-05-03T12:34:54.199Z</time></trkpt><trkpt lat="44.2903364" lon="8.4204482"><ele>14.333333333333334</ele><time>2026-05-03T12:34:55.2Z</time></trkpt><trkpt lat="44.2902529" lon="8.4206543"><ele>14.666666666666668</ele><time>2026-05-03T12:34:56.199Z</time></trkpt><trkpt lat="44.2901754" lon="8.4208699"><ele>15.0</ele><time>2026-05-03T12:34:57.199Z</time></trkpt><trkpt lat="44.2901068" lon="8.4210953"><ele>15.0</ele><time>2026-05-03T12:34:58.2Z</time></trkpt><trkpt lat="44.2900482" lon="8.4213126"><ele>15.0</ele><time>2026-05-03T12:34:59.199Z</time></trkpt><trkpt lat="44.289989" lon="8.4215365"><ele>15.0</ele><time>2026-05-03T12:35:00.2Z</time></trkpt><trkpt lat="44.2899227" lon="8.4217502"><ele>14.666666666666668</ele><time>2026-05-03T12:35:01.2Z</time></trkpt><trkpt lat="44.2898538" lon="8.4219663"><ele>14.333333333333334</ele><time>2026-05-03T12:35:02.199Z</time></trkpt><trkpt lat="44.2897779" lon="8.4221842"><ele>14.0</ele><time>2026-05-03T12:35:03.199Z</time></trkpt><trkpt lat="44.2897061" lon="8.4224074"><ele>14.0</ele><time>2026-05-03T12:35:04.199Z</time></trkpt><trkpt lat="44.289638" lon="8.4226319"><ele>14.0</ele><time>2026-05-03T12:35:05.2Z</time></trkpt><trkpt lat="44.2895684" lon="8.4228483"><ele>14.0</ele><time>2026-05-03T12:35:06.199Z</time></trkpt><trkpt lat="44.289503" lon="8.4230659"><ele>14.666666666666668</ele><time>2026-05-03T12:35:07.2Z</time></trkpt><trkpt lat="44.289437" lon="8.4232883"><ele>15.333333333333332</ele><time>2026-05-03T12:35:08.2Z</time></trkpt><trkpt lat="44.2893684" lon="8.4235185"><ele>16.0</ele><time>2026-05-03T12:35:09.2Z</time></trkpt><trkpt lat="44.2893028" lon="8.4237318"><ele>16.0</ele><time>2026-05-03T12:35:10.2Z</time></trkpt><trkpt lat="44.2892304" lon="8.4239459"><ele>16.0</ele><time>2026-05-03T12:35:11.201Z</time></trkpt><trkpt lat="44.289152" lon="8.42416"><ele>16.0</ele><time>2026-05-03T12:35:12.201Z</time></trkpt><trkpt lat="44.2890637" lon="8.4243606"><ele>16.0</ele><time>2026-05-03T12:35:13.2Z</time></trkpt><trkpt lat="44.288973" lon="8.4245707"><ele>16.0</ele><time>2026-05-03T12:35:14.201Z</time></trkpt><trkpt lat="44.2888857" lon="8.4247751"><ele>16.0</ele><time>2026-05-03T12:35:15.201Z</time></trkpt><trkpt lat="44.2888044" lon="8.4249807"><ele>14.666666666666666</ele><time>2026-05-03T12:35:16.2Z</time></trkpt><trkpt lat="44.2887266" lon="8.4251844"><ele>13.333333333333332</ele><time>2026-05-03T12:35:17.2Z</time></trkpt><trkpt lat="44.2886595" lon="8.4253943"><ele>12.0</ele><time>2026-05-03T12:35:18.2Z</time></trkpt><trkpt lat="44.2885999" lon="8.4256107"><ele>12.0</ele><time>2026-05-03T12:35:19.201Z</time></trkpt><trkpt lat="44.2885409" lon="8.4258341"><ele>12.0</ele><time>2026-05-03T12:35:20.2Z</time></trkpt><trkpt lat="44.288485" lon="8.4260581"><ele>12.0</ele><time>2026-05-03T12:35:21.2Z</time></trkpt><trkpt lat="44.2884301" lon="8.4262781"><ele>12.0</ele><time>2026-05-03T12:35:22.201Z</time></trkpt><trkpt lat="44.2883796" lon="8.4265014"><ele>12.0</ele><time>2026-05-03T12:35:23.2Z</time></trkpt><trkpt lat="44.2883242" lon="8.4267279"><ele>12.0</ele><time>2026-05-03T12:35:24.201Z</time></trkpt><trkpt lat="44.2882606" lon="8.4269427"><ele>11.333333333333334</ele><time>2026-05-03T12:35:25.201Z</time></trkpt><trkpt lat="44.2882014" lon="8.4271723"><ele>10.666666666666668</ele><time>2026-05-03T12:35:26.201Z</time></trkpt><trkpt lat="44.2881406" lon="8.4273864"><ele>10.0</ele><time>2026-05-03T12:35:27.201Z</time></trkpt><trkpt lat="44.288085" lon="8.4276003"><ele>9.666666666666668</ele><time>2026-05-03T12:35:28.2Z</time></trkpt><trkpt lat="44.2880349" lon="8.4278208"><ele>9.333333333333334</ele><time>2026-05-03T12:35:29.201Z</time></trkpt><trkpt lat="44.2879848" lon="8.4280443"><ele>9.0</ele><time>2026-05-03T12:35:30.2Z</time></trkpt><trkpt lat="44.2879314" lon="8.4282668"><ele>9.0</ele><time>2026-05-03T12:35:31.2Z</time></trkpt><trkpt lat="44.2878762" lon="8.4284923"><ele>9.0</ele><time>2026-05-03T12:35:32.2Z</time></trkpt><trkpt lat="44.2878198" lon="8.4287079"><ele>9.0</ele><time>2026-05-03T12:35:33.2Z</time></trkpt><trkpt lat="44.2877607" lon="8.428923"><ele>9.333333333333334</ele><time>2026-05-03T12:35:34.201Z</time></trkpt><trkpt lat="44.2877039" lon="8.4291315"><ele>9.666666666666668</ele><time>2026-05-03T12:35:35.201Z</time></trkpt><trkpt lat="44.2876511" lon="8.4293388"><ele>10.0</ele><time>2026-05-03T12:35:36.201Z</time></trkpt><trkpt lat="44.2875996" lon="8.4295461"><ele>10.0</ele><time>2026-05-03T12:35:37.201Z</time></trkpt><trkpt lat="44.2875421" lon="8.4297516"><ele>10.0</ele><time>2026-05-03T12:35:38.201Z</time></trkpt><trkpt lat="44.2874847" lon="8.4299625"><ele>10.0</ele><time>2026-05-03T12:35:39.201Z</time></trkpt><trkpt lat="44.2874292" lon="8.4301784"><ele>10.0</ele><time>2026-05-03T12:35:40.201Z</time></trkpt><trkpt lat="44.2873746" lon="8.4303906"><ele>10.0</ele><time>2026-05-03T12:35:41.2Z</time></trkpt><trkpt lat="44.2873205" lon="8.4306001"><ele>10.0</ele><time>2026-05-03T12:35:42.201Z</time></trkpt><trkpt lat="44.2872651" lon="8.4308113"><ele>9.666666666666668</ele><time>2026-05-03T12:35:43.201Z</time></trkpt><trkpt lat="44.2872026" lon="8.4310142"><ele>9.333333333333334</ele><time>2026-05-03T12:35:44.2Z</time></trkpt><trkpt lat="44.2871302" lon="8.4312141"><ele>9.0</ele><time>2026-05-03T12:35:45.201Z</time></trkpt><trkpt lat="44.2870502" lon="8.4313985"><ele>8.75</ele><time>2026-05-03T12:35:46.2Z</time></trkpt><trkpt lat="44.2869637" lon="8.4315668"><ele>8.5</ele><time>2026-05-03T12:35:47.201Z</time></trkpt><trkpt lat="44.286876" lon="8.4317272"><ele>8.25</ele><time>2026-05-03T12:35:48.201Z</time></trkpt><trkpt lat="44.2867845" lon="8.4318861"><ele>8.0</ele><time>2026-05-03T12:35:49.2Z</time></trkpt><trkpt lat="44.2866925" lon="8.4320595"><ele>8.0</ele><time>2026-05-03T12:35:50.2Z</time></trkpt><trkpt lat="44.2866042" lon="8.432223"><ele>8.0</ele><time>2026-05-03T12:35:51.2Z</time></trkpt><trkpt lat="44.2865209" lon="8.4323855"><ele>8.0</ele><time>2026-05-03T12:35:52.2Z</time></trkpt><trkpt lat="44.2864419" lon="8.4325403"><ele>8.0</ele><time>2026-05-03T12:35:53.201Z</time></trkpt><trkpt lat="44.286365" lon="8.4326812"><ele>8.0</ele><time>2026-05-03T12:35:54.2Z</time></trkpt><trkpt lat="44.2862897" lon="8.4327939"><ele>8.0</ele><time>2026-05-03T12:35:55.201Z</time></trkpt><trkpt lat="44.286223" lon="8.4328947"><ele>8.0</ele><time>2026-05-03T12:35:56.2Z</time></trkpt><trkpt lat="44.2861446" lon="8.4329665"><ele>8.0</ele><time>2026-05-03T12:35:57.2Z</time></trkpt><trkpt lat="44.2860635" lon="8.4330213"><ele>8.0</ele><time>2026-05-03T12:35:58.201Z</time></trkpt><trkpt lat="44.2859831" lon="8.4330898"><ele>8.0</ele><time>2026-05-03T12:35:59.201Z</time></trkpt><trkpt lat="44.2859083" lon="8.4331782"><ele>8.0</ele><time>2026-05-03T12:36:00.201Z</time></trkpt><trkpt lat="44.2858406" lon="8.4333167"><ele>8.0</ele><time>2026-05-03T12:36:01.201Z</time></trkpt><trkpt lat="44.2857569" lon="8.4334584"><ele>8.0</ele><time>2026-05-03T12:36:02.201Z</time></trkpt><trkpt lat="44.2856563" lon="8.4335831"><ele>8.0</ele><time>2026-05-03T12:36:03.2Z</time></trkpt><trkpt lat="44.2855457" lon="8.4336889"><ele>8.0</ele><time>2026-05-03T12:36:04.2Z</time></trkpt><trkpt lat="44.2854216" lon="8.4338023"><ele>8.0</ele><time>2026-05-03T12:36:05.2Z</time></trkpt><trkpt lat="44.2853002" lon="8.4339133"><ele>8.0</ele><time>2026-05-03T12:36:06.201Z</time></trkpt><trkpt lat="44.2851847" lon="8.4340362"><ele>8.25</ele><time>2026-05-03T12:36:07.201Z</time></trkpt><trkpt lat="44.2850876" lon="8.4341739"><ele>8.5</ele><time>2026-05-03T12:36:08.201Z</time></trkpt><trkpt lat="44.285003" lon="8.4343139"><ele>8.75</ele><time>2026-05-03T12:36:09.201Z</time></trkpt><trkpt lat="44.2849087" lon="8.4344634"><ele>9.0</ele><time>2026-05-03T12:36:10.2Z</time></trkpt><trkpt lat="44.2848279" lon="8.4345986"><ele>8.2</ele><time>2026-05-03T12:36:11.201Z</time></trkpt><trkpt lat="44.2847547" lon="8.4347396"><ele>7.4</ele><time>2026-05-03T12:36:12.201Z</time></trkpt><trkpt lat="44.2846987" lon="8.4348857"><ele>6.6</ele><time>2026-05-03T12:36:13.201Z</time></trkpt><trkpt lat="44.2846488" lon="8.4350169"><ele>5.8</ele><time>2026-05-03T12:36:14.201Z</time></trkpt><trkpt lat="44.2846067" lon="8.4351214"><ele>5.0</ele><time>2026-05-03T12:36:15.2Z</time></trkpt><trkpt lat="44.2845681" lon="8.4351994"><ele>5.0</ele><time>2026-05-03T12:36:16.201Z</time></trkpt><trkpt lat="44.2845303" lon="8.4353244"><ele>5.0</ele><time>2026-05-03T12:36:18.201Z</time></trkpt><trkpt lat="44.284626" lon="8.4354118"><ele>5.0</ele><time>2026-05-03T12:36:20.2Z</time></trkpt><trkpt lat="44.2847019" lon="8.4354621"><ele>5.0</ele><time>2026-05-03T12:36:21.201Z</time></trkpt><trkpt lat="44.2847951" lon="8.4355064"><ele>5.0</ele><time>2026-05-03T12:36:22.201Z</time></trkpt><trkpt lat="44.284911" lon="8.435573"><ele>6.0</ele><time>2026-05-03T12:36:23.2Z</time></trkpt><trkpt lat="44.2850226" lon="8.4356569"><ele>7.0</ele><time>2026-05-03T12:36:24.201Z</time></trkpt><trkpt lat="44.2851346" lon="8.4357523"><ele>8.0</ele><time>2026-05-03T12:36:25.2Z</time></trkpt><trkpt lat="44.285248" lon="8.4358452"><ele>9.0</ele><time>2026-05-03T12:36:26.201Z</time></trkpt><trkpt lat="44.2853533" lon="8.4359365"><ele>9.0</ele><time>2026-05-03T12:36:27.201Z</time></trkpt><trkpt lat="44.2854643" lon="8.4360363"><ele>9.0</ele><time>2026-05-03T12:36:28.202Z</time></trkpt><trkpt lat="44.2855784" lon="8.4361434"><ele>9.0</ele><time>2026-05-03T12:36:29.202Z</time></trkpt><trkpt lat="44.2856953" lon="8.4362583"><ele>9.0</ele><time>2026-05-03T12:36:30.202Z</time></trkpt><trkpt lat="44.2858142" lon="8.4363789"><ele>9.666666666666666</ele><time>2026-05-03T12:36:31.202Z</time></trkpt><trkpt lat="44.2859359" lon="8.4365076"><ele>10.333333333333332</ele><time>2026-05-03T12:36:32.201Z</time></trkpt><trkpt lat="44.2860596" lon="8.4366475"><ele>11.0</ele><time>2026-05-03T12:36:33.202Z</time></trkpt><trkpt lat="44.2861789" lon="8.4367924"><ele>11.0</ele><time>2026-05-03T12:36:34.202Z</time></trkpt><trkpt lat="44.2862909" lon="8.436941"><ele>11.0</ele><time>2026-05-03T12:36:35.202Z</time></trkpt><trkpt lat="44.2863993" lon="8.4371053"><ele>11.0</ele><time>2026-05-03T12:36:36.202Z</time></trkpt><trkpt lat="44.2865045" lon="8.437275"><ele>12.666666666666666</ele><time>2026-05-03T12:36:37.202Z</time></trkpt><trkpt lat="44.2866102" lon="8.4374449"><ele>14.333333333333332</ele><time>2026-05-03T12:36:38.202Z</time></trkpt><trkpt lat="44.2867199" lon="8.4376172"><ele>16.0</ele><time>2026-05-03T12:36:39.201Z</time></trkpt><trkpt lat="44.286827" lon="8.437796"><ele>15.666666666666666</ele><time>2026-05-03T12:36:40.202Z</time></trkpt><trkpt lat="44.2869259" lon="8.4379738"><ele>15.333333333333332</ele><time>2026-05-03T12:36:41.201Z</time></trkpt><trkpt lat="44.2870122" lon="8.4381527"><ele>15.0</ele><time>2026-05-03T12:36:42.202Z</time></trkpt><trkpt lat="44.2870912" lon="8.4383406"><ele>15.0</ele><time>2026-05-03T12:36:43.202Z</time></trkpt><trkpt lat="44.2871625" lon="8.4385303"><ele>15.0</ele><time>2026-05-03T12:36:44.201Z</time></trkpt><trkpt lat="44.2872432" lon="8.438724"><ele>15.0</ele><time>2026-05-03T12:36:45.201Z</time></trkpt><trkpt lat="44.2874839" lon="8.4393169"><ele>17.333333333333332</ele><time>2026-05-03T12:36:48.202Z</time></trkpt><trkpt lat="44.2875627" lon="8.4395067"><ele>19.666666666666664</ele><time>2026-05-03T12:36:49.202Z</time></trkpt><trkpt lat="44.2876445" lon="8.439695"><ele>22.0</ele><time>2026-05-03T12:36:50.202Z</time></trkpt><trkpt lat="44.287721" lon="8.4398939"><ele>22.0</ele><time>2026-05-03T12:36:51.201Z</time></trkpt><trkpt lat="44.2877956" lon="8.4400938"><ele>22.0</ele><time>2026-05-03T12:36:52.201Z</time></trkpt><trkpt lat="44.2878653" lon="8.4402884"><ele>22.0</ele><time>2026-05-03T12:36:53.201Z</time></trkpt><trkpt lat="44.2879333" lon="8.440478"><ele>22.333333333333332</ele><time>2026-05-03T12:36:54.202Z</time></trkpt><trkpt lat="44.2880027" lon="8.440678"><ele>22.666666666666668</ele><time>2026-05-03T12:36:55.201Z</time></trkpt><trkpt lat="44.2880693" lon="8.4408819"><ele>23.0</ele><time>2026-05-03T12:36:56.201Z</time></trkpt><trkpt lat="44.2881312" lon="8.4410981"><ele>23.333333333333336</ele><time>2026-05-03T12:36:57.202Z</time></trkpt><trkpt lat="44.2881913" lon="8.4413082"><ele>23.666666666666668</ele><time>2026-05-03T12:36:58.201Z</time></trkpt><trkpt lat="44.2882439" lon="8.4415024"><ele>24.0</ele><time>2026-05-03T12:36:59.201Z</time></trkpt><trkpt lat="44.2883014" lon="8.4416936"><ele>24.0</ele><time>2026-05-03T12:37:00.202Z</time></trkpt><trkpt lat="44.2883514" lon="8.4418674"><ele>24.0</ele><time>2026-05-03T12:37:01.202Z</time></trkpt><trkpt lat="44.2884044" lon="8.4420361"><ele>24.0</ele><time>2026-05-03T12:37:02.201Z</time></trkpt><trkpt lat="44.2884577" lon="8.4422054"><ele>24.0</ele><time>2026-05-03T12:37:03.201Z</time></trkpt><trkpt lat="44.2885031" lon="8.4423784"><ele>24.0</ele><time>2026-05-03T12:37:04.202Z</time></trkpt><trkpt lat="44.2885399" lon="8.442548"><ele>24.0</ele><time>2026-05-03T12:37:05.202Z</time></trkpt><trkpt lat="44.2885596" lon="8.4427246"><ele>24.0</ele><time>2026-05-03T12:37:06.202Z</time></trkpt><trkpt lat="44.2885488" lon="8.4428963"><ele>24.0</ele><time>2026-05-03T12:37:07.201Z</time></trkpt><trkpt lat="44.2885079" lon="8.4430741"><ele>25.333333333333336</ele><time>2026-05-03T12:37:08.202Z</time></trkpt><trkpt lat="44.2884417" lon="8.4432709"><ele>26.666666666666668</ele><time>2026-05-03T12:37:09.202Z</time></trkpt><trkpt lat="44.2883632" lon="8.443482"><ele>28.0</ele><time>2026-05-03T12:37:10.202Z</time></trkpt><trkpt lat="44.2882786" lon="8.4436971"><ele>27.333333333333336</ele><time>2026-05-03T12:37:11.201Z</time></trkpt><trkpt lat="44.2881888" lon="8.443902"><ele>26.666666666666664</ele><time>2026-05-03T12:37:12.201Z</time></trkpt><trkpt lat="44.2881006" lon="8.4440953"><ele>26.0</ele><time>2026-05-03T12:37:13.202Z</time></trkpt><trkpt lat="44.2880147" lon="8.4442687"><ele>26.0</ele><time>2026-05-03T12:37:14.202Z</time></trkpt><trkpt lat="44.2879305" lon="8.4444226"><ele>26.0</ele><time>2026-05-03T12:37:15.201Z</time></trkpt><trkpt lat="44.2878515" lon="8.4445687"><ele>26.0</ele><time>2026-05-03T12:37:16.201Z</time></trkpt><trkpt lat="44.2877843" lon="8.4446987"><ele>26.0</ele><time>2026-05-03T12:37:17.202Z</time></trkpt><trkpt lat="44.2877193" lon="8.4448087"><ele>25.666666666666664</ele><time>2026-05-03T12:37:18.201Z</time></trkpt><trkpt lat="44.287661" lon="8.444902"><ele>25.333333333333332</ele><time>2026-05-03T12:37:19.201Z</time></trkpt><trkpt lat="44.2876279" lon="8.4449999"><ele>25.0</ele><time>2026-05-03T12:37:20.202Z</time></trkpt><trkpt lat="44.2876201" lon="8.445119"><ele>24.666666666666664</ele><time>2026-05-03T12:37:21.201Z</time></trkpt><trkpt lat="44.2876288" lon="8.445227"><ele>24.333333333333332</ele><time>2026-05-03T12:37:22.202Z</time></trkpt><trkpt lat="44.2876337" lon="8.4453316"><ele>24.0</ele><time>2026-05-03T12:37:23.201Z</time></trkpt><trkpt lat="44.2876319" lon="8.4454707"><ele>23.6</ele><time>2026-05-03T12:37:24.201Z</time></trkpt><trkpt lat="44.2876351" lon="8.4456136"><ele>23.2</ele><time>2026-05-03T12:37:25.202Z</time></trkpt><trkpt lat="44.2876372" lon="8.4457616"><ele>22.8</ele><time>2026-05-03T12:37:26.202Z</time></trkpt><trkpt lat="44.2876381" lon="8.4459052"><ele>22.400000000000002</ele><time>2026-05-03T12:37:27.202Z</time></trkpt><trkpt lat="44.2876427" lon="8.4460284"><ele>22.0</ele><time>2026-05-03T12:37:28.201Z</time></trkpt><trkpt lat="44.2876611" lon="8.4461264"><ele>22.0</ele><time>2026-05-03T12:37:29.201Z</time></trkpt><trkpt lat="44.2877338" lon="8.4462109"><ele>22.0</ele><time>2026-05-03T12:37:31.201Z</time></trkpt><trkpt lat="44.28787" lon="8.4461971"><ele>22.0</ele><time>2026-05-03T12:37:33.202Z</time></trkpt><trkpt lat="44.2879462" lon="8.4461017"><ele>22.0</ele><time>2026-05-03T12:37:34.202Z</time></trkpt><trkpt lat="44.2880243" lon="8.4459935"><ele>22.0</ele><time>2026-05-03T12:37:35.202Z</time></trkpt><trkpt lat="44.2881065" lon="8.4458898"><ele>24.200000000000003</ele><time>2026-05-03T12:37:36.202Z</time></trkpt><trkpt lat="44.2881882" lon="8.4458265"><ele>26.4</ele><time>2026-05-03T12:37:37.201Z</time></trkpt><trkpt lat="44.2882715" lon="8.4458031"><ele>28.599999999999998</ele><time>2026-05-03T12:37:38.202Z</time></trkpt><trkpt lat="44.2883685" lon="8.4458143"><ele>30.799999999999997</ele><time>2026-05-03T12:37:39.202Z</time></trkpt><trkpt lat="44.2884746" lon="8.4458186"><ele>33.0</ele><time>2026-05-03T12:37:40.201Z</time></trkpt><trkpt lat="44.2885873" lon="8.4457984"><ele>33.0</ele><time>2026-05-03T12:37:41.202Z</time></trkpt><trkpt lat="44.2886988" lon="8.4457492"><ele>33.0</ele><time>2026-05-03T12:37:42.202Z</time></trkpt><trkpt lat="44.2887908" lon="8.4456661"><ele>33.0</ele><time>2026-05-03T12:37:43.201Z</time></trkpt><trkpt lat="44.2888816" lon="8.4455583"><ele>33.0</ele><time>2026-05-03T12:37:44.201Z</time></trkpt><trkpt lat="44.2889687" lon="8.4454394"><ele>34.8</ele><time>2026-05-03T12:37:45.201Z</time></trkpt><trkpt lat="44.2890516" lon="8.4453331"><ele>36.599999999999994</ele><time>2026-05-03T12:37:46.203Z</time></trkpt><trkpt lat="44.2891379" lon="8.4452434"><ele>38.400000000000006</ele><time>2026-05-03T12:37:47.202Z</time></trkpt><trkpt lat="44.2892183" lon="8.4451597"><ele>40.2</ele><time>2026-05-03T12:37:48.202Z</time></trkpt><trkpt lat="44.2892915" lon="8.4450709"><ele>42.0</ele><time>2026-05-03T12:37:49.202Z</time></trkpt><trkpt lat="44.289354" lon="8.4449808"><ele>42.0</ele><time>2026-05-03T12:37:50.203Z</time></trkpt><trkpt lat="44.2894071" lon="8.4448855"><ele>42.0</ele><time>2026-05-03T12:37:51.203Z</time></trkpt><trkpt lat="44.2894507" lon="8.4447896"><ele>42.0</ele><time>2026-05-03T12:37:52.203Z</time></trkpt><trkpt lat="44.2894993" lon="8.4447223"><ele>42.0</ele><time>2026-05-03T12:37:53.203Z</time></trkpt><trkpt lat="44.2896226" lon="8.4447164"><ele>42.0</ele><time>2026-05-03T12:37:55.202Z</time></trkpt><trkpt lat="44.2896932" lon="8.4447664"><ele>42.0</ele><time>2026-05-03T12:37:56.203Z</time></trkpt><trkpt lat="44.2897712" lon="8.444835"><ele>42.0</ele><time>2026-05-03T12:37:57.203Z</time></trkpt><trkpt lat="44.2898547" lon="8.4449378"><ele>42.0</ele><time>2026-05-03T12:37:58.203Z</time></trkpt><trkpt lat="44.2899521" lon="8.4450734"><ele>42.0</ele><time>2026-05-03T12:37:59.203Z</time></trkpt><trkpt lat="44.2900675" lon="8.4452038"><ele>42.0</ele><time>2026-05-03T12:38:00.202Z</time></trkpt><trkpt lat="44.29018" lon="8.4453391"><ele>41.75</ele><time>2026-05-03T12:38:01.202Z</time></trkpt><trkpt lat="44.2903003" lon="8.4454665"><ele>41.5</ele><time>2026-05-03T12:38:02.203Z</time></trkpt><trkpt lat="44.2904135" lon="8.4455785"><ele>41.25</ele><time>2026-05-03T12:38:03.203Z</time></trkpt><trkpt lat="44.2905274" lon="8.4456869"><ele>41.0</ele><time>2026-05-03T12:38:04.203Z</time></trkpt><trkpt lat="44.2906399" lon="8.4457933"><ele>40.5</ele><time>2026-05-03T12:38:05.203Z</time></trkpt><trkpt lat="44.2907488" lon="8.4458961"><ele>40.0</ele><time>2026-05-03T12:38:06.202Z</time></trkpt><trkpt lat="44.2908548" lon="8.4459894"><ele>39.5</ele><time>2026-05-03T12:38:07.202Z</time></trkpt><trkpt lat="44.2909493" lon="8.4460682"><ele>39.0</ele><time>2026-05-03T12:38:08.203Z</time></trkpt><trkpt lat="44.2910316" lon="8.4461321"><ele>39.0</ele><time>2026-05-03T12:38:09.203Z</time></trkpt><trkpt lat="44.2911031" lon="8.4461805"><ele>39.0</ele><time>2026-05-03T12:38:10.203Z</time></trkpt><trkpt lat="44.291164" lon="8.4462186"><ele>39.0</ele><time>2026-05-03T12:38:11.203Z</time></trkpt><trkpt lat="44.2912204" lon="8.446302"><ele>39.0</ele><time>2026-05-03T12:38:13.203Z</time></trkpt><trkpt lat="44.2912152" lon="8.4464645"><ele>39.0</ele><time>2026-05-03T12:38:15.203Z</time></trkpt><trkpt lat="44.2911959" lon="8.4465673"><ele>39.0</ele><time>2026-05-03T12:38:16.203Z</time></trkpt><trkpt lat="44.2911498" lon="8.4466792"><ele>38.6</ele><time>2026-05-03T12:38:17.203Z</time></trkpt><trkpt lat="44.2911024" lon="8.4467943"><ele>38.2</ele><time>2026-05-03T12:38:18.203Z</time></trkpt><trkpt lat="44.29108" lon="8.4469307"><ele>37.800000000000004</ele><time>2026-05-03T12:38:19.203Z</time></trkpt><trkpt lat="44.2910811" lon="8.4470837"><ele>37.4</ele><time>2026-05-03T12:38:20.202Z</time></trkpt><trkpt lat="44.291096" lon="8.4472322"><ele>37.0</ele><time>2026-05-03T12:38:21.202Z</time></trkpt><trkpt lat="44.2911213" lon="8.4473775"><ele>36.5</ele><time>2026-05-03T12:38:22.203Z</time></trkpt><trkpt lat="44.2911538" lon="8.4475173"><ele>36.0</ele><time>2026-05-03T12:38:23.203Z</time></trkpt><trkpt lat="44.2911764" lon="8.4476442"><ele>35.5</ele><time>2026-05-03T12:38:24.203Z</time></trkpt><trkpt lat="44.2911956" lon="8.4477654"><ele>35.0</ele><time>2026-05-03T12:38:25.203Z</time></trkpt><trkpt lat="44.2911956" lon="8.4478752"><ele>34.5</ele><time>2026-05-03T12:38:26.203Z</time></trkpt><trkpt lat="44.2911937" lon="8.4479839"><ele>34.0</ele><time>2026-05-03T12:38:27.202Z</time></trkpt><trkpt lat="44.2911741" lon="8.4480789"><ele>34.0</ele><time>2026-05-03T12:38:28.203Z</time></trkpt><trkpt lat="44.2911423" lon="8.4481678"><ele>34.0</ele><time>2026-05-03T12:38:29.203Z</time></trkpt><trkpt lat="44.2910636" lon="8.4483006"><ele>34.0</ele><time>2026-05-03T12:38:31.203Z</time></trkpt><trkpt lat="44.2910171" lon="8.4483995"><ele>34.0</ele><time>2026-05-03T12:38:33.203Z</time></trkpt><trkpt lat="44.2909957" lon="8.4484908"><ele>34.0</ele><time>2026-05-03T12:38:35.203Z</time></trkpt><trkpt lat="44.2909663" lon="8.4485908"><ele>34.0</ele><time>2026-05-03T12:38:37.203Z</time></trkpt><trkpt lat="44.2909634" lon="8.4486915"><ele>33.99999999999999</ele><time>2026-05-03T12:38:43.203Z</time></trkpt><trkpt lat="44.290933" lon="8.448793"><ele>34.0</ele><time>2026-05-03T12:38:45.203Z</time></trkpt><trkpt lat="44.2909075" lon="8.4488817"><ele>34.0</ele><time>2026-05-03T12:38:47.203Z</time></trkpt><trkpt lat="44.2908628" lon="8.448959"><ele>34.0</ele><time>2026-05-03T12:38:52.202Z</time></trkpt><trkpt lat="44.2908301" lon="8.449056"><ele>34.0</ele><time>2026-05-03T12:38:54.202Z</time></trkpt><trkpt lat="44.2908073" lon="8.4491704"><ele>33.99999999999999</ele><time>2026-05-03T12:38:56.202Z</time></trkpt><trkpt lat="44.2907863" lon="8.44926"><ele>34.0</ele><time>2026-05-03T12:39:02.203Z</time></trkpt><trkpt lat="44.2907656" lon="8.4493574"><ele>34.0</ele><time>2026-05-03T12:39:04.202Z</time></trkpt><trkpt lat="44.2907622" lon="8.4495208"><ele>34.0</ele><time>2026-05-03T12:39:06.202Z</time></trkpt><trkpt lat="44.2908285" lon="8.4496597"><ele>34.0</ele><time>2026-05-03T12:39:08.204Z</time></trkpt><trkpt lat="44.2908915" lon="8.4497264"><ele>34.0</ele><time>2026-05-03T12:39:09.204Z</time></trkpt><trkpt lat="44.2909744" lon="8.4497789"><ele>34.0</ele><time>2026-05-03T12:39:10.203Z</time></trkpt><trkpt lat="44.2910572" lon="8.4498194"><ele>32.16666666666667</ele><time>2026-05-03T12:39:11.204Z</time></trkpt><trkpt lat="44.2911426" lon="8.4498633"><ele>30.333333333333336</ele><time>2026-05-03T12:39:12.204Z</time></trkpt><trkpt lat="44.2912233" lon="8.4499013"><ele>28.5</ele><time>2026-05-03T12:39:13.204Z</time></trkpt><trkpt lat="44.2913015" lon="8.4499249"><ele>26.666666666666668</ele><time>2026-05-03T12:39:14.204Z</time></trkpt><trkpt lat="44.2913731" lon="8.4499362"><ele>24.833333333333336</ele><time>2026-05-03T12:39:15.204Z</time></trkpt><trkpt lat="44.291487" lon="8.4499726"><ele>23.0</ele><time>2026-05-03T12:39:17.204Z</time></trkpt><trkpt lat="44.2915303" lon="8.4501366"><ele>22.333333333333336</ele><time>2026-05-03T12:39:19.204Z</time></trkpt><trkpt lat="44.2915219" lon="8.4502515"><ele>21.666666666666668</ele><time>2026-05-03T12:39:20.204Z</time></trkpt><trkpt lat="44.2914971" lon="8.4503545"><ele>21.0</ele><time>2026-05-03T12:39:21.203Z</time></trkpt><trkpt lat="44.291463" lon="8.4504416"><ele>20.333333333333332</ele><time>2026-05-03T12:39:22.204Z</time></trkpt><trkpt lat="44.2913681" lon="8.4505409"><ele>19.666666666666664</ele><time>2026-05-03T12:39:24.204Z</time></trkpt><trkpt lat="44.2913002" lon="8.4505514"><ele>19.0</ele><time>2026-05-03T12:39:25.204Z</time></trkpt><trkpt lat="44.2912087" lon="8.450545"><ele>19.799999999999997</ele><time>2026-05-03T12:39:26.204Z</time></trkpt><trkpt lat="44.2911268" lon="8.4505393"><ele>20.599999999999998</ele><time>2026-05-03T12:39:27.204Z</time></trkpt><trkpt lat="44.2910324" lon="8.450521"><ele>21.4</ele><time>2026-05-03T12:39:28.204Z</time></trkpt><trkpt lat="44.2909445" lon="8.4504867"><ele>22.2</ele><time>2026-05-03T12:39:29.203Z</time></trkpt><trkpt lat="44.2908496" lon="8.4504464"><ele>23.0</ele><time>2026-05-03T12:39:30.203Z</time></trkpt><trkpt lat="44.2906788" lon="8.4502622"><ele>20.25</ele><time>2026-05-03T12:39:31.204Z</time></trkpt><trkpt lat="44.2905806" lon="8.4501894"><ele>17.5</ele><time>2026-05-03T12:39:32.204Z</time></trkpt><trkpt lat="44.2904719" lon="8.4501047"><ele>14.75</ele><time>2026-05-03T12:39:33.204Z</time></trkpt><trkpt lat="44.2903739" lon="8.4500225"><ele>12.0</ele><time>2026-05-03T12:39:34.203Z</time></trkpt><trkpt lat="44.2902749" lon="8.4499381"><ele>12.0</ele><time>2026-05-03T12:39:35.203Z</time></trkpt><trkpt lat="44.2901839" lon="8.4498571"><ele>12.0</ele><time>2026-05-03T12:39:36.204Z</time></trkpt><trkpt lat="44.2900953" lon="8.4497857"><ele>12.0</ele><time>2026-05-03T12:39:37.204Z</time></trkpt><trkpt lat="44.290007" lon="8.449725"><ele>12.0</ele><time>2026-05-03T12:39:38.204Z</time></trkpt><trkpt lat="44.2899184" lon="8.4496657"><ele>12.0</ele><time>2026-05-03T12:39:39.204Z</time></trkpt><trkpt lat="44.2898248" lon="8.4495948"><ele>12.166666666666666</ele><time>2026-05-03T12:39:40.204Z</time></trkpt><trkpt lat="44.2897396" lon="8.4495218"><ele>12.333333333333332</ele><time>2026-05-03T12:39:41.203Z</time></trkpt><trkpt lat="44.2896596" lon="8.4494399"><ele>12.5</ele><time>2026-05-03T12:39:42.204Z</time></trkpt><trkpt lat="44.2895867" lon="8.4493643"><ele>12.666666666666666</ele><time>2026-05-03T12:39:43.204Z</time></trkpt><trkpt lat="44.2895227" lon="8.4492937"><ele>12.833333333333332</ele><time>2026-05-03T12:39:44.203Z</time></trkpt><trkpt lat="44.2894616" lon="8.4492288"><ele>13.0</ele><time>2026-05-03T12:39:45.204Z</time></trkpt><trkpt lat="44.2894014" lon="8.4491172"><ele>12.999999999999998</ele><time>2026-05-03T12:39:47.203Z</time></trkpt><trkpt lat="44.2894029" lon="8.4490253"><ele>13.0</ele><time>2026-05-03T12:39:49.204Z</time></trkpt><trkpt lat="44.2893767" lon="8.4489258"><ele>13.0</ele><time>2026-05-03T12:39:51.204Z</time></trkpt><trkpt lat="44.2893315" lon="8.4488434"><ele>13.0</ele><time>2026-05-03T12:39:55.204Z</time></trkpt><trkpt lat="44.2892569" lon="8.4487973"><ele>12.999999999999998</ele><time>2026-05-03T12:39:58.203Z</time></trkpt><trkpt lat="44.289294" lon="8.4488706"><ele>13.0</ele><time>2026-05-03T12:40:48.204Z</time></trkpt><trkpt lat="44.2894027" lon="8.448879"><ele>13.0</ele><time>2026-05-03T12:41:59.206Z</time></trkpt><trkpt lat="44.2894544" lon="8.4489353"><ele>13.0</ele><time>2026-05-03T12:43:06.207Z</time></trkpt><trkpt lat="44.2893895" lon="8.4489418"><ele>13.0</ele><time>2026-05-03T12:43:41.285Z</time></trkpt><trkpt lat="44.2893309" lon="8.4488979"><ele>13.0</ele><time>2026-05-03T12:49:11.239Z</time></trkpt><trkpt lat="44.2893472" lon="8.4489862"><ele>13.0</ele><time>2026-05-03T12:49:50.129Z</time></trkpt><trkpt lat="44.2892915" lon="8.4489155"><ele>13.0</ele><time>2026-05-03T12:50:39.28Z</time></trkpt><trkpt lat="44.2893794" lon="8.4489182"><ele>13.0</ele><time>2026-05-03T12:51:11.212Z</time></trkpt><trkpt lat="44.289442" lon="8.4489035"><ele>13.0</ele><time>2026-05-03T12:54:40.236Z</time></trkpt><trkpt lat="44.2893631" lon="8.4488969"><ele>13.0</ele><time>2026-05-03T12:55:14.237Z</time></trkpt><trkpt lat="44.2893688" lon="8.4489849"><ele>13.0</ele><time>2026-05-03T12:55:49.242Z</time></trkpt><trkpt lat="44.2894184" lon="8.448926"><ele>13.0</ele><time>2026-05-03T12:56:06.254Z</time></trkpt><trkpt lat="44.2893577" lon="8.4489497"><ele>13.0</ele><time>2026-05-03T12:56:27.256Z</time></trkpt><trkpt lat="44.2894215" lon="8.4489439"><ele>13.0</ele><time>2026-05-03T12:58:32.22Z</time></trkpt><trkpt lat="44.2893535" lon="8.4489321"><ele>13.0</ele><time>2026-05-03T12:59:55.281Z</time></trkpt><trkpt lat="44.2894239" lon="8.4489424"><ele>12.999999999999998</ele><time>2026-05-03T13:00:03.235Z</time></trkpt><trkpt lat="44.2893507" lon="8.4489442"><ele>13.0</ele><time>2026-05-03T13:04:50.245Z</time></trkpt><trkpt lat="44.2894318" lon="8.4489066"><ele>13.0</ele><time>2026-05-03T13:05:08.249Z</time></trkpt><trkpt lat="44.2894964" lon="8.4488919"><ele>13.0</ele><time>2026-05-03T13:05:24.304Z</time></trkpt><trkpt lat="44.2893884" lon="8.4488996"><ele>12.999999999999998</ele><time>2026-05-03T13:05:35.283Z</time></trkpt><trkpt lat="44.2894594" lon="8.4488719"><ele>13.0</ele><time>2026-05-03T13:07:41.271Z</time></trkpt><trkpt lat="44.2893937" lon="8.448771"><ele>13.0</ele><time>2026-05-03T13:08:30.225Z</time></trkpt><trkpt lat="44.2893133" lon="8.4488073"><ele>13.0</ele><time>2026-05-03T13:09:12.55Z</time></trkpt><trkpt lat="44.2892575" lon="8.4488633"><ele>13.0</ele><time>2026-05-03T13:09:22.264Z</time></trkpt><trkpt lat="44.2892249" lon="8.4487426"><ele>13.0</ele><time>2026-05-03T13:09:50.289Z</time></trkpt><trkpt lat="44.2891602" lon="8.448739"><ele>13.0</ele><time>2026-05-03T13:09:58.23Z</time></trkpt><trkpt lat="44.2890166" lon="8.4486961"><ele>13.4</ele><time>2026-05-03T13:10:01.224Z</time></trkpt><trkpt lat="44.2889631" lon="8.4486301"><ele>13.8</ele><time>2026-05-03T13:10:02.225Z</time></trkpt><trkpt lat="44.2888992" lon="8.4485421"><ele>14.2</ele><time>2026-05-03T13:10:03.225Z</time></trkpt><trkpt lat="44.2888327" lon="8.4484485"><ele>14.6</ele><time>2026-05-03T13:10:04.225Z</time></trkpt><trkpt lat="44.2887631" lon="8.448355"><ele>15.0</ele><time>2026-05-03T13:10:05.225Z</time></trkpt><trkpt lat="44.2886868" lon="8.4482509"><ele>15.0</ele><time>2026-05-03T13:10:06.225Z</time></trkpt><trkpt lat="44.2886088" lon="8.4481443"><ele>15.0</ele><time>2026-05-03T13:10:07.224Z</time></trkpt><trkpt lat="44.288534" lon="8.4480338"><ele>15.0</ele><time>2026-05-03T13:10:08.224Z</time></trkpt><trkpt lat="44.2884622" lon="8.4479241"><ele>15.0</ele><time>2026-05-03T13:10:09.225Z</time></trkpt><trkpt lat="44.2883873" lon="8.4478113"><ele>15.0</ele><time>2026-05-03T13:10:10.224Z</time></trkpt><trkpt lat="44.2883098" lon="8.4476922"><ele>14.5</ele><time>2026-05-03T13:10:11.225Z</time></trkpt><trkpt lat="44.2882289" lon="8.4475669"><ele>14.0</ele><time>2026-05-03T13:10:12.225Z</time></trkpt><trkpt lat="44.2881422" lon="8.4474365"><ele>13.5</ele><time>2026-05-03T13:10:13.224Z</time></trkpt><trkpt lat="44.2880556" lon="8.4473032"><ele>13.0</ele><time>2026-05-03T13:10:14.225Z</time></trkpt><trkpt lat="44.2879723" lon="8.447162"><ele>14.25</ele><time>2026-05-03T13:10:15.225Z</time></trkpt><trkpt lat="44.2878883" lon="8.4470185"><ele>15.5</ele><time>2026-05-03T13:10:16.225Z</time></trkpt><trkpt lat="44.2878046" lon="8.4468758"><ele>16.75</ele><time>2026-05-03T13:10:17.225Z</time></trkpt><trkpt lat="44.2877247" lon="8.4467358"><ele>18.0</ele><time>2026-05-03T13:10:18.225Z</time></trkpt><trkpt lat="44.2876529" lon="8.4465931"><ele>18.0</ele><time>2026-05-03T13:10:19.224Z</time></trkpt><trkpt lat="44.2875937" lon="8.4464398"><ele>18.0</ele><time>2026-05-03T13:10:20.224Z</time></trkpt><trkpt lat="44.2875467" lon="8.4462867"><ele>18.0</ele><time>2026-05-03T13:10:21.225Z</time></trkpt><trkpt lat="44.2875058" lon="8.4461419"><ele>18.0</ele><time>2026-05-03T13:10:22.225Z</time></trkpt><trkpt lat="44.2874696" lon="8.4460135"><ele>18.666666666666668</ele><time>2026-05-03T13:10:23.225Z</time></trkpt><trkpt lat="44.2874463" lon="8.4458929"><ele>19.333333333333332</ele><time>2026-05-03T13:10:24.225Z</time></trkpt><trkpt lat="44.2874266" lon="8.4458048"><ele>20.0</ele><time>2026-05-03T13:10:25.225Z</time></trkpt><trkpt lat="44.287393" lon="8.4456719"><ele>20.666666666666664</ele><time>2026-05-03T13:10:27.225Z</time></trkpt><trkpt lat="44.2873743" lon="8.4455849"><ele>21.333333333333332</ele><time>2026-05-03T13:10:28.225Z</time></trkpt><trkpt lat="44.2873702" lon="8.4454696"><ele>22.0</ele><time>2026-05-03T13:10:29.225Z</time></trkpt><trkpt lat="44.2873906" lon="8.4453457"><ele>22.400000000000002</ele><time>2026-05-03T13:10:30.224Z</time></trkpt><trkpt lat="44.2874372" lon="8.4452282"><ele>22.8</ele><time>2026-05-03T13:10:31.225Z</time></trkpt><trkpt lat="44.2875089" lon="8.4451042"><ele>23.2</ele><time>2026-05-03T13:10:32.225Z</time></trkpt><trkpt lat="44.2875822" lon="8.4449766"><ele>23.6</ele><time>2026-05-03T13:10:33.225Z</time></trkpt><trkpt lat="44.2876494" lon="8.4448502"><ele>24.0</ele><time>2026-05-03T13:10:34.225Z</time></trkpt><trkpt lat="44.2877115" lon="8.44473"><ele>24.5</ele><time>2026-05-03T13:10:35.224Z</time></trkpt><trkpt lat="44.2877779" lon="8.4446075"><ele>25.0</ele><time>2026-05-03T13:10:36.225Z</time></trkpt><trkpt lat="44.2878436" lon="8.444486"><ele>25.5</ele><time>2026-05-03T13:10:37.225Z</time></trkpt><trkpt lat="44.2879105" lon="8.4443608"><ele>26.0</ele><time>2026-05-03T13:10:38.224Z</time></trkpt><trkpt lat="44.2879826" lon="8.4442257"><ele>26.0</ele><time>2026-05-03T13:10:39.225Z</time></trkpt><trkpt lat="44.2880561" lon="8.4440822"><ele>26.0</ele><time>2026-05-03T13:10:40.225Z</time></trkpt><trkpt lat="44.2881318" lon="8.4439352"><ele>26.0</ele><time>2026-05-03T13:10:41.225Z</time></trkpt><trkpt lat="44.2882082" lon="8.4437814"><ele>26.0</ele><time>2026-05-03T13:10:42.225Z</time></trkpt><trkpt lat="44.2882782" lon="8.4436205"><ele>26.5</ele><time>2026-05-03T13:10:43.224Z</time></trkpt><trkpt lat="44.2883345" lon="8.4434518"><ele>27.0</ele><time>2026-05-03T13:10:44.224Z</time></trkpt><trkpt lat="44.2883822" lon="8.4432738"><ele>27.5</ele><time>2026-05-03T13:10:45.225Z</time></trkpt><trkpt lat="44.2884214" lon="8.4430924"><ele>28.0</ele><time>2026-05-03T13:10:46.225Z</time></trkpt><trkpt lat="44.2884529" lon="8.4429089"><ele>27.0</ele><time>2026-05-03T13:10:47.224Z</time></trkpt><trkpt lat="44.2884843" lon="8.4427363"><ele>26.0</ele><time>2026-05-03T13:10:48.225Z</time></trkpt><trkpt lat="44.288514" lon="8.4425775"><ele>25.0</ele><time>2026-05-03T13:10:49.225Z</time></trkpt><trkpt lat="44.288533" lon="8.4424387"><ele>24.0</ele><time>2026-05-03T13:10:50.224Z</time></trkpt><trkpt lat="44.2885305" lon="8.4422909"><ele>24.0</ele><time>2026-05-03T13:10:51.225Z</time></trkpt><trkpt lat="44.2885042" lon="8.4421349"><ele>24.0</ele><time>2026-05-03T13:10:52.225Z</time></trkpt><trkpt lat="44.2884484" lon="8.4419807"><ele>24.0</ele><time>2026-05-03T13:10:53.224Z</time></trkpt><trkpt lat="44.2883739" lon="8.441817"><ele>24.0</ele><time>2026-05-03T13:10:54.226Z</time></trkpt><trkpt lat="44.2883069" lon="8.4416449"><ele>24.0</ele><time>2026-05-03T13:10:55.226Z</time></trkpt><trkpt lat="44.2882442" lon="8.4414694"><ele>24.0</ele><time>2026-05-03T13:10:56.226Z</time></trkpt><trkpt lat="44.2881806" lon="8.4412887"><ele>24.0</ele><time>2026-05-03T13:10:57.226Z</time></trkpt><trkpt lat="44.2881153" lon="8.4411079"><ele>24.0</ele><time>2026-05-03T13:10:58.226Z</time></trkpt><trkpt lat="44.2880507" lon="8.4409288"><ele>23.75</ele><time>2026-05-03T13:10:59.226Z</time></trkpt><trkpt lat="44.2879855" lon="8.4407453"><ele>23.5</ele><time>2026-05-03T13:11:00.226Z</time></trkpt><trkpt lat="44.2879206" lon="8.4405695"><ele>23.25</ele><time>2026-05-03T13:11:01.226Z</time></trkpt><trkpt lat="44.2878562" lon="8.4403962"><ele>23.0</ele><time>2026-05-03T13:11:02.226Z</time></trkpt><trkpt lat="44.2877949" lon="8.4402235"><ele>23.0</ele><time>2026-05-03T13:11:03.225Z</time></trkpt><trkpt lat="44.2877354" lon="8.4400436"><ele>23.0</ele><time>2026-05-03T13:11:04.226Z</time></trkpt><trkpt lat="44.2876783" lon="8.4398614"><ele>23.0</ele><time>2026-05-03T13:11:05.226Z</time></trkpt><trkpt lat="44.2876226" lon="8.4396743"><ele>23.0</ele><time>2026-05-03T13:11:06.226Z</time></trkpt><trkpt lat="44.2875569" lon="8.4394838"><ele>23.0</ele><time>2026-05-03T13:11:07.226Z</time></trkpt><trkpt lat="44.2874878" lon="8.4393017"><ele>23.0</ele><time>2026-05-03T13:11:08.225Z</time></trkpt><trkpt lat="44.287412" lon="8.439118"><ele>23.0</ele><time>2026-05-03T13:11:09.226Z</time></trkpt><trkpt lat="44.2873351" lon="8.4389411"><ele>23.0</ele><time>2026-05-03T13:11:10.226Z</time></trkpt><trkpt lat="44.2872601" lon="8.438757"><ele>20.333333333333336</ele><time>2026-05-03T13:11:11.226Z</time></trkpt><trkpt lat="44.2871911" lon="8.4385778"><ele>17.666666666666668</ele><time>2026-05-03T13:11:12.225Z</time></trkpt><trkpt lat="44.2870397" lon="8.4382149"><ele>15.0</ele><time>2026-05-03T13:11:14.226Z</time></trkpt><trkpt lat="44.2869516" lon="8.4380382"><ele>15.333333333333332</ele><time>2026-05-03T13:11:15.226Z</time></trkpt><trkpt lat="44.2868541" lon="8.4378584"><ele>15.666666666666666</ele><time>2026-05-03T13:11:16.226Z</time></trkpt><trkpt lat="44.2867525" lon="8.4376849"><ele>16.0</ele><time>2026-05-03T13:11:17.225Z</time></trkpt><trkpt lat="44.2866543" lon="8.4375057"><ele>16.0</ele><time>2026-05-03T13:11:18.226Z</time></trkpt><trkpt lat="44.2865492" lon="8.4373312"><ele>16.0</ele><time>2026-05-03T13:11:19.226Z</time></trkpt><trkpt lat="44.2864426" lon="8.4371573"><ele>16.0</ele><time>2026-05-03T13:11:20.226Z</time></trkpt><trkpt lat="44.2863336" lon="8.4369902"><ele>14.333333333333332</ele><time>2026-05-03T13:11:21.226Z</time></trkpt><trkpt lat="44.2862225" lon="8.4368298"><ele>12.666666666666666</ele><time>2026-05-03T13:11:22.226Z</time></trkpt><trkpt lat="44.2861118" lon="8.436674"><ele>11.0</ele><time>2026-05-03T13:11:23.226Z</time></trkpt><trkpt lat="44.2859987" lon="8.4365237"><ele>11.0</ele><time>2026-05-03T13:11:24.225Z</time></trkpt><trkpt lat="44.2858835" lon="8.4363786"><ele>11.0</ele><time>2026-05-03T13:11:25.225Z</time></trkpt><trkpt lat="44.2857683" lon="8.4362405"><ele>11.0</ele><time>2026-05-03T13:11:26.225Z</time></trkpt><trkpt lat="44.2856533" lon="8.4361138"><ele>10.5</ele><time>2026-05-03T13:11:27.225Z</time></trkpt><trkpt lat="44.2855358" lon="8.435995"><ele>10.0</ele><time>2026-05-03T13:11:28.225Z</time></trkpt><trkpt lat="44.285414" lon="8.4358869"><ele>9.5</ele><time>2026-05-03T13:11:29.225Z</time></trkpt><trkpt lat="44.2852933" lon="8.4357807"><ele>9.0</ele><time>2026-05-03T13:11:30.225Z</time></trkpt><trkpt lat="44.2851711" lon="8.4356777"><ele>9.0</ele><time>2026-05-03T13:11:31.226Z</time></trkpt><trkpt lat="44.2850519" lon="8.4355793"><ele>9.0</ele><time>2026-05-03T13:11:32.226Z</time></trkpt><trkpt lat="44.284942" lon="8.4354895"><ele>9.0</ele><time>2026-05-03T13:11:33.225Z</time></trkpt><trkpt lat="44.2848457" lon="8.4354106"><ele>9.0</ele><time>2026-05-03T13:11:34.226Z</time></trkpt><trkpt lat="44.2847693" lon="8.4353489"><ele>8.666666666666666</ele><time>2026-05-03T13:11:35.226Z</time></trkpt><trkpt lat="44.28469" lon="8.43528"><ele>8.333333333333334</ele><time>2026-05-03T13:11:37.226Z</time></trkpt><trkpt lat="44.284669" lon="8.4351411"><ele>8.0</ele><time>2026-05-03T13:11:43.226Z</time></trkpt><trkpt lat="44.2846656" lon="8.4350461"><ele>7.666666666666667</ele><time>2026-05-03T13:11:44.225Z</time></trkpt><trkpt lat="44.2846856" lon="8.4349508"><ele>7.333333333333334</ele><time>2026-05-03T13:11:45.226Z</time></trkpt><trkpt lat="44.2847164" lon="8.4348414"><ele>7.0</ele><time>2026-05-03T13:11:46.225Z</time></trkpt><trkpt lat="44.2847628" lon="8.4347276"><ele>7.3999999999999995</ele><time>2026-05-03T13:11:47.225Z</time></trkpt><trkpt lat="44.2848153" lon="8.4346128"><ele>7.799999999999999</ele><time>2026-05-03T13:11:48.226Z</time></trkpt><trkpt lat="44.2848761" lon="8.4345005"><ele>8.2</ele><time>2026-05-03T13:11:49.226Z</time></trkpt><trkpt lat="44.2849524" lon="8.4343887"><ele>8.6</ele><time>2026-05-03T13:11:50.226Z</time></trkpt><trkpt lat="44.2850294" lon="8.4342663"><ele>9.0</ele><time>2026-05-03T13:11:51.225Z</time></trkpt><trkpt lat="44.2850988" lon="8.4341558"><ele>9.0</ele><time>2026-05-03T13:11:52.226Z</time></trkpt><trkpt lat="44.2851832" lon="8.434027"><ele>9.0</ele><time>2026-05-03T13:11:53.226Z</time></trkpt><trkpt lat="44.2852646" lon="8.4339202"><ele>9.0</ele><time>2026-05-03T13:11:54.226Z</time></trkpt><trkpt lat="44.2853608" lon="8.4338223"><ele>9.0</ele><time>2026-05-03T13:11:55.226Z</time></trkpt><trkpt lat="44.2854529" lon="8.4337385"><ele>8.8</ele><time>2026-05-03T13:11:56.226Z</time></trkpt><trkpt lat="44.2855381" lon="8.433663"><ele>8.600000000000001</ele><time>2026-05-03T13:11:57.225Z</time></trkpt><trkpt lat="44.2856184" lon="8.4335838"><ele>8.4</ele><time>2026-05-03T13:11:58.226Z</time></trkpt><trkpt lat="44.2856942" lon="8.4335102"><ele>8.200000000000001</ele><time>2026-05-03T13:11:59.225Z</time></trkpt><trkpt lat="44.2857606" lon="8.4334434"><ele>8.0</ele><time>2026-05-03T13:12:00.225Z</time></trkpt><trkpt lat="44.2858259" lon="8.433385"><ele>8.0</ele><time>2026-05-03T13:12:01.226Z</time></trkpt><trkpt lat="44.2858873" lon="8.4333276"><ele>8.0</ele><time>2026-05-03T13:12:02.225Z</time></trkpt><trkpt lat="44.2859413" lon="8.433282"><ele>8.0</ele><time>2026-05-03T13:12:03.226Z</time></trkpt><trkpt lat="44.2860457" lon="8.4331946"><ele>8.0</ele><time>2026-05-03T13:12:05.226Z</time></trkpt><trkpt lat="44.2861365" lon="8.4331058"><ele>8.0</ele><time>2026-05-03T13:12:07.226Z</time></trkpt><trkpt lat="44.2861382" lon="8.4329931"><ele>8.0</ele><time>2026-05-03T13:12:09.226Z</time></trkpt><trkpt lat="44.2860432" lon="8.4328902"><ele>8.0</ele><time>2026-05-03T13:12:11.226Z</time></trkpt><trkpt lat="44.2859443" lon="8.432822"><ele>8.0</ele><time>2026-05-03T13:12:12.225Z</time></trkpt><trkpt lat="44.2858632" lon="8.4327141"><ele>8.0</ele><time>2026-05-03T13:12:13.225Z</time></trkpt><trkpt lat="44.2857813" lon="8.4326031"><ele>8.0</ele><time>2026-05-03T13:12:14.225Z</time></trkpt><trkpt lat="44.2857024" lon="8.4324911"><ele>8.0</ele><time>2026-05-03T13:12:15.226Z</time></trkpt><trkpt lat="44.2856298" lon="8.4323953"><ele>8.0</ele><time>2026-05-03T13:12:16.225Z</time></trkpt><trkpt lat="44.285571" lon="8.4323111"><ele>8.0</ele><time>2026-05-03T13:12:17.225Z</time></trkpt><trkpt lat="44.2855108" lon="8.4322278"><ele>8.0</ele><time>2026-05-03T13:12:18.226Z</time></trkpt><trkpt lat="44.2854483" lon="8.4321426"><ele>7.833333333333333</ele><time>2026-05-03T13:12:19.226Z</time></trkpt><trkpt lat="44.2853994" lon="8.4320731"><ele>7.666666666666666</ele><time>2026-05-03T13:12:20.226Z</time></trkpt><trkpt lat="44.2853408" lon="8.4319913"><ele>7.5</ele><time>2026-05-03T13:12:22.227Z</time></trkpt><trkpt lat="44.285277" lon="8.4319917"><ele>7.333333333333334</ele><time>2026-05-03T13:12:24.227Z</time></trkpt><trkpt lat="44.2852127" lon="8.43207"><ele>7.166666666666667</ele><time>2026-05-03T13:12:27.227Z</time></trkpt><trkpt lat="44.2851393" lon="8.4321773"><ele>7.0</ele><time>2026-05-03T13:12:29.226Z</time></trkpt><trkpt lat="44.2850716" lon="8.4322824"><ele>7.199999999999999</ele><time>2026-05-03T13:12:31.227Z</time></trkpt><trkpt lat="44.2849709" lon="8.4323159"><ele>7.3999999999999995</ele><time>2026-05-03T13:12:33.226Z</time></trkpt><trkpt lat="44.2848489" lon="8.4322642"><ele>7.6000000000000005</ele><time>2026-05-03T13:12:35.227Z</time></trkpt><trkpt lat="44.2847585" lon="8.4322381"><ele>7.800000000000001</ele><time>2026-05-03T13:12:37.227Z</time></trkpt><trkpt lat="44.2846764" lon="8.4322362"><ele>8.0</ele><time>2026-05-03T13:12:39.227Z</time></trkpt><trkpt lat="44.2846063" lon="8.4321777"><ele>8.0</ele><time>2026-05-03T13:12:41.227Z</time></trkpt><trkpt lat="44.2845405" lon="8.4321057"><ele>7.999999999999999</ele><time>2026-05-03T13:12:43.227Z</time></trkpt><trkpt lat="44.2844905" lon="8.4320428"><ele>8.0</ele><time>2026-05-03T13:12:45.227Z</time></trkpt><trkpt lat="44.28452" lon="8.4319496"><ele>8.0</ele><time>2026-05-03T13:12:51.226Z</time></trkpt><trkpt lat="44.2844917" lon="8.4320777"><ele>7.999999999999999</ele><time>2026-05-03T13:13:35.061Z</time></trkpt><trkpt lat="44.2845064" lon="8.4321667"><ele>8.0</ele><time>2026-05-03T13:14:17.941Z</time></trkpt><trkpt lat="44.2845675" lon="8.4321926"><ele>8.0</ele><time>2026-05-03T13:14:28.244Z</time></trkpt><trkpt lat="44.2845503" lon="8.4322832"><ele>7.999999999999999</ele><time>2026-05-03T13:14:49.887Z</time></trkpt><trkpt lat="44.2844248" lon="8.4322657"><ele>8.0</ele><time>2026-05-03T13:21:47.768Z</time></trkpt><trkpt lat="44.2844787" lon="8.4321978"><ele>8.0</ele><time>2026-05-03T13:22:57.628Z</time></trkpt><trkpt lat="44.2845339" lon="8.4321308"><ele>8.0</ele><time>2026-05-03T13:23:09.021Z</time></trkpt><trkpt lat="44.2845577" lon="8.4320438"><ele>7.999999999999999</ele><time>2026-05-03T13:23:16.327Z</time></trkpt><trkpt lat="44.28459" lon="8.4319054"><ele>8.0</ele><time>2026-05-03T13:23:51.302Z</time></trkpt><trkpt lat="44.2845253" lon="8.4319229"><ele>8.200000000000001</ele><time>2026-05-03T13:23:59.267Z</time></trkpt><trkpt lat="44.2845763" lon="8.432053"><ele>8.4</ele><time>2026-05-03T13:24:02.234Z</time></trkpt><trkpt lat="44.2846626" lon="8.4320573"><ele>8.600000000000001</ele><time>2026-05-03T13:24:04.261Z</time></trkpt><trkpt lat="44.284745" lon="8.4320323"><ele>8.8</ele><time>2026-05-03T13:24:05.304Z</time></trkpt><trkpt lat="44.2848196" lon="8.4320483"><ele>9.0</ele><time>2026-05-03T13:24:07.311Z</time></trkpt><trkpt lat="44.284913" lon="8.4321457"><ele>9.0</ele><time>2026-05-03T13:24:09.234Z</time></trkpt><trkpt lat="44.284955" lon="8.4322212"><ele>9.0</ele><time>2026-05-03T13:24:10.234Z</time></trkpt><trkpt lat="44.2849996" lon="8.4322889"><ele>9.0</ele><time>2026-05-03T13:24:11.233Z</time></trkpt><trkpt lat="44.2851103" lon="8.4323222"><ele>9.0</ele><time>2026-05-03T13:24:13.233Z</time></trkpt><trkpt lat="44.2851771" lon="8.4322891"><ele>9.0</ele><time>2026-05-03T13:24:14.234Z</time></trkpt><trkpt lat="44.2852439" lon="8.4322242"><ele>9.0</ele><time>2026-05-03T13:24:15.234Z</time></trkpt><trkpt lat="44.2852886" lon="8.4321519"><ele>9.0</ele><time>2026-05-03T13:24:16.233Z</time></trkpt><trkpt lat="44.2853313" lon="8.4320516"><ele>9.0</ele><time>2026-05-03T13:24:18.234Z</time></trkpt><trkpt lat="44.2853992" lon="8.4320457"><ele>9.0</ele><time>2026-05-03T13:24:23.234Z</time></trkpt><trkpt lat="44.2854907" lon="8.4321737"><ele>9.0</ele><time>2026-05-03T13:24:25.234Z</time></trkpt><trkpt lat="44.2855342" lon="8.4322584"><ele>9.0</ele><time>2026-05-03T13:24:26.235Z</time></trkpt><trkpt lat="44.2855823" lon="8.4323407"><ele>9.0</ele><time>2026-05-03T13:24:27.234Z</time></trkpt><trkpt lat="44.2856349" lon="8.4324257"><ele>8.833333333333334</ele><time>2026-05-03T13:24:28.234Z</time></trkpt><trkpt lat="44.2856887" lon="8.4325166"><ele>8.666666666666666</ele><time>2026-05-03T13:24:29.235Z</time></trkpt><trkpt lat="44.285739" lon="8.4326065"><ele>8.5</ele><time>2026-05-03T13:24:30.235Z</time></trkpt><trkpt lat="44.2857923" lon="8.432696"><ele>8.333333333333332</ele><time>2026-05-03T13:24:31.235Z</time></trkpt><trkpt lat="44.2858457" lon="8.4327851"><ele>8.166666666666666</ele><time>2026-05-03T13:24:32.235Z</time></trkpt><trkpt lat="44.2858983" lon="8.4328652"><ele>8.0</ele><time>2026-05-03T13:24:33.235Z</time></trkpt><trkpt lat="44.2859438" lon="8.432935"><ele>8.0</ele><time>2026-05-03T13:24:34.235Z</time></trkpt><trkpt lat="44.2860004" lon="8.4330494"><ele>8.0</ele><time>2026-05-03T13:24:36.235Z</time></trkpt><trkpt lat="44.2860343" lon="8.4331656"><ele>8.0</ele><time>2026-05-03T13:24:38.234Z</time></trkpt><trkpt lat="44.2861015" lon="8.433259"><ele>8.0</ele><time>2026-05-03T13:24:40.235Z</time></trkpt><trkpt lat="44.2862041" lon="8.4332277"><ele>8.0</ele><time>2026-05-03T13:24:42.235Z</time></trkpt><trkpt lat="44.2862707" lon="8.4331773"><ele>8.0</ele><time>2026-05-03T13:24:43.234Z</time></trkpt><trkpt lat="44.2863467" lon="8.4330677"><ele>8.0</ele><time>2026-05-03T13:24:44.235Z</time></trkpt><trkpt lat="44.2864196" lon="8.4329086"><ele>8.0</ele><time>2026-05-03T13:24:45.235Z</time></trkpt><trkpt lat="44.2864949" lon="8.4327256"><ele>8.0</ele><time>2026-05-03T13:24:46.234Z</time></trkpt><trkpt lat="44.2865662" lon="8.4325421"><ele>8.0</ele><time>2026-05-03T13:24:47.235Z</time></trkpt><trkpt lat="44.2866334" lon="8.4323615"><ele>8.0</ele><time>2026-05-03T13:24:48.235Z</time></trkpt><trkpt lat="44.2866994" lon="8.4322015"><ele>8.0</ele><time>2026-05-03T13:24:49.234Z</time></trkpt><trkpt lat="44.2867666" lon="8.4320516"><ele>8.0</ele><time>2026-05-03T13:24:50.235Z</time></trkpt><trkpt lat="44.2868377" lon="8.4319044"><ele>8.0</ele><time>2026-05-03T13:24:51.235Z</time></trkpt><trkpt lat="44.2869123" lon="8.4317571"><ele>8.0</ele><time>2026-05-03T13:24:52.234Z</time></trkpt><trkpt lat="44.2869891" lon="8.4316112"><ele>8.0</ele><time>2026-05-03T13:24:53.234Z</time></trkpt><trkpt lat="44.2870658" lon="8.4314673"><ele>8.0</ele><time>2026-05-03T13:24:54.234Z</time></trkpt><trkpt lat="44.2871361" lon="8.4313273"><ele>8.25</ele><time>2026-05-03T13:24:55.234Z</time></trkpt><trkpt lat="44.287199" lon="8.4311881"><ele>8.5</ele><time>2026-05-03T13:24:56.234Z</time></trkpt><trkpt lat="44.2872584" lon="8.43104"><ele>8.75</ele><time>2026-05-03T13:24:57.235Z</time></trkpt><trkpt lat="44.2873087" lon="8.4308827"><ele>9.0</ele><time>2026-05-03T13:24:58.235Z</time></trkpt><trkpt lat="44.2873566" lon="8.430716"><ele>9.25</ele><time>2026-05-03T13:24:59.235Z</time></trkpt><trkpt lat="44.2873973" lon="8.4305387"><ele>9.5</ele><time>2026-05-03T13:25:00.235Z</time></trkpt><trkpt lat="44.2874409" lon="8.4303729"><ele>9.75</ele><time>2026-05-03T13:25:01.235Z</time></trkpt><trkpt lat="44.2874815" lon="8.4302019"><ele>10.0</ele><time>2026-05-03T13:25:02.235Z</time></trkpt><trkpt lat="44.2875217" lon="8.4300321"><ele>10.0</ele><time>2026-05-03T13:25:03.235Z</time></trkpt><trkpt lat="44.2875634" lon="8.4298652"><ele>10.0</ele><time>2026-05-03T13:25:04.234Z</time></trkpt><trkpt lat="44.2876025" lon="8.4297046"><ele>10.0</ele><time>2026-05-03T13:25:05.235Z</time></trkpt><trkpt lat="44.2876407" lon="8.4295439"><ele>10.0</ele><time>2026-05-03T13:25:06.234Z</time></trkpt><trkpt lat="44.2876779" lon="8.4293893"><ele>10.0</ele><time>2026-05-03T13:25:07.235Z</time></trkpt><trkpt lat="44.2877129" lon="8.4292372"><ele>10.0</ele><time>2026-05-03T13:25:08.234Z</time></trkpt><trkpt lat="44.2877458" lon="8.4290987"><ele>10.0</ele><time>2026-05-03T13:25:09.235Z</time></trkpt><trkpt lat="44.2877775" lon="8.4289693"><ele>10.0</ele><time>2026-05-03T13:25:10.234Z</time></trkpt><trkpt lat="44.2878046" lon="8.4288445"><ele>10.0</ele><time>2026-05-03T13:25:11.235Z</time></trkpt><trkpt lat="44.2878292" lon="8.4287295"><ele>9.857142857142858</ele><time>2026-05-03T13:25:12.235Z</time></trkpt><trkpt lat="44.2878531" lon="8.4286217"><ele>9.714285714285715</ele><time>2026-05-03T13:25:13.234Z</time></trkpt><trkpt lat="44.2878791" lon="8.4285278"><ele>9.571428571428573</ele><time>2026-05-03T13:25:14.235Z</time></trkpt><trkpt lat="44.2879021" lon="8.4284396"><ele>9.428571428571429</ele><time>2026-05-03T13:25:15.234Z</time></trkpt><trkpt lat="44.2879206" lon="8.4283553"><ele>9.285714285714286</ele><time>2026-05-03T13:25:16.234Z</time></trkpt><trkpt lat="44.2879324" lon="8.4282512"><ele>9.142857142857144</ele><time>2026-05-03T13:25:17.235Z</time></trkpt><trkpt lat="44.2879474" lon="8.4281319"><ele>9.0</ele><time>2026-05-03T13:25:18.234Z</time></trkpt><trkpt lat="44.2879779" lon="8.4279898"><ele>9.25</ele><time>2026-05-03T13:25:19.235Z</time></trkpt><trkpt lat="44.2880148" lon="8.4278431"><ele>9.5</ele><time>2026-05-03T13:25:20.235Z</time></trkpt><trkpt lat="44.2880608" lon="8.427684"><ele>9.75</ele><time>2026-05-03T13:25:21.235Z</time></trkpt><trkpt lat="44.2881115" lon="8.4275226"><ele>10.0</ele><time>2026-05-03T13:25:22.234Z</time></trkpt><trkpt lat="44.2881615" lon="8.4273757"><ele>10.0</ele><time>2026-05-03T13:25:23.235Z</time></trkpt><trkpt lat="44.288207" lon="8.427231"><ele>10.0</ele><time>2026-05-03T13:25:24.235Z</time></trkpt><trkpt lat="44.2882522" lon="8.4270768"><ele>10.0</ele><time>2026-05-03T13:25:25.235Z</time></trkpt><trkpt lat="44.2882951" lon="8.4269105"><ele>10.0</ele><time>2026-05-03T13:25:26.235Z</time></trkpt><trkpt lat="44.2883363" lon="8.4267319"><ele>10.5</ele><time>2026-05-03T13:25:27.235Z</time></trkpt><trkpt lat="44.2883773" lon="8.4265463"><ele>11.0</ele><time>2026-05-03T13:25:28.235Z</time></trkpt><trkpt lat="44.288423" lon="8.4263632"><ele>11.5</ele><time>2026-05-03T13:25:29.235Z</time></trkpt><trkpt lat="44.2884723" lon="8.4261824"><ele>12.0</ele><time>2026-05-03T13:25:30.234Z</time></trkpt><trkpt lat="44.288522" lon="8.4260011"><ele>12.0</ele><time>2026-05-03T13:25:31.235Z</time></trkpt><trkpt lat="44.2885718" lon="8.4258161"><ele>12.0</ele><time>2026-05-03T13:25:32.235Z</time></trkpt><trkpt lat="44.2886216" lon="8.4256302"><ele>12.0</ele><time>2026-05-03T13:25:33.235Z</time></trkpt><trkpt lat="44.2886708" lon="8.4254406"><ele>12.0</ele><time>2026-05-03T13:25:34.235Z</time></trkpt><trkpt lat="44.2887227" lon="8.4252518"><ele>11.75</ele><time>2026-05-03T13:25:35.234Z</time></trkpt><trkpt lat="44.2887831" lon="8.4250661"><ele>11.5</ele><time>2026-05-03T13:25:36.235Z</time></trkpt><trkpt lat="44.288848" lon="8.4248815"><ele>11.25</ele><time>2026-05-03T13:25:37.235Z</time></trkpt><trkpt lat="44.2889219" lon="8.424703"><ele>11.0</ele><time>2026-05-03T13:25:38.234Z</time></trkpt><trkpt lat="44.288998" lon="8.4245233"><ele>12.25</ele><time>2026-05-03T13:25:39.235Z</time></trkpt><trkpt lat="44.2890742" lon="8.4243455"><ele>13.5</ele><time>2026-05-03T13:25:40.234Z</time></trkpt><trkpt lat="44.2891491" lon="8.4241687"><ele>14.75</ele><time>2026-05-03T13:25:41.234Z</time></trkpt><trkpt lat="44.2892244" lon="8.4239929"><ele>16.0</ele><time>2026-05-03T13:25:42.234Z</time></trkpt><trkpt lat="44.2892973" lon="8.4238166"><ele>16.0</ele><time>2026-05-03T13:25:43.235Z</time></trkpt><trkpt lat="44.2893692" lon="8.4236333"><ele>16.0</ele><time>2026-05-03T13:25:44.235Z</time></trkpt><trkpt lat="44.289441" lon="8.423459"><ele>16.0</ele><time>2026-05-03T13:25:45.235Z</time></trkpt><trkpt lat="44.289506" lon="8.4232538"><ele>16.0</ele><time>2026-05-03T13:25:46.235Z</time></trkpt><trkpt lat="44.2895701" lon="8.4230407"><ele>16.0</ele><time>2026-05-03T13:25:47.234Z</time></trkpt><trkpt lat="44.2896343" lon="8.4228121"><ele>16.0</ele><time>2026-05-03T13:25:48.235Z</time></trkpt><trkpt lat="44.2896992" lon="8.4225817"><ele>16.666666666666664</ele><time>2026-05-03T13:25:49.235Z</time></trkpt><trkpt lat="44.2897638" lon="8.4223485"><ele>17.333333333333332</ele><time>2026-05-03T13:25:50.235Z</time></trkpt><trkpt lat="44.2898297" lon="8.4221285"><ele>18.0</ele><time>2026-05-03T13:25:51.234Z</time></trkpt><trkpt lat="44.2898967" lon="8.4219073"><ele>18.333333333333332</ele><time>2026-05-03T13:25:52.235Z</time></trkpt><trkpt lat="44.2899661" lon="8.421689"><ele>18.666666666666664</ele><time>2026-05-03T13:25:53.235Z</time></trkpt><trkpt lat="44.2900318" lon="8.4214684"><ele>19.0</ele><time>2026-05-03T13:25:54.234Z</time></trkpt><trkpt lat="44.290102" lon="8.4212498"><ele>17.666666666666664</ele><time>2026-05-03T13:25:55.235Z</time></trkpt><trkpt lat="44.2901681" lon="8.4210342"><ele>16.333333333333332</ele><time>2026-05-03T13:25:56.236Z</time></trkpt><trkpt lat="44.2902371" lon="8.4208168"><ele>15.0</ele><time>2026-05-03T13:25:57.236Z</time></trkpt><trkpt lat="44.290303" lon="8.4206081"><ele>14.666666666666668</ele><time>2026-05-03T13:25:58.236Z</time></trkpt><trkpt lat="44.2903777" lon="8.4203992"><ele>14.333333333333334</ele><time>2026-05-03T13:25:59.235Z</time></trkpt><trkpt lat="44.2904521" lon="8.4201941"><ele>14.0</ele><time>2026-05-03T13:26:00.236Z</time></trkpt><trkpt lat="44.2905393" lon="8.4200011"><ele>14.666666666666668</ele><time>2026-05-03T13:26:01.235Z</time></trkpt><trkpt lat="44.2906426" lon="8.4198269"><ele>15.333333333333332</ele><time>2026-05-03T13:26:02.236Z</time></trkpt><trkpt lat="44.2907532" lon="8.4196429"><ele>16.0</ele><time>2026-05-03T13:26:03.236Z</time></trkpt><trkpt lat="44.2908626" lon="8.4194619"><ele>16.0</ele><time>2026-05-03T13:26:04.236Z</time></trkpt><trkpt lat="44.2909627" lon="8.4192709"><ele>16.0</ele><time>2026-05-03T13:26:05.236Z</time></trkpt><trkpt lat="44.2910601" lon="8.4190826"><ele>16.0</ele><time>2026-05-03T13:26:06.236Z</time></trkpt><trkpt lat="44.2911554" lon="8.4188817"><ele>16.0</ele><time>2026-05-03T13:26:07.236Z</time></trkpt><trkpt lat="44.2912399" lon="8.4186762"><ele>16.0</ele><time>2026-05-03T13:26:08.236Z</time></trkpt><trkpt lat="44.2913249" lon="8.4184734"><ele>16.0</ele><time>2026-05-03T13:26:09.236Z</time></trkpt><trkpt lat="44.2913956" lon="8.418275"><ele>16.5</ele><time>2026-05-03T13:26:10.236Z</time></trkpt><trkpt lat="44.29145" lon="8.4180793"><ele>17.0</ele><time>2026-05-03T13:26:11.236Z</time></trkpt><trkpt lat="44.2914858" lon="8.417893"><ele>17.5</ele><time>2026-05-03T13:26:12.236Z</time></trkpt><trkpt lat="44.2915259" lon="8.4177102"><ele>18.0</ele><time>2026-05-03T13:26:13.236Z</time></trkpt><trkpt lat="44.2915667" lon="8.4175403"><ele>18.2</ele><time>2026-05-03T13:26:14.235Z</time></trkpt><trkpt lat="44.2915974" lon="8.4173837"><ele>18.4</ele><time>2026-05-03T13:26:15.236Z</time></trkpt><trkpt lat="44.2916187" lon="8.4172415"><ele>18.599999999999998</ele><time>2026-05-03T13:26:16.236Z</time></trkpt><trkpt lat="44.2916287" lon="8.4171253"><ele>18.8</ele><time>2026-05-03T13:26:17.236Z</time></trkpt><trkpt lat="44.2916377" lon="8.4169753"><ele>19.0</ele><time>2026-05-03T13:26:19.236Z</time></trkpt><trkpt lat="44.2917178" lon="8.4169615"><ele>19.5</ele><time>2026-05-03T13:26:22.236Z</time></trkpt><trkpt lat="44.2918225" lon="8.4170044"><ele>20.0</ele><time>2026-05-03T13:26:24.236Z</time></trkpt><trkpt lat="44.2919195" lon="8.4170078"><ele>20.5</ele><time>2026-05-03T13:26:26.236Z</time></trkpt><trkpt lat="44.2919742" lon="8.4169453"><ele>21.0</ele><time>2026-05-03T13:26:29.235Z</time></trkpt><trkpt lat="44.2919279" lon="8.4168638"><ele>21.5</ele><time>2026-05-03T13:26:31.235Z</time></trkpt><trkpt lat="44.2919588" lon="8.4167717"><ele>22.0</ele><time>2026-05-03T13:27:31.237Z</time></trkpt><trkpt lat="44.2920957" lon="8.4168043"><ele>22.0</ele><time>2026-05-03T13:27:33.237Z</time></trkpt><trkpt lat="44.2921687" lon="8.4168211"><ele>22.0</ele><time>2026-05-03T13:27:34.237Z</time></trkpt><trkpt lat="44.2922312" lon="8.4168394"><ele>22.0</ele><time>2026-05-03T13:27:35.237Z</time></trkpt><trkpt lat="44.2923376" lon="8.4168645"><ele>22.0</ele><time>2026-05-03T13:27:37.237Z</time></trkpt><trkpt lat="44.2922721" lon="8.4169032"><ele>22.0</ele><time>2026-05-03T13:28:08.237Z</time></trkpt><trkpt lat="44.2923597" lon="8.4168323"><ele>22.0</ele><time>2026-05-03T13:28:14.167Z</time></trkpt><trkpt lat="44.2922805" lon="8.4168204"><ele>22.0</ele><time>2026-05-03T13:28:22.315Z</time></trkpt><trkpt lat="44.292213" lon="8.4168471"><ele>22.0</ele><time>2026-05-03T13:28:29.236Z</time></trkpt><trkpt lat="44.2921503" lon="8.4168642"><ele>22.0</ele><time>2026-05-03T13:28:35.236Z</time></trkpt><trkpt lat="44.2920864" lon="8.4168799"><ele>22.0</ele><time>2026-05-03T13:28:40.309Z</time></trkpt><trkpt lat="44.292039" lon="8.4169536"><ele>22.0</ele><time>2026-05-03T13:28:46.309Z</time></trkpt><trkpt lat="44.2919904" lon="8.416894"><ele>22.0</ele><time>2026-05-03T13:29:08.987Z</time></trkpt><trkpt lat="44.2919937" lon="8.4169925"><ele>22.0</ele><time>2026-05-03T13:29:13.334Z</time></trkpt><trkpt lat="44.2920185" lon="8.4169044"><ele>22.0</ele><time>2026-05-03T13:30:46.302Z</time></trkpt><trkpt lat="44.2920674" lon="8.4169647"><ele>22.0</ele><time>2026-05-03T13:33:58.306Z</time></trkpt><trkpt lat="44.2919701" lon="8.4169711"><ele>22.0</ele><time>2026-05-03T13:36:11.313Z</time></trkpt><trkpt lat="44.2920358" lon="8.4169636"><ele>22.0</ele><time>2026-05-03T13:36:54.329Z</time></trkpt><trkpt lat="44.2919624" lon="8.416976"><ele>22.0</ele><time>2026-05-03T13:38:06.352Z</time></trkpt></trkseg></trk></gpx>